<?xml version='1.0' encoding='UTF-8'?><gpx version="1.1" creator="JPX - https://github.com/jenetics/jpx" xmlns="http://www.topografix.com/GPX/1/1"><trk><trkseg><trkpt lat="44.8637302332429" lon="9.660202363052528"><ele>373.0</ele><time>2026-05-02T07:17:18.998Z</time></trkpt><trkpt lat="44.863685714928856" lon="9.660285830869853"><ele>373.0</ele><time>2026-05-02T07:17:24.998Z</time></trkpt><trkpt lat="44.86364540261148" lon="9.66021501220774"><ele>373.0</ele><time>2026-05-02T07:17:32.998Z</time></trkpt><trkpt lat="44.86357859812241" lon="9.66017538889956"><ele>373.0</ele><time>2026-05-02T07:18:41.999Z</time></trkpt><trkpt lat="44.863515799738934" lon="9.66015812568633"><ele>373.0</ele><time>2026-05-02T07:18:51.999Z</time></trkpt><trkpt lat="44.86357603619309" lon="9.660220535804964"><ele>373.0</ele><time>2026-05-02T07:18:57.999Z</time></trkpt><trkpt lat="44.86363501877837" lon="9.660261401492594"><ele>373.0</ele><time>2026-05-02T07:19:01.999Z</time></trkpt><trkpt lat="44.863702915410194" lon="9.660249640812788"><ele>373.0</ele><time>2026-05-02T07:19:06.999Z</time></trkpt><trkpt lat="44.86375405808" lon="9.66017740771382"><ele>373.0</ele><time>2026-05-02T07:19:12.999Z</time></trkpt><trkpt lat="44.86379918665529" lon="9.660114067029122"><ele>373.0</ele><time>2026-05-02T07:19:17.999Z</time></trkpt><trkpt lat="44.863750705330496" lon="9.660184461221169"><ele>373.0</ele><time>2026-05-02T07:20:01.998Z</time></trkpt><trkpt lat="44.86369748343896" lon="9.660244228744814"><ele>373.0</ele><time>2026-05-02T07:20:08Z</time></trkpt><trkpt lat="44.86363110033665" lon="9.6602642620807"><ele>373.0</ele><time>2026-05-02T07:20:15Z</time></trkpt><trkpt lat="44.8635693735062" lon="9.660222318220367"><ele>373.0</ele><time>2026-05-02T07:20:21Z</time></trkpt><trkpt lat="44.86350762210463" lon="9.660194011058929"><ele>373.0</ele><time>2026-05-02T07:20:28Z</time></trkpt><trkpt lat="44.86356916826107" lon="9.660262666264407"><ele>373.0</ele><time>2026-05-02T07:22:06.998Z</time></trkpt><trkpt lat="44.86363427498625" lon="9.66029154784436"><ele>373.0</ele><time>2026-05-02T07:23:06.999Z</time></trkpt><trkpt lat="44.863703481876655" lon="9.660266603611486"><ele>373.0</ele><time>2026-05-02T07:23:10.999Z</time></trkpt><trkpt lat="44.8637409416424" lon="9.660171136720077"><ele>373.0</ele><time>2026-05-02T07:23:12.999Z</time></trkpt><trkpt lat="44.863793137421965" lon="9.660098181841702"><ele>373.0</ele><time>2026-05-02T07:23:14.999Z</time></trkpt><trkpt lat="44.86385562150259" lon="9.660070205758318"><ele>373.0</ele><time>2026-05-02T07:23:16.999Z</time></trkpt><trkpt lat="44.863918482059475" lon="9.660052945672087"><ele>373.0</ele><time>2026-05-02T07:23:17.999Z</time></trkpt><trkpt lat="44.863994096489115" lon="9.660043543181898"><ele>373.0</ele><time>2026-05-02T07:23:18.999Z</time></trkpt><trkpt lat="44.86409754230644" lon="9.660045314743586"><ele>373.0</ele><time>2026-05-02T07:23:20.999Z</time></trkpt><trkpt lat="44.86417747457" lon="9.660004762404533"><ele>373.0</ele><time>2026-05-02T07:23:22.999Z</time></trkpt><trkpt lat="44.8642683050005" lon="9.659898393507955"><ele>373.0</ele><time>2026-05-02T07:23:24.999Z</time></trkpt><trkpt lat="44.86432562802965" lon="9.659765997845328"><ele>370.8333333333333</ele><time>2026-05-02T07:23:26.999Z</time></trkpt><trkpt lat="44.86439415682649" lon="9.659622046206701"><ele>368.66666666666663</ele><time>2026-05-02T07:23:28.999Z</time></trkpt><trkpt lat="44.864459173613106" lon="9.659515332852646"><ele>366.5</ele><time>2026-05-02T07:23:30.999Z</time></trkpt><trkpt lat="44.864514824101" lon="9.659453768609673"><ele>364.3333333333333</ele><time>2026-05-02T07:23:32.999Z</time></trkpt><trkpt lat="44.86455440506407" lon="9.659367878223586"><ele>362.1666666666667</ele><time>2026-05-02T07:23:36.999Z</time></trkpt><trkpt lat="44.864600086643925" lon="9.659302671541981"><ele>360.0</ele><time>2026-05-02T07:23:40.998Z</time></trkpt><trkpt lat="44.86464806282623" lon="9.659212038035774"><ele>360.0</ele><time>2026-05-02T07:24:08.998Z</time></trkpt><trkpt lat="44.86462695773882" lon="9.659113463617935"><ele>360.0</ele><time>2026-05-02T07:24:10.998Z</time></trkpt><trkpt lat="44.86454905967672" lon="9.65903928227575"><ele>360.0</ele><time>2026-05-02T07:24:13.998Z</time></trkpt><trkpt lat="44.86447615038628" lon="9.659005841280015"><ele>360.0</ele><time>2026-05-02T07:24:15.998Z</time></trkpt><trkpt lat="44.864375209917235" lon="9.659009531440852"><ele>360.0</ele><time>2026-05-02T07:24:18Z</time></trkpt><trkpt lat="44.86430099288694" lon="9.659007129804737"><ele>360.0</ele><time>2026-05-02T07:24:20Z</time></trkpt><trkpt lat="44.86421690176915" lon="9.659015102743629"><ele>359.5</ele><time>2026-05-02T07:24:22Z</time></trkpt><trkpt lat="44.864150516122095" lon="9.658941316807534"><ele>359.0</ele><time>2026-05-02T07:24:26Z</time></trkpt><trkpt lat="44.86409695963185" lon="9.658856452532996"><ele>358.5</ele><time>2026-05-02T07:24:29Z</time></trkpt><trkpt lat="44.864023867352856" lon="9.65884398629027"><ele>358.0</ele><time>2026-05-02T07:24:31Z</time></trkpt><trkpt lat="44.86398372309224" lon="9.658755145626259"><ele>357.5</ele><time>2026-05-02T07:24:34Z</time></trkpt><trkpt lat="44.8639778920375" lon="9.658653935552248"><ele>357.0</ele><time>2026-05-02T07:24:37Z</time></trkpt><trkpt lat="44.86391141709875" lon="9.65860392637638"><ele>357.0</ele><time>2026-05-02T07:24:40Z</time></trkpt><trkpt lat="44.86383027030407" lon="9.65857825273"><ele>357.0</ele><time>2026-05-02T07:24:42Z</time></trkpt><trkpt lat="44.86372006343222" lon="9.65853921471527"><ele>357.0</ele><time>2026-05-02T07:24:44Z</time></trkpt><trkpt lat="44.86363578475801" lon="9.658493095031734"><ele>357.0</ele><time>2026-05-02T07:24:45Z</time></trkpt><trkpt lat="44.863555627192966" lon="9.658461887793496"><ele>357.0</ele><time>2026-05-02T07:24:46Z</time></trkpt><trkpt lat="44.86344460226235" lon="9.658424449700135"><ele>357.5</ele><time>2026-05-02T07:24:48Z</time></trkpt><trkpt lat="44.863383601170455" lon="9.658374860442569"><ele>358.0</ele><time>2026-05-02T07:24:49Z</time></trkpt><trkpt lat="44.86331029519371" lon="9.658281420297756"><ele>358.5</ele><time>2026-05-02T07:24:51Z</time></trkpt><trkpt lat="44.8632506593526" lon="9.65813511371943"><ele>359.0</ele><time>2026-05-02T07:24:53Z</time></trkpt><trkpt lat="44.863236624269355" lon="9.658047158499487"><ele>359.5</ele><time>2026-05-02T07:24:53.999Z</time></trkpt><trkpt lat="44.86323605454375" lon="9.657926705410706"><ele>360.0</ele><time>2026-05-02T07:24:55.999Z</time></trkpt><trkpt lat="44.863194977138235" lon="9.657855730006636"><ele>360.0</ele><time>2026-05-02T07:24:57.999Z</time></trkpt><trkpt lat="44.863131570990326" lon="9.65782873375461"><ele>360.0</ele><time>2026-05-02T07:25:00.999Z</time></trkpt><trkpt lat="44.86318785087441" lon="9.657762390319487"><ele>360.0</ele><time>2026-05-02T07:25:09.999Z</time></trkpt><trkpt lat="44.863272921446686" lon="9.65782008783189"><ele>360.0</ele><time>2026-05-02T07:25:12.999Z</time></trkpt><trkpt lat="44.86335895542175" lon="9.657855247946745"><ele>360.0</ele><time>2026-05-02T07:25:14.999Z</time></trkpt><trkpt lat="44.86343296368979" lon="9.657936358965221"><ele>360.0</ele><time>2026-05-02T07:25:16.999Z</time></trkpt><trkpt lat="44.863492297632945" lon="9.657981034245658"><ele>359.5</ele><time>2026-05-02T07:25:18.999Z</time></trkpt><trkpt lat="44.86360690010379" lon="9.657998772175677"><ele>359.0</ele><time>2026-05-02T07:25:20.999Z</time></trkpt><trkpt lat="44.86367965199196" lon="9.658010807121405"><ele>358.5</ele><time>2026-05-02T07:25:22.999Z</time></trkpt><trkpt lat="44.86376801387451" lon="9.657991833371987"><ele>358.0</ele><time>2026-05-02T07:25:24.999Z</time></trkpt><trkpt lat="44.86383531689602" lon="9.657989155743044"><ele>357.5</ele><time>2026-05-02T07:25:25.999Z</time></trkpt><trkpt lat="44.863909390212314" lon="9.658000179413124"><ele>357.0</ele><time>2026-05-02T07:25:26.999Z</time></trkpt><trkpt lat="44.8639758212207" lon="9.6580320254713"><ele>357.0</ele><time>2026-05-02T07:25:27.999Z</time></trkpt><trkpt lat="44.86403891874732" lon="9.658057292147431"><ele>357.0</ele><time>2026-05-02T07:25:29.999Z</time></trkpt><trkpt lat="44.86411488768002" lon="9.658048833645234"><ele>357.0</ele><time>2026-05-02T07:25:31.999Z</time></trkpt><trkpt lat="44.864229889404285" lon="9.657998976923347"><ele>357.0</ele><time>2026-05-02T07:25:33.999Z</time></trkpt><trkpt lat="44.86429963936472" lon="9.657971791883526"><ele>357.0</ele><time>2026-05-02T07:25:34.999Z</time></trkpt><trkpt lat="44.86436606624194" lon="9.657965988871949"><ele>357.0</ele><time>2026-05-02T07:25:35.999Z</time></trkpt><trkpt lat="44.86443174183641" lon="9.657960635122445"><ele>356.1666666666667</ele><time>2026-05-02T07:25:36.999Z</time></trkpt><trkpt lat="44.864538634691115" lon="9.657936747815333"><ele>355.3333333333333</ele><time>2026-05-02T07:25:38.999Z</time></trkpt><trkpt lat="44.864605966428975" lon="9.657930565441575"><ele>354.5</ele><time>2026-05-02T07:25:39.999Z</time></trkpt><trkpt lat="44.86468500189016" lon="9.657911094706645"><ele>353.66666666666663</ele><time>2026-05-02T07:25:40.999Z</time></trkpt><trkpt lat="44.86475520759335" lon="9.657899929394578"><ele>352.8333333333333</ele><time>2026-05-02T07:25:41.999Z</time></trkpt><trkpt lat="44.86482443329805" lon="9.657913882883753"><ele>352.0</ele><time>2026-05-02T07:25:42.999Z</time></trkpt><trkpt lat="44.86496071686339" lon="9.657973989177588"><ele>352.0</ele><time>2026-05-02T07:25:44.998Z</time></trkpt><trkpt lat="44.86507055437243" lon="9.658003660995695"><ele>352.0</ele><time>2026-05-02T07:25:46.998Z</time></trkpt><trkpt lat="44.86518919494168" lon="9.658036753554741"><ele>352.0</ele><time>2026-05-02T07:25:48.998Z</time></trkpt><trkpt lat="44.865251176735356" lon="9.658063441128629"><ele>352.0</ele><time>2026-05-02T07:25:49.998Z</time></trkpt><trkpt lat="44.865313654650855" lon="9.658092839685072"><ele>352.0</ele><time>2026-05-02T07:25:50.998Z</time></trkpt><trkpt lat="44.86537095368578" lon="9.658136821513825"><ele>352.0</ele><time>2026-05-02T07:25:51.998Z</time></trkpt><trkpt lat="44.86546694712413" lon="9.658241061950124"><ele>348.8</ele><time>2026-05-02T07:25:53.998Z</time></trkpt><trkpt lat="44.86555814285381" lon="9.658345768711474"><ele>345.6</ele><time>2026-05-02T07:25:55.998Z</time></trkpt><trkpt lat="44.865616143396174" lon="9.658478688794746"><ele>342.40000000000003</ele><time>2026-05-02T07:25:57.998Z</time></trkpt><trkpt lat="44.86566391920732" lon="9.6585637498027"><ele>339.20000000000005</ele><time>2026-05-02T07:25:58.998Z</time></trkpt><trkpt lat="44.865709681353664" lon="9.65863910578003"><ele>336.0</ele><time>2026-05-02T07:25:59.998Z</time></trkpt><trkpt lat="44.8657676667612" lon="9.658707640828782"><ele>336.0</ele><time>2026-05-02T07:26:00.998Z</time></trkpt><trkpt lat="44.86582137062964" lon="9.658875649187484"><ele>336.0</ele><time>2026-05-02T07:26:02.998Z</time></trkpt><trkpt lat="44.86583779155185" lon="9.658983864704224"><ele>336.0</ele><time>2026-05-02T07:26:03.998Z</time></trkpt><trkpt lat="44.86586315974603" lon="9.659123956099284"><ele>336.0</ele><time>2026-05-02T07:26:04.998Z</time></trkpt><trkpt lat="44.8658702437735" lon="9.659259792216412"><ele>336.0</ele><time>2026-05-02T07:26:05.998Z</time></trkpt><trkpt lat="44.86587254538327" lon="9.659372646480392"><ele>336.25</ele><time>2026-05-02T07:26:06.998Z</time></trkpt><trkpt lat="44.86583476285208" lon="9.659540808479795"><ele>336.5</ele><time>2026-05-02T07:26:08.998Z</time></trkpt><trkpt lat="44.86576469677248" lon="9.65962143768871"><ele>336.75</ele><time>2026-05-02T07:26:10.998Z</time></trkpt><trkpt lat="44.865751596223994" lon="9.659779372105342"><ele>337.0</ele><time>2026-05-02T07:26:12.998Z</time></trkpt><trkpt lat="44.8657947128931" lon="9.659940956858254"><ele>337.0</ele><time>2026-05-02T07:26:14.998Z</time></trkpt><trkpt lat="44.86581671156186" lon="9.660061297114192"><ele>337.0</ele><time>2026-05-02T07:26:15.998Z</time></trkpt><trkpt lat="44.86585662521229" lon="9.66017460561823"><ele>337.0</ele><time>2026-05-02T07:26:17.998Z</time></trkpt><trkpt lat="44.86595564415587" lon="9.660236998239562"><ele>337.0</ele><time>2026-05-02T07:26:19.998Z</time></trkpt><trkpt lat="44.86600668430665" lon="9.660296250343283"><ele>337.0</ele><time>2026-05-02T07:26:20.998Z</time></trkpt><trkpt lat="44.86611218656427" lon="9.660391674622744"><ele>335.7142857142857</ele><time>2026-05-02T07:26:23Z</time></trkpt><trkpt lat="44.86616752847209" lon="9.660460761532248"><ele>334.42857142857144</ele><time>2026-05-02T07:26:24Z</time></trkpt><trkpt lat="44.86622093711885" lon="9.660529448843233"><ele>333.1428571428571</ele><time>2026-05-02T07:26:25Z</time></trkpt><trkpt lat="44.8662847164429" lon="9.660578590630964"><ele>331.8571428571429</ele><time>2026-05-02T07:26:26Z</time></trkpt><trkpt lat="44.8663395503153" lon="9.660630106321394"><ele>330.57142857142856</ele><time>2026-05-02T07:26:27Z</time></trkpt><trkpt lat="44.86639072901888" lon="9.660694477181115"><ele>329.2857142857143</ele><time>2026-05-02T07:26:28Z</time></trkpt><trkpt lat="44.86645237019275" lon="9.660741700334553"><ele>328.0</ele><time>2026-05-02T07:26:29Z</time></trkpt><trkpt lat="44.866505267113965" lon="9.660807271177278"><ele>328.0</ele><time>2026-05-02T07:26:30Z</time></trkpt><trkpt lat="44.866569999992294" lon="9.660827110225856"><ele>328.0</ele><time>2026-05-02T07:26:31Z</time></trkpt><trkpt lat="44.86666109634809" lon="9.660914867326976"><ele>328.0</ele><time>2026-05-02T07:26:33Z</time></trkpt><trkpt lat="44.866700546529856" lon="9.661004008855848"><ele>328.0</ele><time>2026-05-02T07:26:34Z</time></trkpt><trkpt lat="44.86671294742748" lon="9.661098830211884"><ele>328.0</ele><time>2026-05-02T07:26:36Z</time></trkpt><trkpt lat="44.866636802562276" lon="9.661212506683537"><ele>328.0</ele><time>2026-05-02T07:26:38Z</time></trkpt><trkpt lat="44.86663089729262" lon="9.66135751531377"><ele>327.79999999999995</ele><time>2026-05-02T07:26:40Z</time></trkpt><trkpt lat="44.86665074084565" lon="9.661463747499639"><ele>327.6</ele><time>2026-05-02T07:26:44Z</time></trkpt><trkpt lat="44.86669205160116" lon="9.661591289227063"><ele>327.4</ele><time>2026-05-02T07:26:53Z</time></trkpt><trkpt lat="44.86670717686813" lon="9.661680226848079"><ele>327.20000000000005</ele><time>2026-05-02T07:26:55Z</time></trkpt><trkpt lat="44.86676987274132" lon="9.661786039071464"><ele>327.0</ele><time>2026-05-02T07:26:57Z</time></trkpt><trkpt lat="44.866873486015386" lon="9.66186658667252"><ele>327.0</ele><time>2026-05-02T07:26:59Z</time></trkpt><trkpt lat="44.86692761248024" lon="9.661936248001354"><ele>327.0</ele><time>2026-05-02T07:26:59.999Z</time></trkpt><trkpt lat="44.867042342640005" lon="9.662001137803639"><ele>327.0</ele><time>2026-05-02T07:27:01.999Z</time></trkpt><trkpt lat="44.86710609644268" lon="9.662062394454559"><ele>327.0</ele><time>2026-05-02T07:27:02.999Z</time></trkpt><trkpt lat="44.8671662424613" lon="9.662108962922629"><ele>327.0</ele><time>2026-05-02T07:27:03.999Z</time></trkpt><trkpt lat="44.867256092786555" lon="9.662115962616467"><ele>327.0</ele><time>2026-05-02T07:27:05.999Z</time></trkpt><trkpt lat="44.867368350233015" lon="9.662092627041764"><ele>327.0</ele><time>2026-05-02T07:27:07.999Z</time></trkpt><trkpt lat="44.867481874136104" lon="9.662111121393794"><ele>327.0</ele><time>2026-05-02T07:27:09.999Z</time></trkpt><trkpt lat="44.867551559803424" lon="9.66203796123379"><ele>327.0</ele><time>2026-05-02T07:27:11.999Z</time></trkpt><trkpt lat="44.867641986907145" lon="9.662016184944802"><ele>327.0</ele><time>2026-05-02T07:27:13.999Z</time></trkpt><trkpt lat="44.86772342511047" lon="9.662034474287172"><ele>327.0</ele><time>2026-05-02T07:27:14.999Z</time></trkpt><trkpt lat="44.8678004365945" lon="9.662052125775897"><ele>327.0</ele><time>2026-05-02T07:27:15.999Z</time></trkpt><trkpt lat="44.867867291417284" lon="9.662070099368684"><ele>327.0</ele><time>2026-05-02T07:27:16.999Z</time></trkpt><trkpt lat="44.86798281520022" lon="9.662113637000846"><ele>327.0</ele><time>2026-05-02T07:27:18.999Z</time></trkpt><trkpt lat="44.86804390399745" lon="9.662156937967811"><ele>327.0</ele><time>2026-05-02T07:27:19.999Z</time></trkpt><trkpt lat="44.868147556511104" lon="9.662239261425984"><ele>327.0</ele><time>2026-05-02T07:27:21.999Z</time></trkpt><trkpt lat="44.868197806248666" lon="9.662294786871355"><ele>327.0</ele><time>2026-05-02T07:27:22.999Z</time></trkpt><trkpt lat="44.86825591563903" lon="9.662404501853143"><ele>327.0</ele><time>2026-05-02T07:27:24.999Z</time></trkpt><trkpt lat="44.86827761417102" lon="9.662503883308164"><ele>327.0</ele><time>2026-05-02T07:27:26.999Z</time></trkpt><trkpt lat="44.86823978152012" lon="9.662580183407119"><ele>327.0</ele><time>2026-05-02T07:27:28.999Z</time></trkpt><trkpt lat="44.86816297286777" lon="9.662588381263966"><ele>327.0</ele><time>2026-05-02T07:27:30.999Z</time></trkpt><trkpt lat="44.8680706494322" lon="9.662603668278608"><ele>327.0</ele><time>2026-05-02T07:27:32.999Z</time></trkpt><trkpt lat="44.867958994633796" lon="9.662702492942898"><ele>327.0</ele><time>2026-05-02T07:27:34.999Z</time></trkpt><trkpt lat="44.86784377546399" lon="9.662765327062804"><ele>327.0</ele><time>2026-05-02T07:27:36.999Z</time></trkpt><trkpt lat="44.86777556995261" lon="9.662802142445432"><ele>327.0</ele><time>2026-05-02T07:27:37.999Z</time></trkpt><trkpt lat="44.867704236055836" lon="9.66284820820058"><ele>327.0</ele><time>2026-05-02T07:27:38.999Z</time></trkpt><trkpt lat="44.86762674061255" lon="9.662895359692886"><ele>327.0</ele><time>2026-05-02T07:27:39.999Z</time></trkpt><trkpt lat="44.867531663777115" lon="9.662945274322126"><ele>327.0</ele><time>2026-05-02T07:27:40.999Z</time></trkpt><trkpt lat="44.86745593421429" lon="9.662991482720095"><ele>327.0</ele><time>2026-05-02T07:27:41.999Z</time></trkpt><trkpt lat="44.86738367007097" lon="9.663036554395354"><ele>330.40000000000003</ele><time>2026-05-02T07:27:42.999Z</time></trkpt><trkpt lat="44.86730493557514" lon="9.663087505438702"><ele>333.8</ele><time>2026-05-02T07:27:43.999Z</time></trkpt><trkpt lat="44.867216372329786" lon="9.663136858729963"><ele>337.2</ele><time>2026-05-02T07:27:44.999Z</time></trkpt><trkpt lat="44.86712820077508" lon="9.663147418849771"><ele>340.6</ele><time>2026-05-02T07:27:45.999Z</time></trkpt><trkpt lat="44.867034793949855" lon="9.66311984877657"><ele>344.0</ele><time>2026-05-02T07:27:46.999Z</time></trkpt><trkpt lat="44.866944223709275" lon="9.663075004223362"><ele>344.0</ele><time>2026-05-02T07:27:47.999Z</time></trkpt><trkpt lat="44.86687771191317" lon="9.66301804435561"><ele>344.0</ele><time>2026-05-02T07:27:48.999Z</time></trkpt><trkpt lat="44.8668134102874" lon="9.662970241889074"><ele>344.0</ele><time>2026-05-02T07:27:49.999Z</time></trkpt><trkpt lat="44.86673239231831" lon="9.662935024869519"><ele>344.0</ele><time>2026-05-02T07:27:50.999Z</time></trkpt><trkpt lat="44.866632839093" lon="9.66288846267191"><ele>344.0</ele><time>2026-05-02T07:27:51.998Z</time></trkpt><trkpt lat="44.86654533817742" lon="9.66282524036546"><ele>344.0</ele><time>2026-05-02T07:27:52.998Z</time></trkpt><trkpt lat="44.86645938033089" lon="9.662784009942634"><ele>345.0</ele><time>2026-05-02T07:27:53.998Z</time></trkpt><trkpt lat="44.866374650314" lon="9.662751438981978"><ele>346.0</ele><time>2026-05-02T07:27:54.998Z</time></trkpt><trkpt lat="44.866273565136325" lon="9.66270861325619"><ele>347.0</ele><time>2026-05-02T07:27:55.998Z</time></trkpt><trkpt lat="44.866177504881385" lon="9.662672104076819"><ele>348.0</ele><time>2026-05-02T07:27:56.998Z</time></trkpt><trkpt lat="44.86609295530074" lon="9.662624391790162"><ele>349.0</ele><time>2026-05-02T07:27:57.998Z</time></trkpt><trkpt lat="44.86597472802934" lon="9.662573695684092"><ele>349.6</ele><time>2026-05-02T07:27:58.998Z</time></trkpt><trkpt lat="44.8658777632835" lon="9.662542609693975"><ele>350.2</ele><time>2026-05-02T07:27:59.998Z</time></trkpt><trkpt lat="44.86580258006736" lon="9.662542237570772"><ele>350.8</ele><time>2026-05-02T07:28:01.998Z</time></trkpt><trkpt lat="44.865846125048535" lon="9.662692113049333"><ele>351.40000000000003</ele><time>2026-05-02T07:28:05.998Z</time></trkpt><trkpt lat="44.865935702142686" lon="9.662782035286627"><ele>352.0</ele><time>2026-05-02T07:28:06.998Z</time></trkpt><trkpt lat="44.86603931242657" lon="9.6628979645458"><ele>353.5</ele><time>2026-05-02T07:28:07.998Z</time></trkpt><trkpt lat="44.86613012238465" lon="9.663021761461039"><ele>355.0</ele><time>2026-05-02T07:28:08.998Z</time></trkpt><trkpt lat="44.866215357724485" lon="9.663155507465857"><ele>356.5</ele><time>2026-05-02T07:28:09.998Z</time></trkpt><trkpt lat="44.866285163233684" lon="9.663279140565148"><ele>358.0</ele><time>2026-05-02T07:28:10.998Z</time></trkpt><trkpt lat="44.8663596252416" lon="9.663417269506722"><ele>358.0</ele><time>2026-05-02T07:28:11.998Z</time></trkpt><trkpt lat="44.8664332032391" lon="9.663541283534833"><ele>358.0</ele><time>2026-05-02T07:28:12.998Z</time></trkpt><trkpt lat="44.86650717557199" lon="9.663655254598115"><ele>358.0</ele><time>2026-05-02T07:28:13.998Z</time></trkpt><trkpt lat="44.8665666579026" lon="9.663749970050258"><ele>358.0</ele><time>2026-05-02T07:28:14.998Z</time></trkpt><trkpt lat="44.866633079521165" lon="9.663862005076824"><ele>358.0</ele><time>2026-05-02T07:28:15.998Z</time></trkpt><trkpt lat="44.86669906775511" lon="9.663978043670005"><ele>357.2</ele><time>2026-05-02T07:28:16.998Z</time></trkpt><trkpt lat="44.86676396920653" lon="9.66409039442615"><ele>356.4</ele><time>2026-05-02T07:28:17.998Z</time></trkpt><trkpt lat="44.86683429354635" lon="9.664217372224421"><ele>355.59999999999997</ele><time>2026-05-02T07:28:18.998Z</time></trkpt><trkpt lat="44.86689268559976" lon="9.664349720437494"><ele>354.79999999999995</ele><time>2026-05-02T07:28:19.998Z</time></trkpt><trkpt lat="44.8669419057222" lon="9.664486227037843"><ele>354.0</ele><time>2026-05-02T07:28:20.998Z</time></trkpt><trkpt lat="44.86698883562347" lon="9.664612354768085"><ele>354.0</ele><time>2026-05-02T07:28:21.998Z</time></trkpt><trkpt lat="44.8670344029916" lon="9.664722798770173"><ele>354.0</ele><time>2026-05-02T07:28:22.998Z</time></trkpt><trkpt lat="44.86707744965356" lon="9.664833490975603"><ele>354.0</ele><time>2026-05-02T07:28:23.998Z</time></trkpt><trkpt lat="44.867114163489646" lon="9.664950151467869"><ele>354.0</ele><time>2026-05-02T07:28:24.998Z</time></trkpt><trkpt lat="44.86714468119342" lon="9.665061292889932"><ele>354.0</ele><time>2026-05-02T07:28:25.998Z</time></trkpt><trkpt lat="44.867179395709435" lon="9.665175838291606"><ele>354.0</ele><time>2026-05-02T07:28:26.998Z</time></trkpt><trkpt lat="44.86721831499896" lon="9.665296105940486"><ele>353.75</ele><time>2026-05-02T07:28:27.998Z</time></trkpt><trkpt lat="44.867248036280124" lon="9.66544106145722"><ele>353.5</ele><time>2026-05-02T07:28:29Z</time></trkpt><trkpt lat="44.86726995173016" lon="9.665613595476884"><ele>353.25</ele><time>2026-05-02T07:28:30Z</time></trkpt><trkpt lat="44.86729162761395" lon="9.665803731802432"><ele>353.0</ele><time>2026-05-02T07:28:31Z</time></trkpt><trkpt lat="44.8673152237981" lon="9.665976116274905"><ele>352.79999999999995</ele><time>2026-05-02T07:28:32Z</time></trkpt><trkpt lat="44.86734076110601" lon="9.666130597728857"><ele>352.6</ele><time>2026-05-02T07:28:33Z</time></trkpt><trkpt lat="44.86736906097777" lon="9.666263568192676"><ele>352.4</ele><time>2026-05-02T07:28:34Z</time></trkpt><trkpt lat="44.867404665716975" lon="9.666365838236912"><ele>352.20000000000005</ele><time>2026-05-02T07:28:35Z</time></trkpt><trkpt lat="44.86745524690003" lon="9.666454519469527"><ele>352.0</ele><time>2026-05-02T07:28:36Z</time></trkpt><trkpt lat="44.867515896552206" lon="9.666524151101221"><ele>352.0</ele><time>2026-05-02T07:28:37Z</time></trkpt><trkpt lat="44.86758673628292" lon="9.66655771239417"><ele>352.0</ele><time>2026-05-02T07:28:38Z</time></trkpt><trkpt lat="44.86763725158358" lon="9.666624512432293"><ele>352.0</ele><time>2026-05-02T07:28:39Z</time></trkpt><trkpt lat="44.867689609743984" lon="9.66668616478318"><ele>352.0</ele><time>2026-05-02T07:28:40Z</time></trkpt><trkpt lat="44.86773992362884" lon="9.666749599665504"><ele>352.0</ele><time>2026-05-02T07:28:41Z</time></trkpt><trkpt lat="44.86784834785706" lon="9.666857834783508"><ele>352.0</ele><time>2026-05-02T07:28:43Z</time></trkpt><trkpt lat="44.86791844774458" lon="9.666953646184421"><ele>351.40000000000003</ele><time>2026-05-02T07:28:44Z</time></trkpt><trkpt lat="44.86799096034641" lon="9.667060991966725"><ele>350.8</ele><time>2026-05-02T07:28:45Z</time></trkpt><trkpt lat="44.86805957208637" lon="9.667172767848218"><ele>350.2</ele><time>2026-05-02T07:28:46Z</time></trkpt><trkpt lat="44.868120687498276" lon="9.667277483611684"><ele>349.6</ele><time>2026-05-02T07:28:47Z</time></trkpt><trkpt lat="44.868172884730406" lon="9.667377249770825"><ele>349.0</ele><time>2026-05-02T07:28:48Z</time></trkpt><trkpt lat="44.86822012005119" lon="9.667466258622856"><ele>349.0</ele><time>2026-05-02T07:28:49Z</time></trkpt><trkpt lat="44.86826611029592" lon="9.667559298666443"><ele>349.0</ele><time>2026-05-02T07:28:50Z</time></trkpt><trkpt lat="44.86831857198628" lon="9.66766308257193"><ele>349.0</ele><time>2026-05-02T07:28:51Z</time></trkpt><trkpt lat="44.86837508626349" lon="9.667768165064286"><ele>349.0</ele><time>2026-05-02T07:28:52Z</time></trkpt><trkpt lat="44.86843583967339" lon="9.667881040158996"><ele>349.0</ele><time>2026-05-02T07:28:53Z</time></trkpt><trkpt lat="44.86848819105786" lon="9.667987864076006"><ele>347.0</ele><time>2026-05-02T07:28:54Z</time></trkpt><trkpt lat="44.86853842139492" lon="9.66809013705261"><ele>345.0</ele><time>2026-05-02T07:28:55Z</time></trkpt><trkpt lat="44.86859892380881" lon="9.66819555109838"><ele>343.0</ele><time>2026-05-02T07:28:56Z</time></trkpt><trkpt lat="44.86864682059489" lon="9.668300849182646"><ele>341.0</ele><time>2026-05-02T07:28:57Z</time></trkpt><trkpt lat="44.86868878273306" lon="9.668407652080795"><ele>339.0</ele><time>2026-05-02T07:28:58Z</time></trkpt><trkpt lat="44.86873934440352" lon="9.668516850842177"><ele>339.6666666666667</ele><time>2026-05-02T07:28:59Z</time></trkpt><trkpt lat="44.86878817941645" lon="9.668616344189154"><ele>340.3333333333333</ele><time>2026-05-02T07:29:00Z</time></trkpt><trkpt lat="44.868840238580084" lon="9.668710570413774"><ele>341.0</ele><time>2026-05-02T07:29:01Z</time></trkpt><trkpt lat="44.868879728685414" lon="9.668810084473545"><ele>341.66666666666663</ele><time>2026-05-02T07:29:02Z</time></trkpt><trkpt lat="44.86891122260659" lon="9.668912538243196"><ele>342.3333333333333</ele><time>2026-05-02T07:29:02.999Z</time></trkpt><trkpt lat="44.86895467173644" lon="9.669045175046927"><ele>343.0</ele><time>2026-05-02T07:29:03.999Z</time></trkpt><trkpt lat="44.86900389350256" lon="9.66916192835411"><ele>343.0</ele><time>2026-05-02T07:29:04.999Z</time></trkpt><trkpt lat="44.86905530945178" lon="9.669271827864002"><ele>343.0</ele><time>2026-05-02T07:29:05.999Z</time></trkpt><trkpt lat="44.869105874666815" lon="9.669362184744129"><ele>343.0</ele><time>2026-05-02T07:29:06.999Z</time></trkpt><trkpt lat="44.86914304949783" lon="9.669448742875787"><ele>343.0</ele><time>2026-05-02T07:29:07.999Z</time></trkpt><trkpt lat="44.86918713300663" lon="9.66953392202151"><ele>343.0</ele><time>2026-05-02T07:29:08.999Z</time></trkpt><trkpt lat="44.86924641275851" lon="9.66960929141986"><ele>343.0</ele><time>2026-05-02T07:29:09.999Z</time></trkpt><trkpt lat="44.86929183384634" lon="9.669684702296092"><ele>341.2</ele><time>2026-05-02T07:29:10.999Z</time></trkpt><trkpt lat="44.86933290306121" lon="9.66977700424071"><ele>339.4</ele><time>2026-05-02T07:29:11.999Z</time></trkpt><trkpt lat="44.86936895697189" lon="9.669891343435177"><ele>337.59999999999997</ele><time>2026-05-02T07:29:12.999Z</time></trkpt><trkpt lat="44.86941255731219" lon="9.670012405696664"><ele>335.79999999999995</ele><time>2026-05-02T07:29:13.999Z</time></trkpt><trkpt lat="44.86945790194593" lon="9.670142620830756"><ele>334.0</ele><time>2026-05-02T07:29:14.999Z</time></trkpt><trkpt lat="44.86950190860839" lon="9.670272224278877"><ele>334.5</ele><time>2026-05-02T07:29:15.999Z</time></trkpt><trkpt lat="44.869544882619195" lon="9.670383599730728"><ele>335.0</ele><time>2026-05-02T07:29:16.999Z</time></trkpt><trkpt lat="44.86958404480889" lon="9.670468017386359"><ele>335.5</ele><time>2026-05-02T07:29:17.999Z</time></trkpt><trkpt lat="44.86962415586822" lon="9.670588584224028"><ele>336.0</ele><time>2026-05-02T07:29:19.999Z</time></trkpt><trkpt lat="44.86969532844022" lon="9.670647374619573"><ele>336.5</ele><time>2026-05-02T07:29:34.999Z</time></trkpt><trkpt lat="44.86979862920091" lon="9.670699237083413"><ele>337.0</ele><time>2026-05-02T07:29:36.999Z</time></trkpt><trkpt lat="44.86988579245907" lon="9.670757101837657"><ele>337.0</ele><time>2026-05-02T07:29:38.999Z</time></trkpt><trkpt lat="44.86998402741021" lon="9.67083324601775"><ele>337.0</ele><time>2026-05-02T07:29:40.999Z</time></trkpt><trkpt lat="44.870062345150195" lon="9.67094020811009"><ele>337.0</ele><time>2026-05-02T07:29:42.999Z</time></trkpt><trkpt lat="44.87011085532828" lon="9.67103445885014"><ele>337.0</ele><time>2026-05-02T07:29:43.999Z</time></trkpt><trkpt lat="44.870155384829246" lon="9.671101473202965"><ele>337.0</ele><time>2026-05-02T07:29:44.999Z</time></trkpt><trkpt lat="44.87020102498406" lon="9.671169125241855"><ele>337.0</ele><time>2026-05-02T07:29:45.999Z</time></trkpt><trkpt lat="44.87026127191331" lon="9.67121896360064"><ele>335.0</ele><time>2026-05-02T07:29:46.999Z</time></trkpt><trkpt lat="44.87036863107339" lon="9.671280582791415"><ele>333.0</ele><time>2026-05-02T07:29:48.999Z</time></trkpt><trkpt lat="44.87046874055794" lon="9.671375771810727"><ele>331.0</ele><time>2026-05-02T07:29:50.999Z</time></trkpt><trkpt lat="44.87056492578017" lon="9.671437052905713"><ele>329.0</ele><time>2026-05-02T07:29:52.999Z</time></trkpt><trkpt lat="44.87067210614809" lon="9.67145655054641"><ele>329.0</ele><time>2026-05-02T07:29:54.998Z</time></trkpt><trkpt lat="44.87072171178309" lon="9.671518543885187"><ele>329.0</ele><time>2026-05-02T07:29:55.998Z</time></trkpt><trkpt lat="44.87076070340696" lon="9.671601505526862"><ele>329.0</ele><time>2026-05-02T07:29:56.998Z</time></trkpt><trkpt lat="44.8708012295583" lon="9.671698124470232"><ele>329.0</ele><time>2026-05-02T07:29:57.998Z</time></trkpt><trkpt lat="44.87086209008394" lon="9.671756432709056"><ele>329.0</ele><time>2026-05-02T07:29:58.998Z</time></trkpt><trkpt lat="44.870902641610016" lon="9.671830458960537"><ele>329.0</ele><time>2026-05-02T07:29:59.998Z</time></trkpt><trkpt lat="44.870948359947484" lon="9.671891988016114"><ele>329.0</ele><time>2026-05-02T07:30:00.998Z</time></trkpt><trkpt lat="44.87105343198308" lon="9.671986287967094"><ele>327.83333333333337</ele><time>2026-05-02T07:30:02.998Z</time></trkpt><trkpt lat="44.871151999895396" lon="9.672050500915466"><ele>326.6666666666667</ele><time>2026-05-02T07:30:04.998Z</time></trkpt><trkpt lat="44.871233950607" lon="9.67209726180927"><ele>325.5</ele><time>2026-05-02T07:30:06.998Z</time></trkpt><trkpt lat="44.87129665681821" lon="9.672185704891914"><ele>324.3333333333333</ele><time>2026-05-02T07:30:09.998Z</time></trkpt><trkpt lat="44.87135033066317" lon="9.672246206195622"><ele>323.16666666666663</ele><time>2026-05-02T07:30:12.998Z</time></trkpt><trkpt lat="44.87135306082465" lon="9.672366506469155"><ele>322.0</ele><time>2026-05-02T07:30:15.998Z</time></trkpt><trkpt lat="44.87131583269534" lon="9.672455691921773"><ele>322.0</ele><time>2026-05-02T07:30:17.998Z</time></trkpt><trkpt lat="44.87127763324269" lon="9.672541675709484"><ele>322.0</ele><time>2026-05-02T07:30:19.998Z</time></trkpt><trkpt lat="44.87122031391975" lon="9.672628665502389"><ele>322.0</ele><time>2026-05-02T07:30:22.998Z</time></trkpt><trkpt lat="44.87114363283608" lon="9.672663429248006"><ele>322.0</ele><time>2026-05-02T07:30:27.998Z</time></trkpt><trkpt lat="44.87103992233139" lon="9.67261499050959"><ele>322.0</ele><time>2026-05-02T07:30:29.998Z</time></trkpt><trkpt lat="44.87097201933621" lon="9.672596724722055"><ele>322.0</ele><time>2026-05-02T07:30:30.998Z</time></trkpt><trkpt lat="44.87085132897497" lon="9.672558872679762"><ele>321.66666666666663</ele><time>2026-05-02T07:30:32.998Z</time></trkpt><trkpt lat="44.87076552595255" lon="9.672524556519532"><ele>321.3333333333333</ele><time>2026-05-02T07:30:35Z</time></trkpt><trkpt lat="44.870697903989395" lon="9.672479979751557"><ele>321.0</ele><time>2026-05-02T07:30:44Z</time></trkpt><trkpt lat="44.87061653522145" lon="9.672404769651271"><ele>320.6666666666667</ele><time>2026-05-02T07:30:47Z</time></trkpt><trkpt lat="44.870591820264245" lon="9.672321369193538"><ele>320.33333333333337</ele><time>2026-05-02T07:30:49Z</time></trkpt><trkpt lat="44.870520239456475" lon="9.672253309571136"><ele>320.0</ele><time>2026-05-02T07:30:51Z</time></trkpt><trkpt lat="44.87040842416344" lon="9.672168288860082"><ele>320.0</ele><time>2026-05-02T07:30:53Z</time></trkpt><trkpt lat="44.870350816495865" lon="9.672120544417476"><ele>320.0</ele><time>2026-05-02T07:30:54Z</time></trkpt><trkpt lat="44.87026642998662" lon="9.671997733442405"><ele>320.0</ele><time>2026-05-02T07:30:56Z</time></trkpt><trkpt lat="44.8701839230372" lon="9.671889470083533"><ele>320.0</ele><time>2026-05-02T07:30:58Z</time></trkpt><trkpt lat="44.87009014609135" lon="9.671786301988094"><ele>320.0</ele><time>2026-05-02T07:31:00Z</time></trkpt><trkpt lat="44.869998754228234" lon="9.671714840286556"><ele>320.6666666666667</ele><time>2026-05-02T07:31:02Z</time></trkpt><trkpt lat="44.86991564726693" lon="9.671647581137425"><ele>321.33333333333337</ele><time>2026-05-02T07:31:04Z</time></trkpt><trkpt lat="44.86984639582393" lon="9.671630219941452"><ele>322.0</ele><time>2026-05-02T07:31:05Z</time></trkpt><trkpt lat="44.869781272327806" lon="9.671599675292045"><ele>322.6666666666667</ele><time>2026-05-02T07:31:06Z</time></trkpt><trkpt lat="44.869698131933326" lon="9.671593218745489"><ele>323.3333333333333</ele><time>2026-05-02T07:31:07Z</time></trkpt><trkpt lat="44.86961983441413" lon="9.671551019421749"><ele>324.0</ele><time>2026-05-02T07:31:08Z</time></trkpt><trkpt lat="44.86954865668698" lon="9.671531022978352"><ele>324.0</ele><time>2026-05-02T07:31:09Z</time></trkpt><trkpt lat="44.86941534336237" lon="9.671475493811286"><ele>324.0</ele><time>2026-05-02T07:31:11Z</time></trkpt><trkpt lat="44.86931515278171" lon="9.671411221987432"><ele>324.0</ele><time>2026-05-02T07:31:12.999Z</time></trkpt><trkpt lat="44.869182163859826" lon="9.671335702064747"><ele>324.0</ele><time>2026-05-02T07:31:14.999Z</time></trkpt><trkpt lat="44.86910639900711" lon="9.671304884404018"><ele>324.8333333333333</ele><time>2026-05-02T07:31:15.999Z</time></trkpt><trkpt lat="44.869060792884184" lon="9.671241787408192"><ele>325.6666666666667</ele><time>2026-05-02T07:31:16.999Z</time></trkpt><trkpt lat="44.86904502463843" lon="9.671150595851325"><ele>326.5</ele><time>2026-05-02T07:31:17.999Z</time></trkpt><trkpt lat="44.869021750873024" lon="9.671049970819293"><ele>327.33333333333337</ele><time>2026-05-02T07:31:19.999Z</time></trkpt><trkpt lat="44.86896353265959" lon="9.670907050137387"><ele>328.1666666666667</ele><time>2026-05-02T07:31:21.999Z</time></trkpt><trkpt lat="44.86892017982774" lon="9.670810685946499"><ele>329.0</ele><time>2026-05-02T07:31:22.999Z</time></trkpt><trkpt lat="44.8688345902747" lon="9.670686343733468"><ele>329.0</ele><time>2026-05-02T07:31:24.999Z</time></trkpt><trkpt lat="44.86881583581111" lon="9.670599094287104"><ele>329.0</ele><time>2026-05-02T07:31:25.999Z</time></trkpt><trkpt lat="44.86880347770496" lon="9.67038558448156"><ele>329.0</ele><time>2026-05-02T07:31:27.999Z</time></trkpt><trkpt lat="44.86874216788433" lon="9.670254720893167"><ele>329.0</ele><time>2026-05-02T07:31:29.999Z</time></trkpt><trkpt lat="44.86863603869492" lon="9.670222746698219"><ele>329.0</ele><time>2026-05-02T07:31:31.999Z</time></trkpt><trkpt lat="44.86854421300332" lon="9.670188921315306"><ele>330.79999999999995</ele><time>2026-05-02T07:31:33.999Z</time></trkpt><trkpt lat="44.868489543968785" lon="9.670066232608566"><ele>332.59999999999997</ele><time>2026-05-02T07:31:35.999Z</time></trkpt><trkpt lat="44.86845058927726" lon="9.669868496658188"><ele>334.4</ele><time>2026-05-02T07:31:37.999Z</time></trkpt><trkpt lat="44.86844119785566" lon="9.669763172759817"><ele>336.2</ele><time>2026-05-02T07:31:38.999Z</time></trkpt><trkpt lat="44.86841177370288" lon="9.669653747941577"><ele>338.0</ele><time>2026-05-02T07:31:39.999Z</time></trkpt><trkpt lat="44.86831364259091" lon="9.66953221225682"><ele>338.0</ele><time>2026-05-02T07:31:41.999Z</time></trkpt><trkpt lat="44.86825290533659" lon="9.669475460524461"><ele>338.0</ele><time>2026-05-02T07:31:42.999Z</time></trkpt><trkpt lat="44.86819065301082" lon="9.669389392914647"><ele>338.0</ele><time>2026-05-02T07:31:43.999Z</time></trkpt><trkpt lat="44.868082462152685" lon="9.669317415981913"><ele>338.0</ele><time>2026-05-02T07:31:45.999Z</time></trkpt><trkpt lat="44.86804701495867" lon="9.669242936016051"><ele>338.0</ele><time>2026-05-02T07:31:46.999Z</time></trkpt><trkpt lat="44.86802646677169" lon="9.669146699314021"><ele>338.0</ele><time>2026-05-02T07:31:47.999Z</time></trkpt><trkpt lat="44.86799746955224" lon="9.669042221316014"><ele>338.0</ele><time>2026-05-02T07:31:48.999Z</time></trkpt><trkpt lat="44.867945764003075" lon="9.668958401550336"><ele>338.0</ele><time>2026-05-02T07:31:49.999Z</time></trkpt><trkpt lat="44.867898865794714" lon="9.668891813128209"><ele>338.0</ele><time>2026-05-02T07:31:50.999Z</time></trkpt><trkpt lat="44.86782208465337" lon="9.668764454967127"><ele>338.0</ele><time>2026-05-02T07:31:52.999Z</time></trkpt><trkpt lat="44.867801386110514" lon="9.668603296935743"><ele>338.0</ele><time>2026-05-02T07:31:54.999Z</time></trkpt><trkpt lat="44.86778917315111" lon="9.668515987522891"><ele>338.0</ele><time>2026-05-02T07:31:55.999Z</time></trkpt><trkpt lat="44.86780149639566" lon="9.668416406723821"><ele>337.7142857142857</ele><time>2026-05-02T07:31:56.999Z</time></trkpt><trkpt lat="44.86781267259124" lon="9.668320512152722"><ele>337.42857142857144</ele><time>2026-05-02T07:31:57.999Z</time></trkpt><trkpt lat="44.86777152399934" lon="9.66825127168669"><ele>337.1428571428571</ele><time>2026-05-02T07:32:00.999Z</time></trkpt><trkpt lat="44.867705890709175" lon="9.668226403321107"><ele>336.8571428571429</ele><time>2026-05-02T07:32:05.998Z</time></trkpt><trkpt lat="44.86763061997538" lon="9.668214815075562"><ele>336.57142857142856</ele><time>2026-05-02T07:32:08.998Z</time></trkpt><trkpt lat="44.86755991991485" lon="9.668191833781098"><ele>336.2857142857143</ele><time>2026-05-02T07:32:10.998Z</time></trkpt><trkpt lat="44.86750639713918" lon="9.66813507918098"><ele>336.0</ele><time>2026-05-02T07:32:12.998Z</time></trkpt><trkpt lat="44.86744479950085" lon="9.668055355491228"><ele>336.0</ele><time>2026-05-02T07:32:14.998Z</time></trkpt><trkpt lat="44.867372643376605" lon="9.667950264813658"><ele>336.0</ele><time>2026-05-02T07:32:16.998Z</time></trkpt><trkpt lat="44.8673052597693" lon="9.667929988420626"><ele>336.0</ele><time>2026-05-02T07:32:31.998Z</time></trkpt><trkpt lat="44.86720253988473" lon="9.667883263800993"><ele>336.0</ele><time>2026-05-02T07:32:35.998Z</time></trkpt><trkpt lat="44.86713919230545" lon="9.667855995806045"><ele>336.0</ele><time>2026-05-02T07:32:37.998Z</time></trkpt><trkpt lat="44.86707172724354" lon="9.667842659847604"><ele>336.0</ele><time>2026-05-02T07:32:39.998Z</time></trkpt><trkpt lat="44.866972547401325" lon="9.667854637347611"><ele>336.0</ele><time>2026-05-02T07:32:42Z</time></trkpt><trkpt lat="44.866905224174886" lon="9.66785391062971"><ele>336.0</ele><time>2026-05-02T07:32:44Z</time></trkpt><trkpt lat="44.866838276768995" lon="9.667837677052281"><ele>336.0</ele><time>2026-05-02T07:32:46Z</time></trkpt><trkpt lat="44.866743879353216" lon="9.667845837215523"><ele>336.0</ele><time>2026-05-02T07:32:48Z</time></trkpt><trkpt lat="44.86667196877789" lon="9.667807805372522"><ele>336.0</ele><time>2026-05-02T07:33:06Z</time></trkpt><trkpt lat="44.86666945440783" lon="9.667904621210662"><ele>336.0</ele><time>2026-05-02T07:33:09Z</time></trkpt><trkpt lat="44.866747329316595" lon="9.667930218667115"><ele>336.0</ele><time>2026-05-02T07:33:11Z</time></trkpt><trkpt lat="44.866835241970094" lon="9.667998805136284"><ele>336.0</ele><time>2026-05-02T07:33:13Z</time></trkpt><trkpt lat="44.866907168065275" lon="9.668065033843808"><ele>336.0</ele><time>2026-05-02T07:33:15Z</time></trkpt><trkpt lat="44.86698287142397" lon="9.668157579072274"><ele>336.0</ele><time>2026-05-02T07:33:16.999Z</time></trkpt><trkpt lat="44.86705151375796" lon="9.668243129347301"><ele>336.0</ele><time>2026-05-02T07:33:18.999Z</time></trkpt><trkpt lat="44.86709299297588" lon="9.668328778412619"><ele>336.0</ele><time>2026-05-02T07:33:21.999Z</time></trkpt><trkpt lat="44.86709330427505" lon="9.668422680304037"><ele>336.0</ele><time>2026-05-02T07:33:23.999Z</time></trkpt><trkpt lat="44.867081209587155" lon="9.668537638942922"><ele>336.0</ele><time>2026-05-02T07:33:25.999Z</time></trkpt><trkpt lat="44.86703171546921" lon="9.668654304939718"><ele>336.0</ele><time>2026-05-02T07:33:28.999Z</time></trkpt><trkpt lat="44.86707049122556" lon="9.66874092273524"><ele>336.0</ele><time>2026-05-02T07:33:30.999Z</time></trkpt><trkpt lat="44.86711804807014" lon="9.668841179562934"><ele>336.0</ele><time>2026-05-02T07:33:32.999Z</time></trkpt><trkpt lat="44.86717537687905" lon="9.668925410870754"><ele>332.3333333333333</ele><time>2026-05-02T07:33:34.999Z</time></trkpt><trkpt lat="44.867233577998405" lon="9.668999675136186"><ele>328.6666666666667</ele><time>2026-05-02T07:33:36.999Z</time></trkpt><trkpt lat="44.86731134997992" lon="9.669074832210338"><ele>325.0</ele><time>2026-05-02T07:33:38.999Z</time></trkpt><trkpt lat="44.86734560228264" lon="9.669181292660225"><ele>321.33333333333337</ele><time>2026-05-02T07:33:40.999Z</time></trkpt><trkpt lat="44.8673981893358" lon="9.669303028035188"><ele>317.6666666666667</ele><time>2026-05-02T07:33:42.999Z</time></trkpt><trkpt lat="44.86744819133734" lon="9.669376691862878"><ele>314.0</ele><time>2026-05-02T07:33:44.999Z</time></trkpt><trkpt lat="44.86749578980617" lon="9.669435283091447"><ele>315.0</ele><time>2026-05-02T07:33:46.999Z</time></trkpt><trkpt lat="44.86757065145467" lon="9.669499912044989"><ele>316.0</ele><time>2026-05-02T07:33:48.999Z</time></trkpt><trkpt lat="44.867625899189505" lon="9.669567502751319"><ele>317.0</ele><time>2026-05-02T07:33:50.999Z</time></trkpt><trkpt lat="44.867644530322536" lon="9.669681965867179"><ele>318.0</ele><time>2026-05-02T07:33:52.999Z</time></trkpt><trkpt lat="44.86770195814783" lon="9.669803358608979"><ele>319.0</ele><time>2026-05-02T07:33:54.999Z</time></trkpt><trkpt lat="44.86777270815581" lon="9.669916000261503"><ele>319.0</ele><time>2026-05-02T07:33:56.999Z</time></trkpt><trkpt lat="44.867839268525415" lon="9.670028034707839"><ele>319.0</ele><time>2026-05-02T07:33:58.999Z</time></trkpt><trkpt lat="44.86788457928319" lon="9.670178431564322"><ele>319.0</ele><time>2026-05-02T07:34:00.999Z</time></trkpt><trkpt lat="44.86789728386265" lon="9.670289100687318"><ele>319.0</ele><time>2026-05-02T07:34:01.999Z</time></trkpt><trkpt lat="44.867904892481654" lon="9.670396303012133"><ele>319.0</ele><time>2026-05-02T07:34:02.999Z</time></trkpt><trkpt lat="44.867938776648145" lon="9.670503932337276"><ele>316.16666666666663</ele><time>2026-05-02T07:34:03.999Z</time></trkpt><trkpt lat="44.86798018110809" lon="9.670588775075313"><ele>313.3333333333333</ele><time>2026-05-02T07:34:04.999Z</time></trkpt><trkpt lat="44.868037349571736" lon="9.670637965208728"><ele>310.5</ele><time>2026-05-02T07:34:05.999Z</time></trkpt><trkpt lat="44.86810634448913" lon="9.670758415660435"><ele>307.6666666666667</ele><time>2026-05-02T07:34:07.999Z</time></trkpt><trkpt lat="44.86812508066181" lon="9.670904519144317"><ele>304.83333333333337</ele><time>2026-05-02T07:34:09.999Z</time></trkpt><trkpt lat="44.86815763879444" lon="9.670988882998826"><ele>302.0</ele><time>2026-05-02T07:34:10.998Z</time></trkpt><trkpt lat="44.86818347783464" lon="9.67108642874438"><ele>299.33333333333337</ele><time>2026-05-02T07:34:11.998Z</time></trkpt><trkpt lat="44.86821207555583" lon="9.671186278486344"><ele>296.6666666666667</ele><time>2026-05-02T07:34:12.998Z</time></trkpt><trkpt lat="44.86822771986101" lon="9.671285691529759"><ele>294.0</ele><time>2026-05-02T07:34:13.998Z</time></trkpt><trkpt lat="44.868248868354954" lon="9.671386407951923"><ele>291.3333333333333</ele><time>2026-05-02T07:34:14.998Z</time></trkpt><trkpt lat="44.86828244989598" lon="9.671495617459446"><ele>288.66666666666663</ele><time>2026-05-02T07:34:15.998Z</time></trkpt><trkpt lat="44.86833257190328" lon="9.671606249995431"><ele>286.0</ele><time>2026-05-02T07:34:16.998Z</time></trkpt><trkpt lat="44.86838691835358" lon="9.671712062325707"><ele>286.0</ele><time>2026-05-02T07:34:17.998Z</time></trkpt><trkpt lat="44.86842341680665" lon="9.671801670459528"><ele>286.0</ele><time>2026-05-02T07:34:18.998Z</time></trkpt><trkpt lat="44.86850344742559" lon="9.671867304798251"><ele>286.0</ele><time>2026-05-02T07:34:20.998Z</time></trkpt><trkpt lat="44.86862049667607" lon="9.671971558755207"><ele>286.0</ele><time>2026-05-02T07:34:22.998Z</time></trkpt><trkpt lat="44.86869260635865" lon="9.672002951329636"><ele>286.0</ele><time>2026-05-02T07:34:23.998Z</time></trkpt><trkpt lat="44.86875328242923" lon="9.672033774722701"><ele>286.0</ele><time>2026-05-02T07:34:24.998Z</time></trkpt><trkpt lat="44.86884145950181" lon="9.672086466200426"><ele>285.16666666666663</ele><time>2026-05-02T07:34:26.998Z</time></trkpt><trkpt lat="44.86889414994067" lon="9.672168638187486"><ele>284.3333333333333</ele><time>2026-05-02T07:34:29.998Z</time></trkpt><trkpt lat="44.86898186202735" lon="9.672215470981849"><ele>283.5</ele><time>2026-05-02T07:34:31.998Z</time></trkpt><trkpt lat="44.86903372525145" lon="9.672266447490346"><ele>282.6666666666667</ele><time>2026-05-02T07:34:32.998Z</time></trkpt><trkpt lat="44.86912687151968" lon="9.672355262428052"><ele>281.83333333333337</ele><time>2026-05-02T07:34:34.998Z</time></trkpt><trkpt lat="44.86920826489308" lon="9.672388395355183"><ele>281.0</ele><time>2026-05-02T07:34:35.998Z</time></trkpt><trkpt lat="44.86928592824843" lon="9.67245031383467"><ele>280.0</ele><time>2026-05-02T07:34:36.998Z</time></trkpt><trkpt lat="44.86933484756573" lon="9.672543225816744"><ele>279.0</ele><time>2026-05-02T07:34:37.998Z</time></trkpt><trkpt lat="44.869391971616146" lon="9.672615777061605"><ele>278.0</ele><time>2026-05-02T07:34:38.998Z</time></trkpt><trkpt lat="44.86945108424169" lon="9.672670787087318"><ele>277.0</ele><time>2026-05-02T07:34:39.998Z</time></trkpt><trkpt lat="44.869518424702164" lon="9.672803430240005"><ele>276.0</ele><time>2026-05-02T07:34:41.998Z</time></trkpt><trkpt lat="44.869587926641664" lon="9.672894396532437"><ele>275.0</ele><time>2026-05-02T07:34:43.998Z</time></trkpt><trkpt lat="44.86965510078471" lon="9.67294912908776"><ele>275.0</ele><time>2026-05-02T07:34:45.998Z</time></trkpt><trkpt lat="44.869649087310854" lon="9.673078732121716"><ele>275.0</ele><time>2026-05-02T07:34:48Z</time></trkpt><trkpt lat="44.86964782902262" lon="9.673220757885751"><ele>275.0</ele><time>2026-05-02T07:34:50Z</time></trkpt><trkpt lat="44.86971518747703" lon="9.673343049252729"><ele>275.0</ele><time>2026-05-02T07:34:52Z</time></trkpt><trkpt lat="44.86979597322712" lon="9.673417658630166"><ele>275.0</ele><time>2026-05-02T07:34:54Z</time></trkpt><trkpt lat="44.86986938343739" lon="9.673451589041393"><ele>275.0</ele><time>2026-05-02T07:34:56Z</time></trkpt><trkpt lat="44.869997503926825" lon="9.673426646830647"><ele>275.0</ele><time>2026-05-02T07:34:58Z</time></trkpt><trkpt lat="44.87012366635447" lon="9.673444889092337"><ele>275.0</ele><time>2026-05-02T07:35:00Z</time></trkpt><trkpt lat="44.87022747265793" lon="9.673488860167991"><ele>275.0</ele><time>2026-05-02T07:35:02Z</time></trkpt><trkpt lat="44.87029002323273" lon="9.673604111053145"><ele>275.6666666666667</ele><time>2026-05-02T07:35:04Z</time></trkpt><trkpt lat="44.870335117995225" lon="9.673679758305106"><ele>276.33333333333337</ele><time>2026-05-02T07:35:05Z</time></trkpt><trkpt lat="44.87037087557495" lon="9.673761919948342"><ele>277.0</ele><time>2026-05-02T07:35:06Z</time></trkpt><trkpt lat="44.87041854907903" lon="9.67389664838818"><ele>277.6666666666667</ele><time>2026-05-02T07:35:08Z</time></trkpt><trkpt lat="44.87045741620093" lon="9.673983055543264"><ele>278.3333333333333</ele><time>2026-05-02T07:35:10Z</time></trkpt><trkpt lat="44.87054482468793" lon="9.674047778484884"><ele>279.0</ele><time>2026-05-02T07:35:12Z</time></trkpt><trkpt lat="44.8706200007588" lon="9.67410732863257"><ele>279.0</ele><time>2026-05-02T07:35:14Z</time></trkpt><trkpt lat="44.87070384781884" lon="9.674206763800683"><ele>279.0</ele><time>2026-05-02T07:35:16Z</time></trkpt><trkpt lat="44.87073847010465" lon="9.674288837862548"><ele>279.0</ele><time>2026-05-02T07:35:17Z</time></trkpt><trkpt lat="44.87076438137852" lon="9.674384485842804"><ele>279.0</ele><time>2026-05-02T07:35:18Z</time></trkpt><trkpt lat="44.87081503627645" lon="9.674456636308108"><ele>279.0</ele><time>2026-05-02T07:35:19Z</time></trkpt><trkpt lat="44.87086023613636" lon="9.674563006209501"><ele>279.0</ele><time>2026-05-02T07:35:20Z</time></trkpt><trkpt lat="44.87089714413131" lon="9.674655658156299"><ele>277.3333333333333</ele><time>2026-05-02T07:35:21Z</time></trkpt><trkpt lat="44.870929587655056" lon="9.674762120781226"><ele>275.6666666666667</ele><time>2026-05-02T07:35:22Z</time></trkpt><trkpt lat="44.87097432826381" lon="9.674831038424278"><ele>274.0</ele><time>2026-05-02T07:35:22.999Z</time></trkpt><trkpt lat="44.871098351102326" lon="9.674870291472228"><ele>272.33333333333337</ele><time>2026-05-02T07:35:24.999Z</time></trkpt><trkpt lat="44.87115658073675" lon="9.674907467638354"><ele>270.6666666666667</ele><time>2026-05-02T07:35:25.999Z</time></trkpt><trkpt lat="44.87121290326738" lon="9.674950666343916"><ele>269.0</ele><time>2026-05-02T07:35:26.999Z</time></trkpt><trkpt lat="44.87125899966321" lon="9.675020703705757"><ele>269.0</ele><time>2026-05-02T07:35:27.999Z</time></trkpt><trkpt lat="44.87130468639373" lon="9.675108542716258"><ele>269.0</ele><time>2026-05-02T07:35:28.999Z</time></trkpt><trkpt lat="44.871346229384955" lon="9.675254836160821"><ele>269.0</ele><time>2026-05-02T07:35:30.999Z</time></trkpt><trkpt lat="44.871429081016885" lon="9.675337334496957"><ele>269.0</ele><time>2026-05-02T07:35:32.999Z</time></trkpt><trkpt lat="44.871499824754096" lon="9.675351521804679"><ele>269.0</ele><time>2026-05-02T07:35:33.999Z</time></trkpt><trkpt lat="44.871568249191576" lon="9.675370795277399"><ele>269.0</ele><time>2026-05-02T07:35:34.999Z</time></trkpt><trkpt lat="44.871643212400144" lon="9.675414955720944"><ele>267.59999999999997</ele><time>2026-05-02T07:35:35.999Z</time></trkpt><trkpt lat="44.87174655055609" lon="9.675454868982918"><ele>266.2</ele><time>2026-05-02T07:35:36.999Z</time></trkpt><trkpt lat="44.871839314430225" lon="9.675501508282746"><ele>264.79999999999995</ele><time>2026-05-02T07:35:37.999Z</time></trkpt><trkpt lat="44.87191946012853" lon="9.675540649103949"><ele>263.4</ele><time>2026-05-02T07:35:39.999Z</time></trkpt><trkpt lat="44.87205378609928" lon="9.675518289983868"><ele>262.0</ele><time>2026-05-02T07:36:23.998Z</time></trkpt><trkpt lat="44.87213667208998" lon="9.675602726973164"><ele>260.6</ele><time>2026-05-02T07:36:27.998Z</time></trkpt><trkpt lat="44.87219551701265" lon="9.675727793535692"><ele>259.2</ele><time>2026-05-02T07:36:29.998Z</time></trkpt><trkpt lat="44.87228762863852" lon="9.675824487398819"><ele>257.8</ele><time>2026-05-02T07:36:31.998Z</time></trkpt><trkpt lat="44.87238549626013" lon="9.675833194878953"><ele>256.4</ele><time>2026-05-02T07:36:33.998Z</time></trkpt><trkpt lat="44.8724596539026" lon="9.67587446184475"><ele>255.0</ele><time>2026-05-02T07:36:45.998Z</time></trkpt><trkpt lat="44.87245014177644" lon="9.675978351664439"><ele>255.0</ele><time>2026-05-02T07:36:49.998Z</time></trkpt><trkpt lat="44.872411052534744" lon="9.676054491400956"><ele>255.00000000000003</ele><time>2026-05-02T07:36:55Z</time></trkpt><trkpt lat="44.87238796584374" lon="9.676137617674808"><ele>255.0</ele><time>2026-05-02T07:37:30.999Z</time></trkpt><trkpt lat="44.87232892748826" lon="9.676171665924922"><ele>255.0</ele><time>2026-05-02T07:37:38.999Z</time></trkpt><trkpt lat="44.87227603080155" lon="9.676227309128757"><ele>255.00000000000003</ele><time>2026-05-02T07:37:49.999Z</time></trkpt><trkpt lat="44.87220678322585" lon="9.676261077041152"><ele>255.0</ele><time>2026-05-02T07:37:56.999Z</time></trkpt><trkpt lat="44.87214893157437" lon="9.676307417481915"><ele>255.0</ele><time>2026-05-02T07:38:01.999Z</time></trkpt><trkpt lat="44.87207387916843" lon="9.676324289316772"><ele>258.5</ele><time>2026-05-02T07:38:07.999Z</time></trkpt><trkpt lat="44.87199634739119" lon="9.676322172147632"><ele>262.0</ele><time>2026-05-02T07:38:10.999Z</time></trkpt><trkpt lat="44.871911643740766" lon="9.676315024195972"><ele>265.5</ele><time>2026-05-02T07:38:14.999Z</time></trkpt><trkpt lat="44.87182874701779" lon="9.676321504620498"><ele>269.0</ele><time>2026-05-02T07:38:17.999Z</time></trkpt><trkpt lat="44.87174476182556" lon="9.676344542508698"><ele>272.5</ele><time>2026-05-02T07:38:19.999Z</time></trkpt><trkpt lat="44.87165164518567" lon="9.676342273055667"><ele>276.0</ele><time>2026-05-02T07:38:21.999Z</time></trkpt><trkpt lat="44.87158562149242" lon="9.676321168910162"><ele>277.2</ele><time>2026-05-02T07:38:22.999Z</time></trkpt><trkpt lat="44.87151036042026" lon="9.676303065609963"><ele>278.40000000000003</ele><time>2026-05-02T07:38:23.999Z</time></trkpt><trkpt lat="44.871389994887366" lon="9.676245267914773"><ele>279.6</ele><time>2026-05-02T07:38:25.999Z</time></trkpt><trkpt lat="44.871275672979905" lon="9.67618176751535"><ele>280.8</ele><time>2026-05-02T07:38:27.998Z</time></trkpt><trkpt lat="44.87121458610325" lon="9.676145789526785"><ele>282.0</ele><time>2026-05-02T07:38:28.998Z</time></trkpt><trkpt lat="44.87110752939755" lon="9.67610746762657"><ele>282.0</ele><time>2026-05-02T07:38:30.998Z</time></trkpt><trkpt lat="44.87104252579012" lon="9.676102933814883"><ele>282.0</ele><time>2026-05-02T07:38:31.998Z</time></trkpt><trkpt lat="44.87094838041804" lon="9.676104786854173"><ele>282.0</ele><time>2026-05-02T07:38:33.998Z</time></trkpt><trkpt lat="44.870876709640434" lon="9.676088894410647"><ele>282.0</ele><time>2026-05-02T07:38:37.998Z</time></trkpt><trkpt lat="44.87081145445237" lon="9.676057562789149"><ele>282.0</ele><time>2026-05-02T07:39:08Z</time></trkpt><trkpt lat="44.87072812779346" lon="9.676055079397713"><ele>282.0</ele><time>2026-05-02T07:39:10Z</time></trkpt><trkpt lat="44.870687276243814" lon="9.676131407557639"><ele>282.0</ele><time>2026-05-02T07:39:12Z</time></trkpt><trkpt lat="44.870757816779836" lon="9.676240334340509"><ele>282.0</ele><time>2026-05-02T07:39:14Z</time></trkpt><trkpt lat="44.870812369539564" lon="9.676285148374324"><ele>282.0</ele><time>2026-05-02T07:39:15Z</time></trkpt><trkpt lat="44.870877758047605" lon="9.676336374144489"><ele>282.0</ele><time>2026-05-02T07:39:16Z</time></trkpt><trkpt lat="44.87095119850704" lon="9.676393288421753"><ele>282.0</ele><time>2026-05-02T07:39:17Z</time></trkpt><trkpt lat="44.87102084861468" lon="9.676464114823712"><ele>282.0</ele><time>2026-05-02T07:39:18Z</time></trkpt><trkpt lat="44.87109286330568" lon="9.676576225136065"><ele>282.0</ele><time>2026-05-02T07:39:19Z</time></trkpt><trkpt lat="44.8711878219617" lon="9.676640071198408"><ele>282.0</ele><time>2026-05-02T07:39:20Z</time></trkpt><trkpt lat="44.87126803506886" lon="9.676699276510622"><ele>282.0</ele><time>2026-05-02T07:39:21Z</time></trkpt><trkpt lat="44.87136291622119" lon="9.676741773575689"><ele>282.0</ele><time>2026-05-02T07:39:23Z</time></trkpt><trkpt lat="44.871445844015966" lon="9.676772566459652"><ele>282.0</ele><time>2026-05-02T07:39:26Z</time></trkpt><trkpt lat="44.871520277473024" lon="9.676842266796779"><ele>285.5</ele><time>2026-05-02T07:39:28Z</time></trkpt><trkpt lat="44.87151072938879" lon="9.676955644015491"><ele>289.0</ele><time>2026-05-02T07:39:39.999Z</time></trkpt><trkpt lat="44.87148152421607" lon="9.677034837921106"><ele>292.5</ele><time>2026-05-02T07:39:43.999Z</time></trkpt><trkpt lat="44.871425927087266" lon="9.677100632041553"><ele>296.0</ele><time>2026-05-02T07:39:47.999Z</time></trkpt><trkpt lat="44.87129981880492" lon="9.677151174136204"><ele>299.5</ele><time>2026-05-02T07:39:49.999Z</time></trkpt><trkpt lat="44.871222672227084" lon="9.677156180332641"><ele>303.0</ele><time>2026-05-02T07:39:50.999Z</time></trkpt><trkpt lat="44.87108473148948" lon="9.677139729451664"><ele>303.0</ele><time>2026-05-02T07:39:52.999Z</time></trkpt><trkpt lat="44.87098573799655" lon="9.677079591082395"><ele>303.0</ele><time>2026-05-02T07:39:53.999Z</time></trkpt><trkpt lat="44.87091598520285" lon="9.677060399562304"><ele>303.0</ele><time>2026-05-02T07:39:54.999Z</time></trkpt><trkpt lat="44.870812399758826" lon="9.677031082281692"><ele>303.0</ele><time>2026-05-02T07:39:55.999Z</time></trkpt><trkpt lat="44.87073463954251" lon="9.677022393639767"><ele>303.0</ele><time>2026-05-02T07:39:56.999Z</time></trkpt><trkpt lat="44.87066388229875" lon="9.677017280554233"><ele>303.0</ele><time>2026-05-02T07:39:57.999Z</time></trkpt><trkpt lat="44.870599781037015" lon="9.67704788852791"><ele>304.4</ele><time>2026-05-02T07:39:59.999Z</time></trkpt><trkpt lat="44.87059192984982" lon="9.67713961254468"><ele>305.8</ele><time>2026-05-02T07:40:01.999Z</time></trkpt><trkpt lat="44.87065745087248" lon="9.677264720990516"><ele>307.2</ele><time>2026-05-02T07:40:03.999Z</time></trkpt><trkpt lat="44.87068583507552" lon="9.677351492215251"><ele>308.6</ele><time>2026-05-02T07:40:04.999Z</time></trkpt><trkpt lat="44.87076646667924" lon="9.677484639136443"><ele>310.0</ele><time>2026-05-02T07:40:06.999Z</time></trkpt><trkpt lat="44.87083871639298" lon="9.67761369410771"><ele>310.0</ele><time>2026-05-02T07:40:08.999Z</time></trkpt><trkpt lat="44.87092302000943" lon="9.677674997667959"><ele>310.0</ele><time>2026-05-02T07:40:10.999Z</time></trkpt><trkpt lat="44.87102978676192" lon="9.677787602442757"><ele>310.0</ele><time>2026-05-02T07:40:12.999Z</time></trkpt><trkpt lat="44.87112153043473" lon="9.677889249706745"><ele>310.0</ele><time>2026-05-02T07:40:14.999Z</time></trkpt><trkpt lat="44.87117959805965" lon="9.677990420911447"><ele>310.0</ele><time>2026-05-02T07:40:16.999Z</time></trkpt><trkpt lat="44.871191041964714" lon="9.678084448184352"><ele>310.8333333333333</ele><time>2026-05-02T07:40:18.999Z</time></trkpt><trkpt lat="44.87118342082056" lon="9.678195714879443"><ele>311.66666666666663</ele><time>2026-05-02T07:40:20.999Z</time></trkpt><trkpt lat="44.87112824355981" lon="9.678247361732064"><ele>312.5</ele><time>2026-05-02T07:40:23.999Z</time></trkpt><trkpt lat="44.87104162009687" lon="9.678233044102859"><ele>313.3333333333333</ele><time>2026-05-02T07:40:27.999Z</time></trkpt><trkpt lat="44.870978885101714" lon="9.678243598250404"><ele>314.1666666666667</ele><time>2026-05-02T07:40:30.999Z</time></trkpt><trkpt lat="44.870899660864936" lon="9.678254199265297"><ele>315.0</ele><time>2026-05-02T07:40:32.999Z</time></trkpt><trkpt lat="44.870802530556794" lon="9.678262722688238"><ele>315.6666666666667</ele><time>2026-05-02T07:40:34.998Z</time></trkpt><trkpt lat="44.87069439219094" lon="9.678258807117718"><ele>316.3333333333333</ele><time>2026-05-02T07:40:36.998Z</time></trkpt><trkpt lat="44.87059565159933" lon="9.678244512424047"><ele>317.0</ele><time>2026-05-02T07:40:38.998Z</time></trkpt><trkpt lat="44.87053073502385" lon="9.678258444063033"><ele>317.66666666666663</ele><time>2026-05-02T07:40:39.998Z</time></trkpt><trkpt lat="44.87044591500383" lon="9.67824276984856"><ele>318.3333333333333</ele><time>2026-05-02T07:40:40.998Z</time></trkpt><trkpt lat="44.87038332299683" lon="9.678214677748826"><ele>319.0</ele><time>2026-05-02T07:40:41.998Z</time></trkpt><trkpt lat="44.87027531177717" lon="9.678146726882128"><ele>319.0</ele><time>2026-05-02T07:40:43.998Z</time></trkpt><trkpt lat="44.87022552474068" lon="9.678067076074472"><ele>319.0</ele><time>2026-05-02T07:40:44.998Z</time></trkpt><trkpt lat="44.870182033177755" lon="9.677982979999852"><ele>319.0</ele><time>2026-05-02T07:40:45.998Z</time></trkpt><trkpt lat="44.870132330207774" lon="9.677902554067764"><ele>319.0</ele><time>2026-05-02T07:40:46.998Z</time></trkpt><trkpt lat="44.87007355968632" lon="9.677835988106587"><ele>319.0</ele><time>2026-05-02T07:40:47.998Z</time></trkpt><trkpt lat="44.870009106778326" lon="9.677787972255476"><ele>319.0</ele><time>2026-05-02T07:40:48.998Z</time></trkpt><trkpt lat="44.86995479405254" lon="9.677724624589874"><ele>319.0</ele><time>2026-05-02T07:40:49.998Z</time></trkpt><trkpt lat="44.86988295838149" lon="9.677674777277812"><ele>319.2</ele><time>2026-05-02T07:40:50.998Z</time></trkpt><trkpt lat="44.869807556187205" lon="9.677624987347304"><ele>319.4</ele><time>2026-05-02T07:40:51.998Z</time></trkpt><trkpt lat="44.86974177419078" lon="9.677581549876328"><ele>319.6</ele><time>2026-05-02T07:40:52.998Z</time></trkpt><trkpt lat="44.86968399096634" lon="9.677544393243911"><ele>319.8</ele><time>2026-05-02T07:40:53.998Z</time></trkpt><trkpt lat="44.869551988480396" lon="9.67746540224836"><ele>320.0</ele><time>2026-05-02T07:40:55.998Z</time></trkpt><trkpt lat="44.869468282166565" lon="9.677410528614711"><ele>320.0</ele><time>2026-05-02T07:40:56.998Z</time></trkpt><trkpt lat="44.86938029529101" lon="9.677367443243982"><ele>320.0</ele><time>2026-05-02T07:40:57.998Z</time></trkpt><trkpt lat="44.869309376094066" lon="9.67730252748679"><ele>320.0</ele><time>2026-05-02T07:40:58.998Z</time></trkpt><trkpt lat="44.86922496380583" lon="9.677228771608604"><ele>320.0</ele><time>2026-05-02T07:41:00.998Z</time></trkpt><trkpt lat="44.869138985831064" lon="9.677374877658817"><ele>320.0</ele><time>2026-05-02T07:41:02.998Z</time></trkpt><trkpt lat="44.86911184064895" lon="9.677468348315024"><ele>321.0</ele><time>2026-05-02T07:41:03.998Z</time></trkpt><trkpt lat="44.86901243148958" lon="9.67755920319366"><ele>322.0</ele><time>2026-05-02T07:41:06Z</time></trkpt><trkpt lat="44.868940037801295" lon="9.677572981625397"><ele>323.0</ele><time>2026-05-02T07:41:07Z</time></trkpt><trkpt lat="44.868857621246526" lon="9.677591802720674"><ele>324.0</ele><time>2026-05-02T07:41:08Z</time></trkpt><trkpt lat="44.86877694923753" lon="9.677582485357473"><ele>325.0</ele><time>2026-05-02T07:41:09Z</time></trkpt><trkpt lat="44.86869590864721" lon="9.677536995832035"><ele>326.0</ele><time>2026-05-02T07:41:10Z</time></trkpt><trkpt lat="44.868610691984784" lon="9.677475834777042"><ele>326.0</ele><time>2026-05-02T07:41:11Z</time></trkpt><trkpt lat="44.86853059337424" lon="9.677417976729322"><ele>326.0</ele><time>2026-05-02T07:41:12Z</time></trkpt><trkpt lat="44.868460218627646" lon="9.67737290199936"><ele>326.0</ele><time>2026-05-02T07:41:13Z</time></trkpt><trkpt lat="44.86839239587724" lon="9.677342383133562"><ele>326.0</ele><time>2026-05-02T07:41:14Z</time></trkpt><trkpt lat="44.86832508498948" lon="9.677325095036286"><ele>326.0</ele><time>2026-05-02T07:41:15Z</time></trkpt><trkpt lat="44.868248046452806" lon="9.67731987554549"><ele>326.0</ele><time>2026-05-02T07:41:16Z</time></trkpt><trkpt lat="44.86816384834245" lon="9.677321535678812"><ele>325.6</ele><time>2026-05-02T07:41:17Z</time></trkpt><trkpt lat="44.868079382181605" lon="9.67733721311394"><ele>325.20000000000005</ele><time>2026-05-02T07:41:18Z</time></trkpt><trkpt lat="44.8679889308783" lon="9.677363341269965"><ele>324.79999999999995</ele><time>2026-05-02T07:41:19Z</time></trkpt><trkpt lat="44.86790115718137" lon="9.677415581677987"><ele>324.4</ele><time>2026-05-02T07:41:20Z</time></trkpt><trkpt lat="44.867822149774696" lon="9.677495929472398"><ele>324.0</ele><time>2026-05-02T07:41:21Z</time></trkpt><trkpt lat="44.86774724733358" lon="9.67759300964406"><ele>324.0</ele><time>2026-05-02T07:41:22Z</time></trkpt><trkpt lat="44.86767321143704" lon="9.677683986641137"><ele>324.0</ele><time>2026-05-02T07:41:23Z</time></trkpt><trkpt lat="44.86760002241937" lon="9.677761401808747"><ele>324.0</ele><time>2026-05-02T07:41:24Z</time></trkpt><trkpt lat="44.86752928316356" lon="9.677834449957453"><ele>324.0</ele><time>2026-05-02T07:41:25Z</time></trkpt><trkpt lat="44.86744967306849" lon="9.677915168634"><ele>324.0</ele><time>2026-05-02T07:41:26Z</time></trkpt><trkpt lat="44.8673767481611" lon="9.677984014536031"><ele>324.0</ele><time>2026-05-02T07:41:27Z</time></trkpt><trkpt lat="44.86730495396446" lon="9.678045442818952"><ele>324.0</ele><time>2026-05-02T07:41:28Z</time></trkpt><trkpt lat="44.86723816742942" lon="9.67809899193871"><ele>324.0</ele><time>2026-05-02T07:41:29Z</time></trkpt><trkpt lat="44.86717291862261" lon="9.678150135254535"><ele>324.0</ele><time>2026-05-02T07:41:30Z</time></trkpt><trkpt lat="44.86710661647583" lon="9.678194967391459"><ele>324.0</ele><time>2026-05-02T07:41:31Z</time></trkpt><trkpt lat="44.86703544032474" lon="9.6782285197205"><ele>324.0</ele><time>2026-05-02T07:41:32Z</time></trkpt><trkpt lat="44.866959951811616" lon="9.678253881225395"><ele>324.0</ele><time>2026-05-02T07:41:33Z</time></trkpt><trkpt lat="44.866877655190585" lon="9.67826892503496"><ele>324.0</ele><time>2026-05-02T07:41:34Z</time></trkpt><trkpt lat="44.866794547891594" lon="9.678263644448021"><ele>324.0</ele><time>2026-05-02T07:41:35Z</time></trkpt><trkpt lat="44.86671169942425" lon="9.678235714158852"><ele>324.0</ele><time>2026-05-02T07:41:36Z</time></trkpt><trkpt lat="44.866634421403994" lon="9.678196253191487"><ele>324.0</ele><time>2026-05-02T07:41:37Z</time></trkpt><trkpt lat="44.866559586564" lon="9.6781599019535"><ele>324.0</ele><time>2026-05-02T07:41:38Z</time></trkpt><trkpt lat="44.86648973937638" lon="9.678126555846491"><ele>323.6666666666667</ele><time>2026-05-02T07:41:39Z</time></trkpt><trkpt lat="44.8664191707715" lon="9.678093726813486"><ele>323.3333333333333</ele><time>2026-05-02T07:41:40Z</time></trkpt><trkpt lat="44.86634784821482" lon="9.678061463863175"><ele>323.0</ele><time>2026-05-02T07:41:41Z</time></trkpt><trkpt lat="44.866286262156706" lon="9.678040640317734"><ele>322.66666666666663</ele><time>2026-05-02T07:41:42Z</time></trkpt><trkpt lat="44.86617157839892" lon="9.678045755548728"><ele>322.3333333333333</ele><time>2026-05-02T07:41:43.999Z</time></trkpt><trkpt lat="44.86610849269726" lon="9.678040714306665"><ele>322.0</ele><time>2026-05-02T07:41:44.999Z</time></trkpt><trkpt lat="44.86604079464899" lon="9.678032671102295"><ele>321.5</ele><time>2026-05-02T07:41:45.999Z</time></trkpt><trkpt lat="44.865912292475194" lon="9.678003529114575"><ele>321.0</ele><time>2026-05-02T07:41:47.999Z</time></trkpt><trkpt lat="44.86579095299928" lon="9.67797662515493"><ele>320.5</ele><time>2026-05-02T07:41:49.999Z</time></trkpt><trkpt lat="44.86567982551831" lon="9.677931292318794"><ele>320.0</ele><time>2026-05-02T07:41:51.999Z</time></trkpt><trkpt lat="44.86557358619882" lon="9.677895498241805"><ele>320.0</ele><time>2026-05-02T07:41:53.999Z</time></trkpt><trkpt lat="44.86546292917205" lon="9.677875718296466"><ele>320.0</ele><time>2026-05-02T07:41:55.999Z</time></trkpt><trkpt lat="44.86535997675205" lon="9.677820763510145"><ele>320.0</ele><time>2026-05-02T07:41:57.999Z</time></trkpt><trkpt lat="44.86524592751822" lon="9.677774051378464"><ele>320.0</ele><time>2026-05-02T07:41:59.999Z</time></trkpt><trkpt lat="44.86513516321285" lon="9.677729251989268"><ele>321.0</ele><time>2026-05-02T07:42:01.999Z</time></trkpt><trkpt lat="44.8650129824861" lon="9.677710562870308"><ele>322.0</ele><time>2026-05-02T07:42:03.999Z</time></trkpt><trkpt lat="44.864898243958535" lon="9.677682870186915"><ele>323.0</ele><time>2026-05-02T07:42:05.999Z</time></trkpt><trkpt lat="44.8647948584522" lon="9.677585913171272"><ele>324.0</ele><time>2026-05-02T07:42:07.999Z</time></trkpt><trkpt lat="44.86468791859864" lon="9.67752452345114"><ele>324.0</ele><time>2026-05-02T07:42:09.999Z</time></trkpt><trkpt lat="44.86461181937855" lon="9.677523531543018"><ele>324.0</ele><time>2026-05-02T07:42:11.999Z</time></trkpt><trkpt lat="44.864527188426095" lon="9.677557889707195"><ele>324.0</ele><time>2026-05-02T07:42:13.999Z</time></trkpt><trkpt lat="44.86444119925451" lon="9.677580554079977"><ele>324.0</ele><time>2026-05-02T07:42:15.999Z</time></trkpt><trkpt lat="44.864338093646666" lon="9.677612116093252"><ele>324.0</ele><time>2026-05-02T07:42:18.999Z</time></trkpt><trkpt lat="44.864246807824166" lon="9.677642534889532"><ele>324.2</ele><time>2026-05-02T07:42:20.999Z</time></trkpt><trkpt lat="44.864183475756064" lon="9.677642476435706"><ele>324.4</ele><time>2026-05-02T07:42:21.999Z</time></trkpt><trkpt lat="44.864096026773574" lon="9.6776485053345"><ele>324.6</ele><time>2026-05-02T07:42:23.999Z</time></trkpt><trkpt lat="44.86401150860543" lon="9.67761756665617"><ele>324.8</ele><time>2026-05-02T07:42:25.999Z</time></trkpt><trkpt lat="44.86390774748899" lon="9.677573173496432"><ele>325.0</ele><time>2026-05-02T07:42:27.999Z</time></trkpt><trkpt lat="44.863803531392016" lon="9.677542112646197"><ele>325.0</ele><time>2026-05-02T07:42:29.999Z</time></trkpt><trkpt lat="44.86369190229572" lon="9.677565251366595"><ele>325.0</ele><time>2026-05-02T07:42:31.999Z</time></trkpt><trkpt lat="44.863637039735345" lon="9.677612884696895"><ele>325.0</ele><time>2026-05-02T07:42:32.999Z</time></trkpt><trkpt lat="44.86359016076111" lon="9.677674713876117"><ele>325.0</ele><time>2026-05-02T07:42:33.999Z</time></trkpt><trkpt lat="44.863495141324904" lon="9.677788015332297"><ele>325.0</ele><time>2026-05-02T07:42:35.999Z</time></trkpt><trkpt lat="44.86344315543551" lon="9.677838941577646"><ele>325.0</ele><time>2026-05-02T07:42:36.999Z</time></trkpt><trkpt lat="44.86332860165836" lon="9.677880904732113"><ele>326.66666666666663</ele><time>2026-05-02T07:42:38.999Z</time></trkpt><trkpt lat="44.863266002520405" lon="9.677891904757772"><ele>328.3333333333333</ele><time>2026-05-02T07:42:39.999Z</time></trkpt><trkpt lat="44.86317616271019" lon="9.677935769679364"><ele>330.0</ele><time>2026-05-02T07:42:41.998Z</time></trkpt><trkpt lat="44.863138891022516" lon="9.678032369821123"><ele>331.6666666666667</ele><time>2026-05-02T07:42:43.998Z</time></trkpt><trkpt lat="44.86316931674957" lon="9.678127626721041"><ele>333.33333333333337</ele><time>2026-05-02T07:42:46.998Z</time></trkpt><trkpt lat="44.86321811389844" lon="9.67824645367227"><ele>335.0</ele><time>2026-05-02T07:42:50.998Z</time></trkpt><trkpt lat="44.863248924198565" lon="9.6784056263373"><ele>335.0</ele><time>2026-05-02T07:42:52.998Z</time></trkpt><trkpt lat="44.86326713489432" lon="9.67857847849154"><ele>335.0</ele><time>2026-05-02T07:42:54.998Z</time></trkpt><trkpt lat="44.86328427110913" lon="9.678669159927928"><ele>335.0</ele><time>2026-05-02T07:42:55.998Z</time></trkpt><trkpt lat="44.86328725127284" lon="9.678766112671127"><ele>335.0</ele><time>2026-05-02T07:42:56.998Z</time></trkpt><trkpt lat="44.863301710396115" lon="9.678878433919987"><ele>335.0</ele><time>2026-05-02T07:42:57.998Z</time></trkpt><trkpt lat="44.86332622043274" lon="9.67899770438234"><ele>335.0</ele><time>2026-05-02T07:42:58.998Z</time></trkpt><trkpt lat="44.86334948806819" lon="9.679113770045"><ele>336.2</ele><time>2026-05-02T07:42:59.998Z</time></trkpt><trkpt lat="44.86335668461069" lon="9.679226643555596"><ele>337.4</ele><time>2026-05-02T07:43:00.998Z</time></trkpt><trkpt lat="44.863370720584285" lon="9.679317220692639"><ele>338.6</ele><time>2026-05-02T07:43:01.998Z</time></trkpt><trkpt lat="44.86338312211022" lon="9.679480438985042"><ele>339.8</ele><time>2026-05-02T07:43:03.998Z</time></trkpt><trkpt lat="44.863382968148095" lon="9.67964256423938"><ele>341.0</ele><time>2026-05-02T07:43:05.998Z</time></trkpt><trkpt lat="44.8633467947031" lon="9.679792106651623"><ele>341.0</ele><time>2026-05-02T07:43:07.998Z</time></trkpt><trkpt lat="44.86331787477095" lon="9.679872102064063"><ele>341.0</ele><time>2026-05-02T07:43:08.998Z</time></trkpt><trkpt lat="44.863271270627465" lon="9.679972312949225"><ele>341.0</ele><time>2026-05-02T07:43:09.998Z</time></trkpt><trkpt lat="44.8632361407749" lon="9.680059429532346"><ele>341.0</ele><time>2026-05-02T07:43:11Z</time></trkpt><trkpt lat="44.86320032297842" lon="9.680174530467959"><ele>341.0</ele><time>2026-05-02T07:43:13Z</time></trkpt><trkpt lat="44.863220943874914" lon="9.680298661122691"><ele>341.0</ele><time>2026-05-02T07:43:16Z</time></trkpt><trkpt lat="44.8633058018412" lon="9.68040273895136"><ele>341.0</ele><time>2026-05-02T07:43:18Z</time></trkpt><trkpt lat="44.86336309795242" lon="9.680463482727488"><ele>341.0</ele><time>2026-05-02T07:43:19Z</time></trkpt><trkpt lat="44.86341604042839" lon="9.680531011265161"><ele>341.0</ele><time>2026-05-02T07:43:20Z</time></trkpt><trkpt lat="44.863461065781" lon="9.680594076100187"><ele>341.0</ele><time>2026-05-02T07:43:21Z</time></trkpt><trkpt lat="44.86350893246526" lon="9.680660541314477"><ele>341.0</ele><time>2026-05-02T07:43:22Z</time></trkpt><trkpt lat="44.86356367494869" lon="9.68073637542329"><ele>341.0</ele><time>2026-05-02T07:43:23Z</time></trkpt><trkpt lat="44.863622916051135" lon="9.680816374156574"><ele>341.0</ele><time>2026-05-02T07:43:24Z</time></trkpt><trkpt lat="44.863678465146734" lon="9.680895188218404"><ele>339.6666666666667</ele><time>2026-05-02T07:43:25Z</time></trkpt><trkpt lat="44.86373299401943" lon="9.68097854483133"><ele>338.33333333333337</ele><time>2026-05-02T07:43:26Z</time></trkpt><trkpt lat="44.86378835340952" lon="9.681059079441845"><ele>337.0</ele><time>2026-05-02T07:43:27Z</time></trkpt><trkpt lat="44.86383885153557" lon="9.681137081021303"><ele>335.6666666666667</ele><time>2026-05-02T07:43:28Z</time></trkpt><trkpt lat="44.863885159616096" lon="9.681220232008645"><ele>334.3333333333333</ele><time>2026-05-02T07:43:29Z</time></trkpt><trkpt lat="44.86393703979774" lon="9.681292763009713"><ele>333.0</ele><time>2026-05-02T07:43:30Z</time></trkpt><trkpt lat="44.863998905909796" lon="9.68135599923709"><ele>332.79999999999995</ele><time>2026-05-02T07:43:31Z</time></trkpt><trkpt lat="44.8640762962589" lon="9.681410232534926"><ele>332.6</ele><time>2026-05-02T07:43:32Z</time></trkpt><trkpt lat="44.86416600428588" lon="9.68147366274071"><ele>332.4</ele><time>2026-05-02T07:43:33Z</time></trkpt><trkpt lat="44.86425710808702" lon="9.681537020089344"><ele>332.20000000000005</ele><time>2026-05-02T07:43:34Z</time></trkpt><trkpt lat="44.86434358612934" lon="9.681598647241017"><ele>332.0</ele><time>2026-05-02T07:43:35Z</time></trkpt><trkpt lat="44.864426939605984" lon="9.681657734655523"><ele>331.83333333333337</ele><time>2026-05-02T07:43:36Z</time></trkpt><trkpt lat="44.864508299502766" lon="9.681704097106804"><ele>331.6666666666667</ele><time>2026-05-02T07:43:37Z</time></trkpt><trkpt lat="44.864589708915844" lon="9.681754726219884"><ele>331.5</ele><time>2026-05-02T07:43:38Z</time></trkpt><trkpt lat="44.86466605376154" lon="9.681810896838357"><ele>331.3333333333333</ele><time>2026-05-02T07:43:39Z</time></trkpt><trkpt lat="44.86473781251202" lon="9.681858749281794"><ele>331.16666666666663</ele><time>2026-05-02T07:43:40Z</time></trkpt><trkpt lat="44.864811966205494" lon="9.681918017391641"><ele>331.0</ele><time>2026-05-02T07:43:41Z</time></trkpt><trkpt lat="44.86489421775666" lon="9.681988271965166"><ele>330.66666666666663</ele><time>2026-05-02T07:43:42Z</time></trkpt><trkpt lat="44.864977281014866" lon="9.682043310572828"><ele>330.3333333333333</ele><time>2026-05-02T07:43:43Z</time></trkpt><trkpt lat="44.865056341953846" lon="9.682094492190329"><ele>330.0</ele><time>2026-05-02T07:43:44Z</time></trkpt><trkpt lat="44.86513336662628" lon="9.682146580170775"><ele>329.6666666666667</ele><time>2026-05-02T07:43:45Z</time></trkpt><trkpt lat="44.865206755139184" lon="9.682199219506442"><ele>329.33333333333337</ele><time>2026-05-02T07:43:46Z</time></trkpt><trkpt lat="44.86527368741536" lon="9.682248155516552"><ele>329.0</ele><time>2026-05-02T07:43:47Z</time></trkpt><trkpt lat="44.86533856508268" lon="9.682290362667414"><ele>328.79999999999995</ele><time>2026-05-02T07:43:48Z</time></trkpt><trkpt lat="44.86539715484738" lon="9.682327151770393"><ele>328.59999999999997</ele><time>2026-05-02T07:43:49Z</time></trkpt><trkpt lat="44.86549169194832" lon="9.682315629569711"><ele>328.4</ele><time>2026-05-02T07:43:51Z</time></trkpt><trkpt lat="44.8655489277417" lon="9.682198218786285"><ele>328.2</ele><time>2026-05-02T07:43:53Z</time></trkpt><trkpt lat="44.865586213764104" lon="9.682050971587097"><ele>328.0</ele><time>2026-05-02T07:43:54.999Z</time></trkpt><trkpt lat="44.86562954607469" lon="9.681907109499884"><ele>328.0</ele><time>2026-05-02T07:43:56.999Z</time></trkpt><trkpt lat="44.86571968477525" lon="9.681814622611048"><ele>328.0</ele><time>2026-05-02T07:43:58.999Z</time></trkpt><trkpt lat="44.86577428765731" lon="9.681752677440524"><ele>328.0</ele><time>2026-05-02T07:43:59.999Z</time></trkpt><trkpt lat="44.86581852853455" lon="9.681687263685008"><ele>328.0</ele><time>2026-05-02T07:44:00.999Z</time></trkpt><trkpt lat="44.86586829645832" lon="9.681618955363891"><ele>328.0</ele><time>2026-05-02T07:44:01.999Z</time></trkpt><trkpt lat="44.8659812834728" lon="9.681581761482825"><ele>328.0</ele><time>2026-05-02T07:44:03.999Z</time></trkpt><trkpt lat="44.86604789585766" lon="9.681582325083518"><ele>326.8333333333333</ele><time>2026-05-02T07:44:04.999Z</time></trkpt><trkpt lat="44.86615726872473" lon="9.681547208637467"><ele>325.66666666666663</ele><time>2026-05-02T07:44:06.999Z</time></trkpt><trkpt lat="44.86622519217759" lon="9.681551408323445"><ele>324.5</ele><time>2026-05-02T07:44:07.999Z</time></trkpt><trkpt lat="44.86630782932732" lon="9.681576185486444"><ele>323.3333333333333</ele><time>2026-05-02T07:44:08.999Z</time></trkpt><trkpt lat="44.86639217827243" lon="9.681599151544452"><ele>322.1666666666667</ele><time>2026-05-02T07:44:09.999Z</time></trkpt><trkpt lat="44.866469107467324" lon="9.681628606101684"><ele>321.0</ele><time>2026-05-02T07:44:10.999Z</time></trkpt><trkpt lat="44.86654417360104" lon="9.681682267998701"><ele>321.0</ele><time>2026-05-02T07:44:11.999Z</time></trkpt><trkpt lat="44.86661593258267" lon="9.681730173822956"><ele>321.0</ele><time>2026-05-02T07:44:12.999Z</time></trkpt><trkpt lat="44.86668182925379" lon="9.681780989530225"><ele>321.0</ele><time>2026-05-02T07:44:13.999Z</time></trkpt><trkpt lat="44.866760734860435" lon="9.681831313883604"><ele>321.0</ele><time>2026-05-02T07:44:14.999Z</time></trkpt><trkpt lat="44.86685371045532" lon="9.68189208587927"><ele>321.0</ele><time>2026-05-02T07:44:15.999Z</time></trkpt><trkpt lat="44.86695750630157" lon="9.68192128440567"><ele>321.0</ele><time>2026-05-02T07:44:16.999Z</time></trkpt><trkpt lat="44.86705244329912" lon="9.681942074071566"><ele>320.3333333333333</ele><time>2026-05-02T07:44:17.999Z</time></trkpt><trkpt lat="44.8671343600297" lon="9.681967196650971"><ele>319.6666666666667</ele><time>2026-05-02T07:44:18.999Z</time></trkpt><trkpt lat="44.86721806143857" lon="9.682004229401862"><ele>319.0</ele><time>2026-05-02T07:44:19.999Z</time></trkpt><trkpt lat="44.86729286283598" lon="9.682049904434107"><ele>318.33333333333337</ele><time>2026-05-02T07:44:20.999Z</time></trkpt><trkpt lat="44.86737090730422" lon="9.682110126138188"><ele>317.6666666666667</ele><time>2026-05-02T07:44:21.999Z</time></trkpt><trkpt lat="44.86744475607128" lon="9.682175478293749"><ele>317.0</ele><time>2026-05-02T07:44:22.999Z</time></trkpt><trkpt lat="44.86752289874439" lon="9.682246302122358"><ele>317.0</ele><time>2026-05-02T07:44:23.999Z</time></trkpt><trkpt lat="44.86760153399794" lon="9.682317554540074"><ele>317.0</ele><time>2026-05-02T07:44:24.999Z</time></trkpt><trkpt lat="44.867670819934624" lon="9.682378595932583"><ele>317.0</ele><time>2026-05-02T07:44:25.999Z</time></trkpt><trkpt lat="44.86775220583945" lon="9.682442365988319"><ele>317.0</ele><time>2026-05-02T07:44:27.999Z</time></trkpt><trkpt lat="44.86781538063862" lon="9.682485724845503"><ele>317.0</ele><time>2026-05-02T07:44:33.999Z</time></trkpt><trkpt lat="44.867840029472156" lon="9.682606433069473"><ele>317.0</ele><time>2026-05-02T07:44:37.999Z</time></trkpt><trkpt lat="44.86776126034231" lon="9.682703287971428"><ele>317.0</ele><time>2026-05-02T07:44:39.999Z</time></trkpt><trkpt lat="44.86771058264051" lon="9.6827646660412"><ele>317.0</ele><time>2026-05-02T07:44:40.999Z</time></trkpt><trkpt lat="44.867660832274915" lon="9.682827783116606"><ele>317.0</ele><time>2026-05-02T07:44:41.999Z</time></trkpt><trkpt lat="44.86759836231642" lon="9.682896234701332"><ele>317.0</ele><time>2026-05-02T07:44:42.999Z</time></trkpt><trkpt lat="44.867533199619764" lon="9.68296301098932"><ele>317.0</ele><time>2026-05-02T07:44:43.999Z</time></trkpt><trkpt lat="44.86747167970773" lon="9.683027250596014"><ele>317.0</ele><time>2026-05-02T07:44:44.999Z</time></trkpt><trkpt lat="44.8674018765732" lon="9.683101011569123"><ele>317.0</ele><time>2026-05-02T07:44:45.999Z</time></trkpt><trkpt lat="44.867337966483184" lon="9.683168007087337"><ele>317.0</ele><time>2026-05-02T07:44:46.999Z</time></trkpt><trkpt lat="44.86728412692425" lon="9.68324265815832"><ele>317.0</ele><time>2026-05-02T07:44:47.999Z</time></trkpt><trkpt lat="44.86723302494736" lon="9.683320453098435"><ele>317.0</ele><time>2026-05-02T07:44:48.999Z</time></trkpt><trkpt lat="44.86718069846977" lon="9.6833920337219"><ele>317.0</ele><time>2026-05-02T07:44:49.999Z</time></trkpt><trkpt lat="44.86712674367342" lon="9.683454011966388"><ele>317.0</ele><time>2026-05-02T07:44:50.999Z</time></trkpt><trkpt lat="44.867066870020494" lon="9.683509229694904"><ele>317.0</ele><time>2026-05-02T07:44:51.999Z</time></trkpt><trkpt lat="44.86701068734451" lon="9.683556755988823"><ele>317.0</ele><time>2026-05-02T07:44:52.998Z</time></trkpt><trkpt lat="44.86695787927813" lon="9.683608091056389"><ele>317.0</ele><time>2026-05-02T07:44:53.998Z</time></trkpt><trkpt lat="44.86690635397664" lon="9.683667451744146"><ele>317.0</ele><time>2026-05-02T07:44:54.998Z</time></trkpt><trkpt lat="44.86685155161931" lon="9.68373338038533"><ele>317.0</ele><time>2026-05-02T07:44:55.998Z</time></trkpt><trkpt lat="44.866795752988274" lon="9.68380437327636"><ele>317.0</ele><time>2026-05-02T07:44:56.998Z</time></trkpt><trkpt lat="44.86673748676319" lon="9.683871642904087"><ele>317.0</ele><time>2026-05-02T07:44:57.998Z</time></trkpt><trkpt lat="44.86668136556521" lon="9.683925384022775"><ele>317.0</ele><time>2026-05-02T07:44:58.998Z</time></trkpt><trkpt lat="44.866624305628775" lon="9.683975272438676"><ele>317.0</ele><time>2026-05-02T07:44:59.998Z</time></trkpt><trkpt lat="44.86656704702455" lon="9.684026650364967"><ele>317.0</ele><time>2026-05-02T07:45:00.998Z</time></trkpt><trkpt lat="44.8665094002729" lon="9.684085690373292"><ele>317.0</ele><time>2026-05-02T07:45:01.998Z</time></trkpt><trkpt lat="44.866453878804904" lon="9.684147804510612"><ele>317.0</ele><time>2026-05-02T07:45:02.998Z</time></trkpt><trkpt lat="44.86636864147794" lon="9.684267930014071"><ele>317.0</ele><time>2026-05-02T07:45:04.998Z</time></trkpt><trkpt lat="44.866269032318385" lon="9.68435054762085"><ele>317.0</ele><time>2026-05-02T07:45:06.998Z</time></trkpt><trkpt lat="44.86620497241183" lon="9.684367027902095"><ele>317.0</ele><time>2026-05-02T07:45:07.998Z</time></trkpt><trkpt lat="44.8661423450863" lon="9.684380679599187"><ele>317.0</ele><time>2026-05-02T07:45:08.998Z</time></trkpt><trkpt lat="44.86602691257274" lon="9.684459452317435"><ele>317.0</ele><time>2026-05-02T07:45:10.998Z</time></trkpt><trkpt lat="44.86597415996956" lon="9.684524363874985"><ele>317.0</ele><time>2026-05-02T07:45:11.998Z</time></trkpt><trkpt lat="44.865926023473" lon="9.684604997585406"><ele>317.0</ele><time>2026-05-02T07:45:12.998Z</time></trkpt><trkpt lat="44.8658774252917" lon="9.684696913520774"><ele>317.0</ele><time>2026-05-02T07:45:13.998Z</time></trkpt><trkpt lat="44.86582790514054" lon="9.68479785991719"><ele>317.1666666666667</ele><time>2026-05-02T07:45:14.998Z</time></trkpt><trkpt lat="44.865776703024565" lon="9.684896183337468"><ele>317.33333333333337</ele><time>2026-05-02T07:45:15.998Z</time></trkpt><trkpt lat="44.86572105509483" lon="9.684987695370046"><ele>317.5</ele><time>2026-05-02T07:45:17Z</time></trkpt><trkpt lat="44.865662460227384" lon="9.685080046545357"><ele>317.6666666666667</ele><time>2026-05-02T07:45:18Z</time></trkpt><trkpt lat="44.86560296470281" lon="9.685179115757874"><ele>317.8333333333333</ele><time>2026-05-02T07:45:19Z</time></trkpt><trkpt lat="44.86555283268458" lon="9.685277820443945"><ele>318.0</ele><time>2026-05-02T07:45:20Z</time></trkpt><trkpt lat="44.86550670341336" lon="9.68536830459569"><ele>317.4</ele><time>2026-05-02T07:45:21Z</time></trkpt><trkpt lat="44.86547012972049" lon="9.685448609382298"><ele>316.8</ele><time>2026-05-02T07:45:22Z</time></trkpt><trkpt lat="44.86543306557694" lon="9.685528231455686"><ele>316.2</ele><time>2026-05-02T07:45:23Z</time></trkpt><trkpt lat="44.865392002538286" lon="9.685603470565383"><ele>315.6</ele><time>2026-05-02T07:45:24Z</time></trkpt><trkpt lat="44.865314838103096" lon="9.68574281781659"><ele>315.0</ele><time>2026-05-02T07:45:26Z</time></trkpt><trkpt lat="44.86523741927423" lon="9.685889029095017"><ele>315.0</ele><time>2026-05-02T07:45:28Z</time></trkpt><trkpt lat="44.865194624680306" lon="9.686038756810849"><ele>315.0</ele><time>2026-05-02T07:45:30Z</time></trkpt><trkpt lat="44.86521155976524" lon="9.686182016304576"><ele>315.0</ele><time>2026-05-02T07:45:32Z</time></trkpt><trkpt lat="44.86526085195129" lon="9.68630181950444"><ele>315.0</ele><time>2026-05-02T07:45:34Z</time></trkpt><trkpt lat="44.865290919632464" lon="9.686412099325365"><ele>315.0</ele><time>2026-05-02T07:45:36Z</time></trkpt><trkpt lat="44.865302340628745" lon="9.68656545885428"><ele>314.0</ele><time>2026-05-02T07:45:38Z</time></trkpt><trkpt lat="44.86532567336948" lon="9.686727132060463"><ele>313.0</ele><time>2026-05-02T07:45:40Z</time></trkpt><trkpt lat="44.86532489665461" lon="9.686903006856141"><ele>312.0</ele><time>2026-05-02T07:45:42Z</time></trkpt><trkpt lat="44.865332855588925" lon="9.687033747835443"><ele>311.0</ele><time>2026-05-02T07:45:43Z</time></trkpt><trkpt lat="44.86534364530368" lon="9.687146717833663"><ele>310.0</ele><time>2026-05-02T07:45:44Z</time></trkpt><trkpt lat="44.86536454977929" lon="9.6872408414238"><ele>308.4</ele><time>2026-05-02T07:45:45Z</time></trkpt><trkpt lat="44.86541190619988" lon="9.68738492753309"><ele>306.8</ele><time>2026-05-02T07:45:47Z</time></trkpt><trkpt lat="44.865454338948865" lon="9.687475342859658"><ele>305.2</ele><time>2026-05-02T07:45:48Z</time></trkpt><trkpt lat="44.86551168958027" lon="9.687580473757436"><ele>303.6</ele><time>2026-05-02T07:45:49Z</time></trkpt><trkpt lat="44.865568118629426" lon="9.687677336535785"><ele>302.0</ele><time>2026-05-02T07:45:50Z</time></trkpt><trkpt lat="44.86561806795794" lon="9.687770091186144"><ele>301.5</ele><time>2026-05-02T07:45:51Z</time></trkpt><trkpt lat="44.86566686161818" lon="9.68785167058524"><ele>301.0</ele><time>2026-05-02T07:45:52Z</time></trkpt><trkpt lat="44.865736542032906" lon="9.687942039121385"><ele>300.5</ele><time>2026-05-02T07:45:54Z</time></trkpt><trkpt lat="44.86567578870835" lon="9.687998583073774"><ele>300.0</ele><time>2026-05-02T07:45:56Z</time></trkpt><trkpt lat="44.86555392095238" lon="9.68793322510139"><ele>299.5</ele><time>2026-05-02T07:45:58Z</time></trkpt><trkpt lat="44.86549157858709" lon="9.687884449084292"><ele>299.0</ele><time>2026-05-02T07:45:59Z</time></trkpt><trkpt lat="44.86541709992944" lon="9.687855852418322"><ele>299.0</ele><time>2026-05-02T07:46:00Z</time></trkpt><trkpt lat="44.86534424089199" lon="9.687814595863445"><ele>299.0</ele><time>2026-05-02T07:46:01Z</time></trkpt><trkpt lat="44.86528075721708" lon="9.687777586792546"><ele>299.0</ele><time>2026-05-02T07:46:02Z</time></trkpt><trkpt lat="44.86517466778765" lon="9.687746338079458"><ele>299.0</ele><time>2026-05-02T07:46:03.999Z</time></trkpt><trkpt lat="44.8650778665794" lon="9.687841010358301"><ele>299.0</ele><time>2026-05-02T07:46:05.999Z</time></trkpt><trkpt lat="44.86496867535797" lon="9.687945998099774"><ele>296.1666666666667</ele><time>2026-05-02T07:46:07.999Z</time></trkpt><trkpt lat="44.86490911559575" lon="9.688008865130582"><ele>293.33333333333337</ele><time>2026-05-02T07:46:08.999Z</time></trkpt><trkpt lat="44.86484682342356" lon="9.68807580222582"><ele>290.5</ele><time>2026-05-02T07:46:09.999Z</time></trkpt><trkpt lat="44.86477579649702" lon="9.688143248845204"><ele>287.6666666666667</ele><time>2026-05-02T07:46:10.999Z</time></trkpt><trkpt lat="44.86469929037544" lon="9.688190497836054"><ele>284.8333333333333</ele><time>2026-05-02T07:46:11.999Z</time></trkpt><trkpt lat="44.86462668959792" lon="9.688244357208319"><ele>282.0</ele><time>2026-05-02T07:46:12.999Z</time></trkpt><trkpt lat="44.86455773660818" lon="9.688304600228623"><ele>282.0</ele><time>2026-05-02T07:46:13.999Z</time></trkpt><trkpt lat="44.86448817720054" lon="9.688357479196059"><ele>282.0</ele><time>2026-05-02T07:46:14.999Z</time></trkpt><trkpt lat="44.864405664112525" lon="9.688408790333517"><ele>282.0</ele><time>2026-05-02T07:46:15.999Z</time></trkpt><trkpt lat="44.86431949502706" lon="9.688442592735694"><ele>282.0</ele><time>2026-05-02T07:46:16.999Z</time></trkpt><trkpt lat="44.86423948464789" lon="9.688481788430721"><ele>282.0</ele><time>2026-05-02T07:46:17.999Z</time></trkpt><trkpt lat="44.864174240692535" lon="9.68852697268599"><ele>282.0</ele><time>2026-05-02T07:46:18.999Z</time></trkpt><trkpt lat="44.86412485928447" lon="9.688587513350049"><ele>279.1666666666667</ele><time>2026-05-02T07:46:19.999Z</time></trkpt><trkpt lat="44.86409507096696" lon="9.688669747505628"><ele>276.3333333333333</ele><time>2026-05-02T07:46:21.999Z</time></trkpt><trkpt lat="44.86408355525232" lon="9.688781399799373"><ele>273.5</ele><time>2026-05-02T07:46:24.999Z</time></trkpt><trkpt lat="44.864078853791575" lon="9.688889953814673"><ele>270.66666666666663</ele><time>2026-05-02T07:46:27.999Z</time></trkpt><trkpt lat="44.86406720249191" lon="9.688997139288878"><ele>267.8333333333333</ele><time>2026-05-02T07:46:30.999Z</time></trkpt><trkpt lat="44.864047441915154" lon="9.689135144537182"><ele>265.0</ele><time>2026-05-02T07:46:33.999Z</time></trkpt><trkpt lat="44.86403075314592" lon="9.689238904440797"><ele>265.0</ele><time>2026-05-02T07:46:35.999Z</time></trkpt><trkpt lat="44.86401965984081" lon="9.68933980977919"><ele>265.0</ele><time>2026-05-02T07:46:37.999Z</time></trkpt><trkpt lat="44.86397385015162" lon="9.689415817486061"><ele>265.0</ele><time>2026-05-02T07:46:39.999Z</time></trkpt><trkpt lat="44.863894272684256" lon="9.689428779630424"><ele>265.0</ele><time>2026-05-02T07:46:41.999Z</time></trkpt><trkpt lat="44.8638227694579" lon="9.68940199269215"><ele>265.0</ele><time>2026-05-02T07:46:43.999Z</time></trkpt><trkpt lat="44.86375039926012" lon="9.689362509588785"><ele>265.0</ele><time>2026-05-02T07:46:45.999Z</time></trkpt><trkpt lat="44.86367094943234" lon="9.689288476757945"><ele>265.0</ele><time>2026-05-02T07:46:47.999Z</time></trkpt><trkpt lat="44.86356326572438" lon="9.689220890696317"><ele>265.0</ele><time>2026-05-02T07:46:49.999Z</time></trkpt><trkpt lat="44.86349663137843" lon="9.689202528688774"><ele>265.0</ele><time>2026-05-02T07:46:50.999Z</time></trkpt><trkpt lat="44.86343376574889" lon="9.689171091455778"><ele>265.0</ele><time>2026-05-02T07:46:51.999Z</time></trkpt><trkpt lat="44.863371139255754" lon="9.689152803016796"><ele>265.0</ele><time>2026-05-02T07:46:52.999Z</time></trkpt><trkpt lat="44.86330071770987" lon="9.689130380352568"><ele>265.0</ele><time>2026-05-02T07:46:53.999Z</time></trkpt><trkpt lat="44.8631914721566" lon="9.689131725907924"><ele>263.66666666666663</ele><time>2026-05-02T07:46:55.999Z</time></trkpt><trkpt lat="44.86309539225987" lon="9.689174684587508"><ele>262.3333333333333</ele><time>2026-05-02T07:46:57.999Z</time></trkpt><trkpt lat="44.863026409738765" lon="9.689335230834448"><ele>261.0</ele><time>2026-05-02T07:46:59.999Z</time></trkpt><trkpt lat="44.862987620385404" lon="9.68942566292114"><ele>259.6666666666667</ele><time>2026-05-02T07:47:00.999Z</time></trkpt><trkpt lat="44.86294701799567" lon="9.689505381459515"><ele>258.33333333333337</ele><time>2026-05-02T07:47:01.999Z</time></trkpt><trkpt lat="44.86290624665233" lon="9.689584937168854"><ele>257.0</ele><time>2026-05-02T07:47:02.998Z</time></trkpt><trkpt lat="44.86286729313988" lon="9.689662777190385"><ele>255.57142857142856</ele><time>2026-05-02T07:47:03.998Z</time></trkpt><trkpt lat="44.86283083579533" lon="9.689737907735408"><ele>254.14285714285717</ele><time>2026-05-02T07:47:04.998Z</time></trkpt><trkpt lat="44.86278839448535" lon="9.68982551715451"><ele>252.71428571428572</ele><time>2026-05-02T07:47:05.998Z</time></trkpt><trkpt lat="44.862750147159744" lon="9.68991014956686"><ele>251.28571428571428</ele><time>2026-05-02T07:47:06.998Z</time></trkpt><trkpt lat="44.862709850231695" lon="9.689994505011603"><ele>249.85714285714283</ele><time>2026-05-02T07:47:07.998Z</time></trkpt><trkpt lat="44.86266696769996" lon="9.69008502974179"><ele>248.42857142857144</ele><time>2026-05-02T07:47:08.998Z</time></trkpt><trkpt lat="44.86262284800953" lon="9.690180569829401"><ele>247.0</ele><time>2026-05-02T07:47:09.998Z</time></trkpt><trkpt lat="44.86258027434446" lon="9.690266747217615"><ele>247.0</ele><time>2026-05-02T07:47:10.998Z</time></trkpt><trkpt lat="44.86254278774999" lon="9.6903462391161"><ele>247.0</ele><time>2026-05-02T07:47:11.998Z</time></trkpt><trkpt lat="44.862502203351504" lon="9.690432542308447"><ele>247.0</ele><time>2026-05-02T07:47:12.998Z</time></trkpt><trkpt lat="44.862459779511475" lon="9.690519967525269"><ele>247.0</ele><time>2026-05-02T07:47:13.998Z</time></trkpt><trkpt lat="44.86242464267965" lon="9.690597938972607"><ele>247.0</ele><time>2026-05-02T07:47:14.998Z</time></trkpt><trkpt lat="44.862388224402466" lon="9.690681217417032"><ele>247.0</ele><time>2026-05-02T07:47:16.998Z</time></trkpt><trkpt lat="44.86230633885294" lon="9.690683894885499"><ele>247.0</ele><time>2026-05-02T07:47:19.998Z</time></trkpt><trkpt lat="44.86223051715918" lon="9.69055002319922"><ele>246.99999999999997</ele><time>2026-05-02T07:47:21.998Z</time></trkpt><trkpt lat="44.862184699401055" lon="9.690482373074621"><ele>247.0</ele><time>2026-05-02T07:47:23Z</time></trkpt><trkpt lat="44.86212478638828" lon="9.690389817201385"><ele>247.0</ele><time>2026-05-02T07:47:24Z</time></trkpt><trkpt lat="44.86207429136667" lon="9.690297648895886"><ele>247.0</ele><time>2026-05-02T07:47:25Z</time></trkpt><trkpt lat="44.86202804678253" lon="9.690203500478333"><ele>246.99999999999997</ele><time>2026-05-02T07:47:26Z</time></trkpt><trkpt lat="44.861974821929124" lon="9.690093623199006"><ele>247.0</ele><time>2026-05-02T07:47:27Z</time></trkpt><trkpt lat="44.86191944949002" lon="9.689980799660132"><ele>247.49999999999997</ele><time>2026-05-02T07:47:28Z</time></trkpt><trkpt lat="44.86185860238977" lon="9.689878290845117"><ele>248.0</ele><time>2026-05-02T07:47:29Z</time></trkpt><trkpt lat="44.86180037305394" lon="9.689801747303944"><ele>248.5</ele><time>2026-05-02T07:47:30Z</time></trkpt><trkpt lat="44.86174608872878" lon="9.689736291300054"><ele>249.0</ele><time>2026-05-02T07:47:31Z</time></trkpt><trkpt lat="44.86169690138953" lon="9.689670874276679"><ele>249.49999999999997</ele><time>2026-05-02T07:47:32Z</time></trkpt><trkpt lat="44.861655737332185" lon="9.689594771707135"><ele>250.0</ele><time>2026-05-02T07:47:33Z</time></trkpt><trkpt lat="44.86161953087078" lon="9.689508507545"><ele>249.66666666666666</ele><time>2026-05-02T07:47:34Z</time></trkpt><trkpt lat="44.86159489026104" lon="9.689409415556959"><ele>249.33333333333331</ele><time>2026-05-02T07:47:35Z</time></trkpt><trkpt lat="44.861573866961486" lon="9.689303127878407"><ele>249.0</ele><time>2026-05-02T07:47:36Z</time></trkpt><trkpt lat="44.8615392310812" lon="9.689211578668054"><ele>248.66666666666669</ele><time>2026-05-02T07:47:37Z</time></trkpt><trkpt lat="44.86150314869282" lon="9.689093231795708"><ele>248.33333333333334</ele><time>2026-05-02T07:47:38Z</time></trkpt><trkpt lat="44.86145978279308" lon="9.688979850835647"><ele>248.0</ele><time>2026-05-02T07:47:39Z</time></trkpt><trkpt lat="44.86141723455948" lon="9.688868543874593"><ele>248.00000000000003</ele><time>2026-05-02T07:47:40Z</time></trkpt><trkpt lat="44.86137178896626" lon="9.688759389331683"><ele>248.0</ele><time>2026-05-02T07:47:41Z</time></trkpt><trkpt lat="44.86132132514568" lon="9.688664498406721"><ele>248.0</ele><time>2026-05-02T07:47:42Z</time></trkpt><trkpt lat="44.861266211285205" lon="9.688564649171703"><ele>248.0</ele><time>2026-05-02T07:47:43Z</time></trkpt><trkpt lat="44.861208069804015" lon="9.68846985848553"><ele>248.00000000000003</ele><time>2026-05-02T07:47:44Z</time></trkpt><trkpt lat="44.8611429695135" lon="9.688375664231113"><ele>248.0</ele><time>2026-05-02T07:47:45Z</time></trkpt><trkpt lat="44.861069279220075" lon="9.68829826114167"><ele>248.00000000000003</ele><time>2026-05-02T07:47:46Z</time></trkpt><trkpt lat="44.86099860567302" lon="9.688239623442243"><ele>248.0</ele><time>2026-05-02T07:47:47Z</time></trkpt><trkpt lat="44.86091782681932" lon="9.688183575908587"><ele>248.0</ele><time>2026-05-02T07:47:48Z</time></trkpt><trkpt lat="44.86083769733766" lon="9.688111941480052"><ele>248.0</ele><time>2026-05-02T07:47:49Z</time></trkpt><trkpt lat="44.860772714423454" lon="9.68804722244253"><ele>248.00000000000003</ele><time>2026-05-02T07:47:50Z</time></trkpt><trkpt lat="44.86071567128036" lon="9.687987200396474"><ele>248.0</ele><time>2026-05-02T07:47:51Z</time></trkpt><trkpt lat="44.86065648248992" lon="9.687924447331158"><ele>247.83333333333334</ele><time>2026-05-02T07:47:52Z</time></trkpt><trkpt lat="44.86059307696685" lon="9.68785997292819"><ele>247.66666666666669</ele><time>2026-05-02T07:47:53Z</time></trkpt><trkpt lat="44.860529799001704" lon="9.687806527321515"><ele>247.5</ele><time>2026-05-02T07:47:54Z</time></trkpt><trkpt lat="44.86046502574051" lon="9.68777527670147"><ele>247.33333333333331</ele><time>2026-05-02T07:47:55Z</time></trkpt><trkpt lat="44.86034180698506" lon="9.687751108069794"><ele>247.16666666666666</ele><time>2026-05-02T07:47:57Z</time></trkpt><trkpt lat="44.86026432865056" lon="9.687741520884277"><ele>247.0</ele><time>2026-05-02T07:47:58Z</time></trkpt><trkpt lat="44.860196560888234" lon="9.687759537275701"><ele>246.99999999999997</ele><time>2026-05-02T07:47:59Z</time></trkpt><trkpt lat="44.86012483523688" lon="9.68778154169821"><ele>247.0</ele><time>2026-05-02T07:48:00Z</time></trkpt><trkpt lat="44.86005230491188" lon="9.687787842987541"><ele>247.0</ele><time>2026-05-02T07:48:01Z</time></trkpt><trkpt lat="44.859977063767644" lon="9.68779339111855"><ele>247.0</ele><time>2026-05-02T07:48:02Z</time></trkpt><trkpt lat="44.85990554240259" lon="9.687797940352434"><ele>246.99999999999997</ele><time>2026-05-02T07:48:03Z</time></trkpt><trkpt lat="44.859829857307766" lon="9.687802299503836"><ele>247.0</ele><time>2026-05-02T07:48:04Z</time></trkpt><trkpt lat="44.85974775558368" lon="9.68778403239522"><ele>247.33333333333331</ele><time>2026-05-02T07:48:04.999Z</time></trkpt><trkpt lat="44.859670819855204" lon="9.687749538949666"><ele>247.66666666666666</ele><time>2026-05-02T07:48:05.999Z</time></trkpt><trkpt lat="44.85959269329353" lon="9.687685147787779"><ele>248.0</ele><time>2026-05-02T07:48:06.999Z</time></trkpt><trkpt lat="44.85951992931252" lon="9.687614686948406"><ele>248.33333333333331</ele><time>2026-05-02T07:48:07.999Z</time></trkpt><trkpt lat="44.85944169441812" lon="9.687529272056569"><ele>248.66666666666666</ele><time>2026-05-02T07:48:08.999Z</time></trkpt><trkpt lat="44.85937469918457" lon="9.687444702703548"><ele>249.0</ele><time>2026-05-02T07:48:09.999Z</time></trkpt><trkpt lat="44.85930818803385" lon="9.68736214335499"><ele>249.6</ele><time>2026-05-02T07:48:10.999Z</time></trkpt><trkpt lat="44.859236588753234" lon="9.687268680145086"><ele>250.2</ele><time>2026-05-02T07:48:11.999Z</time></trkpt><trkpt lat="44.85916802265859" lon="9.68716324791246"><ele>250.79999999999998</ele><time>2026-05-02T07:48:12.999Z</time></trkpt><trkpt lat="44.85910300105015" lon="9.687052076090701"><ele>251.39999999999998</ele><time>2026-05-02T07:48:13.999Z</time></trkpt><trkpt lat="44.859038147908336" lon="9.68693261422387"><ele>252.0</ele><time>2026-05-02T07:48:14.999Z</time></trkpt><trkpt lat="44.85898415087626" lon="9.686811449157277"><ele>252.0</ele><time>2026-05-02T07:48:15.999Z</time></trkpt><trkpt lat="44.85891208222754" lon="9.686691098644792"><ele>252.0</ele><time>2026-05-02T07:48:16.999Z</time></trkpt><trkpt lat="44.85882559472769" lon="9.686579987067352"><ele>252.0</ele><time>2026-05-02T07:48:17.999Z</time></trkpt><trkpt lat="44.858743598591914" lon="9.68649005371116"><ele>252.0</ele><time>2026-05-02T07:48:18.999Z</time></trkpt><trkpt lat="44.858672500867016" lon="9.686434664610873"><ele>252.0</ele><time>2026-05-02T07:48:19.999Z</time></trkpt><trkpt lat="44.858610582758615" lon="9.686400373830157"><ele>252.0</ele><time>2026-05-02T07:48:20.999Z</time></trkpt><trkpt lat="44.85852372362449" lon="9.686312090354154"><ele>252.0</ele><time>2026-05-02T07:48:22.999Z</time></trkpt><trkpt lat="44.858512779488436" lon="9.686187096206432"><ele>252.0</ele><time>2026-05-02T07:48:24.999Z</time></trkpt><trkpt lat="44.85854134260599" lon="9.686104829121112"><ele>252.0</ele><time>2026-05-02T07:48:25.999Z</time></trkpt><trkpt lat="44.85857831209763" lon="9.686008595376586"><ele>252.0</ele><time>2026-05-02T07:48:26.999Z</time></trkpt><trkpt lat="44.858619634891824" lon="9.685896068380892"><ele>252.0</ele><time>2026-05-02T07:48:27.999Z</time></trkpt><trkpt lat="44.858660579901745" lon="9.685769746306843"><ele>252.5</ele><time>2026-05-02T07:48:28.999Z</time></trkpt><trkpt lat="44.8586902007292" lon="9.685658052873313"><ele>253.0</ele><time>2026-05-02T07:48:29.999Z</time></trkpt><trkpt lat="44.8587069045604" lon="9.685548402488424"><ele>253.5</ele><time>2026-05-02T07:48:30.999Z</time></trkpt><trkpt lat="44.85872834435102" lon="9.685438681230732"><ele>254.0</ele><time>2026-05-02T07:48:31.999Z</time></trkpt><trkpt lat="44.85876078275047" lon="9.685332077783185"><ele>254.5</ele><time>2026-05-02T07:48:32.999Z</time></trkpt><trkpt lat="44.858794094319535" lon="9.68521969481612"><ele>255.0</ele><time>2026-05-02T07:48:33.999Z</time></trkpt><trkpt lat="44.85881949503401" lon="9.685094169919921"><ele>256.5</ele><time>2026-05-02T07:48:34.999Z</time></trkpt><trkpt lat="44.85883835404913" lon="9.684978191935912"><ele>258.0</ele><time>2026-05-02T07:48:35.999Z</time></trkpt><trkpt lat="44.858856003970686" lon="9.684886164488825"><ele>259.5</ele><time>2026-05-02T07:48:36.999Z</time></trkpt><trkpt lat="44.85887401105529" lon="9.684754879006531"><ele>261.0</ele><time>2026-05-02T07:48:38.999Z</time></trkpt><trkpt lat="44.85881240156276" lon="9.684654228146997"><ele>262.5</ele><time>2026-05-02T07:48:40.999Z</time></trkpt><trkpt lat="44.858752092229736" lon="9.684624226648479"><ele>264.0</ele><time>2026-05-02T07:48:41.999Z</time></trkpt><trkpt lat="44.8586888745727" lon="9.684577304074546"><ele>264.0</ele><time>2026-05-02T07:48:42.999Z</time></trkpt><trkpt lat="44.85863189085775" lon="9.684508190086532"><ele>264.0</ele><time>2026-05-02T07:48:43.999Z</time></trkpt><trkpt lat="44.858582559252454" lon="9.684429503211174"><ele>264.0</ele><time>2026-05-02T07:48:44.999Z</time></trkpt><trkpt lat="44.85853697232925" lon="9.684336253685913"><ele>264.0</ele><time>2026-05-02T07:48:45.999Z</time></trkpt><trkpt lat="44.85848504039296" lon="9.684235918201177"><ele>264.0</ele><time>2026-05-02T07:48:46.999Z</time></trkpt><trkpt lat="44.85842898673839" lon="9.684129700217623"><ele>264.0</ele><time>2026-05-02T07:48:47.999Z</time></trkpt><trkpt lat="44.85837049697317" lon="9.684008545800722"><ele>264.8</ele><time>2026-05-02T07:48:48.999Z</time></trkpt><trkpt lat="44.858314032883435" lon="9.683876652434751"><ele>265.59999999999997</ele><time>2026-05-02T07:48:49.999Z</time></trkpt><trkpt lat="44.85825476949395" lon="9.683737572775017"><ele>266.4</ele><time>2026-05-02T07:48:50.999Z</time></trkpt><trkpt lat="44.858181500733245" lon="9.683613177191566"><ele>267.2</ele><time>2026-05-02T07:48:51.999Z</time></trkpt><trkpt lat="44.85812348963139" lon="9.68349232987173"><ele>268.0</ele><time>2026-05-02T07:48:52.999Z</time></trkpt><trkpt lat="44.85807288050021" lon="9.683358612522188"><ele>269.2</ele><time>2026-05-02T07:48:53.999Z</time></trkpt><trkpt lat="44.858043693619535" lon="9.683240534490023"><ele>270.4</ele><time>2026-05-02T07:48:54.999Z</time></trkpt><trkpt lat="44.85801620712218" lon="9.68308537239511"><ele>271.59999999999997</ele><time>2026-05-02T07:48:55.999Z</time></trkpt><trkpt lat="44.857997892289816" lon="9.682931007061116"><ele>272.8</ele><time>2026-05-02T07:48:56.999Z</time></trkpt><trkpt lat="44.85796707876847" lon="9.682797329148782"><ele>274.0</ele><time>2026-05-02T07:48:57.999Z</time></trkpt><trkpt lat="44.857909801602" lon="9.68269063472135"><ele>276.0</ele><time>2026-05-02T07:48:58.999Z</time></trkpt><trkpt lat="44.85782981908254" lon="9.682594080831159"><ele>278.0</ele><time>2026-05-02T07:48:59.999Z</time></trkpt><trkpt lat="44.857737558248516" lon="9.682490129498644"><ele>280.0</ele><time>2026-05-02T07:49:00.999Z</time></trkpt><trkpt lat="44.85763343070946" lon="9.682396309788764"><ele>282.0</ele><time>2026-05-02T07:49:01.999Z</time></trkpt><trkpt lat="44.857534937188305" lon="9.682312810839255"><ele>283.1666666666667</ele><time>2026-05-02T07:49:02.999Z</time></trkpt><trkpt lat="44.85748009513424" lon="9.682244197334272"><ele>284.3333333333333</ele><time>2026-05-02T07:49:03.998Z</time></trkpt><trkpt lat="44.85746089174447" lon="9.682146594356535"><ele>285.5</ele><time>2026-05-02T07:49:04.998Z</time></trkpt><trkpt lat="44.8574596928577" lon="9.682007520770414"><ele>286.66666666666663</ele><time>2026-05-02T07:49:05.998Z</time></trkpt><trkpt lat="44.857441408996166" lon="9.681886000342299"><ele>287.8333333333333</ele><time>2026-05-02T07:49:06.998Z</time></trkpt><trkpt lat="44.85740202292673" lon="9.681791894422288"><ele>289.0</ele><time>2026-05-02T07:49:07.998Z</time></trkpt><trkpt lat="44.85733026727249" lon="9.681738313580283"><ele>291.0</ele><time>2026-05-02T07:49:08.998Z</time></trkpt><trkpt lat="44.857257166452136" lon="9.681727108236494"><ele>293.0</ele><time>2026-05-02T07:49:09.998Z</time></trkpt><trkpt lat="44.857194971036954" lon="9.681703685210577"><ele>295.0</ele><time>2026-05-02T07:49:10.998Z</time></trkpt><trkpt lat="44.85716082625132" lon="9.681608473151186"><ele>297.0</ele><time>2026-05-02T07:49:11.998Z</time></trkpt><trkpt lat="44.85713599357462" lon="9.681497372832785"><ele>299.0</ele><time>2026-05-02T07:49:12.998Z</time></trkpt><trkpt lat="44.85712218476697" lon="9.681365874901129"><ele>301.0</ele><time>2026-05-02T07:49:13.998Z</time></trkpt><trkpt lat="44.857115243708435" lon="9.68121556084307"><ele>304.5</ele><time>2026-05-02T07:49:14.998Z</time></trkpt><trkpt lat="44.85708767660688" lon="9.681047458308008"><ele>308.0</ele><time>2026-05-02T07:49:15.998Z</time></trkpt><trkpt lat="44.85704965646005" lon="9.680870367581212"><ele>311.5</ele><time>2026-05-02T07:49:16.998Z</time></trkpt><trkpt lat="44.85700942321181" lon="9.680688538342924"><ele>315.0</ele><time>2026-05-02T07:49:17.998Z</time></trkpt><trkpt lat="44.85696320276174" lon="9.680511639060837"><ele>315.0</ele><time>2026-05-02T07:49:18.998Z</time></trkpt><trkpt lat="44.85693579011272" lon="9.680331585981182"><ele>315.0</ele><time>2026-05-02T07:49:19.998Z</time></trkpt><trkpt lat="44.856911861273105" lon="9.680160741505768"><ele>315.0</ele><time>2026-05-02T07:49:20.998Z</time></trkpt><trkpt lat="44.856891220142" lon="9.679995881960497"><ele>315.0</ele><time>2026-05-02T07:49:21.998Z</time></trkpt><trkpt lat="44.856877196418694" lon="9.679830532326932"><ele>316.0</ele><time>2026-05-02T07:49:22.998Z</time></trkpt><trkpt lat="44.85686223295188" lon="9.679665020516028"><ele>317.0</ele><time>2026-05-02T07:49:23.998Z</time></trkpt><trkpt lat="44.85684614062864" lon="9.679503963054227"><ele>318.0</ele><time>2026-05-02T07:49:24.998Z</time></trkpt><trkpt lat="44.85684374437856" lon="9.679352724475496"><ele>319.0</ele><time>2026-05-02T07:49:25.998Z</time></trkpt><trkpt lat="44.85686173299488" lon="9.679221525349165"><ele>320.0</ele><time>2026-05-02T07:49:26.998Z</time></trkpt><trkpt lat="44.85689034237991" lon="9.679120377561963"><ele>320.0</ele><time>2026-05-02T07:49:27.998Z</time></trkpt><trkpt lat="44.856934782907636" lon="9.678987054242954"><ele>320.0</ele><time>2026-05-02T07:49:30Z</time></trkpt><trkpt lat="44.85691325568582" lon="9.678870655784813"><ele>320.0</ele><time>2026-05-02T07:49:32Z</time></trkpt><trkpt lat="44.856883977335904" lon="9.678790891457249"><ele>320.0</ele><time>2026-05-02T07:49:33Z</time></trkpt><trkpt lat="44.85685129139036" lon="9.678701441535477"><ele>320.0</ele><time>2026-05-02T07:49:34Z</time></trkpt><trkpt lat="44.85680348619024" lon="9.67859100080334"><ele>320.0</ele><time>2026-05-02T07:49:35Z</time></trkpt><trkpt lat="44.85677452053775" lon="9.678481012419905"><ele>320.33333333333337</ele><time>2026-05-02T07:49:36Z</time></trkpt><trkpt lat="44.856760586031605" lon="9.678377948968542"><ele>320.6666666666667</ele><time>2026-05-02T07:49:37Z</time></trkpt><trkpt lat="44.85671794164983" lon="9.678208753878726"><ele>321.0</ele><time>2026-05-02T07:49:39Z</time></trkpt><trkpt lat="44.85668776223869" lon="9.67810864101479"><ele>321.3333333333333</ele><time>2026-05-02T07:49:40Z</time></trkpt><trkpt lat="44.85665047643759" lon="9.67800948932222"><ele>321.66666666666663</ele><time>2026-05-02T07:49:41Z</time></trkpt><trkpt lat="44.856622488927016" lon="9.677895949683062"><ele>322.0</ele><time>2026-05-02T07:49:42Z</time></trkpt><trkpt lat="44.85660844323531" lon="9.677770919653039"><ele>321.20000000000005</ele><time>2026-05-02T07:49:43Z</time></trkpt><trkpt lat="44.856598640018184" lon="9.677648940993842"><ele>320.40000000000003</ele><time>2026-05-02T07:49:44Z</time></trkpt><trkpt lat="44.85658371836143" lon="9.677526212407182"><ele>319.6</ele><time>2026-05-02T07:49:45Z</time></trkpt><trkpt lat="44.856560031947055" lon="9.677401831549206"><ele>318.8</ele><time>2026-05-02T07:49:46Z</time></trkpt><trkpt lat="44.85652432506326" lon="9.677271711614319"><ele>318.0</ele><time>2026-05-02T07:49:47Z</time></trkpt><trkpt lat="44.85647412628405" lon="9.677141546978868"><ele>318.0</ele><time>2026-05-02T07:49:48Z</time></trkpt><trkpt lat="44.85641368127429" lon="9.677001485509036"><ele>318.0</ele><time>2026-05-02T07:49:49Z</time></trkpt><trkpt lat="44.85633749240521" lon="9.67685598129747"><ele>318.0</ele><time>2026-05-02T07:49:50Z</time></trkpt><trkpt lat="44.85625666087658" lon="9.676721447078576"><ele>318.0</ele><time>2026-05-02T07:49:51Z</time></trkpt><trkpt lat="44.856164012099896" lon="9.676599089393632"><ele>319.0</ele><time>2026-05-02T07:49:52Z</time></trkpt><trkpt lat="44.85605488643345" lon="9.676498290911665"><ele>320.0</ele><time>2026-05-02T07:49:53Z</time></trkpt><trkpt lat="44.85595377446859" lon="9.676381000191872"><ele>321.0</ele><time>2026-05-02T07:49:54Z</time></trkpt><trkpt lat="44.85583834621649" lon="9.676259179962607"><ele>322.0</ele><time>2026-05-02T07:49:55Z</time></trkpt><trkpt lat="44.855722508148794" lon="9.676134170109508"><ele>321.0</ele><time>2026-05-02T07:49:56Z</time></trkpt><trkpt lat="44.85560390736344" lon="9.676003029054025"><ele>320.0</ele><time>2026-05-02T07:49:57Z</time></trkpt><trkpt lat="44.85549532752851" lon="9.675872098631418"><ele>319.0</ele><time>2026-05-02T07:49:58Z</time></trkpt><trkpt lat="44.855393068324254" lon="9.675736629817811"><ele>318.0</ele><time>2026-05-02T07:49:59Z</time></trkpt><trkpt lat="44.855291722528264" lon="9.675619312206104"><ele>318.0</ele><time>2026-05-02T07:50:00Z</time></trkpt><trkpt lat="44.85519148655088" lon="9.675513847120522"><ele>318.0</ele><time>2026-05-02T07:50:01Z</time></trkpt><trkpt lat="44.85509410879044" lon="9.675420452388147"><ele>318.0</ele><time>2026-05-02T07:50:02Z</time></trkpt><trkpt lat="44.85500280322824" lon="9.67531968155015"><ele>318.0</ele><time>2026-05-02T07:50:03Z</time></trkpt><trkpt lat="44.85492326925351" lon="9.675207245076766"><ele>320.5</ele><time>2026-05-02T07:50:04Z</time></trkpt><trkpt lat="44.85484887393323" lon="9.67508715498426"><ele>323.0</ele><time>2026-05-02T07:50:05Z</time></trkpt><trkpt lat="44.85477279994202" lon="9.674962987038755"><ele>325.5</ele><time>2026-05-02T07:50:06Z</time></trkpt><trkpt lat="44.854689028608306" lon="9.674839609357301"><ele>328.0</ele><time>2026-05-02T07:50:07Z</time></trkpt><trkpt lat="44.85460202253621" lon="9.674706435172828"><ele>328.0</ele><time>2026-05-02T07:50:08Z</time></trkpt><trkpt lat="44.854512451448926" lon="9.674562156740558"><ele>328.0</ele><time>2026-05-02T07:50:09Z</time></trkpt><trkpt lat="44.85442133252612" lon="9.674422115100535"><ele>328.0</ele><time>2026-05-02T07:50:10Z</time></trkpt><trkpt lat="44.85433258720878" lon="9.67426176279743"><ele>328.0</ele><time>2026-05-02T07:50:10.999Z</time></trkpt><trkpt lat="44.854249810942626" lon="9.674088233498104"><ele>329.25</ele><time>2026-05-02T07:50:11.999Z</time></trkpt><trkpt lat="44.854175031945715" lon="9.673904491159565"><ele>330.5</ele><time>2026-05-02T07:50:12.999Z</time></trkpt><trkpt lat="44.854114057913435" lon="9.673721554608758"><ele>331.75</ele><time>2026-05-02T07:50:13.999Z</time></trkpt><trkpt lat="44.854060950648964" lon="9.673557780005492"><ele>333.0</ele><time>2026-05-02T07:50:14.999Z</time></trkpt><trkpt lat="44.85401166526651" lon="9.673419957291513"><ele>333.5</ele><time>2026-05-02T07:50:15.999Z</time></trkpt><trkpt lat="44.85396487000811" lon="9.673302970260059"><ele>334.0</ele><time>2026-05-02T07:50:16.999Z</time></trkpt><trkpt lat="44.85392982606672" lon="9.673206307876683"><ele>334.5</ele><time>2026-05-02T07:50:17.999Z</time></trkpt><trkpt lat="44.853899872094836" lon="9.673127701355314"><ele>335.0</ele><time>2026-05-02T07:50:18.999Z</time></trkpt><trkpt lat="44.85385181423401" lon="9.673049254778677"><ele>335.5</ele><time>2026-05-02T07:50:20.999Z</time></trkpt><trkpt lat="44.85377900748844" lon="9.673112244904333"><ele>336.0</ele><time>2026-05-02T07:50:39.999Z</time></trkpt><trkpt lat="44.853683804868275" lon="9.673150206958097"><ele>336.0</ele><time>2026-05-02T07:50:41.999Z</time></trkpt><trkpt lat="44.85361102338963" lon="9.673167199633147"><ele>336.0</ele><time>2026-05-02T07:50:42.999Z</time></trkpt><trkpt lat="44.85351521906268" lon="9.673203594081706"><ele>336.0</ele><time>2026-05-02T07:50:43.999Z</time></trkpt><trkpt lat="44.8534020257516" lon="9.67325360466736"><ele>336.0</ele><time>2026-05-02T07:50:44.999Z</time></trkpt><trkpt lat="44.8532936613112" lon="9.67334168605618"><ele>336.0</ele><time>2026-05-02T07:50:45.999Z</time></trkpt><trkpt lat="44.85320262762098" lon="9.673453064868239"><ele>336.6</ele><time>2026-05-02T07:50:46.999Z</time></trkpt><trkpt lat="44.853107309011016" lon="9.673532925834943"><ele>337.20000000000005</ele><time>2026-05-02T07:50:47.999Z</time></trkpt><trkpt lat="44.85300577240208" lon="9.67358210293328"><ele>337.79999999999995</ele><time>2026-05-02T07:50:48.999Z</time></trkpt><trkpt lat="44.8529263011563" lon="9.673647552707592"><ele>338.4</ele><time>2026-05-02T07:50:49.999Z</time></trkpt><trkpt lat="44.85287283132121" lon="9.673745649061996"><ele>339.0</ele><time>2026-05-02T07:50:50.999Z</time></trkpt><trkpt lat="44.8528595063365" lon="9.673843105716953"><ele>338.0</ele><time>2026-05-02T07:50:51.999Z</time></trkpt><trkpt lat="44.85285408283632" lon="9.673970382155277"><ele>337.0</ele><time>2026-05-02T07:50:53.999Z</time></trkpt><trkpt lat="44.85280042162233" lon="9.674078884097971"><ele>336.0</ele><time>2026-05-02T07:50:57.999Z</time></trkpt><trkpt lat="44.852730383351464" lon="9.674184972784296"><ele>335.0</ele><time>2026-05-02T07:50:59.999Z</time></trkpt><trkpt lat="44.85265292338261" lon="9.67426320651754"><ele>334.0</ele><time>2026-05-02T07:51:01.999Z</time></trkpt><trkpt lat="44.85257309160118" lon="9.674274019448896"><ele>334.0</ele><time>2026-05-02T07:51:03.999Z</time></trkpt><trkpt lat="44.85247803978124" lon="9.674256859144975"><ele>334.0</ele><time>2026-05-02T07:51:05.999Z</time></trkpt><trkpt lat="44.852386520861515" lon="9.674207998585372"><ele>334.0</ele><time>2026-05-02T07:51:07.999Z</time></trkpt><trkpt lat="44.8522965915655" lon="9.674142635266392"><ele>334.0</ele><time>2026-05-02T07:51:09.999Z</time></trkpt><trkpt lat="44.85220796896774" lon="9.674036606953297"><ele>334.0</ele><time>2026-05-02T07:51:11.999Z</time></trkpt><trkpt lat="44.852151202737794" lon="9.673980908245017"><ele>334.0</ele><time>2026-05-02T07:51:12.998Z</time></trkpt><trkpt lat="44.85205906552405" lon="9.673883009676066"><ele>334.0</ele><time>2026-05-02T07:51:14.998Z</time></trkpt><trkpt lat="44.851980609784796" lon="9.673804795110316"><ele>334.0</ele><time>2026-05-02T07:51:16.998Z</time></trkpt><trkpt lat="44.85189172097188" lon="9.673713143352424"><ele>334.0</ele><time>2026-05-02T07:51:18.998Z</time></trkpt><trkpt lat="44.851812486250765" lon="9.673622299912081"><ele>334.0</ele><time>2026-05-02T07:51:20.998Z</time></trkpt><trkpt lat="44.85172891654344" lon="9.673521372782059"><ele>334.6</ele><time>2026-05-02T07:51:22.998Z</time></trkpt><trkpt lat="44.85164592953459" lon="9.673432091252824"><ele>335.2</ele><time>2026-05-02T07:51:24.998Z</time></trkpt><trkpt lat="44.85155895149204" lon="9.673353812465264"><ele>335.8</ele><time>2026-05-02T07:51:26.998Z</time></trkpt><trkpt lat="44.85147178127399" lon="9.673274325844742"><ele>336.40000000000003</ele><time>2026-05-02T07:51:28.998Z</time></trkpt><trkpt lat="44.85137814958556" lon="9.673192325949282"><ele>337.0</ele><time>2026-05-02T07:51:30.998Z</time></trkpt><trkpt lat="44.85128066549551" lon="9.673154008683648"><ele>337.0</ele><time>2026-05-02T07:51:32.998Z</time></trkpt><trkpt lat="44.851187912516075" lon="9.673149999204417"><ele>337.0</ele><time>2026-05-02T07:51:35Z</time></trkpt><trkpt lat="44.85109766797916" lon="9.673208473846442"><ele>337.0</ele><time>2026-05-02T07:51:37Z</time></trkpt><trkpt lat="44.85100954098439" lon="9.673287083320457"><ele>337.0</ele><time>2026-05-02T07:51:39Z</time></trkpt><trkpt lat="44.85092020205443" lon="9.673348020199672"><ele>337.0</ele><time>2026-05-02T07:51:41Z</time></trkpt><trkpt lat="44.850828186399326" lon="9.673383281351866"><ele>337.40000000000003</ele><time>2026-05-02T07:51:43Z</time></trkpt><trkpt lat="44.850718218812396" lon="9.6733845850657"><ele>337.8</ele><time>2026-05-02T07:51:45Z</time></trkpt><trkpt lat="44.850612003943816" lon="9.673355147523415"><ele>338.2</ele><time>2026-05-02T07:51:47Z</time></trkpt><trkpt lat="44.85050653314687" lon="9.673302361879623"><ele>338.6</ele><time>2026-05-02T07:51:49Z</time></trkpt><trkpt lat="44.85039748832065" lon="9.67324221438985"><ele>339.0</ele><time>2026-05-02T07:51:51Z</time></trkpt><trkpt lat="44.850329663062745" lon="9.673196831125939"><ele>339.0</ele><time>2026-05-02T07:51:52Z</time></trkpt><trkpt lat="44.850269116608544" lon="9.673126118333897"><ele>339.0</ele><time>2026-05-02T07:51:53Z</time></trkpt><trkpt lat="44.85020575522111" lon="9.67304275293184"><ele>339.0</ele><time>2026-05-02T07:51:54Z</time></trkpt><trkpt lat="44.85014472973385" lon="9.672948202287847"><ele>339.0</ele><time>2026-05-02T07:51:55Z</time></trkpt><trkpt lat="44.85008918836941" lon="9.672851897897997"><ele>339.0</ele><time>2026-05-02T07:51:56Z</time></trkpt><trkpt lat="44.850034820340646" lon="9.672760858936158"><ele>339.0</ele><time>2026-05-02T07:51:57Z</time></trkpt><trkpt lat="44.849979469929565" lon="9.672685269866168"><ele>340.79999999999995</ele><time>2026-05-02T07:51:58Z</time></trkpt><trkpt lat="44.84991513697913" lon="9.672617329001048"><ele>342.59999999999997</ele><time>2026-05-02T07:51:59Z</time></trkpt><trkpt lat="44.849839571312486" lon="9.672548997453905"><ele>344.4</ele><time>2026-05-02T07:52:00Z</time></trkpt><trkpt lat="44.84975190036062" lon="9.672474358190842"><ele>346.2</ele><time>2026-05-02T07:52:01Z</time></trkpt><trkpt lat="44.84967110749173" lon="9.672409104805498"><ele>348.0</ele><time>2026-05-02T07:52:02Z</time></trkpt><trkpt lat="44.849596537785565" lon="9.672344391463508"><ele>348.0</ele><time>2026-05-02T07:52:03Z</time></trkpt><trkpt lat="44.8495262562632" lon="9.672302083454218"><ele>348.0</ele><time>2026-05-02T07:52:04Z</time></trkpt><trkpt lat="44.84945552372571" lon="9.672270154013784"><ele>348.0</ele><time>2026-05-02T07:52:05Z</time></trkpt><trkpt lat="44.84938389180659" lon="9.67225544721663"><ele>348.0</ele><time>2026-05-02T07:52:06Z</time></trkpt><trkpt lat="44.8492543251703" lon="9.672241982168085"><ele>348.0</ele><time>2026-05-02T07:52:08Z</time></trkpt><trkpt lat="44.84917289282419" lon="9.672239757782107"><ele>348.0</ele><time>2026-05-02T07:52:09Z</time></trkpt><trkpt lat="44.84910163680638" lon="9.672260020377726"><ele>347.3333333333333</ele><time>2026-05-02T07:52:10Z</time></trkpt><trkpt lat="44.84904101502623" lon="9.672292300833687"><ele>346.6666666666667</ele><time>2026-05-02T07:52:11Z</time></trkpt><trkpt lat="44.84897679421944" lon="9.672326773688575"><ele>346.0</ele><time>2026-05-02T07:52:12Z</time></trkpt><trkpt lat="44.84891128132005" lon="9.672356961044521"><ele>345.33333333333337</ele><time>2026-05-02T07:52:13Z</time></trkpt><trkpt lat="44.84884588269683" lon="9.672378505340255"><ele>344.6666666666667</ele><time>2026-05-02T07:52:13.999Z</time></trkpt><trkpt lat="44.84878031618301" lon="9.67238522244338"><ele>344.0</ele><time>2026-05-02T07:52:14.999Z</time></trkpt><trkpt lat="44.84865688714894" lon="9.672341387688455"><ele>344.0</ele><time>2026-05-02T07:52:16.999Z</time></trkpt><trkpt lat="44.84859871654776" lon="9.672304094442492"><ele>344.0</ele><time>2026-05-02T07:52:17.999Z</time></trkpt><trkpt lat="44.8484860234577" lon="9.672239235029455"><ele>344.0</ele><time>2026-05-02T07:52:19.999Z</time></trkpt><trkpt lat="44.848376500017096" lon="9.672188732505234"><ele>344.0</ele><time>2026-05-02T07:52:21.999Z</time></trkpt><trkpt lat="44.848280907173404" lon="9.672164600621066"><ele>344.0</ele><time>2026-05-02T07:52:23.999Z</time></trkpt><trkpt lat="44.848178215870206" lon="9.672190866992429"><ele>343.2</ele><time>2026-05-02T07:52:25.999Z</time></trkpt><trkpt lat="44.84807854333547" lon="9.672303753396912"><ele>342.4</ele><time>2026-05-02T07:52:27.999Z</time></trkpt><trkpt lat="44.84803181522796" lon="9.67237749508901"><ele>341.6</ele><time>2026-05-02T07:52:28.999Z</time></trkpt><trkpt lat="44.84793278991623" lon="9.672467095354968"><ele>340.8</ele><time>2026-05-02T07:52:30.999Z</time></trkpt><trkpt lat="44.84787649919111" lon="9.672515886812533"><ele>340.0</ele><time>2026-05-02T07:52:31.999Z</time></trkpt><trkpt lat="44.84781030694197" lon="9.672576844765056"><ele>340.0</ele><time>2026-05-02T07:52:32.999Z</time></trkpt><trkpt lat="44.847745829818784" lon="9.672636630957063"><ele>340.0</ele><time>2026-05-02T07:52:33.999Z</time></trkpt><trkpt lat="44.84768851261838" lon="9.672688326087306"><ele>340.0</ele><time>2026-05-02T07:52:34.999Z</time></trkpt><trkpt lat="44.8476237570511" lon="9.672730605484784"><ele>340.0</ele><time>2026-05-02T07:52:35.999Z</time></trkpt><trkpt lat="44.84756168417457" lon="9.672774658144354"><ele>340.0</ele><time>2026-05-02T07:52:36.999Z</time></trkpt><trkpt lat="44.84749594886163" lon="9.672803799387319"><ele>340.0</ele><time>2026-05-02T07:52:37.999Z</time></trkpt><trkpt lat="44.847429749124764" lon="9.672818804545832"><ele>340.0</ele><time>2026-05-02T07:52:38.999Z</time></trkpt><trkpt lat="44.84736283937356" lon="9.672812041166301"><ele>339.8333333333333</ele><time>2026-05-02T07:52:39.999Z</time></trkpt><trkpt lat="44.84729295685049" lon="9.672779723816417"><ele>339.66666666666663</ele><time>2026-05-02T07:52:40.999Z</time></trkpt><trkpt lat="44.84722482910048" lon="9.672723343644183"><ele>339.5</ele><time>2026-05-02T07:52:41.999Z</time></trkpt><trkpt lat="44.84714876203248" lon="9.67265395533283"><ele>339.3333333333333</ele><time>2026-05-02T07:52:42.999Z</time></trkpt><trkpt lat="44.84706924918538" lon="9.67258641708616"><ele>339.1666666666667</ele><time>2026-05-02T07:52:43.999Z</time></trkpt><trkpt lat="44.84698883645673" lon="9.672521660783984"><ele>339.0</ele><time>2026-05-02T07:52:44.999Z</time></trkpt><trkpt lat="44.84690560010629" lon="9.672461493131033"><ele>339.0</ele><time>2026-05-02T07:52:45.999Z</time></trkpt><trkpt lat="44.846816870654926" lon="9.672424248098983"><ele>339.0</ele><time>2026-05-02T07:52:46.999Z</time></trkpt><trkpt lat="44.84674013012709" lon="9.67239833501067"><ele>339.0</ele><time>2026-05-02T07:52:47.999Z</time></trkpt><trkpt lat="44.84665615975538" lon="9.672415967916729"><ele>339.0</ele><time>2026-05-02T07:52:48.999Z</time></trkpt><trkpt lat="44.846584166208906" lon="9.67246637207323"><ele>339.0</ele><time>2026-05-02T07:52:49.999Z</time></trkpt><trkpt lat="44.846519752561534" lon="9.672542993394238"><ele>339.0</ele><time>2026-05-02T07:52:50.999Z</time></trkpt><trkpt lat="44.84645221831596" lon="9.672639869141065"><ele>337.8333333333333</ele><time>2026-05-02T07:52:51.999Z</time></trkpt><trkpt lat="44.846388329934875" lon="9.67271777455955"><ele>336.6666666666667</ele><time>2026-05-02T07:52:52.999Z</time></trkpt><trkpt lat="44.84632598302903" lon="9.672782767859664"><ele>335.5</ele><time>2026-05-02T07:52:53.999Z</time></trkpt><trkpt lat="44.846244782733386" lon="9.672828741302922"><ele>334.33333333333337</ele><time>2026-05-02T07:52:54.999Z</time></trkpt><trkpt lat="44.846166762800834" lon="9.67286480641797"><ele>333.1666666666667</ele><time>2026-05-02T07:52:55.999Z</time></trkpt><trkpt lat="44.84609067034514" lon="9.672902877916266"><ele>332.0</ele><time>2026-05-02T07:52:56.999Z</time></trkpt><trkpt lat="44.846009670871254" lon="9.672925554220257"><ele>331.33333333333337</ele><time>2026-05-02T07:52:57.999Z</time></trkpt><trkpt lat="44.84592935487864" lon="9.672934630998594"><ele>330.6666666666667</ele><time>2026-05-02T07:52:58.999Z</time></trkpt><trkpt lat="44.84585052165309" lon="9.672915251673837"><ele>330.0</ele><time>2026-05-02T07:52:59.999Z</time></trkpt><trkpt lat="44.84578147521718" lon="9.672869593913147"><ele>329.3333333333333</ele><time>2026-05-02T07:53:00.999Z</time></trkpt><trkpt lat="44.84571691303333" lon="9.672786837047708"><ele>328.66666666666663</ele><time>2026-05-02T07:53:01.999Z</time></trkpt><trkpt lat="44.845664337885786" lon="9.67268740874134"><ele>328.0</ele><time>2026-05-02T07:53:02.999Z</time></trkpt><trkpt lat="44.845611166776855" lon="9.672595052151411"><ele>328.0</ele><time>2026-05-02T07:53:03.999Z</time></trkpt><trkpt lat="44.84554627476791" lon="9.67253206188884"><ele>328.0</ele><time>2026-05-02T07:53:04.999Z</time></trkpt><trkpt lat="44.84548186426636" lon="9.672492958042252"><ele>328.0</ele><time>2026-05-02T07:53:05.999Z</time></trkpt><trkpt lat="44.84540405681551" lon="9.672495479381254"><ele>328.0</ele><time>2026-05-02T07:53:06.999Z</time></trkpt><trkpt lat="44.845326405878176" lon="9.672536175515118"><ele>328.0</ele><time>2026-05-02T07:53:07.999Z</time></trkpt><trkpt lat="44.84525629932557" lon="9.672597732818486"><ele>328.0</ele><time>2026-05-02T07:53:08.999Z</time></trkpt><trkpt lat="44.84521376232047" lon="9.67267329248914"><ele>328.0</ele><time>2026-05-02T07:53:09.999Z</time></trkpt><trkpt lat="44.845186177966674" lon="9.67276930898922"><ele>328.0</ele><time>2026-05-02T07:53:10.999Z</time></trkpt><trkpt lat="44.8451679838202" lon="9.67293679079394"><ele>328.0</ele><time>2026-05-02T07:53:12.999Z</time></trkpt><trkpt lat="44.84512035210724" lon="9.672999324874118"><ele>328.0</ele><time>2026-05-02T07:53:13.999Z</time></trkpt><trkpt lat="44.84505024450816" lon="9.673058087039925"><ele>328.0</ele><time>2026-05-02T07:53:14.999Z</time></trkpt><trkpt lat="44.84497821038925" lon="9.673109776201015"><ele>328.0</ele><time>2026-05-02T07:53:15.998Z</time></trkpt><trkpt lat="44.8449083326973" lon="9.67317476558756"><ele>325.79999999999995</ele><time>2026-05-02T07:53:16.998Z</time></trkpt><trkpt lat="44.84482503719587" lon="9.673241131519006"><ele>323.59999999999997</ele><time>2026-05-02T07:53:17.998Z</time></trkpt><trkpt lat="44.844739911210496" lon="9.673289693063673"><ele>321.4</ele><time>2026-05-02T07:53:18.998Z</time></trkpt><trkpt lat="44.844647977201944" lon="9.673315303990142"><ele>319.2</ele><time>2026-05-02T07:53:19.998Z</time></trkpt><trkpt lat="44.844546035621704" lon="9.673321747663886"><ele>317.0</ele><time>2026-05-02T07:53:20.998Z</time></trkpt><trkpt lat="44.84445147030359" lon="9.673329425421333"><ele>317.0</ele><time>2026-05-02T07:53:21.998Z</time></trkpt><trkpt lat="44.84436050915813" lon="9.673349503292679"><ele>317.0</ele><time>2026-05-02T07:53:22.998Z</time></trkpt><trkpt lat="44.84426447188467" lon="9.67339383889986"><ele>317.0</ele><time>2026-05-02T07:53:23.998Z</time></trkpt><trkpt lat="44.84416243383701" lon="9.673427128732964"><ele>317.0</ele><time>2026-05-02T07:53:24.998Z</time></trkpt><trkpt lat="44.84407456908013" lon="9.673459362749405"><ele>317.0</ele><time>2026-05-02T07:53:25.998Z</time></trkpt><trkpt lat="44.84399531546268" lon="9.673511762768385"><ele>315.8</ele><time>2026-05-02T07:53:26.998Z</time></trkpt><trkpt lat="44.84391200071719" lon="9.673568030171396"><ele>314.6</ele><time>2026-05-02T07:53:27.998Z</time></trkpt><trkpt lat="44.84381690172784" lon="9.673619671076349"><ele>313.40000000000003</ele><time>2026-05-02T07:53:28.998Z</time></trkpt><trkpt lat="44.84372711462096" lon="9.673650080720833"><ele>312.2</ele><time>2026-05-02T07:53:29.998Z</time></trkpt><trkpt lat="44.843652152858795" lon="9.673690683414593"><ele>311.0</ele><time>2026-05-02T07:53:30.998Z</time></trkpt><trkpt lat="44.843584900353434" lon="9.6737593596259"><ele>311.0</ele><time>2026-05-02T07:53:31.998Z</time></trkpt><trkpt lat="44.843521666326495" lon="9.67381143070651"><ele>311.0</ele><time>2026-05-02T07:53:32.998Z</time></trkpt><trkpt lat="44.84345273568222" lon="9.673817192804357"><ele>311.0</ele><time>2026-05-02T07:53:33.998Z</time></trkpt><trkpt lat="44.84338423955116" lon="9.673814258327681"><ele>311.0</ele><time>2026-05-02T07:53:34.998Z</time></trkpt><trkpt lat="44.84329648636553" lon="9.673822162659794"><ele>311.0</ele><time>2026-05-02T07:53:35.998Z</time></trkpt><trkpt lat="44.843193877430615" lon="9.673839284020639"><ele>311.0</ele><time>2026-05-02T07:53:36.998Z</time></trkpt><trkpt lat="44.843081715626795" lon="9.673894628164891"><ele>311.40000000000003</ele><time>2026-05-02T07:53:37.998Z</time></trkpt><trkpt lat="44.84297955702881" lon="9.673965385040448"><ele>311.8</ele><time>2026-05-02T07:53:38.998Z</time></trkpt><trkpt lat="44.84287763639521" lon="9.674036935926043"><ele>312.20000000000005</ele><time>2026-05-02T07:53:39.998Z</time></trkpt><trkpt lat="44.842788162964936" lon="9.674121732261588"><ele>312.6</ele><time>2026-05-02T07:53:41Z</time></trkpt><trkpt lat="44.842712265711334" lon="9.674212292532525"><ele>313.0</ele><time>2026-05-02T07:53:42Z</time></trkpt><trkpt lat="44.842645866256355" lon="9.674286812278726"><ele>314.6</ele><time>2026-05-02T07:53:43Z</time></trkpt><trkpt lat="44.842567176869295" lon="9.674335206478768"><ele>316.20000000000005</ele><time>2026-05-02T07:53:44Z</time></trkpt><trkpt lat="44.84247503504152" lon="9.674364272759357"><ele>317.8</ele><time>2026-05-02T07:53:45Z</time></trkpt><trkpt lat="44.842377405632696" lon="9.674395881609621"><ele>319.40000000000003</ele><time>2026-05-02T07:53:46Z</time></trkpt><trkpt lat="44.84227118621668" lon="9.674433975451658"><ele>321.0</ele><time>2026-05-02T07:53:47Z</time></trkpt><trkpt lat="44.84216276986792" lon="9.674463277381841"><ele>321.0</ele><time>2026-05-02T07:53:48Z</time></trkpt><trkpt lat="44.842038164002815" lon="9.674476402507734"><ele>321.0</ele><time>2026-05-02T07:53:49Z</time></trkpt><trkpt lat="44.8419182256464" lon="9.674511515274196"><ele>321.0</ele><time>2026-05-02T07:53:50Z</time></trkpt><trkpt lat="44.841805836225" lon="9.674536381057145"><ele>321.0</ele><time>2026-05-02T07:53:51Z</time></trkpt><trkpt lat="44.841700609421956" lon="9.674590940629821"><ele>321.4</ele><time>2026-05-02T07:53:52Z</time></trkpt><trkpt lat="44.84160567984608" lon="9.67465715528151"><ele>321.8</ele><time>2026-05-02T07:53:53Z</time></trkpt><trkpt lat="44.84151355822545" lon="9.674725802417507"><ele>322.2</ele><time>2026-05-02T07:53:54Z</time></trkpt><trkpt lat="44.84142637504302" lon="9.674781972292903"><ele>322.59999999999997</ele><time>2026-05-02T07:53:55Z</time></trkpt><trkpt lat="44.84133323687213" lon="9.6748226097004"><ele>323.0</ele><time>2026-05-02T07:53:56Z</time></trkpt><trkpt lat="44.84122787285415" lon="9.674811118923484"><ele>323.0</ele><time>2026-05-02T07:53:57Z</time></trkpt><trkpt lat="44.84112637553762" lon="9.67478411722186"><ele>323.0</ele><time>2026-05-02T07:53:58Z</time></trkpt><trkpt lat="44.84101934735402" lon="9.674751397783107"><ele>323.0</ele><time>2026-05-02T07:53:59Z</time></trkpt><trkpt lat="44.840908489120295" lon="9.674715613097318"><ele>323.0</ele><time>2026-05-02T07:54:00Z</time></trkpt><trkpt lat="44.84079693145592" lon="9.674684442791794"><ele>323.0</ele><time>2026-05-02T07:54:01Z</time></trkpt><trkpt lat="44.84069320206322" lon="9.674634353765446"><ele>324.0</ele><time>2026-05-02T07:54:02Z</time></trkpt><trkpt lat="44.84060272541618" lon="9.67456489107924"><ele>325.0</ele><time>2026-05-02T07:54:03Z</time></trkpt><trkpt lat="44.84051817134473" lon="9.674494232170028"><ele>326.0</ele><time>2026-05-02T07:54:04Z</time></trkpt><trkpt lat="44.8404288605822" lon="9.67446761597625"><ele>327.0</ele><time>2026-05-02T07:54:05Z</time></trkpt><trkpt lat="44.840331355338705" lon="9.674492072107206"><ele>328.0</ele><time>2026-05-02T07:54:06Z</time></trkpt><trkpt lat="44.840221878932894" lon="9.674526608785179"><ele>329.5</ele><time>2026-05-02T07:54:07Z</time></trkpt><trkpt lat="44.84010063711983" lon="9.674513615628012"><ele>331.0</ele><time>2026-05-02T07:54:08Z</time></trkpt><trkpt lat="44.83998370641607" lon="9.674470600618449"><ele>332.5</ele><time>2026-05-02T07:54:09Z</time></trkpt><trkpt lat="44.83986579476726" lon="9.67447117132393"><ele>334.0</ele><time>2026-05-02T07:54:10Z</time></trkpt><trkpt lat="44.83974782404215" lon="9.674534014906156"><ele>334.0</ele><time>2026-05-02T07:54:11Z</time></trkpt><trkpt lat="44.83962872014386" lon="9.674599125917384"><ele>334.0</ele><time>2026-05-02T07:54:12Z</time></trkpt><trkpt lat="44.839508886057885" lon="9.674616353549471"><ele>334.0</ele><time>2026-05-02T07:54:13Z</time></trkpt><trkpt lat="44.83938628178801" lon="9.674617142438079"><ele>334.0</ele><time>2026-05-02T07:54:14Z</time></trkpt><trkpt lat="44.839263217423074" lon="9.674622725981756"><ele>335.0</ele><time>2026-05-02T07:54:15Z</time></trkpt><trkpt lat="44.83913840744401" lon="9.674624279025927"><ele>336.0</ele><time>2026-05-02T07:54:16Z</time></trkpt><trkpt lat="44.83901776405912" lon="9.674610313030005"><ele>337.0</ele><time>2026-05-02T07:54:17Z</time></trkpt><trkpt lat="44.83890149153555" lon="9.674570682245886"><ele>338.0</ele><time>2026-05-02T07:54:18Z</time></trkpt><trkpt lat="44.83879730789089" lon="9.674520265277888"><ele>338.0</ele><time>2026-05-02T07:54:19Z</time></trkpt><trkpt lat="44.83870023018275" lon="9.674476898572824"><ele>338.0</ele><time>2026-05-02T07:54:20Z</time></trkpt><trkpt lat="44.83861626051549" lon="9.674461443479757"><ele>338.0</ele><time>2026-05-02T07:54:21Z</time></trkpt><trkpt lat="44.838545882432555" lon="9.674494057129715"><ele>338.0</ele><time>2026-05-02T07:54:22Z</time></trkpt><trkpt lat="44.83850161780463" lon="9.674581623088008"><ele>338.0</ele><time>2026-05-02T07:54:22.999Z</time></trkpt><trkpt lat="44.83849015763384" lon="9.674699262086916"><ele>338.0</ele><time>2026-05-02T07:54:23.999Z</time></trkpt><trkpt lat="44.8385209971592" lon="9.674817509514932"><ele>338.0</ele><time>2026-05-02T07:54:24.999Z</time></trkpt><trkpt lat="44.83857913153458" lon="9.674924122879661"><ele>338.0</ele><time>2026-05-02T07:54:25.999Z</time></trkpt><trkpt lat="44.83866759694303" lon="9.675010915344838"><ele>338.0</ele><time>2026-05-02T07:54:26.999Z</time></trkpt><trkpt lat="44.83877757590247" lon="9.675064496606435"><ele>338.0</ele><time>2026-05-02T07:54:27.999Z</time></trkpt><trkpt lat="44.83888479157361" lon="9.675065254124505"><ele>338.0</ele><time>2026-05-02T07:54:28.999Z</time></trkpt><trkpt lat="44.83900400783727" lon="9.675052395995516"><ele>338.0</ele><time>2026-05-02T07:54:29.999Z</time></trkpt><trkpt lat="44.83911925059376" lon="9.67505814108475"><ele>338.0</ele><time>2026-05-02T07:54:30.999Z</time></trkpt><trkpt lat="44.839228659430105" lon="9.675081276678489"><ele>338.0</ele><time>2026-05-02T07:54:31.999Z</time></trkpt><trkpt lat="44.83933408559757" lon="9.675121032198772"><ele>338.0</ele><time>2026-05-02T07:54:32.999Z</time></trkpt><trkpt lat="44.83943613351132" lon="9.675195500479472"><ele>340.5</ele><time>2026-05-02T07:54:33.999Z</time></trkpt><trkpt lat="44.839533294374796" lon="9.675293321766835"><ele>343.0</ele><time>2026-05-02T07:54:34.999Z</time></trkpt><trkpt lat="44.83959798078685" lon="9.675437180580477"><ele>345.5</ele><time>2026-05-02T07:54:35.999Z</time></trkpt><trkpt lat="44.83964098501173" lon="9.67559130979201"><ele>348.0</ele><time>2026-05-02T07:54:36.999Z</time></trkpt><trkpt lat="44.83966482308275" lon="9.675750281999763"><ele>348.0</ele><time>2026-05-02T07:54:37.999Z</time></trkpt><trkpt lat="44.83969016719314" lon="9.675882943875214"><ele>348.0</ele><time>2026-05-02T07:54:38.999Z</time></trkpt><trkpt lat="44.83975414056403" lon="9.675982758692498"><ele>348.0</ele><time>2026-05-02T07:54:39.999Z</time></trkpt><trkpt lat="44.839842375176346" lon="9.676027237659913"><ele>348.0</ele><time>2026-05-02T07:54:40.999Z</time></trkpt><trkpt lat="44.83993828372386" lon="9.676037936091168"><ele>348.0</ele><time>2026-05-02T07:54:41.999Z</time></trkpt><trkpt lat="44.840048675226676" lon="9.676029512169674"><ele>348.0</ele><time>2026-05-02T07:54:42.999Z</time></trkpt><trkpt lat="44.84015042265538" lon="9.67601003416883"><ele>348.0</ele><time>2026-05-02T07:54:43.999Z</time></trkpt><trkpt lat="44.84024747879446" lon="9.676022841623753"><ele>348.0</ele><time>2026-05-02T07:54:44.999Z</time></trkpt><trkpt lat="44.840345681491314" lon="9.676084747485303"><ele>348.0</ele><time>2026-05-02T07:54:45.999Z</time></trkpt><trkpt lat="44.84044268721661" lon="9.676092208488111"><ele>348.0</ele><time>2026-05-02T07:54:46.999Z</time></trkpt><trkpt lat="44.840542801926176" lon="9.676045836628317"><ele>348.0</ele><time>2026-05-02T07:54:47.999Z</time></trkpt><trkpt lat="44.8406392114575" lon="9.675970321258859"><ele>348.0</ele><time>2026-05-02T07:54:48.999Z</time></trkpt><trkpt lat="44.840743657179864" lon="9.67593630211606"><ele>348.0</ele><time>2026-05-02T07:54:49.999Z</time></trkpt><trkpt lat="44.84085093976323" lon="9.675938264745737"><ele>348.0</ele><time>2026-05-02T07:54:50.999Z</time></trkpt><trkpt lat="44.840946948279345" lon="9.675955457887213"><ele>348.0</ele><time>2026-05-02T07:54:51.999Z</time></trkpt><trkpt lat="44.84103901246021" lon="9.676004848870033"><ele>346.2</ele><time>2026-05-02T07:54:52.999Z</time></trkpt><trkpt lat="44.841129396062364" lon="9.676062748301872"><ele>344.4</ele><time>2026-05-02T07:54:53.999Z</time></trkpt><trkpt lat="44.841198378053384" lon="9.676123755286604"><ele>342.59999999999997</ele><time>2026-05-02T07:54:54.999Z</time></trkpt><trkpt lat="44.841235234061806" lon="9.676205432460536"><ele>340.79999999999995</ele><time>2026-05-02T07:54:55.999Z</time></trkpt><trkpt lat="44.84119934818046" lon="9.676349530540763"><ele>339.0</ele><time>2026-05-02T07:54:57.999Z</time></trkpt><trkpt lat="44.84108427099025" lon="9.676363693865964"><ele>343.79999999999995</ele><time>2026-05-02T07:54:59.999Z</time></trkpt><trkpt lat="44.84100518789109" lon="9.676325011007986"><ele>348.59999999999997</ele><time>2026-05-02T07:55:00.999Z</time></trkpt><trkpt lat="44.840907471687736" lon="9.67629484244747"><ele>353.4</ele><time>2026-05-02T07:55:01.999Z</time></trkpt><trkpt lat="44.840814776747074" lon="9.676307967235116"><ele>358.2</ele><time>2026-05-02T07:55:02.999Z</time></trkpt><trkpt lat="44.84070584929511" lon="9.676342416548323"><ele>363.0</ele><time>2026-05-02T07:55:03.999Z</time></trkpt><trkpt lat="44.8405901658083" lon="9.676417447134327"><ele>364.0</ele><time>2026-05-02T07:55:04.999Z</time></trkpt><trkpt lat="44.84048063768558" lon="9.676465001719066"><ele>365.0</ele><time>2026-05-02T07:55:05.999Z</time></trkpt><trkpt lat="44.84037606751927" lon="9.67648727426932"><ele>366.0</ele><time>2026-05-02T07:55:06.999Z</time></trkpt><trkpt lat="44.84028965762084" lon="9.676515964553777"><ele>367.0</ele><time>2026-05-02T07:55:07.999Z</time></trkpt><trkpt lat="44.84021627641149" lon="9.676579119774551"><ele>368.0</ele><time>2026-05-02T07:55:08.999Z</time></trkpt><trkpt lat="44.840170360294024" lon="9.676695703183674"><ele>368.0</ele><time>2026-05-02T07:55:09.999Z</time></trkpt><trkpt lat="44.84014994742488" lon="9.676843565996702"><ele>368.0</ele><time>2026-05-02T07:55:10.999Z</time></trkpt><trkpt lat="44.84013440943052" lon="9.677018620168107"><ele>368.0</ele><time>2026-05-02T07:55:11.999Z</time></trkpt><trkpt lat="44.84011964653088" lon="9.677170450023619"><ele>368.0</ele><time>2026-05-02T07:55:12.999Z</time></trkpt><trkpt lat="44.8400628741085" lon="9.67732135815189"><ele>368.5</ele><time>2026-05-02T07:55:13.999Z</time></trkpt><trkpt lat="44.84000677274779" lon="9.677448424045147"><ele>369.0</ele><time>2026-05-02T07:55:14.999Z</time></trkpt><trkpt lat="44.83996037517117" lon="9.67755171618053"><ele>369.5</ele><time>2026-05-02T07:55:15.999Z</time></trkpt><trkpt lat="44.83990368519103" lon="9.677621850694079"><ele>370.0</ele><time>2026-05-02T07:55:16.999Z</time></trkpt><trkpt lat="44.839832429584135" lon="9.677632132555848"><ele>370.5</ele><time>2026-05-02T07:55:17.999Z</time></trkpt><trkpt lat="44.839747830262034" lon="9.677602635590516"><ele>371.0</ele><time>2026-05-02T07:55:18.999Z</time></trkpt><trkpt lat="44.83965520178569" lon="9.677547359191296"><ele>371.0</ele><time>2026-05-02T07:55:19.999Z</time></trkpt><trkpt lat="44.8395568676234" lon="9.677487856207462"><ele>371.0</ele><time>2026-05-02T07:55:20.999Z</time></trkpt><trkpt lat="44.83945367972441" lon="9.677437842381295"><ele>371.0</ele><time>2026-05-02T07:55:21.999Z</time></trkpt><trkpt lat="44.839358488443494" lon="9.677392449406723"><ele>371.0</ele><time>2026-05-02T07:55:22.999Z</time></trkpt><trkpt lat="44.839261668531584" lon="9.677346001826946"><ele>371.0</ele><time>2026-05-02T07:55:23.999Z</time></trkpt><trkpt lat="44.8391682158287" lon="9.677266371335842"><ele>372.0</ele><time>2026-05-02T07:55:24.999Z</time></trkpt><trkpt lat="44.839077304731354" lon="9.67720521498726"><ele>373.0</ele><time>2026-05-02T07:55:25.999Z</time></trkpt><trkpt lat="44.83898537732392" lon="9.677190620521738"><ele>374.0</ele><time>2026-05-02T07:55:26.999Z</time></trkpt><trkpt lat="44.83889953846145" lon="9.677206133859768"><ele>375.0</ele><time>2026-05-02T07:55:27.998Z</time></trkpt><trkpt lat="44.83883054593033" lon="9.677265917926055"><ele>376.0</ele><time>2026-05-02T07:55:28.998Z</time></trkpt><trkpt lat="44.83877564505971" lon="9.677359187248358"><ele>377.0</ele><time>2026-05-02T07:55:29.998Z</time></trkpt><trkpt lat="44.83870586342009" lon="9.6774536191147"><ele>377.0</ele><time>2026-05-02T07:55:30.998Z</time></trkpt><trkpt lat="44.83862083156673" lon="9.677533923270161"><ele>377.0</ele><time>2026-05-02T07:55:31.998Z</time></trkpt><trkpt lat="44.83852617961198" lon="9.677578841224578"><ele>377.0</ele><time>2026-05-02T07:55:32.998Z</time></trkpt><trkpt lat="44.83842400655722" lon="9.677583362308992"><ele>377.0</ele><time>2026-05-02T07:55:33.998Z</time></trkpt><trkpt lat="44.83832000623345" lon="9.677553529518896"><ele>377.0</ele><time>2026-05-02T07:55:34.998Z</time></trkpt><trkpt lat="44.83821642015513" lon="9.677512873350707"><ele>377.6</ele><time>2026-05-02T07:55:35.998Z</time></trkpt><trkpt lat="44.8381169202151" lon="9.677483701471653"><ele>378.20000000000005</ele><time>2026-05-02T07:55:36.998Z</time></trkpt><trkpt lat="44.83801858557603" lon="9.677482488749808"><ele>378.8</ele><time>2026-05-02T07:55:37.998Z</time></trkpt><trkpt lat="44.837924398059336" lon="9.677533805636441"><ele>379.4</ele><time>2026-05-02T07:55:38.998Z</time></trkpt><trkpt lat="44.837841678867015" lon="9.677612500321818"><ele>380.0</ele><time>2026-05-02T07:55:39.998Z</time></trkpt><trkpt lat="44.837747137890524" lon="9.677649521229812"><ele>380.0</ele><time>2026-05-02T07:55:40.998Z</time></trkpt><trkpt lat="44.8376585044318" lon="9.677633215597357"><ele>380.0</ele><time>2026-05-02T07:55:41.998Z</time></trkpt><trkpt lat="44.83757461086001" lon="9.677565074430719"><ele>380.0</ele><time>2026-05-02T07:55:42.998Z</time></trkpt><trkpt lat="44.83749112562802" lon="9.677477824005686"><ele>380.0</ele><time>2026-05-02T07:55:43.998Z</time></trkpt><trkpt lat="44.83740293117897" lon="9.677403315202993"><ele>380.0</ele><time>2026-05-02T07:55:44.998Z</time></trkpt><trkpt lat="44.83732277947043" lon="9.677346440151176"><ele>380.6666666666667</ele><time>2026-05-02T07:55:45.998Z</time></trkpt><trkpt lat="44.83725190451492" lon="9.677295606318223"><ele>381.33333333333337</ele><time>2026-05-02T07:55:47Z</time></trkpt><trkpt lat="44.837195861142014" lon="9.67723970049372"><ele>382.0</ele><time>2026-05-02T07:55:48Z</time></trkpt><trkpt lat="44.83711152449891" lon="9.677161357258495"><ele>382.6666666666667</ele><time>2026-05-02T07:55:50Z</time></trkpt><trkpt lat="44.837047139963055" lon="9.6771480143081"><ele>383.3333333333333</ele><time>2026-05-02T07:55:53Z</time></trkpt><trkpt lat="44.83696455946807" lon="9.677129739039012"><ele>384.0</ele><time>2026-05-02T07:55:57Z</time></trkpt><trkpt lat="44.83688697815723" lon="9.677101544284763"><ele>384.0</ele><time>2026-05-02T07:56:00Z</time></trkpt><trkpt lat="44.83680676451162" lon="9.6770391843393"><ele>384.0</ele><time>2026-05-02T07:56:12Z</time></trkpt><trkpt lat="44.83673633155191" lon="9.676980035374974"><ele>384.0</ele><time>2026-05-02T07:56:13Z</time></trkpt><trkpt lat="44.83667669652075" lon="9.676922810782397"><ele>384.0</ele><time>2026-05-02T07:56:14Z</time></trkpt><trkpt lat="44.83662459919231" lon="9.676866757174357"><ele>384.0</ele><time>2026-05-02T07:56:15Z</time></trkpt><trkpt lat="44.83655162696846" lon="9.67680104556293"><ele>384.0</ele><time>2026-05-02T07:56:16Z</time></trkpt><trkpt lat="44.836485133723606" lon="9.67674385633811"><ele>385.5</ele><time>2026-05-02T07:56:17Z</time></trkpt><trkpt lat="44.8363887756812" lon="9.676678808451332"><ele>387.0</ele><time>2026-05-02T07:56:19Z</time></trkpt><trkpt lat="44.83632969931589" lon="9.67657974157971"><ele>388.5</ele><time>2026-05-02T07:56:21Z</time></trkpt><trkpt lat="44.83627494531652" lon="9.676506377887474"><ele>390.0</ele><time>2026-05-02T07:56:24Z</time></trkpt><trkpt lat="44.83622234541753" lon="9.67644010481942"><ele>391.5</ele><time>2026-05-02T07:56:26Z</time></trkpt><trkpt lat="44.83616221097195" lon="9.676322605234146"><ele>393.0</ele><time>2026-05-02T07:56:28Z</time></trkpt><trkpt lat="44.83613835195639" lon="9.676230352535946"><ele>392.79999999999995</ele><time>2026-05-02T07:56:29Z</time></trkpt><trkpt lat="44.83611948763383" lon="9.676088615829505"><ele>392.6</ele><time>2026-05-02T07:56:30.999Z</time></trkpt><trkpt lat="44.83609399806869" lon="9.675938261416029"><ele>392.4</ele><time>2026-05-02T07:56:32.999Z</time></trkpt><trkpt lat="44.83605413430983" lon="9.675795293819881"><ele>392.20000000000005</ele><time>2026-05-02T07:56:34.999Z</time></trkpt><trkpt lat="44.83602857681613" lon="9.675711978958223"><ele>392.0</ele><time>2026-05-02T07:56:35.999Z</time></trkpt><trkpt lat="44.83597253569891" lon="9.675650246315966"><ele>394.6</ele><time>2026-05-02T07:56:36.999Z</time></trkpt><trkpt lat="44.83590225201406" lon="9.675599372609563"><ele>397.20000000000005</ele><time>2026-05-02T07:56:37.999Z</time></trkpt><trkpt lat="44.835826296584656" lon="9.675566759000708"><ele>399.8</ele><time>2026-05-02T07:56:38.999Z</time></trkpt><trkpt lat="44.83573526382147" lon="9.67556380480328"><ele>402.4</ele><time>2026-05-02T07:56:39.999Z</time></trkpt><trkpt lat="44.83563506586848" lon="9.675564946626618"><ele>405.0</ele><time>2026-05-02T07:56:40.999Z</time></trkpt><trkpt lat="44.83552037693874" lon="9.675573174574005"><ele>405.0</ele><time>2026-05-02T07:56:41.999Z</time></trkpt><trkpt lat="44.83541417687959" lon="9.675579379231861"><ele>405.0</ele><time>2026-05-02T07:56:42.999Z</time></trkpt><trkpt lat="44.83530314959771" lon="9.675570557394215"><ele>405.0</ele><time>2026-05-02T07:56:43.999Z</time></trkpt><trkpt lat="44.83520244446275" lon="9.675567523265906"><ele>405.0</ele><time>2026-05-02T07:56:44.999Z</time></trkpt><trkpt lat="44.83511222493535" lon="9.675588863172019"><ele>405.0</ele><time>2026-05-02T07:56:45.999Z</time></trkpt><trkpt lat="44.83502765418047" lon="9.675611237660403"><ele>405.3333333333333</ele><time>2026-05-02T07:56:46.999Z</time></trkpt><trkpt lat="44.8349438954744" lon="9.67563492348136"><ele>405.66666666666663</ele><time>2026-05-02T07:56:47.999Z</time></trkpt><trkpt lat="44.83485807678342" lon="9.6756529795693"><ele>406.0</ele><time>2026-05-02T07:56:48.999Z</time></trkpt><trkpt lat="44.83478012290714" lon="9.675676588123762"><ele>406.3333333333333</ele><time>2026-05-02T07:56:49.999Z</time></trkpt><trkpt lat="44.83470333227966" lon="9.675693033492303"><ele>406.66666666666663</ele><time>2026-05-02T07:56:50.999Z</time></trkpt><trkpt lat="44.83461467040505" lon="9.675705230253286"><ele>407.0</ele><time>2026-05-02T07:56:51.999Z</time></trkpt><trkpt lat="44.834514030341076" lon="9.675730506600638"><ele>407.0</ele><time>2026-05-02T07:56:52.999Z</time></trkpt><trkpt lat="44.834405897369834" lon="9.675746137954665"><ele>407.0</ele><time>2026-05-02T07:56:53.999Z</time></trkpt><trkpt lat="44.83429971983566" lon="9.675749325681027"><ele>407.0</ele><time>2026-05-02T07:56:54.999Z</time></trkpt><trkpt lat="44.83420198324225" lon="9.675740853098915"><ele>407.0</ele><time>2026-05-02T07:56:55.999Z</time></trkpt><trkpt lat="44.83410546291423" lon="9.675722703313811"><ele>407.0</ele><time>2026-05-02T07:56:56.999Z</time></trkpt><trkpt lat="44.83401744894803" lon="9.67570143419671"><ele>406.49999999999994</ele><time>2026-05-02T07:56:57.999Z</time></trkpt><trkpt lat="44.833933340116914" lon="9.675673579965338"><ele>406.0</ele><time>2026-05-02T07:56:58.999Z</time></trkpt><trkpt lat="44.833854360183246" lon="9.675643690539676"><ele>405.5</ele><time>2026-05-02T07:56:59.999Z</time></trkpt><trkpt lat="44.83377609475644" lon="9.675619669887515"><ele>405.0</ele><time>2026-05-02T07:57:00.999Z</time></trkpt><trkpt lat="44.83369632872915" lon="9.675607486439908"><ele>404.49999999999994</ele><time>2026-05-02T07:57:01.999Z</time></trkpt><trkpt lat="44.83362010218491" lon="9.675594324275348"><ele>404.0</ele><time>2026-05-02T07:57:02.999Z</time></trkpt><trkpt lat="44.83354644764298" lon="9.675577240459482"><ele>403.99999999999994</ele><time>2026-05-02T07:57:03.999Z</time></trkpt><trkpt lat="44.83347483619139" lon="9.675542790417243"><ele>404.0</ele><time>2026-05-02T07:57:04.999Z</time></trkpt><trkpt lat="44.8334075717388" lon="9.675487962697986"><ele>404.0</ele><time>2026-05-02T07:57:05.999Z</time></trkpt><trkpt lat="44.833344282153774" lon="9.675418777051744"><ele>404.0</ele><time>2026-05-02T07:57:06.999Z</time></trkpt><trkpt lat="44.83328120491805" lon="9.675348329367532"><ele>403.99999999999994</ele><time>2026-05-02T07:57:07.999Z</time></trkpt><trkpt lat="44.83321156514746" lon="9.675297294988734"><ele>404.0</ele><time>2026-05-02T07:57:08.999Z</time></trkpt><trkpt lat="44.83314335371458" lon="9.675256728246659"><ele>402.8333333333333</ele><time>2026-05-02T07:57:09.999Z</time></trkpt><trkpt lat="44.83306869190105" lon="9.675216458467432"><ele>401.66666666666663</ele><time>2026-05-02T07:57:10.999Z</time></trkpt><trkpt lat="44.83299699137872" lon="9.675172898381948"><ele>400.5</ele><time>2026-05-02T07:57:11.999Z</time></trkpt><trkpt lat="44.83292657573077" lon="9.675127447481435"><ele>399.33333333333337</ele><time>2026-05-02T07:57:12.999Z</time></trkpt><trkpt lat="44.83285071254134" lon="9.67507942854859"><ele>398.1666666666667</ele><time>2026-05-02T07:57:13.999Z</time></trkpt><trkpt lat="44.83278345415235" lon="9.675012556686507"><ele>397.0</ele><time>2026-05-02T07:57:14.999Z</time></trkpt><trkpt lat="44.832714712683725" lon="9.67493046450309"><ele>397.0</ele><time>2026-05-02T07:57:15.999Z</time></trkpt><trkpt lat="44.832648120613364" lon="9.674827514457952"><ele>397.0</ele><time>2026-05-02T07:57:16.999Z</time></trkpt><trkpt lat="44.83257188022978" lon="9.6747126184648"><ele>397.0</ele><time>2026-05-02T07:57:17.999Z</time></trkpt><trkpt lat="44.8324955125706" lon="9.674605068388438"><ele>397.0</ele><time>2026-05-02T07:57:18.999Z</time></trkpt><trkpt lat="44.832431175129216" lon="9.67450197683226"><ele>397.0</ele><time>2026-05-02T07:57:19.999Z</time></trkpt><trkpt lat="44.8323720215795" lon="9.674388830899861"><ele>397.25</ele><time>2026-05-02T07:57:20.999Z</time></trkpt><trkpt lat="44.83231470905543" lon="9.674263750751258"><ele>397.5</ele><time>2026-05-02T07:57:21.999Z</time></trkpt><trkpt lat="44.832251660458525" lon="9.67412842400456"><ele>397.75</ele><time>2026-05-02T07:57:22.999Z</time></trkpt><trkpt lat="44.83218316683174" lon="9.673981626700453"><ele>398.0</ele><time>2026-05-02T07:57:23.999Z</time></trkpt><trkpt lat="44.832112281635894" lon="9.67382505249012"><ele>398.0</ele><time>2026-05-02T07:57:24.999Z</time></trkpt><trkpt lat="44.83203816904868" lon="9.673670221162455"><ele>398.0</ele><time>2026-05-02T07:57:25.999Z</time></trkpt><trkpt lat="44.8319672492713" lon="9.673531731439407"><ele>398.0</ele><time>2026-05-02T07:57:26.999Z</time></trkpt><trkpt lat="44.831900674645425" lon="9.673440231974707"><ele>398.0</ele><time>2026-05-02T07:57:27.999Z</time></trkpt><trkpt lat="44.83183236950236" lon="9.67339297791746"><ele>398.0</ele><time>2026-05-02T07:57:28.999Z</time></trkpt><trkpt lat="44.83175901821038" lon="9.673411018383524"><ele>403.0</ele><time>2026-05-02T07:57:29.999Z</time></trkpt><trkpt lat="44.83166703691047" lon="9.673454313125218"><ele>408.0</ele><time>2026-05-02T07:57:30.999Z</time></trkpt><trkpt lat="44.831554683000554" lon="9.673486896394275"><ele>413.0</ele><time>2026-05-02T07:57:31.999Z</time></trkpt><trkpt lat="44.83141666399119" lon="9.673514529524915"><ele>418.0</ele><time>2026-05-02T07:57:32.999Z</time></trkpt><trkpt lat="44.8312741548336" lon="9.6735279190882"><ele>418.0</ele><time>2026-05-02T07:57:33.999Z</time></trkpt><trkpt lat="44.83116689633471" lon="9.673534167152114"><ele>418.0</ele><time>2026-05-02T07:57:34.999Z</time></trkpt><trkpt lat="44.8310765207264" lon="9.67357764031175"><ele>418.0</ele><time>2026-05-02T07:57:35.999Z</time></trkpt><trkpt lat="44.831010178187974" lon="9.673664685779277"><ele>418.0</ele><time>2026-05-02T07:57:36.999Z</time></trkpt><trkpt lat="44.830953242365766" lon="9.673781822594329"><ele>418.0</ele><time>2026-05-02T07:57:37.998Z</time></trkpt><trkpt lat="44.830899369247746" lon="9.673912563593294"><ele>420.33333333333337</ele><time>2026-05-02T07:57:38.998Z</time></trkpt><trkpt lat="44.83085833957047" lon="9.674025063559576"><ele>422.6666666666667</ele><time>2026-05-02T07:57:39.998Z</time></trkpt><trkpt lat="44.83081862477705" lon="9.674108667712614"><ele>425.0</ele><time>2026-05-02T07:57:40.998Z</time></trkpt><trkpt lat="44.83073356619954" lon="9.674172142687008"><ele>427.33333333333337</ele><time>2026-05-02T07:57:42.998Z</time></trkpt><trkpt lat="44.83063840973258" lon="9.67413167388295"><ele>429.6666666666667</ele><time>2026-05-02T07:57:44.998Z</time></trkpt><trkpt lat="44.83056512160605" lon="9.67408719209445"><ele>432.0</ele><time>2026-05-02T07:57:45.998Z</time></trkpt><trkpt lat="44.83046491970641" lon="9.674032222500367"><ele>432.0</ele><time>2026-05-02T07:57:46.998Z</time></trkpt><trkpt lat="44.8303608898652" lon="9.673990389748278"><ele>432.00000000000006</ele><time>2026-05-02T07:57:47.998Z</time></trkpt><trkpt lat="44.83025187300094" lon="9.67396298220399"><ele>432.00000000000006</ele><time>2026-05-02T07:57:48.998Z</time></trkpt><trkpt lat="44.83014466833897" lon="9.673946095241408"><ele>432.0</ele><time>2026-05-02T07:57:49.998Z</time></trkpt><trkpt lat="44.83004110745517" lon="9.673910488671558"><ele>432.0</ele><time>2026-05-02T07:57:50.998Z</time></trkpt><trkpt lat="44.829948617169336" lon="9.673848092668923"><ele>432.8</ele><time>2026-05-02T07:57:51.998Z</time></trkpt><trkpt lat="44.829858564639224" lon="9.673769392783873"><ele>433.6</ele><time>2026-05-02T07:57:53Z</time></trkpt><trkpt lat="44.82977086925783" lon="9.673680738575092"><ele>434.40000000000003</ele><time>2026-05-02T07:57:54Z</time></trkpt><trkpt lat="44.82968409121571" lon="9.67358794747903"><ele>435.20000000000005</ele><time>2026-05-02T07:57:55Z</time></trkpt><trkpt lat="44.82960257769316" lon="9.673486851393514"><ele>436.0</ele><time>2026-05-02T07:57:56Z</time></trkpt><trkpt lat="44.82952985222056" lon="9.673385596449167"><ele>436.6</ele><time>2026-05-02T07:57:57Z</time></trkpt><trkpt lat="44.82945868020464" lon="9.673295220948713"><ele>437.20000000000005</ele><time>2026-05-02T07:57:58Z</time></trkpt><trkpt lat="44.82938136346066" lon="9.67324232555574"><ele>437.79999999999995</ele><time>2026-05-02T07:57:59Z</time></trkpt><trkpt lat="44.82924472793412" lon="9.673268976183383"><ele>438.4</ele><time>2026-05-02T07:58:01Z</time></trkpt><trkpt lat="44.829178794155155" lon="9.67331489927614"><ele>439.0</ele><time>2026-05-02T07:58:02Z</time></trkpt><trkpt lat="44.82911046389147" lon="9.673371656337324"><ele>442.6</ele><time>2026-05-02T07:58:03Z</time></trkpt><trkpt lat="44.82903499894489" lon="9.673411620702534"><ele>446.2</ele><time>2026-05-02T07:58:04Z</time></trkpt><trkpt lat="44.828947662130155" lon="9.673417008006961"><ele>449.80000000000007</ele><time>2026-05-02T07:58:05Z</time></trkpt><trkpt lat="44.828846787554575" lon="9.673401767053077"><ele>453.40000000000003</ele><time>2026-05-02T07:58:06Z</time></trkpt><trkpt lat="44.82873076413391" lon="9.673380099505469"><ele>457.0</ele><time>2026-05-02T07:58:07Z</time></trkpt><trkpt lat="44.82859951765759" lon="9.673369346136205"><ele>458.5</ele><time>2026-05-02T07:58:08Z</time></trkpt><trkpt lat="44.828474692211735" lon="9.67336297083722"><ele>460.0</ele><time>2026-05-02T07:58:09Z</time></trkpt><trkpt lat="44.82835972133326" lon="9.673347524806006"><ele>461.5</ele><time>2026-05-02T07:58:10Z</time></trkpt><trkpt lat="44.8282517293803" lon="9.673316389796057"><ele>463.0</ele><time>2026-05-02T07:58:11Z</time></trkpt><trkpt lat="44.82815532390634" lon="9.673266639771041"><ele>463.0</ele><time>2026-05-02T07:58:12Z</time></trkpt><trkpt lat="44.82807172526869" lon="9.673205580540735"><ele>462.99999999999994</ele><time>2026-05-02T07:58:13Z</time></trkpt><trkpt lat="44.82799247441258" lon="9.673142335225615"><ele>462.99999999999994</ele><time>2026-05-02T07:58:14Z</time></trkpt><trkpt lat="44.82792967248129" lon="9.673101826951065"><ele>463.0</ele><time>2026-05-02T07:58:15Z</time></trkpt><trkpt lat="44.82779402058463" lon="9.673122913703965"><ele>463.0</ele><time>2026-05-02T07:58:17Z</time></trkpt><trkpt lat="44.82769201792998" lon="9.673169244628733"><ele>465.0</ele><time>2026-05-02T07:58:18Z</time></trkpt><trkpt lat="44.827575087369034" lon="9.67320935652756"><ele>467.0</ele><time>2026-05-02T07:58:19Z</time></trkpt><trkpt lat="44.82745725468887" lon="9.673245417890715"><ele>469.0</ele><time>2026-05-02T07:58:20Z</time></trkpt><trkpt lat="44.827343016580315" lon="9.673298894518345"><ele>471.0</ele><time>2026-05-02T07:58:21Z</time></trkpt><trkpt lat="44.82722363986056" lon="9.673386963316272"><ele>471.0</ele><time>2026-05-02T07:58:22Z</time></trkpt><trkpt lat="44.827096546051884" lon="9.67348048566552"><ele>471.0</ele><time>2026-05-02T07:58:23Z</time></trkpt><trkpt lat="44.82697121237696" lon="9.673569708605909"><ele>471.0</ele><time>2026-05-02T07:58:24Z</time></trkpt><trkpt lat="44.82687321144617" lon="9.673657624495805"><ele>471.0</ele><time>2026-05-02T07:58:25Z</time></trkpt><trkpt lat="44.82679257378048" lon="9.673729698913982"><ele>472.8</ele><time>2026-05-02T07:58:26Z</time></trkpt><trkpt lat="44.82670759438757" lon="9.67373628437478"><ele>474.6</ele><time>2026-05-02T07:58:27Z</time></trkpt><trkpt lat="44.826637525133464" lon="9.673705613395908"><ele>476.4</ele><time>2026-05-02T07:58:28Z</time></trkpt><trkpt lat="44.82656670460895" lon="9.673654369112713"><ele>478.2</ele><time>2026-05-02T07:58:29Z</time></trkpt><trkpt lat="44.82647381171706" lon="9.673577281270719"><ele>480.0</ele><time>2026-05-02T07:58:30Z</time></trkpt><trkpt lat="44.82637074843396" lon="9.673498694612794"><ele>480.0</ele><time>2026-05-02T07:58:31Z</time></trkpt><trkpt lat="44.82626310346102" lon="9.673433529688253"><ele>480.0</ele><time>2026-05-02T07:58:32Z</time></trkpt><trkpt lat="44.82615462403983" lon="9.673365087076787"><ele>480.0</ele><time>2026-05-02T07:58:33Z</time></trkpt><trkpt lat="44.82603987590383" lon="9.67325763689573"><ele>480.0</ele><time>2026-05-02T07:58:34Z</time></trkpt><trkpt lat="44.825948649633276" lon="9.673112064405789"><ele>482.5</ele><time>2026-05-02T07:58:34.999Z</time></trkpt><trkpt lat="44.82588853585684" lon="9.67296431828957"><ele>485.0</ele><time>2026-05-02T07:58:35.999Z</time></trkpt><trkpt lat="44.82581127966465" lon="9.672846322692177"><ele>487.5</ele><time>2026-05-02T07:58:36.999Z</time></trkpt><trkpt lat="44.82571122676849" lon="9.67276391264314"><ele>490.0</ele><time>2026-05-02T07:58:37.999Z</time></trkpt><trkpt lat="44.82559602388827" lon="9.672696584098059"><ele>490.0</ele><time>2026-05-02T07:58:38.999Z</time></trkpt><trkpt lat="44.82548031113848" lon="9.672614037230783"><ele>490.0</ele><time>2026-05-02T07:58:39.999Z</time></trkpt><trkpt lat="44.82537941159676" lon="9.672486121120615"><ele>490.0</ele><time>2026-05-02T07:58:40.999Z</time></trkpt><trkpt lat="44.82528892375145" lon="9.672337871515218"><ele>490.0</ele><time>2026-05-02T07:58:41.999Z</time></trkpt><trkpt lat="44.825192021450405" lon="9.672199602900301"><ele>490.75</ele><time>2026-05-02T07:58:42.999Z</time></trkpt><trkpt lat="44.825081629109754" lon="9.672072382659463"><ele>491.5</ele><time>2026-05-02T07:58:43.999Z</time></trkpt><trkpt lat="44.824958380560346" lon="9.671951517650637"><ele>492.25</ele><time>2026-05-02T07:58:44.999Z</time></trkpt><trkpt lat="44.82485705535801" lon="9.671857629089075"><ele>493.0</ele><time>2026-05-02T07:58:45.999Z</time></trkpt><trkpt lat="44.82477243633606" lon="9.671755019563328"><ele>495.0</ele><time>2026-05-02T07:58:46.999Z</time></trkpt><trkpt lat="44.824700746921025" lon="9.671640555201455"><ele>496.99999999999994</ele><time>2026-05-02T07:58:47.999Z</time></trkpt><trkpt lat="44.82463796320507" lon="9.671515922980918"><ele>498.99999999999994</ele><time>2026-05-02T07:58:48.999Z</time></trkpt><trkpt lat="44.824589526103736" lon="9.67139846785996"><ele>501.0</ele><time>2026-05-02T07:58:49.999Z</time></trkpt><trkpt lat="44.82453538740918" lon="9.671298675730748"><ele>503.0</ele><time>2026-05-02T07:58:50.999Z</time></trkpt><trkpt lat="44.82447019454806" lon="9.671197377761303"><ele>503.0</ele><time>2026-05-02T07:58:51.999Z</time></trkpt><trkpt lat="44.82437758390639" lon="9.671118713987669"><ele>502.99999999999994</ele><time>2026-05-02T07:58:52.999Z</time></trkpt><trkpt lat="44.82427935321041" lon="9.671042974162251"><ele>502.99999999999994</ele><time>2026-05-02T07:58:53.999Z</time></trkpt><trkpt lat="44.8241818876727" lon="9.67096226426711"><ele>503.0</ele><time>2026-05-02T07:58:54.999Z</time></trkpt><trkpt lat="44.82408649159911" lon="9.670870107177645"><ele>503.0</ele><time>2026-05-02T07:58:55.999Z</time></trkpt><trkpt lat="44.82399154113776" lon="9.670771603449127"><ele>505.75</ele><time>2026-05-02T07:58:56.999Z</time></trkpt><trkpt lat="44.82389373085195" lon="9.670678192123196"><ele>508.5</ele><time>2026-05-02T07:58:57.999Z</time></trkpt><trkpt lat="44.82377060070823" lon="9.670593027675217"><ele>511.25</ele><time>2026-05-02T07:58:58.999Z</time></trkpt><trkpt lat="44.82365005864952" lon="9.670534819803253"><ele>514.0</ele><time>2026-05-02T07:58:59.999Z</time></trkpt><trkpt lat="44.82351312937028" lon="9.670485900548448"><ele>516.0</ele><time>2026-05-02T07:59:00.999Z</time></trkpt><trkpt lat="44.82336719217571" lon="9.670444520531404"><ele>518.0</ele><time>2026-05-02T07:59:01.999Z</time></trkpt><trkpt lat="44.823215823979886" lon="9.670398735552762"><ele>520.0</ele><time>2026-05-02T07:59:02.999Z</time></trkpt><trkpt lat="44.823061145871655" lon="9.670349912707698"><ele>520.0</ele><time>2026-05-02T07:59:03.999Z</time></trkpt><trkpt lat="44.82292140471774" lon="9.670297597114958"><ele>520.0</ele><time>2026-05-02T07:59:04.999Z</time></trkpt><trkpt lat="44.82279707826238" lon="9.67023981078358"><ele>520.0</ele><time>2026-05-02T07:59:05.999Z</time></trkpt><trkpt lat="44.82268449070864" lon="9.670185223701901"><ele>520.0</ele><time>2026-05-02T07:59:06.999Z</time></trkpt><trkpt lat="44.82257553508149" lon="9.670133496546411"><ele>521.0</ele><time>2026-05-02T07:59:07.999Z</time></trkpt><trkpt lat="44.82246848335593" lon="9.670081963104032"><ele>522.0</ele><time>2026-05-02T07:59:08.999Z</time></trkpt><trkpt lat="44.822360528528584" lon="9.670030316730143"><ele>523.0</ele><time>2026-05-02T07:59:09.999Z</time></trkpt><trkpt lat="44.822246244445246" lon="9.66996388862139"><ele>524.0</ele><time>2026-05-02T07:59:10.999Z</time></trkpt><trkpt lat="44.822134975375405" lon="9.669862642993074"><ele>524.0</ele><time>2026-05-02T07:59:11.999Z</time></trkpt><trkpt lat="44.822031556686824" lon="9.66974073490875"><ele>524.0</ele><time>2026-05-02T07:59:12.999Z</time></trkpt><trkpt lat="44.82195554031444" lon="9.669577737186252"><ele>524.0</ele><time>2026-05-02T07:59:13.999Z</time></trkpt><trkpt lat="44.82189999800473" lon="9.669387531814559"><ele>524.0</ele><time>2026-05-02T07:59:14.999Z</time></trkpt><trkpt lat="44.821847354866044" lon="9.669201181657488"><ele>524.75</ele><time>2026-05-02T07:59:15.999Z</time></trkpt><trkpt lat="44.82178671302617" lon="9.669034176286269"><ele>525.5</ele><time>2026-05-02T07:59:16.999Z</time></trkpt><trkpt lat="44.821712279232464" lon="9.668882911460623"><ele>526.25</ele><time>2026-05-02T07:59:17.999Z</time></trkpt><trkpt lat="44.821628644393094" lon="9.668738784701024"><ele>527.0</ele><time>2026-05-02T07:59:18.999Z</time></trkpt><trkpt lat="44.821546155533944" lon="9.66859395838227"><ele>527.0</ele><time>2026-05-02T07:59:19.999Z</time></trkpt><trkpt lat="44.82146723904763" lon="9.668445656538072"><ele>527.0</ele><time>2026-05-02T07:59:20.999Z</time></trkpt><trkpt lat="44.82138675965573" lon="9.66829860423128"><ele>527.0</ele><time>2026-05-02T07:59:21.999Z</time></trkpt><trkpt lat="44.821305387230325" lon="9.668153913036441"><ele>527.0</ele><time>2026-05-02T07:59:22.999Z</time></trkpt><trkpt lat="44.82122487707094" lon="9.668011928885957"><ele>527.0</ele><time>2026-05-02T07:59:23.999Z</time></trkpt><trkpt lat="44.82114963093488" lon="9.667877919983345"><ele>527.0</ele><time>2026-05-02T07:59:24.999Z</time></trkpt><trkpt lat="44.82109024950543" lon="9.66774244262928"><ele>527.0</ele><time>2026-05-02T07:59:25.999Z</time></trkpt><trkpt lat="44.82104591963156" lon="9.667607038974994"><ele>527.0</ele><time>2026-05-02T07:59:26.999Z</time></trkpt><trkpt lat="44.82100597749395" lon="9.667473639414412"><ele>527.0</ele><time>2026-05-02T07:59:27.999Z</time></trkpt><trkpt lat="44.82096001175515" lon="9.66733926144596"><ele>527.8000000000001</ele><time>2026-05-02T07:59:28.999Z</time></trkpt><trkpt lat="44.820911514372405" lon="9.667210026613802"><ele>528.6</ele><time>2026-05-02T07:59:29.999Z</time></trkpt><trkpt lat="44.82086259740278" lon="9.667084203714555"><ele>529.4000000000001</ele><time>2026-05-02T07:59:30.999Z</time></trkpt><trkpt lat="44.82080968269829" lon="9.66695704722938"><ele>530.2</ele><time>2026-05-02T07:59:31.999Z</time></trkpt><trkpt lat="44.82075662196133" lon="9.666826257246658"><ele>531.0</ele><time>2026-05-02T07:59:32.999Z</time></trkpt><trkpt lat="44.82071393233871" lon="9.666685157325352"><ele>531.0</ele><time>2026-05-02T07:59:33.999Z</time></trkpt><trkpt lat="44.82070187930332" lon="9.666533276820541"><ele>531.0</ele><time>2026-05-02T07:59:34.999Z</time></trkpt><trkpt lat="44.8207293656582" lon="9.666393988165927"><ele>531.0</ele><time>2026-05-02T07:59:35.999Z</time></trkpt><trkpt lat="44.820790415583005" lon="9.666270781834971"><ele>531.0</ele><time>2026-05-02T07:59:36.999Z</time></trkpt><trkpt lat="44.82083890809718" lon="9.666172854723577"><ele>531.0</ele><time>2026-05-02T07:59:37.999Z</time></trkpt><trkpt lat="44.820845612301994" lon="9.666054244490276"><ele>529.4</ele><time>2026-05-02T07:59:38.999Z</time></trkpt><trkpt lat="44.82082164035494" lon="9.665931988136771"><ele>527.8</ele><time>2026-05-02T07:59:39.999Z</time></trkpt><trkpt lat="44.820773670382444" lon="9.665819525499787"><ele>526.1999999999999</ele><time>2026-05-02T07:59:40.999Z</time></trkpt><trkpt lat="44.820708910337615" lon="9.665708135475528"><ele>524.6</ele><time>2026-05-02T07:59:41.998Z</time></trkpt><trkpt lat="44.82063954773521" lon="9.665612459114083"><ele>523.0</ele><time>2026-05-02T07:59:42.998Z</time></trkpt><trkpt lat="44.820557114669434" lon="9.665531859936245"><ele>523.0</ele><time>2026-05-02T07:59:43.998Z</time></trkpt><trkpt lat="44.82046191438517" lon="9.6654785599708"><ele>523.0</ele><time>2026-05-02T07:59:44.998Z</time></trkpt><trkpt lat="44.82036241808529" lon="9.665455666875777"><ele>523.0</ele><time>2026-05-02T07:59:45.998Z</time></trkpt><trkpt lat="44.82026374896415" lon="9.665450701588947"><ele>523.0</ele><time>2026-05-02T07:59:46.998Z</time></trkpt><trkpt lat="44.82016932279533" lon="9.665455949016609"><ele>523.0</ele><time>2026-05-02T07:59:47.998Z</time></trkpt><trkpt lat="44.82007407211482" lon="9.665457526866984"><ele>522.0</ele><time>2026-05-02T07:59:48.998Z</time></trkpt><trkpt lat="44.81997968542767" lon="9.665455706534836"><ele>521.0</ele><time>2026-05-02T07:59:49.998Z</time></trkpt><trkpt lat="44.81988510500597" lon="9.665442029689569"><ele>520.0</ele><time>2026-05-02T07:59:50.998Z</time></trkpt><trkpt lat="44.81978654368958" lon="9.665441585605201"><ele>519.0</ele><time>2026-05-02T07:59:51.998Z</time></trkpt><trkpt lat="44.8196906116561" lon="9.66548915507499"><ele>518.0</ele><time>2026-05-02T07:59:52.998Z</time></trkpt><trkpt lat="44.81960152060138" lon="9.665565021431044"><ele>518.0</ele><time>2026-05-02T07:59:53.998Z</time></trkpt><trkpt lat="44.81951655329604" lon="9.66564151921834"><ele>518.0</ele><time>2026-05-02T07:59:54.998Z</time></trkpt><trkpt lat="44.81943632987896" lon="9.665719174377115"><ele>518.0</ele><time>2026-05-02T07:59:55.998Z</time></trkpt><trkpt lat="44.81934436697461" lon="9.665767524947737"><ele>518.0</ele><time>2026-05-02T07:59:56.998Z</time></trkpt><trkpt lat="44.81924397351601" lon="9.665793323478209"><ele>518.0</ele><time>2026-05-02T07:59:57.998Z</time></trkpt><trkpt lat="44.819140460048324" lon="9.665810364787987"><ele>516.5</ele><time>2026-05-02T07:59:59Z</time></trkpt><trkpt lat="44.81904139990243" lon="9.665822539974023"><ele>515.0</ele><time>2026-05-02T08:00:00Z</time></trkpt><trkpt lat="44.81895518864946" lon="9.66581375338264"><ele>513.5</ele><time>2026-05-02T08:00:01Z</time></trkpt><trkpt lat="44.81887641523746" lon="9.665773106980149"><ele>512.0</ele><time>2026-05-02T08:00:02Z</time></trkpt><trkpt lat="44.81880731439537" lon="9.665689734586396"><ele>510.49999999999994</ele><time>2026-05-02T08:00:04Z</time></trkpt><trkpt lat="44.81875313648275" lon="9.665636234191679"><ele>509.0</ele><time>2026-05-02T08:00:07Z</time></trkpt><trkpt lat="44.81866980500033" lon="9.665558735948611"><ele>509.0</ele><time>2026-05-02T08:00:09Z</time></trkpt><trkpt lat="44.81857256589885" lon="9.665446978550598"><ele>509.0</ele><time>2026-05-02T08:00:11Z</time></trkpt><trkpt lat="44.81853737444623" lon="9.665286271353922"><ele>509.0</ele><time>2026-05-02T08:00:13Z</time></trkpt><trkpt lat="44.8185604374562" lon="9.665115751531475"><ele>509.0</ele><time>2026-05-02T08:00:15Z</time></trkpt><trkpt lat="44.818593017119085" lon="9.665033464363962"><ele>509.0</ele><time>2026-05-02T08:00:16Z</time></trkpt><trkpt lat="44.818622106816974" lon="9.664944527707096"><ele>508.79999999999995</ele><time>2026-05-02T08:00:17Z</time></trkpt><trkpt lat="44.818657068222684" lon="9.664825050290192"><ele>508.59999999999997</ele><time>2026-05-02T08:00:18Z</time></trkpt><trkpt lat="44.81867615676046" lon="9.664726328334728"><ele>508.4</ele><time>2026-05-02T08:00:19Z</time></trkpt><trkpt lat="44.81868045224935" lon="9.66456022090154"><ele>508.2</ele><time>2026-05-02T08:00:21Z</time></trkpt><trkpt lat="44.818696384624666" lon="9.664464980195849"><ele>508.0</ele><time>2026-05-02T08:00:22Z</time></trkpt><trkpt lat="44.818791750173716" lon="9.664310587180651"><ele>509.33333333333337</ele><time>2026-05-02T08:00:24Z</time></trkpt><trkpt lat="44.81883869018765" lon="9.664215213680675"><ele>510.6666666666667</ele><time>2026-05-02T08:00:25Z</time></trkpt><trkpt lat="44.818864805631684" lon="9.664118646633783"><ele>512.0</ele><time>2026-05-02T08:00:26Z</time></trkpt><trkpt lat="44.8188999618483" lon="9.664033141003717"><ele>513.3333333333334</ele><time>2026-05-02T08:00:27Z</time></trkpt><trkpt lat="44.81890453998069" lon="9.663941243027631"><ele>514.6666666666666</ele><time>2026-05-02T08:00:28Z</time></trkpt><trkpt lat="44.8188668367832" lon="9.663756207091671"><ele>516.0</ele><time>2026-05-02T08:00:30Z</time></trkpt><trkpt lat="44.81884902060955" lon="9.66357858803678"><ele>517.8</ele><time>2026-05-02T08:00:32Z</time></trkpt><trkpt lat="44.81876017130806" lon="9.663506621613767"><ele>519.6</ele><time>2026-05-02T08:00:34Z</time></trkpt><trkpt lat="44.81871520794263" lon="9.663349901399803"><ele>521.4</ele><time>2026-05-02T08:00:36Z</time></trkpt><trkpt lat="44.81868066650081" lon="9.663198641443888"><ele>523.2</ele><time>2026-05-02T08:00:38Z</time></trkpt><trkpt lat="44.81866059084055" lon="9.663054525093095"><ele>525.0</ele><time>2026-05-02T08:00:39.999Z</time></trkpt><trkpt lat="44.8185962872661" lon="9.662935822904636"><ele>525.0</ele><time>2026-05-02T08:00:41.999Z</time></trkpt><trkpt lat="44.81853978421789" lon="9.66282529037257"><ele>525.0</ele><time>2026-05-02T08:00:43.999Z</time></trkpt><trkpt lat="44.81848927703205" lon="9.662770356383847"><ele>525.0</ele><time>2026-05-02T08:00:44.999Z</time></trkpt><trkpt lat="44.81840593625948" lon="9.662677140412379"><ele>525.0</ele><time>2026-05-02T08:00:46.999Z</time></trkpt><trkpt lat="44.81835731959253" lon="9.662598257268352"><ele>525.0</ele><time>2026-05-02T08:00:48.999Z</time></trkpt><trkpt lat="44.81825439826592" lon="9.662569624928233"><ele>525.0</ele><time>2026-05-02T08:00:51.999Z</time></trkpt><trkpt lat="44.818179133943495" lon="9.662600382410064"><ele>530.0</ele><time>2026-05-02T08:00:53.999Z</time></trkpt><trkpt lat="44.818093314484635" lon="9.662592097175835"><ele>535.0</ele><time>2026-05-02T08:00:55.999Z</time></trkpt><trkpt lat="44.81801626638898" lon="9.662483678999195"><ele>540.0</ele><time>2026-05-02T08:00:57.999Z</time></trkpt><trkpt lat="44.817973153183" lon="9.662356330049008"><ele>545.0</ele><time>2026-05-02T08:00:59.999Z</time></trkpt><trkpt lat="44.81792971005426" lon="9.662242232501006"><ele>550.0</ele><time>2026-05-02T08:01:01.999Z</time></trkpt><trkpt lat="44.81788734689635" lon="9.662141490330747"><ele>550.0</ele><time>2026-05-02T08:01:03.999Z</time></trkpt><trkpt lat="44.81784806577461" lon="9.662071067475019"><ele>550.0</ele><time>2026-05-02T08:01:05.999Z</time></trkpt><trkpt lat="44.81778933299863" lon="9.661981874405287"><ele>550.0</ele><time>2026-05-02T08:01:07.999Z</time></trkpt><trkpt lat="44.81772762942446" lon="9.661851302282951"><ele>550.0</ele><time>2026-05-02T08:01:09.999Z</time></trkpt><trkpt lat="44.81766930503043" lon="9.661695832563238"><ele>550.0</ele><time>2026-05-02T08:01:11.999Z</time></trkpt><trkpt lat="44.81763801868831" lon="9.66160416719481"><ele>550.8571428571429</ele><time>2026-05-02T08:01:12.999Z</time></trkpt><trkpt lat="44.81759074440639" lon="9.661509619871591"><ele>551.7142857142857</ele><time>2026-05-02T08:01:13.999Z</time></trkpt><trkpt lat="44.817548351909174" lon="9.661433699058671"><ele>552.5714285714286</ele><time>2026-05-02T08:01:14.999Z</time></trkpt><trkpt lat="44.81750248207511" lon="9.661362510424004"><ele>553.4285714285714</ele><time>2026-05-02T08:01:15.999Z</time></trkpt><trkpt lat="44.817447736573044" lon="9.66129875733818"><ele>554.2857142857143</ele><time>2026-05-02T08:01:16.999Z</time></trkpt><trkpt lat="44.8173880632108" lon="9.661251581635392"><ele>555.1428571428571</ele><time>2026-05-02T08:01:17.999Z</time></trkpt><trkpt lat="44.8173249092349" lon="9.66121859254797"><ele>556.0</ele><time>2026-05-02T08:01:18.999Z</time></trkpt><trkpt lat="44.81725457250934" lon="9.661186170405966"><ele>556.0</ele><time>2026-05-02T08:01:19.999Z</time></trkpt><trkpt lat="44.81718132366837" lon="9.66113898617983"><ele>556.0</ele><time>2026-05-02T08:01:20.999Z</time></trkpt><trkpt lat="44.81711688802645" lon="9.66107215692112"><ele>556.0</ele><time>2026-05-02T08:01:21.999Z</time></trkpt><trkpt lat="44.817059001961404" lon="9.661002904087583"><ele>556.0</ele><time>2026-05-02T08:01:22.999Z</time></trkpt><trkpt lat="44.817001527145344" lon="9.660936533468941"><ele>556.0</ele><time>2026-05-02T08:01:23.999Z</time></trkpt><trkpt lat="44.816941086937014" lon="9.660852835872195"><ele>556.0</ele><time>2026-05-02T08:01:24.999Z</time></trkpt><trkpt lat="44.8168911611176" lon="9.660779259715225"><ele>556.4285714285714</ele><time>2026-05-02T08:01:25.999Z</time></trkpt><trkpt lat="44.81684245366147" lon="9.660716011295081"><ele>556.8571428571429</ele><time>2026-05-02T08:01:26.999Z</time></trkpt><trkpt lat="44.81679918097443" lon="9.660646874565002"><ele>557.2857142857143</ele><time>2026-05-02T08:01:27.999Z</time></trkpt><trkpt lat="44.81675415795546" lon="9.660582501478071"><ele>557.7142857142858</ele><time>2026-05-02T08:01:28.999Z</time></trkpt><trkpt lat="44.81670520051902" lon="9.660512179302076"><ele>558.1428571428572</ele><time>2026-05-02T08:01:29.999Z</time></trkpt><trkpt lat="44.81666037175434" lon="9.660430745707714"><ele>558.5714285714286</ele><time>2026-05-02T08:01:30.999Z</time></trkpt><trkpt lat="44.816621490847965" lon="9.660340842615144"><ele>559.0</ele><time>2026-05-02T08:01:31.999Z</time></trkpt><trkpt lat="44.81658840591481" lon="9.66024432472456"><ele>560.6666666666667</ele><time>2026-05-02T08:01:32.999Z</time></trkpt><trkpt lat="44.816556174231266" lon="9.660143711499966"><ele>562.3333333333334</ele><time>2026-05-02T08:01:33.999Z</time></trkpt><trkpt lat="44.81652727911293" lon="9.660051214819429"><ele>564.0</ele><time>2026-05-02T08:01:34.999Z</time></trkpt><trkpt lat="44.8164993668415" lon="9.659958790722818"><ele>565.6666666666666</ele><time>2026-05-02T08:01:35.999Z</time></trkpt><trkpt lat="44.81645461888702" lon="9.659869366227396"><ele>567.3333333333333</ele><time>2026-05-02T08:01:36.999Z</time></trkpt><trkpt lat="44.81640191029125" lon="9.659783072616245"><ele>569.0</ele><time>2026-05-02T08:01:37.999Z</time></trkpt><trkpt lat="44.81634342506877" lon="9.659706609330703"><ele>569.0</ele><time>2026-05-02T08:01:38.999Z</time></trkpt><trkpt lat="44.81627194554346" lon="9.659630317518765"><ele>569.0</ele><time>2026-05-02T08:01:39.999Z</time></trkpt><trkpt lat="44.81619069000996" lon="9.659563413785555"><ele>569.0</ele><time>2026-05-02T08:01:40.999Z</time></trkpt><trkpt lat="44.81610354331643" lon="9.659501832846846"><ele>569.0</ele><time>2026-05-02T08:01:41.999Z</time></trkpt><trkpt lat="44.81601018438678" lon="9.659438818234186"><ele>569.0</ele><time>2026-05-02T08:01:42.999Z</time></trkpt><trkpt lat="44.81593720123514" lon="9.659395742933485"><ele>569.3333333333333</ele><time>2026-05-02T08:01:43.999Z</time></trkpt><trkpt lat="44.815859384782314" lon="9.659362511634312"><ele>569.6666666666666</ele><time>2026-05-02T08:01:44.999Z</time></trkpt><trkpt lat="44.81578622000368" lon="9.659312899511121"><ele>570.0</ele><time>2026-05-02T08:01:45.999Z</time></trkpt><trkpt lat="44.815712340236004" lon="9.659273201931594"><ele>570.3333333333334</ele><time>2026-05-02T08:01:46.999Z</time></trkpt><trkpt lat="44.81565234760031" lon="9.65920256569929"><ele>570.6666666666667</ele><time>2026-05-02T08:01:47.998Z</time></trkpt><trkpt lat="44.815581422288325" lon="9.659120363602835"><ele>571.0</ele><time>2026-05-02T08:01:48.998Z</time></trkpt><trkpt lat="44.815513520144066" lon="9.65902765148633"><ele>571.0</ele><time>2026-05-02T08:01:49.998Z</time></trkpt><trkpt lat="44.81544329038095" lon="9.658916097972229"><ele>571.0</ele><time>2026-05-02T08:01:50.998Z</time></trkpt><trkpt lat="44.815374193844654" lon="9.658804804746095"><ele>571.0</ele><time>2026-05-02T08:01:51.998Z</time></trkpt><trkpt lat="44.81529911418545" lon="9.658701207513678"><ele>571.0</ele><time>2026-05-02T08:01:52.998Z</time></trkpt><trkpt lat="44.81523309324194" lon="9.658599398728756"><ele>571.0</ele><time>2026-05-02T08:01:53.998Z</time></trkpt><trkpt lat="44.815173690804755" lon="9.6585012431008"><ele>570.8</ele><time>2026-05-02T08:01:54.998Z</time></trkpt><trkpt lat="44.815111892339935" lon="9.658406488112929"><ele>570.6</ele><time>2026-05-02T08:01:55.998Z</time></trkpt><trkpt lat="44.8150316512591" lon="9.658313477812278"><ele>570.4</ele><time>2026-05-02T08:01:56.998Z</time></trkpt><trkpt lat="44.81494222958854" lon="9.658232646204452"><ele>570.2</ele><time>2026-05-02T08:01:57.998Z</time></trkpt><trkpt lat="44.81486600976786" lon="9.65815501098538"><ele>570.0</ele><time>2026-05-02T08:01:58.998Z</time></trkpt><trkpt lat="44.814785074769304" lon="9.658072588778186"><ele>570.0</ele><time>2026-05-02T08:01:59.998Z</time></trkpt><trkpt lat="44.81472727880612" lon="9.657993562468347"><ele>570.0</ele><time>2026-05-02T08:02:00.998Z</time></trkpt><trkpt lat="44.81466718868251" lon="9.657920798641431"><ele>570.0</ele><time>2026-05-02T08:02:01.998Z</time></trkpt><trkpt lat="44.81460776009006" lon="9.657844451431847"><ele>570.0</ele><time>2026-05-02T08:02:02.998Z</time></trkpt><trkpt lat="44.81455176934527" lon="9.657781619378161"><ele>570.0</ele><time>2026-05-02T08:02:03.998Z</time></trkpt><trkpt lat="44.814494525809025" lon="9.657709032432038"><ele>570.0</ele><time>2026-05-02T08:02:05Z</time></trkpt><trkpt lat="44.81444244572343" lon="9.657643603176373"><ele>570.6666666666666</ele><time>2026-05-02T08:02:06Z</time></trkpt><trkpt lat="44.81438748991518" lon="9.657599665628778"><ele>571.3333333333334</ele><time>2026-05-02T08:02:07Z</time></trkpt><trkpt lat="44.81432233366115" lon="9.657565765990908"><ele>572.0</ele><time>2026-05-02T08:02:08Z</time></trkpt><trkpt lat="44.81425443286778" lon="9.657487290337448"><ele>572.6666666666667</ele><time>2026-05-02T08:02:09Z</time></trkpt><trkpt lat="44.814199761816944" lon="9.657381037895394"><ele>573.3333333333334</ele><time>2026-05-02T08:02:10Z</time></trkpt><trkpt lat="44.81414920334067" lon="9.657238600492056"><ele>574.0</ele><time>2026-05-02T08:02:11Z</time></trkpt><trkpt lat="44.814105586079215" lon="9.657095752264892"><ele>578.5</ele><time>2026-05-02T08:02:12Z</time></trkpt><trkpt lat="44.81407009298024" lon="9.656947717043957"><ele>583.0</ele><time>2026-05-02T08:02:13Z</time></trkpt><trkpt lat="44.814030528727876" lon="9.656802689709073"><ele>587.5</ele><time>2026-05-02T08:02:14Z</time></trkpt><trkpt lat="44.81398634851172" lon="9.656648008450295"><ele>592.0</ele><time>2026-05-02T08:02:15Z</time></trkpt><trkpt lat="44.813943356925776" lon="9.656497874380403"><ele>592.0</ele><time>2026-05-02T08:02:16Z</time></trkpt><trkpt lat="44.81390165838243" lon="9.656356487853328"><ele>592.0</ele><time>2026-05-02T08:02:17Z</time></trkpt><trkpt lat="44.813860620304986" lon="9.656220064421005"><ele>592.0</ele><time>2026-05-02T08:02:18Z</time></trkpt><trkpt lat="44.8138130031064" lon="9.656091549143065"><ele>592.0</ele><time>2026-05-02T08:02:19Z</time></trkpt><trkpt lat="44.81376003393494" lon="9.65597640814593"><ele>592.0</ele><time>2026-05-02T08:02:20Z</time></trkpt><trkpt lat="44.81369982926621" lon="9.655886338530483"><ele>591.6666666666667</ele><time>2026-05-02T08:02:21Z</time></trkpt><trkpt lat="44.813635639243365" lon="9.655812608896788"><ele>591.3333333333334</ele><time>2026-05-02T08:02:22Z</time></trkpt><trkpt lat="44.81358097525613" lon="9.655732397669324"><ele>591.0</ele><time>2026-05-02T08:02:23Z</time></trkpt><trkpt lat="44.81354562109127" lon="9.655628153251836"><ele>590.6666666666666</ele><time>2026-05-02T08:02:24Z</time></trkpt><trkpt lat="44.81352432380275" lon="9.655506976129017"><ele>590.3333333333333</ele><time>2026-05-02T08:02:25Z</time></trkpt><trkpt lat="44.81350902741898" lon="9.655380513289316"><ele>590.0</ele><time>2026-05-02T08:02:26Z</time></trkpt><trkpt lat="44.813500078315855" lon="9.655241651672705"><ele>590.1666666666666</ele><time>2026-05-02T08:02:27Z</time></trkpt><trkpt lat="44.81349071517513" lon="9.65510748032288"><ele>590.3333333333333</ele><time>2026-05-02T08:02:28Z</time></trkpt><trkpt lat="44.813482616356296" lon="9.654987705705654"><ele>590.5</ele><time>2026-05-02T08:02:29Z</time></trkpt><trkpt lat="44.81347600467363" lon="9.654873262265816"><ele>590.6666666666666</ele><time>2026-05-02T08:02:30Z</time></trkpt><trkpt lat="44.81346926837363" lon="9.654770919450556"><ele>590.8333333333334</ele><time>2026-05-02T08:02:31Z</time></trkpt><trkpt lat="44.81346109527208" lon="9.654671306887451"><ele>591.0</ele><time>2026-05-02T08:02:32Z</time></trkpt><trkpt lat="44.81340924606729" lon="9.654513184382157"><ele>591.0</ele><time>2026-05-02T08:02:34Z</time></trkpt><trkpt lat="44.813346728518084" lon="9.654473132305094"><ele>591.0</ele><time>2026-05-02T08:02:35Z</time></trkpt><trkpt lat="44.81328090331992" lon="9.654450450051034"><ele>591.0</ele><time>2026-05-02T08:02:36Z</time></trkpt><trkpt lat="44.81320306897759" lon="9.654438757360595"><ele>591.0</ele><time>2026-05-02T08:02:37Z</time></trkpt><trkpt lat="44.81311428157867" lon="9.654440132931425"><ele>591.0</ele><time>2026-05-02T08:02:38Z</time></trkpt><trkpt lat="44.813025612120235" lon="9.654466268788614"><ele>591.0</ele><time>2026-05-02T08:02:39Z</time></trkpt><trkpt lat="44.81295406313539" lon="9.65450831511393"><ele>591.0</ele><time>2026-05-02T08:02:40Z</time></trkpt><trkpt lat="44.81288180947628" lon="9.654568307002663"><ele>591.0</ele><time>2026-05-02T08:02:41Z</time></trkpt><trkpt lat="44.81281552968143" lon="9.654647004895338"><ele>591.0</ele><time>2026-05-02T08:02:42Z</time></trkpt><trkpt lat="44.812762337264395" lon="9.654722066849201"><ele>591.0</ele><time>2026-05-02T08:02:43Z</time></trkpt><trkpt lat="44.81271206366744" lon="9.654777736523757"><ele>591.0</ele><time>2026-05-02T08:02:44Z</time></trkpt><trkpt lat="44.81261659571541" lon="9.65481618895128"><ele>591.0</ele><time>2026-05-02T08:02:46Z</time></trkpt><trkpt lat="44.81252179215512" lon="9.654727045098864"><ele>589.5714285714286</ele><time>2026-05-02T08:02:48Z</time></trkpt><trkpt lat="44.812488423413626" lon="9.6546383219476"><ele>588.1428571428571</ele><time>2026-05-02T08:02:48.999Z</time></trkpt><trkpt lat="44.81245863769329" lon="9.654554880475494"><ele>586.7142857142858</ele><time>2026-05-02T08:02:49.999Z</time></trkpt><trkpt lat="44.812411187116524" lon="9.65448919401561"><ele>585.2857142857142</ele><time>2026-05-02T08:02:50.999Z</time></trkpt><trkpt lat="44.812343181573404" lon="9.654454696060492"><ele>583.8571428571429</ele><time>2026-05-02T08:02:51.999Z</time></trkpt><trkpt lat="44.81226790085786" lon="9.65445543227871"><ele>582.4285714285714</ele><time>2026-05-02T08:02:52.999Z</time></trkpt><trkpt lat="44.81218461142543" lon="9.654490285883478"><ele>581.0</ele><time>2026-05-02T08:02:53.999Z</time></trkpt><trkpt lat="44.81208613756176" lon="9.654548733993055"><ele>581.0</ele><time>2026-05-02T08:02:54.999Z</time></trkpt><trkpt lat="44.811987971048055" lon="9.654621830336664"><ele>581.0</ele><time>2026-05-02T08:02:55.999Z</time></trkpt><trkpt lat="44.8118987180042" lon="9.654698871271274"><ele>581.0</ele><time>2026-05-02T08:02:56.999Z</time></trkpt><trkpt lat="44.81181015680336" lon="9.654773376778458"><ele>581.0</ele><time>2026-05-02T08:02:57.999Z</time></trkpt><trkpt lat="44.811720875507476" lon="9.65481892027164"><ele>581.0</ele><time>2026-05-02T08:02:58.999Z</time></trkpt><trkpt lat="44.811623150357455" lon="9.654829594097047"><ele>580.0</ele><time>2026-05-02T08:02:59.999Z</time></trkpt><trkpt lat="44.81152671185443" lon="9.654825453374023"><ele>579.0</ele><time>2026-05-02T08:03:00.999Z</time></trkpt><trkpt lat="44.8114319214902" lon="9.654824563221236"><ele>578.0</ele><time>2026-05-02T08:03:01.999Z</time></trkpt><trkpt lat="44.811345179622236" lon="9.654823289453642"><ele>577.0</ele><time>2026-05-02T08:03:02.999Z</time></trkpt><trkpt lat="44.81126624856729" lon="9.654814048757082"><ele>576.0</ele><time>2026-05-02T08:03:03.999Z</time></trkpt><trkpt lat="44.81119135755511" lon="9.654786471160486"><ele>575.0</ele><time>2026-05-02T08:03:04.999Z</time></trkpt><trkpt lat="44.81111545367688" lon="9.654759314038886"><ele>575.0</ele><time>2026-05-02T08:03:05.999Z</time></trkpt><trkpt lat="44.811028251954056" lon="9.654730935599876"><ele>575.0</ele><time>2026-05-02T08:03:06.999Z</time></trkpt><trkpt lat="44.81093955258432" lon="9.654703930748312"><ele>575.0</ele><time>2026-05-02T08:03:07.999Z</time></trkpt><trkpt lat="44.810846495297305" lon="9.654677975327031"><ele>575.0</ele><time>2026-05-02T08:03:08.999Z</time></trkpt><trkpt lat="44.8107550161093" lon="9.654642879919578"><ele>575.0</ele><time>2026-05-02T08:03:09.999Z</time></trkpt><trkpt lat="44.810671752144444" lon="9.654577755249019"><ele>575.2</ele><time>2026-05-02T08:03:10.999Z</time></trkpt><trkpt lat="44.81058200796445" lon="9.654515416954037"><ele>575.4</ele><time>2026-05-02T08:03:11.999Z</time></trkpt><trkpt lat="44.81049011030051" lon="9.654502265836921"><ele>575.6</ele><time>2026-05-02T08:03:12.999Z</time></trkpt><trkpt lat="44.81040040781402" lon="9.654515357794121"><ele>575.8</ele><time>2026-05-02T08:03:13.999Z</time></trkpt><trkpt lat="44.810306551701004" lon="9.654539592295261"><ele>576.0</ele><time>2026-05-02T08:03:14.999Z</time></trkpt><trkpt lat="44.81021855451952" lon="9.654569284025683"><ele>578.2</ele><time>2026-05-02T08:03:15.999Z</time></trkpt><trkpt lat="44.81013095790901" lon="9.654597217224103"><ele>580.4000000000001</ele><time>2026-05-02T08:03:16.999Z</time></trkpt><trkpt lat="44.81004158546688" lon="9.654644872065829"><ele>582.6</ele><time>2026-05-02T08:03:17.999Z</time></trkpt><trkpt lat="44.809953929086284" lon="9.654717319584178"><ele>584.8000000000001</ele><time>2026-05-02T08:03:18.999Z</time></trkpt><trkpt lat="44.80987628806839" lon="9.65481299572225"><ele>587.0</ele><time>2026-05-02T08:03:19.999Z</time></trkpt><trkpt lat="44.80980433640212" lon="9.654908887246624"><ele>587.0</ele><time>2026-05-02T08:03:20.999Z</time></trkpt><trkpt lat="44.80974279688173" lon="9.655012233556436"><ele>587.0</ele><time>2026-05-02T08:03:21.999Z</time></trkpt><trkpt lat="44.80969434941765" lon="9.655101319029766"><ele>587.0</ele><time>2026-05-02T08:03:22.999Z</time></trkpt><trkpt lat="44.809593177908276" lon="9.655152889816499"><ele>587.0</ele><time>2026-05-02T08:03:24.999Z</time></trkpt><trkpt lat="44.8094786860332" lon="9.655077597337332"><ele>587.0</ele><time>2026-05-02T08:03:26.999Z</time></trkpt><trkpt lat="44.809425270956126" lon="9.655000981320574"><ele>587.0</ele><time>2026-05-02T08:03:27.999Z</time></trkpt><trkpt lat="44.80937391002751" lon="9.654902181446111"><ele>587.0</ele><time>2026-05-02T08:03:28.999Z</time></trkpt><trkpt lat="44.809315736161174" lon="9.654802772845406"><ele>587.0</ele><time>2026-05-02T08:03:29.999Z</time></trkpt><trkpt lat="44.809244161338455" lon="9.654705388718705"><ele>587.0</ele><time>2026-05-02T08:03:30.999Z</time></trkpt><trkpt lat="44.80916866902595" lon="9.654603852016175"><ele>587.0</ele><time>2026-05-02T08:03:31.999Z</time></trkpt><trkpt lat="44.80909400283284" lon="9.654523623905298"><ele>589.2</ele><time>2026-05-02T08:03:32.999Z</time></trkpt><trkpt lat="44.809003106121146" lon="9.65446326278372"><ele>591.4000000000001</ele><time>2026-05-02T08:03:33.999Z</time></trkpt><trkpt lat="44.8089018425252" lon="9.654414837868435"><ele>593.5999999999999</ele><time>2026-05-02T08:03:34.999Z</time></trkpt><trkpt lat="44.8088071475704" lon="9.654352491566744"><ele>595.8</ele><time>2026-05-02T08:03:35.999Z</time></trkpt><trkpt lat="44.80872180629755" lon="9.654273061419197"><ele>598.0</ele><time>2026-05-02T08:03:36.999Z</time></trkpt><trkpt lat="44.80865957430518" lon="9.654178188808617"><ele>598.1666666666667</ele><time>2026-05-02T08:03:37.999Z</time></trkpt><trkpt lat="44.80861718708971" lon="9.654072827348099"><ele>598.3333333333334</ele><time>2026-05-02T08:03:38.999Z</time></trkpt><trkpt lat="44.80858889359779" lon="9.653953305160995"><ele>598.5</ele><time>2026-05-02T08:03:39.999Z</time></trkpt><trkpt lat="44.808586832869175" lon="9.653832664479582"><ele>598.6666666666666</ele><time>2026-05-02T08:03:40.999Z</time></trkpt><trkpt lat="44.80858578009227" lon="9.653736770899577"><ele>598.8333333333333</ele><time>2026-05-02T08:03:41.999Z</time></trkpt><trkpt lat="44.808515994144635" lon="9.653609619967712"><ele>599.0</ele><time>2026-05-02T08:03:43.999Z</time></trkpt><trkpt lat="44.80839374135484" lon="9.653615121326293"><ele>602.2</ele><time>2026-05-02T08:03:45.999Z</time></trkpt><trkpt lat="44.808292381472725" lon="9.653732240126537"><ele>605.4</ele><time>2026-05-02T08:03:47.999Z</time></trkpt><trkpt lat="44.80824141673628" lon="9.653820541429932"><ele>608.6</ele><time>2026-05-02T08:03:48.999Z</time></trkpt><trkpt lat="44.80819304908996" lon="9.65392137677695"><ele>611.8</ele><time>2026-05-02T08:03:49.999Z</time></trkpt><trkpt lat="44.8081493245063" lon="9.654029086048032"><ele>615.0</ele><time>2026-05-02T08:03:50.999Z</time></trkpt><trkpt lat="44.80810698817684" lon="9.654153917314789"><ele>615.0</ele><time>2026-05-02T08:03:51.999Z</time></trkpt><trkpt lat="44.808056676588414" lon="9.654286297799944"><ele>615.0</ele><time>2026-05-02T08:03:52.999Z</time></trkpt><trkpt lat="44.8079921604445" lon="9.654422923129902"><ele>615.0</ele><time>2026-05-02T08:03:53.999Z</time></trkpt><trkpt lat="44.8079442167712" lon="9.65456444947316"><ele>615.0</ele><time>2026-05-02T08:03:54.999Z</time></trkpt><trkpt lat="44.80791550334491" lon="9.654735330173505"><ele>614.8</ele><time>2026-05-02T08:03:55.999Z</time></trkpt><trkpt lat="44.80789779341041" lon="9.654922855801448"><ele>614.6</ele><time>2026-05-02T08:03:56.999Z</time></trkpt><trkpt lat="44.80787936708052" lon="9.655085717065313"><ele>614.4</ele><time>2026-05-02T08:03:57.999Z</time></trkpt><trkpt lat="44.80785879508527" lon="9.655216153602296"><ele>614.2</ele><time>2026-05-02T08:03:58.998Z</time></trkpt><trkpt lat="44.80782420721408" lon="9.655318644598868"><ele>614.0</ele><time>2026-05-02T08:03:59.998Z</time></trkpt><trkpt lat="44.80777196394083" lon="9.655402211808529"><ele>614.0</ele><time>2026-05-02T08:04:00.998Z</time></trkpt><trkpt lat="44.80770953751932" lon="9.655474085101298"><ele>614.0</ele><time>2026-05-02T08:04:01.998Z</time></trkpt><trkpt lat="44.80766470037513" lon="9.65555215473444"><ele>614.0</ele><time>2026-05-02T08:04:02.998Z</time></trkpt><trkpt lat="44.807655323045836" lon="9.65564581611915"><ele>614.0</ele><time>2026-05-02T08:04:03.998Z</time></trkpt><trkpt lat="44.80768026511616" lon="9.655742142823199"><ele>614.0</ele><time>2026-05-02T08:04:04.998Z</time></trkpt><trkpt lat="44.80772998098972" lon="9.655828535767355"><ele>614.0</ele><time>2026-05-02T08:04:05.998Z</time></trkpt><trkpt lat="44.80779398954625" lon="9.655910391309027"><ele>614.0</ele><time>2026-05-02T08:04:06.998Z</time></trkpt><trkpt lat="44.80785384507055" lon="9.656010639030862"><ele>614.0</ele><time>2026-05-02T08:04:07.998Z</time></trkpt><trkpt lat="44.80789252483604" lon="9.65612597949955"><ele>614.0</ele><time>2026-05-02T08:04:08.998Z</time></trkpt><trkpt lat="44.807903156374586" lon="9.65624498828063"><ele>614.0</ele><time>2026-05-02T08:04:09.998Z</time></trkpt><trkpt lat="44.80788193078131" lon="9.656351976860723"><ele>614.0</ele><time>2026-05-02T08:04:11Z</time></trkpt><trkpt lat="44.80783990614122" lon="9.656438395523512"><ele>614.0</ele><time>2026-05-02T08:04:12Z</time></trkpt><trkpt lat="44.80777867465981" lon="9.656522190482054"><ele>614.2</ele><time>2026-05-02T08:04:13Z</time></trkpt><trkpt lat="44.807709185851365" lon="9.656599553487023"><ele>614.4</ele><time>2026-05-02T08:04:14Z</time></trkpt><trkpt lat="44.80764146514197" lon="9.656684237940242"><ele>614.6</ele><time>2026-05-02T08:04:15Z</time></trkpt><trkpt lat="44.807590984402765" lon="9.656803319964776"><ele>614.8</ele><time>2026-05-02T08:04:16Z</time></trkpt><trkpt lat="44.80755128390252" lon="9.656929317719573"><ele>615.0</ele><time>2026-05-02T08:04:17Z</time></trkpt><trkpt lat="44.8075149080034" lon="9.657049887238367"><ele>620.5</ele><time>2026-05-02T08:04:18Z</time></trkpt><trkpt lat="44.807475464921595" lon="9.657163678196483"><ele>626.0</ele><time>2026-05-02T08:04:19Z</time></trkpt><trkpt lat="44.80742743762295" lon="9.657270784397019"><ele>631.5</ele><time>2026-05-02T08:04:20Z</time></trkpt><trkpt lat="44.80736715069837" lon="9.657349193243965"><ele>637.0</ele><time>2026-05-02T08:04:21Z</time></trkpt><trkpt lat="44.807306438888496" lon="9.657414668653379"><ele>642.5</ele><time>2026-05-02T08:04:22Z</time></trkpt><trkpt lat="44.807266626805024" lon="9.657486895672761"><ele>648.0</ele><time>2026-05-02T08:04:23Z</time></trkpt><trkpt lat="44.8072778285555" lon="9.657659595347095"><ele>648.0</ele><time>2026-05-02T08:04:25Z</time></trkpt><trkpt lat="44.807320259123024" lon="9.657750087541418"><ele>648.0</ele><time>2026-05-02T08:04:26Z</time></trkpt><trkpt lat="44.80737514675093" lon="9.65783301625011"><ele>648.0</ele><time>2026-05-02T08:04:27Z</time></trkpt><trkpt lat="44.80741604903477" lon="9.657934468465474"><ele>648.0</ele><time>2026-05-02T08:04:28Z</time></trkpt><trkpt lat="44.80744313175496" lon="9.658039069170174"><ele>648.0</ele><time>2026-05-02T08:04:29Z</time></trkpt><trkpt lat="44.80744119710788" lon="9.658134759771217"><ele>648.0</ele><time>2026-05-02T08:04:30Z</time></trkpt><trkpt lat="44.807401896517966" lon="9.658206639088302"><ele>647.3333333333334</ele><time>2026-05-02T08:04:31Z</time></trkpt><trkpt lat="44.8073420262284" lon="9.65826714907505"><ele>646.6666666666666</ele><time>2026-05-02T08:04:32Z</time></trkpt><trkpt lat="44.80726524807612" lon="9.658299750328554"><ele>646.0</ele><time>2026-05-02T08:04:33Z</time></trkpt><trkpt lat="44.807176870057866" lon="9.658327523282312"><ele>645.3333333333333</ele><time>2026-05-02T08:04:34Z</time></trkpt><trkpt lat="44.80709096172633" lon="9.65836503847322"><ele>644.6666666666666</ele><time>2026-05-02T08:04:35Z</time></trkpt><trkpt lat="44.807008150755145" lon="9.658417697129376"><ele>644.0</ele><time>2026-05-02T08:04:36Z</time></trkpt><trkpt lat="44.806937377680725" lon="9.658494432609448"><ele>644.0</ele><time>2026-05-02T08:04:37Z</time></trkpt><trkpt lat="44.80686813390809" lon="9.658579205342381"><ele>644.0</ele><time>2026-05-02T08:04:38Z</time></trkpt><trkpt lat="44.80677212906535" lon="9.65863957516559"><ele>644.0</ele><time>2026-05-02T08:04:39Z</time></trkpt><trkpt lat="44.80667989601672" lon="9.658655336133323"><ele>644.0</ele><time>2026-05-02T08:04:40Z</time></trkpt><trkpt lat="44.80658247641254" lon="9.658654767000607"><ele>644.0</ele><time>2026-05-02T08:04:41Z</time></trkpt><trkpt lat="44.80647727967423" lon="9.658643353200429"><ele>647.2</ele><time>2026-05-02T08:04:42Z</time></trkpt><trkpt lat="44.80637097480195" lon="9.658608423405704"><ele>650.4000000000001</ele><time>2026-05-02T08:04:43Z</time></trkpt><trkpt lat="44.80626794068776" lon="9.658589435032026"><ele>653.6</ele><time>2026-05-02T08:04:44Z</time></trkpt><trkpt lat="44.806170527867714" lon="9.658560418690799"><ele>656.8</ele><time>2026-05-02T08:04:45Z</time></trkpt><trkpt lat="44.80607976560872" lon="9.658507350752012"><ele>660.0</ele><time>2026-05-02T08:04:46Z</time></trkpt><trkpt lat="44.8059957407852" lon="9.658446912750046"><ele>660.0</ele><time>2026-05-02T08:04:47Z</time></trkpt><trkpt lat="44.80589992883307" lon="9.658397528511143"><ele>660.0</ele><time>2026-05-02T08:04:48Z</time></trkpt><trkpt lat="44.805799768427875" lon="9.658378788401773"><ele>660.0</ele><time>2026-05-02T08:04:49Z</time></trkpt><trkpt lat="44.80569698091674" lon="9.658370612660285"><ele>660.0</ele><time>2026-05-02T08:04:50Z</time></trkpt><trkpt lat="44.80559957955255" lon="9.658399319161008"><ele>660.0</ele><time>2026-05-02T08:04:51Z</time></trkpt><trkpt lat="44.805503237278195" lon="9.658405138481143"><ele>660.0</ele><time>2026-05-02T08:04:52Z</time></trkpt><trkpt lat="44.80540523586366" lon="9.658359031851987"><ele>660.0</ele><time>2026-05-02T08:04:53Z</time></trkpt><trkpt lat="44.805318234041465" lon="9.658320097629167"><ele>660.0</ele><time>2026-05-02T08:04:54Z</time></trkpt><trkpt lat="44.80523563806391" lon="9.658323805166699"><ele>660.0</ele><time>2026-05-02T08:04:54.999Z</time></trkpt><trkpt lat="44.805143916322685" lon="9.658376658166413"><ele>660.0</ele><time>2026-05-02T08:04:55.999Z</time></trkpt><trkpt lat="44.80506236960571" lon="9.65845153616281"><ele>660.6</ele><time>2026-05-02T08:04:56.999Z</time></trkpt><trkpt lat="44.804966130256695" lon="9.65851174106331"><ele>661.2</ele><time>2026-05-02T08:04:57.999Z</time></trkpt><trkpt lat="44.8048668163013" lon="9.658522754384249"><ele>661.8</ele><time>2026-05-02T08:04:58.999Z</time></trkpt><trkpt lat="44.80476810827461" lon="9.658558878232874"><ele>662.4</ele><time>2026-05-02T08:04:59.999Z</time></trkpt><trkpt lat="44.80468036676426" lon="9.658606522754688"><ele>663.0</ele><time>2026-05-02T08:05:00.999Z</time></trkpt><trkpt lat="44.804591680889" lon="9.65867113698538"><ele>660.8333333333334</ele><time>2026-05-02T08:05:01.999Z</time></trkpt><trkpt lat="44.80453012276893" lon="9.6587456706425"><ele>658.6666666666666</ele><time>2026-05-02T08:05:02.999Z</time></trkpt><trkpt lat="44.80449870397007" lon="9.658834559114384"><ele>656.5</ele><time>2026-05-02T08:05:03.999Z</time></trkpt><trkpt lat="44.8045169352254" lon="9.659017594923354"><ele>654.3333333333333</ele><time>2026-05-02T08:05:05.999Z</time></trkpt><trkpt lat="44.80455933649594" lon="9.659115061361026"><ele>652.1666666666666</ele><time>2026-05-02T08:05:06.999Z</time></trkpt><trkpt lat="44.80460661602594" lon="9.659203557508372"><ele>650.0</ele><time>2026-05-02T08:05:07.999Z</time></trkpt><trkpt lat="44.80465398132933" lon="9.659296454663654"><ele>650.8</ele><time>2026-05-02T08:05:08.999Z</time></trkpt><trkpt lat="44.80468496557731" lon="9.65945153010496"><ele>651.6</ele><time>2026-05-02T08:05:09.999Z</time></trkpt><trkpt lat="44.80471922123355" lon="9.659578161048454"><ele>652.4000000000001</ele><time>2026-05-02T08:05:10.999Z</time></trkpt><trkpt lat="44.80474391972184" lon="9.65970547490928"><ele>653.2</ele><time>2026-05-02T08:05:11.999Z</time></trkpt><trkpt lat="44.80475786539837" lon="9.659830635520002"><ele>654.0</ele><time>2026-05-02T08:05:12.999Z</time></trkpt><trkpt lat="44.80475805328784" lon="9.659981948634622"><ele>654.0</ele><time>2026-05-02T08:05:13.999Z</time></trkpt><trkpt lat="44.80473837591833" lon="9.660135348771211"><ele>654.0</ele><time>2026-05-02T08:05:14.999Z</time></trkpt><trkpt lat="44.804721956134564" lon="9.660262937768819"><ele>654.0</ele><time>2026-05-02T08:05:15.999Z</time></trkpt><trkpt lat="44.80471232865194" lon="9.660370670049335"><ele>654.0</ele><time>2026-05-02T08:05:16.999Z</time></trkpt><trkpt lat="44.80468871315509" lon="9.660501391512378"><ele>654.0</ele><time>2026-05-02T08:05:18.999Z</time></trkpt><trkpt lat="44.80472361504378" lon="9.660583246848514"><ele>654.0</ele><time>2026-05-02T08:05:21.999Z</time></trkpt><trkpt lat="44.80477275699731" lon="9.660649627024334"><ele>655.6</ele><time>2026-05-02T08:05:24.999Z</time></trkpt><trkpt lat="44.804829080374994" lon="9.660747584058658"><ele>657.2</ele><time>2026-05-02T08:05:27.999Z</time></trkpt><trkpt lat="44.804880943514036" lon="9.660855442457581"><ele>658.8000000000001</ele><time>2026-05-02T08:05:29.999Z</time></trkpt><trkpt lat="44.80488637181323" lon="9.66101823047404"><ele>660.4000000000001</ele><time>2026-05-02T08:05:31.999Z</time></trkpt><trkpt lat="44.804871567413265" lon="9.661105671736049"><ele>662.0</ele><time>2026-05-02T08:05:32.999Z</time></trkpt><trkpt lat="44.80484383477057" lon="9.661271495608403"><ele>662.4000000000001</ele><time>2026-05-02T08:05:34.999Z</time></trkpt><trkpt lat="44.80479901921839" lon="9.6614270491877"><ele>662.8000000000001</ele><time>2026-05-02T08:05:36.999Z</time></trkpt><trkpt lat="44.80478552153483" lon="9.661595938825839"><ele>663.2</ele><time>2026-05-02T08:05:38.999Z</time></trkpt><trkpt lat="44.80479598171563" lon="9.661688163312249"><ele>663.6</ele><time>2026-05-02T08:05:39.999Z</time></trkpt><trkpt lat="44.80481701441885" lon="9.661798634497861"><ele>664.0</ele><time>2026-05-02T08:05:40.999Z</time></trkpt><trkpt lat="44.80484168742591" lon="9.66190844061203"><ele>662.3333333333334</ele><time>2026-05-02T08:05:41.999Z</time></trkpt><trkpt lat="44.80486238393108" lon="9.662015477123823"><ele>660.6666666666667</ele><time>2026-05-02T08:05:42.999Z</time></trkpt><trkpt lat="44.80487648975273" lon="9.66212544077479"><ele>659.0</ele><time>2026-05-02T08:05:43.999Z</time></trkpt><trkpt lat="44.8048860144524" lon="9.66223732230151"><ele>657.3333333333334</ele><time>2026-05-02T08:05:44.999Z</time></trkpt><trkpt lat="44.8048998857502" lon="9.662339041612434"><ele>655.6666666666666</ele><time>2026-05-02T08:05:45.999Z</time></trkpt><trkpt lat="44.80493388641784" lon="9.662452157451709"><ele>654.0</ele><time>2026-05-02T08:05:46.999Z</time></trkpt><trkpt lat="44.804991205422226" lon="9.662575284130162"><ele>654.0</ele><time>2026-05-02T08:05:47.999Z</time></trkpt><trkpt lat="44.805057593436956" lon="9.662681014918276"><ele>654.0</ele><time>2026-05-02T08:05:48.999Z</time></trkpt><trkpt lat="44.80512145426351" lon="9.662785813400598"><ele>654.0</ele><time>2026-05-02T08:05:49.999Z</time></trkpt><trkpt lat="44.8051686987394" lon="9.662903193310633"><ele>654.0</ele><time>2026-05-02T08:05:50.999Z</time></trkpt><trkpt lat="44.80521736886562" lon="9.663024404610852"><ele>654.0</ele><time>2026-05-02T08:05:51.999Z</time></trkpt><trkpt lat="44.80527823551811" lon="9.663121310195224"><ele>651.6666666666666</ele><time>2026-05-02T08:05:52.999Z</time></trkpt><trkpt lat="44.80535075126223" lon="9.663181132963306"><ele>649.3333333333334</ele><time>2026-05-02T08:05:53.999Z</time></trkpt><trkpt lat="44.80542521892158" lon="9.663206205679709"><ele>647.0</ele><time>2026-05-02T08:05:54.999Z</time></trkpt><trkpt lat="44.80549562868673" lon="9.66324197818606"><ele>644.6666666666667</ele><time>2026-05-02T08:05:55.999Z</time></trkpt><trkpt lat="44.805549971640374" lon="9.663325205776017"><ele>642.3333333333334</ele><time>2026-05-02T08:05:56.999Z</time></trkpt><trkpt lat="44.805592407631934" lon="9.663434495036332"><ele>640.0</ele><time>2026-05-02T08:05:57.999Z</time></trkpt><trkpt lat="44.80560881045115" lon="9.663561010967957"><ele>637.5</ele><time>2026-05-02T08:05:58.999Z</time></trkpt><trkpt lat="44.80561636902844" lon="9.663681710032684"><ele>635.0</ele><time>2026-05-02T08:05:59.999Z</time></trkpt><trkpt lat="44.805600574480174" lon="9.663805039875784"><ele>632.5</ele><time>2026-05-02T08:06:00.999Z</time></trkpt><trkpt lat="44.80558164761949" lon="9.66391967025875"><ele>630.0</ele><time>2026-05-02T08:06:01.999Z</time></trkpt><trkpt lat="44.805568632294055" lon="9.664032529892374"><ele>627.5</ele><time>2026-05-02T08:06:02.999Z</time></trkpt><trkpt lat="44.80557309920465" lon="9.664143401165312"><ele>625.0</ele><time>2026-05-02T08:06:03.999Z</time></trkpt><trkpt lat="44.805576651886064" lon="9.664251156433945"><ele>625.0000000000001</ele><time>2026-05-02T08:06:04.999Z</time></trkpt><trkpt lat="44.80558111747444" lon="9.664358056360145"><ele>625.0</ele><time>2026-05-02T08:06:05.998Z</time></trkpt><trkpt lat="44.80557982407255" lon="9.664455256971397"><ele>625.0</ele><time>2026-05-02T08:06:06.998Z</time></trkpt><trkpt lat="44.80557717451612" lon="9.66455187224436"><ele>625.0</ele><time>2026-05-02T08:06:07.998Z</time></trkpt><trkpt lat="44.80558985682014" lon="9.66465077292413"><ele>625.0</ele><time>2026-05-02T08:06:08.998Z</time></trkpt><trkpt lat="44.80561996887465" lon="9.664748536106572"><ele>625.0000000000001</ele><time>2026-05-02T08:06:09.998Z</time></trkpt><trkpt lat="44.805666437082216" lon="9.664839700207638"><ele>625.0</ele><time>2026-05-02T08:06:10.998Z</time></trkpt><trkpt lat="44.80572920175398" lon="9.664921769585114"><ele>624.3333333333334</ele><time>2026-05-02T08:06:11.998Z</time></trkpt><trkpt lat="44.80578878356149" lon="9.66502013355728"><ele>623.6666666666667</ele><time>2026-05-02T08:06:12.998Z</time></trkpt><trkpt lat="44.80583118250885" lon="9.665141485473285"><ele>623.0</ele><time>2026-05-02T08:06:13.998Z</time></trkpt><trkpt lat="44.80585544148467" lon="9.665231494441137"><ele>622.3333333333334</ele><time>2026-05-02T08:06:14.998Z</time></trkpt><trkpt lat="44.805859605534" lon="9.66533117932938"><ele>621.6666666666666</ele><time>2026-05-02T08:06:17Z</time></trkpt><trkpt lat="44.80584831488143" lon="9.665420383387243"><ele>621.0</ele><time>2026-05-02T08:08:43Z</time></trkpt><trkpt lat="44.80579512316118" lon="9.665332949872237"><ele>620.3333333333334</ele><time>2026-05-02T08:08:46Z</time></trkpt><trkpt lat="44.80586155287885" lon="9.665322317846643"><ele>619.6666666666666</ele><time>2026-05-02T08:08:49Z</time></trkpt><trkpt lat="44.805904041846546" lon="9.665403986425032"><ele>619.0</ele><time>2026-05-02T08:08:51Z</time></trkpt><trkpt lat="44.80596304192692" lon="9.665487071371093"><ele>618.3333333333333</ele><time>2026-05-02T08:08:53Z</time></trkpt><trkpt lat="44.80606689197429" lon="9.665617515189112"><ele>617.6666666666666</ele><time>2026-05-02T08:08:55Z</time></trkpt><trkpt lat="44.80609731873186" lon="9.665709074510195"><ele>617.0</ele><time>2026-05-02T08:08:56Z</time></trkpt><trkpt lat="44.80611363723969" lon="9.66580558620487"><ele>615.8571428571429</ele><time>2026-05-02T08:08:57Z</time></trkpt><trkpt lat="44.80612448917631" lon="9.66590634882619"><ele>614.7142857142857</ele><time>2026-05-02T08:08:58Z</time></trkpt><trkpt lat="44.80614733738749" lon="9.66599064090984"><ele>613.5714285714286</ele><time>2026-05-02T08:08:59Z</time></trkpt><trkpt lat="44.806185677786374" lon="9.666066572250955"><ele>612.4285714285714</ele><time>2026-05-02T08:09:00Z</time></trkpt><trkpt lat="44.80622783025135" lon="9.666138553465029"><ele>611.2857142857142</ele><time>2026-05-02T08:09:01Z</time></trkpt><trkpt lat="44.806267982907585" lon="9.666214022891594"><ele>610.1428571428571</ele><time>2026-05-02T08:09:02Z</time></trkpt><trkpt lat="44.80630860349604" lon="9.666288153311106"><ele>609.0</ele><time>2026-05-02T08:09:03Z</time></trkpt><trkpt lat="44.80634089009146" lon="9.666369474405824"><ele>609.0</ele><time>2026-05-02T08:09:04Z</time></trkpt><trkpt lat="44.80636421409257" lon="9.666468482773968"><ele>609.0</ele><time>2026-05-02T08:09:05Z</time></trkpt><trkpt lat="44.80637737736489" lon="9.666594960041047"><ele>609.0</ele><time>2026-05-02T08:09:06Z</time></trkpt><trkpt lat="44.806374366218805" lon="9.666714139045226"><ele>609.0</ele><time>2026-05-02T08:09:07Z</time></trkpt><trkpt lat="44.806374293012134" lon="9.666830389974864"><ele>609.0</ele><time>2026-05-02T08:09:08Z</time></trkpt><trkpt lat="44.80637761843419" lon="9.666948839859717"><ele>609.0</ele><time>2026-05-02T08:09:09Z</time></trkpt><trkpt lat="44.80638237954476" lon="9.66707062333206"><ele>609.1666666666666</ele><time>2026-05-02T08:09:10Z</time></trkpt><trkpt lat="44.80638524170169" lon="9.667188457991626"><ele>609.3333333333334</ele><time>2026-05-02T08:09:11Z</time></trkpt><trkpt lat="44.80639225179811" lon="9.667304747439678"><ele>609.5</ele><time>2026-05-02T08:09:12Z</time></trkpt><trkpt lat="44.806402556188694" lon="9.667418360881644"><ele>609.6666666666667</ele><time>2026-05-02T08:09:13Z</time></trkpt><trkpt lat="44.80642289396665" lon="9.667518054330113"><ele>609.8333333333334</ele><time>2026-05-02T08:09:14Z</time></trkpt><trkpt lat="44.80643550808531" lon="9.667641777072115"><ele>610.0</ele><time>2026-05-02T08:09:15Z</time></trkpt><trkpt lat="44.80644699927434" lon="9.667765170429025"><ele>608.1666666666667</ele><time>2026-05-02T08:09:16Z</time></trkpt><trkpt lat="44.806464731673444" lon="9.667881657247609"><ele>606.3333333333334</ele><time>2026-05-02T08:09:17Z</time></trkpt><trkpt lat="44.8065028615154" lon="9.66799496422395"><ele>604.5</ele><time>2026-05-02T08:09:18Z</time></trkpt><trkpt lat="44.8065574200556" lon="9.668072814625738"><ele>602.6666666666666</ele><time>2026-05-02T08:09:19Z</time></trkpt><trkpt lat="44.80660888745419" lon="9.668130962265165"><ele>600.8333333333333</ele><time>2026-05-02T08:09:20Z</time></trkpt><trkpt lat="44.80662683580767" lon="9.668259240232016"><ele>599.0</ele><time>2026-05-02T08:09:22Z</time></trkpt><trkpt lat="44.80654336188521" lon="9.668322332219017"><ele>599.0</ele><time>2026-05-02T08:09:23.999Z</time></trkpt><trkpt lat="44.806421806996035" lon="9.668274473562606"><ele>599.0</ele><time>2026-05-02T08:09:25.999Z</time></trkpt><trkpt lat="44.80633702557321" lon="9.668267395954272"><ele>599.0</ele><time>2026-05-02T08:09:26.999Z</time></trkpt><trkpt lat="44.80625591735571" lon="9.668283340402912"><ele>599.0</ele><time>2026-05-02T08:09:27.999Z</time></trkpt><trkpt lat="44.80617056676348" lon="9.668289691946613"><ele>599.0</ele><time>2026-05-02T08:09:28.999Z</time></trkpt><trkpt lat="44.806070855828864" lon="9.668355368253579"><ele>599.0</ele><time>2026-05-02T08:09:30.999Z</time></trkpt><trkpt lat="44.80607140659189" lon="9.668504286261532"><ele>599.0</ele><time>2026-05-02T08:09:32.999Z</time></trkpt><trkpt lat="44.80610172923015" lon="9.668609230372125"><ele>599.0</ele><time>2026-05-02T08:09:33.999Z</time></trkpt><trkpt lat="44.80613811719798" lon="9.66871516820323"><ele>599.0</ele><time>2026-05-02T08:09:34.999Z</time></trkpt><trkpt lat="44.806166237977735" lon="9.668838474212327"><ele>599.0</ele><time>2026-05-02T08:09:35.999Z</time></trkpt><trkpt lat="44.80621378311026" lon="9.668918767903884"><ele>599.0</ele><time>2026-05-02T08:09:36.999Z</time></trkpt><trkpt lat="44.80627275581621" lon="9.668952443430202"><ele>596.0</ele><time>2026-05-02T08:09:37.999Z</time></trkpt><trkpt lat="44.80633358654334" lon="9.668927217470307"><ele>593.0</ele><time>2026-05-02T08:09:38.999Z</time></trkpt><trkpt lat="44.80640615671327" lon="9.668893228784453"><ele>590.0</ele><time>2026-05-02T08:09:39.999Z</time></trkpt><trkpt lat="44.80648139015377" lon="9.668905348736635"><ele>587.0</ele><time>2026-05-02T08:09:40.999Z</time></trkpt><trkpt lat="44.80654868681931" lon="9.668979411523543"><ele>584.0</ele><time>2026-05-02T08:09:41.999Z</time></trkpt><trkpt lat="44.8066318906165" lon="9.669056635372256"><ele>581.0</ele><time>2026-05-02T08:09:42.999Z</time></trkpt><trkpt lat="44.806705757772576" lon="9.669120438119617"><ele>581.0</ele><time>2026-05-02T08:09:43.999Z</time></trkpt><trkpt lat="44.80675956530811" lon="9.669177518137268"><ele>581.0</ele><time>2026-05-02T08:09:44.999Z</time></trkpt><trkpt lat="44.806787781417846" lon="9.669301923911743"><ele>581.0</ele><time>2026-05-02T08:09:46.999Z</time></trkpt><trkpt lat="44.80674463629779" lon="9.669380768843077"><ele>581.0</ele><time>2026-05-02T08:09:47.999Z</time></trkpt><trkpt lat="44.80662425036785" lon="9.669408715609238"><ele>581.0</ele><time>2026-05-02T08:09:49.999Z</time></trkpt><trkpt lat="44.806539690346945" lon="9.669409363411514"><ele>581.0</ele><time>2026-05-02T08:09:50.999Z</time></trkpt><trkpt lat="44.806432491653204" lon="9.669449238890477"><ele>577.8333333333333</ele><time>2026-05-02T08:09:51.999Z</time></trkpt><trkpt lat="44.806353260417445" lon="9.669537984627684"><ele>574.6666666666666</ele><time>2026-05-02T08:09:52.999Z</time></trkpt><trkpt lat="44.80628522513015" lon="9.669601478901257"><ele>571.5</ele><time>2026-05-02T08:09:53.999Z</time></trkpt><trkpt lat="44.80622643271018" lon="9.669639353177041"><ele>568.3333333333334</ele><time>2026-05-02T08:09:54.999Z</time></trkpt><trkpt lat="44.806151189098266" lon="9.669654991296879"><ele>565.1666666666667</ele><time>2026-05-02T08:09:55.999Z</time></trkpt><trkpt lat="44.80607588939156" lon="9.66961453769114"><ele>562.0</ele><time>2026-05-02T08:09:56.999Z</time></trkpt><trkpt lat="44.805992300579746" lon="9.669547261593276"><ele>563.2</ele><time>2026-05-02T08:09:57.999Z</time></trkpt><trkpt lat="44.805891858362074" lon="9.669457143107106"><ele>564.4000000000001</ele><time>2026-05-02T08:09:58.999Z</time></trkpt><trkpt lat="44.80580625035519" lon="9.66934591381825"><ele>565.5999999999999</ele><time>2026-05-02T08:09:59.999Z</time></trkpt><trkpt lat="44.80574036934686" lon="9.669255694188204"><ele>566.8</ele><time>2026-05-02T08:10:00.999Z</time></trkpt><trkpt lat="44.80568441817057" lon="9.669143468249462"><ele>568.0</ele><time>2026-05-02T08:10:01.999Z</time></trkpt><trkpt lat="44.805644352246524" lon="9.669027062746265"><ele>568.0</ele><time>2026-05-02T08:10:02.999Z</time></trkpt><trkpt lat="44.80560976718258" lon="9.668921380785997"><ele>568.0</ele><time>2026-05-02T08:10:03.999Z</time></trkpt><trkpt lat="44.80555947281084" lon="9.668850079085065"><ele>568.0</ele><time>2026-05-02T08:10:04.999Z</time></trkpt><trkpt lat="44.80549276889449" lon="9.66879807109394"><ele>568.0</ele><time>2026-05-02T08:10:05.999Z</time></trkpt><trkpt lat="44.80540223311711" lon="9.668760229696181"><ele>568.0</ele><time>2026-05-02T08:10:06.999Z</time></trkpt><trkpt lat="44.805294798122425" lon="9.668729029182675"><ele>568.0</ele><time>2026-05-02T08:10:07.999Z</time></trkpt><trkpt lat="44.805202622565176" lon="9.668670445169912"><ele>566.0</ele><time>2026-05-02T08:10:08.999Z</time></trkpt><trkpt lat="44.80511488610376" lon="9.66860558076249"><ele>564.0</ele><time>2026-05-02T08:10:09.999Z</time></trkpt><trkpt lat="44.80502003914217" lon="9.668566526545138"><ele>562.0</ele><time>2026-05-02T08:10:10.999Z</time></trkpt><trkpt lat="44.80492220652394" lon="9.6685574675233"><ele>560.0</ele><time>2026-05-02T08:10:11.999Z</time></trkpt><trkpt lat="44.80482277162633" lon="9.668584513912723"><ele>558.0</ele><time>2026-05-02T08:10:12.999Z</time></trkpt><trkpt lat="44.80473787858987" lon="9.668619967953857"><ele>555.8333333333334</ele><time>2026-05-02T08:10:13.999Z</time></trkpt><trkpt lat="44.80467429784778" lon="9.66867222082297"><ele>553.6666666666666</ele><time>2026-05-02T08:10:14.999Z</time></trkpt><trkpt lat="44.80462273229667" lon="9.668754491607686"><ele>551.5</ele><time>2026-05-02T08:10:15.999Z</time></trkpt><trkpt lat="44.80458605499527" lon="9.668859627041531"><ele>549.3333333333333</ele><time>2026-05-02T08:10:16.999Z</time></trkpt><trkpt lat="44.80456355734543" lon="9.668987192601014"><ele>547.1666666666666</ele><time>2026-05-02T08:10:17.999Z</time></trkpt><trkpt lat="44.80453331121434" lon="9.669134084172091"><ele>545.0</ele><time>2026-05-02T08:10:18.999Z</time></trkpt><trkpt lat="44.80449510621904" lon="9.66927138189079"><ele>545.0</ele><time>2026-05-02T08:10:19.999Z</time></trkpt><trkpt lat="44.80445885647611" lon="9.66940715811661"><ele>545.0</ele><time>2026-05-02T08:10:20.999Z</time></trkpt><trkpt lat="44.80443046651345" lon="9.669539005886792"><ele>545.0</ele><time>2026-05-02T08:10:21.999Z</time></trkpt><trkpt lat="44.80439952521824" lon="9.669669658977373"><ele>545.0</ele><time>2026-05-02T08:10:22.999Z</time></trkpt><trkpt lat="44.80437428386325" lon="9.669789432697792"><ele>545.0</ele><time>2026-05-02T08:10:23.999Z</time></trkpt><trkpt lat="44.80436463029965" lon="9.669913193491833"><ele>542.5</ele><time>2026-05-02T08:10:24.999Z</time></trkpt><trkpt lat="44.80435379274752" lon="9.670046585951816"><ele>540.0</ele><time>2026-05-02T08:10:25.999Z</time></trkpt><trkpt lat="44.80433153244322" lon="9.670156397796042"><ele>537.5</ele><time>2026-05-02T08:10:26.999Z</time></trkpt><trkpt lat="44.804287041298025" lon="9.670249652312796"><ele>535.0</ele><time>2026-05-02T08:10:27.999Z</time></trkpt><trkpt lat="44.8042332507792" lon="9.670321462923484"><ele>532.5</ele><time>2026-05-02T08:10:29Z</time></trkpt><trkpt lat="44.80416490090966" lon="9.670379540889234"><ele>530.0</ele><time>2026-05-02T08:10:30Z</time></trkpt><trkpt lat="44.8040930841247" lon="9.670424084470095"><ele>526.6</ele><time>2026-05-02T08:10:31Z</time></trkpt><trkpt lat="44.8040097603254" lon="9.670478766477148"><ele>523.2</ele><time>2026-05-02T08:10:32Z</time></trkpt><trkpt lat="44.80391854727034" lon="9.67056128134171"><ele>519.8</ele><time>2026-05-02T08:10:33Z</time></trkpt><trkpt lat="44.803826551937064" lon="9.670649431700658"><ele>516.4</ele><time>2026-05-02T08:10:34Z</time></trkpt><trkpt lat="44.803731763475504" lon="9.670720197758468"><ele>513.0</ele><time>2026-05-02T08:10:35Z</time></trkpt><trkpt lat="44.80363701879079" lon="9.670774895627282"><ele>513.0</ele><time>2026-05-02T08:10:36Z</time></trkpt><trkpt lat="44.803535471895" lon="9.670825196712086"><ele>513.0</ele><time>2026-05-02T08:10:37Z</time></trkpt><trkpt lat="44.803439235838596" lon="9.670869366673776"><ele>513.0</ele><time>2026-05-02T08:10:38Z</time></trkpt><trkpt lat="44.80333857397419" lon="9.67090269703206"><ele>513.0</ele><time>2026-05-02T08:10:39Z</time></trkpt><trkpt lat="44.80323638696346" lon="9.670934183665345"><ele>513.0</ele><time>2026-05-02T08:10:40Z</time></trkpt><trkpt lat="44.803146423962836" lon="9.670961619091134"><ele>513.6</ele><time>2026-05-02T08:10:41Z</time></trkpt><trkpt lat="44.80307072997279" lon="9.670987300881006"><ele>514.1999999999999</ele><time>2026-05-02T08:10:42Z</time></trkpt><trkpt lat="44.803009999695405" lon="9.671022100573747"><ele>514.8</ele><time>2026-05-02T08:10:43Z</time></trkpt><trkpt lat="44.802952874817976" lon="9.671153153799214"><ele>515.4</ele><time>2026-05-02T08:10:45Z</time></trkpt><trkpt lat="44.803024239035565" lon="9.671288473276205"><ele>516.0</ele><time>2026-05-02T08:10:47Z</time></trkpt><trkpt lat="44.80309795594796" lon="9.671324861712558"><ele>514.0</ele><time>2026-05-02T08:10:48Z</time></trkpt><trkpt lat="44.80317579043075" lon="9.671337326585704"><ele>512.0</ele><time>2026-05-02T08:10:49Z</time></trkpt><trkpt lat="44.80324796372311" lon="9.671353793289722"><ele>510.0</ele><time>2026-05-02T08:10:50Z</time></trkpt><trkpt lat="44.80331840030758" lon="9.671381436165309"><ele>508.0</ele><time>2026-05-02T08:10:51Z</time></trkpt><trkpt lat="44.803389841887025" lon="9.671474110329356"><ele>506.0</ele><time>2026-05-02T08:10:53Z</time></trkpt><trkpt lat="44.803334384416765" lon="9.671569704095392"><ele>504.0</ele><time>2026-05-02T08:10:55Z</time></trkpt><trkpt lat="44.8032047754477" lon="9.671648594188712"><ele>504.0</ele><time>2026-05-02T08:10:57Z</time></trkpt><trkpt lat="44.803123285502274" lon="9.671707472216308"><ele>504.0</ele><time>2026-05-02T08:10:58Z</time></trkpt><trkpt lat="44.803059881458886" lon="9.67179366820707"><ele>504.0</ele><time>2026-05-02T08:10:59Z</time></trkpt><trkpt lat="44.80298996201861" lon="9.671930447772711"><ele>504.0</ele><time>2026-05-02T08:11:00Z</time></trkpt><trkpt lat="44.80289692970188" lon="9.672072568560983"><ele>504.0</ele><time>2026-05-02T08:11:01Z</time></trkpt><trkpt lat="44.80279641979335" lon="9.672186281913689"><ele>501.2</ele><time>2026-05-02T08:11:02Z</time></trkpt><trkpt lat="44.80270163849889" lon="9.672256826452577"><ele>498.4</ele><time>2026-05-02T08:11:03Z</time></trkpt><trkpt lat="44.80260691694868" lon="9.672282743218263"><ele>495.6</ele><time>2026-05-02T08:11:04Z</time></trkpt><trkpt lat="44.802511663631954" lon="9.672277317648716"><ele>492.8</ele><time>2026-05-02T08:11:05Z</time></trkpt><trkpt lat="44.8024187245681" lon="9.67224934129851"><ele>490.0</ele><time>2026-05-02T08:11:06Z</time></trkpt><trkpt lat="44.80233479286223" lon="9.67221576953639"><ele>489.83333333333337</ele><time>2026-05-02T08:11:07Z</time></trkpt><trkpt lat="44.80226124771245" lon="9.672187225188624"><ele>489.6666666666667</ele><time>2026-05-02T08:11:08Z</time></trkpt><trkpt lat="44.80218928106315" lon="9.672153184520905"><ele>489.5</ele><time>2026-05-02T08:11:09Z</time></trkpt><trkpt lat="44.80211730450478" lon="9.672101327468049"><ele>489.33333333333337</ele><time>2026-05-02T08:11:10Z</time></trkpt><trkpt lat="44.80205110535603" lon="9.67203062090029"><ele>489.1666666666667</ele><time>2026-05-02T08:11:11Z</time></trkpt><trkpt lat="44.80199070108492" lon="9.671946819815213"><ele>489.0</ele><time>2026-05-02T08:11:12Z</time></trkpt><trkpt lat="44.80193195788015" lon="9.67186573225369"><ele>489.6666666666667</ele><time>2026-05-02T08:11:13Z</time></trkpt><trkpt lat="44.80186859836652" lon="9.671800002812446"><ele>490.33333333333337</ele><time>2026-05-02T08:11:14Z</time></trkpt><trkpt lat="44.80180383743179" lon="9.671750678237588"><ele>491.0</ele><time>2026-05-02T08:11:15Z</time></trkpt><trkpt lat="44.801739367666606" lon="9.671706035412239"><ele>491.6666666666667</ele><time>2026-05-02T08:11:16Z</time></trkpt><trkpt lat="44.801678857159985" lon="9.671675349785243"><ele>492.33333333333337</ele><time>2026-05-02T08:11:17Z</time></trkpt><trkpt lat="44.80161550095444" lon="9.671675616483313"><ele>493.0</ele><time>2026-05-02T08:11:18Z</time></trkpt><trkpt lat="44.801527717299486" lon="9.671792353722115"><ele>493.00000000000006</ele><time>2026-05-02T08:11:19.999Z</time></trkpt><trkpt lat="44.801498981478076" lon="9.671894688759703"><ele>493.0</ele><time>2026-05-02T08:11:20.999Z</time></trkpt><trkpt lat="44.80146145517898" lon="9.671999505216593"><ele>493.0</ele><time>2026-05-02T08:11:21.999Z</time></trkpt><trkpt lat="44.80140336794579" lon="9.67209597044989"><ele>493.0</ele><time>2026-05-02T08:11:22.999Z</time></trkpt><trkpt lat="44.80132877393445" lon="9.672163059977558"><ele>493.00000000000006</ele><time>2026-05-02T08:11:23.999Z</time></trkpt><trkpt lat="44.80125580173845" lon="9.67218492441855"><ele>493.0</ele><time>2026-05-02T08:11:24.999Z</time></trkpt><trkpt lat="44.801138938579456" lon="9.672129233904288"><ele>492.2</ele><time>2026-05-02T08:11:26.999Z</time></trkpt><trkpt lat="44.80105853927123" lon="9.672100433870137"><ele>491.4</ele><time>2026-05-02T08:11:27.999Z</time></trkpt><trkpt lat="44.800966589759526" lon="9.6721181012107"><ele>490.59999999999997</ele><time>2026-05-02T08:11:28.999Z</time></trkpt><trkpt lat="44.80088721196672" lon="9.672189022090002"><ele>489.79999999999995</ele><time>2026-05-02T08:11:29.999Z</time></trkpt><trkpt lat="44.800821749945705" lon="9.672281262227727"><ele>489.0</ele><time>2026-05-02T08:11:30.999Z</time></trkpt><trkpt lat="44.80075163678891" lon="9.672365292953462"><ele>489.0</ele><time>2026-05-02T08:11:31.999Z</time></trkpt><trkpt lat="44.80067707744772" lon="9.672424738273376"><ele>489.0</ele><time>2026-05-02T08:11:32.999Z</time></trkpt><trkpt lat="44.800585464824415" lon="9.6725041456452"><ele>489.0</ele><time>2026-05-02T08:11:33.999Z</time></trkpt><trkpt lat="44.800511414571226" lon="9.672565811912415"><ele>489.0</ele><time>2026-05-02T08:11:34.999Z</time></trkpt><trkpt lat="44.80044714834159" lon="9.672644408722324"><ele>489.0</ele><time>2026-05-02T08:11:35.999Z</time></trkpt><trkpt lat="44.800394650806744" lon="9.672718915553942"><ele>489.0</ele><time>2026-05-02T08:11:36.999Z</time></trkpt><trkpt lat="44.80033719341793" lon="9.672776592496684"><ele>486.6666666666667</ele><time>2026-05-02T08:11:37.999Z</time></trkpt><trkpt lat="44.80027260539304" lon="9.672856123311725"><ele>484.33333333333337</ele><time>2026-05-02T08:11:38.999Z</time></trkpt><trkpt lat="44.80020793983588" lon="9.672918587671028"><ele>482.0</ele><time>2026-05-02T08:11:39.999Z</time></trkpt><trkpt lat="44.80014017572228" lon="9.672983012865144"><ele>479.6666666666667</ele><time>2026-05-02T08:11:40.999Z</time></trkpt><trkpt lat="44.80007099438893" lon="9.67304191812501"><ele>477.33333333333337</ele><time>2026-05-02T08:11:41.999Z</time></trkpt><trkpt lat="44.80000179540259" lon="9.673100698099017"><ele>475.0</ele><time>2026-05-02T08:11:42.999Z</time></trkpt><trkpt lat="44.79993435752613" lon="9.67313687030449"><ele>475.0</ele><time>2026-05-02T08:11:43.999Z</time></trkpt><trkpt lat="44.799844862183356" lon="9.673170132624001"><ele>475.0</ele><time>2026-05-02T08:11:44.999Z</time></trkpt><trkpt lat="44.79973855972007" lon="9.673178597555363"><ele>475.0</ele><time>2026-05-02T08:11:45.999Z</time></trkpt><trkpt lat="44.79962695426382" lon="9.67317856593287"><ele>475.0</ele><time>2026-05-02T08:11:46.999Z</time></trkpt><trkpt lat="44.79950844836933" lon="9.673206772254414"><ele>475.0</ele><time>2026-05-02T08:11:47.999Z</time></trkpt><trkpt lat="44.799403506759944" lon="9.673230924116604"><ele>474.6666666666667</ele><time>2026-05-02T08:11:48.999Z</time></trkpt><trkpt lat="44.799313360000816" lon="9.673238170988101"><ele>474.33333333333337</ele><time>2026-05-02T08:11:49.999Z</time></trkpt><trkpt lat="44.79923911754972" lon="9.673214697740484"><ele>474.0</ele><time>2026-05-02T08:11:50.999Z</time></trkpt><trkpt lat="44.799173869811455" lon="9.673152606759206"><ele>473.66666666666663</ele><time>2026-05-02T08:11:51.999Z</time></trkpt><trkpt lat="44.799115771491365" lon="9.673053782829438"><ele>473.3333333333333</ele><time>2026-05-02T08:11:52.999Z</time></trkpt><trkpt lat="44.799056945182535" lon="9.672940786690841"><ele>473.0</ele><time>2026-05-02T08:11:53.999Z</time></trkpt><trkpt lat="44.7989877571388" lon="9.672826330854619"><ele>475.0</ele><time>2026-05-02T08:11:54.999Z</time></trkpt><trkpt lat="44.79891404913064" lon="9.672733547297904"><ele>476.99999999999994</ele><time>2026-05-02T08:11:55.999Z</time></trkpt><trkpt lat="44.79882748298589" lon="9.672669379285146"><ele>478.99999999999994</ele><time>2026-05-02T08:11:56.999Z</time></trkpt><trkpt lat="44.79873069164687" lon="9.672625901680851"><ele>481.0</ele><time>2026-05-02T08:11:57.999Z</time></trkpt><trkpt lat="44.79863102982491" lon="9.672602177754976"><ele>483.0</ele><time>2026-05-02T08:11:58.999Z</time></trkpt><trkpt lat="44.79852581867419" lon="9.672594921301176"><ele>480.2</ele><time>2026-05-02T08:11:59.999Z</time></trkpt><trkpt lat="44.79842111796177" lon="9.672572320685116"><ele>477.4</ele><time>2026-05-02T08:12:00.999Z</time></trkpt><trkpt lat="44.79831815593683" lon="9.672522950364026"><ele>474.59999999999997</ele><time>2026-05-02T08:12:01.999Z</time></trkpt><trkpt lat="44.798214798918266" lon="9.672472203615017"><ele>471.79999999999995</ele><time>2026-05-02T08:12:02.999Z</time></trkpt><trkpt lat="44.79811164012339" lon="9.67245848535513"><ele>469.0</ele><time>2026-05-02T08:12:03.999Z</time></trkpt><trkpt lat="44.798012504995945" lon="9.672474115108695"><ele>469.0</ele><time>2026-05-02T08:12:04.999Z</time></trkpt><trkpt lat="44.79791581891424" lon="9.672544353139232"><ele>469.0</ele><time>2026-05-02T08:12:05.999Z</time></trkpt><trkpt lat="44.797829079900374" lon="9.672626912959593"><ele>469.0</ele><time>2026-05-02T08:12:06.999Z</time></trkpt><trkpt lat="44.79775202280945" lon="9.672684079466007"><ele>469.0</ele><time>2026-05-02T08:12:07.999Z</time></trkpt><trkpt lat="44.79766638557006" lon="9.672679951676992"><ele>469.0</ele><time>2026-05-02T08:12:08.999Z</time></trkpt><trkpt lat="44.79756561336121" lon="9.672641924219077"><ele>468.0</ele><time>2026-05-02T08:12:09.999Z</time></trkpt><trkpt lat="44.79745574279809" lon="9.67258402021573"><ele>467.0</ele><time>2026-05-02T08:12:10.999Z</time></trkpt><trkpt lat="44.79735177613507" lon="9.672516882244738"><ele>466.0</ele><time>2026-05-02T08:12:11.999Z</time></trkpt><trkpt lat="44.79725806486527" lon="9.672441382995244"><ele>465.0</ele><time>2026-05-02T08:12:12.999Z</time></trkpt><trkpt lat="44.797164217357" lon="9.67235990334956"><ele>465.0</ele><time>2026-05-02T08:12:13.999Z</time></trkpt><trkpt lat="44.797067336872665" lon="9.67227462016081"><ele>465.0</ele><time>2026-05-02T08:12:14.999Z</time></trkpt><trkpt lat="44.796975624082535" lon="9.67219061476561"><ele>465.0</ele><time>2026-05-02T08:12:15.999Z</time></trkpt><trkpt lat="44.79688823188852" lon="9.672100825720108"><ele>465.0</ele><time>2026-05-02T08:12:16.999Z</time></trkpt><trkpt lat="44.79680554232489" lon="9.67200417085475"><ele>465.0</ele><time>2026-05-02T08:12:17.999Z</time></trkpt><trkpt lat="44.79672160600789" lon="9.671914634704828"><ele>466.0</ele><time>2026-05-02T08:12:18.999Z</time></trkpt><trkpt lat="44.796631690584704" lon="9.671831002207057"><ele>467.0</ele><time>2026-05-02T08:12:19.999Z</time></trkpt><trkpt lat="44.7965343152647" lon="9.671750887477183"><ele>468.0</ele><time>2026-05-02T08:12:20.999Z</time></trkpt><trkpt lat="44.79643120808268" lon="9.671681012931074"><ele>469.0</ele><time>2026-05-02T08:12:21.999Z</time></trkpt><trkpt lat="44.796327621213926" lon="9.671629825240581"><ele>470.0</ele><time>2026-05-02T08:12:22.999Z</time></trkpt><trkpt lat="44.79622055879707" lon="9.671586460062082"><ele>469.99999999999994</ele><time>2026-05-02T08:12:23.999Z</time></trkpt><trkpt lat="44.79611601273358" lon="9.671544168852728"><ele>470.0</ele><time>2026-05-02T08:12:24.998Z</time></trkpt><trkpt lat="44.796029949225954" lon="9.671489567218208"><ele>470.0</ele><time>2026-05-02T08:12:25.998Z</time></trkpt><trkpt lat="44.795969972193326" lon="9.671427121007715"><ele>470.0</ele><time>2026-05-02T08:12:26.998Z</time></trkpt><trkpt lat="44.79591726751232" lon="9.671375763924194"><ele>469.99999999999994</ele><time>2026-05-02T08:12:27.998Z</time></trkpt><trkpt lat="44.79585606213569" lon="9.67134422358485"><ele>470.0</ele><time>2026-05-02T08:12:28.998Z</time></trkpt><trkpt lat="44.795788382773615" lon="9.671319510947452"><ele>470.4</ele><time>2026-05-02T08:12:29.998Z</time></trkpt><trkpt lat="44.79564625618831" lon="9.671278228908069"><ele>470.8</ele><time>2026-05-02T08:12:31.998Z</time></trkpt><trkpt lat="44.79556639984188" lon="9.671272242906559"><ele>471.20000000000005</ele><time>2026-05-02T08:12:32.998Z</time></trkpt><trkpt lat="44.7954853740762" lon="9.671301161636485"><ele>471.6</ele><time>2026-05-02T08:12:33.998Z</time></trkpt><trkpt lat="44.79540682922439" lon="9.671345099295817"><ele>472.0</ele><time>2026-05-02T08:12:35Z</time></trkpt><trkpt lat="44.79534049859719" lon="9.67139331384087"><ele>472.00000000000006</ele><time>2026-05-02T08:12:36Z</time></trkpt><trkpt lat="44.79527809367063" lon="9.671447453182545"><ele>472.0</ele><time>2026-05-02T08:12:37Z</time></trkpt><trkpt lat="44.79522503316881" lon="9.671521158343792"><ele>472.0</ele><time>2026-05-02T08:12:38Z</time></trkpt><trkpt lat="44.79518562578991" lon="9.671606801709851"><ele>472.0</ele><time>2026-05-02T08:12:39Z</time></trkpt><trkpt lat="44.79516126201344" lon="9.671689698177053"><ele>472.00000000000006</ele><time>2026-05-02T08:12:40Z</time></trkpt><trkpt lat="44.795158232278894" lon="9.671866370639606"><ele>472.0</ele><time>2026-05-02T08:12:42Z</time></trkpt><trkpt lat="44.79517589253044" lon="9.671959084388032"><ele>469.71428571428567</ele><time>2026-05-02T08:12:43Z</time></trkpt><trkpt lat="44.79522611116015" lon="9.672083014836224"><ele>467.42857142857144</ele><time>2026-05-02T08:12:45Z</time></trkpt><trkpt lat="44.79528106083442" lon="9.672126611767785"><ele>465.1428571428571</ele><time>2026-05-02T08:12:46Z</time></trkpt><trkpt lat="44.79534245666843" lon="9.672161414472612"><ele>462.85714285714283</ele><time>2026-05-02T08:12:47Z</time></trkpt><trkpt lat="44.79540945917672" lon="9.672183124027404"><ele>460.57142857142856</ele><time>2026-05-02T08:12:48Z</time></trkpt><trkpt lat="44.795477320103096" lon="9.672202090145785"><ele>458.2857142857143</ele><time>2026-05-02T08:12:49Z</time></trkpt><trkpt lat="44.79554678480614" lon="9.67221321433852"><ele>456.0</ele><time>2026-05-02T08:12:50Z</time></trkpt><trkpt lat="44.79561844458833" lon="9.672220516625876"><ele>456.0</ele><time>2026-05-02T08:12:51Z</time></trkpt><trkpt lat="44.795690543479274" lon="9.672230670356472"><ele>456.0</ele><time>2026-05-02T08:12:52Z</time></trkpt><trkpt lat="44.79576189511924" lon="9.672251320031878"><ele>456.0</ele><time>2026-05-02T08:12:53Z</time></trkpt><trkpt lat="44.795834777995196" lon="9.672278756392929"><ele>456.0</ele><time>2026-05-02T08:12:54Z</time></trkpt><trkpt lat="44.79591020116342" lon="9.672316559838775"><ele>456.0</ele><time>2026-05-02T08:12:55Z</time></trkpt><trkpt lat="44.79598195801593" lon="9.672374982943467"><ele>456.0</ele><time>2026-05-02T08:12:56Z</time></trkpt><trkpt lat="44.79604700706343" lon="9.672446086001589"><ele>456.6666666666667</ele><time>2026-05-02T08:12:57Z</time></trkpt><trkpt lat="44.796110231688665" lon="9.672519427755121"><ele>457.33333333333337</ele><time>2026-05-02T08:12:58Z</time></trkpt><trkpt lat="44.79617546047871" lon="9.672585781134003"><ele>458.0</ele><time>2026-05-02T08:12:59Z</time></trkpt><trkpt lat="44.796261371598355" lon="9.672654451138055"><ele>458.6666666666667</ele><time>2026-05-02T08:13:00Z</time></trkpt><trkpt lat="44.796340263641994" lon="9.672719263215438"><ele>459.33333333333337</ele><time>2026-05-02T08:13:01Z</time></trkpt><trkpt lat="44.79641211744827" lon="9.67276935761252"><ele>460.0</ele><time>2026-05-02T08:13:02Z</time></trkpt><trkpt lat="44.79647593544366" lon="9.672830351618638"><ele>458.5714285714285</ele><time>2026-05-02T08:13:03Z</time></trkpt><trkpt lat="44.79652894822077" lon="9.672905380142948"><ele>457.1428571428571</ele><time>2026-05-02T08:13:04Z</time></trkpt><trkpt lat="44.79657517464584" lon="9.672982564760877"><ele>455.7142857142857</ele><time>2026-05-02T08:13:05Z</time></trkpt><trkpt lat="44.796626642718934" lon="9.673056673916426"><ele>454.2857142857143</ele><time>2026-05-02T08:13:06Z</time></trkpt><trkpt lat="44.79667204967719" lon="9.673139074867347"><ele>452.8571428571429</ele><time>2026-05-02T08:13:07Z</time></trkpt><trkpt lat="44.7967146027525" lon="9.67322111605429"><ele>451.4285714285715</ele><time>2026-05-02T08:13:08Z</time></trkpt><trkpt lat="44.796752663210995" lon="9.673302739479954"><ele>450.00000000000006</ele><time>2026-05-02T08:13:09Z</time></trkpt><trkpt lat="44.79680374690194" lon="9.673360023335755"><ele>450.57142857142867</ele><time>2026-05-02T08:13:10Z</time></trkpt><trkpt lat="44.79686803516457" lon="9.673401875915935"><ele>451.14285714285717</ele><time>2026-05-02T08:13:11Z</time></trkpt><trkpt lat="44.796937376159555" lon="9.673442800106653"><ele>451.7142857142858</ele><time>2026-05-02T08:13:12Z</time></trkpt><trkpt lat="44.797005811745045" lon="9.673488657700306"><ele>452.28571428571433</ele><time>2026-05-02T08:13:13Z</time></trkpt><trkpt lat="44.797071873498936" lon="9.673534693317276"><ele>452.8571428571429</ele><time>2026-05-02T08:13:14Z</time></trkpt><trkpt lat="44.79713939686969" lon="9.673578272327951"><ele>453.42857142857144</ele><time>2026-05-02T08:13:15Z</time></trkpt><trkpt lat="44.79720675643748" lon="9.673627770787212"><ele>454.0</ele><time>2026-05-02T08:13:16Z</time></trkpt><trkpt lat="44.79727628367272" lon="9.673672932696443"><ele>451.50000000000006</ele><time>2026-05-02T08:13:17Z</time></trkpt><trkpt lat="44.79734761302535" lon="9.67369668282021"><ele>449.0</ele><time>2026-05-02T08:13:17.999Z</time></trkpt><trkpt lat="44.79741109929746" lon="9.673706175594168"><ele>446.5</ele><time>2026-05-02T08:13:18.999Z</time></trkpt><trkpt lat="44.79746064969618" lon="9.673761535406346"><ele>444.0</ele><time>2026-05-02T08:13:19.999Z</time></trkpt><trkpt lat="44.797500881763135" lon="9.67383539820617"><ele>441.50000000000006</ele><time>2026-05-02T08:13:20.999Z</time></trkpt><trkpt lat="44.797555182461245" lon="9.67400028119286"><ele>439.0</ele><time>2026-05-02T08:13:22.999Z</time></trkpt><trkpt lat="44.7975698890182" lon="9.674095088430944"><ele>439.00000000000006</ele><time>2026-05-02T08:13:23.999Z</time></trkpt><trkpt lat="44.79759110632154" lon="9.67419059724655"><ele>439.0</ele><time>2026-05-02T08:13:24.999Z</time></trkpt><trkpt lat="44.79760753783636" lon="9.674297283623304"><ele>439.0</ele><time>2026-05-02T08:13:25.999Z</time></trkpt><trkpt lat="44.79761614328125" lon="9.674404490222454"><ele>439.0</ele><time>2026-05-02T08:13:26.999Z</time></trkpt><trkpt lat="44.79761435831867" lon="9.67451328012342"><ele>439.00000000000006</ele><time>2026-05-02T08:13:27.999Z</time></trkpt><trkpt lat="44.79760309392016" lon="9.674624315862362"><ele>439.0</ele><time>2026-05-02T08:13:28.999Z</time></trkpt><trkpt lat="44.79758486715351" lon="9.674733710005256"><ele>437.50000000000006</ele><time>2026-05-02T08:13:29.999Z</time></trkpt><trkpt lat="44.797577293938424" lon="9.674830881948353"><ele>436.0</ele><time>2026-05-02T08:13:30.999Z</time></trkpt><trkpt lat="44.79757235297389" lon="9.674928356190842"><ele>434.5</ele><time>2026-05-02T08:13:31.999Z</time></trkpt><trkpt lat="44.79757128326141" lon="9.675025595820742"><ele>433.0</ele><time>2026-05-02T08:13:32.999Z</time></trkpt><trkpt lat="44.79761601707416" lon="9.675187023829974"><ele>431.50000000000006</ele><time>2026-05-02T08:13:34.999Z</time></trkpt><trkpt lat="44.7976565419653" lon="9.675260097386463"><ele>430.0</ele><time>2026-05-02T08:13:35.999Z</time></trkpt><trkpt lat="44.797705336012115" lon="9.675330306291452"><ele>429.33333333333337</ele><time>2026-05-02T08:13:36.999Z</time></trkpt><trkpt lat="44.79775136600079" lon="9.675409670829714"><ele>428.6666666666667</ele><time>2026-05-02T08:13:37.999Z</time></trkpt><trkpt lat="44.7977888728022" lon="9.675484054083332"><ele>428.0</ele><time>2026-05-02T08:13:38.999Z</time></trkpt><trkpt lat="44.79781771035806" lon="9.675574689592802"><ele>427.33333333333337</ele><time>2026-05-02T08:13:39.999Z</time></trkpt><trkpt lat="44.79784132117423" lon="9.675683407313086"><ele>426.6666666666667</ele><time>2026-05-02T08:13:40.999Z</time></trkpt><trkpt lat="44.79787042267726" lon="9.675790450550574"><ele>426.0</ele><time>2026-05-02T08:13:41.999Z</time></trkpt><trkpt lat="44.797911475586474" lon="9.675901946745942"><ele>426.0</ele><time>2026-05-02T08:13:42.999Z</time></trkpt><trkpt lat="44.79795820364946" lon="9.676012031387435"><ele>426.0</ele><time>2026-05-02T08:13:43.999Z</time></trkpt><trkpt lat="44.79799981238861" lon="9.676124028092572"><ele>426.0</ele><time>2026-05-02T08:13:44.999Z</time></trkpt><trkpt lat="44.798047586254626" lon="9.676248203713284"><ele>426.0</ele><time>2026-05-02T08:13:45.999Z</time></trkpt><trkpt lat="44.798091672183766" lon="9.676343497115242"><ele>426.0</ele><time>2026-05-02T08:13:46.999Z</time></trkpt><trkpt lat="44.79813506920156" lon="9.676494824639775"><ele>424.6666666666667</ele><time>2026-05-02T08:13:47.999Z</time></trkpt><trkpt lat="44.79817271007172" lon="9.676613042684568"><ele>423.33333333333337</ele><time>2026-05-02T08:13:48.999Z</time></trkpt><trkpt lat="44.79819667622131" lon="9.676718314586724"><ele>422.0</ele><time>2026-05-02T08:13:49.999Z</time></trkpt><trkpt lat="44.79822902764804" lon="9.676817764478468"><ele>420.6666666666667</ele><time>2026-05-02T08:13:50.999Z</time></trkpt><trkpt lat="44.798249843072554" lon="9.676934864274777"><ele>419.33333333333337</ele><time>2026-05-02T08:13:51.999Z</time></trkpt><trkpt lat="44.79828511858385" lon="9.67705695759291"><ele>418.0</ele><time>2026-05-02T08:13:52.999Z</time></trkpt><trkpt lat="44.79830759913138" lon="9.677151634485234"><ele>417.1666666666667</ele><time>2026-05-02T08:13:53.999Z</time></trkpt><trkpt lat="44.79832379945829" lon="9.677245419826127"><ele>416.33333333333337</ele><time>2026-05-02T08:13:54.999Z</time></trkpt><trkpt lat="44.798327883158116" lon="9.677356809094016"><ele>415.5</ele><time>2026-05-02T08:13:56.999Z</time></trkpt><trkpt lat="44.7983111070526" lon="9.67745748297899"><ele>414.66666666666663</ele><time>2026-05-02T08:14:00.999Z</time></trkpt><trkpt lat="44.7982769276198" lon="9.677592791900672"><ele>413.8333333333333</ele><time>2026-05-02T08:14:03.999Z</time></trkpt><trkpt lat="44.79826662238538" lon="9.677703175552633"><ele>413.0</ele><time>2026-05-02T08:14:05.999Z</time></trkpt><trkpt lat="44.798276112512845" lon="9.677876632593557"><ele>412.59999999999997</ele><time>2026-05-02T08:14:07.999Z</time></trkpt><trkpt lat="44.798364433035765" lon="9.678015465720357"><ele>412.2</ele><time>2026-05-02T08:14:09.999Z</time></trkpt><trkpt lat="44.79844109064047" lon="9.678070497877208"><ele>411.8</ele><time>2026-05-02T08:14:10.999Z</time></trkpt><trkpt lat="44.79851099517924" lon="9.678120314881129"><ele>411.4</ele><time>2026-05-02T08:14:11.999Z</time></trkpt><trkpt lat="44.79858075153518" lon="9.67817840203521"><ele>411.0</ele><time>2026-05-02T08:14:12.999Z</time></trkpt><trkpt lat="44.79863245118696" lon="9.678254992236893"><ele>411.0</ele><time>2026-05-02T08:14:13.999Z</time></trkpt><trkpt lat="44.798660504437336" lon="9.678356661170307"><ele>411.0</ele><time>2026-05-02T08:14:14.999Z</time></trkpt><trkpt lat="44.798652303126644" lon="9.678453606337069"><ele>411.0</ele><time>2026-05-02T08:14:15.999Z</time></trkpt><trkpt lat="44.798629708160334" lon="9.678548609606493"><ele>411.0</ele><time>2026-05-02T08:14:16.999Z</time></trkpt><trkpt lat="44.798594192337866" lon="9.67864186555618"><ele>411.0</ele><time>2026-05-02T08:14:17.999Z</time></trkpt><trkpt lat="44.79855331972957" lon="9.678732959579087"><ele>411.0</ele><time>2026-05-02T08:14:18.999Z</time></trkpt><trkpt lat="44.798515581784116" lon="9.678831298659734"><ele>411.0</ele><time>2026-05-02T08:14:19.999Z</time></trkpt><trkpt lat="44.79848483323522" lon="9.678926593758469"><ele>412.1666666666667</ele><time>2026-05-02T08:14:20.999Z</time></trkpt><trkpt lat="44.79844199913009" lon="9.679021856468578"><ele>413.33333333333337</ele><time>2026-05-02T08:14:21.999Z</time></trkpt><trkpt lat="44.798390014622086" lon="9.679096413906572"><ele>414.5</ele><time>2026-05-02T08:14:22.999Z</time></trkpt><trkpt lat="44.79832818871166" lon="9.679155508787138"><ele>415.6666666666667</ele><time>2026-05-02T08:14:23.999Z</time></trkpt><trkpt lat="44.79825915191579" lon="9.679204193737123"><ele>416.83333333333337</ele><time>2026-05-02T08:14:24.999Z</time></trkpt><trkpt lat="44.798191536259054" lon="9.679272763953168"><ele>418.0</ele><time>2026-05-02T08:14:25.999Z</time></trkpt><trkpt lat="44.79814266684087" lon="9.679396127395592"><ele>418.59999999999997</ele><time>2026-05-02T08:14:27.998Z</time></trkpt><trkpt lat="44.798183951127356" lon="9.679510872510567"><ele>419.2</ele><time>2026-05-02T08:14:29.998Z</time></trkpt><trkpt lat="44.79830230622437" lon="9.679573214705753"><ele>419.8</ele><time>2026-05-02T08:14:31.998Z</time></trkpt><trkpt lat="44.79837080137758" lon="9.679583557555729"><ele>420.4</ele><time>2026-05-02T08:14:32.998Z</time></trkpt><trkpt lat="44.798450743844676" lon="9.679625159308904"><ele>421.0</ele><time>2026-05-02T08:14:33.998Z</time></trkpt><trkpt lat="44.79852864011822" lon="9.679681252539138"><ele>421.00000000000006</ele><time>2026-05-02T08:14:34.998Z</time></trkpt><trkpt lat="44.79861736878506" lon="9.679748416830012"><ele>421.0</ele><time>2026-05-02T08:14:35.998Z</time></trkpt><trkpt lat="44.79870040051446" lon="9.679817158546262"><ele>421.0</ele><time>2026-05-02T08:14:36.998Z</time></trkpt><trkpt lat="44.79876504453208" lon="9.679904421750953"><ele>421.0</ele><time>2026-05-02T08:14:37.998Z</time></trkpt><trkpt lat="44.79880141073184" lon="9.680003110693706"><ele>421.00000000000006</ele><time>2026-05-02T08:14:38.998Z</time></trkpt><trkpt lat="44.79882881101922" lon="9.680112439656517"><ele>421.0</ele><time>2026-05-02T08:14:39.998Z</time></trkpt><trkpt lat="44.798860046385265" lon="9.680223470088901"><ele>422.50000000000006</ele><time>2026-05-02T08:14:41Z</time></trkpt><trkpt lat="44.79890275798065" lon="9.680323935152224"><ele>424.0</ele><time>2026-05-02T08:14:42Z</time></trkpt><trkpt lat="44.79894191321607" lon="9.680424171294936"><ele>425.5</ele><time>2026-05-02T08:14:43Z</time></trkpt><trkpt lat="44.798952573784035" lon="9.680526173808163"><ele>427.0</ele><time>2026-05-02T08:14:44Z</time></trkpt><trkpt lat="44.79894878501369" lon="9.68063808331975"><ele>428.50000000000006</ele><time>2026-05-02T08:14:45Z</time></trkpt><trkpt lat="44.798931104016816" lon="9.680754673447522"><ele>430.0</ele><time>2026-05-02T08:14:46Z</time></trkpt><trkpt lat="44.798909060464084" lon="9.680869708186034"><ele>430.00000000000006</ele><time>2026-05-02T08:14:47Z</time></trkpt><trkpt lat="44.79888359064473" lon="9.68096336213454"><ele>430.0</ele><time>2026-05-02T08:14:48Z</time></trkpt><trkpt lat="44.79883827099865" lon="9.681036768775922"><ele>430.0</ele><time>2026-05-02T08:14:49Z</time></trkpt><trkpt lat="44.79877742911535" lon="9.681082144743602"><ele>430.0</ele><time>2026-05-02T08:14:50Z</time></trkpt><trkpt lat="44.798701148235224" lon="9.681122591424025"><ele>430.00000000000006</ele><time>2026-05-02T08:14:51Z</time></trkpt><trkpt lat="44.798632953293925" lon="9.681185140585406"><ele>430.0</ele><time>2026-05-02T08:14:52Z</time></trkpt><trkpt lat="44.79857069108177" lon="9.68126925199713"><ele>431.33333333333337</ele><time>2026-05-02T08:14:53Z</time></trkpt><trkpt lat="44.798513988688725" lon="9.681362976306852"><ele>432.6666666666667</ele><time>2026-05-02T08:14:54Z</time></trkpt><trkpt lat="44.79847517295861" lon="9.681471378838257"><ele>434.0</ele><time>2026-05-02T08:14:55Z</time></trkpt><trkpt lat="44.79844237736055" lon="9.681583445658738"><ele>435.33333333333337</ele><time>2026-05-02T08:14:56Z</time></trkpt><trkpt lat="44.798405319421356" lon="9.681677960026951"><ele>436.6666666666667</ele><time>2026-05-02T08:14:57Z</time></trkpt><trkpt lat="44.79839623235676" lon="9.681816999702425"><ele>438.0</ele><time>2026-05-02T08:14:59Z</time></trkpt><trkpt lat="44.79847567646107" lon="9.681926873309983"><ele>440.5</ele><time>2026-05-02T08:15:01Z</time></trkpt><trkpt lat="44.79859743917715" lon="9.681996424445664"><ele>443.0</ele><time>2026-05-02T08:15:03Z</time></trkpt><trkpt lat="44.79865848470718" lon="9.682059181891038"><ele>445.5</ele><time>2026-05-02T08:15:04Z</time></trkpt><trkpt lat="44.79871431145595" lon="9.682127742204921"><ele>448.0</ele><time>2026-05-02T08:15:05Z</time></trkpt><trkpt lat="44.79877101750153" lon="9.682205220597838"><ele>450.5</ele><time>2026-05-02T08:15:06Z</time></trkpt><trkpt lat="44.79883681258785" lon="9.68228470206103"><ele>453.0</ele><time>2026-05-02T08:15:07Z</time></trkpt><trkpt lat="44.79890295802555" lon="9.682364214660971"><ele>453.0</ele><time>2026-05-02T08:15:08Z</time></trkpt><trkpt lat="44.79897622834263" lon="9.682444513433488"><ele>453.0</ele><time>2026-05-02T08:15:09Z</time></trkpt><trkpt lat="44.79905393531691" lon="9.682512355158488"><ele>453.0</ele><time>2026-05-02T08:15:10Z</time></trkpt><trkpt lat="44.799138455748896" lon="9.682566796686663"><ele>453.0</ele><time>2026-05-02T08:15:11Z</time></trkpt><trkpt lat="44.79919972500212" lon="9.682607272077586"><ele>453.0</ele><time>2026-05-02T08:15:12Z</time></trkpt><trkpt lat="44.79924292383964" lon="9.682731508266166"><ele>453.0</ele><time>2026-05-02T08:15:14Z</time></trkpt><trkpt lat="44.79918502951176" lon="9.682820160090046"><ele>453.0</ele><time>2026-05-02T08:15:16Z</time></trkpt><trkpt lat="44.79909182912177" lon="9.682755409210085"><ele>452.99999999999994</ele><time>2026-05-02T08:15:18Z</time></trkpt><trkpt lat="44.79898767984458" lon="9.68265829734756"><ele>452.99999999999994</ele><time>2026-05-02T08:15:20Z</time></trkpt><trkpt lat="44.79891915541977" lon="9.682644767818037"><ele>453.0</ele><time>2026-05-02T08:15:21Z</time></trkpt><trkpt lat="44.79884574233064" lon="9.682665115600063"><ele>453.0</ele><time>2026-05-02T08:15:22Z</time></trkpt><trkpt lat="44.79875641661533" lon="9.68269832141599"><ele>453.0</ele><time>2026-05-02T08:15:22.999Z</time></trkpt><trkpt lat="44.79866317386793" lon="9.682747551398569"><ele>452.99999999999994</ele><time>2026-05-02T08:15:23.999Z</time></trkpt><trkpt lat="44.79855359485913" lon="9.682811988020184"><ele>452.99999999999994</ele><time>2026-05-02T08:15:24.999Z</time></trkpt><trkpt lat="44.79844350827508" lon="9.682856344687558"><ele>453.0</ele><time>2026-05-02T08:15:25.999Z</time></trkpt><trkpt lat="44.79836136444676" lon="9.682885758766286"><ele>453.0</ele><time>2026-05-02T08:15:26.999Z</time></trkpt><trkpt lat="44.79828998629499" lon="9.682939249863209"><ele>457.0</ele><time>2026-05-02T08:15:27.999Z</time></trkpt><trkpt lat="44.79822881810217" lon="9.683018564288568"><ele>460.99999999999994</ele><time>2026-05-02T08:15:28.999Z</time></trkpt><trkpt lat="44.79816008902691" lon="9.683141796113816"><ele>464.99999999999994</ele><time>2026-05-02T08:15:29.999Z</time></trkpt><trkpt lat="44.79807598917038" lon="9.683266933791247"><ele>469.0</ele><time>2026-05-02T08:15:30.999Z</time></trkpt><trkpt lat="44.79801862682801" lon="9.683328734199936"><ele>473.0</ele><time>2026-05-02T08:15:31.999Z</time></trkpt><trkpt lat="44.797914481582836" lon="9.683320307112677"><ele>472.99999999999994</ele><time>2026-05-02T08:15:33.999Z</time></trkpt><trkpt lat="44.79786646855858" lon="9.683251465917492"><ele>473.0</ele><time>2026-05-02T08:15:34.999Z</time></trkpt><trkpt lat="44.79781203272982" lon="9.68315511762309"><ele>473.0</ele><time>2026-05-02T08:15:35.999Z</time></trkpt><trkpt lat="44.797756796176785" lon="9.683053664782665"><ele>473.0</ele><time>2026-05-02T08:15:36.999Z</time></trkpt><trkpt lat="44.797699622205336" lon="9.68298755379242"><ele>472.99999999999994</ele><time>2026-05-02T08:15:37.999Z</time></trkpt><trkpt lat="44.79762090242782" lon="9.682958534743975"><ele>473.0</ele><time>2026-05-02T08:15:39.999Z</time></trkpt><trkpt lat="44.79758144372194" lon="9.683060481416941"><ele>473.0</ele><time>2026-05-02T08:15:42.999Z</time></trkpt><trkpt lat="44.79761642728165" lon="9.683141674978822"><ele>472.99999999999994</ele><time>2026-05-02T08:15:44.999Z</time></trkpt><trkpt lat="44.79773587651732" lon="9.68322845530119"><ele>472.99999999999994</ele><time>2026-05-02T08:15:46.999Z</time></trkpt><trkpt lat="44.79778060514548" lon="9.683312096004533"><ele>473.0</ele><time>2026-05-02T08:15:47.999Z</time></trkpt><trkpt lat="44.79783545926308" lon="9.68342820716937"><ele>473.0</ele><time>2026-05-02T08:15:48.999Z</time></trkpt><trkpt lat="44.79791250631929" lon="9.683549509433753"><ele>477.75</ele><time>2026-05-02T08:15:49.999Z</time></trkpt><trkpt lat="44.79799867338432" lon="9.683650097908478"><ele>482.5</ele><time>2026-05-02T08:15:50.999Z</time></trkpt><trkpt lat="44.798098668260714" lon="9.683741861222044"><ele>487.25</ele><time>2026-05-02T08:15:51.999Z</time></trkpt><trkpt lat="44.79820812851524" lon="9.683834653171488"><ele>492.0</ele><time>2026-05-02T08:15:52.999Z</time></trkpt><trkpt lat="44.798345101096224" lon="9.683924534873896"><ele>492.0</ele><time>2026-05-02T08:15:53.999Z</time></trkpt><trkpt lat="44.798473114001986" lon="9.683982830321211"><ele>492.0</ele><time>2026-05-02T08:15:54.999Z</time></trkpt><trkpt lat="44.79857060536691" lon="9.68401913547008"><ele>492.0</ele><time>2026-05-02T08:15:55.999Z</time></trkpt><trkpt lat="44.798633732712325" lon="9.684064431519197"><ele>492.0</ele><time>2026-05-02T08:15:56.999Z</time></trkpt><trkpt lat="44.79868912726378" lon="9.684107752599079"><ele>492.0</ele><time>2026-05-02T08:15:58.999Z</time></trkpt><trkpt lat="44.798753767883134" lon="9.68412070928758"><ele>492.0</ele><time>2026-05-02T08:16:19.999Z</time></trkpt><trkpt lat="44.798802817139446" lon="9.684179393466847"><ele>492.0</ele><time>2026-05-02T08:16:22.999Z</time></trkpt><trkpt lat="44.79871912182016" lon="9.684232140221258"><ele>492.00000000000006</ele><time>2026-05-02T08:16:25.999Z</time></trkpt><trkpt lat="44.79862272768452" lon="9.68419500071376"><ele>492.00000000000006</ele><time>2026-05-02T08:16:27.999Z</time></trkpt><trkpt lat="44.79850161445671" lon="9.684174035532996"><ele>492.0</ele><time>2026-05-02T08:16:29.999Z</time></trkpt><trkpt lat="44.79839395063789" lon="9.684238245155539"><ele>492.0</ele><time>2026-05-02T08:16:31.999Z</time></trkpt><trkpt lat="44.79829040460066" lon="9.684351258751635"><ele>496.6</ele><time>2026-05-02T08:16:33.998Z</time></trkpt><trkpt lat="44.79824133134359" lon="9.684431479462399"><ele>501.20000000000005</ele><time>2026-05-02T08:16:34.998Z</time></trkpt><trkpt lat="44.79820546043978" lon="9.684518712659631"><ele>505.8</ele><time>2026-05-02T08:16:35.998Z</time></trkpt><trkpt lat="44.79813883653214" lon="9.684686419028889"><ele>510.4</ele><time>2026-05-02T08:16:37.998Z</time></trkpt><trkpt lat="44.79813373311351" lon="9.684867218895954"><ele>515.0</ele><time>2026-05-02T08:16:39.998Z</time></trkpt><trkpt lat="44.79810577852869" lon="9.684966089012716"><ele>515.0</ele><time>2026-05-02T08:16:40.998Z</time></trkpt><trkpt lat="44.79809021533039" lon="9.685056643508895"><ele>515.0</ele><time>2026-05-02T08:16:41.998Z</time></trkpt><trkpt lat="44.798032067752224" lon="9.685173114531066"><ele>515.0</ele><time>2026-05-02T08:16:43.998Z</time></trkpt><trkpt lat="44.79795689066496" lon="9.685250500746562"><ele>515.0</ele><time>2026-05-02T08:16:45.998Z</time></trkpt><trkpt lat="44.79785167373178" lon="9.685304053855996"><ele>515.0</ele><time>2026-05-02T08:16:48Z</time></trkpt><trkpt lat="44.797791926275764" lon="9.685338519685748"><ele>515.0</ele><time>2026-05-02T08:16:49Z</time></trkpt><trkpt lat="44.79768000324552" lon="9.685405000100394"><ele>515.8</ele><time>2026-05-02T08:16:51Z</time></trkpt><trkpt lat="44.797573807431085" lon="9.685440382321463"><ele>516.6</ele><time>2026-05-02T08:16:53Z</time></trkpt><trkpt lat="44.79746732128736" lon="9.685435129075561"><ele>517.4</ele><time>2026-05-02T08:16:55Z</time></trkpt><trkpt lat="44.797432946964456" lon="9.685357527662282"><ele>518.2</ele><time>2026-05-02T08:16:57Z</time></trkpt><trkpt lat="44.79745786988873" lon="9.685241897915551"><ele>519.0</ele><time>2026-05-02T08:16:59Z</time></trkpt><trkpt lat="44.797475519215595" lon="9.68509164431139"><ele>519.0</ele><time>2026-05-02T08:17:01Z</time></trkpt><trkpt lat="44.7974423493558" lon="9.68493592954136"><ele>519.0</ele><time>2026-05-02T08:17:03Z</time></trkpt><trkpt lat="44.79743055741698" lon="9.684766660625101"><ele>519.0</ele><time>2026-05-02T08:17:05Z</time></trkpt><trkpt lat="44.797430485725194" lon="9.684666937299395"><ele>519.0</ele><time>2026-05-02T08:17:07Z</time></trkpt><trkpt lat="44.79735569410819" lon="9.684649295614063"><ele>519.0</ele><time>2026-05-02T08:17:10Z</time></trkpt><trkpt lat="44.79727656982814" lon="9.684725832642465"><ele>519.0</ele><time>2026-05-02T08:17:12Z</time></trkpt><trkpt lat="44.79719790344111" lon="9.684805969991993"><ele>519.0</ele><time>2026-05-02T08:17:14Z</time></trkpt><trkpt lat="44.7971245958954" lon="9.684730883969731"><ele>519.0</ele><time>2026-05-02T08:17:16Z</time></trkpt><trkpt lat="44.797111099494366" lon="9.684635264843875"><ele>519.0</ele><time>2026-05-02T08:17:17Z</time></trkpt><trkpt lat="44.79704577715083" lon="9.684496301423136"><ele>519.0</ele><time>2026-05-02T08:17:20Z</time></trkpt><trkpt lat="44.79697821336042" lon="9.68444301367256"><ele>517.0</ele><time>2026-05-02T08:17:21Z</time></trkpt><trkpt lat="44.796926300726724" lon="9.684373040302125"><ele>515.0</ele><time>2026-05-02T08:17:22Z</time></trkpt><trkpt lat="44.79680648534297" lon="9.6843469498562"><ele>513.0</ele><time>2026-05-02T08:17:24Z</time></trkpt><trkpt lat="44.796709671441796" lon="9.684388798671575"><ele>511.0</ele><time>2026-05-02T08:17:26Z</time></trkpt><trkpt lat="44.79669697442429" lon="9.684479385011233"><ele>509.0</ele><time>2026-05-02T08:17:29Z</time></trkpt><trkpt lat="44.79669370229483" lon="9.684607993832456"><ele>514.6666666666666</ele><time>2026-05-02T08:17:31Z</time></trkpt><trkpt lat="44.7966900646156" lon="9.684716534562506"><ele>520.3333333333333</ele><time>2026-05-02T08:17:33.999Z</time></trkpt><trkpt lat="44.796596928239964" lon="9.684773539900823"><ele>526.0</ele><time>2026-05-02T08:17:51.999Z</time></trkpt><trkpt lat="44.79652287879855" lon="9.684821721567427"><ele>531.6666666666666</ele><time>2026-05-02T08:17:53.999Z</time></trkpt><trkpt lat="44.79643011641181" lon="9.684864558725806"><ele>537.3333333333334</ele><time>2026-05-02T08:17:55.999Z</time></trkpt><trkpt lat="44.796360922505826" lon="9.684856625052184"><ele>543.0</ele><time>2026-05-02T08:17:56.999Z</time></trkpt><trkpt lat="44.7962824773238" lon="9.684930709865236"><ele>543.0</ele><time>2026-05-02T08:17:58.999Z</time></trkpt><trkpt lat="44.796230598133064" lon="9.685021950637317"><ele>543.0</ele><time>2026-05-02T08:17:59.999Z</time></trkpt><trkpt lat="44.796178475199724" lon="9.685087835508845"><ele>543.0</ele><time>2026-05-02T08:18:00.999Z</time></trkpt><trkpt lat="44.7960634165683" lon="9.685080795300944"><ele>543.0</ele><time>2026-05-02T08:18:02.999Z</time></trkpt><trkpt lat="44.79601104548093" lon="9.685193755766635"><ele>543.0</ele><time>2026-05-02T08:18:04.999Z</time></trkpt><trkpt lat="44.795980535748875" lon="9.68527923372101"><ele>543.0</ele><time>2026-05-02T08:18:05.999Z</time></trkpt><trkpt lat="44.79591452550645" lon="9.685369091809193"><ele>548.75</ele><time>2026-05-02T08:18:06.999Z</time></trkpt><trkpt lat="44.795821730832344" lon="9.685452385660202"><ele>554.5</ele><time>2026-05-02T08:18:08.999Z</time></trkpt><trkpt lat="44.795736103442486" lon="9.685477599232401"><ele>560.25</ele><time>2026-05-02T08:18:10.999Z</time></trkpt><trkpt lat="44.79559498962469" lon="9.68557347308172"><ele>566.0</ele><time>2026-05-02T08:18:12.999Z</time></trkpt><trkpt lat="44.79550111722256" lon="9.685656688321778"><ele>566.0</ele><time>2026-05-02T08:18:13.999Z</time></trkpt><trkpt lat="44.795404146595004" lon="9.685729086013136"><ele>566.0</ele><time>2026-05-02T08:18:14.999Z</time></trkpt><trkpt lat="44.7953376728336" lon="9.685775263670974"><ele>566.0</ele><time>2026-05-02T08:18:15.999Z</time></trkpt><trkpt lat="44.7953128144637" lon="9.685894383461429"><ele>566.0</ele><time>2026-05-02T08:18:17.999Z</time></trkpt><trkpt lat="44.79531227514716" lon="9.686053033364589"><ele>566.0</ele><time>2026-05-02T08:18:19.999Z</time></trkpt><trkpt lat="44.79527356577691" lon="9.686162371913658"><ele>567.4</ele><time>2026-05-02T08:18:43.999Z</time></trkpt><trkpt lat="44.79526556743276" lon="9.686301428920688"><ele>568.8</ele><time>2026-05-02T08:18:46.998Z</time></trkpt><trkpt lat="44.79517656974654" lon="9.68622343355082"><ele>570.1999999999999</ele><time>2026-05-02T08:18:49.998Z</time></trkpt><trkpt lat="44.79510483840851" lon="9.686179642479006"><ele>571.6</ele><time>2026-05-02T08:18:50.998Z</time></trkpt><trkpt lat="44.79504395795075" lon="9.686155677594266"><ele>573.0</ele><time>2026-05-02T08:18:51.998Z</time></trkpt><trkpt lat="44.794931682272306" lon="9.686174306366942"><ele>574.0</ele><time>2026-05-02T08:18:54Z</time></trkpt><trkpt lat="44.794845155408304" lon="9.686131027420558"><ele>575.0</ele><time>2026-05-02T08:18:55Z</time></trkpt><trkpt lat="44.79479344375881" lon="9.68606491397266"><ele>576.0</ele><time>2026-05-02T08:18:56Z</time></trkpt><trkpt lat="44.79469081664535" lon="9.685958436040375"><ele>577.0</ele><time>2026-05-02T08:18:58Z</time></trkpt><trkpt lat="44.794590514758426" lon="9.685906282369134"><ele>578.0</ele><time>2026-05-02T08:19:00Z</time></trkpt><trkpt lat="44.794483825071076" lon="9.685895415362038"><ele>578.0</ele><time>2026-05-02T08:19:02Z</time></trkpt><trkpt lat="44.7943854494941" lon="9.685940410179048"><ele>578.0</ele><time>2026-05-02T08:19:04Z</time></trkpt><trkpt lat="44.79431817722309" lon="9.686011706895707"><ele>578.0</ele><time>2026-05-02T08:19:06Z</time></trkpt><trkpt lat="44.79424544190536" lon="9.685968061036494"><ele>578.0</ele><time>2026-05-02T08:19:09Z</time></trkpt><trkpt lat="44.79423713633284" lon="9.685840315688075"><ele>578.0</ele><time>2026-05-02T08:19:11Z</time></trkpt><trkpt lat="44.794161626038715" lon="9.685804231846133"><ele>578.0</ele><time>2026-05-02T08:19:14Z</time></trkpt><trkpt lat="44.7941164760196" lon="9.68570735790606"><ele>579.1999999999999</ele><time>2026-05-02T08:19:17Z</time></trkpt><trkpt lat="44.794067425853186" lon="9.685557680858638"><ele>580.4</ele><time>2026-05-02T08:19:20Z</time></trkpt><trkpt lat="44.794041957791215" lon="9.685457930056991"><ele>581.5999999999999</ele><time>2026-05-02T08:19:21Z</time></trkpt><trkpt lat="44.79399926373849" lon="9.68535610069783"><ele>582.8</ele><time>2026-05-02T08:19:23Z</time></trkpt><trkpt lat="44.793945851698446" lon="9.685249233612643"><ele>584.0</ele><time>2026-05-02T08:19:25Z</time></trkpt><trkpt lat="44.79392998334817" lon="9.685132038627387"><ele>581.3333333333333</ele><time>2026-05-02T08:19:26Z</time></trkpt><trkpt lat="44.79391300362424" lon="9.685031589780916"><ele>578.6666666666666</ele><time>2026-05-02T08:19:27Z</time></trkpt><trkpt lat="44.7938634970153" lon="9.684883261510583"><ele>576.0</ele><time>2026-05-02T08:19:29Z</time></trkpt><trkpt lat="44.79383244319229" lon="9.684785579527453"><ele>573.3333333333334</ele><time>2026-05-02T08:19:30Z</time></trkpt><trkpt lat="44.79380456449272" lon="9.684672569259327"><ele>570.6666666666667</ele><time>2026-05-02T08:19:31Z</time></trkpt><trkpt lat="44.79374947337576" lon="9.68457424612018"><ele>568.0</ele><time>2026-05-02T08:19:32Z</time></trkpt><trkpt lat="44.79368701185678" lon="9.68448693963324"><ele>570.8</ele><time>2026-05-02T08:19:33Z</time></trkpt><trkpt lat="44.793609198981436" lon="9.68438313054552"><ele>573.5999999999999</ele><time>2026-05-02T08:19:35Z</time></trkpt><trkpt lat="44.7935047034632" lon="9.684298336296221"><ele>576.4000000000001</ele><time>2026-05-02T08:19:37Z</time></trkpt><trkpt lat="44.793446003502346" lon="9.684242062512729"><ele>579.2</ele><time>2026-05-02T08:19:38Z</time></trkpt><trkpt lat="44.793348543413494" lon="9.684172289247934"><ele>582.0</ele><time>2026-05-02T08:19:40Z</time></trkpt><trkpt lat="44.79323358351667" lon="9.68413639258122"><ele>582.0</ele><time>2026-05-02T08:19:42Z</time></trkpt><trkpt lat="44.79316533051417" lon="9.684122081686855"><ele>582.0</ele><time>2026-05-02T08:19:43Z</time></trkpt><trkpt lat="44.79309368068995" lon="9.684131519400804"><ele>582.0</ele><time>2026-05-02T08:19:43.999Z</time></trkpt><trkpt lat="44.7929696501206" lon="9.684157658995947"><ele>582.0</ele><time>2026-05-02T08:19:45.999Z</time></trkpt><trkpt lat="44.79290824385155" lon="9.684088606644082"><ele>582.0</ele><time>2026-05-02T08:19:47.999Z</time></trkpt><trkpt lat="44.792840266917004" lon="9.684055500229908"><ele>582.0</ele><time>2026-05-02T08:19:49.999Z</time></trkpt><trkpt lat="44.79271726636036" lon="9.6840725302559"><ele>582.0</ele><time>2026-05-02T08:19:52.999Z</time></trkpt><trkpt lat="44.79262929552236" lon="9.684106200902859"><ele>582.0</ele><time>2026-05-02T08:19:53.999Z</time></trkpt><trkpt lat="44.79256042263685" lon="9.68411789866028"><ele>582.0</ele><time>2026-05-02T08:19:54.999Z</time></trkpt><trkpt lat="44.792477849045184" lon="9.684159939178965"><ele>582.0</ele><time>2026-05-02T08:20:02.999Z</time></trkpt><trkpt lat="44.792567082414955" lon="9.684210870365213"><ele>582.0</ele><time>2026-05-02T08:20:21.999Z</time></trkpt><trkpt lat="44.79264842002942" lon="9.684269155929622"><ele>582.0</ele><time>2026-05-02T08:20:23.999Z</time></trkpt><trkpt lat="44.792735088138656" lon="9.684313071778341"><ele>582.0</ele><time>2026-05-02T08:20:25.999Z</time></trkpt><trkpt lat="44.79283300949327" lon="9.684415940979793"><ele>582.0</ele><time>2026-05-02T08:20:27.999Z</time></trkpt><trkpt lat="44.792891918493034" lon="9.684470854099139"><ele>582.0</ele><time>2026-05-02T08:20:28.999Z</time></trkpt><trkpt lat="44.7929518470866" lon="9.68451811865203"><ele>582.0</ele><time>2026-05-02T08:20:29.999Z</time></trkpt><trkpt lat="44.793014924183026" lon="9.684552544801061"><ele>582.0</ele><time>2026-05-02T08:20:30.999Z</time></trkpt><trkpt lat="44.79307935684971" lon="9.684575879551508"><ele>582.0</ele><time>2026-05-02T08:20:31.999Z</time></trkpt><trkpt lat="44.793194442164555" lon="9.684615527885462"><ele>579.6666666666666</ele><time>2026-05-02T08:20:33.999Z</time></trkpt><trkpt lat="44.793290432875665" lon="9.684713182159447"><ele>577.3333333333334</ele><time>2026-05-02T08:20:35.999Z</time></trkpt><trkpt lat="44.793331465775736" lon="9.684785690053372"><ele>575.0</ele><time>2026-05-02T08:20:36.999Z</time></trkpt><trkpt lat="44.79339911649107" lon="9.684863354873071"><ele>572.6666666666667</ele><time>2026-05-02T08:20:38.999Z</time></trkpt><trkpt lat="44.79347973756713" lon="9.684947623235507"><ele>570.3333333333334</ele><time>2026-05-02T08:20:40.999Z</time></trkpt><trkpt lat="44.79348528713301" lon="9.68503971572633"><ele>568.0</ele><time>2026-05-02T08:20:41.999Z</time></trkpt><trkpt lat="44.79350613845535" lon="9.685151759475145"><ele>568.0</ele><time>2026-05-02T08:20:42.999Z</time></trkpt><trkpt lat="44.793532216072045" lon="9.685237080420602"><ele>568.0</ele><time>2026-05-02T08:20:43.999Z</time></trkpt><trkpt lat="44.79355753510536" lon="9.685344654476497"><ele>568.0</ele><time>2026-05-02T08:20:44.999Z</time></trkpt><trkpt lat="44.79361811157906" lon="9.685505003010546"><ele>568.0</ele><time>2026-05-02T08:20:46.999Z</time></trkpt><trkpt lat="44.793645921848714" lon="9.685661217108384"><ele>568.0</ele><time>2026-05-02T08:20:48.999Z</time></trkpt><trkpt lat="44.79363768782587" lon="9.68575653955718"><ele>571.1999999999999</ele><time>2026-05-02T08:20:49.999Z</time></trkpt><trkpt lat="44.79365584115926" lon="9.685896050101825"><ele>574.4</ele><time>2026-05-02T08:20:51.999Z</time></trkpt><trkpt lat="44.793699823125785" lon="9.686008968555798"><ele>577.5999999999999</ele><time>2026-05-02T08:20:53.999Z</time></trkpt><trkpt lat="44.7937366048051" lon="9.686179623071231"><ele>580.8</ele><time>2026-05-02T08:20:55.999Z</time></trkpt><trkpt lat="44.79379144583183" lon="9.686250923803962"><ele>584.0</ele><time>2026-05-02T08:20:56.999Z</time></trkpt><trkpt lat="44.79388565519239" lon="9.686343146013042"><ele>587.1666666666666</ele><time>2026-05-02T08:20:59Z</time></trkpt><trkpt lat="44.79393717033378" lon="9.68647220724265"><ele>590.3333333333333</ele><time>2026-05-02T08:21:01Z</time></trkpt><trkpt lat="44.79397590444611" lon="9.686545758641024"><ele>593.5</ele><time>2026-05-02T08:21:02Z</time></trkpt><trkpt lat="44.7940159091669" lon="9.686677230219532"><ele>596.6666666666666</ele><time>2026-05-02T08:21:03Z</time></trkpt><trkpt lat="44.7940516412988" lon="9.686778945865385"><ele>599.8333333333334</ele><time>2026-05-02T08:21:04Z</time></trkpt><trkpt lat="44.794091319157715" lon="9.686866886398468"><ele>603.0</ele><time>2026-05-02T08:21:05Z</time></trkpt><trkpt lat="44.79414041896344" lon="9.686944499538841"><ele>603.1999999999999</ele><time>2026-05-02T08:21:06Z</time></trkpt><trkpt lat="44.79421145978067" lon="9.68705847868486"><ele>603.4</ele><time>2026-05-02T08:21:08Z</time></trkpt><trkpt lat="44.79429874574783" lon="9.687071825146248"><ele>603.5999999999999</ele><time>2026-05-02T08:21:10Z</time></trkpt><trkpt lat="44.7943755435253" lon="9.687089266066643"><ele>603.8</ele><time>2026-05-02T08:21:11Z</time></trkpt><trkpt lat="44.79444019549464" lon="9.687143460438328"><ele>604.0</ele><time>2026-05-02T08:21:12Z</time></trkpt><trkpt lat="44.79454244963176" lon="9.68726990651483"><ele>604.0</ele><time>2026-05-02T08:21:14Z</time></trkpt><trkpt lat="44.79459336477081" lon="9.687350050479848"><ele>604.0</ele><time>2026-05-02T08:21:15Z</time></trkpt><trkpt lat="44.79463617005914" lon="9.687452829776092"><ele>604.0</ele><time>2026-05-02T08:21:16Z</time></trkpt><trkpt lat="44.79467189754663" lon="9.687565740529216"><ele>604.0</ele><time>2026-05-02T08:21:17Z</time></trkpt><trkpt lat="44.7947141152341" lon="9.687687997578418"><ele>604.0</ele><time>2026-05-02T08:21:18Z</time></trkpt><trkpt lat="44.79476832427289" lon="9.687805812873899"><ele>604.0</ele><time>2026-05-02T08:21:19Z</time></trkpt><trkpt lat="44.7948198379512" lon="9.687919653136444"><ele>605.8333333333334</ele><time>2026-05-02T08:21:20Z</time></trkpt><trkpt lat="44.79486186945084" lon="9.688014024259036"><ele>607.6666666666667</ele><time>2026-05-02T08:21:21Z</time></trkpt><trkpt lat="44.794905445173946" lon="9.688111139820734"><ele>609.5</ele><time>2026-05-02T08:21:22Z</time></trkpt><trkpt lat="44.79494709903809" lon="9.688207327225753"><ele>611.3333333333334</ele><time>2026-05-02T08:21:23Z</time></trkpt><trkpt lat="44.79498760222983" lon="9.68829737265823"><ele>613.1666666666666</ele><time>2026-05-02T08:21:24Z</time></trkpt><trkpt lat="44.79502382067869" lon="9.688377914001503"><ele>615.0</ele><time>2026-05-02T08:21:25Z</time></trkpt><trkpt lat="44.79508180158924" lon="9.688520327302413"><ele>616.0</ele><time>2026-05-02T08:21:27Z</time></trkpt><trkpt lat="44.79512824207992" lon="9.688659469842573"><ele>617.0</ele><time>2026-05-02T08:21:29Z</time></trkpt><trkpt lat="44.79518037601152" lon="9.688816235656635"><ele>618.0</ele><time>2026-05-02T08:21:31Z</time></trkpt><trkpt lat="44.79520592054638" lon="9.688897753198413"><ele>619.0</ele><time>2026-05-02T08:21:32Z</time></trkpt><trkpt lat="44.79522917072656" lon="9.688980254929769"><ele>620.0</ele><time>2026-05-02T08:21:33Z</time></trkpt><trkpt lat="44.79527030119938" lon="9.689103232804184"><ele>618.5</ele><time>2026-05-02T08:21:35Z</time></trkpt><trkpt lat="44.795303501459934" lon="9.689228151853717"><ele>617.0</ele><time>2026-05-02T08:21:37Z</time></trkpt><trkpt lat="44.79525926781045" lon="9.689348949921962"><ele>615.5</ele><time>2026-05-02T08:21:39Z</time></trkpt><trkpt lat="44.79526282089387" lon="9.689438261158747"><ele>614.0</ele><time>2026-05-02T08:21:44Z</time></trkpt><trkpt lat="44.795306911500674" lon="9.689537593940909"><ele>612.5</ele><time>2026-05-02T08:21:49.999Z</time></trkpt><trkpt lat="44.79535565313783" lon="9.689617007798107"><ele>611.0</ele><time>2026-05-02T08:21:54.999Z</time></trkpt><trkpt lat="44.795361110217726" lon="9.689724233852836"><ele>611.0</ele><time>2026-05-02T08:21:57.999Z</time></trkpt><trkpt lat="44.79528515163683" lon="9.68979204517701"><ele>611.0</ele><time>2026-05-02T08:22:00.999Z</time></trkpt><trkpt lat="44.79517621721279" lon="9.689870648851118"><ele>611.0</ele><time>2026-05-02T08:22:02.999Z</time></trkpt><trkpt lat="44.79510943471678" lon="9.689907129336325"><ele>611.0</ele><time>2026-05-02T08:22:03.999Z</time></trkpt><trkpt lat="44.79503423087245" lon="9.689931300025307"><ele>611.0</ele><time>2026-05-02T08:22:04.999Z</time></trkpt><trkpt lat="44.79496143023659" lon="9.689961269567288"><ele>611.0</ele><time>2026-05-02T08:22:05.999Z</time></trkpt><trkpt lat="44.79488646524517" lon="9.69000615433542"><ele>612.3333333333333</ele><time>2026-05-02T08:22:06.999Z</time></trkpt><trkpt lat="44.79481608323777" lon="9.69005171851582"><ele>613.6666666666666</ele><time>2026-05-02T08:22:07.999Z</time></trkpt><trkpt lat="44.79474418570739" lon="9.69009463853857"><ele>615.0</ele><time>2026-05-02T08:22:08.999Z</time></trkpt><trkpt lat="44.794670923219485" lon="9.69013098571519"><ele>616.3333333333334</ele><time>2026-05-02T08:22:09.999Z</time></trkpt><trkpt lat="44.794603000063184" lon="9.690162914360775"><ele>617.6666666666667</ele><time>2026-05-02T08:22:10.999Z</time></trkpt><trkpt lat="44.79451853928945" lon="9.690178089921288"><ele>619.0</ele><time>2026-05-02T08:22:12.999Z</time></trkpt><trkpt lat="44.79445551353435" lon="9.690099344698748"><ele>619.0</ele><time>2026-05-02T08:22:14.999Z</time></trkpt><trkpt lat="44.79443146616155" lon="9.689998193996479"><ele>619.0</ele><time>2026-05-02T08:22:15.999Z</time></trkpt><trkpt lat="44.79440383359382" lon="9.689901444860801"><ele>619.0</ele><time>2026-05-02T08:22:16.999Z</time></trkpt><trkpt lat="44.794340725109016" lon="9.68978968872306"><ele>619.0</ele><time>2026-05-02T08:22:18.999Z</time></trkpt><trkpt lat="44.794267224221834" lon="9.689690462323904"><ele>619.0</ele><time>2026-05-02T08:22:20.999Z</time></trkpt><trkpt lat="44.79421239502583" lon="9.68964570312791"><ele>619.0</ele><time>2026-05-02T08:22:21.999Z</time></trkpt><trkpt lat="44.794152768075044" lon="9.68961272463415"><ele>621.2</ele><time>2026-05-02T08:22:22.999Z</time></trkpt><trkpt lat="44.79409305769096" lon="9.689580789793778"><ele>623.4</ele><time>2026-05-02T08:22:23.999Z</time></trkpt><trkpt lat="44.79403546583537" lon="9.689540393157142"><ele>625.6</ele><time>2026-05-02T08:22:24.999Z</time></trkpt><trkpt lat="44.79396346862602" lon="9.689417538714705"><ele>627.8</ele><time>2026-05-02T08:22:26.999Z</time></trkpt><trkpt lat="44.793890617697386" lon="9.68933111033242"><ele>630.0</ele><time>2026-05-02T08:22:28.999Z</time></trkpt><trkpt lat="44.79379283454692" lon="9.689227533928067"><ele>631.6666666666666</ele><time>2026-05-02T08:22:30.999Z</time></trkpt><trkpt lat="44.7936878257702" lon="9.68913470325006"><ele>633.3333333333334</ele><time>2026-05-02T08:22:32.999Z</time></trkpt><trkpt lat="44.793630468487976" lon="9.689094815186019"><ele>635.0</ele><time>2026-05-02T08:22:33.999Z</time></trkpt><trkpt lat="44.793567160194236" lon="9.689069550318214"><ele>636.6666666666667</ele><time>2026-05-02T08:22:34.999Z</time></trkpt><trkpt lat="44.79348954430907" lon="9.689064194019133"><ele>638.3333333333334</ele><time>2026-05-02T08:22:35.999Z</time></trkpt><trkpt lat="44.793418026800026" lon="9.689053348548052"><ele>640.0</ele><time>2026-05-02T08:22:36.999Z</time></trkpt><trkpt lat="44.79334564852661" lon="9.689025124124958"><ele>642.1666666666667</ele><time>2026-05-02T08:22:37.999Z</time></trkpt><trkpt lat="44.79323033251702" lon="9.6889863193607"><ele>644.3333333333334</ele><time>2026-05-02T08:22:39.999Z</time></trkpt><trkpt lat="44.79314570400035" lon="9.688970806106067"><ele>646.5</ele><time>2026-05-02T08:22:40.999Z</time></trkpt><trkpt lat="44.79306534610609" lon="9.688949718608919"><ele>648.6666666666666</ele><time>2026-05-02T08:22:41.999Z</time></trkpt><trkpt lat="44.793005344471865" lon="9.688895996211741"><ele>650.8333333333333</ele><time>2026-05-02T08:22:42.999Z</time></trkpt><trkpt lat="44.7929528479767" lon="9.688832489703168"><ele>653.0</ele><time>2026-05-02T08:22:43.999Z</time></trkpt><trkpt lat="44.79284999410995" lon="9.688745125850518"><ele>653.0</ele><time>2026-05-02T08:22:45.999Z</time></trkpt><trkpt lat="44.79280243366606" lon="9.688682580994431"><ele>653.0</ele><time>2026-05-02T08:22:46.999Z</time></trkpt><trkpt lat="44.79274895121011" lon="9.688596033211212"><ele>653.0</ele><time>2026-05-02T08:22:47.999Z</time></trkpt><trkpt lat="44.79269909327593" lon="9.688511732680325"><ele>653.0</ele><time>2026-05-02T08:22:48.999Z</time></trkpt><trkpt lat="44.792639245320075" lon="9.68841744022483"><ele>653.0</ele><time>2026-05-02T08:22:49.999Z</time></trkpt><trkpt lat="44.79258654281851" lon="9.688342139544131"><ele>653.0</ele><time>2026-05-02T08:22:50.999Z</time></trkpt><trkpt lat="44.79253838199844" lon="9.688268861103639"><ele>656.8</ele><time>2026-05-02T08:22:51.999Z</time></trkpt><trkpt lat="44.79246098836084" lon="9.68816137814385"><ele>660.5999999999999</ele><time>2026-05-02T08:22:53.999Z</time></trkpt><trkpt lat="44.79240524183217" lon="9.688046199517734"><ele>664.4000000000001</ele><time>2026-05-02T08:22:55.999Z</time></trkpt><trkpt lat="44.79231842314785" lon="9.687942781954968"><ele>668.2</ele><time>2026-05-02T08:22:57.999Z</time></trkpt><trkpt lat="44.792256758967646" lon="9.687871795327219"><ele>672.0</ele><time>2026-05-02T08:22:59.999Z</time></trkpt><trkpt lat="44.79218921540194" lon="9.687846932317031"><ele>672.0</ele><time>2026-05-02T08:23:01.998Z</time></trkpt><trkpt lat="44.79212235698129" lon="9.687808412076992"><ele>672.0</ele><time>2026-05-02T08:23:03.998Z</time></trkpt><trkpt lat="44.792030703777925" lon="9.687814965192057"><ele>672.0</ele><time>2026-05-02T08:23:06Z</time></trkpt><trkpt lat="44.79198740733087" lon="9.687737860678983"><ele>672.0</ele><time>2026-05-02T08:23:29Z</time></trkpt><trkpt lat="44.791899641630415" lon="9.68772163651696"><ele>672.0</ele><time>2026-05-02T08:23:50Z</time></trkpt><trkpt lat="44.79182251666482" lon="9.687670394485094"><ele>672.0</ele><time>2026-05-02T08:23:55.999Z</time></trkpt><trkpt lat="44.79174010915944" lon="9.687624945373472"><ele>675.2</ele><time>2026-05-02T08:23:57.999Z</time></trkpt><trkpt lat="44.79163070468058" lon="9.687627450260004"><ele>678.4000000000001</ele><time>2026-05-02T08:23:59.999Z</time></trkpt><trkpt lat="44.79153288529028" lon="9.687626016895376"><ele>681.5999999999999</ele><time>2026-05-02T08:24:01.999Z</time></trkpt><trkpt lat="44.791463553577906" lon="9.6876212189762"><ele>684.8</ele><time>2026-05-02T08:24:03.999Z</time></trkpt><trkpt lat="44.79137492124887" lon="9.687589103175537"><ele>688.0</ele><time>2026-05-02T08:24:05.999Z</time></trkpt><trkpt lat="44.79127311260462" lon="9.687562740952522"><ele>688.0</ele><time>2026-05-02T08:24:07.999Z</time></trkpt><trkpt lat="44.79114823596827" lon="9.687573230994882"><ele>688.0</ele><time>2026-05-02T08:24:09.999Z</time></trkpt><trkpt lat="44.79108280751423" lon="9.687556978255298"><ele>688.0</ele><time>2026-05-02T08:24:10.999Z</time></trkpt><trkpt lat="44.79098155266996" lon="9.687522222411202"><ele>688.0</ele><time>2026-05-02T08:24:12.999Z</time></trkpt><trkpt lat="44.79087647276402" lon="9.687452030843831"><ele>688.0</ele><time>2026-05-02T08:24:14.999Z</time></trkpt><trkpt lat="44.79082262855723" lon="9.687403731436632"><ele>689.2</ele><time>2026-05-02T08:24:15.999Z</time></trkpt><trkpt lat="44.790710054216476" lon="9.687354088685597"><ele>690.4</ele><time>2026-05-02T08:24:17.999Z</time></trkpt><trkpt lat="44.79064450011743" lon="9.687327719590789"><ele>691.6</ele><time>2026-05-02T08:24:18.999Z</time></trkpt><trkpt lat="44.79058542057852" lon="9.68729353736641"><ele>692.8000000000001</ele><time>2026-05-02T08:24:19.999Z</time></trkpt><trkpt lat="44.790481229337985" lon="9.687266239188848"><ele>694.0</ele><time>2026-05-02T08:24:21.999Z</time></trkpt><trkpt lat="44.79038840067856" lon="9.687283688287891"><ele>694.0</ele><time>2026-05-02T08:24:23.999Z</time></trkpt><trkpt lat="44.79028450572581" lon="9.687215066372387"><ele>694.0</ele><time>2026-05-02T08:24:25.999Z</time></trkpt><trkpt lat="44.790182616945835" lon="9.687215926139821"><ele>694.0</ele><time>2026-05-02T08:24:27.999Z</time></trkpt><trkpt lat="44.79008177562332" lon="9.687141981725492"><ele>694.0</ele><time>2026-05-02T08:24:29.999Z</time></trkpt><trkpt lat="44.789977532261965" lon="9.687099793571996"><ele>694.0</ele><time>2026-05-02T08:24:31.999Z</time></trkpt><trkpt lat="44.78988931864623" lon="9.687078660421088"><ele>693.0</ele><time>2026-05-02T08:24:33.999Z</time></trkpt><trkpt lat="44.78980501441507" lon="9.687042438632643"><ele>692.0</ele><time>2026-05-02T08:24:35.999Z</time></trkpt><trkpt lat="44.78974482601097" lon="9.68700946030895"><ele>691.0</ele><time>2026-05-02T08:24:38.999Z</time></trkpt><trkpt lat="44.78968085454197" lon="9.686987470134254"><ele>690.0</ele><time>2026-05-02T08:24:51.999Z</time></trkpt><trkpt lat="44.78961017066221" lon="9.68698896044079"><ele>689.0</ele><time>2026-05-02T08:24:53.999Z</time></trkpt><trkpt lat="44.78954030818062" lon="9.68700434166714"><ele>688.0</ele><time>2026-05-02T08:24:55.999Z</time></trkpt><trkpt lat="44.78947096583799" lon="9.687036774991025"><ele>687.0</ele><time>2026-05-02T08:24:58.999Z</time></trkpt><trkpt lat="44.78940765701502" lon="9.687113390635663"><ele>687.0</ele><time>2026-05-02T08:25:00.999Z</time></trkpt><trkpt lat="44.789369090051515" lon="9.68719530920554"><ele>687.0</ele><time>2026-05-02T08:25:03.999Z</time></trkpt><trkpt lat="44.78933040175853" lon="9.687282029206399"><ele>687.0</ele><time>2026-05-02T08:25:05.999Z</time></trkpt><trkpt lat="44.7892641758562" lon="9.687354828458947"><ele>687.0</ele><time>2026-05-02T08:25:08.998Z</time></trkpt><trkpt lat="44.78920059270618" lon="9.687357589211302"><ele>687.0</ele><time>2026-05-02T08:25:11Z</time></trkpt><trkpt lat="44.78912256947842" lon="9.687381960889205"><ele>687.0</ele><time>2026-05-02T08:25:13Z</time></trkpt><trkpt lat="44.78901638420377" lon="9.687387392790969"><ele>685.1666666666666</ele><time>2026-05-02T08:25:16Z</time></trkpt><trkpt lat="44.78894040408277" lon="9.687430958388983"><ele>683.3333333333334</ele><time>2026-05-02T08:25:18Z</time></trkpt><trkpt lat="44.78886451993392" lon="9.687428357777879"><ele>681.5</ele><time>2026-05-02T08:25:19Z</time></trkpt><trkpt lat="44.78880009729682" lon="9.687440085340466"><ele>679.6666666666667</ele><time>2026-05-02T08:25:20Z</time></trkpt><trkpt lat="44.78869826674867" lon="9.687460431671795"><ele>677.8333333333334</ele><time>2026-05-02T08:25:22Z</time></trkpt><trkpt lat="44.78860693173599" lon="9.68743051827411"><ele>676.0</ele><time>2026-05-02T08:25:24Z</time></trkpt><trkpt lat="44.788543398971555" lon="9.687413821070331"><ele>673.6666666666667</ele><time>2026-05-02T08:25:25Z</time></trkpt><trkpt lat="44.78847047980679" lon="9.687395768962665"><ele>671.3333333333334</ele><time>2026-05-02T08:25:26Z</time></trkpt><trkpt lat="44.78840087596024" lon="9.68738673575998"><ele>669.0</ele><time>2026-05-02T08:25:27Z</time></trkpt><trkpt lat="44.78829152100479" lon="9.687383471595307"><ele>666.6666666666666</ele><time>2026-05-02T08:25:29Z</time></trkpt><trkpt lat="44.788212197601474" lon="9.687359143074508"><ele>664.3333333333333</ele><time>2026-05-02T08:25:31Z</time></trkpt><trkpt lat="44.788136736929836" lon="9.687370775574768"><ele>662.0</ele><time>2026-05-02T08:25:33Z</time></trkpt><trkpt lat="44.78807167554239" lon="9.687405193229866"><ele>662.0</ele><time>2026-05-02T08:25:35Z</time></trkpt><trkpt lat="44.78800284308398" lon="9.687395817523823"><ele>662.0</ele><time>2026-05-02T08:25:37Z</time></trkpt><trkpt lat="44.78791870638022" lon="9.687357755664866"><ele>662.0</ele><time>2026-05-02T08:25:39Z</time></trkpt><trkpt lat="44.78782927574072" lon="9.687334190454637"><ele>662.0</ele><time>2026-05-02T08:25:41Z</time></trkpt><trkpt lat="44.78774905279865" lon="9.687379856160245"><ele>662.0</ele><time>2026-05-02T08:25:44Z</time></trkpt><trkpt lat="44.78773026478674" lon="9.687472145717253"><ele>662.0</ele><time>2026-05-02T08:25:46Z</time></trkpt><trkpt lat="44.787704575092086" lon="9.687555125694596"><ele>658.5</ele><time>2026-05-02T08:25:48Z</time></trkpt><trkpt lat="44.78763714994825" lon="9.68760080208916"><ele>655.0</ele><time>2026-05-02T08:25:54Z</time></trkpt><trkpt lat="44.78756627892098" lon="9.68753762654457"><ele>651.5</ele><time>2026-05-02T08:25:56Z</time></trkpt><trkpt lat="44.787498707769" lon="9.68744577380923"><ele>648.0</ele><time>2026-05-02T08:25:58Z</time></trkpt><trkpt lat="44.78743973950902" lon="9.687356582342167"><ele>644.5</ele><time>2026-05-02T08:26:00Z</time></trkpt><trkpt lat="44.787365279894445" lon="9.687279077577482"><ele>641.0</ele><time>2026-05-02T08:26:02Z</time></trkpt><trkpt lat="44.787293620513076" lon="9.687159628272054"><ele>641.0</ele><time>2026-05-02T08:26:04Z</time></trkpt><trkpt lat="44.787248933591904" lon="9.687002685787009"><ele>641.0</ele><time>2026-05-02T08:26:06Z</time></trkpt><trkpt lat="44.787223777943346" lon="9.68686781736845"><ele>641.0</ele><time>2026-05-02T08:26:08Z</time></trkpt><trkpt lat="44.78718038043876" lon="9.686787920187964"><ele>641.0</ele><time>2026-05-02T08:26:09.999Z</time></trkpt><trkpt lat="44.78712025865413" lon="9.686687960104944"><ele>641.0</ele><time>2026-05-02T08:26:11.999Z</time></trkpt><trkpt lat="44.78707865497979" lon="9.68658307955608"><ele>641.8</ele><time>2026-05-02T08:26:14.999Z</time></trkpt><trkpt lat="44.787026699276886" lon="9.686485675216584"><ele>642.5999999999999</ele><time>2026-05-02T08:26:16.999Z</time></trkpt><trkpt lat="44.78696834830865" lon="9.68637821588913"><ele>643.4</ele><time>2026-05-02T08:26:18.999Z</time></trkpt><trkpt lat="44.786911315224216" lon="9.686270988314662"><ele>644.2</ele><time>2026-05-02T08:26:20.999Z</time></trkpt><trkpt lat="44.78680396806989" lon="9.686201605141287"><ele>645.0</ele><time>2026-05-02T08:26:22.999Z</time></trkpt><trkpt lat="44.78674040794142" lon="9.686152978416954"><ele>641.5</ele><time>2026-05-02T08:26:23.999Z</time></trkpt><trkpt lat="44.78664992554204" lon="9.686045746698468"><ele>638.0</ele><time>2026-05-02T08:26:25.999Z</time></trkpt><trkpt lat="44.786592346719125" lon="9.685994807872012"><ele>634.5</ele><time>2026-05-02T08:26:26.999Z</time></trkpt><trkpt lat="44.78652808909933" lon="9.685969114605472"><ele>631.0</ele><time>2026-05-02T08:26:27.999Z</time></trkpt><trkpt lat="44.78645740476366" lon="9.685949971055114"><ele>627.5</ele><time>2026-05-02T08:26:28.999Z</time></trkpt><trkpt lat="44.78638676534168" lon="9.685939325989986"><ele>624.0</ele><time>2026-05-02T08:26:29.999Z</time></trkpt><trkpt lat="44.78631464481225" lon="9.685908087442758"><ele>624.0</ele><time>2026-05-02T08:26:30.999Z</time></trkpt><trkpt lat="44.78624443409735" lon="9.685852396937785"><ele>624.0</ele><time>2026-05-02T08:26:31.999Z</time></trkpt><trkpt lat="44.78616441561379" lon="9.685787073864486"><ele>624.0</ele><time>2026-05-02T08:26:32.999Z</time></trkpt><trkpt lat="44.78608043275977" lon="9.685731259196519"><ele>624.0</ele><time>2026-05-02T08:26:33.999Z</time></trkpt><trkpt lat="44.78598843066537" lon="9.685686135245957"><ele>624.0</ele><time>2026-05-02T08:26:34.999Z</time></trkpt><trkpt lat="44.78590298787307" lon="9.685647583759083"><ele>624.0</ele><time>2026-05-02T08:26:35.999Z</time></trkpt><trkpt lat="44.78583062442426" lon="9.685601507419614"><ele>624.0</ele><time>2026-05-02T08:26:36.999Z</time></trkpt><trkpt lat="44.785767445697395" lon="9.68554668328009"><ele>624.0</ele><time>2026-05-02T08:26:37.999Z</time></trkpt><trkpt lat="44.78571441642144" lon="9.685475528321412"><ele>624.0</ele><time>2026-05-02T08:26:38.999Z</time></trkpt><trkpt lat="44.785671546153225" lon="9.685392099978435"><ele>624.0</ele><time>2026-05-02T08:26:39.999Z</time></trkpt><trkpt lat="44.7856333947934" lon="9.685295981676068"><ele>624.0</ele><time>2026-05-02T08:26:40.999Z</time></trkpt><trkpt lat="44.78559660744887" lon="9.685197992845206"><ele>624.3333333333334</ele><time>2026-05-02T08:26:41.999Z</time></trkpt><trkpt lat="44.78556371158467" lon="9.685100962432994"><ele>624.6666666666666</ele><time>2026-05-02T08:26:42.999Z</time></trkpt><trkpt lat="44.78553643044085" lon="9.68501529792229"><ele>625.0</ele><time>2026-05-02T08:26:43.999Z</time></trkpt><trkpt lat="44.78551856793011" lon="9.684869524080154"><ele>625.3333333333333</ele><time>2026-05-02T08:26:45.999Z</time></trkpt><trkpt lat="44.78558618453323" lon="9.684754511705203"><ele>625.6666666666666</ele><time>2026-05-02T08:26:47.999Z</time></trkpt><trkpt lat="44.78564502611387" lon="9.684698541463922"><ele>626.0</ele><time>2026-05-02T08:26:48.999Z</time></trkpt><trkpt lat="44.7857013187932" lon="9.684644759438534"><ele>626.0</ele><time>2026-05-02T08:26:49.999Z</time></trkpt><trkpt lat="44.785780683654735" lon="9.684534038361146"><ele>626.0</ele><time>2026-05-02T08:26:51.999Z</time></trkpt><trkpt lat="44.785781461695265" lon="9.684373481948763"><ele>626.0</ele><time>2026-05-02T08:26:53.999Z</time></trkpt><trkpt lat="44.78577539928629" lon="9.684278094252589"><ele>626.0</ele><time>2026-05-02T08:26:54.999Z</time></trkpt><trkpt lat="44.785776863542765" lon="9.68418569350436"><ele>626.0</ele><time>2026-05-02T08:26:55.999Z</time></trkpt><trkpt lat="44.785777667133715" lon="9.684087908986646"><ele>626.0</ele><time>2026-05-02T08:26:56.999Z</time></trkpt><trkpt lat="44.785771167284295" lon="9.68399865670027"><ele>625.2</ele><time>2026-05-02T08:26:57.999Z</time></trkpt><trkpt lat="44.78571056538475" lon="9.68386834223178"><ele>624.4000000000001</ele><time>2026-05-02T08:26:59.999Z</time></trkpt><trkpt lat="44.78567687729282" lon="9.683766268119038"><ele>623.6</ele><time>2026-05-02T08:27:00.999Z</time></trkpt><trkpt lat="44.78566659263321" lon="9.683669054397052"><ele>622.8000000000001</ele><time>2026-05-02T08:27:01.999Z</time></trkpt><trkpt lat="44.785667844560585" lon="9.683565125852272"><ele>622.0</ele><time>2026-05-02T08:27:02.999Z</time></trkpt><trkpt lat="44.785664778763014" lon="9.683392709220943"><ele>620.8000000000001</ele><time>2026-05-02T08:27:04.999Z</time></trkpt><trkpt lat="44.78568023157863" lon="9.683238141191646"><ele>619.6</ele><time>2026-05-02T08:27:06.999Z</time></trkpt><trkpt lat="44.785654446585916" lon="9.683077655511415"><ele>618.4000000000001</ele><time>2026-05-02T08:27:08.999Z</time></trkpt><trkpt lat="44.78562037956763" lon="9.682973100206148"><ele>617.2</ele><time>2026-05-02T08:27:09.999Z</time></trkpt><trkpt lat="44.78558058369513" lon="9.682864078578131"><ele>616.0</ele><time>2026-05-02T08:27:10.999Z</time></trkpt><trkpt lat="44.785542024344025" lon="9.682774154878087"><ele>615.4285714285714</ele><time>2026-05-02T08:27:11.999Z</time></trkpt><trkpt lat="44.7855033335404" lon="9.682638631316077"><ele>614.8571428571429</ele><time>2026-05-02T08:27:13.999Z</time></trkpt><trkpt lat="44.78550330839033" lon="9.682548129905959"><ele>614.2857142857142</ele><time>2026-05-02T08:27:14.999Z</time></trkpt><trkpt lat="44.78550005803387" lon="9.682451637378813"><ele>613.7142857142858</ele><time>2026-05-02T08:27:15.999Z</time></trkpt><trkpt lat="44.7855016938126" lon="9.68235471512551"><ele>613.1428571428571</ele><time>2026-05-02T08:27:17Z</time></trkpt><trkpt lat="44.7854973923282" lon="9.682251691217568"><ele>612.5714285714286</ele><time>2026-05-02T08:27:18Z</time></trkpt><trkpt lat="44.78548997309088" lon="9.682161826441252"><ele>612.0</ele><time>2026-05-02T08:27:19Z</time></trkpt><trkpt lat="44.78551470832932" lon="9.681986642165743"><ele>611.5</ele><time>2026-05-02T08:27:21Z</time></trkpt><trkpt lat="44.785531290126855" lon="9.681888199415194"><ele>611.0</ele><time>2026-05-02T08:27:22Z</time></trkpt><trkpt lat="44.78553448538337" lon="9.681796381491756"><ele>610.5</ele><time>2026-05-02T08:27:23Z</time></trkpt><trkpt lat="44.78550150367347" lon="9.68164463298921"><ele>610.0</ele><time>2026-05-02T08:27:25Z</time></trkpt><trkpt lat="44.78542267323812" lon="9.68152416164409"><ele>609.5</ele><time>2026-05-02T08:27:27Z</time></trkpt><trkpt lat="44.785362407717315" lon="9.681466847666542"><ele>609.0</ele><time>2026-05-02T08:27:28Z</time></trkpt><trkpt lat="44.78529721591243" lon="9.681417368516598"><ele>609.0</ele><time>2026-05-02T08:27:29Z</time></trkpt><trkpt lat="44.78523791976177" lon="9.681374455979821"><ele>609.0</ele><time>2026-05-02T08:27:30Z</time></trkpt><trkpt lat="44.78518816300205" lon="9.68131721796578"><ele>609.0</ele><time>2026-05-02T08:27:31Z</time></trkpt><trkpt lat="44.78515713219894" lon="9.68122977160808"><ele>609.0</ele><time>2026-05-02T08:27:32Z</time></trkpt><trkpt lat="44.78513202007037" lon="9.681128134007194"><ele>609.0</ele><time>2026-05-02T08:27:33Z</time></trkpt><trkpt lat="44.78510030586719" lon="9.681026771635072"><ele>609.0</ele><time>2026-05-02T08:27:34Z</time></trkpt><trkpt lat="44.78506097092316" lon="9.680937558931221"><ele>609.0</ele><time>2026-05-02T08:27:35Z</time></trkpt><trkpt lat="44.78502979698347" lon="9.680858696243773"><ele>610.2</ele><time>2026-05-02T08:27:36Z</time></trkpt><trkpt lat="44.7850010509556" lon="9.680775065041882"><ele>611.4</ele><time>2026-05-02T08:27:37Z</time></trkpt><trkpt lat="44.78495433683827" lon="9.680628455160514"><ele>612.6</ele><time>2026-05-02T08:27:39Z</time></trkpt><trkpt lat="44.784893761837424" lon="9.680515837212193"><ele>613.8</ele><time>2026-05-02T08:27:41Z</time></trkpt><trkpt lat="44.78485541970867" lon="9.68035294882604"><ele>615.0</ele><time>2026-05-02T08:27:43Z</time></trkpt><trkpt lat="44.78488828936196" lon="9.680210286774573"><ele>615.0</ele><time>2026-05-02T08:27:45Z</time></trkpt><trkpt lat="44.78493029755727" lon="9.680082759500182"><ele>615.0</ele><time>2026-05-02T08:27:47Z</time></trkpt><trkpt lat="44.78495782983089" lon="9.6799249778474"><ele>615.0</ele><time>2026-05-02T08:27:49Z</time></trkpt><trkpt lat="44.78497679895788" lon="9.6797986661951"><ele>615.0</ele><time>2026-05-02T08:27:51Z</time></trkpt><trkpt lat="44.785058366119095" lon="9.679671424088028"><ele>615.0</ele><time>2026-05-02T08:27:53Z</time></trkpt><trkpt lat="44.78511376618527" lon="9.679615125209576"><ele>615.0</ele><time>2026-05-02T08:27:54Z</time></trkpt><trkpt lat="44.785170260600964" lon="9.679555011236463"><ele>615.0</ele><time>2026-05-02T08:27:55Z</time></trkpt><trkpt lat="44.785265528846345" lon="9.679455699534634"><ele>615.0</ele><time>2026-05-02T08:27:57Z</time></trkpt><trkpt lat="44.78535322208395" lon="9.679360584566727"><ele>615.0</ele><time>2026-05-02T08:27:59Z</time></trkpt><trkpt lat="44.785434959337564" lon="9.679218957040693"><ele>615.0</ele><time>2026-05-02T08:28:01Z</time></trkpt><trkpt lat="44.78547524715879" lon="9.679123169494497"><ele>615.2857142857142</ele><time>2026-05-02T08:28:01.999Z</time></trkpt><trkpt lat="44.78551205607574" lon="9.679038129808642"><ele>615.5714285714287</ele><time>2026-05-02T08:28:02.999Z</time></trkpt><trkpt lat="44.78554436325809" lon="9.678956202364336"><ele>615.8571428571429</ele><time>2026-05-02T08:28:03.999Z</time></trkpt><trkpt lat="44.78556202866298" lon="9.678865502464019"><ele>616.1428571428571</ele><time>2026-05-02T08:28:04.999Z</time></trkpt><trkpt lat="44.78557414803753" lon="9.678762926887071"><ele>616.4285714285713</ele><time>2026-05-02T08:28:05.999Z</time></trkpt><trkpt lat="44.785579552560165" lon="9.67866485509366"><ele>616.7142857142858</ele><time>2026-05-02T08:28:06.999Z</time></trkpt><trkpt lat="44.78557657157425" lon="9.678569693606452"><ele>617.0</ele><time>2026-05-02T08:28:07.999Z</time></trkpt><trkpt lat="44.78557490924441" lon="9.678466832539447"><ele>617.0</ele><time>2026-05-02T08:28:08.999Z</time></trkpt><trkpt lat="44.78557983282224" lon="9.678358288119517"><ele>617.0</ele><time>2026-05-02T08:28:09.999Z</time></trkpt><trkpt lat="44.78558531585103" lon="9.678251966658522"><ele>617.0</ele><time>2026-05-02T08:28:10.999Z</time></trkpt><trkpt lat="44.78559215304235" lon="9.678151338377443"><ele>617.0</ele><time>2026-05-02T08:28:11.999Z</time></trkpt><trkpt lat="44.785587409864064" lon="9.678026606949453"><ele>617.0</ele><time>2026-05-02T08:28:13.999Z</time></trkpt><trkpt lat="44.785523611801125" lon="9.67797120216485"><ele>617.0</ele><time>2026-05-02T08:28:15.999Z</time></trkpt><trkpt lat="44.78542050813445" lon="9.677946152150602"><ele>617.0</ele><time>2026-05-02T08:28:17.999Z</time></trkpt><trkpt lat="44.78531201271157" lon="9.677878480069037"><ele>617.0</ele><time>2026-05-02T08:28:19.999Z</time></trkpt><trkpt lat="44.78522487405842" lon="9.677858878568783"><ele>617.0</ele><time>2026-05-02T08:28:21.999Z</time></trkpt><trkpt lat="44.785115547436256" lon="9.677874049514914"><ele>617.0</ele><time>2026-05-02T08:28:23.999Z</time></trkpt><trkpt lat="44.785003222250914" lon="9.677906921665839"><ele>617.0</ele><time>2026-05-02T08:28:25.999Z</time></trkpt><trkpt lat="44.78487321695962" lon="9.677933099752382"><ele>618.5</ele><time>2026-05-02T08:28:27.999Z</time></trkpt><trkpt lat="44.78478846018751" lon="9.677965338268187"><ele>620.0</ele><time>2026-05-02T08:28:28.999Z</time></trkpt><trkpt lat="44.78470485570308" lon="9.67799542797065"><ele>621.5</ele><time>2026-05-02T08:28:29.999Z</time></trkpt><trkpt lat="44.784643969485565" lon="9.67802323207066"><ele>623.0</ele><time>2026-05-02T08:28:30.999Z</time></trkpt><trkpt lat="44.78454270836068" lon="9.678061129631049"><ele>624.5</ele><time>2026-05-02T08:28:32.999Z</time></trkpt><trkpt lat="44.78445710381951" lon="9.678058189614905"><ele>626.0</ele><time>2026-05-02T08:28:49.999Z</time></trkpt><trkpt lat="44.78439733984334" lon="9.678004254446233"><ele>628.5</ele><time>2026-05-02T08:28:51.999Z</time></trkpt><trkpt lat="44.784321940042325" lon="9.677931895144889"><ele>631.0</ele><time>2026-05-02T08:28:53.999Z</time></trkpt><trkpt lat="44.78425341642961" lon="9.677858747142302"><ele>633.5</ele><time>2026-05-02T08:28:55.999Z</time></trkpt><trkpt lat="44.78422773378553" lon="9.677750613516059"><ele>636.0</ele><time>2026-05-02T08:28:57.999Z</time></trkpt><trkpt lat="44.78419665574223" lon="9.67764260182742"><ele>638.5</ele><time>2026-05-02T08:29:00.999Z</time></trkpt><trkpt lat="44.7841823491592" lon="9.677538889689947"><ele>641.0</ele><time>2026-05-02T08:29:02.999Z</time></trkpt><trkpt lat="44.78410987848116" lon="9.677253780959118"><ele>641.0</ele><time>2026-05-02T08:29:12.999Z</time></trkpt><trkpt lat="44.78407181968759" lon="9.677101432780702"><ele>641.0</ele><time>2026-05-02T08:29:14.999Z</time></trkpt><trkpt lat="44.78409551673933" lon="9.67697076478518"><ele>641.0</ele><time>2026-05-02T08:29:16.999Z</time></trkpt><trkpt lat="44.78409159864526" lon="9.676818130452379"><ele>641.0</ele><time>2026-05-02T08:29:18.998Z</time></trkpt><trkpt lat="44.78410708525361" lon="9.676678855782312"><ele>641.0</ele><time>2026-05-02T08:29:20.998Z</time></trkpt><trkpt lat="44.784121012282405" lon="9.676586785368535"><ele>640.0</ele><time>2026-05-02T08:29:23Z</time></trkpt><trkpt lat="44.78416724960179" lon="9.676470672320354"><ele>639.0</ele><time>2026-05-02T08:29:25Z</time></trkpt><trkpt lat="44.784205173286004" lon="9.67638520686154"><ele>638.0</ele><time>2026-05-02T08:29:26Z</time></trkpt><trkpt lat="44.784224987988964" lon="9.676297886979249"><ele>637.0</ele><time>2026-05-02T08:29:27Z</time></trkpt><trkpt lat="44.784263097042135" lon="9.676147562145312"><ele>636.0</ele><time>2026-05-02T08:29:29Z</time></trkpt><trkpt lat="44.7842643231889" lon="9.67603772411625"><ele>635.0</ele><time>2026-05-02T08:29:31Z</time></trkpt><trkpt lat="44.78424998926641" lon="9.67589538113762"><ele>633.7142857142857</ele><time>2026-05-02T08:29:33Z</time></trkpt><trkpt lat="44.78424766632881" lon="9.675784593686165"><ele>632.4285714285714</ele><time>2026-05-02T08:29:35Z</time></trkpt><trkpt lat="44.78423151232904" lon="9.675680816727379"><ele>631.1428571428571</ele><time>2026-05-02T08:29:37Z</time></trkpt><trkpt lat="44.78419241493858" lon="9.675596037162936"><ele>629.8571428571429</ele><time>2026-05-02T08:29:39Z</time></trkpt><trkpt lat="44.78413647217931" lon="9.675496720862903"><ele>628.5714285714286</ele><time>2026-05-02T08:29:41Z</time></trkpt><trkpt lat="44.78408223081873" lon="9.67544533018255"><ele>627.2857142857142</ele><time>2026-05-02T08:29:43Z</time></trkpt><trkpt lat="44.78401731253015" lon="9.675419314793563"><ele>626.0</ele><time>2026-05-02T08:29:45Z</time></trkpt><trkpt lat="44.783930372506504" lon="9.67539611224644"><ele>626.0</ele><time>2026-05-02T08:29:47Z</time></trkpt><trkpt lat="44.783850849385466" lon="9.675336790186142"><ele>626.0</ele><time>2026-05-02T08:29:49Z</time></trkpt><trkpt lat="44.78376115857309" lon="9.67527921265552"><ele>626.0</ele><time>2026-05-02T08:29:51Z</time></trkpt><trkpt lat="44.78371731649722" lon="9.675208506195473"><ele>626.0</ele><time>2026-05-02T08:29:53Z</time></trkpt><trkpt lat="44.78364728591439" lon="9.67512120066731"><ele>626.0</ele><time>2026-05-02T08:30:02Z</time></trkpt><trkpt lat="44.78360059077966" lon="9.675029328932364"><ele>626.0</ele><time>2026-05-02T08:30:05Z</time></trkpt><trkpt lat="44.78357502855366" lon="9.67493440401172"><ele>626.0</ele><time>2026-05-02T08:30:07Z</time></trkpt><trkpt lat="44.78351726391006" lon="9.67486917295241"><ele>626.0</ele><time>2026-05-02T08:30:08.999Z</time></trkpt><trkpt lat="44.783468248175595" lon="9.674749849450924"><ele>626.0</ele><time>2026-05-02T08:30:11.999Z</time></trkpt><trkpt lat="44.7834219448527" lon="9.674622332889545"><ele>626.0</ele><time>2026-05-02T08:30:13.999Z</time></trkpt><trkpt lat="44.78338562086962" lon="9.674491982371425"><ele>626.0</ele><time>2026-05-02T08:30:16.999Z</time></trkpt><trkpt lat="44.783386237729474" lon="9.67435708221722"><ele>625.0</ele><time>2026-05-02T08:30:18.999Z</time></trkpt><trkpt lat="44.783372241373726" lon="9.674214090127439"><ele>624.0</ele><time>2026-05-02T08:30:20.999Z</time></trkpt><trkpt lat="44.78337031508191" lon="9.674043696746256"><ele>623.0</ele><time>2026-05-02T08:30:22.999Z</time></trkpt><trkpt lat="44.78339019249916" lon="9.673925080080993"><ele>622.0</ele><time>2026-05-02T08:30:23.999Z</time></trkpt><trkpt lat="44.7833449325337" lon="9.673764823008142"><ele>621.0</ele><time>2026-05-02T08:30:25.999Z</time></trkpt><trkpt lat="44.78332067351724" lon="9.673593780476185"><ele>620.2</ele><time>2026-05-02T08:30:27.999Z</time></trkpt><trkpt lat="44.78329376724835" lon="9.673460698214024"><ele>619.4000000000001</ele><time>2026-05-02T08:30:29.999Z</time></trkpt><trkpt lat="44.78328497903461" lon="9.67331789094223"><ele>618.6</ele><time>2026-05-02T08:30:31.999Z</time></trkpt><trkpt lat="44.78328178791637" lon="9.67322029484121"><ele>617.8000000000001</ele><time>2026-05-02T08:30:32.999Z</time></trkpt><trkpt lat="44.7832623221922" lon="9.673075155739403"><ele>617.0</ele><time>2026-05-02T08:30:34.999Z</time></trkpt><trkpt lat="44.783205140843855" lon="9.672973956460508"><ele>617.0</ele><time>2026-05-02T08:30:36.999Z</time></trkpt><trkpt lat="44.78315763937883" lon="9.67288276911004"><ele>617.0</ele><time>2026-05-02T08:30:38.999Z</time></trkpt><trkpt lat="44.78313721782932" lon="9.672793775556634"><ele>617.0</ele><time>2026-05-02T08:30:50.999Z</time></trkpt><trkpt lat="44.783072364380104" lon="9.672739660785178"><ele>617.0</ele><time>2026-05-02T08:30:55.999Z</time></trkpt><trkpt lat="44.783006316048386" lon="9.672729811970866"><ele>617.0</ele><time>2026-05-02T08:30:57.999Z</time></trkpt><trkpt lat="44.78290608939792" lon="9.672731001591602"><ele>617.0</ele><time>2026-05-02T08:30:59.999Z</time></trkpt><trkpt lat="44.78280913929999" lon="9.672717637674342"><ele>615.8000000000001</ele><time>2026-05-02T08:31:01.999Z</time></trkpt><trkpt lat="44.78272392250225" lon="9.672635101643058"><ele>614.6</ele><time>2026-05-02T08:31:03.999Z</time></trkpt><trkpt lat="44.78267140080652" lon="9.672518062548402"><ele>613.4000000000001</ele><time>2026-05-02T08:31:05.999Z</time></trkpt><trkpt lat="44.78262671568055" lon="9.672369806503028"><ele>612.2</ele><time>2026-05-02T08:31:07.999Z</time></trkpt><trkpt lat="44.782614471833455" lon="9.672273935291342"><ele>611.0</ele><time>2026-05-02T08:31:08.999Z</time></trkpt><trkpt lat="44.78259856715422" lon="9.672171638119467"><ele>611.8333333333333</ele><time>2026-05-02T08:31:09.999Z</time></trkpt><trkpt lat="44.78258235315876" lon="9.67206902229906"><ele>612.6666666666666</ele><time>2026-05-02T08:31:10.999Z</time></trkpt><trkpt lat="44.78255925717541" lon="9.671977393945737"><ele>613.5</ele><time>2026-05-02T08:31:11.999Z</time></trkpt><trkpt lat="44.782463840062086" lon="9.671879303903753"><ele>614.3333333333334</ele><time>2026-05-02T08:31:13.999Z</time></trkpt><trkpt lat="44.78241071847455" lon="9.671823946401664"><ele>615.1666666666667</ele><time>2026-05-02T08:31:14.999Z</time></trkpt><trkpt lat="44.782361778084194" lon="9.671765889778767"><ele>616.0</ele><time>2026-05-02T08:31:15.999Z</time></trkpt><trkpt lat="44.782287246888174" lon="9.671695220735058"><ele>616.0</ele><time>2026-05-02T08:31:17.999Z</time></trkpt><trkpt lat="44.78222158503937" lon="9.67166235704291"><ele>616.0</ele><time>2026-05-02T08:31:21.999Z</time></trkpt><trkpt lat="44.78217908143655" lon="9.671746266928638"><ele>616.0</ele><time>2026-05-02T08:31:24.999Z</time></trkpt><trkpt lat="44.78211105746558" lon="9.671839471537359"><ele>616.0</ele><time>2026-05-02T08:31:27.998Z</time></trkpt><trkpt lat="44.78199656740019" lon="9.671871193032631"><ele>616.0</ele><time>2026-05-02T08:31:31Z</time></trkpt><trkpt lat="44.78188775758296" lon="9.67185497752139"><ele>619.6</ele><time>2026-05-02T08:31:33Z</time></trkpt><trkpt lat="44.78182056095292" lon="9.671849146128642"><ele>623.2</ele><time>2026-05-02T08:31:35Z</time></trkpt><trkpt lat="44.781729931537015" lon="9.671855009753727"><ele>626.8</ele><time>2026-05-02T08:31:37Z</time></trkpt><trkpt lat="44.78162187664832" lon="9.671891308149084"><ele>630.4</ele><time>2026-05-02T08:31:40Z</time></trkpt><trkpt lat="44.78154900233697" lon="9.671897446084078"><ele>634.0</ele><time>2026-05-02T08:31:41Z</time></trkpt><trkpt lat="44.78144537430593" lon="9.671964586837063"><ele>635.6666666666667</ele><time>2026-05-02T08:31:43Z</time></trkpt><trkpt lat="44.781399942437396" lon="9.67205910146317"><ele>637.3333333333334</ele><time>2026-05-02T08:31:45Z</time></trkpt><trkpt lat="44.781329459598226" lon="9.672100098741826"><ele>639.0</ele><time>2026-05-02T08:32:01Z</time></trkpt><trkpt lat="44.78127140651898" lon="9.672137292978649"><ele>640.6666666666666</ele><time>2026-05-02T08:32:04Z</time></trkpt><trkpt lat="44.781215522249944" lon="9.672178334612564"><ele>642.3333333333333</ele><time>2026-05-02T08:32:06Z</time></trkpt><trkpt lat="44.78114839978362" lon="9.672222331906022"><ele>644.0</ele><time>2026-05-02T08:32:09Z</time></trkpt><trkpt lat="44.78108196902418" lon="9.672362954533675"><ele>645.5</ele><time>2026-05-02T08:32:12Z</time></trkpt><trkpt lat="44.78098408407592" lon="9.672477731235308"><ele>647.0</ele><time>2026-05-02T08:32:14Z</time></trkpt><trkpt lat="44.780900837408005" lon="9.672474203762828"><ele>648.5</ele><time>2026-05-02T08:32:16Z</time></trkpt><trkpt lat="44.78082054906912" lon="9.672441841601977"><ele>650.0</ele><time>2026-05-02T08:32:17.999Z</time></trkpt><trkpt lat="44.780731359386586" lon="9.672471752279987"><ele>651.5</ele><time>2026-05-02T08:32:19.999Z</time></trkpt><trkpt lat="44.78067617055808" lon="9.672515627041166"><ele>653.0</ele><time>2026-05-02T08:32:22.999Z</time></trkpt><trkpt lat="44.780569694254005" lon="9.672596912414544"><ele>653.0</ele><time>2026-05-02T08:32:24.999Z</time></trkpt><trkpt lat="44.78049619176225" lon="9.672657657701839"><ele>653.0</ele><time>2026-05-02T08:32:26.999Z</time></trkpt><trkpt lat="44.78038795577279" lon="9.672742731105728"><ele>653.0</ele><time>2026-05-02T08:32:28.999Z</time></trkpt><trkpt lat="44.78032133374074" lon="9.67282525949304"><ele>653.0</ele><time>2026-05-02T08:32:30.999Z</time></trkpt><trkpt lat="44.780287739343684" lon="9.672904950265456"><ele>653.0</ele><time>2026-05-02T08:32:32.999Z</time></trkpt><trkpt lat="44.78022042706739" lon="9.67295518761961"><ele>653.0</ele><time>2026-05-02T08:32:34.999Z</time></trkpt><trkpt lat="44.78015130431247" lon="9.673001029917314"><ele>656.3333333333333</ele><time>2026-05-02T08:32:35.999Z</time></trkpt><trkpt lat="44.780111906312584" lon="9.67311954231897"><ele>659.6666666666666</ele><time>2026-05-02T08:32:39.999Z</time></trkpt><trkpt lat="44.78009290856357" lon="9.673214832677367"><ele>663.0</ele><time>2026-05-02T08:32:41.999Z</time></trkpt><trkpt lat="44.780084940990555" lon="9.673306284982987"><ele>666.3333333333334</ele><time>2026-05-02T08:32:43.999Z</time></trkpt><trkpt lat="44.78009986062587" lon="9.673399904928413"><ele>669.6666666666667</ele><time>2026-05-02T08:32:45.999Z</time></trkpt><trkpt lat="44.7801171984242" lon="9.673546017514102"><ele>673.0</ele><time>2026-05-02T08:32:47.999Z</time></trkpt><trkpt lat="44.78013097803801" lon="9.673703265280379"><ele>674.5</ele><time>2026-05-02T08:32:49.999Z</time></trkpt><trkpt lat="44.780176971385266" lon="9.673823497170114"><ele>676.0</ele><time>2026-05-02T08:32:51.999Z</time></trkpt><trkpt lat="44.78027011988906" lon="9.673832510427026"><ele>677.5</ele><time>2026-05-02T08:32:53.999Z</time></trkpt><trkpt lat="44.78034224899451" lon="9.673800109470136"><ele>679.0</ele><time>2026-05-02T08:32:55.999Z</time></trkpt><trkpt lat="44.78041356718929" lon="9.673845404539486"><ele>680.5</ele><time>2026-05-02T08:32:57.999Z</time></trkpt><trkpt lat="44.78045153687776" lon="9.673925225976038"><ele>682.0</ele><time>2026-05-02T08:32:59.999Z</time></trkpt><trkpt lat="44.78043079381226" lon="9.674065226282005"><ele>682.0</ele><time>2026-05-02T08:33:01.999Z</time></trkpt><trkpt lat="44.78040826302944" lon="9.674219292929209"><ele>682.0</ele><time>2026-05-02T08:33:03.999Z</time></trkpt><trkpt lat="44.78037305978309" lon="9.674341356725568"><ele>682.0</ele><time>2026-05-02T08:33:05.999Z</time></trkpt><trkpt lat="44.780359741633596" lon="9.674463349935314"><ele>682.0</ele><time>2026-05-02T08:33:07.999Z</time></trkpt><trkpt lat="44.78038210553607" lon="9.674715728547369"><ele>684.0</ele><time>2026-05-02T08:33:09.999Z</time></trkpt><trkpt lat="44.780368689745366" lon="9.674828718322155"><ele>686.0</ele><time>2026-05-02T08:33:10.999Z</time></trkpt><trkpt lat="44.780371895319135" lon="9.674927559667147"><ele>688.0</ele><time>2026-05-02T08:33:11.999Z</time></trkpt><trkpt lat="44.78034346179312" lon="9.6750674131092"><ele>690.0</ele><time>2026-05-02T08:33:13.999Z</time></trkpt><trkpt lat="44.7803208172414" lon="9.675202297300844"><ele>692.0</ele><time>2026-05-02T08:33:15.999Z</time></trkpt><trkpt lat="44.780304505290935" lon="9.675315954677961"><ele>694.0</ele><time>2026-05-02T08:33:18.999Z</time></trkpt><trkpt lat="44.78029092525299" lon="9.67540962510382"><ele>696.0</ele><time>2026-05-02T08:33:19.999Z</time></trkpt><trkpt lat="44.780276262365696" lon="9.675565221489762"><ele>698.0</ele><time>2026-05-02T08:33:20.999Z</time></trkpt><trkpt lat="44.78026546137558" lon="9.675722387902535"><ele>700.0</ele><time>2026-05-02T08:33:21.999Z</time></trkpt><trkpt lat="44.78025882459177" lon="9.67590325406679"><ele>702.0</ele><time>2026-05-02T08:33:22.999Z</time></trkpt><trkpt lat="44.78025421026079" lon="9.675997239208487"><ele>704.0</ele><time>2026-05-02T08:33:23.999Z</time></trkpt><trkpt lat="44.78028278761002" lon="9.676108261924961"><ele>704.3333333333333</ele><time>2026-05-02T08:33:25.999Z</time></trkpt><trkpt lat="44.78032071001664" lon="9.67619753580264"><ele>704.6666666666666</ele><time>2026-05-02T08:33:27.999Z</time></trkpt><trkpt lat="44.78027167811421" lon="9.676290197012205"><ele>705.0</ele><time>2026-05-02T08:33:30.999Z</time></trkpt><trkpt lat="44.78028572206928" lon="9.676417052117934"><ele>705.3333333333334</ele><time>2026-05-02T08:33:31.999Z</time></trkpt><trkpt lat="44.78024334982444" lon="9.67653062342418"><ele>705.6666666666667</ele><time>2026-05-02T08:33:33.999Z</time></trkpt><trkpt lat="44.7801591328725" lon="9.676564281657557"><ele>706.0</ele><time>2026-05-02T08:33:37Z</time></trkpt><trkpt lat="44.780059887596096" lon="9.676598727879378"><ele>706.0</ele><time>2026-05-02T08:33:46Z</time></trkpt><trkpt lat="44.7800222933609" lon="9.67667666444715"><ele>706.0</ele><time>2026-05-02T08:33:48Z</time></trkpt><trkpt lat="44.77997919047362" lon="9.676763265093875"><ele>706.0</ele><time>2026-05-02T08:33:50Z</time></trkpt><trkpt lat="44.779941982421555" lon="9.676869157148975"><ele>706.0</ele><time>2026-05-02T08:33:52Z</time></trkpt><trkpt lat="44.77991354166246" lon="9.676991285298195"><ele>706.0</ele><time>2026-05-02T08:33:54Z</time></trkpt><trkpt lat="44.779872432248276" lon="9.677128304284178"><ele>706.0</ele><time>2026-05-02T08:33:56Z</time></trkpt><trkpt lat="44.779822691975234" lon="9.677262011280256"><ele>704.5</ele><time>2026-05-02T08:33:58Z</time></trkpt><trkpt lat="44.779791315672874" lon="9.67733955277495"><ele>703.0</ele><time>2026-05-02T08:33:59Z</time></trkpt><trkpt lat="44.77973961022065" lon="9.677483134215288"><ele>701.5</ele><time>2026-05-02T08:34:01Z</time></trkpt><trkpt lat="44.77971801561142" lon="9.677582813362148"><ele>700.0</ele><time>2026-05-02T08:34:03Z</time></trkpt><trkpt lat="44.77963260136634" lon="9.677620579130156"><ele>698.5</ele><time>2026-05-02T08:34:06Z</time></trkpt><trkpt lat="44.77957283691839" lon="9.67756449297355"><ele>697.0</ele><time>2026-05-02T08:34:07Z</time></trkpt><trkpt lat="44.77948866477067" lon="9.677491016993073"><ele>697.0</ele><time>2026-05-02T08:34:08Z</time></trkpt><trkpt lat="44.779410282484214" lon="9.677447808520409"><ele>697.0</ele><time>2026-05-02T08:34:09Z</time></trkpt><trkpt lat="44.779305646982486" lon="9.677443887076503"><ele>697.0</ele><time>2026-05-02T08:34:11Z</time></trkpt><trkpt lat="44.77923444941243" lon="9.677534274235544"><ele>697.0</ele><time>2026-05-02T08:34:13Z</time></trkpt><trkpt lat="44.77917152254595" lon="9.677623120381401"><ele>697.0</ele><time>2026-05-02T08:34:15Z</time></trkpt><trkpt lat="44.77912839496771" lon="9.677740676997866"><ele>695.2</ele><time>2026-05-02T08:34:17Z</time></trkpt><trkpt lat="44.77910729538339" lon="9.6778707943783"><ele>693.4000000000001</ele><time>2026-05-02T08:34:19Z</time></trkpt><trkpt lat="44.77905399318875" lon="9.677992612652972"><ele>691.5999999999999</ele><time>2026-05-02T08:34:21Z</time></trkpt><trkpt lat="44.77898989562681" lon="9.678117647562654"><ele>689.8</ele><time>2026-05-02T08:34:23Z</time></trkpt><trkpt lat="44.77894951225245" lon="9.678254506138803"><ele>688.0</ele><time>2026-05-02T08:34:25Z</time></trkpt><trkpt lat="44.77892677888583" lon="9.678397778598923"><ele>688.0</ele><time>2026-05-02T08:34:27Z</time></trkpt><trkpt lat="44.77890845139678" lon="9.678483787263964"><ele>688.0</ele><time>2026-05-02T08:34:27.999Z</time></trkpt><trkpt lat="44.77885163701018" lon="9.678631287642535"><ele>688.0</ele><time>2026-05-02T08:34:29.999Z</time></trkpt><trkpt lat="44.77880656980422" lon="9.678764340278834"><ele>688.0</ele><time>2026-05-02T08:34:31.999Z</time></trkpt><trkpt lat="44.77877626803752" lon="9.678894581137742"><ele>688.0</ele><time>2026-05-02T08:34:33.999Z</time></trkpt><trkpt lat="44.778770226360166" lon="9.679014559800203"><ele>685.4</ele><time>2026-05-02T08:34:35.999Z</time></trkpt><trkpt lat="44.77879141005692" lon="9.6791271046542"><ele>682.8</ele><time>2026-05-02T08:34:37.999Z</time></trkpt><trkpt lat="44.77881434588464" lon="9.67924458611512"><ele>680.2</ele><time>2026-05-02T08:34:39.999Z</time></trkpt><trkpt lat="44.77878844332705" lon="9.679386026273965"><ele>677.6</ele><time>2026-05-02T08:34:41.999Z</time></trkpt><trkpt lat="44.77873328419285" lon="9.679507955354236"><ele>675.0</ele><time>2026-05-02T08:34:43.999Z</time></trkpt><trkpt lat="44.778668786946476" lon="9.6796168472124"><ele>673.2</ele><time>2026-05-02T08:34:45.999Z</time></trkpt><trkpt lat="44.77859495280735" lon="9.679712084421961"><ele>671.4</ele><time>2026-05-02T08:34:47.999Z</time></trkpt><trkpt lat="44.778514706813745" lon="9.679792488790975"><ele>669.5999999999999</ele><time>2026-05-02T08:34:49.999Z</time></trkpt><trkpt lat="44.77843746726878" lon="9.67985821787916"><ele>667.8</ele><time>2026-05-02T08:34:51.999Z</time></trkpt><trkpt lat="44.77835651752163" lon="9.679925380925628"><ele>666.0</ele><time>2026-05-02T08:34:53.999Z</time></trkpt><trkpt lat="44.77828129519867" lon="9.680023390884543"><ele>665.1666666666666</ele><time>2026-05-02T08:34:55.999Z</time></trkpt><trkpt lat="44.77818899560701" lon="9.680183242604103"><ele>664.3333333333334</ele><time>2026-05-02T08:34:57.999Z</time></trkpt><trkpt lat="44.778132061268494" lon="9.680269165187996"><ele>663.5</ele><time>2026-05-02T08:34:58.999Z</time></trkpt><trkpt lat="44.7780868776614" lon="9.680355081737414"><ele>662.6666666666667</ele><time>2026-05-02T08:34:59.999Z</time></trkpt><trkpt lat="44.7780480223297" lon="9.680440838735173"><ele>661.8333333333334</ele><time>2026-05-02T08:35:00.999Z</time></trkpt><trkpt lat="44.77800386681143" lon="9.680520210907577"><ele>661.0</ele><time>2026-05-02T08:35:01.999Z</time></trkpt><trkpt lat="44.7779541937564" lon="9.680595994853856"><ele>658.5</ele><time>2026-05-02T08:35:02.999Z</time></trkpt><trkpt lat="44.777904712714665" lon="9.68067729798368"><ele>656.0</ele><time>2026-05-02T08:35:03.999Z</time></trkpt><trkpt lat="44.777857405729534" lon="9.680759390466648"><ele>653.5</ele><time>2026-05-02T08:35:04.999Z</time></trkpt><trkpt lat="44.77780852231541" lon="9.680842789113447"><ele>651.0</ele><time>2026-05-02T08:35:05.999Z</time></trkpt><trkpt lat="44.77776184163774" lon="9.680922626942559"><ele>648.5</ele><time>2026-05-02T08:35:06.999Z</time></trkpt><trkpt lat="44.777709857278545" lon="9.681007396460574"><ele>646.0</ele><time>2026-05-02T08:35:07.999Z</time></trkpt><trkpt lat="44.77765608447881" lon="9.681084199053876"><ele>643.8333333333334</ele><time>2026-05-02T08:35:08.999Z</time></trkpt><trkpt lat="44.777587255496705" lon="9.681175634949502"><ele>641.6666666666667</ele><time>2026-05-02T08:35:10.999Z</time></trkpt><trkpt lat="44.777521121828826" lon="9.681208796176268"><ele>639.5</ele><time>2026-05-02T08:35:13.999Z</time></trkpt><trkpt lat="44.77742564425787" lon="9.681170925389386"><ele>637.3333333333334</ele><time>2026-05-02T08:35:15.999Z</time></trkpt><trkpt lat="44.7773248202732" lon="9.681157470432378"><ele>635.1666666666666</ele><time>2026-05-02T08:35:20.999Z</time></trkpt><trkpt lat="44.777272391874455" lon="9.681236175127745"><ele>633.0</ele><time>2026-05-02T08:35:22.999Z</time></trkpt><trkpt lat="44.77721083323844" lon="9.681363104006374"><ele>633.0</ele><time>2026-05-02T08:35:24.999Z</time></trkpt><trkpt lat="44.77716867481354" lon="9.68143250837063"><ele>633.0</ele><time>2026-05-02T08:35:25.999Z</time></trkpt><trkpt lat="44.77712369361493" lon="9.681497890922659"><ele>633.0</ele><time>2026-05-02T08:35:26.999Z</time></trkpt><trkpt lat="44.777069325975326" lon="9.681565638774705"><ele>633.0</ele><time>2026-05-02T08:35:27.999Z</time></trkpt><trkpt lat="44.777017052290866" lon="9.681624826373447"><ele>633.0</ele><time>2026-05-02T08:35:28.999Z</time></trkpt><trkpt lat="44.776920577097926" lon="9.68172830231581"><ele>633.0</ele><time>2026-05-02T08:35:30.999Z</time></trkpt><trkpt lat="44.776870693150265" lon="9.681793389023477"><ele>633.6666666666666</ele><time>2026-05-02T08:35:31.999Z</time></trkpt><trkpt lat="44.776824513892805" lon="9.681863403764192"><ele>634.3333333333334</ele><time>2026-05-02T08:35:32.999Z</time></trkpt><trkpt lat="44.77677740640147" lon="9.681929631624357"><ele>635.0</ele><time>2026-05-02T08:35:33.999Z</time></trkpt><trkpt lat="44.77673014097454" lon="9.681991970205782"><ele>635.6666666666667</ele><time>2026-05-02T08:35:34.999Z</time></trkpt><trkpt lat="44.77667598997669" lon="9.682143459580727"><ele>636.3333333333334</ele><time>2026-05-02T08:35:36.999Z</time></trkpt><trkpt lat="44.77666617578172" lon="9.68223538210929"><ele>637.0</ele><time>2026-05-02T08:35:37.999Z</time></trkpt><trkpt lat="44.77665369677406" lon="9.682335445880843"><ele>635.1666666666667</ele><time>2026-05-02T08:35:38.999Z</time></trkpt><trkpt lat="44.776634494349466" lon="9.682432225304618"><ele>633.3333333333334</ele><time>2026-05-02T08:35:39.999Z</time></trkpt><trkpt lat="44.776610986632335" lon="9.682522981264404"><ele>631.5</ele><time>2026-05-02T08:35:41Z</time></trkpt><trkpt lat="44.77655654535712" lon="9.68266766198438"><ele>629.6666666666666</ele><time>2026-05-02T08:35:43Z</time></trkpt><trkpt lat="44.77652261744506" lon="9.682742829316158"><ele>627.8333333333333</ele><time>2026-05-02T08:35:44Z</time></trkpt><trkpt lat="44.77648997263602" lon="9.682821856341404"><ele>626.0</ele><time>2026-05-02T08:35:45Z</time></trkpt><trkpt lat="44.77645689584411" lon="9.682905274888562"><ele>622.8</ele><time>2026-05-02T08:35:46Z</time></trkpt><trkpt lat="44.776424379466995" lon="9.682989762212458"><ele>619.6</ele><time>2026-05-02T08:35:47Z</time></trkpt><trkpt lat="44.77639846096648" lon="9.683076362879945"><ele>616.4</ele><time>2026-05-02T08:35:48Z</time></trkpt><trkpt lat="44.77637560989623" lon="9.68316363078316"><ele>613.2</ele><time>2026-05-02T08:35:49Z</time></trkpt><trkpt lat="44.776324200595774" lon="9.68332128506232"><ele>610.0</ele><time>2026-05-02T08:35:51Z</time></trkpt><trkpt lat="44.776291589788606" lon="9.683498681281131"><ele>608.0</ele><time>2026-05-02T08:35:53Z</time></trkpt><trkpt lat="44.77624780785483" lon="9.683650948192959"><ele>606.0</ele><time>2026-05-02T08:35:55Z</time></trkpt><trkpt lat="44.77621646369267" lon="9.683808274674611"><ele>604.0</ele><time>2026-05-02T08:35:57Z</time></trkpt><trkpt lat="44.776218422074045" lon="9.683908823602787"><ele>602.0</ele><time>2026-05-02T08:35:58Z</time></trkpt><trkpt lat="44.77622765922194" lon="9.684021611469964"><ele>600.0</ele><time>2026-05-02T08:35:59Z</time></trkpt><trkpt lat="44.776238224007905" lon="9.68413684753995"><ele>600.0</ele><time>2026-05-02T08:36:00Z</time></trkpt><trkpt lat="44.776237751003876" lon="9.684270024026794"><ele>600.0</ele><time>2026-05-02T08:36:01Z</time></trkpt><trkpt lat="44.77622338890194" lon="9.684395210016906"><ele>600.0</ele><time>2026-05-02T08:36:02Z</time></trkpt><trkpt lat="44.77620670038413" lon="9.684532941612806"><ele>600.0</ele><time>2026-05-02T08:36:03Z</time></trkpt><trkpt lat="44.7761929748796" lon="9.684659360448022"><ele>600.0</ele><time>2026-05-02T08:36:04Z</time></trkpt><trkpt lat="44.776177916648166" lon="9.684777282698455"><ele>598.0</ele><time>2026-05-02T08:36:05Z</time></trkpt><trkpt lat="44.7761681418649" lon="9.684886879278116"><ele>596.0</ele><time>2026-05-02T08:36:06Z</time></trkpt><trkpt lat="44.77615680831377" lon="9.684989870746058"><ele>594.0</ele><time>2026-05-02T08:36:07Z</time></trkpt><trkpt lat="44.77612981340222" lon="9.68508857353615"><ele>592.0</ele><time>2026-05-02T08:36:08Z</time></trkpt><trkpt lat="44.77609019503319" lon="9.685191926953653"><ele>590.0</ele><time>2026-05-02T08:36:09Z</time></trkpt><trkpt lat="44.77604781245695" lon="9.685287974519705"><ele>588.0</ele><time>2026-05-02T08:36:10Z</time></trkpt><trkpt lat="44.77601519541051" lon="9.68538471780538"><ele>586.3333333333334</ele><time>2026-05-02T08:36:11Z</time></trkpt><trkpt lat="44.775971521318525" lon="9.685487066796584"><ele>584.6666666666666</ele><time>2026-05-02T08:36:12Z</time></trkpt><trkpt lat="44.77593467428949" lon="9.685597799801599"><ele>583.0</ele><time>2026-05-02T08:36:13Z</time></trkpt><trkpt lat="44.775899474701994" lon="9.685707254000262"><ele>581.3333333333333</ele><time>2026-05-02T08:36:14Z</time></trkpt><trkpt lat="44.77585890115749" lon="9.685821368836054"><ele>579.6666666666666</ele><time>2026-05-02T08:36:15Z</time></trkpt><trkpt lat="44.77581397481938" lon="9.685933098475969"><ele>578.0</ele><time>2026-05-02T08:36:16Z</time></trkpt><trkpt lat="44.775766543751764" lon="9.686036344098717"><ele>576.1666666666666</ele><time>2026-05-02T08:36:17Z</time></trkpt><trkpt lat="44.77572872252434" lon="9.686122777617333"><ele>574.3333333333333</ele><time>2026-05-02T08:36:18Z</time></trkpt><trkpt lat="44.775671666436345" lon="9.686254930035362"><ele>572.5</ele><time>2026-05-02T08:36:20Z</time></trkpt><trkpt lat="44.7756427164836" lon="9.686360968954501"><ele>570.6666666666666</ele><time>2026-05-02T08:36:22Z</time></trkpt><trkpt lat="44.77568628653037" lon="9.686462820439981"><ele>568.8333333333334</ele><time>2026-05-02T08:36:24Z</time></trkpt><trkpt lat="44.775782460423244" lon="9.686432785622644"><ele>567.0</ele><time>2026-05-02T08:36:25.999Z</time></trkpt><trkpt lat="44.77583393098096" lon="9.686379286416402"><ele>567.0</ele><time>2026-05-02T08:36:26.999Z</time></trkpt><trkpt lat="44.775939686278114" lon="9.686340147429041"><ele>567.0</ele><time>2026-05-02T08:36:28.999Z</time></trkpt><trkpt lat="44.77600404783103" lon="9.686363356475693"><ele>567.0</ele><time>2026-05-02T08:36:29.999Z</time></trkpt><trkpt lat="44.77606986726684" lon="9.686406996305697"><ele>567.0</ele><time>2026-05-02T08:36:30.999Z</time></trkpt><trkpt lat="44.77612936983704" lon="9.686459793957255"><ele>567.0</ele><time>2026-05-02T08:36:31.999Z</time></trkpt><trkpt lat="44.77618735441469" lon="9.686526500906435"><ele>567.0</ele><time>2026-05-02T08:36:32.999Z</time></trkpt><trkpt lat="44.77625357941529" lon="9.686607110802116"><ele>566.6666666666666</ele><time>2026-05-02T08:36:33.999Z</time></trkpt><trkpt lat="44.776320303819915" lon="9.686686873101468"><ele>566.3333333333334</ele><time>2026-05-02T08:36:34.999Z</time></trkpt><trkpt lat="44.776385761958664" lon="9.686769923282798"><ele>566.0</ele><time>2026-05-02T08:36:35.999Z</time></trkpt><trkpt lat="44.77644792468299" lon="9.68685663663989"><ele>565.6666666666667</ele><time>2026-05-02T08:36:36.999Z</time></trkpt><trkpt lat="44.776510307524816" lon="9.686947861548461"><ele>565.3333333333334</ele><time>2026-05-02T08:36:37.999Z</time></trkpt><trkpt lat="44.77657735720682" lon="9.68703448236861"><ele>565.0</ele><time>2026-05-02T08:36:38.999Z</time></trkpt><trkpt lat="44.77664406496283" lon="9.687130752683045"><ele>563.0</ele><time>2026-05-02T08:36:39.999Z</time></trkpt><trkpt lat="44.776710589495345" lon="9.687237399598477"><ele>561.0</ele><time>2026-05-02T08:36:40.999Z</time></trkpt><trkpt lat="44.77677350363417" lon="9.687350237287848"><ele>559.0</ele><time>2026-05-02T08:36:41.999Z</time></trkpt><trkpt lat="44.77683421181704" lon="9.687459328443538"><ele>557.0</ele><time>2026-05-02T08:36:42.999Z</time></trkpt><trkpt lat="44.77689953981538" lon="9.687563627668977"><ele>555.0</ele><time>2026-05-02T08:36:43.999Z</time></trkpt><trkpt lat="44.77696114878488" lon="9.687668541553174"><ele>552.1666666666666</ele><time>2026-05-02T08:36:44.999Z</time></trkpt><trkpt lat="44.777010593931955" lon="9.687782303926076"><ele>549.3333333333334</ele><time>2026-05-02T08:36:45.999Z</time></trkpt><trkpt lat="44.7770447772628" lon="9.687892865964164"><ele>546.5</ele><time>2026-05-02T08:36:46.999Z</time></trkpt><trkpt lat="44.77707328778227" lon="9.687990832552629"><ele>543.6666666666667</ele><time>2026-05-02T08:36:47.999Z</time></trkpt><trkpt lat="44.77710937545455" lon="9.688082206272043"><ele>540.8333333333334</ele><time>2026-05-02T08:36:48.999Z</time></trkpt><trkpt lat="44.777158676970885" lon="9.688173111381403"><ele>538.0</ele><time>2026-05-02T08:36:49.999Z</time></trkpt><trkpt lat="44.77721991179263" lon="9.688253583099556"><ele>538.0</ele><time>2026-05-02T08:36:50.999Z</time></trkpt><trkpt lat="44.7772884923512" lon="9.688303450146819"><ele>538.0</ele><time>2026-05-02T08:36:51.999Z</time></trkpt><trkpt lat="44.77736509306588" lon="9.688321061746382"><ele>538.0</ele><time>2026-05-02T08:36:52.999Z</time></trkpt><trkpt lat="44.77745820757535" lon="9.688309922295826"><ele>538.0</ele><time>2026-05-02T08:36:53.999Z</time></trkpt><trkpt lat="44.77755510699066" lon="9.688265673622594"><ele>538.0</ele><time>2026-05-02T08:36:54.999Z</time></trkpt><trkpt lat="44.7776477258254" lon="9.688190285179514"><ele>537.3333333333334</ele><time>2026-05-02T08:36:55.999Z</time></trkpt><trkpt lat="44.77772877932409" lon="9.688093338270674"><ele>536.6666666666667</ele><time>2026-05-02T08:36:56.999Z</time></trkpt><trkpt lat="44.77780485527625" lon="9.68801093500507"><ele>536.0</ele><time>2026-05-02T08:36:57.999Z</time></trkpt><trkpt lat="44.77788328079456" lon="9.687978596751359"><ele>535.3333333333334</ele><time>2026-05-02T08:36:58.999Z</time></trkpt><trkpt lat="44.777961245770456" lon="9.68800045999979"><ele>534.6666666666666</ele><time>2026-05-02T08:36:59.999Z</time></trkpt><trkpt lat="44.7780167812649" lon="9.688055562216777"><ele>534.0</ele><time>2026-05-02T08:37:00.999Z</time></trkpt><trkpt lat="44.778059319822695" lon="9.688135837356022"><ele>534.0</ele><time>2026-05-02T08:37:01.999Z</time></trkpt><trkpt lat="44.77809901111799" lon="9.688225528809577"><ele>534.0</ele><time>2026-05-02T08:37:02.999Z</time></trkpt><trkpt lat="44.77812983360317" lon="9.688323812377039"><ele>534.0</ele><time>2026-05-02T08:37:03.999Z</time></trkpt><trkpt lat="44.778153297907245" lon="9.688428629425308"><ele>534.0</ele><time>2026-05-02T08:37:04.999Z</time></trkpt><trkpt lat="44.77817026785874" lon="9.688539652847311"><ele>534.0</ele><time>2026-05-02T08:37:05.999Z</time></trkpt><trkpt lat="44.77818112292934" lon="9.688651574766123"><ele>534.0</ele><time>2026-05-02T08:37:06.999Z</time></trkpt><trkpt lat="44.778197335401195" lon="9.688761333495222"><ele>532.2</ele><time>2026-05-02T08:37:07.999Z</time></trkpt><trkpt lat="44.778219587303745" lon="9.688870418614972"><ele>530.4</ele><time>2026-05-02T08:37:08.999Z</time></trkpt><trkpt lat="44.77825263513624" lon="9.68897794763292"><ele>528.6</ele><time>2026-05-02T08:37:09.999Z</time></trkpt><trkpt lat="44.77828839498174" lon="9.689085390795384"><ele>526.8</ele><time>2026-05-02T08:37:10.999Z</time></trkpt><trkpt lat="44.778345355029934" lon="9.689202836945608"><ele>525.0</ele><time>2026-05-02T08:37:12.999Z</time></trkpt><trkpt lat="44.77843640337004" lon="9.689281795847721"><ele>525.0</ele><time>2026-05-02T08:37:14.999Z</time></trkpt><trkpt lat="44.778506248698456" lon="9.689313487611289"><ele>525.0</ele><time>2026-05-02T08:37:15.999Z</time></trkpt><trkpt lat="44.77857085194797" lon="9.689338606143068"><ele>525.0</ele><time>2026-05-02T08:37:16.999Z</time></trkpt><trkpt lat="44.77865676848164" lon="9.689366707433907"><ele>525.0</ele><time>2026-05-02T08:37:18.999Z</time></trkpt><trkpt lat="44.77872472848359" lon="9.689417782097243"><ele>525.0</ele><time>2026-05-02T08:37:25.999Z</time></trkpt><trkpt lat="44.778763621639335" lon="9.689507979703707"><ele>525.0</ele><time>2026-05-02T08:37:27.999Z</time></trkpt><trkpt lat="44.77873534631756" lon="9.689621935731138"><ele>524.4</ele><time>2026-05-02T08:37:29.999Z</time></trkpt><trkpt lat="44.77874940755789" lon="9.689770639171854"><ele>523.8</ele><time>2026-05-02T08:37:31.999Z</time></trkpt><trkpt lat="44.778799333334476" lon="9.689910885809477"><ele>523.2</ele><time>2026-05-02T08:37:33.999Z</time></trkpt><trkpt lat="44.778859022002024" lon="9.690028264272208"><ele>522.6</ele><time>2026-05-02T08:37:35.999Z</time></trkpt><trkpt lat="44.77889957241212" lon="9.690169402324262"><ele>522.0</ele><time>2026-05-02T08:37:37.999Z</time></trkpt><trkpt lat="44.7788881600023" lon="9.690324941664471"><ele>520.2</ele><time>2026-05-02T08:37:39.999Z</time></trkpt><trkpt lat="44.778818047212816" lon="9.690452330390155"><ele>518.4000000000001</ele><time>2026-05-02T08:37:41.999Z</time></trkpt><trkpt lat="44.77874664732137" lon="9.690569984190814"><ele>516.5999999999999</ele><time>2026-05-02T08:37:43.999Z</time></trkpt><trkpt lat="44.778699406141264" lon="9.690699014765173"><ele>514.8</ele><time>2026-05-02T08:37:45.999Z</time></trkpt><trkpt lat="44.778672192413154" lon="9.690839979781037"><ele>513.0</ele><time>2026-05-02T08:37:48Z</time></trkpt><trkpt lat="44.77864862819974" lon="9.690999633147877"><ele>510.59999999999997</ele><time>2026-05-02T08:37:50Z</time></trkpt><trkpt lat="44.77863996936474" lon="9.691145585574718"><ele>508.19999999999993</ele><time>2026-05-02T08:37:52Z</time></trkpt><trkpt lat="44.77858913325155" lon="9.69125592189425"><ele>505.8</ele><time>2026-05-02T08:37:54Z</time></trkpt><trkpt lat="44.77848442623799" lon="9.691341897146124"><ele>503.4</ele><time>2026-05-02T08:37:56Z</time></trkpt><trkpt lat="44.77845294359684" lon="9.691499331230677"><ele>501.0</ele><time>2026-05-02T08:37:58Z</time></trkpt><trkpt lat="44.778464986678756" lon="9.691668443912423"><ele>500.6</ele><time>2026-05-02T08:38:00Z</time></trkpt><trkpt lat="44.77844236203162" lon="9.691832696273558"><ele>500.20000000000005</ele><time>2026-05-02T08:38:02Z</time></trkpt><trkpt lat="44.77839077088275" lon="9.691965444960061"><ele>499.79999999999995</ele><time>2026-05-02T08:38:04Z</time></trkpt><trkpt lat="44.77834377459323" lon="9.692095086305164"><ele>499.4</ele><time>2026-05-02T08:38:06Z</time></trkpt><trkpt lat="44.77830415959462" lon="9.692224831911448"><ele>499.0</ele><time>2026-05-02T08:38:08Z</time></trkpt><trkpt lat="44.77827880314512" lon="9.692338656916254"><ele>498.0</ele><time>2026-05-02T08:38:10Z</time></trkpt><trkpt lat="44.778274730015255" lon="9.692477025759116"><ele>497.0</ele><time>2026-05-02T08:38:12Z</time></trkpt><trkpt lat="44.778272318752784" lon="9.692608172733298"><ele>496.0</ele><time>2026-05-02T08:38:14Z</time></trkpt><trkpt lat="44.77824284783516" lon="9.69274084907563"><ele>495.0</ele><time>2026-05-02T08:38:16Z</time></trkpt><trkpt lat="44.77831943731451" lon="9.692831163010906"><ele>494.0</ele><time>2026-05-02T08:38:18Z</time></trkpt><trkpt lat="44.77840234571407" lon="9.692921006675956"><ele>493.0</ele><time>2026-05-02T08:38:20Z</time></trkpt><trkpt lat="44.77845878186079" lon="9.6930354008796"><ele>492.0</ele><time>2026-05-02T08:38:22Z</time></trkpt><trkpt lat="44.77853174247946" lon="9.693135815754886"><ele>491.0</ele><time>2026-05-02T08:38:24Z</time></trkpt><trkpt lat="44.77860704771902" lon="9.693222865244556"><ele>490.0</ele><time>2026-05-02T08:38:26Z</time></trkpt><trkpt lat="44.77867396986352" lon="9.69330194022466"><ele>489.0</ele><time>2026-05-02T08:38:28Z</time></trkpt><trkpt lat="44.77872160568687" lon="9.693363815864423"><ele>488.5</ele><time>2026-05-02T08:38:30Z</time></trkpt><trkpt lat="44.77873899702644" lon="9.69347098681916"><ele>488.0</ele><time>2026-05-02T08:38:37Z</time></trkpt><trkpt lat="44.77871333082992" lon="9.693585244807274"><ele>487.5</ele><time>2026-05-02T08:38:39Z</time></trkpt><trkpt lat="44.778686342798416" lon="9.69371269360791"><ele>487.0</ele><time>2026-05-02T08:38:41Z</time></trkpt><trkpt lat="44.7786671846756" lon="9.693836985205557"><ele>486.5</ele><time>2026-05-02T08:38:43Z</time></trkpt><trkpt lat="44.77870685170144" lon="9.693938269416266"><ele>486.0</ele><time>2026-05-02T08:38:44.999Z</time></trkpt><trkpt lat="44.77876969293783" lon="9.694045606058246"><ele>484.6666666666667</ele><time>2026-05-02T08:38:46.999Z</time></trkpt><trkpt lat="44.7788580777797" lon="9.694127997933286"><ele>483.33333333333337</ele><time>2026-05-02T08:38:48.999Z</time></trkpt><trkpt lat="44.77890127674408" lon="9.694239751867189"><ele>482.0</ele><time>2026-05-02T08:38:50.999Z</time></trkpt><trkpt lat="44.77888826309165" lon="9.694343651675467"><ele>480.6666666666667</ele><time>2026-05-02T08:38:52.999Z</time></trkpt><trkpt lat="44.77886766793472" lon="9.694448493583783"><ele>479.33333333333337</ele><time>2026-05-02T08:38:54.999Z</time></trkpt><trkpt lat="44.77884165232631" lon="9.694556619554008"><ele>478.0</ele><time>2026-05-02T08:38:56.999Z</time></trkpt><trkpt lat="44.77881430960685" lon="9.69466630042644"><ele>475.79999999999995</ele><time>2026-05-02T08:38:58.999Z</time></trkpt><trkpt lat="44.77877749043685" lon="9.694753034067341"><ele>473.59999999999997</ele><time>2026-05-02T08:39:00.999Z</time></trkpt><trkpt lat="44.778732115168836" lon="9.694855122039085"><ele>471.40000000000003</ele><time>2026-05-02T08:39:03.999Z</time></trkpt><trkpt lat="44.77872986594455" lon="9.694978910714172"><ele>469.20000000000005</ele><time>2026-05-02T08:39:06.999Z</time></trkpt><trkpt lat="44.77871305667375" lon="9.695119597572402"><ele>467.0</ele><time>2026-05-02T08:39:08.999Z</time></trkpt><trkpt lat="44.778685259126625" lon="9.695276527641727"><ele>465.20000000000005</ele><time>2026-05-02T08:39:10.999Z</time></trkpt><trkpt lat="44.778659090390065" lon="9.695418332747604"><ele>463.40000000000003</ele><time>2026-05-02T08:39:12.999Z</time></trkpt><trkpt lat="44.77864820075806" lon="9.695555987991588"><ele>461.59999999999997</ele><time>2026-05-02T08:39:14.999Z</time></trkpt><trkpt lat="44.77863673310871" lon="9.695696990129916"><ele>459.79999999999995</ele><time>2026-05-02T08:39:16.999Z</time></trkpt><trkpt lat="44.778624724575565" lon="9.695830391270063"><ele>458.0</ele><time>2026-05-02T08:39:18.999Z</time></trkpt><trkpt lat="44.77859981643358" lon="9.695961408428566"><ele>457.99999999999994</ele><time>2026-05-02T08:39:20.999Z</time></trkpt><trkpt lat="44.77858272020074" lon="9.696062479069576"><ele>458.0</ele><time>2026-05-02T08:39:22.999Z</time></trkpt><trkpt lat="44.778629839768314" lon="9.696149190486524"><ele>458.0</ele><time>2026-05-02T08:39:24.999Z</time></trkpt><trkpt lat="44.77865531566786" lon="9.696272666906255"><ele>458.0</ele><time>2026-05-02T08:39:26.999Z</time></trkpt><trkpt lat="44.77865455380117" lon="9.696368371089678"><ele>457.99999999999994</ele><time>2026-05-02T08:39:29.999Z</time></trkpt><trkpt lat="44.77868686119158" lon="9.696465008389515"><ele>458.0</ele><time>2026-05-02T08:39:39.999Z</time></trkpt><trkpt lat="44.7787324980198" lon="9.696544445402816"><ele>455.85714285714283</ele><time>2026-05-02T08:39:41.999Z</time></trkpt><trkpt lat="44.778765550737965" lon="9.696635842685868"><ele>453.7142857142857</ele><time>2026-05-02T08:39:43.999Z</time></trkpt><trkpt lat="44.7787836885813" lon="9.696725287411969"><ele>451.57142857142856</ele><time>2026-05-02T08:39:46.999Z</time></trkpt><trkpt lat="44.77883192687713" lon="9.696811657654301"><ele>449.42857142857144</ele><time>2026-05-02T08:39:49.999Z</time></trkpt><trkpt lat="44.77885232981465" lon="9.696915744117847"><ele>447.28571428571433</ele><time>2026-05-02T08:39:51.999Z</time></trkpt><trkpt lat="44.778875791661605" lon="9.697016368838637"><ele>445.14285714285717</ele><time>2026-05-02T08:39:54Z</time></trkpt><trkpt lat="44.778927301235946" lon="9.697104068009441"><ele>443.0</ele><time>2026-05-02T08:39:56Z</time></trkpt><trkpt lat="44.77899971975364" lon="9.69716007127287"><ele>441.99999999999994</ele><time>2026-05-02T08:39:58Z</time></trkpt><trkpt lat="44.77908213479323" lon="9.69718883280238"><ele>441.0</ele><time>2026-05-02T08:40:00Z</time></trkpt><trkpt lat="44.77914563496293" lon="9.697206690181691"><ele>440.0</ele><time>2026-05-02T08:40:02Z</time></trkpt><trkpt lat="44.779235712468804" lon="9.69724329805288"><ele>439.0</ele><time>2026-05-02T08:40:04Z</time></trkpt><trkpt lat="44.779309034214506" lon="9.697309224756713"><ele>437.99999999999994</ele><time>2026-05-02T08:40:06Z</time></trkpt><trkpt lat="44.77937590551493" lon="9.697422538923403"><ele>437.0</ele><time>2026-05-02T08:40:10Z</time></trkpt><trkpt lat="44.779437657663735" lon="9.697544373136493"><ele>436.8</ele><time>2026-05-02T08:40:12Z</time></trkpt><trkpt lat="44.77945657276958" lon="9.69766038739911"><ele>436.6</ele><time>2026-05-02T08:40:21Z</time></trkpt><trkpt lat="44.77942429231182" lon="9.697799569872963"><ele>436.40000000000003</ele><time>2026-05-02T08:40:38Z</time></trkpt><trkpt lat="44.779382840894094" lon="9.697879119091324"><ele>436.20000000000005</ele><time>2026-05-02T08:40:39Z</time></trkpt><trkpt lat="44.77933620581819" lon="9.69800363941076"><ele>436.0</ele><time>2026-05-02T08:40:41Z</time></trkpt><trkpt lat="44.77935189184155" lon="9.698173528916472"><ele>435.50000000000006</ele><time>2026-05-02T08:40:43Z</time></trkpt><trkpt lat="44.77935410635871" lon="9.698264794553776"><ele>435.0</ele><time>2026-05-02T08:40:44Z</time></trkpt><trkpt lat="44.77925799506751" lon="9.698385173672103"><ele>434.5</ele><time>2026-05-02T08:40:45.999Z</time></trkpt><trkpt lat="44.77920353323736" lon="9.698444703582904"><ele>434.0</ele><time>2026-05-02T08:40:46.999Z</time></trkpt><trkpt lat="44.779188655055385" lon="9.698536282830885"><ele>433.50000000000006</ele><time>2026-05-02T08:40:47.999Z</time></trkpt><trkpt lat="44.77920411548147" lon="9.698634222784397"><ele>433.0</ele><time>2026-05-02T08:40:48.999Z</time></trkpt><trkpt lat="44.77922536650814" lon="9.698734988199043"><ele>435.59999999999997</ele><time>2026-05-02T08:40:49.999Z</time></trkpt><trkpt lat="44.77923523329302" lon="9.698831348286268"><ele>438.19999999999993</ele><time>2026-05-02T08:40:50.999Z</time></trkpt><trkpt lat="44.77920668519841" lon="9.698993385729635"><ele>440.8</ele><time>2026-05-02T08:40:52.999Z</time></trkpt><trkpt lat="44.779110383672304" lon="9.699099541408174"><ele>443.4</ele><time>2026-05-02T08:40:54.999Z</time></trkpt><trkpt lat="44.77902912700881" lon="9.699168408428962"><ele>446.0</ele><time>2026-05-02T08:40:55.999Z</time></trkpt><trkpt lat="44.778945416562074" lon="9.699257444922214"><ele>446.0</ele><time>2026-05-02T08:40:56.999Z</time></trkpt><trkpt lat="44.77886304052766" lon="9.699396435838073"><ele>446.0</ele><time>2026-05-02T08:40:57.999Z</time></trkpt><trkpt lat="44.778792511009215" lon="9.699539655252122"><ele>446.0</ele><time>2026-05-02T08:40:58.999Z</time></trkpt><trkpt lat="44.7786988755748" lon="9.699713597211426"><ele>446.0</ele><time>2026-05-02T08:40:59.999Z</time></trkpt><trkpt lat="44.77860011721263" lon="9.699896516059045"><ele>447.5</ele><time>2026-05-02T08:41:00.999Z</time></trkpt><trkpt lat="44.77852510219248" lon="9.700032946733064"><ele>449.0</ele><time>2026-05-02T08:41:01.999Z</time></trkpt><trkpt lat="44.77844401371526" lon="9.700131903413759"><ele>450.5</ele><time>2026-05-02T08:41:02.999Z</time></trkpt><trkpt lat="44.77832997536545" lon="9.700226033053989"><ele>452.0</ele><time>2026-05-02T08:41:03.999Z</time></trkpt><trkpt lat="44.77818539156548" lon="9.700344105527398"><ele>455.0</ele><time>2026-05-02T08:41:04.999Z</time></trkpt><trkpt lat="44.77806200857256" lon="9.700463319159027"><ele>458.0</ele><time>2026-05-02T08:41:05.999Z</time></trkpt><trkpt lat="44.777973454637134" lon="9.700575696198383"><ele>461.0</ele><time>2026-05-02T08:41:06.999Z</time></trkpt><trkpt lat="44.777889027139274" lon="9.70065548212966"><ele>464.0</ele><time>2026-05-02T08:41:07.999Z</time></trkpt><trkpt lat="44.777784707406276" lon="9.70068414201594"><ele>464.79999999999995</ele><time>2026-05-02T08:41:08.999Z</time></trkpt><trkpt lat="44.77768379069162" lon="9.700677394110675"><ele>465.59999999999997</ele><time>2026-05-02T08:41:09.999Z</time></trkpt><trkpt lat="44.777613225694324" lon="9.700672332517554"><ele>466.4</ele><time>2026-05-02T08:41:10.999Z</time></trkpt><trkpt lat="44.777572500039994" lon="9.70084978000988"><ele>467.2</ele><time>2026-05-02T08:41:12.999Z</time></trkpt><trkpt lat="44.777591588706564" lon="9.700986835198114"><ele>468.0</ele><time>2026-05-02T08:41:13.999Z</time></trkpt><trkpt lat="44.77763371436843" lon="9.70114706483439"><ele>467.79999999999995</ele><time>2026-05-02T08:41:14.999Z</time></trkpt><trkpt lat="44.777697224753084" lon="9.70130303094508"><ele>467.59999999999997</ele><time>2026-05-02T08:41:15.999Z</time></trkpt><trkpt lat="44.7777757176359" lon="9.701395666559925"><ele>467.40000000000003</ele><time>2026-05-02T08:41:16.999Z</time></trkpt><trkpt lat="44.77784309324935" lon="9.701472332518918"><ele>467.20000000000005</ele><time>2026-05-02T08:41:17.999Z</time></trkpt><trkpt lat="44.777870912340774" lon="9.701564999578496"><ele>467.0</ele><time>2026-05-02T08:41:18.999Z</time></trkpt><trkpt lat="44.777849368711685" lon="9.701683043367758"><ele>467.0</ele><time>2026-05-02T08:41:19.999Z</time></trkpt><trkpt lat="44.77779563688177" lon="9.701794507679574"><ele>467.0</ele><time>2026-05-02T08:41:20.999Z</time></trkpt><trkpt lat="44.777708023073195" lon="9.701909216040471"><ele>467.0</ele><time>2026-05-02T08:41:21.999Z</time></trkpt><trkpt lat="44.77761361600903" lon="9.702051032639952"><ele>467.0</ele><time>2026-05-02T08:41:22.999Z</time></trkpt><trkpt lat="44.77751051536649" lon="9.702233723638152"><ele>470.0</ele><time>2026-05-02T08:41:23.999Z</time></trkpt><trkpt lat="44.77741594327903" lon="9.70241228327613"><ele>473.0</ele><time>2026-05-02T08:41:24.999Z</time></trkpt><trkpt lat="44.77734765940075" lon="9.702566735165504"><ele>476.0</ele><time>2026-05-02T08:41:25.999Z</time></trkpt><trkpt lat="44.7773042157406" lon="9.702706667364478"><ele>479.0</ele><time>2026-05-02T08:41:26.999Z</time></trkpt><trkpt lat="44.77728274289157" lon="9.70282065790854"><ele>479.4</ele><time>2026-05-02T08:41:27.999Z</time></trkpt><trkpt lat="44.77736557347892" lon="9.702925893757072"><ele>479.79999999999995</ele><time>2026-05-02T08:41:29.999Z</time></trkpt><trkpt lat="44.77745254236164" lon="9.702952794765821"><ele>480.20000000000005</ele><time>2026-05-02T08:41:30.999Z</time></trkpt><trkpt lat="44.77755463560919" lon="9.702967215500083"><ele>480.6</ele><time>2026-05-02T08:41:31.999Z</time></trkpt><trkpt lat="44.77767641203467" lon="9.702994436376748"><ele>481.0</ele><time>2026-05-02T08:41:32.999Z</time></trkpt><trkpt lat="44.77779705818836" lon="9.70302390946005"><ele>481.0</ele><time>2026-05-02T08:41:33.999Z</time></trkpt><trkpt lat="44.7778907850185" lon="9.703029950537713"><ele>481.0</ele><time>2026-05-02T08:41:34.999Z</time></trkpt><trkpt lat="44.77797134420165" lon="9.703048778466856"><ele>481.0</ele><time>2026-05-02T08:41:35.999Z</time></trkpt><trkpt lat="44.77804721867661" lon="9.703152918154913"><ele>481.0</ele><time>2026-05-02T08:41:36.999Z</time></trkpt><trkpt lat="44.77813460783231" lon="9.70329698593817"><ele>481.0</ele><time>2026-05-02T08:41:37.999Z</time></trkpt><trkpt lat="44.77822602905279" lon="9.70349420699623"><ele>483.25</ele><time>2026-05-02T08:41:38.999Z</time></trkpt><trkpt lat="44.778290984951084" lon="9.703669957426875"><ele>485.5</ele><time>2026-05-02T08:41:39.999Z</time></trkpt><trkpt lat="44.778347074861415" lon="9.703826083508872"><ele>487.75</ele><time>2026-05-02T08:41:40.999Z</time></trkpt><trkpt lat="44.77840172922437" lon="9.70396136860089"><ele>490.0</ele><time>2026-05-02T08:41:41.999Z</time></trkpt><trkpt lat="44.77844951413494" lon="9.70409437354019"><ele>490.00000000000006</ele><time>2026-05-02T08:41:42.999Z</time></trkpt><trkpt lat="44.77848355688059" lon="9.704228347828458"><ele>490.0</ele><time>2026-05-02T08:41:43.999Z</time></trkpt><trkpt lat="44.77851871035493" lon="9.704334656663496"><ele>490.0</ele><time>2026-05-02T08:41:44.999Z</time></trkpt><trkpt lat="44.77856081901058" lon="9.704412840891083"><ele>490.0</ele><time>2026-05-02T08:41:45.999Z</time></trkpt><trkpt lat="44.77862260737983" lon="9.704479895292181"><ele>490.00000000000006</ele><time>2026-05-02T08:41:46.999Z</time></trkpt><trkpt lat="44.77868305335473" lon="9.704555956134255"><ele>490.0</ele><time>2026-05-02T08:41:47.999Z</time></trkpt><trkpt lat="44.778720108672964" lon="9.704647544247615"><ele>490.50000000000006</ele><time>2026-05-02T08:41:48.999Z</time></trkpt><trkpt lat="44.77873053180485" lon="9.704758002004564"><ele>491.0</ele><time>2026-05-02T08:41:49.999Z</time></trkpt><trkpt lat="44.77873913724822" lon="9.704867570284883"><ele>491.5</ele><time>2026-05-02T08:41:50.999Z</time></trkpt><trkpt lat="44.77876238956085" lon="9.704971756795915"><ele>492.0</ele><time>2026-05-02T08:41:51.999Z</time></trkpt><trkpt lat="44.778801978060756" lon="9.705077557801102"><ele>492.50000000000006</ele><time>2026-05-02T08:41:52.999Z</time></trkpt><trkpt lat="44.77884184919848" lon="9.705179691258774"><ele>493.0</ele><time>2026-05-02T08:41:53.999Z</time></trkpt><trkpt lat="44.77888140456374" lon="9.70528171828842"><ele>494.6666666666667</ele><time>2026-05-02T08:41:54.999Z</time></trkpt><trkpt lat="44.77892376819938" lon="9.705389788417602"><ele>496.33333333333337</ele><time>2026-05-02T08:41:55.999Z</time></trkpt><trkpt lat="44.77896952214859" lon="9.705494089888786"><ele>498.0</ele><time>2026-05-02T08:41:56.999Z</time></trkpt><trkpt lat="44.77902117348173" lon="9.705590815870357"><ele>499.66666666666663</ele><time>2026-05-02T08:41:57.999Z</time></trkpt><trkpt lat="44.779066637605425" lon="9.705685137259271"><ele>501.3333333333333</ele><time>2026-05-02T08:41:59Z</time></trkpt><trkpt lat="44.77910236793443" lon="9.705778245165511"><ele>503.0</ele><time>2026-05-02T08:42:00Z</time></trkpt><trkpt lat="44.779080962111614" lon="9.705922723205482"><ele>502.99999999999994</ele><time>2026-05-02T08:42:02Z</time></trkpt><trkpt lat="44.779017340192745" lon="9.70603655915347"><ele>503.0</ele><time>2026-05-02T08:42:04Z</time></trkpt><trkpt lat="44.77899108615466" lon="9.706151059212234"><ele>503.0</ele><time>2026-05-02T08:42:12Z</time></trkpt><trkpt lat="44.77897186397848" lon="9.70631352430782"><ele>503.0</ele><time>2026-05-02T08:42:14Z</time></trkpt><trkpt lat="44.7789695968005" lon="9.706406025183894"><ele>502.99999999999994</ele><time>2026-05-02T08:42:15Z</time></trkpt><trkpt lat="44.77897415444409" lon="9.706515148695535"><ele>503.0</ele><time>2026-05-02T08:42:16Z</time></trkpt><trkpt lat="44.77897972283633" lon="9.706637434745343"><ele>503.0</ele><time>2026-05-02T08:42:17Z</time></trkpt><trkpt lat="44.77898802325137" lon="9.706756417741355"><ele>503.00000000000006</ele><time>2026-05-02T08:42:18Z</time></trkpt><trkpt lat="44.77900577040319" lon="9.706861606812332"><ele>503.0</ele><time>2026-05-02T08:42:19Z</time></trkpt><trkpt lat="44.779037453964094" lon="9.70695487571"><ele>503.0</ele><time>2026-05-02T08:42:20Z</time></trkpt><trkpt lat="44.779071629876114" lon="9.707039964013937"><ele>503.00000000000006</ele><time>2026-05-02T08:42:21Z</time></trkpt><trkpt lat="44.779106031641476" lon="9.707118534015438"><ele>503.0</ele><time>2026-05-02T08:42:22Z</time></trkpt><trkpt lat="44.779142889714194" lon="9.707215048085924"><ele>503.0</ele><time>2026-05-02T08:42:23Z</time></trkpt><trkpt lat="44.779166627121036" lon="9.707335957327189"><ele>503.49999999999994</ele><time>2026-05-02T08:42:24Z</time></trkpt><trkpt lat="44.7791736202344" lon="9.707449488090344"><ele>504.0</ele><time>2026-05-02T08:42:25Z</time></trkpt><trkpt lat="44.77916856835909" lon="9.707571991285596"><ele>504.5</ele><time>2026-05-02T08:42:26Z</time></trkpt><trkpt lat="44.779151341724976" lon="9.707684580291854"><ele>505.0</ele><time>2026-05-02T08:42:27Z</time></trkpt><trkpt lat="44.779118101602165" lon="9.707776050421815"><ele>505.49999999999994</ele><time>2026-05-02T08:42:28Z</time></trkpt><trkpt lat="44.77903820115763" lon="9.707842267753724"><ele>506.0</ele><time>2026-05-02T08:42:30Z</time></trkpt><trkpt lat="44.77896124958377" lon="9.707955578403165"><ele>506.66666666666663</ele><time>2026-05-02T08:42:32Z</time></trkpt><trkpt lat="44.77893653869488" lon="9.708046315054052"><ele>507.3333333333333</ele><time>2026-05-02T08:42:33Z</time></trkpt><trkpt lat="44.7789387492415" lon="9.708144626240218"><ele>508.0</ele><time>2026-05-02T08:42:34Z</time></trkpt><trkpt lat="44.77894955936868" lon="9.708252763779537"><ele>508.66666666666663</ele><time>2026-05-02T08:42:35Z</time></trkpt><trkpt lat="44.77896870308866" lon="9.708382248907725"><ele>509.3333333333333</ele><time>2026-05-02T08:42:36Z</time></trkpt><trkpt lat="44.77899391814504" lon="9.70852474986407"><ele>510.0</ele><time>2026-05-02T08:42:37Z</time></trkpt><trkpt lat="44.779019948282304" lon="9.708693462364069"><ele>511.1666666666667</ele><time>2026-05-02T08:42:38Z</time></trkpt><trkpt lat="44.77905020253123" lon="9.708814097364261"><ele>512.3333333333334</ele><time>2026-05-02T08:42:39Z</time></trkpt><trkpt lat="44.77910231176795" lon="9.708911589318516"><ele>513.5</ele><time>2026-05-02T08:42:40Z</time></trkpt><trkpt lat="44.77916269059704" lon="9.708990328393"><ele>514.6666666666667</ele><time>2026-05-02T08:42:41Z</time></trkpt><trkpt lat="44.7792218880013" lon="9.70905222648918"><ele>515.8333333333334</ele><time>2026-05-02T08:42:42Z</time></trkpt><trkpt lat="44.7792774629663" lon="9.709135087716268"><ele>517.0</ele><time>2026-05-02T08:42:43Z</time></trkpt><trkpt lat="44.779308098973964" lon="9.70924547742447"><ele>517.0</ele><time>2026-05-02T08:42:44Z</time></trkpt><trkpt lat="44.77931586329006" lon="9.70937273309356"><ele>517.0</ele><time>2026-05-02T08:42:45Z</time></trkpt><trkpt lat="44.779304984803545" lon="9.7095222094676"><ele>517.0</ele><time>2026-05-02T08:42:46Z</time></trkpt><trkpt lat="44.77927906162554" lon="9.709679397919205"><ele>517.0</ele><time>2026-05-02T08:42:47Z</time></trkpt><trkpt lat="44.77925624799897" lon="9.709812185101308"><ele>517.0</ele><time>2026-05-02T08:42:48Z</time></trkpt><trkpt lat="44.77923842402876" lon="9.70992260795472"><ele>517.6666666666667</ele><time>2026-05-02T08:42:49Z</time></trkpt><trkpt lat="44.77923700673741" lon="9.710032089886056"><ele>518.3333333333334</ele><time>2026-05-02T08:42:50Z</time></trkpt><trkpt lat="44.7792401898284" lon="9.710142234869537"><ele>519.0</ele><time>2026-05-02T08:42:51Z</time></trkpt><trkpt lat="44.77924343233395" lon="9.710251518575681"><ele>519.6666666666666</ele><time>2026-05-02T08:42:51.999Z</time></trkpt><trkpt lat="44.77925646443974" lon="9.710347073159465"><ele>520.3333333333333</ele><time>2026-05-02T08:42:52.999Z</time></trkpt><trkpt lat="44.77935689778497" lon="9.71046821641692"><ele>521.0</ele><time>2026-05-02T08:42:54.999Z</time></trkpt><trkpt lat="44.77944048142322" lon="9.710506052581872"><ele>521.0</ele><time>2026-05-02T08:42:55.999Z</time></trkpt><trkpt lat="44.77952696937458" lon="9.710545424759353"><ele>521.0</ele><time>2026-05-02T08:42:56.999Z</time></trkpt><trkpt lat="44.77960165796551" lon="9.710580679448881"><ele>521.0</ele><time>2026-05-02T08:42:57.999Z</time></trkpt><trkpt lat="44.7796862519781" lon="9.710646459715118"><ele>521.0</ele><time>2026-05-02T08:42:58.999Z</time></trkpt><trkpt lat="44.779780967032835" lon="9.71075578810786"><ele>521.0</ele><time>2026-05-02T08:42:59.999Z</time></trkpt><trkpt lat="44.779861723604235" lon="9.710866863122657"><ele>521.0</ele><time>2026-05-02T08:43:00.999Z</time></trkpt><trkpt lat="44.779935856784064" lon="9.710945678389145"><ele>521.0</ele><time>2026-05-02T08:43:01.999Z</time></trkpt><trkpt lat="44.7800171406785" lon="9.711006378107536"><ele>521.0</ele><time>2026-05-02T08:43:02.999Z</time></trkpt><trkpt lat="44.780107139413936" lon="9.71107547430869"><ele>521.0</ele><time>2026-05-02T08:43:03.999Z</time></trkpt><trkpt lat="44.780207777649615" lon="9.711132701153822"><ele>521.0</ele><time>2026-05-02T08:43:04.999Z</time></trkpt><trkpt lat="44.780295711103086" lon="9.711183732697197"><ele>521.2</ele><time>2026-05-02T08:43:05.999Z</time></trkpt><trkpt lat="44.78038730835704" lon="9.711223445171699"><ele>521.4000000000001</ele><time>2026-05-02T08:43:06.999Z</time></trkpt><trkpt lat="44.780479419646646" lon="9.711260682663736"><ele>521.6</ele><time>2026-05-02T08:43:07.999Z</time></trkpt><trkpt lat="44.78057699130433" lon="9.711289144599522"><ele>521.8000000000001</ele><time>2026-05-02T08:43:08.999Z</time></trkpt><trkpt lat="44.7806802057746" lon="9.711337273077772"><ele>522.0</ele><time>2026-05-02T08:43:09.999Z</time></trkpt><trkpt lat="44.780784301090854" lon="9.71138518731362"><ele>522.0</ele><time>2026-05-02T08:43:10.999Z</time></trkpt><trkpt lat="44.78088793995274" lon="9.711430012390512"><ele>522.0</ele><time>2026-05-02T08:43:11.999Z</time></trkpt><trkpt lat="44.780978694739204" lon="9.711478622783117"><ele>522.0</ele><time>2026-05-02T08:43:12.999Z</time></trkpt><trkpt lat="44.78106066613141" lon="9.711540228552975"><ele>522.0</ele><time>2026-05-02T08:43:13.999Z</time></trkpt><trkpt lat="44.7811394567512" lon="9.711622736913727"><ele>522.0</ele><time>2026-05-02T08:43:14.999Z</time></trkpt><trkpt lat="44.781207746149754" lon="9.711733616127557"><ele>521.2</ele><time>2026-05-02T08:43:15.999Z</time></trkpt><trkpt lat="44.78125871404022" lon="9.711862010696972"><ele>520.4000000000001</ele><time>2026-05-02T08:43:16.999Z</time></trkpt><trkpt lat="44.78130575225329" lon="9.711985373713746"><ele>519.5999999999999</ele><time>2026-05-02T08:43:17.999Z</time></trkpt><trkpt lat="44.78134675070287" lon="9.712115290469326"><ele>518.8</ele><time>2026-05-02T08:43:18.999Z</time></trkpt><trkpt lat="44.78138111105643" lon="9.712248664543823"><ele>518.0</ele><time>2026-05-02T08:43:19.999Z</time></trkpt><trkpt lat="44.78141057617661" lon="9.712382594621326"><ele>518.0</ele><time>2026-05-02T08:43:20.999Z</time></trkpt><trkpt lat="44.78143900303176" lon="9.712521271051198"><ele>518.0</ele><time>2026-05-02T08:43:21.999Z</time></trkpt><trkpt lat="44.78145870806616" lon="9.71266290908712"><ele>518.0</ele><time>2026-05-02T08:43:22.999Z</time></trkpt><trkpt lat="44.78147229673104" lon="9.712799531941416"><ele>518.0</ele><time>2026-05-02T08:43:23.999Z</time></trkpt><trkpt lat="44.78148107462701" lon="9.71292115227823"><ele>518.0</ele><time>2026-05-02T08:43:24.999Z</time></trkpt><trkpt lat="44.78146828065012" lon="9.713020332393373"><ele>517.6</ele><time>2026-05-02T08:43:25.999Z</time></trkpt><trkpt lat="44.78137975849331" lon="9.713139111246436"><ele>517.1999999999999</ele><time>2026-05-02T08:43:27.999Z</time></trkpt><trkpt lat="44.78131483787668" lon="9.713167745013681"><ele>516.8</ele><time>2026-05-02T08:43:28.999Z</time></trkpt><trkpt lat="44.78123407172792" lon="9.713188967775894"><ele>516.4</ele><time>2026-05-02T08:43:29.999Z</time></trkpt><trkpt lat="44.78114664825255" lon="9.71323129521406"><ele>516.0</ele><time>2026-05-02T08:43:30.999Z</time></trkpt><trkpt lat="44.781074993544486" lon="9.713297289213909"><ele>518.4</ele><time>2026-05-02T08:43:31.999Z</time></trkpt><trkpt lat="44.78101068086155" lon="9.713389259537925"><ele>520.8</ele><time>2026-05-02T08:43:32.999Z</time></trkpt><trkpt lat="44.78094766365012" lon="9.713514537603704"><ele>523.1999999999999</ele><time>2026-05-02T08:43:33.999Z</time></trkpt><trkpt lat="44.780868197464045" lon="9.71363963756048"><ele>525.6</ele><time>2026-05-02T08:43:34.999Z</time></trkpt><trkpt lat="44.780764317457" lon="9.713720545247991"><ele>528.0</ele><time>2026-05-02T08:43:35.999Z</time></trkpt><trkpt lat="44.78064714940621" lon="9.7137590416034"><ele>528.0</ele><time>2026-05-02T08:43:36.999Z</time></trkpt><trkpt lat="44.780524689139774" lon="9.713807425462226"><ele>528.0</ele><time>2026-05-02T08:43:37.999Z</time></trkpt><trkpt lat="44.78040766797925" lon="9.713847736454346"><ele>528.0</ele><time>2026-05-02T08:43:38.999Z</time></trkpt><trkpt lat="44.78029391672431" lon="9.713886967977913"><ele>528.0</ele><time>2026-05-02T08:43:39.999Z</time></trkpt><trkpt lat="44.78018188199232" lon="9.713933354471147"><ele>531.5</ele><time>2026-05-02T08:43:40.999Z</time></trkpt><trkpt lat="44.78007773975391" lon="9.713999080544314"><ele>535.0</ele><time>2026-05-02T08:43:41.999Z</time></trkpt><trkpt lat="44.77998613910526" lon="9.714091759038746"><ele>538.5</ele><time>2026-05-02T08:43:42.999Z</time></trkpt><trkpt lat="44.77990587782758" lon="9.71421606217175"><ele>542.0</ele><time>2026-05-02T08:43:43.999Z</time></trkpt><trkpt lat="44.77985854951458" lon="9.714367152210395"><ele>542.1666666666666</ele><time>2026-05-02T08:43:44.999Z</time></trkpt><trkpt lat="44.77984295297281" lon="9.714521698263827"><ele>542.3333333333333</ele><time>2026-05-02T08:43:45.999Z</time></trkpt><trkpt lat="44.779862629850406" lon="9.714662163294207"><ele>542.5</ele><time>2026-05-02T08:43:46.999Z</time></trkpt><trkpt lat="44.77988786364649" lon="9.714781044751007"><ele>542.6666666666666</ele><time>2026-05-02T08:43:47.999Z</time></trkpt><trkpt lat="44.77989258385638" lon="9.714886595594766"><ele>542.8333333333334</ele><time>2026-05-02T08:43:48.999Z</time></trkpt><trkpt lat="44.779875490780725" lon="9.71497714293801"><ele>543.0</ele><time>2026-05-02T08:43:49.999Z</time></trkpt><trkpt lat="44.77982175677913" lon="9.715070299120043"><ele>543.0</ele><time>2026-05-02T08:43:51.999Z</time></trkpt><trkpt lat="44.779792891280216" lon="9.715204599315843"><ele>543.0</ele><time>2026-05-02T08:43:54.999Z</time></trkpt><trkpt lat="44.779799478227105" lon="9.71530599577056"><ele>543.0</ele><time>2026-05-02T08:43:55.999Z</time></trkpt><trkpt lat="44.779811586161095" lon="9.71541404867368"><ele>543.0</ele><time>2026-05-02T08:43:56.999Z</time></trkpt><trkpt lat="44.77982641745016" lon="9.715529314250318"><ele>543.0</ele><time>2026-05-02T08:43:57.999Z</time></trkpt><trkpt lat="44.77984194620921" lon="9.715661722723821"><ele>543.0</ele><time>2026-05-02T08:43:58.999Z</time></trkpt><trkpt lat="44.77985662972054" lon="9.715783186324806"><ele>543.1999999999999</ele><time>2026-05-02T08:43:59.999Z</time></trkpt><trkpt lat="44.77987178616229" lon="9.715896184037303"><ele>543.4</ele><time>2026-05-02T08:44:00.999Z</time></trkpt><trkpt lat="44.77988616207907" lon="9.715995878556475"><ele>543.5999999999999</ele><time>2026-05-02T08:44:01.999Z</time></trkpt><trkpt lat="44.779920308885934" lon="9.716162471192112"><ele>543.8</ele><time>2026-05-02T08:44:03.999Z</time></trkpt><trkpt lat="44.77997318413725" lon="9.716318321382278"><ele>544.0</ele><time>2026-05-02T08:44:06Z</time></trkpt><trkpt lat="44.78002792391615" lon="9.716444100518764"><ele>544.2</ele><time>2026-05-02T08:44:08Z</time></trkpt><trkpt lat="44.78007724195" lon="9.716542237470327"><ele>544.4</ele><time>2026-05-02T08:44:10Z</time></trkpt><trkpt lat="44.780142707473935" lon="9.716647072749266"><ele>544.6</ele><time>2026-05-02T08:44:12Z</time></trkpt><trkpt lat="44.780184893138895" lon="9.716715004592064"><ele>544.8</ele><time>2026-05-02T08:44:13Z</time></trkpt><trkpt lat="44.78025670672109" lon="9.71683747225135"><ele>545.0</ele><time>2026-05-02T08:44:15Z</time></trkpt><trkpt lat="44.780316415467716" lon="9.716961093861181"><ele>545.5</ele><time>2026-05-02T08:44:17Z</time></trkpt><trkpt lat="44.780367232016495" lon="9.717106421664695"><ele>546.0</ele><time>2026-05-02T08:44:19Z</time></trkpt><trkpt lat="44.78033011877261" lon="9.717244175644149"><ele>546.5</ele><time>2026-05-02T08:44:21Z</time></trkpt><trkpt lat="44.78027128166463" lon="9.717289787141139"><ele>547.0</ele><time>2026-05-02T08:44:22Z</time></trkpt><trkpt lat="44.780198992336594" lon="9.717318937593673"><ele>547.5</ele><time>2026-05-02T08:44:23Z</time></trkpt><trkpt lat="44.78013678125464" lon="9.71736499744005"><ele>548.0</ele><time>2026-05-02T08:44:24Z</time></trkpt><trkpt lat="44.78003946797502" lon="9.717452430430717"><ele>548.0</ele><time>2026-05-02T08:44:26Z</time></trkpt><trkpt lat="44.77993218310964" lon="9.71751984811417"><ele>548.0</ele><time>2026-05-02T08:44:28Z</time></trkpt><trkpt lat="44.77981695142466" lon="9.717575285101505"><ele>548.0</ele><time>2026-05-02T08:44:30Z</time></trkpt><trkpt lat="44.77975129881333" lon="9.717594070895672"><ele>548.0</ele><time>2026-05-02T08:44:31Z</time></trkpt><trkpt lat="44.779676895526975" lon="9.717593714200724"><ele>548.0</ele><time>2026-05-02T08:44:32Z</time></trkpt><trkpt lat="44.77959873255183" lon="9.717580388585032"><ele>548.0</ele><time>2026-05-02T08:44:33Z</time></trkpt><trkpt lat="44.779514755758036" lon="9.717559564910221"><ele>548.0</ele><time>2026-05-02T08:44:34Z</time></trkpt><trkpt lat="44.77942848699392" lon="9.717533921355765"><ele>548.0</ele><time>2026-05-02T08:44:35Z</time></trkpt><trkpt lat="44.779339424275484" lon="9.717505682359873"><ele>548.0</ele><time>2026-05-02T08:44:36Z</time></trkpt><trkpt lat="44.77924855974927" lon="9.717475652676248"><ele>548.0</ele><time>2026-05-02T08:44:37Z</time></trkpt><trkpt lat="44.77915841143086" lon="9.71745946379973"><ele>548.0</ele><time>2026-05-02T08:44:38Z</time></trkpt><trkpt lat="44.77906267454841" lon="9.717464869821077"><ele>549.6666666666666</ele><time>2026-05-02T08:44:39Z</time></trkpt><trkpt lat="44.77896441923201" lon="9.717475873690967"><ele>551.3333333333333</ele><time>2026-05-02T08:44:40Z</time></trkpt><trkpt lat="44.778873166220556" lon="9.717496849132232"><ele>553.0</ele><time>2026-05-02T08:44:41Z</time></trkpt><trkpt lat="44.77879468177251" lon="9.717518079522758"><ele>554.6666666666666</ele><time>2026-05-02T08:44:42Z</time></trkpt><trkpt lat="44.778714871478186" lon="9.717538056563535"><ele>556.3333333333334</ele><time>2026-05-02T08:44:43Z</time></trkpt><trkpt lat="44.7786357074485" lon="9.71755736357686"><ele>558.0</ele><time>2026-05-02T08:44:44Z</time></trkpt><trkpt lat="44.778565477971945" lon="9.717576102982658"><ele>560.3333333333334</ele><time>2026-05-02T08:44:45Z</time></trkpt><trkpt lat="44.778503145089644" lon="9.717598625977647"><ele>562.6666666666666</ele><time>2026-05-02T08:44:46Z</time></trkpt><trkpt lat="44.778431573144964" lon="9.717639786070569"><ele>565.0</ele><time>2026-05-02T08:44:48Z</time></trkpt><trkpt lat="44.77834872009879" lon="9.717640081674947"><ele>567.3333333333333</ele><time>2026-05-02T08:44:51Z</time></trkpt><trkpt lat="44.778238322880505" lon="9.717636246653374"><ele>569.6666666666666</ele><time>2026-05-02T08:44:53Z</time></trkpt><trkpt lat="44.77815436390209" lon="9.717652507343473"><ele>572.0</ele><time>2026-05-02T08:44:55Z</time></trkpt><trkpt lat="44.778078056534866" lon="9.71765602458227"><ele>572.0</ele><time>2026-05-02T08:44:57Z</time></trkpt><trkpt lat="44.77800668862483" lon="9.717681970733485"><ele>572.0</ele><time>2026-05-02T08:44:59Z</time></trkpt><trkpt lat="44.777945796269016" lon="9.717728542933157"><ele>572.0</ele><time>2026-05-02T08:45:01Z</time></trkpt><trkpt lat="44.777881966889815" lon="9.7178132532111"><ele>572.0</ele><time>2026-05-02T08:45:03Z</time></trkpt><trkpt lat="44.777830903553955" lon="9.717922140838722"><ele>572.0</ele><time>2026-05-02T08:45:04.999Z</time></trkpt><trkpt lat="44.7777906476684" lon="9.718061650732444"><ele>572.0</ele><time>2026-05-02T08:45:06.999Z</time></trkpt><trkpt lat="44.77774128525481" lon="9.71818938519053"><ele>575.2</ele><time>2026-05-02T08:45:08.999Z</time></trkpt><trkpt lat="44.777683584485516" lon="9.718272207038149"><ele>578.4000000000001</ele><time>2026-05-02T08:45:10.999Z</time></trkpt><trkpt lat="44.777586508579816" lon="9.718403873911136"><ele>581.5999999999999</ele><time>2026-05-02T08:45:12.999Z</time></trkpt><trkpt lat="44.77750379351188" lon="9.718480301700865"><ele>584.8</ele><time>2026-05-02T08:45:13.999Z</time></trkpt><trkpt lat="44.777436650272804" lon="9.71862363077887"><ele>588.0</ele><time>2026-05-02T08:45:15.999Z</time></trkpt><trkpt lat="44.777379905337654" lon="9.718688843903044"><ele>588.0</ele><time>2026-05-02T08:45:16.999Z</time></trkpt><trkpt lat="44.77730787023668" lon="9.71873552467811"><ele>588.0</ele><time>2026-05-02T08:45:17.999Z</time></trkpt><trkpt lat="44.77723708167323" lon="9.718779707817328"><ele>588.0</ele><time>2026-05-02T08:45:18.999Z</time></trkpt><trkpt lat="44.777163728649" lon="9.718839537581506"><ele>588.0</ele><time>2026-05-02T08:45:19.999Z</time></trkpt><trkpt lat="44.77708613690163" lon="9.718933987236186"><ele>588.0</ele><time>2026-05-02T08:45:20.999Z</time></trkpt><trkpt lat="44.77702628896392" lon="9.71900680766511"><ele>588.0</ele><time>2026-05-02T08:45:21.999Z</time></trkpt><trkpt lat="44.776957479658336" lon="9.719062476848684"><ele>588.0</ele><time>2026-05-02T08:45:22.999Z</time></trkpt><trkpt lat="44.77688469628128" lon="9.71910495902247"><ele>588.0</ele><time>2026-05-02T08:45:23.999Z</time></trkpt><trkpt lat="44.77682472837746" lon="9.71914782821148"><ele>588.0</ele><time>2026-05-02T08:45:24.999Z</time></trkpt><trkpt lat="44.77670749478692" lon="9.719210804874772"><ele>588.0</ele><time>2026-05-02T08:45:26.999Z</time></trkpt><trkpt lat="44.77664505294269" lon="9.719243139257001"><ele>588.0</ele><time>2026-05-02T08:45:27.999Z</time></trkpt><trkpt lat="44.77658010168691" lon="9.71929632929605"><ele>588.0</ele><time>2026-05-02T08:45:28.999Z</time></trkpt><trkpt lat="44.776527145044405" lon="9.719371647394004"><ele>591.8333333333334</ele><time>2026-05-02T08:45:29.999Z</time></trkpt><trkpt lat="44.776496507855555" lon="9.719450507497797"><ele>595.6666666666666</ele><time>2026-05-02T08:45:30.999Z</time></trkpt><trkpt lat="44.77644599340454" lon="9.719525604638047"><ele>599.5</ele><time>2026-05-02T08:45:31.999Z</time></trkpt><trkpt lat="44.77638044175222" lon="9.71957711410153"><ele>603.3333333333333</ele><time>2026-05-02T08:45:32.999Z</time></trkpt><trkpt lat="44.7762881907843" lon="9.719708339194165"><ele>607.1666666666666</ele><time>2026-05-02T08:45:34.999Z</time></trkpt><trkpt lat="44.776251371082026" lon="9.719795661208135"><ele>611.0</ele><time>2026-05-02T08:45:35.999Z</time></trkpt><trkpt lat="44.776195361392304" lon="9.719895211271858"><ele>611.0</ele><time>2026-05-02T08:45:36.999Z</time></trkpt><trkpt lat="44.77614929134311" lon="9.719981660864917"><ele>611.0</ele><time>2026-05-02T08:45:37.999Z</time></trkpt><trkpt lat="44.77609966124653" lon="9.720051234866963"><ele>611.0</ele><time>2026-05-02T08:45:38.999Z</time></trkpt><trkpt lat="44.776047826624975" lon="9.720115326630566"><ele>611.0</ele><time>2026-05-02T08:45:39.999Z</time></trkpt><trkpt lat="44.77596050649827" lon="9.720278788540224"><ele>611.0</ele><time>2026-05-02T08:45:41.999Z</time></trkpt><trkpt lat="44.775930880830295" lon="9.720369547965955"><ele>611.0</ele><time>2026-05-02T08:45:42.999Z</time></trkpt><trkpt lat="44.77588317522538" lon="9.72046667032179"><ele>614.6666666666666</ele><time>2026-05-02T08:45:43.999Z</time></trkpt><trkpt lat="44.775833215369914" lon="9.720545714435039"><ele>618.3333333333333</ele><time>2026-05-02T08:45:44.999Z</time></trkpt><trkpt lat="44.775773997383226" lon="9.720619606022275"><ele>622.0</ele><time>2026-05-02T08:45:45.999Z</time></trkpt><trkpt lat="44.77571257819216" lon="9.720688437216891"><ele>625.6666666666666</ele><time>2026-05-02T08:45:46.999Z</time></trkpt><trkpt lat="44.77565526259943" lon="9.720772017346142"><ele>629.3333333333334</ele><time>2026-05-02T08:45:47.999Z</time></trkpt><trkpt lat="44.77560968590632" lon="9.720854057109898"><ele>633.0</ele><time>2026-05-02T08:45:48.999Z</time></trkpt><trkpt lat="44.77557194481531" lon="9.720944960556768"><ele>633.0</ele><time>2026-05-02T08:45:49.999Z</time></trkpt><trkpt lat="44.775543207307436" lon="9.721027121888"><ele>633.0</ele><time>2026-05-02T08:45:50.999Z</time></trkpt><trkpt lat="44.77549007363102" lon="9.7211651282424"><ele>633.0</ele><time>2026-05-02T08:45:52.999Z</time></trkpt><trkpt lat="44.775413028062744" lon="9.721306346502065"><ele>633.0</ele><time>2026-05-02T08:45:54.999Z</time></trkpt><trkpt lat="44.77536609012548" lon="9.72138232621896"><ele>633.0</ele><time>2026-05-02T08:45:55.999Z</time></trkpt><trkpt lat="44.77531039207878" lon="9.721459536466801"><ele>634.0</ele><time>2026-05-02T08:45:56.999Z</time></trkpt><trkpt lat="44.77524598595665" lon="9.721513032331812"><ele>635.0</ele><time>2026-05-02T08:45:57.999Z</time></trkpt><trkpt lat="44.77512571133239" lon="9.721567176719638"><ele>636.0</ele><time>2026-05-02T08:45:59.999Z</time></trkpt><trkpt lat="44.775034711934154" lon="9.721596962750384"><ele>637.0</ele><time>2026-05-02T08:46:01.999Z</time></trkpt><trkpt lat="44.77496671575657" lon="9.721590921727138"><ele>638.0</ele><time>2026-05-02T08:46:02.999Z</time></trkpt><trkpt lat="44.774887070584256" lon="9.72153859620784"><ele>638.0</ele><time>2026-05-02T08:46:03.999Z</time></trkpt><trkpt lat="44.77482867393818" lon="9.721478737177799"><ele>638.0</ele><time>2026-05-02T08:46:04.999Z</time></trkpt><trkpt lat="44.77478080067144" lon="9.721420298064356"><ele>638.0</ele><time>2026-05-02T08:46:05.999Z</time></trkpt><trkpt lat="44.77472951552586" lon="9.72136799897601"><ele>638.0</ele><time>2026-05-02T08:46:06.999Z</time></trkpt><trkpt lat="44.77462287800348" lon="9.721335884610898"><ele>638.0</ele><time>2026-05-02T08:46:08.999Z</time></trkpt><trkpt lat="44.77454262233862" lon="9.721348002281037"><ele>638.0</ele><time>2026-05-02T08:46:09.999Z</time></trkpt><trkpt lat="44.77445111159574" lon="9.721350502288967"><ele>638.0</ele><time>2026-05-02T08:46:11Z</time></trkpt><trkpt lat="44.77437562982447" lon="9.721388066848686"><ele>638.0</ele><time>2026-05-02T08:46:12Z</time></trkpt><trkpt lat="44.774299055896115" lon="9.721424383467745"><ele>638.0</ele><time>2026-05-02T08:46:13Z</time></trkpt><trkpt lat="44.77421088440597" lon="9.72146645524741"><ele>638.0</ele><time>2026-05-02T08:46:14Z</time></trkpt><trkpt lat="44.77414810856343" lon="9.72147813854052"><ele>638.0</ele><time>2026-05-02T08:46:15Z</time></trkpt><trkpt lat="44.77403636668789" lon="9.721484950304308"><ele>638.0</ele><time>2026-05-02T08:46:16Z</time></trkpt><trkpt lat="44.773908011823636" lon="9.721488678952092"><ele>639.4</ele><time>2026-05-02T08:46:17Z</time></trkpt><trkpt lat="44.773816845635466" lon="9.721470272476106"><ele>640.8</ele><time>2026-05-02T08:46:18Z</time></trkpt><trkpt lat="44.773723092035304" lon="9.721478788698619"><ele>642.2</ele><time>2026-05-02T08:46:19Z</time></trkpt><trkpt lat="44.773639191667094" lon="9.721523533295864"><ele>643.6</ele><time>2026-05-02T08:46:21Z</time></trkpt><trkpt lat="44.77357619565083" lon="9.721630078885925"><ele>645.0</ele><time>2026-05-02T08:46:23Z</time></trkpt><trkpt lat="44.77348328324575" lon="9.72175736217358"><ele>647.8</ele><time>2026-05-02T08:46:26Z</time></trkpt><trkpt lat="44.773404720437156" lon="9.72187565588828"><ele>650.6</ele><time>2026-05-02T08:46:28Z</time></trkpt><trkpt lat="44.77331710871217" lon="9.721951613030537"><ele>653.4000000000001</ele><time>2026-05-02T08:46:30Z</time></trkpt><trkpt lat="44.773197990065896" lon="9.721935539946886"><ele>656.2</ele><time>2026-05-02T08:46:32Z</time></trkpt><trkpt lat="44.77310602913265" lon="9.721924375729964"><ele>659.0</ele><time>2026-05-02T08:46:33Z</time></trkpt><trkpt lat="44.773029500119044" lon="9.721918574816016"><ele>659.0</ele><time>2026-05-02T08:46:34Z</time></trkpt><trkpt lat="44.77294402461703" lon="9.721896277010638"><ele>659.0</ele><time>2026-05-02T08:46:35Z</time></trkpt><trkpt lat="44.77286118536585" lon="9.721865830541585"><ele>659.0</ele><time>2026-05-02T08:46:36Z</time></trkpt><trkpt lat="44.772781863761665" lon="9.721825905060863"><ele>659.0</ele><time>2026-05-02T08:46:37Z</time></trkpt><trkpt lat="44.772694585740844" lon="9.721810238709486"><ele>659.0</ele><time>2026-05-02T08:46:38Z</time></trkpt><trkpt lat="44.77263059059647" lon="9.721843877692555"><ele>659.0</ele><time>2026-05-02T08:46:39Z</time></trkpt><trkpt lat="44.772569604454546" lon="9.721902594981742"><ele>663.6</ele><time>2026-05-02T08:46:41Z</time></trkpt><trkpt lat="44.772515169187585" lon="9.721993623909032"><ele>668.2</ele><time>2026-05-02T08:46:48Z</time></trkpt><trkpt lat="44.772460950893134" lon="9.722049611304618"><ele>672.8000000000001</ele><time>2026-05-02T08:46:55Z</time></trkpt><trkpt lat="44.77236588265216" lon="9.72206783386847"><ele>677.4000000000001</ele><time>2026-05-02T08:47:53.999Z</time></trkpt><trkpt lat="44.77228689355334" lon="9.722152264885649"><ele>682.0</ele><time>2026-05-02T08:55:42.999Z</time></trkpt><trkpt lat="44.7721849998272" lon="9.722172981153138"><ele>682.0</ele><time>2026-05-02T08:55:44.999Z</time></trkpt><trkpt lat="44.772064715276" lon="9.722107032371568"><ele>682.0</ele><time>2026-05-02T08:55:46.999Z</time></trkpt><trkpt lat="44.771985429703136" lon="9.722100646169714"><ele>682.0</ele><time>2026-05-02T08:55:48.999Z</time></trkpt><trkpt lat="44.77197384127103" lon="9.722203783213933"><ele>682.0</ele><time>2026-05-02T08:55:50.999Z</time></trkpt><trkpt lat="44.771981954425044" lon="9.722294859899296"><ele>682.0</ele><time>2026-05-02T08:55:51.999Z</time></trkpt><trkpt lat="44.772039439564075" lon="9.722425503968802"><ele>682.0</ele><time>2026-05-02T08:55:53.999Z</time></trkpt><trkpt lat="44.7721305320798" lon="9.722547338883972"><ele>682.0</ele><time>2026-05-02T08:55:55.999Z</time></trkpt><trkpt lat="44.772203474318246" lon="9.722642227096157"><ele>682.0</ele><time>2026-05-02T08:55:57.999Z</time></trkpt><trkpt lat="44.77229409359704" lon="9.722708450495654"><ele>682.0</ele><time>2026-05-02T08:55:58.999Z</time></trkpt><trkpt lat="44.77238134476494" lon="9.72278403808437"><ele>682.0</ele><time>2026-05-02T08:55:59.999Z</time></trkpt><trkpt lat="44.77243042599118" lon="9.722880485771201"><ele>684.0</ele><time>2026-05-02T08:56:01.999Z</time></trkpt><trkpt lat="44.772416111521295" lon="9.723033829104894"><ele>686.0</ele><time>2026-05-02T08:56:03.999Z</time></trkpt><trkpt lat="44.77239165965033" lon="9.723146494844162"><ele>688.0</ele><time>2026-05-02T08:56:04.999Z</time></trkpt><trkpt lat="44.772370808322776" lon="9.723246253646227"><ele>690.0</ele><time>2026-05-02T08:56:05.999Z</time></trkpt><trkpt lat="44.7722986983851" lon="9.723298103508784"><ele>692.0</ele><time>2026-05-02T08:56:07.999Z</time></trkpt><trkpt lat="44.77222764378443" lon="9.723293886992037"><ele>694.0</ele><time>2026-05-02T08:56:08.999Z</time></trkpt><trkpt lat="44.772187992059166" lon="9.723209180541074"><ele>694.0</ele><time>2026-05-02T08:56:10.999Z</time></trkpt><trkpt lat="44.77212564918175" lon="9.72307107544311"><ele>694.0</ele><time>2026-05-02T08:56:12.999Z</time></trkpt><trkpt lat="44.77205706330397" lon="9.723036779077233"><ele>694.0</ele><time>2026-05-02T08:56:13.999Z</time></trkpt><trkpt lat="44.771965070641876" lon="9.72300829954718"><ele>694.0</ele><time>2026-05-02T08:56:14.999Z</time></trkpt><trkpt lat="44.77184107633443" lon="9.72303336771963"><ele>694.0</ele><time>2026-05-02T08:56:16.999Z</time></trkpt><trkpt lat="44.771779154142294" lon="9.723094315141639"><ele>697.3333333333334</ele><time>2026-05-02T08:56:17.999Z</time></trkpt><trkpt lat="44.77165885451034" lon="9.723086397848983"><ele>700.6666666666667</ele><time>2026-05-02T08:56:19.999Z</time></trkpt><trkpt lat="44.77158801079748" lon="9.723104434033814"><ele>704.0</ele><time>2026-05-02T08:56:20.999Z</time></trkpt><trkpt lat="44.771510037658956" lon="9.723142863440458"><ele>707.3333333333334</ele><time>2026-05-02T08:56:21.999Z</time></trkpt><trkpt lat="44.77145308797287" lon="9.723182638882776"><ele>710.6666666666666</ele><time>2026-05-02T08:56:23.999Z</time></trkpt><trkpt lat="44.77135889623039" lon="9.723130348185801"><ele>714.0</ele><time>2026-05-02T08:56:25.999Z</time></trkpt><trkpt lat="44.77128762574487" lon="9.723078573529259"><ele>714.0</ele><time>2026-05-02T08:56:26.999Z</time></trkpt><trkpt lat="44.771214763495145" lon="9.722974815783306"><ele>714.0</ele><time>2026-05-02T08:56:27.999Z</time></trkpt><trkpt lat="44.771149797273736" lon="9.722882401257966"><ele>714.0</ele><time>2026-05-02T08:56:28.999Z</time></trkpt><trkpt lat="44.77108238011899" lon="9.722763436622373"><ele>714.0</ele><time>2026-05-02T08:56:29.999Z</time></trkpt><trkpt lat="44.77103609853357" lon="9.722678644717464"><ele>714.0</ele><time>2026-05-02T08:56:30.999Z</time></trkpt><trkpt lat="44.77093978649745" lon="9.722585770020089"><ele>715.2</ele><time>2026-05-02T08:56:32.999Z</time></trkpt><trkpt lat="44.770833686877374" lon="9.722551724111192"><ele>716.4000000000001</ele><time>2026-05-02T08:56:34.999Z</time></trkpt><trkpt lat="44.77073141069904" lon="9.722587367738639"><ele>717.6</ele><time>2026-05-02T08:56:36.999Z</time></trkpt><trkpt lat="44.77066480321339" lon="9.722605486154286"><ele>718.8</ele><time>2026-05-02T08:56:37.999Z</time></trkpt><trkpt lat="44.7706072110975" lon="9.722727923678546"><ele>720.0</ele><time>2026-05-02T08:56:39.999Z</time></trkpt><trkpt lat="44.770616597757126" lon="9.722849272979136"><ele>724.2</ele><time>2026-05-02T08:56:42Z</time></trkpt><trkpt lat="44.770571890266424" lon="9.722937959179493"><ele>728.4</ele><time>2026-05-02T08:56:44Z</time></trkpt><trkpt lat="44.770529612949645" lon="9.72302918117379"><ele>732.5999999999999</ele><time>2026-05-02T08:56:46Z</time></trkpt><trkpt lat="44.770460920548565" lon="9.723081555597089"><ele>736.8</ele><time>2026-05-02T08:56:48Z</time></trkpt><trkpt lat="44.77034722203408" lon="9.723118760564079"><ele>741.0</ele><time>2026-05-02T08:56:50Z</time></trkpt><trkpt lat="44.77023346639703" lon="9.723141558020105"><ele>742.5</ele><time>2026-05-02T08:56:52Z</time></trkpt><trkpt lat="44.77017030524345" lon="9.723177956662413"><ele>744.0</ele><time>2026-05-02T08:56:53Z</time></trkpt><trkpt lat="44.770110382907085" lon="9.7232238646977"><ele>745.5</ele><time>2026-05-02T08:56:54Z</time></trkpt><trkpt lat="44.770028238028395" lon="9.723265072121078"><ele>747.0</ele><time>2026-05-02T08:56:55Z</time></trkpt><trkpt lat="44.76994580981603" lon="9.723294041979331"><ele>748.5</ele><time>2026-05-02T08:56:56Z</time></trkpt><trkpt lat="44.76987163904936" lon="9.723314568865849"><ele>750.0</ele><time>2026-05-02T08:56:57Z</time></trkpt><trkpt lat="44.76980402901981" lon="9.723329030336103"><ele>750.0</ele><time>2026-05-02T08:56:58Z</time></trkpt><trkpt lat="44.76973399462744" lon="9.72334215312138"><ele>750.0</ele><time>2026-05-02T08:56:59Z</time></trkpt><trkpt lat="44.76966341004456" lon="9.723367159771774"><ele>750.0</ele><time>2026-05-02T08:57:00Z</time></trkpt><trkpt lat="44.769593793966465" lon="9.723390099976408"><ele>750.0</ele><time>2026-05-02T08:57:01Z</time></trkpt><trkpt lat="44.76952850744547" lon="9.723394614335064"><ele>750.0</ele><time>2026-05-02T08:57:02Z</time></trkpt><trkpt lat="44.769421245999396" lon="9.723405055114544"><ele>750.0</ele><time>2026-05-02T08:57:04Z</time></trkpt><trkpt lat="44.76937208322321" lon="9.723501984878562"><ele>752.6666666666666</ele><time>2026-05-02T08:57:06Z</time></trkpt><trkpt lat="44.76929965224426" lon="9.723571411062373"><ele>755.3333333333334</ele><time>2026-05-02T08:57:09Z</time></trkpt><trkpt lat="44.76923265081681" lon="9.72357561518679"><ele>758.0</ele><time>2026-05-02T08:57:11Z</time></trkpt><trkpt lat="44.76915782547245" lon="9.723546345604476"><ele>760.6666666666667</ele><time>2026-05-02T08:57:13Z</time></trkpt><trkpt lat="44.769045964815284" lon="9.72359946586863"><ele>763.3333333333334</ele><time>2026-05-02T08:57:16Z</time></trkpt><trkpt lat="44.768982997127594" lon="9.723598237013288"><ele>766.0</ele><time>2026-05-02T08:57:17Z</time></trkpt><trkpt lat="44.768915944464894" lon="9.723581289326491"><ele>766.0</ele><time>2026-05-02T08:57:18Z</time></trkpt><trkpt lat="44.76885176359879" lon="9.723567000302676"><ele>766.0</ele><time>2026-05-02T08:57:19Z</time></trkpt><trkpt lat="44.76878903498973" lon="9.723556228522913"><ele>766.0</ele><time>2026-05-02T08:57:20Z</time></trkpt><trkpt lat="44.76872067029016" lon="9.72355451495402"><ele>766.0</ele><time>2026-05-02T08:57:21Z</time></trkpt><trkpt lat="44.76863955763863" lon="9.723576741021535"><ele>766.0</ele><time>2026-05-02T08:57:23Z</time></trkpt><trkpt lat="44.76858303615511" lon="9.723648233538043"><ele>766.0</ele><time>2026-05-02T08:57:25Z</time></trkpt><trkpt lat="44.768547117140685" lon="9.723762193416976"><ele>766.0</ele><time>2026-05-02T08:57:27Z</time></trkpt><trkpt lat="44.76849263718406" lon="9.723807546303707"><ele>769.0</ele><time>2026-05-02T08:57:29Z</time></trkpt><trkpt lat="44.768513782869874" lon="9.723900576583002"><ele>772.0</ele><time>2026-05-02T08:57:33.999Z</time></trkpt><trkpt lat="44.7685914971979" lon="9.723949242592541"><ele>775.0</ele><time>2026-05-02T08:57:36.999Z</time></trkpt><trkpt lat="44.76864978090105" lon="9.72407801590297"><ele>778.0</ele><time>2026-05-02T08:57:37.999Z</time></trkpt><trkpt lat="44.76872723445957" lon="9.724127976636119"><ele>780.9999999999999</ele><time>2026-05-02T08:57:39.999Z</time></trkpt><trkpt lat="44.768792959948975" lon="9.724183688514703"><ele>784.0</ele><time>2026-05-02T08:57:42.999Z</time></trkpt><trkpt lat="44.76883042686231" lon="9.724258315986303"><ele>783.9999999999999</ele><time>2026-05-02T08:57:44.999Z</time></trkpt><trkpt lat="44.76885867799008" lon="9.724344865196533"><ele>784.0</ele><time>2026-05-02T08:57:54.999Z</time></trkpt><trkpt lat="44.768799620814534" lon="9.72440745888569"><ele>784.0</ele><time>2026-05-02T08:57:56.999Z</time></trkpt><trkpt lat="44.76869568420491" lon="9.724477630613954"><ele>784.0</ele><time>2026-05-02T08:57:58.999Z</time></trkpt><trkpt lat="44.76863108211022" lon="9.724549910287507"><ele>783.9999999999999</ele><time>2026-05-02T08:58:00.999Z</time></trkpt><trkpt lat="44.76857207906995" lon="9.724588412662575"><ele>784.0</ele><time>2026-05-02T08:58:01.999Z</time></trkpt><trkpt lat="44.768488757561684" lon="9.724687414531935"><ele>788.6</ele><time>2026-05-02T08:58:03.999Z</time></trkpt><trkpt lat="44.76841114932116" lon="9.724832750196164"><ele>793.2</ele><time>2026-05-02T08:58:05.999Z</time></trkpt><trkpt lat="44.76835108405888" lon="9.724929976380466"><ele>797.8000000000001</ele><time>2026-05-02T08:58:07.999Z</time></trkpt><trkpt lat="44.7683254479191" lon="9.725075822205936"><ele>802.4000000000001</ele><time>2026-05-02T08:58:09.999Z</time></trkpt><trkpt lat="44.76824522502969" lon="9.725167593392857"><ele>807.0</ele><time>2026-05-02T08:58:11.999Z</time></trkpt><trkpt lat="44.76815258629073" lon="9.725210224988396"><ele>809.8333333333334</ele><time>2026-05-02T08:58:13.999Z</time></trkpt><trkpt lat="44.76806913398801" lon="9.725243323256818"><ele>812.6666666666667</ele><time>2026-05-02T08:58:15.999Z</time></trkpt><trkpt lat="44.768013221383185" lon="9.725297537128952"><ele>815.5</ele><time>2026-05-02T08:58:17.999Z</time></trkpt><trkpt lat="44.76793318000825" lon="9.725409687783294"><ele>818.3333333333334</ele><time>2026-05-02T08:58:19.999Z</time></trkpt><trkpt lat="44.76786830753569" lon="9.72550925229489"><ele>821.1666666666667</ele><time>2026-05-02T08:58:21.999Z</time></trkpt><trkpt lat="44.76782588473408" lon="9.725590102610806"><ele>824.0</ele><time>2026-05-02T08:58:22.999Z</time></trkpt><trkpt lat="44.767773004767214" lon="9.725679337431936"><ele>824.0</ele><time>2026-05-02T08:58:23.999Z</time></trkpt><trkpt lat="44.76771947402258" lon="9.72574724827355"><ele>824.0</ele><time>2026-05-02T08:58:24.999Z</time></trkpt><trkpt lat="44.76766062057934" lon="9.725831287365539"><ele>824.0</ele><time>2026-05-02T08:58:26.999Z</time></trkpt><trkpt lat="44.76760019999646" lon="9.725954508255873"><ele>824.0</ele><time>2026-05-02T08:58:29.999Z</time></trkpt><trkpt lat="44.76755501171443" lon="9.72614758264206"><ele>824.0</ele><time>2026-05-02T08:58:31.999Z</time></trkpt><trkpt lat="44.76751163453946" lon="9.72623458900133"><ele>824.4000000000001</ele><time>2026-05-02T08:58:32.999Z</time></trkpt><trkpt lat="44.7674143690822" lon="9.726347955063913"><ele>824.8</ele><time>2026-05-02T08:58:34.998Z</time></trkpt><trkpt lat="44.76734565752239" lon="9.726377251696906"><ele>825.2</ele><time>2026-05-02T08:58:35.998Z</time></trkpt><trkpt lat="44.76728662574159" lon="9.726493945265611"><ele>825.5999999999999</ele><time>2026-05-02T08:58:37.998Z</time></trkpt><trkpt lat="44.76720953969733" lon="9.726607340158015"><ele>826.0</ele><time>2026-05-02T08:58:39.998Z</time></trkpt><trkpt lat="44.76714955968741" lon="9.726710138544503"><ele>826.0</ele><time>2026-05-02T08:58:41.998Z</time></trkpt><trkpt lat="44.767106637787734" lon="9.726789815523766"><ele>826.0</ele><time>2026-05-02T08:58:43.998Z</time></trkpt><trkpt lat="44.76704155169055" lon="9.726817416525703"><ele>826.0</ele><time>2026-05-02T08:58:48Z</time></trkpt><trkpt lat="44.76696803900621" lon="9.726798695815644"><ele>826.0</ele><time>2026-05-02T08:58:50Z</time></trkpt><trkpt lat="44.76690975473184" lon="9.726765146813566"><ele>826.0</ele><time>2026-05-02T08:58:52Z</time></trkpt><trkpt lat="44.766844727388644" lon="9.726724647657628"><ele>826.0</ele><time>2026-05-02T08:58:54Z</time></trkpt><trkpt lat="44.76677471682765" lon="9.726780181472686"><ele>826.0</ele><time>2026-05-02T08:59:01Z</time></trkpt><trkpt lat="44.76670592647515" lon="9.726831897576616"><ele>825.1666666666666</ele><time>2026-05-02T08:59:04Z</time></trkpt><trkpt lat="44.76664754635812" lon="9.726867381840348"><ele>824.3333333333333</ele><time>2026-05-02T08:59:05Z</time></trkpt><trkpt lat="44.76655522104338" lon="9.726887205233743"><ele>823.5</ele><time>2026-05-02T08:59:06Z</time></trkpt><trkpt lat="44.766479989139874" lon="9.726926505025565"><ele>822.6666666666667</ele><time>2026-05-02T08:59:07Z</time></trkpt><trkpt lat="44.76641132433427" lon="9.726964167068767"><ele>821.8333333333334</ele><time>2026-05-02T08:59:08Z</time></trkpt><trkpt lat="44.76635174924581" lon="9.726999771807828"><ele>821.0</ele><time>2026-05-02T08:59:09Z</time></trkpt><trkpt lat="44.76626635659485" lon="9.727100879657469"><ele>821.0000000000001</ele><time>2026-05-02T08:59:11Z</time></trkpt><trkpt lat="44.76619845703782" lon="9.727168420719241"><ele>821.0</ele><time>2026-05-02T08:59:12Z</time></trkpt><trkpt lat="44.7661277027149" lon="9.727216261624775"><ele>821.0</ele><time>2026-05-02T08:59:13Z</time></trkpt><trkpt lat="44.76603248341978" lon="9.727271129290324"><ele>821.0</ele><time>2026-05-02T08:59:15Z</time></trkpt><trkpt lat="44.76596985469821" lon="9.727338402760376"><ele>821.0000000000001</ele><time>2026-05-02T08:59:17Z</time></trkpt><trkpt lat="44.7659288623961" lon="9.727419929256618"><ele>821.0</ele><time>2026-05-02T08:59:21Z</time></trkpt><trkpt lat="44.76586985350158" lon="9.727477687849262"><ele>820.5000000000001</ele><time>2026-05-02T08:59:24Z</time></trkpt><trkpt lat="44.76580351218072" lon="9.727486899904237"><ele>820.0</ele><time>2026-05-02T08:59:27Z</time></trkpt><trkpt lat="44.76572210775248" lon="9.727498610699634"><ele>819.5</ele><time>2026-05-02T08:59:29Z</time></trkpt><trkpt lat="44.765591481904266" lon="9.727489415207021"><ele>819.0</ele><time>2026-05-02T08:59:32.999Z</time></trkpt><trkpt lat="44.76551887190215" lon="9.727497286647203"><ele>818.5000000000001</ele><time>2026-05-02T08:59:34.999Z</time></trkpt><trkpt lat="44.76545604938751" lon="9.727516867170895"><ele>818.0</ele><time>2026-05-02T08:59:38.999Z</time></trkpt><trkpt lat="44.765360213633535" lon="9.727498089605119"><ele>818.0000000000001</ele><time>2026-05-02T08:59:42.999Z</time></trkpt><trkpt lat="44.765288920494214" lon="9.727455337405367"><ele>818.0</ele><time>2026-05-02T08:59:44.999Z</time></trkpt><trkpt lat="44.7652414536299" lon="9.727380719673889"><ele>818.0</ele><time>2026-05-02T08:59:47.999Z</time></trkpt><trkpt lat="44.76517269772511" lon="9.727263530753007"><ele>818.0</ele><time>2026-05-02T08:59:50.999Z</time></trkpt><trkpt lat="44.76512703870925" lon="9.727157469386011"><ele>818.0000000000001</ele><time>2026-05-02T08:59:52.999Z</time></trkpt><trkpt lat="44.76508816603391" lon="9.727076019036124"><ele>818.0</ele><time>2026-05-02T08:59:54.999Z</time></trkpt><trkpt lat="44.76506474132344" lon="9.726945715118969"><ele>816.6666666666667</ele><time>2026-05-02T08:59:57.999Z</time></trkpt><trkpt lat="44.76504915463937" lon="9.72680843987845"><ele>815.3333333333334</ele><time>2026-05-02T08:59:59.999Z</time></trkpt><trkpt lat="44.765054676584036" lon="9.726715152392716"><ele>814.0</ele><time>2026-05-02T09:00:00.999Z</time></trkpt><trkpt lat="44.76505671324006" lon="9.726613754777423"><ele>812.6666666666667</ele><time>2026-05-02T09:00:01.999Z</time></trkpt><trkpt lat="44.765082112674165" lon="9.7264817297867"><ele>811.3333333333334</ele><time>2026-05-02T09:00:02.999Z</time></trkpt><trkpt lat="44.76509325874112" lon="9.726386485133645"><ele>810.0</ele><time>2026-05-02T09:00:03.999Z</time></trkpt><trkpt lat="44.765083460252775" lon="9.726297222982701"><ele>810.0</ele><time>2026-05-02T09:00:04.999Z</time></trkpt><trkpt lat="44.76509129725847" lon="9.72614594674151"><ele>810.0</ele><time>2026-05-02T09:00:06.999Z</time></trkpt><trkpt lat="44.76509302512598" lon="9.725984361553184"><ele>810.0</ele><time>2026-05-02T09:00:08.999Z</time></trkpt><trkpt lat="44.76512709969744" lon="9.725896427819213"><ele>810.0</ele><time>2026-05-02T09:00:09.999Z</time></trkpt><trkpt lat="44.76513172354718" lon="9.725791554174426"><ele>810.0</ele><time>2026-05-02T09:00:11.999Z</time></trkpt><trkpt lat="44.76506625858838" lon="9.725754284334386"><ele>810.0</ele><time>2026-05-02T09:00:13.999Z</time></trkpt><trkpt lat="44.76501171928633" lon="9.725625921930735"><ele>810.5</ele><time>2026-05-02T09:00:15.999Z</time></trkpt><trkpt lat="44.76499182676571" lon="9.725523943053963"><ele>811.0</ele><time>2026-05-02T09:00:17.999Z</time></trkpt><trkpt lat="44.7650098835383" lon="9.725398263476206"><ele>811.5</ele><time>2026-05-02T09:00:19.999Z</time></trkpt><trkpt lat="44.76497512238384" lon="9.725304984304906"><ele>812.0</ele><time>2026-05-02T09:00:22.999Z</time></trkpt><trkpt lat="44.76489201654143" lon="9.725278900417036"><ele>812.5</ele><time>2026-05-02T09:00:24.999Z</time></trkpt><trkpt lat="44.76480720076701" lon="9.725256039355086"><ele>813.0</ele><time>2026-05-02T09:00:26.999Z</time></trkpt><trkpt lat="44.764739187871854" lon="9.725201974097438"><ele>814.3333333333334</ele><time>2026-05-02T09:00:28.999Z</time></trkpt><trkpt lat="44.764679988464124" lon="9.725110466568497"><ele>815.6666666666667</ele><time>2026-05-02T09:00:30.999Z</time></trkpt><trkpt lat="44.76464334291899" lon="9.725033233739397"><ele>817.0</ele><time>2026-05-02T09:00:32.999Z</time></trkpt><trkpt lat="44.76461726392594" lon="9.724944828181618"><ele>818.3333333333334</ele><time>2026-05-02T09:00:34.998Z</time></trkpt><trkpt lat="44.76458121144873" lon="9.724826154956627"><ele>819.6666666666667</ele><time>2026-05-02T09:02:02.999Z</time></trkpt><trkpt lat="44.764518093503945" lon="9.724764739721714"><ele>821.0</ele><time>2026-05-02T09:02:08.999Z</time></trkpt><trkpt lat="44.764448610501326" lon="9.724678611360446"><ele>821.0000000000001</ele><time>2026-05-02T09:02:15.999Z</time></trkpt><trkpt lat="44.764404493158814" lon="9.7246085353993"><ele>821.0</ele><time>2026-05-02T09:02:17.999Z</time></trkpt><trkpt lat="44.764357868192434" lon="9.724528619670929"><ele>821.0</ele><time>2026-05-02T09:02:19.999Z</time></trkpt><trkpt lat="44.76431186463646" lon="9.72443078977166"><ele>821.0</ele><time>2026-05-02T09:02:21.999Z</time></trkpt><trkpt lat="44.76423368698334" lon="9.724324379726085"><ele>821.0000000000001</ele><time>2026-05-02T09:02:23.999Z</time></trkpt><trkpt lat="44.76420557972545" lon="9.724220632882218"><ele>821.0</ele><time>2026-05-02T09:02:25.999Z</time></trkpt><trkpt lat="44.764159754054624" lon="9.724056493618702"><ele>825.8333333333334</ele><time>2026-05-02T09:03:02Z</time></trkpt><trkpt lat="44.764125831053875" lon="9.723964121451093"><ele>830.6666666666667</ele><time>2026-05-02T09:03:04Z</time></trkpt><trkpt lat="44.7641897428845" lon="9.723851873284461"><ele>835.5</ele><time>2026-05-02T09:03:09Z</time></trkpt><trkpt lat="44.764231207148036" lon="9.723741213534785"><ele>840.3333333333333</ele><time>2026-05-02T09:03:11Z</time></trkpt><trkpt lat="44.76425837476646" lon="9.723656687721137"><ele>845.1666666666666</ele><time>2026-05-02T09:03:12Z</time></trkpt><trkpt lat="44.76430204259925" lon="9.723577912583945"><ele>850.0</ele><time>2026-05-02T09:03:13Z</time></trkpt><trkpt lat="44.764361528175904" lon="9.723465678501784"><ele>848.25</ele><time>2026-05-02T09:03:15Z</time></trkpt><trkpt lat="44.76445316105837" lon="9.72339780310327"><ele>846.5</ele><time>2026-05-02T09:03:17Z</time></trkpt><trkpt lat="44.76453538535091" lon="9.723304363169909"><ele>844.75</ele><time>2026-05-02T09:03:19Z</time></trkpt><trkpt lat="44.76459295271212" lon="9.72314539061436"><ele>843.0</ele><time>2026-05-02T09:03:21Z</time></trkpt><trkpt lat="44.764681481952515" lon="9.723042658030405"><ele>843.0</ele><time>2026-05-02T09:03:23Z</time></trkpt><trkpt lat="44.76475120991744" lon="9.722946222501946"><ele>843.0</ele><time>2026-05-02T09:03:25Z</time></trkpt><trkpt lat="44.76479449710133" lon="9.72286554492381"><ele>843.0</ele><time>2026-05-02T09:03:28Z</time></trkpt><trkpt lat="44.76485559792097" lon="9.722805497263145"><ele>843.0</ele><time>2026-05-02T09:03:31Z</time></trkpt><trkpt lat="44.76493281142625" lon="9.722764704763424"><ele>843.0</ele><time>2026-05-02T09:03:33Z</time></trkpt><trkpt lat="44.76503842279771" lon="9.72271734156639"><ele>843.0</ele><time>2026-05-02T09:03:35Z</time></trkpt><trkpt lat="44.76513002671199" lon="9.722647916725569"><ele>842.8571428571429</ele><time>2026-05-02T09:03:37Z</time></trkpt><trkpt lat="44.76519401589542" lon="9.722632230052723"><ele>842.7142857142857</ele><time>2026-05-02T09:03:38Z</time></trkpt><trkpt lat="44.76525982579968" lon="9.722630868065336"><ele>842.5714285714287</ele><time>2026-05-02T09:03:39Z</time></trkpt><trkpt lat="44.76533321336366" lon="9.722640862215192"><ele>842.4285714285714</ele><time>2026-05-02T09:03:40Z</time></trkpt><trkpt lat="44.765362858495536" lon="9.72254994823207"><ele>842.2857142857143</ele><time>2026-05-02T09:03:53.999Z</time></trkpt><trkpt lat="44.76538449536862" lon="9.722456534039395"><ele>842.1428571428572</ele><time>2026-05-02T09:04:03.999Z</time></trkpt><trkpt lat="44.7654015190497" lon="9.722358107558131"><ele>842.0</ele><time>2026-05-02T09:04:05.999Z</time></trkpt><trkpt lat="44.765366476456045" lon="9.72228346015089"><ele>842.0000000000001</ele><time>2026-05-02T09:04:08.999Z</time></trkpt><trkpt lat="44.76534999367053" lon="9.722156909554798"><ele>842.0</ele><time>2026-05-02T09:04:11.999Z</time></trkpt><trkpt lat="44.76536437219613" lon="9.722065415395964"><ele>842.0</ele><time>2026-05-02T09:04:13.999Z</time></trkpt><trkpt lat="44.76538248343688" lon="9.72192550676196"><ele>842.0</ele><time>2026-05-02T09:04:15.999Z</time></trkpt><trkpt lat="44.7653851556473" lon="9.72183602110151"><ele>842.0000000000001</ele><time>2026-05-02T09:04:17.999Z</time></trkpt><trkpt lat="44.765376902546514" lon="9.72173585730986"><ele>842.0</ele><time>2026-05-02T09:04:19.999Z</time></trkpt><trkpt lat="44.76531796576391" lon="9.72164463011148"><ele>842.0000000000001</ele><time>2026-05-02T09:04:22.999Z</time></trkpt><trkpt lat="44.765259751423415" lon="9.721594842413321"><ele>842.0</ele><time>2026-05-02T09:04:24.999Z</time></trkpt><trkpt lat="44.76520548718018" lon="9.721523460463922"><ele>842.0</ele><time>2026-05-02T09:04:26.999Z</time></trkpt><trkpt lat="44.765165185166744" lon="9.72145303097492"><ele>842.0</ele><time>2026-05-02T09:04:28.999Z</time></trkpt><trkpt lat="44.765128377246896" lon="9.721369204033557"><ele>842.0</ele><time>2026-05-02T09:04:30.999Z</time></trkpt><trkpt lat="44.76508182704995" lon="9.721292468843851"><ele>842.0000000000001</ele><time>2026-05-02T09:04:32.999Z</time></trkpt><trkpt lat="44.76501750895026" lon="9.721223027486653"><ele>842.0</ele><time>2026-05-02T09:04:34.999Z</time></trkpt><trkpt lat="44.764972385036415" lon="9.721161060297899"><ele>837.6</ele><time>2026-05-02T09:04:36.999Z</time></trkpt><trkpt lat="44.76497220878061" lon="9.721051643779594"><ele>833.2</ele><time>2026-05-02T09:04:38.999Z</time></trkpt><trkpt lat="44.76499138122983" lon="9.720941146858536"><ele>828.8</ele><time>2026-05-02T09:04:40.999Z</time></trkpt><trkpt lat="44.7650148715725" lon="9.720823303425814"><ele>824.4</ele><time>2026-05-02T09:04:42.999Z</time></trkpt><trkpt lat="44.76498611914942" lon="9.720691388932972"><ele>820.0</ele><time>2026-05-02T09:04:44.999Z</time></trkpt><trkpt lat="44.76494144107002" lon="9.720549899104828"><ele>819.9999999999999</ele><time>2026-05-02T09:04:46.998Z</time></trkpt><trkpt lat="44.764914192814665" lon="9.720453805612733"><ele>820.0</ele><time>2026-05-02T09:04:49.998Z</time></trkpt><trkpt lat="44.764903138021936" lon="9.720342318637792"><ele>820.0</ele><time>2026-05-02T09:04:51.998Z</time></trkpt><trkpt lat="44.76489438738336" lon="9.720199903424772"><ele>820.0</ele><time>2026-05-02T09:04:53.998Z</time></trkpt><trkpt lat="44.764814928280636" lon="9.720130230154027"><ele>819.9999999999999</ele><time>2026-05-02T09:04:55.998Z</time></trkpt><trkpt lat="44.76479112477712" lon="9.720032773101888"><ele>820.0</ele><time>2026-05-02T09:04:57.998Z</time></trkpt><trkpt lat="44.76480086846286" lon="9.719928324536749"><ele>817.8571428571429</ele><time>2026-05-02T09:05:07Z</time></trkpt><trkpt lat="44.764800235050515" lon="9.719814851911478"><ele>815.7142857142857</ele><time>2026-05-02T09:05:10Z</time></trkpt><trkpt lat="44.764806164409265" lon="9.719725998482557"><ele>813.5714285714286</ele><time>2026-05-02T09:05:12Z</time></trkpt><trkpt lat="44.764797228964426" lon="9.719617374937746"><ele>811.4285714285714</ele><time>2026-05-02T09:05:14Z</time></trkpt><trkpt lat="44.76475299602158" lon="9.719508853174355"><ele>809.2857142857142</ele><time>2026-05-02T09:05:16Z</time></trkpt><trkpt lat="44.76470328404428" lon="9.719435737358635"><ele>807.1428571428571</ele><time>2026-05-02T09:05:19Z</time></trkpt><trkpt lat="44.76463908847968" lon="9.719431962300359"><ele>805.0</ele><time>2026-05-02T09:05:23Z</time></trkpt><trkpt lat="44.76459995691948" lon="9.71953099085651"><ele>805.0</ele><time>2026-05-02T09:05:25Z</time></trkpt><trkpt lat="44.76456089249978" lon="9.719604903349833"><ele>805.0</ele><time>2026-05-02T09:05:26Z</time></trkpt><trkpt lat="44.76446374994451" lon="9.719713270921007"><ele>805.0</ele><time>2026-05-02T09:05:28Z</time></trkpt><trkpt lat="44.76440468011983" lon="9.71976964909485"><ele>805.0</ele><time>2026-05-02T09:05:29Z</time></trkpt><trkpt lat="44.764323562170766" lon="9.719745397462969"><ele>805.0</ele><time>2026-05-02T09:05:31Z</time></trkpt><trkpt lat="44.76425286876593" lon="9.719586438481377"><ele>806.1666666666666</ele><time>2026-05-02T09:05:33Z</time></trkpt><trkpt lat="44.76420513840503" lon="9.719489235931885"><ele>807.3333333333333</ele><time>2026-05-02T09:05:34Z</time></trkpt><trkpt lat="44.76414265820931" lon="9.719415513093844"><ele>808.5</ele><time>2026-05-02T09:05:35Z</time></trkpt><trkpt lat="44.76406837959193" lon="9.71939417926391"><ele>809.6666666666667</ele><time>2026-05-02T09:05:36Z</time></trkpt><trkpt lat="44.7639700001932" lon="9.719368657248777"><ele>810.8333333333334</ele><time>2026-05-02T09:05:37Z</time></trkpt><trkpt lat="44.76388148693863" lon="9.719318186604506"><ele>812.0</ele><time>2026-05-02T09:05:38Z</time></trkpt><trkpt lat="44.7637908112179" lon="9.719333747508024"><ele>812.0</ele><time>2026-05-02T09:05:40Z</time></trkpt><trkpt lat="44.76369331196419" lon="9.719418899936052"><ele>812.0</ele><time>2026-05-02T09:05:42Z</time></trkpt><trkpt lat="44.76361722087271" lon="9.71950580461582"><ele>812.0</ele><time>2026-05-02T09:05:44Z</time></trkpt><trkpt lat="44.763507116001804" lon="9.719521348034755"><ele>812.0</ele><time>2026-05-02T09:05:47Z</time></trkpt><trkpt lat="44.763440177573635" lon="9.719471571305114"><ele>812.0</ele><time>2026-05-02T09:05:48Z</time></trkpt><trkpt lat="44.763384404954856" lon="9.719408142527227"><ele>816.4000000000001</ele><time>2026-05-02T09:05:49Z</time></trkpt><trkpt lat="44.763302457690045" lon="9.719312340049347"><ele>820.8000000000001</ele><time>2026-05-02T09:05:51Z</time></trkpt><trkpt lat="44.763237289937685" lon="9.7192585009062"><ele>825.2</ele><time>2026-05-02T09:05:53Z</time></trkpt><trkpt lat="44.76312243927195" lon="9.719223177581602"><ele>829.6</ele><time>2026-05-02T09:05:54.999Z</time></trkpt><trkpt lat="44.76301999128551" lon="9.719158494668335"><ele>834.0</ele><time>2026-05-02T09:05:56.999Z</time></trkpt><trkpt lat="44.76293304728334" lon="9.719068271268851"><ele>834.0</ele><time>2026-05-02T09:05:58.999Z</time></trkpt><trkpt lat="44.762845113937864" lon="9.718998963442978"><ele>834.0</ele><time>2026-05-02T09:06:00.999Z</time></trkpt><trkpt lat="44.76276744079701" lon="9.718954259005756"><ele>834.0</ele><time>2026-05-02T09:06:02.999Z</time></trkpt><trkpt lat="44.76272021025768" lon="9.718804700338124"><ele>834.0</ele><time>2026-05-02T09:06:04.999Z</time></trkpt><trkpt lat="44.76270197887103" lon="9.718708804902562"><ele>834.0</ele><time>2026-05-02T09:06:05.999Z</time></trkpt><trkpt lat="44.76268427372355" lon="9.718578837651558"><ele>835.4000000000001</ele><time>2026-05-02T09:06:07.999Z</time></trkpt><trkpt lat="44.76258444053627" lon="9.718608501441807"><ele>836.8</ele><time>2026-05-02T09:06:10.999Z</time></trkpt><trkpt lat="44.762504605583956" lon="9.718681609769462"><ele>838.2</ele><time>2026-05-02T09:06:12.999Z</time></trkpt><trkpt lat="44.762401946184724" lon="9.71868981953538"><ele>839.5999999999999</ele><time>2026-05-02T09:07:25Z</time></trkpt><trkpt lat="44.76228421926781" lon="9.718591454886226"><ele>841.0</ele><time>2026-05-02T09:07:27Z</time></trkpt><trkpt lat="44.76223744381124" lon="9.71852408361329"><ele>841.6666666666666</ele><time>2026-05-02T09:07:28Z</time></trkpt><trkpt lat="44.76221986657704" lon="9.718403094204652"><ele>842.3333333333333</ele><time>2026-05-02T09:07:30Z</time></trkpt><trkpt lat="44.762278401114536" lon="9.71829029018794"><ele>843.0</ele><time>2026-05-02T09:07:32Z</time></trkpt><trkpt lat="44.76226672013574" lon="9.718189229451133"><ele>843.6666666666667</ele><time>2026-05-02T09:07:45Z</time></trkpt><trkpt lat="44.762332373238266" lon="9.718102422901827"><ele>844.3333333333334</ele><time>2026-05-02T09:07:47Z</time></trkpt><trkpt lat="44.76240285808806" lon="9.71807155719791"><ele>845.0</ele><time>2026-05-02T09:07:49Z</time></trkpt><trkpt lat="44.762476912082505" lon="9.718062048322816"><ele>845.0000000000001</ele><time>2026-05-02T09:07:52Z</time></trkpt><trkpt lat="44.76255609993901" lon="9.718011934409764"><ele>845.0</ele><time>2026-05-02T09:07:54Z</time></trkpt><trkpt lat="44.76262311770652" lon="9.717941314189066"><ele>845.0</ele><time>2026-05-02T09:07:55Z</time></trkpt><trkpt lat="44.76269890123174" lon="9.717894681588879"><ele>845.0</ele><time>2026-05-02T09:07:56Z</time></trkpt><trkpt lat="44.762784113115416" lon="9.717819995064552"><ele>845.0000000000001</ele><time>2026-05-02T09:07:56.999Z</time></trkpt><trkpt lat="44.76284849251077" lon="9.717760792146445"><ele>845.0</ele><time>2026-05-02T09:07:57.999Z</time></trkpt><trkpt lat="44.762913269135154" lon="9.717701346958059"><ele>846.0000000000001</ele><time>2026-05-02T09:07:59.999Z</time></trkpt><trkpt lat="44.76299949848595" lon="9.7176467119535"><ele>847.0</ele><time>2026-05-02T09:08:02.999Z</time></trkpt><trkpt lat="44.76306119161887" lon="9.717610436674862"><ele>848.0</ele><time>2026-05-02T09:08:03.999Z</time></trkpt><trkpt lat="44.76312716182645" lon="9.717556445908706"><ele>849.0</ele><time>2026-05-02T09:08:04.999Z</time></trkpt><trkpt lat="44.763168124641325" lon="9.717416290409073"><ele>850.0000000000001</ele><time>2026-05-02T09:08:06.999Z</time></trkpt><trkpt lat="44.76321244835583" lon="9.717329994648633"><ele>851.0</ele><time>2026-05-02T09:08:08.999Z</time></trkpt><trkpt lat="44.763260029336124" lon="9.717224247190824"><ele>851.0000000000001</ele><time>2026-05-02T09:08:11.999Z</time></trkpt><trkpt lat="44.76330975377776" lon="9.717154512356593"><ele>851.0</ele><time>2026-05-02T09:08:13.999Z</time></trkpt><trkpt lat="44.763361254162355" lon="9.71710328480293"><ele>851.0</ele><time>2026-05-02T09:08:16.999Z</time></trkpt><trkpt lat="44.76340945215793" lon="9.717039303381956"><ele>851.0</ele><time>2026-05-02T09:08:19.999Z</time></trkpt><trkpt lat="44.76345448990741" lon="9.716965948149495"><ele>851.0000000000001</ele><time>2026-05-02T09:08:23.999Z</time></trkpt><trkpt lat="44.76352440006877" lon="9.716917278171476"><ele>851.0</ele><time>2026-05-02T09:08:25.999Z</time></trkpt><trkpt lat="44.76360634187782" lon="9.71682793701877"><ele>847.5</ele><time>2026-05-02T09:08:27.999Z</time></trkpt><trkpt lat="44.763681874822296" lon="9.716680591862472"><ele>844.0</ele><time>2026-05-02T09:08:29.999Z</time></trkpt><trkpt lat="44.76377406700018" lon="9.71652249607617"><ele>840.5</ele><time>2026-05-02T09:08:30.999Z</time></trkpt><trkpt lat="44.763820470147316" lon="9.716355869847725"><ele>837.0</ele><time>2026-05-02T09:08:31.999Z</time></trkpt><trkpt lat="44.7638347286999" lon="9.716241456504786"><ele>837.0</ele><time>2026-05-02T09:08:32.999Z</time></trkpt><trkpt lat="44.76388211304679" lon="9.716121615096558"><ele>837.0</ele><time>2026-05-02T09:08:34.999Z</time></trkpt><trkpt lat="44.763946101880215" lon="9.716044264537194"><ele>837.0</ele><time>2026-05-02T09:08:36.999Z</time></trkpt><trkpt lat="44.764006566391636" lon="9.715950725843639"><ele>837.0</ele><time>2026-05-02T09:08:38.999Z</time></trkpt><trkpt lat="44.76404598155513" lon="9.715843025004892"><ele>837.0</ele><time>2026-05-02T09:08:40.999Z</time></trkpt><trkpt lat="44.76405740456838" lon="9.715725079486806"><ele>837.0</ele><time>2026-05-02T09:08:42.999Z</time></trkpt><trkpt lat="44.764090492476356" lon="9.715621157831475"><ele>837.0</ele><time>2026-05-02T09:08:44.999Z</time></trkpt><trkpt lat="44.764119987364325" lon="9.715522657172036"><ele>837.0</ele><time>2026-05-02T09:08:46.999Z</time></trkpt><trkpt lat="44.76414183706122" lon="9.715376708343701"><ele>837.0</ele><time>2026-05-02T09:11:11.998Z</time></trkpt><trkpt lat="44.764093244854614" lon="9.715283115223633"><ele>837.0</ele><time>2026-05-02T09:13:43Z</time></trkpt><trkpt lat="44.76399015039994" lon="9.715165453611425"><ele>837.0</ele><time>2026-05-02T09:13:45Z</time></trkpt><trkpt lat="44.763925679768775" lon="9.715072877617084"><ele>835.0</ele><time>2026-05-02T09:13:46Z</time></trkpt><trkpt lat="44.763864892613064" lon="9.715000565458348"><ele>833.0</ele><time>2026-05-02T09:13:47Z</time></trkpt><trkpt lat="44.763814264489035" lon="9.714892009965856"><ele>831.0</ele><time>2026-05-02T09:13:49Z</time></trkpt><trkpt lat="44.76374156736243" lon="9.714750634927226"><ele>829.0</ele><time>2026-05-02T09:13:51Z</time></trkpt><trkpt lat="44.763683630233785" lon="9.714694246948225"><ele>827.0</ele><time>2026-05-02T09:13:52Z</time></trkpt><trkpt lat="44.76362576767744" lon="9.714634071138994"><ele>825.0</ele><time>2026-05-02T09:13:53Z</time></trkpt><trkpt lat="44.76361256421545" lon="9.714542493786942"><ele>825.0</ele><time>2026-05-02T09:13:55Z</time></trkpt><trkpt lat="44.76369677775904" lon="9.7144195443324"><ele>825.0</ele><time>2026-05-02T09:13:57Z</time></trkpt><trkpt lat="44.763741135668695" lon="9.714295674046092"><ele>825.0</ele><time>2026-05-02T09:13:58Z</time></trkpt><trkpt lat="44.76378029695631" lon="9.714150055811475"><ele>825.0</ele><time>2026-05-02T09:13:59Z</time></trkpt><trkpt lat="44.76383371654031" lon="9.71401413706157"><ele>825.0</ele><time>2026-05-02T09:14:00Z</time></trkpt><trkpt lat="44.763900520506795" lon="9.713925763231474"><ele>823.8333333333334</ele><time>2026-05-02T09:14:01Z</time></trkpt><trkpt lat="44.763967254149" lon="9.713849377359407"><ele>822.6666666666667</ele><time>2026-05-02T09:14:02Z</time></trkpt><trkpt lat="44.76400367398838" lon="9.713751870781596"><ele>821.5</ele><time>2026-05-02T09:14:03Z</time></trkpt><trkpt lat="44.76401181713719" lon="9.713609782490435"><ele>820.3333333333334</ele><time>2026-05-02T09:14:04.999Z</time></trkpt><trkpt lat="44.763994982155324" lon="9.71350507647957"><ele>819.1666666666667</ele><time>2026-05-02T09:14:05.999Z</time></trkpt><trkpt lat="44.76398475054066" lon="9.71338778488"><ele>818.0</ele><time>2026-05-02T09:14:06.999Z</time></trkpt><trkpt lat="44.76396596995916" lon="9.713301813114414"><ele>818.0000000000001</ele><time>2026-05-02T09:14:07.999Z</time></trkpt><trkpt lat="44.76392449675852" lon="9.713201189579422"><ele>818.0</ele><time>2026-05-02T09:14:09.999Z</time></trkpt><trkpt lat="44.76388869480811" lon="9.71312627451979"><ele>818.0</ele><time>2026-05-02T09:14:10.999Z</time></trkpt><trkpt lat="44.763853344741484" lon="9.713014290895398"><ele>818.0</ele><time>2026-05-02T09:14:11.999Z</time></trkpt><trkpt lat="44.76387825333917" lon="9.71289870983985"><ele>818.0000000000001</ele><time>2026-05-02T09:14:13.999Z</time></trkpt><trkpt lat="44.76391914008884" lon="9.712827918347985"><ele>818.0</ele><time>2026-05-02T09:14:14.999Z</time></trkpt><trkpt lat="44.76398218734041" lon="9.712741149764785"><ele>816.0000000000001</ele><time>2026-05-02T09:14:16.999Z</time></trkpt><trkpt lat="44.76395780369931" lon="9.712658946015583"><ele>814.0</ele><time>2026-05-02T09:14:20.999Z</time></trkpt><trkpt lat="44.76389381329197" lon="9.712569099497697"><ele>812.0</ele><time>2026-05-02T09:14:24.999Z</time></trkpt><trkpt lat="44.76383235368438" lon="9.712511270985573"><ele>810.0</ele><time>2026-05-02T09:14:27.999Z</time></trkpt><trkpt lat="44.76379693758436" lon="9.71242443429502"><ele>808.0000000000001</ele><time>2026-05-02T09:15:03.998Z</time></trkpt><trkpt lat="44.76373176588987" lon="9.712351890089566"><ele>806.0</ele><time>2026-05-02T09:15:05.998Z</time></trkpt><trkpt lat="44.76366494879854" lon="9.71228244555159"><ele>806.0000000000001</ele><time>2026-05-02T09:15:06.998Z</time></trkpt><trkpt lat="44.7635973326642" lon="9.712193481986867"><ele>806.0</ele><time>2026-05-02T09:15:07.998Z</time></trkpt><trkpt lat="44.76354674172489" lon="9.71212181152412"><ele>806.0</ele><time>2026-05-02T09:15:08.998Z</time></trkpt><trkpt lat="44.76349259989357" lon="9.71205249678468"><ele>806.0</ele><time>2026-05-02T09:15:09.998Z</time></trkpt><trkpt lat="44.76341656157076" lon="9.711901742660647"><ele>806.0000000000001</ele><time>2026-05-02T09:15:11.998Z</time></trkpt><trkpt lat="44.76335512821046" lon="9.711867225112142"><ele>806.0</ele><time>2026-05-02T09:15:12.998Z</time></trkpt><trkpt lat="44.76328789397275" lon="9.711841267170396"><ele>804.4</ele><time>2026-05-02T09:15:13.998Z</time></trkpt><trkpt lat="44.76320775880902" lon="9.711707369443474"><ele>802.8</ele><time>2026-05-02T09:15:15.998Z</time></trkpt><trkpt lat="44.76310167111438" lon="9.711632074963697"><ele>801.1999999999999</ele><time>2026-05-02T09:15:17.998Z</time></trkpt><trkpt lat="44.763040347187214" lon="9.711595960043548"><ele>799.5999999999999</ele><time>2026-05-02T09:15:18.998Z</time></trkpt><trkpt lat="44.763040044376915" lon="9.711492731258613"><ele>798.0</ele><time>2026-05-02T09:15:20.998Z</time></trkpt><trkpt lat="44.76302111070106" lon="9.711300334628243"><ele>798.0</ele><time>2026-05-02T09:15:22.998Z</time></trkpt><trkpt lat="44.762976806334024" lon="9.711189557004147"><ele>798.0</ele><time>2026-05-02T09:15:23.998Z</time></trkpt><trkpt lat="44.76291391683217" lon="9.711087520328698"><ele>798.0</ele><time>2026-05-02T09:15:24.998Z</time></trkpt><trkpt lat="44.76284408095195" lon="9.7109995374875"><ele>798.0</ele><time>2026-05-02T09:15:25.998Z</time></trkpt><trkpt lat="44.76279799684938" lon="9.710907420646397"><ele>798.0</ele><time>2026-05-02T09:15:26.998Z</time></trkpt><trkpt lat="44.76274327323129" lon="9.710799940859905"><ele>797.8</ele><time>2026-05-02T09:15:27.998Z</time></trkpt><trkpt lat="44.76267035080346" lon="9.710733031939226"><ele>797.5999999999999</ele><time>2026-05-02T09:15:28.998Z</time></trkpt><trkpt lat="44.762617998025284" lon="9.710643049220328"><ele>797.4000000000001</ele><time>2026-05-02T09:15:30.998Z</time></trkpt><trkpt lat="44.76262058885342" lon="9.710466432345003"><ele>797.2</ele><time>2026-05-02T09:15:32.998Z</time></trkpt><trkpt lat="44.76256961300018" lon="9.710346122364003"><ele>797.0</ele><time>2026-05-02T09:15:33.998Z</time></trkpt><trkpt lat="44.7625258311782" lon="9.710234146151635"><ele>797.0000000000001</ele><time>2026-05-02T09:15:35Z</time></trkpt><trkpt lat="44.76251484355558" lon="9.710134260208294"><ele>797.0</ele><time>2026-05-02T09:15:36Z</time></trkpt><trkpt lat="44.76252605185207" lon="9.710024665339212"><ele>797.0</ele><time>2026-05-02T09:15:38Z</time></trkpt><trkpt lat="44.76252767169407" lon="9.709915136909515"><ele>797.0</ele><time>2026-05-02T09:16:37.999Z</time></trkpt><trkpt lat="44.762489136139344" lon="9.709790230549398"><ele>797.0000000000001</ele><time>2026-05-02T09:16:39.999Z</time></trkpt><trkpt lat="44.762398799758124" lon="9.709715501933244"><ele>797.0</ele><time>2026-05-02T09:16:41.999Z</time></trkpt><trkpt lat="44.76233425442797" lon="9.70971138762492"><ele>797.0000000000001</ele><time>2026-05-02T09:16:42.999Z</time></trkpt><trkpt lat="44.76223574314281" lon="9.709677353798845"><ele>797.0</ele><time>2026-05-02T09:16:44.999Z</time></trkpt><trkpt lat="44.76224084533402" lon="9.70958769896154"><ele>797.0</ele><time>2026-05-02T09:16:46.999Z</time></trkpt><trkpt lat="44.762309112006825" lon="9.709498263009321"><ele>797.0</ele><time>2026-05-02T09:16:48.999Z</time></trkpt><trkpt lat="44.762352191535335" lon="9.709418521117827"><ele>797.0000000000001</ele><time>2026-05-02T09:16:49.999Z</time></trkpt><trkpt lat="44.762393097047976" lon="9.709313648824628"><ele>797.0</ele><time>2026-05-02T09:16:50.999Z</time></trkpt><trkpt lat="44.76242928858719" lon="9.709211252280397"><ele>796.0000000000001</ele><time>2026-05-02T09:16:51.999Z</time></trkpt><trkpt lat="44.76244796953318" lon="9.709121113722519"><ele>795.0</ele><time>2026-05-02T09:16:52.999Z</time></trkpt><trkpt lat="44.76248695307721" lon="9.708961849822671"><ele>794.0</ele><time>2026-05-02T09:16:54.999Z</time></trkpt><trkpt lat="44.76250574296633" lon="9.708873555965372"><ele>793.0</ele><time>2026-05-02T09:16:55.999Z</time></trkpt><trkpt lat="44.762527126029084" lon="9.708783670870059"><ele>792.0000000000001</ele><time>2026-05-02T09:16:56.999Z</time></trkpt><trkpt lat="44.76253474713724" lon="9.70869003972302"><ele>791.0</ele><time>2026-05-02T09:16:57.999Z</time></trkpt><trkpt lat="44.76256898284561" lon="9.70860394150166"><ele>791.0000000000001</ele><time>2026-05-02T09:16:58.999Z</time></trkpt><trkpt lat="44.7626187107855" lon="9.708536564174823"><ele>791.0</ele><time>2026-05-02T09:16:59.999Z</time></trkpt><trkpt lat="44.76266429252609" lon="9.708466737602949"><ele>791.0</ele><time>2026-05-02T09:17:00.999Z</time></trkpt><trkpt lat="44.76268975291859" lon="9.708330369320679"><ele>791.0</ele><time>2026-05-02T09:17:02.999Z</time></trkpt><trkpt lat="44.76274041021689" lon="9.708210304312045"><ele>791.0000000000001</ele><time>2026-05-02T09:17:04.999Z</time></trkpt><trkpt lat="44.762838225505114" lon="9.708152663470033"><ele>791.0</ele><time>2026-05-02T09:17:06.999Z</time></trkpt><trkpt lat="44.76289853642849" lon="9.708024115893602"><ele>785.1999999999999</ele><time>2026-05-02T09:17:08.999Z</time></trkpt><trkpt lat="44.762973014917144" lon="9.70788343511016"><ele>779.4</ele><time>2026-05-02T09:17:10.999Z</time></trkpt><trkpt lat="44.76306407041811" lon="9.707772858441327"><ele>773.6</ele><time>2026-05-02T09:17:12.999Z</time></trkpt><trkpt lat="44.76312718785642" lon="9.707734675630178"><ele>767.8</ele><time>2026-05-02T09:17:13.999Z</time></trkpt><trkpt lat="44.76316649997291" lon="9.70765632653788"><ele>762.0</ele><time>2026-05-02T09:17:14.999Z</time></trkpt><trkpt lat="44.763245157154735" lon="9.707513104771328"><ele>761.8333333333334</ele><time>2026-05-02T09:17:16.999Z</time></trkpt><trkpt lat="44.76328209984924" lon="9.707418911870725"><ele>761.6666666666666</ele><time>2026-05-02T09:17:17.998Z</time></trkpt><trkpt lat="44.76331719194187" lon="9.707326474154403"><ele>761.5</ele><time>2026-05-02T09:17:18.998Z</time></trkpt><trkpt lat="44.76336251355345" lon="9.707259110568257"><ele>761.3333333333333</ele><time>2026-05-02T09:17:19.998Z</time></trkpt><trkpt lat="44.76346340374857" lon="9.707200049607504"><ele>761.1666666666666</ele><time>2026-05-02T09:17:21.998Z</time></trkpt><trkpt lat="44.76357786482319" lon="9.707244176843801"><ele>761.0</ele><time>2026-05-02T09:17:23.998Z</time></trkpt><trkpt lat="44.7637023836033" lon="9.7072654116265"><ele>757.8333333333333</ele><time>2026-05-02T09:17:25.998Z</time></trkpt><trkpt lat="44.763801767945935" lon="9.707263274029122"><ele>754.6666666666666</ele><time>2026-05-02T09:17:27.998Z</time></trkpt><trkpt lat="44.763875033306526" lon="9.707257955423167"><ele>751.5</ele><time>2026-05-02T09:17:32.998Z</time></trkpt><trkpt lat="44.76391904334005" lon="9.707187316736121"><ele>748.3333333333334</ele><time>2026-05-02T09:17:37.998Z</time></trkpt><trkpt lat="44.76386652890399" lon="9.707081367832297"><ele>745.1666666666667</ele><time>2026-05-02T09:17:43Z</time></trkpt><trkpt lat="44.7638144830716" lon="9.707013863992405"><ele>742.0</ele><time>2026-05-02T09:17:45Z</time></trkpt><trkpt lat="44.7637002530862" lon="9.70693814676866"><ele>742.0</ele><time>2026-05-02T09:17:47Z</time></trkpt><trkpt lat="44.763624644016026" lon="9.706912277675455"><ele>742.0</ele><time>2026-05-02T09:17:48Z</time></trkpt><trkpt lat="44.76353928199881" lon="9.706892832430864"><ele>742.0</ele><time>2026-05-02T09:17:49Z</time></trkpt><trkpt lat="44.763460182670435" lon="9.706882296948335"><ele>742.0</ele><time>2026-05-02T09:17:50Z</time></trkpt><trkpt lat="44.76338870042173" lon="9.706881627502288"><ele>742.0</ele><time>2026-05-02T09:17:51Z</time></trkpt><trkpt lat="44.7632639170293" lon="9.706929811327463"><ele>742.0</ele><time>2026-05-02T09:17:53Z</time></trkpt><trkpt lat="44.763199213192216" lon="9.706945627172296"><ele>740.4000000000001</ele><time>2026-05-02T09:17:54Z</time></trkpt><trkpt lat="44.76307730015685" lon="9.706910522201907"><ele>738.8000000000001</ele><time>2026-05-02T09:17:56Z</time></trkpt><trkpt lat="44.762971629387046" lon="9.706832431482475"><ele>737.2</ele><time>2026-05-02T09:17:58Z</time></trkpt><trkpt lat="44.76287863849408" lon="9.706761768186285"><ele>735.6</ele><time>2026-05-02T09:18:00Z</time></trkpt><trkpt lat="44.762830340151574" lon="9.706698249981885"><ele>734.0</ele><time>2026-05-02T09:18:01Z</time></trkpt><trkpt lat="44.762785011950704" lon="9.706597474089177"><ele>734.0</ele><time>2026-05-02T09:18:02Z</time></trkpt><trkpt lat="44.76273251208772" lon="9.706488139261214"><ele>734.0</ele><time>2026-05-02T09:18:03Z</time></trkpt><trkpt lat="44.762671971960884" lon="9.706395636919813"><ele>734.0</ele><time>2026-05-02T09:18:04Z</time></trkpt><trkpt lat="44.762607752333516" lon="9.70630892034222"><ele>734.0</ele><time>2026-05-02T09:18:05Z</time></trkpt><trkpt lat="44.76255008862091" lon="9.706213555491376"><ele>734.0</ele><time>2026-05-02T09:18:06Z</time></trkpt><trkpt lat="44.762497662175804" lon="9.706115143588189"><ele>734.0</ele><time>2026-05-02T09:18:07Z</time></trkpt><trkpt lat="44.76244076141609" lon="9.706036171667579"><ele>732.6666666666666</ele><time>2026-05-02T09:18:08Z</time></trkpt><trkpt lat="44.76238351083938" lon="9.705960833717006"><ele>731.3333333333333</ele><time>2026-05-02T09:18:09Z</time></trkpt><trkpt lat="44.76231591534978" lon="9.705899814221986"><ele>730.0</ele><time>2026-05-02T09:18:10Z</time></trkpt><trkpt lat="44.76223720494517" lon="9.70584391831976"><ele>728.6666666666666</ele><time>2026-05-02T09:18:11Z</time></trkpt><trkpt lat="44.762189709123774" lon="9.70575229972758"><ele>727.3333333333334</ele><time>2026-05-02T09:18:12Z</time></trkpt><trkpt lat="44.7621424429679" lon="9.705652242821499"><ele>726.0</ele><time>2026-05-02T09:18:13Z</time></trkpt><trkpt lat="44.76210964074423" lon="9.705556587223068"><ele>726.0</ele><time>2026-05-02T09:18:14Z</time></trkpt><trkpt lat="44.76207849463082" lon="9.705453218563953"><ele>726.0</ele><time>2026-05-02T09:18:15Z</time></trkpt><trkpt lat="44.761978140348994" lon="9.705323229706238"><ele>726.0</ele><time>2026-05-02T09:18:17Z</time></trkpt><trkpt lat="44.761911597878616" lon="9.705291726441015"><ele>726.0</ele><time>2026-05-02T09:18:18Z</time></trkpt><trkpt lat="44.761846345254824" lon="9.705258922642642"><ele>726.0</ele><time>2026-05-02T09:18:19Z</time></trkpt><trkpt lat="44.76178508085907" lon="9.705227147063324"><ele>726.0</ele><time>2026-05-02T09:18:20Z</time></trkpt><trkpt lat="44.7617156744299" lon="9.705199682744984"><ele>724.5</ele><time>2026-05-02T09:18:21Z</time></trkpt><trkpt lat="44.7616435030017" lon="9.70516068268683"><ele>723.0</ele><time>2026-05-02T09:18:22Z</time></trkpt><trkpt lat="44.7615620212643" lon="9.705136969268535"><ele>721.5</ele><time>2026-05-02T09:18:23Z</time></trkpt><trkpt lat="44.761480648599345" lon="9.705090003004281"><ele>720.0</ele><time>2026-05-02T09:18:24Z</time></trkpt><trkpt lat="44.761390687165715" lon="9.705049211477238"><ele>718.5</ele><time>2026-05-02T09:18:25Z</time></trkpt><trkpt lat="44.76130949534909" lon="9.705024749533749"><ele>717.0</ele><time>2026-05-02T09:18:25.999Z</time></trkpt><trkpt lat="44.76123599860102" lon="9.704996239495014"><ele>717.0</ele><time>2026-05-02T09:18:26.999Z</time></trkpt><trkpt lat="44.76116454242595" lon="9.70495704246552"><ele>717.0</ele><time>2026-05-02T09:18:27.999Z</time></trkpt><trkpt lat="44.76108987675548" lon="9.704910885707317"><ele>717.0</ele><time>2026-05-02T09:18:28.999Z</time></trkpt><trkpt lat="44.761018095210524" lon="9.704860718582138"><ele>717.0</ele><time>2026-05-02T09:18:29.999Z</time></trkpt><trkpt lat="44.76096243827989" lon="9.704787927394307"><ele>717.0</ele><time>2026-05-02T09:18:30.999Z</time></trkpt><trkpt lat="44.76090443010886" lon="9.704683523968637"><ele>717.0</ele><time>2026-05-02T09:18:31.999Z</time></trkpt><trkpt lat="44.76087026916876" lon="9.704574787342612"><ele>716.1666666666666</ele><time>2026-05-02T09:18:32.999Z</time></trkpt><trkpt lat="44.76083750466595" lon="9.704498333951593"><ele>715.3333333333334</ele><time>2026-05-02T09:18:33.999Z</time></trkpt><trkpt lat="44.7607926604674" lon="9.704435438409407"><ele>714.5</ele><time>2026-05-02T09:18:34.999Z</time></trkpt><trkpt lat="44.76067815516308" lon="9.704351325392485"><ele>713.6666666666667</ele><time>2026-05-02T09:18:36.999Z</time></trkpt><trkpt lat="44.7606044856299" lon="9.704324121837965"><ele>712.8333333333334</ele><time>2026-05-02T09:18:37.999Z</time></trkpt><trkpt lat="44.760527350292364" lon="9.70431911260292"><ele>712.0</ele><time>2026-05-02T09:18:38.999Z</time></trkpt><trkpt lat="44.76046265075895" lon="9.70432650230087"><ele>712.0</ele><time>2026-05-02T09:18:39.999Z</time></trkpt><trkpt lat="44.760354006384595" lon="9.704327800065986"><ele>712.0</ele><time>2026-05-02T09:18:41.999Z</time></trkpt><trkpt lat="44.76024963842734" lon="9.704265888041501"><ele>712.0</ele><time>2026-05-02T09:18:43.999Z</time></trkpt><trkpt lat="44.76021490678529" lon="9.70413852003646"><ele>712.0</ele><time>2026-05-02T09:18:45.999Z</time></trkpt><trkpt lat="44.76024569693085" lon="9.70399063159063"><ele>712.0</ele><time>2026-05-02T09:18:47.999Z</time></trkpt><trkpt lat="44.760196295097074" lon="9.703912140637573"><ele>713.0</ele><time>2026-05-02T09:18:49.999Z</time></trkpt><trkpt lat="44.76007265244197" lon="9.70389750538244"><ele>714.0</ele><time>2026-05-02T09:18:51.999Z</time></trkpt><trkpt lat="44.759990344026" lon="9.703884814147758"><ele>715.0</ele><time>2026-05-02T09:18:52.999Z</time></trkpt><trkpt lat="44.75990385644227" lon="9.703863241855952"><ele>716.0</ele><time>2026-05-02T09:18:53.999Z</time></trkpt><trkpt lat="44.75982474582367" lon="9.703841304174205"><ele>717.0</ele><time>2026-05-02T09:18:54.999Z</time></trkpt><trkpt lat="44.75974694169604" lon="9.70380863883761"><ele>717.0</ele><time>2026-05-02T09:18:55.999Z</time></trkpt><trkpt lat="44.75967803467886" lon="9.703780026253169"><ele>717.0</ele><time>2026-05-02T09:18:56.999Z</time></trkpt><trkpt lat="44.75961437446009" lon="9.703740082943497"><ele>717.0</ele><time>2026-05-02T09:18:57.999Z</time></trkpt><trkpt lat="44.75954594576162" lon="9.703699021505926"><ele>717.0</ele><time>2026-05-02T09:18:58.999Z</time></trkpt><trkpt lat="44.75947417397893" lon="9.703649545881403"><ele>717.0</ele><time>2026-05-02T09:18:59.999Z</time></trkpt><trkpt lat="44.75939822805287" lon="9.703600637430936"><ele>717.0</ele><time>2026-05-02T09:19:00.999Z</time></trkpt><trkpt lat="44.75931854370377" lon="9.703545191118607"><ele>713.0</ele><time>2026-05-02T09:19:01.999Z</time></trkpt><trkpt lat="44.759246014316226" lon="9.70350484883914"><ele>709.0</ele><time>2026-05-02T09:19:02.999Z</time></trkpt><trkpt lat="44.759172064112015" lon="9.703490889371091"><ele>705.0</ele><time>2026-05-02T09:19:03.999Z</time></trkpt><trkpt lat="44.75905506708852" lon="9.70348996342704"><ele>701.0</ele><time>2026-05-02T09:19:05.999Z</time></trkpt><trkpt lat="44.758961790094105" lon="9.703430092540627"><ele>697.0</ele><time>2026-05-02T09:19:07.999Z</time></trkpt><trkpt lat="44.758959213719365" lon="9.703283360984313"><ele>697.0</ele><time>2026-05-02T09:19:09.999Z</time></trkpt><trkpt lat="44.75898383029219" lon="9.703192847584006"><ele>697.0</ele><time>2026-05-02T09:19:10.999Z</time></trkpt><trkpt lat="44.759002413321156" lon="9.703095821697033"><ele>697.0</ele><time>2026-05-02T09:19:11.999Z</time></trkpt><trkpt lat="44.758982072988275" lon="9.702908937945507"><ele>697.0</ele><time>2026-05-02T09:19:13.999Z</time></trkpt><trkpt lat="44.75898122953027" lon="9.702799692073144"><ele>697.0</ele><time>2026-05-02T09:19:14.999Z</time></trkpt><trkpt lat="44.75900093324989" lon="9.70268200966987"><ele>697.0</ele><time>2026-05-02T09:19:15.999Z</time></trkpt><trkpt lat="44.75902462483208" lon="9.702563277040422"><ele>694.8</ele><time>2026-05-02T09:19:16.999Z</time></trkpt><trkpt lat="44.75905057847643" lon="9.702438929231716"><ele>692.6</ele><time>2026-05-02T09:19:17.999Z</time></trkpt><trkpt lat="44.75907986242079" lon="9.702320637975713"><ele>690.4</ele><time>2026-05-02T09:19:18.999Z</time></trkpt><trkpt lat="44.75909343671995" lon="9.702204065433833"><ele>688.1999999999999</ele><time>2026-05-02T09:19:19.998Z</time></trkpt><trkpt lat="44.75911624668577" lon="9.702060650805107"><ele>686.0</ele><time>2026-05-02T09:19:21.998Z</time></trkpt><trkpt lat="44.7591401086722" lon="9.701920086392779"><ele>684.1666666666666</ele><time>2026-05-02T09:19:23.998Z</time></trkpt><trkpt lat="44.75914127118546" lon="9.701818904397605"><ele>682.3333333333333</ele><time>2026-05-02T09:19:25.998Z</time></trkpt><trkpt lat="44.75911591752884" lon="9.701717904617686"><ele>680.5</ele><time>2026-05-02T09:19:29.998Z</time></trkpt><trkpt lat="44.75901356903573" lon="9.701622497580042"><ele>678.6666666666666</ele><time>2026-05-02T09:19:31.998Z</time></trkpt><trkpt lat="44.758936536616936" lon="9.701596344879706"><ele>676.8333333333334</ele><time>2026-05-02T09:19:32.998Z</time></trkpt><trkpt lat="44.75886354916191" lon="9.701554506749218"><ele>675.0</ele><time>2026-05-02T09:19:33.998Z</time></trkpt><trkpt lat="44.75880660540333" lon="9.701510043247504"><ele>675.0</ele><time>2026-05-02T09:19:34.998Z</time></trkpt><trkpt lat="44.75875117363926" lon="9.701454656608536"><ele>675.0</ele><time>2026-05-02T09:19:35.998Z</time></trkpt><trkpt lat="44.75869669756215" lon="9.701372792897006"><ele>675.0</ele><time>2026-05-02T09:19:36.998Z</time></trkpt><trkpt lat="44.7586412200164" lon="9.70127167564495"><ele>675.0</ele><time>2026-05-02T09:19:37.998Z</time></trkpt><trkpt lat="44.75859773133556" lon="9.701165062901179"><ele>675.0</ele><time>2026-05-02T09:19:38.998Z</time></trkpt><trkpt lat="44.75856276264546" lon="9.701064246933262"><ele>675.0</ele><time>2026-05-02T09:19:39.998Z</time></trkpt><trkpt lat="44.758530973265835" lon="9.700975174383034"><ele>675.5714285714286</ele><time>2026-05-02T09:19:40.998Z</time></trkpt><trkpt lat="44.75849686547186" lon="9.700882528113931"><ele>676.1428571428571</ele><time>2026-05-02T09:19:41.998Z</time></trkpt><trkpt lat="44.75846230841941" lon="9.700784322605719"><ele>676.7142857142858</ele><time>2026-05-02T09:19:42.998Z</time></trkpt><trkpt lat="44.75842437604928" lon="9.700687374917381"><ele>677.2857142857142</ele><time>2026-05-02T09:19:43.998Z</time></trkpt><trkpt lat="44.75839067521512" lon="9.700602165127602"><ele>677.8571428571429</ele><time>2026-05-02T09:19:44.998Z</time></trkpt><trkpt lat="44.758368526375435" lon="9.700516626742349"><ele>678.4285714285714</ele><time>2026-05-02T09:19:45.998Z</time></trkpt><trkpt lat="44.75834897276681" lon="9.700423843203332"><ele>679.0</ele><time>2026-05-02T09:19:47Z</time></trkpt><trkpt lat="44.758319119831306" lon="9.700325389992026"><ele>678.6666666666667</ele><time>2026-05-02T09:19:48Z</time></trkpt><trkpt lat="44.75828826980894" lon="9.700223789616361"><ele>678.3333333333334</ele><time>2026-05-02T09:19:49Z</time></trkpt><trkpt lat="44.758257143899044" lon="9.700112690528584"><ele>678.0</ele><time>2026-05-02T09:19:50Z</time></trkpt><trkpt lat="44.75822366060805" lon="9.69999569195462"><ele>677.6666666666666</ele><time>2026-05-02T09:19:51Z</time></trkpt><trkpt lat="44.75818665093478" lon="9.699871779993703"><ele>677.3333333333333</ele><time>2026-05-02T09:19:52Z</time></trkpt><trkpt lat="44.7581527445649" lon="9.699740242227163"><ele>677.0</ele><time>2026-05-02T09:19:53Z</time></trkpt><trkpt lat="44.75811577562477" lon="9.699608026341485"><ele>677.0</ele><time>2026-05-02T09:19:54Z</time></trkpt><trkpt lat="44.75805546780644" lon="9.699507368451357"><ele>677.0</ele><time>2026-05-02T09:19:55Z</time></trkpt><trkpt lat="44.757976740031516" lon="9.699457544748833"><ele>677.0</ele><time>2026-05-02T09:19:56Z</time></trkpt><trkpt lat="44.757895522203576" lon="9.699462250568063"><ele>677.0</ele><time>2026-05-02T09:19:57Z</time></trkpt><trkpt lat="44.75781894684521" lon="9.699518740258759"><ele>677.0</ele><time>2026-05-02T09:19:58Z</time></trkpt><trkpt lat="44.757744937986" lon="9.699605260939412"><ele>677.0</ele><time>2026-05-02T09:19:59Z</time></trkpt><trkpt lat="44.757681552516026" lon="9.69970629210811"><ele>678.8</ele><time>2026-05-02T09:20:00Z</time></trkpt><trkpt lat="44.75762879173629" lon="9.699799083564958"><ele>680.6</ele><time>2026-05-02T09:20:01Z</time></trkpt><trkpt lat="44.7575658703834" lon="9.699896428412288"><ele>682.4</ele><time>2026-05-02T09:20:02Z</time></trkpt><trkpt lat="44.75749684805804" lon="9.699983026078675"><ele>684.1999999999999</ele><time>2026-05-02T09:20:03Z</time></trkpt><trkpt lat="44.75741912736295" lon="9.700061514768196"><ele>686.0</ele><time>2026-05-02T09:20:04Z</time></trkpt><trkpt lat="44.75734678657503" lon="9.70014214131129"><ele>686.0</ele><time>2026-05-02T09:20:05Z</time></trkpt><trkpt lat="44.75728288101816" lon="9.700233108926271"><ele>686.0</ele><time>2026-05-02T09:20:06Z</time></trkpt><trkpt lat="44.75722884698826" lon="9.700329765757745"><ele>686.0</ele><time>2026-05-02T09:20:07Z</time></trkpt><trkpt lat="44.75718357587468" lon="9.700426251515784"><ele>686.0</ele><time>2026-05-02T09:20:08Z</time></trkpt><trkpt lat="44.75713554051921" lon="9.700530683241842"><ele>686.0</ele><time>2026-05-02T09:20:09Z</time></trkpt><trkpt lat="44.7570833458502" lon="9.700646593801114"><ele>686.0</ele><time>2026-05-02T09:20:10Z</time></trkpt><trkpt lat="44.75703971589202" lon="9.700769487603765"><ele>686.5999999999999</ele><time>2026-05-02T09:20:11Z</time></trkpt><trkpt lat="44.75701926183182" lon="9.700885691433687"><ele>687.2</ele><time>2026-05-02T09:20:12Z</time></trkpt><trkpt lat="44.75702265045524" lon="9.701001836507977"><ele>687.8</ele><time>2026-05-02T09:20:13Z</time></trkpt><trkpt lat="44.75705466234448" lon="9.701136829992947"><ele>688.4000000000001</ele><time>2026-05-02T09:20:14Z</time></trkpt><trkpt lat="44.75709643123451" lon="9.701266405883215"><ele>689.0</ele><time>2026-05-02T09:20:15Z</time></trkpt><trkpt lat="44.75713954316195" lon="9.701403286248826"><ele>689.8000000000001</ele><time>2026-05-02T09:20:16Z</time></trkpt><trkpt lat="44.75718339531387" lon="9.701540581620488"><ele>690.6</ele><time>2026-05-02T09:20:17Z</time></trkpt><trkpt lat="44.75721798803408" lon="9.701660507843677"><ele>691.4</ele><time>2026-05-02T09:20:18Z</time></trkpt><trkpt lat="44.75725523194571" lon="9.701777473370758"><ele>692.2</ele><time>2026-05-02T09:20:19Z</time></trkpt><trkpt lat="44.75728669371586" lon="9.701897759347428"><ele>693.0</ele><time>2026-05-02T09:20:20Z</time></trkpt><trkpt lat="44.757280696440624" lon="9.702025275814984"><ele>694.2</ele><time>2026-05-02T09:20:21Z</time></trkpt><trkpt lat="44.75723020879857" lon="9.70213171168037"><ele>695.4</ele><time>2026-05-02T09:20:22Z</time></trkpt><trkpt lat="44.75714940436745" lon="9.70220146969579"><ele>696.6</ele><time>2026-05-02T09:20:23Z</time></trkpt><trkpt lat="44.757045998327044" lon="9.702223620405514"><ele>697.8000000000001</ele><time>2026-05-02T09:20:24Z</time></trkpt><trkpt lat="44.756937101272236" lon="9.702216597641558"><ele>699.0</ele><time>2026-05-02T09:20:25Z</time></trkpt><trkpt lat="44.75682890253711" lon="9.702195108112155"><ele>701.2</ele><time>2026-05-02T09:20:26Z</time></trkpt><trkpt lat="44.75672119290926" lon="9.702176477520155"><ele>703.4000000000001</ele><time>2026-05-02T09:20:27Z</time></trkpt><trkpt lat="44.75661225935092" lon="9.702174555829261"><ele>705.6</ele><time>2026-05-02T09:20:28Z</time></trkpt><trkpt lat="44.7565121361952" lon="9.702202542760284"><ele>707.8</ele><time>2026-05-02T09:20:29Z</time></trkpt><trkpt lat="44.756415604811885" lon="9.702230185689638"><ele>710.0</ele><time>2026-05-02T09:20:30Z</time></trkpt><trkpt lat="44.75631784590809" lon="9.702264498819034"><ele>710.0</ele><time>2026-05-02T09:20:31Z</time></trkpt><trkpt lat="44.7562066772144" lon="9.702293454592324"><ele>710.0</ele><time>2026-05-02T09:20:32Z</time></trkpt><trkpt lat="44.756096920125145" lon="9.702317584888958"><ele>710.0</ele><time>2026-05-02T09:20:32.999Z</time></trkpt><trkpt lat="44.75598764736083" lon="9.702346697795749"><ele>710.0</ele><time>2026-05-02T09:20:33.999Z</time></trkpt><trkpt lat="44.75587828562798" lon="9.702375265105811"><ele>710.0</ele><time>2026-05-02T09:20:34.999Z</time></trkpt><trkpt lat="44.7557682214477" lon="9.702400228439863"><ele>711.25</ele><time>2026-05-02T09:20:35.999Z</time></trkpt><trkpt lat="44.75565719174648" lon="9.702424481006704"><ele>712.5</ele><time>2026-05-02T09:20:36.999Z</time></trkpt><trkpt lat="44.75554905666188" lon="9.702453669670374"><ele>713.75</ele><time>2026-05-02T09:20:37.999Z</time></trkpt><trkpt lat="44.75543640388121" lon="9.702480871584909"><ele>715.0</ele><time>2026-05-02T09:20:38.999Z</time></trkpt><trkpt lat="44.75532405827499" lon="9.702523748749694"><ele>715.0</ele><time>2026-05-02T09:20:39.999Z</time></trkpt><trkpt lat="44.755214101288615" lon="9.702583716820872"><ele>715.0</ele><time>2026-05-02T09:20:40.999Z</time></trkpt><trkpt lat="44.75510588122104" lon="9.70263985996749"><ele>715.0</ele><time>2026-05-02T09:20:41.999Z</time></trkpt><trkpt lat="44.755008260991325" lon="9.702660374958333"><ele>715.0</ele><time>2026-05-02T09:20:42.999Z</time></trkpt><trkpt lat="44.75488772367454" lon="9.702649474023112"><ele>717.4</ele><time>2026-05-02T09:20:43.999Z</time></trkpt><trkpt lat="44.754772813165225" lon="9.702634077865659"><ele>719.8</ele><time>2026-05-02T09:20:44.999Z</time></trkpt><trkpt lat="44.75465937995675" lon="9.70264500087214"><ele>722.2</ele><time>2026-05-02T09:20:45.999Z</time></trkpt><trkpt lat="44.754573834053396" lon="9.702705585731964"><ele>724.6</ele><time>2026-05-02T09:20:46.999Z</time></trkpt><trkpt lat="44.75449150187656" lon="9.70281678508572"><ele>727.0</ele><time>2026-05-02T09:20:47.999Z</time></trkpt><trkpt lat="44.75439466962032" lon="9.70293420114209"><ele>730.0</ele><time>2026-05-02T09:20:48.999Z</time></trkpt><trkpt lat="44.75427653021588" lon="9.703028502904775"><ele>733.0</ele><time>2026-05-02T09:20:49.999Z</time></trkpt><trkpt lat="44.75415436486403" lon="9.703100172886208"><ele>736.0</ele><time>2026-05-02T09:20:50.999Z</time></trkpt><trkpt lat="44.75401904282143" lon="9.703165343740677"><ele>739.0</ele><time>2026-05-02T09:20:51.999Z</time></trkpt><trkpt lat="44.753895275069674" lon="9.703223593274666"><ele>739.0</ele><time>2026-05-02T09:20:52.999Z</time></trkpt><trkpt lat="44.753790442911615" lon="9.703290407048906"><ele>739.0</ele><time>2026-05-02T09:20:53.999Z</time></trkpt><trkpt lat="44.75371745893452" lon="9.703386857617458"><ele>739.0</ele><time>2026-05-02T09:20:54.999Z</time></trkpt><trkpt lat="44.75368899629712" lon="9.703507216578986"><ele>739.0</ele><time>2026-05-02T09:20:55.999Z</time></trkpt><trkpt lat="44.75369817891025" lon="9.703638718811243"><ele>739.0</ele><time>2026-05-02T09:20:56.999Z</time></trkpt><trkpt lat="44.753731701130185" lon="9.703782793900228"><ele>740.75</ele><time>2026-05-02T09:20:57.999Z</time></trkpt><trkpt lat="44.75375760249385" lon="9.703942799393856"><ele>742.5</ele><time>2026-05-02T09:20:58.999Z</time></trkpt><trkpt lat="44.75377936550547" lon="9.704117190109846"><ele>744.25</ele><time>2026-05-02T09:20:59.999Z</time></trkpt><trkpt lat="44.753806520934596" lon="9.704276705405839"><ele>746.0</ele><time>2026-05-02T09:21:00.999Z</time></trkpt><trkpt lat="44.753847210559464" lon="9.704419392424446"><ele>750.75</ele><time>2026-05-02T09:21:01.999Z</time></trkpt><trkpt lat="44.75389551474305" lon="9.704553278463916"><ele>755.5</ele><time>2026-05-02T09:21:02.999Z</time></trkpt><trkpt lat="44.753971988733035" lon="9.704665988727749"><ele>760.25</ele><time>2026-05-02T09:21:03.999Z</time></trkpt><trkpt lat="44.75407542133277" lon="9.704756412591076"><ele>765.0</ele><time>2026-05-02T09:21:04.999Z</time></trkpt><trkpt lat="44.75417889646289" lon="9.704835439449326"><ele>765.0</ele><time>2026-05-02T09:21:05.999Z</time></trkpt><trkpt lat="44.75428987338341" lon="9.704870969939288"><ele>765.0</ele><time>2026-05-02T09:21:06.999Z</time></trkpt><trkpt lat="44.75440174147307" lon="9.70487703350885"><ele>765.0</ele><time>2026-05-02T09:21:07.999Z</time></trkpt><trkpt lat="44.7545162474631" lon="9.704871851415922"><ele>765.0</ele><time>2026-05-02T09:21:08.999Z</time></trkpt><trkpt lat="44.754621211125176" lon="9.704900994018965"><ele>765.0</ele><time>2026-05-02T09:21:09.999Z</time></trkpt><trkpt lat="44.75470630992395" lon="9.704950286594611"><ele>764.6</ele><time>2026-05-02T09:21:10.999Z</time></trkpt><trkpt lat="44.75477369820246" lon="9.705025528203493"><ele>764.2</ele><time>2026-05-02T09:21:11.999Z</time></trkpt><trkpt lat="44.75483222037385" lon="9.705122905739346"><ele>763.8</ele><time>2026-05-02T09:21:12.999Z</time></trkpt><trkpt lat="44.754889637142185" lon="9.705229149777793"><ele>763.4</ele><time>2026-05-02T09:21:13.999Z</time></trkpt><trkpt lat="44.75496421430881" lon="9.705337763564167"><ele>763.0</ele><time>2026-05-02T09:21:14.999Z</time></trkpt><trkpt lat="44.75507151919626" lon="9.705422889124625"><ele>765.5</ele><time>2026-05-02T09:21:15.999Z</time></trkpt><trkpt lat="44.75518128075821" lon="9.70547977438726"><ele>768.0</ele><time>2026-05-02T09:21:16.999Z</time></trkpt><trkpt lat="44.755297404362345" lon="9.705543267730526"><ele>770.5</ele><time>2026-05-02T09:21:17.999Z</time></trkpt><trkpt lat="44.75540478873983" lon="9.705639904490065"><ele>773.0</ele><time>2026-05-02T09:21:18.999Z</time></trkpt><trkpt lat="44.75548653298842" lon="9.70575803218881"><ele>773.0</ele><time>2026-05-02T09:21:19.999Z</time></trkpt><trkpt lat="44.75555808424985" lon="9.705854898364917"><ele>773.0</ele><time>2026-05-02T09:21:20.999Z</time></trkpt><trkpt lat="44.75563352618079" lon="9.705928682986919"><ele>773.0</ele><time>2026-05-02T09:21:21.999Z</time></trkpt><trkpt lat="44.75572086489315" lon="9.705981675245697"><ele>773.0</ele><time>2026-05-02T09:21:22.999Z</time></trkpt><trkpt lat="44.755817520632476" lon="9.706016388458655"><ele>773.0</ele><time>2026-05-02T09:21:23.999Z</time></trkpt><trkpt lat="44.75590012262227" lon="9.70603631252802"><ele>773.0000000000001</ele><time>2026-05-02T09:21:24.998Z</time></trkpt><trkpt lat="44.75597350899153" lon="9.706072927248586"><ele>773.0</ele><time>2026-05-02T09:21:25.998Z</time></trkpt><trkpt lat="44.75603052265498" lon="9.706142204857024"><ele>773.0</ele><time>2026-05-02T09:21:26.998Z</time></trkpt><trkpt lat="44.75607396664425" lon="9.706238742975113"><ele>773.0</ele><time>2026-05-02T09:21:27.998Z</time></trkpt><trkpt lat="44.75611288049067" lon="9.706350776619374"><ele>773.0000000000001</ele><time>2026-05-02T09:21:28.998Z</time></trkpt><trkpt lat="44.75613432706114" lon="9.706461255285559"><ele>773.0</ele><time>2026-05-02T09:21:29.998Z</time></trkpt><trkpt lat="44.75615408069437" lon="9.706567215361881"><ele>773.5714285714286</ele><time>2026-05-02T09:21:30.998Z</time></trkpt><trkpt lat="44.75616381129784" lon="9.706676834132438"><ele>774.1428571428571</ele><time>2026-05-02T09:21:31.998Z</time></trkpt><trkpt lat="44.75615938376699" lon="9.706791296348177"><ele>774.7142857142858</ele><time>2026-05-02T09:21:32.998Z</time></trkpt><trkpt lat="44.756129734335715" lon="9.706884415343861"><ele>775.2857142857142</ele><time>2026-05-02T09:21:33.998Z</time></trkpt><trkpt lat="44.75608045576895" lon="9.706953635954385"><ele>775.8571428571429</ele><time>2026-05-02T09:21:34.998Z</time></trkpt><trkpt lat="44.75601471605605" lon="9.707000645682493"><ele>776.4285714285714</ele><time>2026-05-02T09:21:35.998Z</time></trkpt><trkpt lat="44.75594639180302" lon="9.707033885679701"><ele>777.0</ele><time>2026-05-02T09:21:36.998Z</time></trkpt><trkpt lat="44.755878211081686" lon="9.707049663641582"><ele>778.2</ele><time>2026-05-02T09:21:37.998Z</time></trkpt><trkpt lat="44.75580238674007" lon="9.70704427884443"><ele>779.4000000000001</ele><time>2026-05-02T09:21:38.998Z</time></trkpt><trkpt lat="44.755723873127806" lon="9.707008413203704"><ele>780.5999999999999</ele><time>2026-05-02T09:21:39.998Z</time></trkpt><trkpt lat="44.75563630348357" lon="9.706959750855653"><ele>781.8</ele><time>2026-05-02T09:21:40.998Z</time></trkpt><trkpt lat="44.755532542924" lon="9.706907301182891"><ele>783.0</ele><time>2026-05-02T09:21:41.998Z</time></trkpt><trkpt lat="44.75543593566461" lon="9.706855776183168"><ele>783.0</ele><time>2026-05-02T09:21:42.998Z</time></trkpt><trkpt lat="44.755309579158194" lon="9.706770920655124"><ele>783.0</ele><time>2026-05-02T09:21:43.998Z</time></trkpt><trkpt lat="44.75518669763739" lon="9.70667540487935"><ele>783.0</ele><time>2026-05-02T09:21:44.998Z</time></trkpt><trkpt lat="44.7550918262102" lon="9.706622518887729"><ele>783.0</ele><time>2026-05-02T09:21:45.998Z</time></trkpt><trkpt lat="44.7549923168732" lon="9.706629510840347"><ele>784.75</ele><time>2026-05-02T09:21:46.998Z</time></trkpt><trkpt lat="44.75489533663897" lon="9.70670366215483"><ele>786.5</ele><time>2026-05-02T09:21:47.998Z</time></trkpt><trkpt lat="44.75481127202891" lon="9.7068343761097"><ele>788.25</ele><time>2026-05-02T09:21:48.998Z</time></trkpt><trkpt lat="44.75475457819994" lon="9.706996116192135"><ele>790.0</ele><time>2026-05-02T09:21:49.998Z</time></trkpt><trkpt lat="44.75475316769545" lon="9.707142766635307"><ele>794.25</ele><time>2026-05-02T09:21:50.998Z</time></trkpt><trkpt lat="44.754802178149426" lon="9.707257691334458"><ele>798.5</ele><time>2026-05-02T09:21:51.998Z</time></trkpt><trkpt lat="44.7548850826327" lon="9.707352813064805"><ele>802.75</ele><time>2026-05-02T09:21:53Z</time></trkpt><trkpt lat="44.75499632735584" lon="9.70742735596309"><ele>807.0</ele><time>2026-05-02T09:21:54Z</time></trkpt><trkpt lat="44.75513861778747" lon="9.707494220784511"><ele>806.75</ele><time>2026-05-02T09:21:55Z</time></trkpt><trkpt lat="44.755297034911514" lon="9.707545295869807"><ele>806.5</ele><time>2026-05-02T09:21:56Z</time></trkpt><trkpt lat="44.75541808979125" lon="9.70759530055586"><ele>806.25</ele><time>2026-05-02T09:21:57Z</time></trkpt><trkpt lat="44.755510634332225" lon="9.707641908221607"><ele>806.0</ele><time>2026-05-02T09:21:58Z</time></trkpt><trkpt lat="44.75557240382913" lon="9.707675646580357"><ele>809.8333333333334</ele><time>2026-05-02T09:21:59Z</time></trkpt><trkpt lat="44.75564896305917" lon="9.70778053902974"><ele>813.6666666666667</ele><time>2026-05-02T09:22:01Z</time></trkpt><trkpt lat="44.75566280084923" lon="9.70788032828397"><ele>817.5</ele><time>2026-05-02T09:22:02Z</time></trkpt><trkpt lat="44.7556577639372" lon="9.707993551354754"><ele>821.3333333333333</ele><time>2026-05-02T09:22:03Z</time></trkpt><trkpt lat="44.755619977950246" lon="9.708102070848092"><ele>825.1666666666666</ele><time>2026-05-02T09:22:04Z</time></trkpt><trkpt lat="44.755547181354736" lon="9.708173667828687"><ele>829.0</ele><time>2026-05-02T09:22:05Z</time></trkpt><trkpt lat="44.755463771176686" lon="9.708208555020926"><ele>829.0</ele><time>2026-05-02T09:22:06Z</time></trkpt><trkpt lat="44.7553763334546" lon="9.708240977648495"><ele>829.0</ele><time>2026-05-02T09:22:07Z</time></trkpt><trkpt lat="44.75527223237399" lon="9.70827130972913"><ele>829.0</ele><time>2026-05-02T09:22:08Z</time></trkpt><trkpt lat="44.75516339661449" lon="9.70828247320828"><ele>829.0</ele><time>2026-05-02T09:22:09Z</time></trkpt><trkpt lat="44.75505434289594" lon="9.708245132356156"><ele>829.0</ele><time>2026-05-02T09:22:10Z</time></trkpt><trkpt lat="44.7549399406216" lon="9.708159523352057"><ele>828.4000000000001</ele><time>2026-05-02T09:22:11Z</time></trkpt><trkpt lat="44.75483592808474" lon="9.708066113882195"><ele>827.8</ele><time>2026-05-02T09:22:12Z</time></trkpt><trkpt lat="44.75474324422145" lon="9.707989294009609"><ele>827.2</ele><time>2026-05-02T09:22:13Z</time></trkpt><trkpt lat="44.75464743062031" lon="9.707938343498483"><ele>826.5999999999999</ele><time>2026-05-02T09:22:14Z</time></trkpt><trkpt lat="44.754541525816485" lon="9.7078939780054"><ele>826.0</ele><time>2026-05-02T09:22:15Z</time></trkpt><trkpt lat="44.75443618837327" lon="9.707863548183362"><ele>826.4</ele><time>2026-05-02T09:22:16Z</time></trkpt><trkpt lat="44.754337148968716" lon="9.707824410684328"><ele>826.8</ele><time>2026-05-02T09:22:17Z</time></trkpt><trkpt lat="44.754242824166965" lon="9.707785801436348"><ele>827.1999999999999</ele><time>2026-05-02T09:22:18Z</time></trkpt><trkpt lat="44.75414346135759" lon="9.707736599244255"><ele>827.5999999999999</ele><time>2026-05-02T09:22:19Z</time></trkpt><trkpt lat="44.75406517734646" lon="9.707664328784084"><ele>828.0</ele><time>2026-05-02T09:22:20Z</time></trkpt><trkpt lat="44.75400219648126" lon="9.70759685740528"><ele>825.5999999999999</ele><time>2026-05-02T09:22:21Z</time></trkpt><trkpt lat="44.75391009255921" lon="9.70752675811361"><ele>823.1999999999999</ele><time>2026-05-02T09:22:23Z</time></trkpt><trkpt lat="44.75383111668308" lon="9.707465627530832"><ele>820.8</ele><time>2026-05-02T09:22:25Z</time></trkpt><trkpt lat="44.753760310819274" lon="9.707371852741108"><ele>818.4</ele><time>2026-05-02T09:22:27Z</time></trkpt><trkpt lat="44.753668659554265" lon="9.707313495064275"><ele>816.0</ele><time>2026-05-02T09:22:29Z</time></trkpt><trkpt lat="44.75360340025612" lon="9.707305686303007"><ele>818.0</ele><time>2026-05-02T09:22:30Z</time></trkpt><trkpt lat="44.75349488612353" lon="9.707395621105924"><ele>820.0</ele><time>2026-05-02T09:22:32Z</time></trkpt><trkpt lat="44.7534674401874" lon="9.70750038813828"><ele>822.0</ele><time>2026-05-02T09:22:33Z</time></trkpt><trkpt lat="44.75344365723076" lon="9.707593639054123"><ele>824.0</ele><time>2026-05-02T09:22:34Z</time></trkpt><trkpt lat="44.753387852480564" lon="9.707703190962624"><ele>826.0</ele><time>2026-05-02T09:22:35Z</time></trkpt><trkpt lat="44.75330011940746" lon="9.707791858690197"><ele>826.75</ele><time>2026-05-02T09:22:35.999Z</time></trkpt><trkpt lat="44.753206130856725" lon="9.70785676567016"><ele>827.5</ele><time>2026-05-02T09:22:36.999Z</time></trkpt><trkpt lat="44.753100886743454" lon="9.707929377918761"><ele>828.25</ele><time>2026-05-02T09:22:37.999Z</time></trkpt><trkpt lat="44.7529790825484" lon="9.708022588598151"><ele>829.0</ele><time>2026-05-02T09:22:38.999Z</time></trkpt><trkpt lat="44.75286331554688" lon="9.7081202204737"><ele>829.0</ele><time>2026-05-02T09:22:39.999Z</time></trkpt><trkpt lat="44.752755579553636" lon="9.70820672728337"><ele>829.0</ele><time>2026-05-02T09:22:40.999Z</time></trkpt><trkpt lat="44.75264412759794" lon="9.708298721194396"><ele>829.0</ele><time>2026-05-02T09:22:41.999Z</time></trkpt><trkpt lat="44.7525168583613" lon="9.708408385956155"><ele>829.0</ele><time>2026-05-02T09:22:42.999Z</time></trkpt><trkpt lat="44.752389519544415" lon="9.70852083553323"><ele>831.25</ele><time>2026-05-02T09:22:43.999Z</time></trkpt><trkpt lat="44.75227022129657" lon="9.708626612582705"><ele>833.5</ele><time>2026-05-02T09:22:44.999Z</time></trkpt><trkpt lat="44.752153504888064" lon="9.708731073844838"><ele>835.75</ele><time>2026-05-02T09:22:45.999Z</time></trkpt><trkpt lat="44.752042540628395" lon="9.708825074351479"><ele>838.0</ele><time>2026-05-02T09:22:46.999Z</time></trkpt><trkpt lat="44.75192676127347" lon="9.708894264959584"><ele>840.75</ele><time>2026-05-02T09:22:47.999Z</time></trkpt><trkpt lat="44.75180801516506" lon="9.708938797254797"><ele>843.5</ele><time>2026-05-02T09:22:48.999Z</time></trkpt><trkpt lat="44.751684213619676" lon="9.708956493770986"><ele>846.25</ele><time>2026-05-02T09:22:49.999Z</time></trkpt><trkpt lat="44.75155628342972" lon="9.708935257829603"><ele>849.0</ele><time>2026-05-02T09:22:50.999Z</time></trkpt><trkpt lat="44.751456658450635" lon="9.708889368186735"><ele>849.0</ele><time>2026-05-02T09:22:51.999Z</time></trkpt><trkpt lat="44.75138620677678" lon="9.708883619278676"><ele>849.0</ele><time>2026-05-02T09:22:52.999Z</time></trkpt><trkpt lat="44.75131309624353" lon="9.708927543074882"><ele>849.0</ele><time>2026-05-02T09:22:53.999Z</time></trkpt><trkpt lat="44.751236601117554" lon="9.709027408280383"><ele>849.0</ele><time>2026-05-02T09:22:54.999Z</time></trkpt><trkpt lat="44.75115887139885" lon="9.70913977013739"><ele>849.0</ele><time>2026-05-02T09:22:55.999Z</time></trkpt><trkpt lat="44.751073212509084" lon="9.709259144598422"><ele>849.75</ele><time>2026-05-02T09:22:56.999Z</time></trkpt><trkpt lat="44.750986188485776" lon="9.709386340657375"><ele>850.5</ele><time>2026-05-02T09:22:57.999Z</time></trkpt><trkpt lat="44.75089094581477" lon="9.70952518165812"><ele>851.25</ele><time>2026-05-02T09:22:58.999Z</time></trkpt><trkpt lat="44.75079864504158" lon="9.709661333110896"><ele>852.0</ele><time>2026-05-02T09:22:59.999Z</time></trkpt><trkpt lat="44.75071101198246" lon="9.70978271078751"><ele>856.2</ele><time>2026-05-02T09:23:00.999Z</time></trkpt><trkpt lat="44.7506318379022" lon="9.7098968926861"><ele>860.4000000000001</ele><time>2026-05-02T09:23:01.999Z</time></trkpt><trkpt lat="44.750554310472644" lon="9.70999715502008"><ele>864.5999999999999</ele><time>2026-05-02T09:23:02.999Z</time></trkpt><trkpt lat="44.7504796999837" lon="9.71006921617339"><ele>868.8</ele><time>2026-05-02T09:23:03.999Z</time></trkpt><trkpt lat="44.7504026060422" lon="9.710096360539497"><ele>873.0</ele><time>2026-05-02T09:23:04.999Z</time></trkpt><trkpt lat="44.75030774371791" lon="9.710078112130423"><ele>873.0</ele><time>2026-05-02T09:23:05.999Z</time></trkpt><trkpt lat="44.75020871750141" lon="9.710022711511986"><ele>873.0</ele><time>2026-05-02T09:23:06.999Z</time></trkpt><trkpt lat="44.750111251851536" lon="9.709929838916992"><ele>873.0</ele><time>2026-05-02T09:23:07.999Z</time></trkpt><trkpt lat="44.75002593345139" lon="9.709799491295316"><ele>873.0</ele><time>2026-05-02T09:23:08.999Z</time></trkpt><trkpt lat="44.74995571082936" lon="9.709677893526022"><ele>871.2</ele><time>2026-05-02T09:23:09.999Z</time></trkpt><trkpt lat="44.74988305386673" lon="9.709566353357674"><ele>869.4</ele><time>2026-05-02T09:23:10.999Z</time></trkpt><trkpt lat="44.749793422080955" lon="9.709486280141624"><ele>867.6000000000001</ele><time>2026-05-02T09:23:11.999Z</time></trkpt><trkpt lat="44.74969075246264" lon="9.70944413879647"><ele>865.8000000000001</ele><time>2026-05-02T09:23:12.999Z</time></trkpt><trkpt lat="44.74958990428062" lon="9.709433722344167"><ele>864.0</ele><time>2026-05-02T09:23:13.999Z</time></trkpt><trkpt lat="44.74949583581993" lon="9.709465654923045"><ele>864.0</ele><time>2026-05-02T09:23:14.999Z</time></trkpt><trkpt lat="44.749403799103874" lon="9.709518862435278"><ele>864.0000000000001</ele><time>2026-05-02T09:23:15.999Z</time></trkpt><trkpt lat="44.7493224457614" lon="9.709573098420723"><ele>864.0000000000001</ele><time>2026-05-02T09:23:16.999Z</time></trkpt><trkpt lat="44.74923815498103" lon="9.70962434664049"><ele>864.0</ele><time>2026-05-02T09:23:17.999Z</time></trkpt><trkpt lat="44.74913509792078" lon="9.709668239904172"><ele>864.0</ele><time>2026-05-02T09:23:18.999Z</time></trkpt><trkpt lat="44.749003099125424" lon="9.709673221509384"><ele>867.25</ele><time>2026-05-02T09:23:19.999Z</time></trkpt><trkpt lat="44.74886431677153" lon="9.709679000489144"><ele>870.5</ele><time>2026-05-02T09:23:20.999Z</time></trkpt><trkpt lat="44.74872644346227" lon="9.709671695470542"><ele>873.75</ele><time>2026-05-02T09:23:21.999Z</time></trkpt><trkpt lat="44.74860113761546" lon="9.709650065623975"><ele>877.0</ele><time>2026-05-02T09:23:22.999Z</time></trkpt><trkpt lat="44.74847421844017" lon="9.709611283413642"><ele>878.5</ele><time>2026-05-02T09:23:23.999Z</time></trkpt><trkpt lat="44.74835499060548" lon="9.70954151656051"><ele>880.0</ele><time>2026-05-02T09:23:24.999Z</time></trkpt><trkpt lat="44.74825820571618" lon="9.709441373240102"><ele>881.5</ele><time>2026-05-02T09:23:25.998Z</time></trkpt><trkpt lat="44.74816752990512" lon="9.709356390989244"><ele>883.0</ele><time>2026-05-02T09:23:26.998Z</time></trkpt><trkpt lat="44.74808033720241" lon="9.709272836649019"><ele>883.0</ele><time>2026-05-02T09:23:27.998Z</time></trkpt><trkpt lat="44.74798644774968" lon="9.70919012738392"><ele>883.0</ele><time>2026-05-02T09:23:28.998Z</time></trkpt><trkpt lat="44.747886585771745" lon="9.70910175249212"><ele>883.0</ele><time>2026-05-02T09:23:29.998Z</time></trkpt><trkpt lat="44.74778294271529" lon="9.709012630776945"><ele>883.0</ele><time>2026-05-02T09:23:30.998Z</time></trkpt><trkpt lat="44.7476842791298" lon="9.708934465182"><ele>884.6666666666666</ele><time>2026-05-02T09:23:31.998Z</time></trkpt><trkpt lat="44.747608047740165" lon="9.708870505556888"><ele>886.3333333333333</ele><time>2026-05-02T09:23:32.998Z</time></trkpt><trkpt lat="44.747550327621376" lon="9.70882708174201"><ele>888.0</ele><time>2026-05-02T09:23:33.998Z</time></trkpt><trkpt lat="44.74748114343561" lon="9.708763661312815"><ele>889.6666666666667</ele><time>2026-05-02T09:23:36.998Z</time></trkpt><trkpt lat="44.747417545379975" lon="9.708714975879294"><ele>891.3333333333334</ele><time>2026-05-02T09:23:41.998Z</time></trkpt><trkpt lat="44.74737630732996" lon="9.708618021636351"><ele>893.0</ele><time>2026-05-02T09:23:44.998Z</time></trkpt><trkpt lat="44.74735217340112" lon="9.70846868601947"><ele>893.0000000000001</ele><time>2026-05-02T09:23:46.998Z</time></trkpt><trkpt lat="44.74736412433826" lon="9.708366887723663"><ele>893.0</ele><time>2026-05-02T09:23:47.998Z</time></trkpt><trkpt lat="44.74733890797153" lon="9.708192539855073"><ele>893.0</ele><time>2026-05-02T09:23:49.998Z</time></trkpt><trkpt lat="44.74729643223398" lon="9.708109881177535"><ele>893.0</ele><time>2026-05-02T09:23:50.998Z</time></trkpt><trkpt lat="44.747247859648965" lon="9.708033968984338"><ele>893.0000000000001</ele><time>2026-05-02T09:23:51.998Z</time></trkpt><trkpt lat="44.74720942254743" lon="9.707905162843359"><ele>893.0</ele><time>2026-05-02T09:23:53.998Z</time></trkpt><trkpt lat="44.747101028725886" lon="9.707882275090967"><ele>893.0000000000001</ele><time>2026-05-02T09:23:55.998Z</time></trkpt><trkpt lat="44.74701195645712" lon="9.70776023804566"><ele>893.0</ele><time>2026-05-02T09:23:57.998Z</time></trkpt><trkpt lat="44.74700048448755" lon="9.707665552272625"><ele>893.0</ele><time>2026-05-02T09:23:59Z</time></trkpt><trkpt lat="44.74699261917228" lon="9.707506644308276"><ele>893.0</ele><time>2026-05-02T09:24:01Z</time></trkpt><trkpt lat="44.74697618946679" lon="9.70740955674134"><ele>893.0000000000001</ele><time>2026-05-02T09:24:02Z</time></trkpt><trkpt lat="44.74695751173207" lon="9.707318495449945"><ele>893.0</ele><time>2026-05-02T09:24:03Z</time></trkpt><trkpt lat="44.746936003135204" lon="9.707219910596045"><ele>893.0000000000001</ele><time>2026-05-02T09:24:04Z</time></trkpt><trkpt lat="44.74691470453328" lon="9.707127519628328"><ele>893.0</ele><time>2026-05-02T09:24:05Z</time></trkpt><trkpt lat="44.746887821262575" lon="9.70702530203436"><ele>893.0</ele><time>2026-05-02T09:24:06Z</time></trkpt><trkpt lat="44.74685906203476" lon="9.70694242626843"><ele>893.0</ele><time>2026-05-02T09:24:07Z</time></trkpt><trkpt lat="44.74679347945616" lon="9.706821169338486"><ele>893.0000000000001</ele><time>2026-05-02T09:24:09Z</time></trkpt><trkpt lat="44.74673382742717" lon="9.706663331347128"><ele>893.0</ele><time>2026-05-02T09:24:11Z</time></trkpt><trkpt lat="44.746694770459186" lon="9.706578080513461"><ele>894.7142857142858</ele><time>2026-05-02T09:24:12Z</time></trkpt><trkpt lat="44.7466643985066" lon="9.706470139522466"><ele>896.4285714285714</ele><time>2026-05-02T09:24:13Z</time></trkpt><trkpt lat="44.74664759446339" lon="9.706377294613803"><ele>898.1428571428571</ele><time>2026-05-02T09:24:14Z</time></trkpt><trkpt lat="44.74661962434167" lon="9.706278032231667"><ele>899.8571428571429</ele><time>2026-05-02T09:24:15Z</time></trkpt><trkpt lat="44.746588159589464" lon="9.706191431187749"><ele>901.5714285714284</ele><time>2026-05-02T09:24:16Z</time></trkpt><trkpt lat="44.74654764479841" lon="9.706121520578746"><ele>903.2857142857142</ele><time>2026-05-02T09:24:17Z</time></trkpt><trkpt lat="44.7465022324351" lon="9.706021986803496"><ele>905.0</ele><time>2026-05-02T09:24:18Z</time></trkpt><trkpt lat="44.74646779601666" lon="9.705916800647962"><ele>906.0000000000001</ele><time>2026-05-02T09:24:19Z</time></trkpt><trkpt lat="44.7464347136078" lon="9.70579546257733"><ele>907.0</ele><time>2026-05-02T09:24:20Z</time></trkpt><trkpt lat="44.74640055315638" lon="9.705682077677185"><ele>908.0</ele><time>2026-05-02T09:24:21Z</time></trkpt><trkpt lat="44.74637138220841" lon="9.705583465508928"><ele>909.0</ele><time>2026-05-02T09:24:22Z</time></trkpt><trkpt lat="44.7463369037675" lon="9.705509248082945"><ele>910.0000000000001</ele><time>2026-05-02T09:24:23Z</time></trkpt><trkpt lat="44.746267288648866" lon="9.705397748319234"><ele>911.0</ele><time>2026-05-02T09:24:25Z</time></trkpt><trkpt lat="44.74620581314929" lon="9.705252730681666"><ele>912.0000000000001</ele><time>2026-05-02T09:24:27Z</time></trkpt><trkpt lat="44.74616606171214" lon="9.705160283035971"><ele>913.0</ele><time>2026-05-02T09:24:28Z</time></trkpt><trkpt lat="44.746114925012854" lon="9.705090696357209"><ele>914.0</ele><time>2026-05-02T09:24:29Z</time></trkpt><trkpt lat="44.74606328809133" lon="9.705027910803626"><ele>915.0</ele><time>2026-05-02T09:24:30Z</time></trkpt><trkpt lat="44.74600957009974" lon="9.704967460356272"><ele>916.0000000000001</ele><time>2026-05-02T09:24:31Z</time></trkpt><trkpt lat="44.745951220088806" lon="9.704905374043165"><ele>917.0</ele><time>2026-05-02T09:24:32Z</time></trkpt><trkpt lat="44.745867372306556" lon="9.704803380389908"><ele>917.0</ele><time>2026-05-02T09:24:34Z</time></trkpt><trkpt lat="44.7457875412592" lon="9.704712530102984"><ele>917.0</ele><time>2026-05-02T09:24:36Z</time></trkpt><trkpt lat="44.745713419832306" lon="9.704666634027118"><ele>917.0</ele><time>2026-05-02T09:24:38Z</time></trkpt><trkpt lat="44.7456599582216" lon="9.704560258611226"><ele>917.0</ele><time>2026-05-02T09:24:40.999Z</time></trkpt><trkpt lat="44.745626776646084" lon="9.70445163916756"><ele>917.0</ele><time>2026-05-02T09:24:41.999Z</time></trkpt><trkpt lat="44.74559619655816" lon="9.704332554673666"><ele>917.5000000000001</ele><time>2026-05-02T09:24:42.999Z</time></trkpt><trkpt lat="44.74556667888359" lon="9.704233609552897"><ele>918.0</ele><time>2026-05-02T09:24:43.999Z</time></trkpt><trkpt lat="44.74553963426414" lon="9.7041528412137"><ele>918.5</ele><time>2026-05-02T09:24:44.999Z</time></trkpt><trkpt lat="44.74551907290611" lon="9.704052562653048"><ele>919.0</ele><time>2026-05-02T09:24:45.999Z</time></trkpt><trkpt lat="44.74550779044586" lon="9.703942410358117"><ele>919.5000000000001</ele><time>2026-05-02T09:24:46.999Z</time></trkpt><trkpt lat="44.7454905543801" lon="9.703827608630819"><ele>920.0</ele><time>2026-05-02T09:24:47.999Z</time></trkpt><trkpt lat="44.74547839370968" lon="9.703716046851653"><ele>919.3333333333334</ele><time>2026-05-02T09:24:48.999Z</time></trkpt><trkpt lat="44.74545404083793" lon="9.703547017968331"><ele>918.6666666666667</ele><time>2026-05-02T09:24:50.999Z</time></trkpt><trkpt lat="44.74540454804887" lon="9.703466052558065"><ele>918.0</ele><time>2026-05-02T09:24:51.999Z</time></trkpt><trkpt lat="44.745343335886986" lon="9.703384706351324"><ele>917.3333333333333</ele><time>2026-05-02T09:24:52.999Z</time></trkpt><trkpt lat="44.74528994013761" lon="9.703311321178314"><ele>916.6666666666666</ele><time>2026-05-02T09:24:53.999Z</time></trkpt><trkpt lat="44.745241388944" lon="9.703246406788201"><ele>916.0</ele><time>2026-05-02T09:24:54.999Z</time></trkpt><trkpt lat="44.74516957983643" lon="9.70313710725648"><ele>917.8333333333333</ele><time>2026-05-02T09:24:56.999Z</time></trkpt><trkpt lat="44.74506698301752" lon="9.703057647865839"><ele>919.6666666666666</ele><time>2026-05-02T09:24:58.999Z</time></trkpt><trkpt lat="44.74501093491235" lon="9.703013751072001"><ele>921.5</ele><time>2026-05-02T09:24:59.999Z</time></trkpt><trkpt lat="44.7449486036682" lon="9.702947776683429"><ele>923.3333333333333</ele><time>2026-05-02T09:25:00.999Z</time></trkpt><trkpt lat="44.74490351056347" lon="9.702862169106883"><ele>925.1666666666666</ele><time>2026-05-02T09:25:01.999Z</time></trkpt><trkpt lat="44.744846970350785" lon="9.702783806178497"><ele>927.0</ele><time>2026-05-02T09:25:02.999Z</time></trkpt><trkpt lat="44.744779466375796" lon="9.702710964768142"><ele>927.5</ele><time>2026-05-02T09:25:03.999Z</time></trkpt><trkpt lat="44.74472291540964" lon="9.702627418724484"><ele>928.0</ele><time>2026-05-02T09:25:04.999Z</time></trkpt><trkpt lat="44.74467649426967" lon="9.702538959713175"><ele>928.5</ele><time>2026-05-02T09:25:05.999Z</time></trkpt><trkpt lat="44.74465126749796" lon="9.702436610335088"><ele>929.0</ele><time>2026-05-02T09:25:06.999Z</time></trkpt><trkpt lat="44.74462471010029" lon="9.702324148809007"><ele>929.5</ele><time>2026-05-02T09:25:07.999Z</time></trkpt><trkpt lat="44.74458699320676" lon="9.702186660930389"><ele>930.0</ele><time>2026-05-02T09:25:08.999Z</time></trkpt><trkpt lat="44.744542583614816" lon="9.702059238308761"><ele>930.0</ele><time>2026-05-02T09:25:09.999Z</time></trkpt><trkpt lat="44.744511708637226" lon="9.701947269881636"><ele>930.0</ele><time>2026-05-02T09:25:10.999Z</time></trkpt><trkpt lat="44.74448426051954" lon="9.701861633016708"><ele>930.0</ele><time>2026-05-02T09:25:11.999Z</time></trkpt><trkpt lat="44.74443634715927" lon="9.701694137927134"><ele>930.0</ele><time>2026-05-02T09:25:13.999Z</time></trkpt><trkpt lat="44.74441112312333" lon="9.70160267660832"><ele>930.0</ele><time>2026-05-02T09:25:14.999Z</time></trkpt><trkpt lat="44.74436267909645" lon="9.701439327439191"><ele>930.3333333333334</ele><time>2026-05-02T09:25:16.999Z</time></trkpt><trkpt lat="44.74437659862469" lon="9.701343065916062"><ele>930.6666666666667</ele><time>2026-05-02T09:25:17.999Z</time></trkpt><trkpt lat="44.744377568566286" lon="9.701246349500193"><ele>931.0</ele><time>2026-05-02T09:25:18.999Z</time></trkpt><trkpt lat="44.744360664402286" lon="9.701144873602917"><ele>931.3333333333334</ele><time>2026-05-02T09:25:19.999Z</time></trkpt><trkpt lat="44.744348658555495" lon="9.701034702619117"><ele>931.6666666666667</ele><time>2026-05-02T09:25:20.999Z</time></trkpt><trkpt lat="44.74433884945946" lon="9.700914946460903"><ele>932.0</ele><time>2026-05-02T09:25:21.999Z</time></trkpt><trkpt lat="44.74434445191419" lon="9.700776097357808"><ele>932.8</ele><time>2026-05-02T09:25:22.999Z</time></trkpt><trkpt lat="44.744343291052864" lon="9.700663925518315"><ele>933.6</ele><time>2026-05-02T09:25:23.999Z</time></trkpt><trkpt lat="44.744334461614244" lon="9.700561131800924"><ele>934.3999999999999</ele><time>2026-05-02T09:25:24.999Z</time></trkpt><trkpt lat="44.74432969615528" lon="9.700369415353434"><ele>935.1999999999999</ele><time>2026-05-02T09:25:26.999Z</time></trkpt><trkpt lat="44.74434546496479" lon="9.70026540095952"><ele>936.0</ele><time>2026-05-02T09:25:27.999Z</time></trkpt><trkpt lat="44.74431992036697" lon="9.70014598302434"><ele>937.0</ele><time>2026-05-02T09:25:29.999Z</time></trkpt><trkpt lat="44.744246595110866" lon="9.699904034097957"><ele>938.0</ele><time>2026-05-02T09:25:42.998Z</time></trkpt><trkpt lat="44.74420695222274" lon="9.699804489374225"><ele>939.0</ele><time>2026-05-02T09:25:44.998Z</time></trkpt><trkpt lat="44.74415602958822" lon="9.699679358196477"><ele>940.0</ele><time>2026-05-02T09:25:46.998Z</time></trkpt><trkpt lat="44.74411118870055" lon="9.699525166850956"><ele>941.6666666666666</ele><time>2026-05-02T09:25:48.998Z</time></trkpt><trkpt lat="44.74404987154928" lon="9.699374962602326"><ele>943.3333333333333</ele><time>2026-05-02T09:25:50.998Z</time></trkpt><trkpt lat="44.74400881674229" lon="9.699292634922854"><ele>945.0</ele><time>2026-05-02T09:25:51.998Z</time></trkpt><trkpt lat="44.743986295344754" lon="9.699199699620461"><ele>946.6666666666667</ele><time>2026-05-02T09:25:52.998Z</time></trkpt><trkpt lat="44.74392114054016" lon="9.6991150345293"><ele>948.3333333333334</ele><time>2026-05-02T09:25:53.998Z</time></trkpt><trkpt lat="44.743865656735515" lon="9.6990435998537"><ele>950.0</ele><time>2026-05-02T09:25:54.998Z</time></trkpt><trkpt lat="44.74379867475628" lon="9.699035811290642"><ele>950.0000000000001</ele><time>2026-05-02T09:25:55.998Z</time></trkpt><trkpt lat="44.74371910708559" lon="9.698985413546902"><ele>950.0</ele><time>2026-05-02T09:25:57.998Z</time></trkpt><trkpt lat="44.74368106296542" lon="9.698902648304308"><ele>950.0</ele><time>2026-05-02T09:26:10Z</time></trkpt><trkpt lat="44.74365283275953" lon="9.698778819287696"><ele>950.0</ele><time>2026-05-02T09:26:13Z</time></trkpt><trkpt lat="44.74361578863316" lon="9.698650062475359"><ele>950.0000000000001</ele><time>2026-05-02T09:26:16Z</time></trkpt><trkpt lat="44.74358811591637" lon="9.698569569947443"><ele>950.0</ele><time>2026-05-02T09:26:18Z</time></trkpt><trkpt lat="44.7435755328984" lon="9.698476038441429"><ele>951.1666666666667</ele><time>2026-05-02T09:26:19Z</time></trkpt><trkpt lat="44.74355314869447" lon="9.698346761941501"><ele>952.3333333333334</ele><time>2026-05-02T09:26:20Z</time></trkpt><trkpt lat="44.74351137158264" lon="9.698246028251226"><ele>953.5</ele><time>2026-05-02T09:26:21Z</time></trkpt><trkpt lat="44.74349777107607" lon="9.698141837427816"><ele>954.6666666666667</ele><time>2026-05-02T09:26:22Z</time></trkpt><trkpt lat="44.74347155187693" lon="9.69804436299191"><ele>955.8333333333334</ele><time>2026-05-02T09:26:23Z</time></trkpt><trkpt lat="44.74346686174484" lon="9.697942107823208"><ele>957.0</ele><time>2026-05-02T09:26:24Z</time></trkpt><trkpt lat="44.743496267163096" lon="9.697780943762483"><ele>956.2</ele><time>2026-05-02T09:26:26Z</time></trkpt><trkpt lat="44.743546531755975" lon="9.69769402369662"><ele>955.4000000000001</ele><time>2026-05-02T09:26:27Z</time></trkpt><trkpt lat="44.743628026007805" lon="9.697556462666014"><ele>954.5999999999999</ele><time>2026-05-02T09:26:28Z</time></trkpt><trkpt lat="44.74370312602465" lon="9.697419554389596"><ele>953.8</ele><time>2026-05-02T09:26:29Z</time></trkpt><trkpt lat="44.74376026386495" lon="9.697310561358332"><ele>953.0</ele><time>2026-05-02T09:26:30Z</time></trkpt><trkpt lat="44.743805242745545" lon="9.69722098432172"><ele>953.0000000000001</ele><time>2026-05-02T09:26:31Z</time></trkpt><trkpt lat="44.74382811413451" lon="9.697115213130038"><ele>953.0</ele><time>2026-05-02T09:26:32Z</time></trkpt><trkpt lat="44.743838544958955" lon="9.696990383277235"><ele>953.0</ele><time>2026-05-02T09:26:33Z</time></trkpt><trkpt lat="44.74383506928928" lon="9.696861727072704"><ele>953.0</ele><time>2026-05-02T09:26:34Z</time></trkpt><trkpt lat="44.7438340517815" lon="9.696741235744293"><ele>953.0000000000001</ele><time>2026-05-02T09:26:35Z</time></trkpt><trkpt lat="44.74384915601213" lon="9.696637172740717"><ele>953.0</ele><time>2026-05-02T09:26:36Z</time></trkpt><trkpt lat="44.74387236098212" lon="9.696536904666255"><ele>951.6666666666667</ele><time>2026-05-02T09:26:37Z</time></trkpt><trkpt lat="44.74390713725095" lon="9.696448334085265"><ele>950.3333333333334</ele><time>2026-05-02T09:26:38Z</time></trkpt><trkpt lat="44.74393803898253" lon="9.696368841461782"><ele>949.0</ele><time>2026-05-02T09:26:39Z</time></trkpt><trkpt lat="44.74398880946225" lon="9.696212316276272"><ele>947.6666666666667</ele><time>2026-05-02T09:26:41Z</time></trkpt><trkpt lat="44.7439906356588" lon="9.696117752885431"><ele>946.3333333333334</ele><time>2026-05-02T09:26:42Z</time></trkpt><trkpt lat="44.744006334130695" lon="9.69596001408385"><ele>945.0</ele><time>2026-05-02T09:26:44Z</time></trkpt><trkpt lat="44.74409430673343" lon="9.695826858056401"><ele>944.1428571428571</ele><time>2026-05-02T09:26:46Z</time></trkpt><trkpt lat="44.74413271578788" lon="9.695746597852864"><ele>943.2857142857142</ele><time>2026-05-02T09:26:47Z</time></trkpt><trkpt lat="44.74416544303543" lon="9.695647654648868"><ele>942.4285714285714</ele><time>2026-05-02T09:26:47.999Z</time></trkpt><trkpt lat="44.74419453795442" lon="9.69553504445338"><ele>941.5714285714286</ele><time>2026-05-02T09:26:48.999Z</time></trkpt><trkpt lat="44.74421582965594" lon="9.69543110892921"><ele>940.7142857142857</ele><time>2026-05-02T09:26:49.999Z</time></trkpt><trkpt lat="44.744242053926" lon="9.695342661903613"><ele>939.8571428571429</ele><time>2026-05-02T09:26:50.999Z</time></trkpt><trkpt lat="44.74426340602479" lon="9.695251064980203"><ele>939.0</ele><time>2026-05-02T09:26:51.999Z</time></trkpt><trkpt lat="44.744260865731654" lon="9.69511504711872"><ele>938.5</ele><time>2026-05-02T09:26:53.999Z</time></trkpt><trkpt lat="44.74423599720478" lon="9.69503021013181"><ele>938.0</ele><time>2026-05-02T09:26:54.999Z</time></trkpt><trkpt lat="44.74421348555758" lon="9.694925889665646"><ele>937.5</ele><time>2026-05-02T09:26:55.999Z</time></trkpt><trkpt lat="44.74419926590196" lon="9.69481274912032"><ele>937.0</ele><time>2026-05-02T09:26:56.999Z</time></trkpt><trkpt lat="44.74421465451442" lon="9.694710648667415"><ele>936.5</ele><time>2026-05-02T09:26:57.999Z</time></trkpt><trkpt lat="44.74424387944243" lon="9.694595606610866"><ele>936.0</ele><time>2026-05-02T09:26:58.999Z</time></trkpt><trkpt lat="44.74426865203272" lon="9.694486792171798"><ele>935.3333333333334</ele><time>2026-05-02T09:26:59.999Z</time></trkpt><trkpt lat="44.74428589340885" lon="9.694336685865492"><ele>934.6666666666667</ele><time>2026-05-02T09:27:00.999Z</time></trkpt><trkpt lat="44.74430526713161" lon="9.694211638801075"><ele>934.0</ele><time>2026-05-02T09:27:01.999Z</time></trkpt><trkpt lat="44.74430979279404" lon="9.694102048513836"><ele>933.3333333333334</ele><time>2026-05-02T09:27:02.999Z</time></trkpt><trkpt lat="44.74429428516345" lon="9.694015230770164"><ele>932.6666666666667</ele><time>2026-05-02T09:27:03.999Z</time></trkpt><trkpt lat="44.744294133817895" lon="9.69390818372625"><ele>932.0</ele><time>2026-05-02T09:27:04.999Z</time></trkpt><trkpt lat="44.7443193933016" lon="9.693714260086795"><ele>932.0000000000001</ele><time>2026-05-02T09:27:06.999Z</time></trkpt><trkpt lat="44.744342303835914" lon="9.69359975544693"><ele>932.0</ele><time>2026-05-02T09:27:07.999Z</time></trkpt><trkpt lat="44.744365129398616" lon="9.693484532654304"><ele>932.0</ele><time>2026-05-02T09:27:08.999Z</time></trkpt><trkpt lat="44.74437964661508" lon="9.693380274046078"><ele>932.0</ele><time>2026-05-02T09:27:09.999Z</time></trkpt><trkpt lat="44.74437641252332" lon="9.693272929516331"><ele>932.0000000000001</ele><time>2026-05-02T09:27:10.999Z</time></trkpt><trkpt lat="44.744353155840386" lon="9.693165360905212"><ele>932.0</ele><time>2026-05-02T09:27:11.999Z</time></trkpt><trkpt lat="44.744337673161084" lon="9.693052697995144"><ele>930.5000000000001</ele><time>2026-05-02T09:27:12.999Z</time></trkpt><trkpt lat="44.74434729867702" lon="9.692953509897627"><ele>929.0</ele><time>2026-05-02T09:27:13.999Z</time></trkpt><trkpt lat="44.744360474468685" lon="9.692866218019239"><ele>927.5</ele><time>2026-05-02T09:27:14.999Z</time></trkpt><trkpt lat="44.74433526793537" lon="9.692706398877325"><ele>926.0</ele><time>2026-05-02T09:27:16.999Z</time></trkpt><trkpt lat="44.74432957619099" lon="9.692616349469953"><ele>924.5000000000001</ele><time>2026-05-02T09:27:17.999Z</time></trkpt><trkpt lat="44.74429263397005" lon="9.692442602664324"><ele>923.0</ele><time>2026-05-02T09:27:19.999Z</time></trkpt><trkpt lat="44.74423066695894" lon="9.69228818605056"><ele>922.6666666666667</ele><time>2026-05-02T09:27:21.999Z</time></trkpt><trkpt lat="44.74417832813053" lon="9.692144441254216"><ele>922.3333333333334</ele><time>2026-05-02T09:27:23.999Z</time></trkpt><trkpt lat="44.74416334263334" lon="9.692051229395194"><ele>922.0</ele><time>2026-05-02T09:27:24.999Z</time></trkpt><trkpt lat="44.74415216746997" lon="9.691954937856156"><ele>921.6666666666667</ele><time>2026-05-02T09:27:25.999Z</time></trkpt><trkpt lat="44.7441091401127" lon="9.691804031046734"><ele>921.3333333333334</ele><time>2026-05-02T09:27:27.999Z</time></trkpt><trkpt lat="44.74406083037034" lon="9.69173409940752"><ele>921.0</ele><time>2026-05-02T09:27:28.999Z</time></trkpt><trkpt lat="44.74402257648868" lon="9.691653707366449"><ele>920.1666666666666</ele><time>2026-05-02T09:27:29.999Z</time></trkpt><trkpt lat="44.743987803886256" lon="9.691554788580218"><ele>919.3333333333333</ele><time>2026-05-02T09:27:30.999Z</time></trkpt><trkpt lat="44.743952339920604" lon="9.69145487969352"><ele>918.5</ele><time>2026-05-02T09:27:31.999Z</time></trkpt><trkpt lat="44.74391414579546" lon="9.691342792523333"><ele>917.6666666666666</ele><time>2026-05-02T09:27:32.999Z</time></trkpt><trkpt lat="44.74387382246648" lon="9.691250598405846"><ele>916.8333333333333</ele><time>2026-05-02T09:27:33.999Z</time></trkpt><trkpt lat="44.74384032914258" lon="9.691170533887163"><ele>916.0</ele><time>2026-05-02T09:27:34.999Z</time></trkpt><trkpt lat="44.74380787966961" lon="9.691072702030475"><ele>915.1666666666666</ele><time>2026-05-02T09:27:35.999Z</time></trkpt><trkpt lat="44.74377205102453" lon="9.690956114185273"><ele>914.3333333333333</ele><time>2026-05-02T09:27:36.999Z</time></trkpt><trkpt lat="44.74373659327112" lon="9.690842942347105"><ele>913.5</ele><time>2026-05-02T09:27:37.998Z</time></trkpt><trkpt lat="44.74370059316735" lon="9.690722209065887"><ele>912.6666666666667</ele><time>2026-05-02T09:27:38.998Z</time></trkpt><trkpt lat="44.74367276949325" lon="9.69062268010041"><ele>911.8333333333334</ele><time>2026-05-02T09:27:39.998Z</time></trkpt><trkpt lat="44.74364454654185" lon="9.690524419221946"><ele>911.0</ele><time>2026-05-02T09:27:40.998Z</time></trkpt><trkpt lat="44.74360521082771" lon="9.690412391291572"><ele>911.0000000000001</ele><time>2026-05-02T09:27:41.998Z</time></trkpt><trkpt lat="44.74357716435765" lon="9.690303541110813"><ele>911.0</ele><time>2026-05-02T09:27:42.998Z</time></trkpt><trkpt lat="44.74354941364969" lon="9.690177185234592"><ele>911.0</ele><time>2026-05-02T09:27:44.998Z</time></trkpt><trkpt lat="44.74352042817285" lon="9.69005793827138"><ele>911.0</ele><time>2026-05-02T09:27:54.998Z</time></trkpt><trkpt lat="44.7434850683432" lon="9.689948769390503"><ele>911.0000000000001</ele><time>2026-05-02T09:27:57.998Z</time></trkpt><trkpt lat="44.743432861496274" lon="9.689885465472402"><ele>911.0</ele><time>2026-05-02T09:27:59.998Z</time></trkpt><trkpt lat="44.743362489938036" lon="9.689727529962575"><ele>911.5000000000001</ele><time>2026-05-02T09:28:01.998Z</time></trkpt><trkpt lat="44.74333383725904" lon="9.689635581812109"><ele>912.0</ele><time>2026-05-02T09:28:02.998Z</time></trkpt><trkpt lat="44.7433302356409" lon="9.689495588401535"><ele>912.5</ele><time>2026-05-02T09:28:04.998Z</time></trkpt><trkpt lat="44.74338385769782" lon="9.689420080425583"><ele>913.0</ele><time>2026-05-02T09:28:07.998Z</time></trkpt><trkpt lat="44.743420300850886" lon="9.689333024936236"><ele>913.5000000000001</ele><time>2026-05-02T09:28:09.998Z</time></trkpt><trkpt lat="44.74344380407971" lon="9.689170985438643"><ele>914.0</ele><time>2026-05-02T09:28:12Z</time></trkpt><trkpt lat="44.74346002349834" lon="9.689016091306353"><ele>914.4000000000001</ele><time>2026-05-02T09:28:14Z</time></trkpt><trkpt lat="44.743411570554876" lon="9.68888343428924"><ele>914.8000000000001</ele><time>2026-05-02T09:28:16Z</time></trkpt><trkpt lat="44.743355910453175" lon="9.688778602865428"><ele>915.1999999999999</ele><time>2026-05-02T09:28:18Z</time></trkpt><trkpt lat="44.743312427763804" lon="9.688621774652963"><ele>915.5999999999999</ele><time>2026-05-02T09:28:20Z</time></trkpt><trkpt lat="44.743280069417516" lon="9.68853696538865"><ele>916.0</ele><time>2026-05-02T09:28:21Z</time></trkpt><trkpt lat="44.743252202562324" lon="9.688450106115246"><ele>916.0</ele><time>2026-05-02T09:28:22Z</time></trkpt><trkpt lat="44.74319709042928" lon="9.688342792163107"><ele>915.9999999999999</ele><time>2026-05-02T09:28:26Z</time></trkpt><trkpt lat="44.74311774821402" lon="9.68819247148529"><ele>915.9999999999999</ele><time>2026-05-02T09:28:28Z</time></trkpt><trkpt lat="44.74304965749606" lon="9.688138928142601"><ele>916.0</ele><time>2026-05-02T09:28:29Z</time></trkpt><trkpt lat="44.74298097919438" lon="9.688069849187167"><ele>916.0</ele><time>2026-05-02T09:28:30Z</time></trkpt><trkpt lat="44.742932613149954" lon="9.687982176523013"><ele>915.9999999999999</ele><time>2026-05-02T09:28:31Z</time></trkpt><trkpt lat="44.74291681703191" lon="9.687838297747282"><ele>916.0</ele><time>2026-05-02T09:28:33Z</time></trkpt><trkpt lat="44.74292875972843" lon="9.687734005369727"><ele>916.0</ele><time>2026-05-02T09:28:36Z</time></trkpt><trkpt lat="44.742912745718925" lon="9.687639534543509"><ele>916.0</ele><time>2026-05-02T09:28:39Z</time></trkpt><trkpt lat="44.74288110738272" lon="9.687526568116681"><ele>915.9999999999999</ele><time>2026-05-02T09:28:45Z</time></trkpt><trkpt lat="44.74286760149252" lon="9.687432350030097"><ele>916.0</ele><time>2026-05-02T09:28:49.999Z</time></trkpt><trkpt lat="44.742850335347676" lon="9.687341534651136"><ele>915.1666666666666</ele><time>2026-05-02T09:28:53.999Z</time></trkpt><trkpt lat="44.74284836801351" lon="9.687189444633871"><ele>914.3333333333333</ele><time>2026-05-02T09:28:55.999Z</time></trkpt><trkpt lat="44.74283097998209" lon="9.687022722553973"><ele>913.5</ele><time>2026-05-02T09:28:57.999Z</time></trkpt><trkpt lat="44.74278917746173" lon="9.686949554005373"><ele>912.6666666666667</ele><time>2026-05-02T09:28:58.999Z</time></trkpt><trkpt lat="44.742741957402586" lon="9.686859547862468"><ele>911.8333333333334</ele><time>2026-05-02T09:28:59.999Z</time></trkpt><trkpt lat="44.7427005270566" lon="9.686781527979244"><ele>911.0</ele><time>2026-05-02T09:29:00.999Z</time></trkpt><trkpt lat="44.74266605681864" lon="9.686704138121582"><ele>910.6666666666667</ele><time>2026-05-02T09:29:01.999Z</time></trkpt><trkpt lat="44.74262457659332" lon="9.686546548975194"><ele>910.3333333333334</ele><time>2026-05-02T09:29:03.999Z</time></trkpt><trkpt lat="44.74262755702709" lon="9.686456050175018"><ele>910.0</ele><time>2026-05-02T09:29:04.999Z</time></trkpt><trkpt lat="44.74262728096905" lon="9.686315055642027"><ele>909.6666666666667</ele><time>2026-05-02T09:29:06.999Z</time></trkpt><trkpt lat="44.74262311567297" lon="9.686215523674985"><ele>909.3333333333334</ele><time>2026-05-02T09:29:10.999Z</time></trkpt><trkpt lat="44.742618931133094" lon="9.686109694415565"><ele>909.0</ele><time>2026-05-02T09:29:13.999Z</time></trkpt><trkpt lat="44.74260077824926" lon="9.685977552921683"><ele>908.4000000000001</ele><time>2026-05-02T09:29:15.999Z</time></trkpt><trkpt lat="44.74259424815519" lon="9.685879332526216"><ele>907.8000000000001</ele><time>2026-05-02T09:29:16.999Z</time></trkpt><trkpt lat="44.742526857181815" lon="9.68575068971698"><ele>907.1999999999999</ele><time>2026-05-02T09:29:18.999Z</time></trkpt><trkpt lat="44.74243151194498" lon="9.685645916116155"><ele>906.5999999999999</ele><time>2026-05-02T09:29:20.999Z</time></trkpt><trkpt lat="44.74236850594763" lon="9.685558360912117"><ele>906.0</ele><time>2026-05-02T09:29:21.999Z</time></trkpt><trkpt lat="44.74231929321209" lon="9.685465381181016"><ele>906.0</ele><time>2026-05-02T09:29:22.999Z</time></trkpt><trkpt lat="44.74228720988185" lon="9.685375642233751"><ele>905.9999999999999</ele><time>2026-05-02T09:29:23.999Z</time></trkpt><trkpt lat="44.742232300357045" lon="9.685234028534218"><ele>905.9999999999999</ele><time>2026-05-02T09:29:25.999Z</time></trkpt><trkpt lat="44.74215203001398" lon="9.68510958040173"><ele>906.0</ele><time>2026-05-02T09:29:27.999Z</time></trkpt><trkpt lat="44.74206822403186" lon="9.685009986334457"><ele>906.0</ele><time>2026-05-02T09:29:29.999Z</time></trkpt><trkpt lat="44.7419881781325" lon="9.684996235386066"><ele>907.4</ele><time>2026-05-02T09:29:31.999Z</time></trkpt><trkpt lat="44.741921084840435" lon="9.684993533682176"><ele>908.8</ele><time>2026-05-02T09:29:33.999Z</time></trkpt><trkpt lat="44.741902787860695" lon="9.684890534434015"><ele>910.1999999999999</ele><time>2026-05-02T09:29:37.998Z</time></trkpt><trkpt lat="44.74190102058475" lon="9.68474025773837"><ele>911.5999999999999</ele><time>2026-05-02T09:29:41.998Z</time></trkpt><trkpt lat="44.741890217495154" lon="9.684598667825526"><ele>913.0</ele><time>2026-05-02T09:29:43.998Z</time></trkpt><trkpt lat="44.741880171691555" lon="9.684449014780606"><ele>911.8333333333333</ele><time>2026-05-02T09:29:45.998Z</time></trkpt><trkpt lat="44.741874455742824" lon="9.68435399975355"><ele>910.6666666666666</ele><time>2026-05-02T09:29:46.998Z</time></trkpt><trkpt lat="44.741863960012594" lon="9.684252039104178"><ele>909.5</ele><time>2026-05-02T09:29:47.998Z</time></trkpt><trkpt lat="44.74184983574579" lon="9.684134100254948"><ele>908.3333333333333</ele><time>2026-05-02T09:29:48.998Z</time></trkpt><trkpt lat="44.74183552393572" lon="9.684014321072286"><ele>907.1666666666666</ele><time>2026-05-02T09:29:49.998Z</time></trkpt><trkpt lat="44.74181728101532" lon="9.683901942484809"><ele>906.0</ele><time>2026-05-02T09:29:50.998Z</time></trkpt><trkpt lat="44.74178679154616" lon="9.683796549670152"><ele>906.0</ele><time>2026-05-02T09:29:51.998Z</time></trkpt><trkpt lat="44.741750802301176" lon="9.683712964002197"><ele>906.0</ele><time>2026-05-02T09:29:52.998Z</time></trkpt><trkpt lat="44.74170781544744" lon="9.683631255303972"><ele>906.0</ele><time>2026-05-02T09:29:53.998Z</time></trkpt><trkpt lat="44.741662552976656" lon="9.683544761968006"><ele>906.0</ele><time>2026-05-02T09:29:54.998Z</time></trkpt><trkpt lat="44.74162827692986" lon="9.683444560236698"><ele>906.0</ele><time>2026-05-02T09:29:55.998Z</time></trkpt><trkpt lat="44.741610721064696" lon="9.683336231580117"><ele>906.0</ele><time>2026-05-02T09:29:56.998Z</time></trkpt><trkpt lat="44.741599123176094" lon="9.683227695990047"><ele>906.8333333333334</ele><time>2026-05-02T09:29:57.998Z</time></trkpt><trkpt lat="44.74158418623023" lon="9.683116719299555"><ele>907.6666666666667</ele><time>2026-05-02T09:29:58.998Z</time></trkpt><trkpt lat="44.741566256641484" lon="9.683010052611674"><ele>908.5</ele><time>2026-05-02T09:29:59.998Z</time></trkpt><trkpt lat="44.74154617845555" lon="9.682903343793567"><ele>909.3333333333334</ele><time>2026-05-02T09:30:00.998Z</time></trkpt><trkpt lat="44.741526915087114" lon="9.682788476110755"><ele>910.1666666666667</ele><time>2026-05-02T09:30:01.998Z</time></trkpt><trkpt lat="44.741511655325496" lon="9.682673166300965"><ele>911.0</ele><time>2026-05-02T09:30:02.998Z</time></trkpt><trkpt lat="44.741500187917815" lon="9.682557500214251"><ele>911.0</ele><time>2026-05-02T09:30:03.998Z</time></trkpt><trkpt lat="44.74148467548662" lon="9.68243767722866"><ele>910.9999999999999</ele><time>2026-05-02T09:30:04.998Z</time></trkpt><trkpt lat="44.741457923647566" lon="9.682320426381523"><ele>910.9999999999999</ele><time>2026-05-02T09:30:05.998Z</time></trkpt><trkpt lat="44.74140725074719" lon="9.682207632938141"><ele>911.0</ele><time>2026-05-02T09:30:06.998Z</time></trkpt><trkpt lat="44.74133438597475" lon="9.68210010655134"><ele>911.0</ele><time>2026-05-02T09:30:07.998Z</time></trkpt><trkpt lat="44.74125398016451" lon="9.681998697964444"><ele>910.5999999999999</ele><time>2026-05-02T09:30:08.998Z</time></trkpt><trkpt lat="44.741164963588666" lon="9.681908772318323"><ele>910.1999999999999</ele><time>2026-05-02T09:30:09.998Z</time></trkpt><trkpt lat="44.74107863337674" lon="9.681816131473486"><ele>909.8000000000001</ele><time>2026-05-02T09:30:10.998Z</time></trkpt><trkpt lat="44.74100166629738" lon="9.68171464305976"><ele>909.4000000000001</ele><time>2026-05-02T09:30:11.998Z</time></trkpt><trkpt lat="44.740937453323156" lon="9.681593432657268"><ele>909.0</ele><time>2026-05-02T09:30:12.998Z</time></trkpt><trkpt lat="44.74089331880919" lon="9.68144796298691"><ele>909.0</ele><time>2026-05-02T09:30:13.998Z</time></trkpt><trkpt lat="44.74085725210281" lon="9.681304310778106"><ele>909.0</ele><time>2026-05-02T09:30:14.998Z</time></trkpt><trkpt lat="44.740833290929196" lon="9.6811480357855"><ele>909.0</ele><time>2026-05-02T09:30:15.998Z</time></trkpt><trkpt lat="44.740813078734696" lon="9.680990388306805"><ele>909.0</ele><time>2026-05-02T09:30:17Z</time></trkpt><trkpt lat="44.7408013004194" lon="9.68082691720581"><ele>910.0</ele><time>2026-05-02T09:30:18Z</time></trkpt><trkpt lat="44.74078846243045" lon="9.680662121387098"><ele>911.0</ele><time>2026-05-02T09:30:19Z</time></trkpt><trkpt lat="44.7407695327104" lon="9.680497770907053"><ele>912.0</ele><time>2026-05-02T09:30:20Z</time></trkpt><trkpt lat="44.74075273782743" lon="9.68032805183663"><ele>913.0</ele><time>2026-05-02T09:30:21Z</time></trkpt><trkpt lat="44.74073231487025" lon="9.680161970932943"><ele>913.8</ele><time>2026-05-02T09:30:22Z</time></trkpt><trkpt lat="44.74071787050763" lon="9.679992776415604"><ele>914.5999999999999</ele><time>2026-05-02T09:30:23Z</time></trkpt><trkpt lat="44.74068986039458" lon="9.679845852942021"><ele>915.4000000000001</ele><time>2026-05-02T09:30:24Z</time></trkpt><trkpt lat="44.74064132056443" lon="9.67972230487481"><ele>916.2</ele><time>2026-05-02T09:30:25Z</time></trkpt><trkpt lat="44.74056042437318" lon="9.679621700748216"><ele>917.0</ele><time>2026-05-02T09:30:26Z</time></trkpt><trkpt lat="44.74046195960295" lon="9.679542138998697"><ele>917.0</ele><time>2026-05-02T09:30:27Z</time></trkpt><trkpt lat="44.74036090455446" lon="9.679467215997281"><ele>917.0</ele><time>2026-05-02T09:30:28Z</time></trkpt><trkpt lat="44.74026959008147" lon="9.679363571357332"><ele>917.0</ele><time>2026-05-02T09:30:29Z</time></trkpt><trkpt lat="44.740189313870914" lon="9.679240143428528"><ele>917.0</ele><time>2026-05-02T09:30:30Z</time></trkpt><trkpt lat="44.74011137418596" lon="9.679119217238837"><ele>917.0</ele><time>2026-05-02T09:30:31Z</time></trkpt><trkpt lat="44.740025724848536" lon="9.679008279214068"><ele>917.0</ele><time>2026-05-02T09:30:32Z</time></trkpt><trkpt lat="44.739932379309586" lon="9.678905454968561"><ele>917.0</ele><time>2026-05-02T09:30:33Z</time></trkpt><trkpt lat="44.73982740136704" lon="9.678830694146024"><ele>917.0</ele><time>2026-05-02T09:30:34Z</time></trkpt><trkpt lat="44.73971430521088" lon="9.678786057521682"><ele>917.0</ele><time>2026-05-02T09:30:35Z</time></trkpt><trkpt lat="44.73960399841781" lon="9.67875774195871"><ele>917.0</ele><time>2026-05-02T09:30:36Z</time></trkpt><trkpt lat="44.739504713921896" lon="9.678721348485873"><ele>917.0</ele><time>2026-05-02T09:30:37Z</time></trkpt><trkpt lat="44.73942001759638" lon="9.678651954642449"><ele>917.0</ele><time>2026-05-02T09:30:38Z</time></trkpt><trkpt lat="44.73934532989648" lon="9.678555196103868"><ele>917.0</ele><time>2026-05-02T09:30:39Z</time></trkpt><trkpt lat="44.73928313268548" lon="9.678436368798252"><ele>917.75</ele><time>2026-05-02T09:30:40Z</time></trkpt><trkpt lat="44.73922839654177" lon="9.6783086229734"><ele>918.5</ele><time>2026-05-02T09:30:41Z</time></trkpt><trkpt lat="44.739173136763306" lon="9.678174420067533"><ele>919.25</ele><time>2026-05-02T09:30:42Z</time></trkpt><trkpt lat="44.7391153937438" lon="9.678032903674865"><ele>920.0</ele><time>2026-05-02T09:30:43Z</time></trkpt><trkpt lat="44.73905651712143" lon="9.67788855232953"><ele>919.75</ele><time>2026-05-02T09:30:44Z</time></trkpt><trkpt lat="44.73899489324744" lon="9.677736455636797"><ele>919.5</ele><time>2026-05-02T09:30:45Z</time></trkpt><trkpt lat="44.73893315517143" lon="9.677575351657566"><ele>919.25</ele><time>2026-05-02T09:30:46Z</time></trkpt><trkpt lat="44.738864911375806" lon="9.67741863154135"><ele>919.0</ele><time>2026-05-02T09:30:47Z</time></trkpt><trkpt lat="44.738780977365934" lon="9.677267238954519"><ele>919.0</ele><time>2026-05-02T09:30:48Z</time></trkpt><trkpt lat="44.73867388263779" lon="9.677150683957485"><ele>919.0</ele><time>2026-05-02T09:30:49Z</time></trkpt><trkpt lat="44.73855314697113" lon="9.677084027882351"><ele>919.0</ele><time>2026-05-02T09:30:50Z</time></trkpt><trkpt lat="44.73844416060621" lon="9.67702577315279"><ele>919.0</ele><time>2026-05-02T09:30:51Z</time></trkpt><trkpt lat="44.73833843452409" lon="9.67695427492788"><ele>918.6</ele><time>2026-05-02T09:30:52Z</time></trkpt><trkpt lat="44.73825406810967" lon="9.676887541135983"><ele>918.2</ele><time>2026-05-02T09:30:53Z</time></trkpt><trkpt lat="44.7381744467843" lon="9.676825997398772"><ele>917.8000000000001</ele><time>2026-05-02T09:30:53.999Z</time></trkpt><trkpt lat="44.738105011931296" lon="9.676756199355644"><ele>917.4000000000001</ele><time>2026-05-02T09:30:54.999Z</time></trkpt><trkpt lat="44.7380406405717" lon="9.676669417715942"><ele>917.0</ele><time>2026-05-02T09:30:55.999Z</time></trkpt><trkpt lat="44.73798304545409" lon="9.676563783653107"><ele>917.0</ele><time>2026-05-02T09:30:56.999Z</time></trkpt><trkpt lat="44.73794139754218" lon="9.676427740785774"><ele>917.0</ele><time>2026-05-02T09:30:57.999Z</time></trkpt><trkpt lat="44.73790909122262" lon="9.67626818600908"><ele>917.0</ele><time>2026-05-02T09:30:58.999Z</time></trkpt><trkpt lat="44.737875748452645" lon="9.6760967449946"><ele>917.0</ele><time>2026-05-02T09:30:59.999Z</time></trkpt><trkpt lat="44.73782876276332" lon="9.67593216787462"><ele>916.75</ele><time>2026-05-02T09:31:00.999Z</time></trkpt><trkpt lat="44.73775740168302" lon="9.675788363096206"><ele>916.5</ele><time>2026-05-02T09:31:01.999Z</time></trkpt><trkpt lat="44.73766277486517" lon="9.675681059762278"><ele>916.25</ele><time>2026-05-02T09:31:02.999Z</time></trkpt><trkpt lat="44.73755968417639" lon="9.675591958235975"><ele>916.0</ele><time>2026-05-02T09:31:03.999Z</time></trkpt><trkpt lat="44.73746480386633" lon="9.675499329204852"><ele>917.4999999999999</ele><time>2026-05-02T09:31:04.999Z</time></trkpt><trkpt lat="44.737391122856764" lon="9.675387543437981"><ele>919.0</ele><time>2026-05-02T09:31:05.999Z</time></trkpt><trkpt lat="44.73734680081943" lon="9.675261215773924"><ele>920.5</ele><time>2026-05-02T09:31:06.999Z</time></trkpt><trkpt lat="44.7373207026011" lon="9.675155719103918"><ele>922.0</ele><time>2026-05-02T09:31:07.999Z</time></trkpt><trkpt lat="44.737295136303636" lon="9.675068042089864"><ele>923.4999999999999</ele><time>2026-05-02T09:31:08.999Z</time></trkpt><trkpt lat="44.73726737302392" lon="9.674985422553503"><ele>925.0</ele><time>2026-05-02T09:31:09.999Z</time></trkpt><trkpt lat="44.737154656705854" lon="9.67492112924563"><ele>925.3333333333333</ele><time>2026-05-02T09:31:11.999Z</time></trkpt><trkpt lat="44.73707491872647" lon="9.674942655581276"><ele>925.6666666666666</ele><time>2026-05-02T09:31:12.999Z</time></trkpt><trkpt lat="44.73700723801182" lon="9.674965176412579"><ele>926.0</ele><time>2026-05-02T09:31:13.999Z</time></trkpt><trkpt lat="44.736902967736064" lon="9.675009108175209"><ele>926.3333333333333</ele><time>2026-05-02T09:31:15.999Z</time></trkpt><trkpt lat="44.73681573506407" lon="9.675051017544819"><ele>926.6666666666666</ele><time>2026-05-02T09:31:17.999Z</time></trkpt><trkpt lat="44.73673003568215" lon="9.675096985583691"><ele>927.0</ele><time>2026-05-02T09:31:19.999Z</time></trkpt><trkpt lat="44.736610929698664" lon="9.675135918517888"><ele>925.6</ele><time>2026-05-02T09:31:21.999Z</time></trkpt><trkpt lat="44.73649613023359" lon="9.675140837785795"><ele>924.2</ele><time>2026-05-02T09:31:23.999Z</time></trkpt><trkpt lat="44.73643327805948" lon="9.675154248050186"><ele>922.8</ele><time>2026-05-02T09:31:24.999Z</time></trkpt><trkpt lat="44.736320258331006" lon="9.675179604268864"><ele>921.4</ele><time>2026-05-02T09:31:26.999Z</time></trkpt><trkpt lat="44.736223616896474" lon="9.675194564150903"><ele>920.0</ele><time>2026-05-02T09:31:28.999Z</time></trkpt><trkpt lat="44.736147712477845" lon="9.675263812999082"><ele>918.8</ele><time>2026-05-02T09:31:30.999Z</time></trkpt><trkpt lat="44.73610110655404" lon="9.675419806469536"><ele>917.6</ele><time>2026-05-02T09:31:32.999Z</time></trkpt><trkpt lat="44.736016591915295" lon="9.675516158062983"><ele>916.4000000000001</ele><time>2026-05-02T09:31:34.999Z</time></trkpt><trkpt lat="44.735908808901" lon="9.675578588190778"><ele>915.2</ele><time>2026-05-02T09:31:36.999Z</time></trkpt><trkpt lat="44.73580726674991" lon="9.675603014969536"><ele>914.0</ele><time>2026-05-02T09:31:38.999Z</time></trkpt><trkpt lat="44.735699160139596" lon="9.675634087063738"><ele>912.6</ele><time>2026-05-02T09:31:40.999Z</time></trkpt><trkpt lat="44.73559473238448" lon="9.675640724254903"><ele>911.2</ele><time>2026-05-02T09:31:42.998Z</time></trkpt><trkpt lat="44.7354955697838" lon="9.675671101794514"><ele>909.8000000000001</ele><time>2026-05-02T09:31:44.998Z</time></trkpt><trkpt lat="44.73540833329424" lon="9.675739408340258"><ele>908.4000000000001</ele><time>2026-05-02T09:31:46.998Z</time></trkpt><trkpt lat="44.73533263903541" lon="9.67577817935385"><ele>907.0</ele><time>2026-05-02T09:31:48.998Z</time></trkpt><trkpt lat="44.73527267382967" lon="9.675836790105121"><ele>906.4999999999999</ele><time>2026-05-02T09:32:08.998Z</time></trkpt><trkpt lat="44.73521742022764" lon="9.675898679390663"><ele>906.0</ele><time>2026-05-02T09:32:37Z</time></trkpt><trkpt lat="44.73515727021842" lon="9.675948431444823"><ele>905.5</ele><time>2026-05-02T09:32:40Z</time></trkpt><trkpt lat="44.73509311030839" lon="9.675993963040618"><ele>905.0</ele><time>2026-05-02T09:32:45Z</time></trkpt><trkpt lat="44.73501033115004" lon="9.676080521144105"><ele>904.4999999999999</ele><time>2026-05-02T09:32:48Z</time></trkpt><trkpt lat="44.73492967776423" lon="9.676128559135483"><ele>904.0</ele><time>2026-05-02T09:32:51Z</time></trkpt><trkpt lat="44.73484970654989" lon="9.676149044894968"><ele>902.2</ele><time>2026-05-02T09:32:54Z</time></trkpt><trkpt lat="44.734760280539504" lon="9.676191409864916"><ele>900.4000000000001</ele><time>2026-05-02T09:32:58Z</time></trkpt><trkpt lat="44.73466836503829" lon="9.67623733685889"><ele>898.6</ele><time>2026-05-02T09:33:00Z</time></trkpt><trkpt lat="44.734571556449694" lon="9.67628006329336"><ele>896.8</ele><time>2026-05-02T09:33:01.999Z</time></trkpt><trkpt lat="44.73449940247387" lon="9.676314153950042"><ele>895.0</ele><time>2026-05-02T09:33:03.999Z</time></trkpt><trkpt lat="44.73442817692444" lon="9.676367127357967"><ele>895.3333333333333</ele><time>2026-05-02T09:33:05.999Z</time></trkpt><trkpt lat="44.73437282036781" lon="9.676458226436477"><ele>895.6666666666666</ele><time>2026-05-02T09:33:07.999Z</time></trkpt><trkpt lat="44.73433962219604" lon="9.676552077694447"><ele>896.0</ele><time>2026-05-02T09:33:09.999Z</time></trkpt><trkpt lat="44.73427804779628" lon="9.67661483923131"><ele>896.3333333333333</ele><time>2026-05-02T09:33:11.999Z</time></trkpt><trkpt lat="44.73422417645497" lon="9.676697896060006"><ele>896.6666666666666</ele><time>2026-05-02T09:33:13.999Z</time></trkpt><trkpt lat="44.73416169005489" lon="9.676752946878498"><ele>897.0</ele><time>2026-05-02T09:33:15.999Z</time></trkpt><trkpt lat="44.734078013183726" lon="9.676759019720926"><ele>897.0</ele><time>2026-05-02T09:33:17.999Z</time></trkpt><trkpt lat="44.73399581341127" lon="9.676758931618982"><ele>897.0</ele><time>2026-05-02T09:33:19.999Z</time></trkpt><trkpt lat="44.73395087234249" lon="9.67682373050967"><ele>897.0</ele><time>2026-05-02T09:33:21.999Z</time></trkpt><trkpt lat="44.73390330983273" lon="9.676897780052656"><ele>897.0</ele><time>2026-05-02T09:33:23.999Z</time></trkpt><trkpt lat="44.73380340615097" lon="9.676993012085774"><ele>897.0</ele><time>2026-05-02T09:33:25.999Z</time></trkpt><trkpt lat="44.73370554224353" lon="9.677059318162808"><ele>897.0</ele><time>2026-05-02T09:33:27.999Z</time></trkpt><trkpt lat="44.73363728076457" lon="9.677104260514476"><ele>896.8</ele><time>2026-05-02T09:33:28.999Z</time></trkpt><trkpt lat="44.73356858628859" lon="9.677139091583525"><ele>896.6</ele><time>2026-05-02T09:33:29.999Z</time></trkpt><trkpt lat="44.7334704974039" lon="9.677150307146848"><ele>896.3999999999999</ele><time>2026-05-02T09:33:31.999Z</time></trkpt><trkpt lat="44.73338869820901" lon="9.677071571710975"><ele>896.1999999999999</ele><time>2026-05-02T09:33:33.999Z</time></trkpt><trkpt lat="44.73330288102671" lon="9.676984989291288"><ele>896.0</ele><time>2026-05-02T09:33:35.999Z</time></trkpt><trkpt lat="44.73319320925413" lon="9.676935677303034"><ele>896.0000000000001</ele><time>2026-05-02T09:33:37.999Z</time></trkpt><trkpt lat="44.73309986802963" lon="9.676885448641121"><ele>896.0</ele><time>2026-05-02T09:33:39.999Z</time></trkpt><trkpt lat="44.73303213720428" lon="9.676832301168945"><ele>896.0</ele><time>2026-05-02T09:33:41.999Z</time></trkpt><trkpt lat="44.732950448613195" lon="9.676832416389365"><ele>896.0</ele><time>2026-05-02T09:33:43.999Z</time></trkpt><trkpt lat="44.73290225968124" lon="9.676934617137492"><ele>896.0000000000001</ele><time>2026-05-02T09:33:45.999Z</time></trkpt><trkpt lat="44.73289943133967" lon="9.677074908992196"><ele>896.0</ele><time>2026-05-02T09:33:47.999Z</time></trkpt><trkpt lat="44.732895338184896" lon="9.677191995265822"><ele>894.5999999999999</ele><time>2026-05-02T09:33:49.998Z</time></trkpt><trkpt lat="44.73287878019948" lon="9.677308553949903"><ele>893.1999999999999</ele><time>2026-05-02T09:33:51.998Z</time></trkpt><trkpt lat="44.732848452107746" lon="9.677458477682887"><ele>891.8000000000001</ele><time>2026-05-02T09:33:53.998Z</time></trkpt><trkpt lat="44.732794500242086" lon="9.677630416670608"><ele>890.4000000000001</ele><time>2026-05-02T09:33:55.998Z</time></trkpt><trkpt lat="44.732748641813934" lon="9.677693888911277"><ele>889.0</ele><time>2026-05-02T09:33:56.998Z</time></trkpt><trkpt lat="44.73269402970997" lon="9.677750426202245"><ele>887.6666666666666</ele><time>2026-05-02T09:33:57.998Z</time></trkpt><trkpt lat="44.73265319344719" lon="9.67782376413443"><ele>886.3333333333333</ele><time>2026-05-02T09:33:58.998Z</time></trkpt><trkpt lat="44.73263793640558" lon="9.677916116546692"><ele>885.0</ele><time>2026-05-02T09:33:59.998Z</time></trkpt><trkpt lat="44.73261040620184" lon="9.678001414730893"><ele>883.6666666666667</ele><time>2026-05-02T09:34:00.998Z</time></trkpt><trkpt lat="44.73251237401156" lon="9.678098618913776"><ele>882.3333333333334</ele><time>2026-05-02T09:34:02.998Z</time></trkpt><trkpt lat="44.73240210851764" lon="9.678169566112434"><ele>881.0</ele><time>2026-05-02T09:34:04.998Z</time></trkpt><trkpt lat="44.732301945005105" lon="9.678237650362336"><ele>881.0000000000001</ele><time>2026-05-02T09:34:06.998Z</time></trkpt><trkpt lat="44.73222227478068" lon="9.678341432375936"><ele>881.0</ele><time>2026-05-02T09:34:08.998Z</time></trkpt><trkpt lat="44.73218292211027" lon="9.67841407233885"><ele>881.0</ele><time>2026-05-02T09:34:09.998Z</time></trkpt><trkpt lat="44.73213486089073" lon="9.678508053560481"><ele>881.0</ele><time>2026-05-02T09:34:10.998Z</time></trkpt><trkpt lat="44.73207823486065" lon="9.678613172149843"><ele>881.0000000000001</ele><time>2026-05-02T09:34:11.998Z</time></trkpt><trkpt lat="44.732038386997495" lon="9.678689055458053"><ele>881.0</ele><time>2026-05-02T09:34:12.998Z</time></trkpt><trkpt lat="44.73195411927872" lon="9.678724814084928"><ele>880.3333333333334</ele><time>2026-05-02T09:34:14.998Z</time></trkpt><trkpt lat="44.731894570609654" lon="9.678688840907766"><ele>879.6666666666667</ele><time>2026-05-02T09:34:16.998Z</time></trkpt><trkpt lat="44.73181557282145" lon="9.678655749065905"><ele>879.0</ele><time>2026-05-02T09:34:46Z</time></trkpt><trkpt lat="44.731748165902566" lon="9.678613425764231"><ele>878.3333333333333</ele><time>2026-05-02T09:34:48Z</time></trkpt><trkpt lat="44.73166436026592" lon="9.678566996667879"><ele>877.6666666666666</ele><time>2026-05-02T09:34:51Z</time></trkpt><trkpt lat="44.731579973674556" lon="9.678551875236513"><ele>877.0</ele><time>2026-05-02T09:34:54Z</time></trkpt><trkpt lat="44.73151607563666" lon="9.678452727663993"><ele>878.3333333333333</ele><time>2026-05-02T09:35:14.999Z</time></trkpt><trkpt lat="44.7314671786816" lon="9.678348770301897"><ele>879.6666666666666</ele><time>2026-05-02T09:35:16.999Z</time></trkpt><trkpt lat="44.731424098960744" lon="9.678277316275722"><ele>881.0</ele><time>2026-05-02T09:35:18.999Z</time></trkpt><trkpt lat="44.7313547674171" lon="9.67825118510879"><ele>882.3333333333333</ele><time>2026-05-02T09:35:20.999Z</time></trkpt><trkpt lat="44.731257397300375" lon="9.678314140731654"><ele>883.6666666666666</ele><time>2026-05-02T09:35:22.999Z</time></trkpt><trkpt lat="44.731185123754614" lon="9.678397692382196"><ele>885.0</ele><time>2026-05-02T09:35:24.999Z</time></trkpt><trkpt lat="44.73110229332576" lon="9.67849178230233"><ele>885.0</ele><time>2026-05-02T09:35:26.999Z</time></trkpt><trkpt lat="44.731064214059586" lon="9.67858502897296"><ele>885.0</ele><time>2026-05-02T09:35:27.999Z</time></trkpt><trkpt lat="44.7310309095294" lon="9.67866197437652"><ele>885.0</ele><time>2026-05-02T09:35:28.999Z</time></trkpt><trkpt lat="44.73093589261645" lon="9.678760579137771"><ele>885.0</ele><time>2026-05-02T09:35:30.999Z</time></trkpt><trkpt lat="44.730849658796004" lon="9.67883519822621"><ele>885.0</ele><time>2026-05-02T09:35:32.999Z</time></trkpt><trkpt lat="44.730732772536214" lon="9.678920675487385"><ele>884.7142857142857</ele><time>2026-05-02T09:35:34.999Z</time></trkpt><trkpt lat="44.73066488308217" lon="9.678966721137314"><ele>884.4285714285713</ele><time>2026-05-02T09:35:35.999Z</time></trkpt><trkpt lat="44.730595369188606" lon="9.678994943381385"><ele>884.1428571428571</ele><time>2026-05-02T09:35:36.999Z</time></trkpt><trkpt lat="44.73052922594208" lon="9.679003112541894"><ele>883.8571428571429</ele><time>2026-05-02T09:35:37.999Z</time></trkpt><trkpt lat="44.73045762609739" lon="9.679015467745653"><ele>883.5714285714286</ele><time>2026-05-02T09:35:38.999Z</time></trkpt><trkpt lat="44.730390526870494" lon="9.679057577930434"><ele>883.2857142857143</ele><time>2026-05-02T09:35:39.999Z</time></trkpt><trkpt lat="44.73033032321934" lon="9.679139404493418"><ele>883.0</ele><time>2026-05-02T09:35:40.999Z</time></trkpt><trkpt lat="44.73026848480558" lon="9.67922576110166"><ele>883.2</ele><time>2026-05-02T09:35:41.999Z</time></trkpt><trkpt lat="44.73020128257577" lon="9.679325185707862"><ele>883.4</ele><time>2026-05-02T09:35:43.999Z</time></trkpt><trkpt lat="44.73016230074922" lon="9.679470061260846"><ele>883.6000000000001</ele><time>2026-05-02T09:35:45.999Z</time></trkpt><trkpt lat="44.73015812092708" lon="9.679603830728817"><ele>883.8000000000001</ele><time>2026-05-02T09:35:47.999Z</time></trkpt><trkpt lat="44.73011799816371" lon="9.679742340057402"><ele>884.0</ele><time>2026-05-02T09:35:49.999Z</time></trkpt><trkpt lat="44.73008084407002" lon="9.679817368613053"><ele>884.0</ele><time>2026-05-02T09:35:50.999Z</time></trkpt><trkpt lat="44.73003108115429" lon="9.679926332521582"><ele>884.0000000000001</ele><time>2026-05-02T09:35:51.999Z</time></trkpt><trkpt lat="44.729970743868535" lon="9.680039690216933"><ele>884.0000000000001</ele><time>2026-05-02T09:35:52.999Z</time></trkpt><trkpt lat="44.72992935691892" lon="9.680131851246523"><ele>884.0</ele><time>2026-05-02T09:35:53.999Z</time></trkpt><trkpt lat="44.72985098270457" lon="9.680254509792434"><ele>884.0</ele><time>2026-05-02T09:35:55.999Z</time></trkpt><trkpt lat="44.72976224932721" lon="9.680350801250798"><ele>884.0</ele><time>2026-05-02T09:35:57.998Z</time></trkpt><trkpt lat="44.72971907487994" lon="9.68041911713894"><ele>884.0000000000001</ele><time>2026-05-02T09:35:58.998Z</time></trkpt><trkpt lat="44.72964042186163" lon="9.680514488485853"><ele>884.0000000000001</ele><time>2026-05-02T09:36:00.998Z</time></trkpt><trkpt lat="44.72955753918435" lon="9.68046215506626"><ele>884.0</ele><time>2026-05-02T09:36:03.998Z</time></trkpt><trkpt lat="44.729534389463815" lon="9.680317901448856"><ele>884.0</ele><time>2026-05-02T09:36:05.998Z</time></trkpt><trkpt lat="44.72950746627914" lon="9.680161858086663"><ele>884.0</ele><time>2026-05-02T09:36:07.998Z</time></trkpt><trkpt lat="44.7294905177022" lon="9.6799966160967"><ele>884.0000000000001</ele><time>2026-05-02T09:36:09.998Z</time></trkpt><trkpt lat="44.72949468799926" lon="9.679836110070912"><ele>884.0000000000001</ele><time>2026-05-02T09:36:11.998Z</time></trkpt><trkpt lat="44.72948124940476" lon="9.679691662136497"><ele>884.0</ele><time>2026-05-02T09:36:13.998Z</time></trkpt><trkpt lat="44.72948647049239" lon="9.67956441059935"><ele>884.0</ele><time>2026-05-02T09:36:15.998Z</time></trkpt><trkpt lat="44.72949833111923" lon="9.679444841399267"><ele>885.1666666666667</ele><time>2026-05-02T09:36:17.998Z</time></trkpt><trkpt lat="44.7294382327994" lon="9.67934926675343"><ele>886.3333333333334</ele><time>2026-05-02T09:36:19.998Z</time></trkpt><trkpt lat="44.729370650509935" lon="9.679328644822176"><ele>887.5</ele><time>2026-05-02T09:36:20.998Z</time></trkpt><trkpt lat="44.729289561444496" lon="9.679320906747135"><ele>888.6666666666667</ele><time>2026-05-02T09:36:21.998Z</time></trkpt><trkpt lat="44.7292068029757" lon="9.679296364710513"><ele>889.8333333333334</ele><time>2026-05-02T09:36:22.998Z</time></trkpt><trkpt lat="44.7291238109335" lon="9.679265210422907"><ele>891.0</ele><time>2026-05-02T09:36:23.998Z</time></trkpt><trkpt lat="44.7290442645917" lon="9.67923663309267"><ele>891.3333333333334</ele><time>2026-05-02T09:36:24.998Z</time></trkpt><trkpt lat="44.72897433404292" lon="9.67920687611802"><ele>891.6666666666667</ele><time>2026-05-02T09:36:25.998Z</time></trkpt><trkpt lat="44.72889706265652" lon="9.679188943642549"><ele>892.0</ele><time>2026-05-02T09:36:26.998Z</time></trkpt><trkpt lat="44.72880590942042" lon="9.679183928505871"><ele>892.3333333333334</ele><time>2026-05-02T09:36:27.998Z</time></trkpt><trkpt lat="44.728722394294614" lon="9.679172159407198"><ele>892.6666666666667</ele><time>2026-05-02T09:36:28.998Z</time></trkpt><trkpt lat="44.72865950784298" lon="9.679163952380737"><ele>893.0</ele><time>2026-05-02T09:36:29.998Z</time></trkpt><trkpt lat="44.728597047026895" lon="9.67915028530453"><ele>893.6666666666667</ele><time>2026-05-02T09:36:30.998Z</time></trkpt><trkpt lat="44.72852529140181" lon="9.67913255189394"><ele>894.3333333333334</ele><time>2026-05-02T09:36:31.998Z</time></trkpt><trkpt lat="44.728437000810956" lon="9.679112643254609"><ele>895.0</ele><time>2026-05-02T09:36:32.998Z</time></trkpt><trkpt lat="44.72833468137036" lon="9.679094735650876"><ele>895.6666666666667</ele><time>2026-05-02T09:36:33.998Z</time></trkpt><trkpt lat="44.7282517180457" lon="9.679074007098318"><ele>896.3333333333334</ele><time>2026-05-02T09:36:35Z</time></trkpt><trkpt lat="44.72817552421463" lon="9.679047948478187"><ele>897.0</ele><time>2026-05-02T09:36:36Z</time></trkpt><trkpt lat="44.72811714534845" lon="9.679013783891964"><ele>897.0</ele><time>2026-05-02T09:36:37Z</time></trkpt><trkpt lat="44.72808451176239" lon="9.678878721874371"><ele>897.0</ele><time>2026-05-02T09:36:39Z</time></trkpt><trkpt lat="44.72808924615619" lon="9.678788918210897"><ele>897.0</ele><time>2026-05-02T09:36:40Z</time></trkpt><trkpt lat="44.72808411453335" lon="9.678697758522025"><ele>897.0</ele><time>2026-05-02T09:36:41Z</time></trkpt><trkpt lat="44.7280390612884" lon="9.678615735157358"><ele>897.0</ele><time>2026-05-02T09:36:42Z</time></trkpt><trkpt lat="44.7279643688577" lon="9.678535033263945"><ele>897.0</ele><time>2026-05-02T09:36:43Z</time></trkpt><trkpt lat="44.72789042859472" lon="9.678465644119665"><ele>898.6</ele><time>2026-05-02T09:36:44Z</time></trkpt><trkpt lat="44.72782891503864" lon="9.678396074468733"><ele>900.2</ele><time>2026-05-02T09:36:45Z</time></trkpt><trkpt lat="44.7277861273071" lon="9.678322765818487"><ele>901.8</ele><time>2026-05-02T09:36:46Z</time></trkpt><trkpt lat="44.72772277146764" lon="9.678181780178317"><ele>903.4</ele><time>2026-05-02T09:36:48Z</time></trkpt><trkpt lat="44.72768292543202" lon="9.678047821764949"><ele>905.0</ele><time>2026-05-02T09:36:50Z</time></trkpt><trkpt lat="44.727610148022556" lon="9.677909334322813"><ele>904.4</ele><time>2026-05-02T09:36:52Z</time></trkpt><trkpt lat="44.72757572802166" lon="9.677753925440076"><ele>903.8</ele><time>2026-05-02T09:36:54Z</time></trkpt><trkpt lat="44.72758917997785" lon="9.677589811594427"><ele>903.2</ele><time>2026-05-02T09:36:56Z</time></trkpt><trkpt lat="44.72760500556791" lon="9.677424647324592"><ele>902.6</ele><time>2026-05-02T09:36:58Z</time></trkpt><trkpt lat="44.72763621109574" lon="9.677294923361428"><ele>902.0</ele><time>2026-05-02T09:37:00Z</time></trkpt><trkpt lat="44.7276012112924" lon="9.677204545132563"><ele>902.0000000000001</ele><time>2026-05-02T09:37:12.999Z</time></trkpt><trkpt lat="44.727550903434874" lon="9.67714222478322"><ele>902.0</ele><time>2026-05-02T09:38:32.998Z</time></trkpt><trkpt lat="44.72747495259655" lon="9.677096368294139"><ele>902.0</ele><time>2026-05-02T09:38:37.998Z</time></trkpt><trkpt lat="44.727403506447935" lon="9.677104170487596"><ele>902.0</ele><time>2026-05-02T09:38:39.998Z</time></trkpt><trkpt lat="44.72734821998793" lon="9.677146992177285"><ele>902.0000000000001</ele><time>2026-05-02T09:38:41Z</time></trkpt><trkpt lat="44.727281570258526" lon="9.677230071727331"><ele>902.0</ele><time>2026-05-02T09:38:42Z</time></trkpt><trkpt lat="44.727194864857296" lon="9.677302108983096"><ele>902.0000000000001</ele><time>2026-05-02T09:38:43Z</time></trkpt><trkpt lat="44.727102040421364" lon="9.677377645160725"><ele>902.0</ele><time>2026-05-02T09:38:44Z</time></trkpt><trkpt lat="44.72703670968896" lon="9.677453058009318"><ele>902.0</ele><time>2026-05-02T09:38:45Z</time></trkpt><trkpt lat="44.72697895587287" lon="9.677510214631914"><ele>902.0</ele><time>2026-05-02T09:38:46Z</time></trkpt><trkpt lat="44.72694177425844" lon="9.677590076794228"><ele>902.0000000000001</ele><time>2026-05-02T09:38:47Z</time></trkpt><trkpt lat="44.72689606499572" lon="9.677705452456495"><ele>902.0</ele><time>2026-05-02T09:38:48Z</time></trkpt><trkpt lat="44.72682909508366" lon="9.677815469669271"><ele>900.4000000000001</ele><time>2026-05-02T09:38:49Z</time></trkpt><trkpt lat="44.72676144019602" lon="9.677940520220279"><ele>898.8000000000001</ele><time>2026-05-02T09:38:50Z</time></trkpt><trkpt lat="44.72670264745304" lon="9.67804016836858"><ele>897.2</ele><time>2026-05-02T09:38:51Z</time></trkpt><trkpt lat="44.72664070736392" lon="9.678141906053149"><ele>895.6</ele><time>2026-05-02T09:38:52Z</time></trkpt><trkpt lat="44.726568513480544" lon="9.67825927864063"><ele>894.0</ele><time>2026-05-02T09:38:53Z</time></trkpt><trkpt lat="44.72650142213628" lon="9.67836437258579"><ele>894.0</ele><time>2026-05-02T09:38:54Z</time></trkpt><trkpt lat="44.72644964448346" lon="9.678444275760464"><ele>894.0</ele><time>2026-05-02T09:38:55Z</time></trkpt><trkpt lat="44.726398930997554" lon="9.678519612225347"><ele>894.0</ele><time>2026-05-02T09:38:56Z</time></trkpt><trkpt lat="44.726359850086624" lon="9.678592105618241"><ele>894.0</ele><time>2026-05-02T09:38:57Z</time></trkpt><trkpt lat="44.72634038330587" lon="9.678708932637395"><ele>894.0</ele><time>2026-05-02T09:38:59Z</time></trkpt><trkpt lat="44.7263089413419" lon="9.678860834539027"><ele>894.0</ele><time>2026-05-02T09:39:01Z</time></trkpt><trkpt lat="44.72628102896914" lon="9.67895533984185"><ele>891.6</ele><time>2026-05-02T09:39:02Z</time></trkpt><trkpt lat="44.726217381573804" lon="9.679054352006514"><ele>889.2</ele><time>2026-05-02T09:39:04Z</time></trkpt><trkpt lat="44.72612388597654" lon="9.679196866934328"><ele>886.8000000000001</ele><time>2026-05-02T09:39:06Z</time></trkpt><trkpt lat="44.72606128949446" lon="9.679286111725274"><ele>884.4000000000001</ele><time>2026-05-02T09:39:08Z</time></trkpt><trkpt lat="44.72597874769285" lon="9.67927157556873"><ele>882.0</ele><time>2026-05-02T09:39:11Z</time></trkpt><trkpt lat="44.725876149576656" lon="9.679245017536676"><ele>882.0</ele><time>2026-05-02T09:39:13Z</time></trkpt><trkpt lat="44.72578734440428" lon="9.679272646875404"><ele>882.0</ele><time>2026-05-02T09:39:15Z</time></trkpt><trkpt lat="44.72572207611921" lon="9.679358754696382"><ele>882.0</ele><time>2026-05-02T09:39:17Z</time></trkpt><trkpt lat="44.725669378576654" lon="9.679516076290033"><ele>882.0</ele><time>2026-05-02T09:39:18.999Z</time></trkpt><trkpt lat="44.72563756201976" lon="9.679634367468953"><ele>882.0</ele><time>2026-05-02T09:39:20.999Z</time></trkpt><trkpt lat="44.72560401318349" lon="9.679766671814296"><ele>883.6</ele><time>2026-05-02T09:39:22.999Z</time></trkpt><trkpt lat="44.72556655829473" lon="9.679910156209449"><ele>885.2</ele><time>2026-05-02T09:39:24.999Z</time></trkpt><trkpt lat="44.725507981560455" lon="9.68005360799818"><ele>886.8</ele><time>2026-05-02T09:39:26.999Z</time></trkpt><trkpt lat="44.72547137787112" lon="9.680191420909727"><ele>888.4</ele><time>2026-05-02T09:39:28.999Z</time></trkpt><trkpt lat="44.725433812324" lon="9.680316219077815"><ele>890.0</ele><time>2026-05-02T09:39:30.999Z</time></trkpt><trkpt lat="44.72538824686932" lon="9.680436706141968"><ele>890.6</ele><time>2026-05-02T09:39:32.999Z</time></trkpt><trkpt lat="44.72532422697821" lon="9.680600447328008"><ele>891.2</ele><time>2026-05-02T09:39:34.999Z</time></trkpt><trkpt lat="44.72528835136672" lon="9.680685547296948"><ele>891.8</ele><time>2026-05-02T09:39:35.999Z</time></trkpt><trkpt lat="44.725253563477644" lon="9.680763660665686"><ele>892.4</ele><time>2026-05-02T09:39:36.999Z</time></trkpt><trkpt lat="44.72518121416727" lon="9.68090858780603"><ele>893.0</ele><time>2026-05-02T09:39:38.999Z</time></trkpt><trkpt lat="44.7251083631764" lon="9.68102085525501"><ele>885.8</ele><time>2026-05-02T09:39:40.999Z</time></trkpt><trkpt lat="44.72504881876206" lon="9.681125093874705"><ele>878.5999999999999</ele><time>2026-05-02T09:39:42.999Z</time></trkpt><trkpt lat="44.725030787763586" lon="9.681245610011137"><ele>871.4000000000001</ele><time>2026-05-02T09:39:44.999Z</time></trkpt><trkpt lat="44.725085130444036" lon="9.681343133917402"><ele>864.2</ele><time>2026-05-02T09:39:46.999Z</time></trkpt><trkpt lat="44.725135469394566" lon="9.681455610279231"><ele>857.0</ele><time>2026-05-02T09:39:48.999Z</time></trkpt><trkpt lat="44.72514970496486" lon="9.68158100302927"><ele>857.0000000000001</ele><time>2026-05-02T09:39:50.999Z</time></trkpt><trkpt lat="44.72518947988119" lon="9.681671735261048"><ele>857.0</ele><time>2026-05-02T09:39:52.999Z</time></trkpt><trkpt lat="44.72521370777187" lon="9.681824907854427"><ele>857.0</ele><time>2026-05-02T09:39:54.999Z</time></trkpt><trkpt lat="44.72522944690997" lon="9.681949018380752"><ele>857.0</ele><time>2026-05-02T09:39:56.999Z</time></trkpt><trkpt lat="44.72523323696793" lon="9.682038339914493"><ele>857.0000000000001</ele><time>2026-05-02T09:39:58.999Z</time></trkpt><trkpt lat="44.72518501150174" lon="9.68211915431361"><ele>857.0</ele><time>2026-05-02T09:40:01.999Z</time></trkpt><trkpt lat="44.72513175327971" lon="9.682180585002799"><ele>855.4000000000001</ele><time>2026-05-02T09:40:43.998Z</time></trkpt><trkpt lat="44.725025224970565" lon="9.682167994460798"><ele>853.8000000000001</ele><time>2026-05-02T09:41:27.999Z</time></trkpt><trkpt lat="44.72489650623753" lon="9.68215006757796"><ele>852.2</ele><time>2026-05-02T09:41:29.999Z</time></trkpt><trkpt lat="44.72479346585395" lon="9.68215477436852"><ele>850.6</ele><time>2026-05-02T09:41:31.999Z</time></trkpt><trkpt lat="44.72474480565741" lon="9.682251839821303"><ele>849.0</ele><time>2026-05-02T09:41:33.999Z</time></trkpt><trkpt lat="44.724727069216335" lon="9.68236284056761"><ele>849.0</ele><time>2026-05-02T09:41:35.999Z</time></trkpt><trkpt lat="44.7247189302482" lon="9.68246191505272"><ele>849.0</ele><time>2026-05-02T09:41:37.999Z</time></trkpt><trkpt lat="44.724689386328095" lon="9.682546336582131"><ele>849.0</ele><time>2026-05-02T09:42:09.999Z</time></trkpt><trkpt lat="44.724628749716246" lon="9.682625977736313"><ele>849.0</ele><time>2026-05-02T09:42:14.999Z</time></trkpt><trkpt lat="44.724543673770086" lon="9.682614800657172"><ele>849.0</ele><time>2026-05-02T09:42:17.998Z</time></trkpt><trkpt lat="44.72447780155824" lon="9.682625592724817"><ele>849.0</ele><time>2026-05-02T09:42:19.998Z</time></trkpt><trkpt lat="44.72441685026043" lon="9.682741796016845"><ele>842.8000000000001</ele><time>2026-05-02T09:42:22.998Z</time></trkpt><trkpt lat="44.72437798505917" lon="9.682882884042185"><ele>836.6</ele><time>2026-05-02T09:42:24.998Z</time></trkpt><trkpt lat="44.72434339274249" lon="9.682999878646068"><ele>830.4</ele><time>2026-05-02T09:42:26.998Z</time></trkpt><trkpt lat="44.724314313755485" lon="9.68311992113316"><ele>824.2</ele><time>2026-05-02T09:42:28.998Z</time></trkpt><trkpt lat="44.724282787265295" lon="9.683225888463124"><ele>818.0</ele><time>2026-05-02T09:42:30.998Z</time></trkpt><trkpt lat="44.72424721305653" lon="9.683371778832596"><ele>818.0</ele><time>2026-05-02T09:42:32.998Z</time></trkpt><trkpt lat="44.724208785905816" lon="9.683443922341699"><ele>818.0</ele><time>2026-05-02T09:42:33.998Z</time></trkpt><trkpt lat="44.72417207082282" lon="9.683588656756758"><ele>818.0</ele><time>2026-05-02T09:42:35.998Z</time></trkpt><trkpt lat="44.72415599164244" lon="9.683740594400145"><ele>818.0</ele><time>2026-05-02T09:42:37.998Z</time></trkpt><trkpt lat="44.72415565521836" lon="9.683830556271268"><ele>818.0</ele><time>2026-05-02T09:42:38.998Z</time></trkpt><trkpt lat="44.724170941471" lon="9.683988520516365"><ele>817.8333333333334</ele><time>2026-05-02T09:42:40.998Z</time></trkpt><trkpt lat="44.724169039600895" lon="9.68416478923327"><ele>817.6666666666667</ele><time>2026-05-02T09:42:42.998Z</time></trkpt><trkpt lat="44.72415868128698" lon="9.684261413890242"><ele>817.5</ele><time>2026-05-02T09:42:43.998Z</time></trkpt><trkpt lat="44.72414161455622" lon="9.684352737421328"><ele>817.3333333333333</ele><time>2026-05-02T09:42:44.998Z</time></trkpt><trkpt lat="44.72411481653596" lon="9.684487529448754"><ele>817.1666666666666</ele><time>2026-05-02T09:42:46.998Z</time></trkpt><trkpt lat="44.72406544202517" lon="9.684583661828674"><ele>817.0</ele><time>2026-05-02T09:42:48.998Z</time></trkpt><trkpt lat="44.72398493255183" lon="9.68465426670864"><ele>816.0</ele><time>2026-05-02T09:42:50.998Z</time></trkpt><trkpt lat="44.72389978115104" lon="9.684682440007972"><ele>815.0</ele><time>2026-05-02T09:42:53Z</time></trkpt><trkpt lat="44.72382849599751" lon="9.684706940147997"><ele>814.0</ele><time>2026-05-02T09:42:55Z</time></trkpt><trkpt lat="44.72378133360162" lon="9.684810067085293"><ele>813.0</ele><time>2026-05-02T09:42:57Z</time></trkpt><trkpt lat="44.723723948748415" lon="9.68492589941666"><ele>812.0</ele><time>2026-05-02T09:42:59Z</time></trkpt><trkpt lat="44.723656456570296" lon="9.685039138827152"><ele>812.0</ele><time>2026-05-02T09:43:01Z</time></trkpt><trkpt lat="44.72364733708694" lon="9.685176598091793"><ele>812.0</ele><time>2026-05-02T09:43:03Z</time></trkpt><trkpt lat="44.72367443934062" lon="9.685312280276385"><ele>812.0</ele><time>2026-05-02T09:43:05Z</time></trkpt><trkpt lat="44.72369343390511" lon="9.685449409843892"><ele>812.0</ele><time>2026-05-02T09:43:07Z</time></trkpt><trkpt lat="44.723687603584835" lon="9.685578238095744"><ele>812.0</ele><time>2026-05-02T09:43:09Z</time></trkpt><trkpt lat="44.723702016354515" lon="9.68570464074608"><ele>809.4000000000001</ele><time>2026-05-02T09:43:11Z</time></trkpt><trkpt lat="44.72371117400845" lon="9.685823085304886"><ele>806.8000000000001</ele><time>2026-05-02T09:43:13Z</time></trkpt><trkpt lat="44.72375635058322" lon="9.68594824530402"><ele>804.2</ele><time>2026-05-02T09:43:15Z</time></trkpt><trkpt lat="44.72383810259922" lon="9.686040748342082"><ele>801.6</ele><time>2026-05-02T09:43:17Z</time></trkpt><trkpt lat="44.72388598196113" lon="9.686105146701006"><ele>799.0</ele><time>2026-05-02T09:43:20Z</time></trkpt><trkpt lat="44.7239477795579" lon="9.686226362586988"><ele>796.3333333333333</ele><time>2026-05-02T09:43:27Z</time></trkpt><trkpt lat="44.72398245850533" lon="9.68632352646825"><ele>793.6666666666666</ele><time>2026-05-02T09:43:29Z</time></trkpt><trkpt lat="44.72399347179545" lon="9.686444689723366"><ele>791.0</ele><time>2026-05-02T09:44:31.998Z</time></trkpt><trkpt lat="44.7240631782111" lon="9.68650347194147"><ele>788.3333333333333</ele><time>2026-05-02T09:44:33.998Z</time></trkpt><trkpt lat="44.72414646465605" lon="9.686562609093277"><ele>785.6666666666666</ele><time>2026-05-02T09:44:35.998Z</time></trkpt><trkpt lat="44.724224466309174" lon="9.686655259384587"><ele>783.0</ele><time>2026-05-02T09:44:37.998Z</time></trkpt><trkpt lat="44.72429939094543" lon="9.686783527766972"><ele>783.0</ele><time>2026-05-02T09:44:39.998Z</time></trkpt><trkpt lat="44.72434978944178" lon="9.686899390042889"><ele>783.0</ele><time>2026-05-02T09:44:41.998Z</time></trkpt><trkpt lat="44.724381519612436" lon="9.687025785622131"><ele>783.0</ele><time>2026-05-02T09:44:43.998Z</time></trkpt><trkpt lat="44.72442303858717" lon="9.687132285691018"><ele>783.0</ele><time>2026-05-02T09:44:45.998Z</time></trkpt><trkpt lat="44.72447608886908" lon="9.687245773340159"><ele>783.0</ele><time>2026-05-02T09:44:47.998Z</time></trkpt><trkpt lat="44.7245086710043" lon="9.687399343063813"><ele>781.0</ele><time>2026-05-02T09:44:49.998Z</time></trkpt><trkpt lat="44.72453698041483" lon="9.687524428705835"><ele>779.0</ele><time>2026-05-02T09:44:51.998Z</time></trkpt><trkpt lat="44.72457266861415" lon="9.687672147578565"><ele>777.0</ele><time>2026-05-02T09:44:53.998Z</time></trkpt><trkpt lat="44.724595583395576" lon="9.687826420730927"><ele>775.0</ele><time>2026-05-02T09:44:55.998Z</time></trkpt><trkpt lat="44.72459522592275" lon="9.687931091238973"><ele>773.0</ele><time>2026-05-02T09:44:57.998Z</time></trkpt><trkpt lat="44.72454875518986" lon="9.688028841829633"><ele>769.3333333333334</ele><time>2026-05-02T09:45:00Z</time></trkpt><trkpt lat="44.72445662965414" lon="9.688093608880877"><ele>765.6666666666667</ele><time>2026-05-02T09:45:02Z</time></trkpt><trkpt lat="44.724337727951756" lon="9.688113244065654"><ele>762.0</ele><time>2026-05-02T09:45:04Z</time></trkpt><trkpt lat="44.72427202492042" lon="9.688114789623386"><ele>758.3333333333334</ele><time>2026-05-02T09:45:05Z</time></trkpt><trkpt lat="44.72420682038893" lon="9.688091040794797"><ele>754.6666666666667</ele><time>2026-05-02T09:45:06Z</time></trkpt><trkpt lat="44.72414903959019" lon="9.688043860213313"><ele>751.0</ele><time>2026-05-02T09:45:07Z</time></trkpt><trkpt lat="44.724054315838906" lon="9.687970373887667"><ele>751.0</ele><time>2026-05-02T09:45:09Z</time></trkpt><trkpt lat="44.723951483715716" lon="9.687989034961973"><ele>751.0</ele><time>2026-05-02T09:45:11Z</time></trkpt><trkpt lat="44.723859935824215" lon="9.687925068305493"><ele>751.0</ele><time>2026-05-02T09:45:13Z</time></trkpt><trkpt lat="44.72383420178107" lon="9.687813944980459"><ele>751.0</ele><time>2026-05-02T09:45:15Z</time></trkpt><trkpt lat="44.723818415277876" lon="9.687722913418018"><ele>751.0</ele><time>2026-05-02T09:45:17Z</time></trkpt><trkpt lat="44.72381214448742" lon="9.687631442690625"><ele>751.0</ele><time>2026-05-02T09:45:19Z</time></trkpt><trkpt lat="44.72378002113382" lon="9.687517618647448"><ele>751.1999999999999</ele><time>2026-05-02T09:45:21Z</time></trkpt><trkpt lat="44.723726422156744" lon="9.68737718380597"><ele>751.4</ele><time>2026-05-02T09:45:23Z</time></trkpt><trkpt lat="44.7236394771157" lon="9.687257108359793"><ele>751.6</ele><time>2026-05-02T09:45:25Z</time></trkpt><trkpt lat="44.72357741190074" lon="9.687202656353081"><ele>751.8</ele><time>2026-05-02T09:45:26Z</time></trkpt><trkpt lat="44.723504495399766" lon="9.687164101431424"><ele>752.0</ele><time>2026-05-02T09:45:27Z</time></trkpt><trkpt lat="44.723417372364366" lon="9.687149187463607"><ele>752.0</ele><time>2026-05-02T09:45:28Z</time></trkpt><trkpt lat="44.72332236142731" lon="9.687142861920737"><ele>752.0</ele><time>2026-05-02T09:45:29Z</time></trkpt><trkpt lat="44.723232290949696" lon="9.687160714977113"><ele>752.0</ele><time>2026-05-02T09:45:30Z</time></trkpt><trkpt lat="44.72316165424123" lon="9.68716887043772"><ele>752.0</ele><time>2026-05-02T09:45:31Z</time></trkpt><trkpt lat="44.72303381340571" lon="9.687137489552127"><ele>752.0</ele><time>2026-05-02T09:45:33Z</time></trkpt><trkpt lat="44.72296107720556" lon="9.687112474628536"><ele>752.0</ele><time>2026-05-02T09:45:34Z</time></trkpt><trkpt lat="44.7228817224986" lon="9.687076334443153"><ele>752.0</ele><time>2026-05-02T09:45:34.999Z</time></trkpt><trkpt lat="44.72279900314613" lon="9.687021682967513"><ele>752.0</ele><time>2026-05-02T09:45:35.999Z</time></trkpt><trkpt lat="44.722717176913065" lon="9.68696257041127"><ele>752.0</ele><time>2026-05-02T09:45:36.999Z</time></trkpt><trkpt lat="44.72263435023653" lon="9.686903645966542"><ele>752.0</ele><time>2026-05-02T09:45:37.999Z</time></trkpt><trkpt lat="44.722532363043086" lon="9.68684340338742"><ele>753.25</ele><time>2026-05-02T09:45:38.999Z</time></trkpt><trkpt lat="44.72241935764668" lon="9.686777426477255"><ele>754.5</ele><time>2026-05-02T09:45:39.999Z</time></trkpt><trkpt lat="44.722309021165366" lon="9.68672351542738"><ele>755.75</ele><time>2026-05-02T09:45:40.999Z</time></trkpt><trkpt lat="44.72219926986436" lon="9.68668236863094"><ele>757.0</ele><time>2026-05-02T09:45:41.999Z</time></trkpt><trkpt lat="44.72209587110451" lon="9.68664931907668"><ele>757.0</ele><time>2026-05-02T09:45:42.999Z</time></trkpt><trkpt lat="44.721990505003276" lon="9.68661801701573"><ele>757.0</ele><time>2026-05-02T09:45:43.999Z</time></trkpt><trkpt lat="44.72187216654741" lon="9.686584711664954"><ele>757.0</ele><time>2026-05-02T09:45:44.999Z</time></trkpt><trkpt lat="44.72175554370891" lon="9.686542596967918"><ele>757.0</ele><time>2026-05-02T09:45:45.999Z</time></trkpt><trkpt lat="44.72164254639369" lon="9.686518869506349"><ele>758.6</ele><time>2026-05-02T09:45:46.999Z</time></trkpt><trkpt lat="44.7215419510678" lon="9.686507089224678"><ele>760.2</ele><time>2026-05-02T09:45:47.999Z</time></trkpt><trkpt lat="44.721438885759135" lon="9.686510857937789"><ele>761.8</ele><time>2026-05-02T09:45:48.999Z</time></trkpt><trkpt lat="44.721342305945974" lon="9.686522371144422"><ele>763.4</ele><time>2026-05-02T09:45:49.999Z</time></trkpt><trkpt lat="44.721249199422054" lon="9.686532930895693"><ele>765.0</ele><time>2026-05-02T09:45:50.999Z</time></trkpt><trkpt lat="44.72115386045395" lon="9.686534660049679"><ele>767.0</ele><time>2026-05-02T09:45:51.999Z</time></trkpt><trkpt lat="44.72105898214307" lon="9.686520477425299"><ele>769.0</ele><time>2026-05-02T09:45:52.999Z</time></trkpt><trkpt lat="44.72096398682229" lon="9.686490300574894"><ele>771.0</ele><time>2026-05-02T09:45:53.999Z</time></trkpt><trkpt lat="44.720871864244685" lon="9.686448120442678"><ele>773.0</ele><time>2026-05-02T09:45:54.999Z</time></trkpt><trkpt lat="44.72078597923199" lon="9.68638776055319"><ele>775.0</ele><time>2026-05-02T09:45:55.999Z</time></trkpt><trkpt lat="44.72071151612418" lon="9.686343904136484"><ele>775.0</ele><time>2026-05-02T09:45:56.999Z</time></trkpt><trkpt lat="44.72064704915297" lon="9.686319117252689"><ele>775.0</ele><time>2026-05-02T09:45:57.999Z</time></trkpt><trkpt lat="44.720546862948865" lon="9.686294663036414"><ele>775.0</ele><time>2026-05-02T09:45:59.999Z</time></trkpt><trkpt lat="44.720445808960385" lon="9.686248130443298"><ele>775.0</ele><time>2026-05-02T09:46:01.999Z</time></trkpt><trkpt lat="44.72031487295705" lon="9.686187735210792"><ele>775.0</ele><time>2026-05-02T09:46:03.999Z</time></trkpt><trkpt lat="44.72024339579427" lon="9.686157970627338"><ele>776.8</ele><time>2026-05-02T09:46:04.999Z</time></trkpt><trkpt lat="44.72014356585036" lon="9.686103530736556"><ele>778.6</ele><time>2026-05-02T09:46:06.999Z</time></trkpt><trkpt lat="44.72009422746013" lon="9.685983852051343"><ele>780.4000000000001</ele><time>2026-05-02T09:46:08.999Z</time></trkpt><trkpt lat="44.72004253632791" lon="9.685866672536623"><ele>782.2</ele><time>2026-05-02T09:46:10.999Z</time></trkpt><trkpt lat="44.719954788469735" lon="9.685782645808706"><ele>784.0</ele><time>2026-05-02T09:46:12.999Z</time></trkpt><trkpt lat="44.719860670554695" lon="9.685745676243505"><ele>785.2</ele><time>2026-05-02T09:46:14.999Z</time></trkpt><trkpt lat="44.71976057755516" lon="9.685681695325986"><ele>786.4000000000001</ele><time>2026-05-02T09:46:16.999Z</time></trkpt><trkpt lat="44.719699156067726" lon="9.685594942381657"><ele>787.6</ele><time>2026-05-02T09:46:18.999Z</time></trkpt><trkpt lat="44.719707331113305" lon="9.685466435079078"><ele>788.8</ele><time>2026-05-02T09:46:20.999Z</time></trkpt><trkpt lat="44.71972039887625" lon="9.685375892290821"><ele>790.0</ele><time>2026-05-02T09:46:21.998Z</time></trkpt><trkpt lat="44.71968932972356" lon="9.685240207403616"><ele>791.8333333333333</ele><time>2026-05-02T09:46:23.998Z</time></trkpt><trkpt lat="44.71964028996705" lon="9.685173859645815"><ele>793.6666666666666</ele><time>2026-05-02T09:46:24.998Z</time></trkpt><trkpt lat="44.71959737420084" lon="9.68510852767593"><ele>795.5</ele><time>2026-05-02T09:46:25.998Z</time></trkpt><trkpt lat="44.7195045241091" lon="9.685022373315194"><ele>797.3333333333333</ele><time>2026-05-02T09:46:27.998Z</time></trkpt><trkpt lat="44.719437097481865" lon="9.684956999888445"><ele>799.1666666666666</ele><time>2026-05-02T09:46:29.998Z</time></trkpt><trkpt lat="44.71939381109788" lon="9.684848360598332"><ele>801.0</ele><time>2026-05-02T09:46:31.998Z</time></trkpt><trkpt lat="44.719438434053906" lon="9.684757539267979"><ele>801.0</ele><time>2026-05-02T09:46:33.998Z</time></trkpt><trkpt lat="44.71954900636485" lon="9.684715723167352"><ele>801.0</ele><time>2026-05-02T09:46:35.998Z</time></trkpt><trkpt lat="44.719628147587926" lon="9.68462577305771"><ele>801.0</ele><time>2026-05-02T09:46:37.998Z</time></trkpt><trkpt lat="44.7196320979707" lon="9.684466586884797"><ele>801.0</ele><time>2026-05-02T09:46:39.998Z</time></trkpt><trkpt lat="44.71961520326159" lon="9.684338430323287"><ele>801.0</ele><time>2026-05-02T09:46:41.998Z</time></trkpt><trkpt lat="44.71954069087238" lon="9.684289908648289"><ele>802.3333333333334</ele><time>2026-05-02T09:46:43.998Z</time></trkpt><trkpt lat="44.71949198757129" lon="9.684226761772091"><ele>803.6666666666667</ele><time>2026-05-02T09:46:44.998Z</time></trkpt><trkpt lat="44.719428607873276" lon="9.6840999380356"><ele>805.0</ele><time>2026-05-02T09:46:46.998Z</time></trkpt><trkpt lat="44.719399073828185" lon="9.684018882445768"><ele>806.3333333333334</ele><time>2026-05-02T09:46:47.998Z</time></trkpt><trkpt lat="44.719376059070065" lon="9.683914612424017"><ele>807.6666666666667</ele><time>2026-05-02T09:46:48.998Z</time></trkpt><trkpt lat="44.71935144306209" lon="9.683795824405335"><ele>809.0</ele><time>2026-05-02T09:46:49.998Z</time></trkpt><trkpt lat="44.71934592901464" lon="9.683681824053005"><ele>811.0</ele><time>2026-05-02T09:46:50.998Z</time></trkpt><trkpt lat="44.71931322401691" lon="9.683601330271918"><ele>813.0</ele><time>2026-05-02T09:46:51.998Z</time></trkpt><trkpt lat="44.71925186427644" lon="9.683457544498749"><ele>815.0</ele><time>2026-05-02T09:46:53.998Z</time></trkpt><trkpt lat="44.719205651002845" lon="9.683378200210786"><ele>817.0</ele><time>2026-05-02T09:46:54.998Z</time></trkpt><trkpt lat="44.719171941677494" lon="9.68328394481615"><ele>819.0</ele><time>2026-05-02T09:46:55.998Z</time></trkpt><trkpt lat="44.71920057181372" lon="9.683110645589533"><ele>821.6</ele><time>2026-05-02T09:46:57.998Z</time></trkpt><trkpt lat="44.71921992213819" lon="9.68299231316282"><ele>824.2</ele><time>2026-05-02T09:46:58.998Z</time></trkpt><trkpt lat="44.71922426447664" lon="9.682866000146785"><ele>826.8000000000001</ele><time>2026-05-02T09:46:59.998Z</time></trkpt><trkpt lat="44.719222099485535" lon="9.682761689246263"><ele>829.4000000000001</ele><time>2026-05-02T09:47:00.998Z</time></trkpt><trkpt lat="44.71923732803196" lon="9.682589630754686"><ele>832.0</ele><time>2026-05-02T09:47:02.998Z</time></trkpt><trkpt lat="44.71923363034502" lon="9.682439457889306"><ele>833.1666666666666</ele><time>2026-05-02T09:47:05Z</time></trkpt><trkpt lat="44.71922142426357" lon="9.682348008912298"><ele>834.3333333333333</ele><time>2026-05-02T09:47:06Z</time></trkpt><trkpt lat="44.71922033354405" lon="9.682248288613915"><ele>835.5</ele><time>2026-05-02T09:47:07Z</time></trkpt><trkpt lat="44.71923063968073" lon="9.682148634240049"><ele>836.6666666666667</ele><time>2026-05-02T09:47:08Z</time></trkpt><trkpt lat="44.71924669363706" lon="9.68206091385589"><ele>837.8333333333334</ele><time>2026-05-02T09:47:09Z</time></trkpt><trkpt lat="44.719256075192774" lon="9.681866196930038"><ele>839.0</ele><time>2026-05-02T09:47:11Z</time></trkpt><trkpt lat="44.719258148250994" lon="9.681733435723723"><ele>841.0</ele><time>2026-05-02T09:47:12Z</time></trkpt><trkpt lat="44.719227690736496" lon="9.681618498527504"><ele>843.0</ele><time>2026-05-02T09:47:13Z</time></trkpt><trkpt lat="44.719155337179735" lon="9.681516723977452"><ele>845.0</ele><time>2026-05-02T09:47:15Z</time></trkpt><trkpt lat="44.719156341442684" lon="9.681426550926203"><ele>847.0</ele><time>2026-05-02T09:47:16Z</time></trkpt><trkpt lat="44.71916597273083" lon="9.681266182012154"><ele>849.0</ele><time>2026-05-02T09:47:18Z</time></trkpt><trkpt lat="44.71907518537566" lon="9.681172234491262"><ele>849.0</ele><time>2026-05-02T09:47:20Z</time></trkpt><trkpt lat="44.71901188904891" lon="9.681124965749822"><ele>849.0</ele><time>2026-05-02T09:47:21Z</time></trkpt><trkpt lat="44.718960015521155" lon="9.681063657058244"><ele>849.0</ele><time>2026-05-02T09:47:22Z</time></trkpt><trkpt lat="44.71888886948992" lon="9.680920781919365"><ele>849.0</ele><time>2026-05-02T09:47:24Z</time></trkpt><trkpt lat="44.7188750228959" lon="9.680768130047817"><ele>849.0</ele><time>2026-05-02T09:47:26Z</time></trkpt><trkpt lat="44.71887146999024" lon="9.680655827991758"><ele>853.2</ele><time>2026-05-02T09:47:27Z</time></trkpt><trkpt lat="44.71886739168872" lon="9.68051119579711"><ele>857.4000000000001</ele><time>2026-05-02T09:47:28Z</time></trkpt><trkpt lat="44.71884230184369" lon="9.680389314872743"><ele>861.6</ele><time>2026-05-02T09:47:29Z</time></trkpt><trkpt lat="44.71880575867998" lon="9.680302080093366"><ele>865.8</ele><time>2026-05-02T09:47:30Z</time></trkpt><trkpt lat="44.71868747353647" lon="9.680210617892756"><ele>870.0</ele><time>2026-05-02T09:47:32Z</time></trkpt><trkpt lat="44.71858486893036" lon="9.680208400590134"><ele>870.3333333333334</ele><time>2026-05-02T09:47:34Z</time></trkpt><trkpt lat="44.71851285666881" lon="9.680166218993621"><ele>870.6666666666667</ele><time>2026-05-02T09:47:38Z</time></trkpt><trkpt lat="44.718455441160714" lon="9.680129229344352"><ele>871.0</ele><time>2026-05-02T09:47:40Z</time></trkpt><trkpt lat="44.71841895346694" lon="9.680027412856179"><ele>871.3333333333334</ele><time>2026-05-02T09:47:44.999Z</time></trkpt><trkpt lat="44.71841287439435" lon="9.679938921886396"><ele>871.6666666666667</ele><time>2026-05-02T09:47:46.999Z</time></trkpt><trkpt lat="44.71839329806134" lon="9.679820584565597"><ele>872.0</ele><time>2026-05-02T09:48:00.999Z</time></trkpt><trkpt lat="44.71840187541893" lon="9.679676981991168"><ele>872.0</ele><time>2026-05-02T09:48:02.999Z</time></trkpt><trkpt lat="44.71840516231531" lon="9.679567573859114"><ele>872.0</ele><time>2026-05-02T09:48:03.999Z</time></trkpt><trkpt lat="44.718399822831934" lon="9.679463596103318"><ele>872.0</ele><time>2026-05-02T09:48:04.999Z</time></trkpt><trkpt lat="44.718385400914485" lon="9.679372386816032"><ele>872.0</ele><time>2026-05-02T09:48:05.999Z</time></trkpt><trkpt lat="44.718363324700206" lon="9.6792658674629"><ele>872.0</ele><time>2026-05-02T09:48:06.999Z</time></trkpt><trkpt lat="44.718338964186216" lon="9.67916600720754"><ele>872.0</ele><time>2026-05-02T09:48:07.999Z</time></trkpt><trkpt lat="44.71832018932531" lon="9.67907428983239"><ele>872.0</ele><time>2026-05-02T09:48:08.999Z</time></trkpt><trkpt lat="44.718268269041445" lon="9.678954931588521"><ele>875.0</ele><time>2026-05-02T09:48:10.999Z</time></trkpt><trkpt lat="44.71821764552578" lon="9.67887210082652"><ele>878.0</ele><time>2026-05-02T09:48:12.999Z</time></trkpt><trkpt lat="44.718172393563954" lon="9.678789618151292"><ele>881.0</ele><time>2026-05-02T09:48:14.999Z</time></trkpt><trkpt lat="44.71812383109783" lon="9.678589732472899"><ele>884.0</ele><time>2026-05-02T09:48:41.998Z</time></trkpt><trkpt lat="44.71808581121689" lon="9.678491229233105"><ele>887.0</ele><time>2026-05-02T09:48:43.998Z</time></trkpt><trkpt lat="44.718047223718294" lon="9.678400065016625"><ele>890.5000000000001</ele><time>2026-05-02T09:48:45.998Z</time></trkpt><trkpt lat="44.71798592494344" lon="9.6782416149436"><ele>894.0</ele><time>2026-05-02T09:48:47.998Z</time></trkpt><trkpt lat="44.71795389934049" lon="9.678164534658945"><ele>897.5</ele><time>2026-05-02T09:48:48.998Z</time></trkpt><trkpt lat="44.717929105399854" lon="9.678072531189772"><ele>901.0</ele><time>2026-05-02T09:48:49.998Z</time></trkpt><trkpt lat="44.717897747402844" lon="9.677978069121277"><ele>904.5000000000001</ele><time>2026-05-02T09:48:50.998Z</time></trkpt><trkpt lat="44.717860036376656" lon="9.67787531097628"><ele>908.0</ele><time>2026-05-02T09:48:51.998Z</time></trkpt><trkpt lat="44.71783344995249" lon="9.677776733746054"><ele>911.0</ele><time>2026-05-02T09:48:52.998Z</time></trkpt><trkpt lat="44.717827445914686" lon="9.67763360297513"><ele>914.0</ele><time>2026-05-02T09:48:54.998Z</time></trkpt><trkpt lat="44.71784314534396" lon="9.677454555054627"><ele>917.0</ele><time>2026-05-02T09:48:56.998Z</time></trkpt><trkpt lat="44.71790121556066" lon="9.677296593490661"><ele>920.0</ele><time>2026-05-02T09:48:58.998Z</time></trkpt><trkpt lat="44.717995923866226" lon="9.67717217493583"><ele>920.0000000000001</ele><time>2026-05-02T09:49:00.998Z</time></trkpt><trkpt lat="44.71806241745573" lon="9.677019519415678"><ele>920.0</ele><time>2026-05-02T09:49:02.998Z</time></trkpt><trkpt lat="44.71811398684009" lon="9.676940394768359"><ele>920.0</ele><time>2026-05-02T09:49:03.998Z</time></trkpt><trkpt lat="44.71815967013683" lon="9.676848682131466"><ele>920.0</ele><time>2026-05-02T09:49:04.998Z</time></trkpt><trkpt lat="44.718187355968794" lon="9.676731387011737"><ele>920.0000000000001</ele><time>2026-05-02T09:49:05.998Z</time></trkpt><trkpt lat="44.718197151271355" lon="9.676638170241073"><ele>920.0</ele><time>2026-05-02T09:49:06.998Z</time></trkpt><trkpt lat="44.718174307277245" lon="9.676498178119605"><ele>922.0</ele><time>2026-05-02T09:49:08.998Z</time></trkpt><trkpt lat="44.718210744562505" lon="9.676385508561097"><ele>924.0</ele><time>2026-05-02T09:49:11Z</time></trkpt><trkpt lat="44.718331456212645" lon="9.676333110409853"><ele>926.0</ele><time>2026-05-02T09:49:13Z</time></trkpt><trkpt lat="44.71844411880608" lon="9.67627327810934"><ele>928.0</ele><time>2026-05-02T09:49:15Z</time></trkpt><trkpt lat="44.71855774988641" lon="9.6762518800168"><ele>930.0</ele><time>2026-05-02T09:49:17Z</time></trkpt><trkpt lat="44.71866019810748" lon="9.676197437326604"><ele>935.4</ele><time>2026-05-02T09:49:19Z</time></trkpt><trkpt lat="44.71877444061173" lon="9.676205928092848"><ele>940.8</ele><time>2026-05-02T09:49:21Z</time></trkpt><trkpt lat="44.718884369245394" lon="9.676150027141283"><ele>946.2</ele><time>2026-05-02T09:49:23Z</time></trkpt><trkpt lat="44.718932329530105" lon="9.676091956037645"><ele>951.6</ele><time>2026-05-02T09:49:24Z</time></trkpt><trkpt lat="44.718930540245005" lon="9.675964516423988"><ele>957.0</ele><time>2026-05-02T09:49:26Z</time></trkpt><trkpt lat="44.71890035950061" lon="9.675871758325808"><ele>955.1666666666666</ele><time>2026-05-02T09:49:27Z</time></trkpt><trkpt lat="44.718841014738466" lon="9.67581305182975"><ele>953.3333333333333</ele><time>2026-05-02T09:49:28Z</time></trkpt><trkpt lat="44.718779155915676" lon="9.67575553539573"><ele>951.5</ele><time>2026-05-02T09:49:29Z</time></trkpt><trkpt lat="44.7187302882428" lon="9.6756858642776"><ele>949.6666666666666</ele><time>2026-05-02T09:49:30Z</time></trkpt><trkpt lat="44.71862837352382" lon="9.67563765981683"><ele>947.8333333333333</ele><time>2026-05-02T09:49:32Z</time></trkpt><trkpt lat="44.71859145893631" lon="9.675511109663798"><ele>946.0</ele><time>2026-05-02T09:49:33Z</time></trkpt><trkpt lat="44.71856370105423" lon="9.675405660554485"><ele>945.9999999999999</ele><time>2026-05-02T09:49:34Z</time></trkpt><trkpt lat="44.71855157520935" lon="9.675289432607022"><ele>946.0</ele><time>2026-05-02T09:49:35Z</time></trkpt><trkpt lat="44.718531855829056" lon="9.675188308356349"><ele>946.0</ele><time>2026-05-02T09:49:36Z</time></trkpt><trkpt lat="44.71850915803171" lon="9.67509068566386"><ele>946.0</ele><time>2026-05-02T09:49:37Z</time></trkpt><trkpt lat="44.71850318227211" lon="9.674945651541202"><ele>945.9999999999999</ele><time>2026-05-02T09:49:39Z</time></trkpt><trkpt lat="44.71851553931835" lon="9.67481514366459"><ele>946.0</ele><time>2026-05-02T09:49:41Z</time></trkpt><trkpt lat="44.71853559031648" lon="9.674693592369954"><ele>949.1666666666666</ele><time>2026-05-02T09:49:43Z</time></trkpt><trkpt lat="44.71851772095849" lon="9.674607815707999"><ele>952.3333333333333</ele><time>2026-05-02T09:49:45.999Z</time></trkpt><trkpt lat="44.71854876751132" lon="9.674526505929352"><ele>955.5</ele><time>2026-05-02T09:49:47.999Z</time></trkpt><trkpt lat="44.718604930858966" lon="9.674359160475776"><ele>958.6666666666667</ele><time>2026-05-02T09:50:36.998Z</time></trkpt><trkpt lat="44.71868365909962" lon="9.674417021511873"><ele>961.8333333333334</ele><time>2026-05-02T09:50:42.998Z</time></trkpt><trkpt lat="44.71873021215459" lon="9.674522627610642"><ele>965.0</ele><time>2026-05-02T09:50:44.998Z</time></trkpt><trkpt lat="44.718831018187544" lon="9.674651392412814"><ele>970.0000000000001</ele><time>2026-05-02T09:50:46.998Z</time></trkpt><trkpt lat="44.7188948764653" lon="9.674693702357754"><ele>975.0</ele><time>2026-05-02T09:50:47.998Z</time></trkpt><trkpt lat="44.71896277029055" lon="9.674724196141838"><ele>980.0</ele><time>2026-05-02T09:50:48.998Z</time></trkpt><trkpt lat="44.71908076911695" lon="9.67482094697372"><ele>985.0</ele><time>2026-05-02T09:50:50.998Z</time></trkpt><trkpt lat="44.71915072384045" lon="9.674884991728554"><ele>990.0000000000001</ele><time>2026-05-02T09:50:51.998Z</time></trkpt><trkpt lat="44.71921778096849" lon="9.674942361872908"><ele>995.0</ele><time>2026-05-02T09:50:52.998Z</time></trkpt><trkpt lat="44.719280776332894" lon="9.674959135078753"><ele>995.0000000000001</ele><time>2026-05-02T09:50:53.998Z</time></trkpt><trkpt lat="44.71936083178184" lon="9.674924377553369"><ele>995.0</ele><time>2026-05-02T09:51:11.998Z</time></trkpt><trkpt lat="44.719412432395174" lon="9.674861531738708"><ele>995.0</ele><time>2026-05-02T09:51:13.998Z</time></trkpt><trkpt lat="44.719389864076476" lon="9.67475469878447"><ele>995.0</ele><time>2026-05-02T09:51:17Z</time></trkpt><trkpt lat="44.71939217264504" lon="9.674653652957566"><ele>995.0000000000001</ele><time>2026-05-02T09:51:19Z</time></trkpt><trkpt lat="44.7194325663771" lon="9.67454320349989"><ele>995.0</ele><time>2026-05-02T09:51:21Z</time></trkpt><trkpt lat="44.719475481344254" lon="9.674430005019362"><ele>1001.6</ele><time>2026-05-02T09:51:23Z</time></trkpt><trkpt lat="44.719510273117706" lon="9.674310099845588"><ele>1008.2</ele><time>2026-05-02T09:51:25Z</time></trkpt><trkpt lat="44.71956220409373" lon="9.674161984256076"><ele>1014.8</ele><time>2026-05-02T09:51:27Z</time></trkpt><trkpt lat="44.71958852755482" lon="9.674032329563873"><ele>1021.4</ele><time>2026-05-02T09:51:29Z</time></trkpt><trkpt lat="44.71962972795362" lon="9.673884352109978"><ele>1028.0</ele><time>2026-05-02T09:51:31Z</time></trkpt><trkpt lat="44.71971044515339" lon="9.673784977973861"><ele>1028.0</ele><time>2026-05-02T09:51:33Z</time></trkpt><trkpt lat="44.719747299304636" lon="9.673697683062887"><ele>1028.0</ele><time>2026-05-02T09:51:43Z</time></trkpt><trkpt lat="44.71976161300978" lon="9.673582045815964"><ele>1028.0</ele><time>2026-05-02T09:51:45Z</time></trkpt><trkpt lat="44.71972847540413" lon="9.673504385454015"><ele>1028.0</ele><time>2026-05-02T09:51:50Z</time></trkpt><trkpt lat="44.71968589723178" lon="9.673430243398867"><ele>1028.0</ele><time>2026-05-02T09:51:54Z</time></trkpt><trkpt lat="44.7196780676251" lon="9.67328803809642"><ele>1028.0</ele><time>2026-05-02T09:51:55.999Z</time></trkpt><trkpt lat="44.71966175708018" lon="9.67320131907134"><ele>1027.8</ele><time>2026-05-02T09:51:57.999Z</time></trkpt><trkpt lat="44.719618281491286" lon="9.673094499708364"><ele>1027.6</ele><time>2026-05-02T09:51:59.999Z</time></trkpt><trkpt lat="44.719559937409805" lon="9.673004230813053"><ele>1027.4</ele><time>2026-05-02T09:52:01.999Z</time></trkpt><trkpt lat="44.7194747171369" lon="9.672970815602305"><ele>1027.2</ele><time>2026-05-02T09:52:03.999Z</time></trkpt><trkpt lat="44.71934607640178" lon="9.672919609982372"><ele>1027.0</ele><time>2026-05-02T09:52:05.999Z</time></trkpt><trkpt lat="44.71926859385796" lon="9.67280477114686"><ele>1026.1666666666665</ele><time>2026-05-02T09:52:06.999Z</time></trkpt><trkpt lat="44.719260463389084" lon="9.672706580306258"><ele>1025.3333333333333</ele><time>2026-05-02T09:52:08.999Z</time></trkpt><trkpt lat="44.71927088652156" lon="9.67259889393355"><ele>1024.5</ele><time>2026-05-02T09:52:09.999Z</time></trkpt><trkpt lat="44.719304966229735" lon="9.672456136155484"><ele>1023.6666666666667</ele><time>2026-05-02T09:52:11.999Z</time></trkpt><trkpt lat="44.719270516343336" lon="9.672358565051624"><ele>1022.8333333333334</ele><time>2026-05-02T09:52:13.999Z</time></trkpt><trkpt lat="44.719244166181475" lon="9.67225234711663"><ele>1022.0</ele><time>2026-05-02T09:52:21.999Z</time></trkpt><trkpt lat="44.71924548774653" lon="9.672114830275047"><ele>1022.0</ele><time>2026-05-02T09:52:24.999Z</time></trkpt><trkpt lat="44.71925786961009" lon="9.671977819995908"><ele>1022.0</ele><time>2026-05-02T09:52:26.999Z</time></trkpt><trkpt lat="44.719269283518365" lon="9.671798824492157"><ele>1022.0</ele><time>2026-05-02T09:52:28.999Z</time></trkpt><trkpt lat="44.71926985738884" lon="9.671664727712908"><ele>1022.0</ele><time>2026-05-02T09:54:08.999Z</time></trkpt><trkpt lat="44.71922420519351" lon="9.67155436044628"><ele>1022.0</ele><time>2026-05-02T09:54:10.999Z</time></trkpt><trkpt lat="44.71919425551709" lon="9.671412273951582"><ele>1026.6</ele><time>2026-05-02T09:54:13.999Z</time></trkpt><trkpt lat="44.719134916317" lon="9.671359276451991"><ele>1031.2</ele><time>2026-05-02T09:54:18.999Z</time></trkpt><trkpt lat="44.7190567391115" lon="9.671312173437778"><ele>1035.8</ele><time>2026-05-02T09:54:20.999Z</time></trkpt><trkpt lat="44.718945313234165" lon="9.671373390839836"><ele>1040.4</ele><time>2026-05-02T09:54:24.999Z</time></trkpt><trkpt lat="44.718872676612264" lon="9.671427797995452"><ele>1045.0</ele><time>2026-05-02T09:54:26.999Z</time></trkpt><trkpt lat="44.71879424482772" lon="9.671322839319243"><ele>1045.0</ele><time>2026-05-02T09:54:28.999Z</time></trkpt><trkpt lat="44.71876338423388" lon="9.671203928450343"><ele>1045.0</ele><time>2026-05-02T09:54:30.999Z</time></trkpt><trkpt lat="44.718762475060686" lon="9.671109591002077"><ele>1045.0</ele><time>2026-05-02T09:54:33.999Z</time></trkpt><trkpt lat="44.71875079445168" lon="9.670990266507717"><ele>1045.0</ele><time>2026-05-02T09:57:26.998Z</time></trkpt><trkpt lat="44.718777922603394" lon="9.670905374678991"><ele>1045.0</ele><time>2026-05-02T09:57:28.998Z</time></trkpt><trkpt lat="44.718781320284435" lon="9.670792833860139"><ele>1045.0</ele><time>2026-05-02T09:57:30.998Z</time></trkpt><trkpt lat="44.71872919664512" lon="9.670736940176178"><ele>1046.4</ele><time>2026-05-02T09:57:32.998Z</time></trkpt><trkpt lat="44.718665630318924" lon="9.670623184934959"><ele>1047.8</ele><time>2026-05-02T09:57:35Z</time></trkpt><trkpt lat="44.71862727485216" lon="9.670471121138831"><ele>1049.2</ele><time>2026-05-02T09:57:37Z</time></trkpt><trkpt lat="44.718567767222545" lon="9.6703726039549"><ele>1050.6</ele><time>2026-05-02T09:57:39Z</time></trkpt><trkpt lat="44.71852573663823" lon="9.670295058501853"><ele>1052.0</ele><time>2026-05-02T09:57:41Z</time></trkpt><trkpt lat="44.71846176237172" lon="9.670154348419718"><ele>1054.1666666666667</ele><time>2026-05-02T09:57:43Z</time></trkpt><trkpt lat="44.718401616888684" lon="9.67002837925757"><ele>1056.3333333333335</ele><time>2026-05-02T09:57:45Z</time></trkpt><trkpt lat="44.718349625615" lon="9.66993835605416"><ele>1058.5</ele><time>2026-05-02T09:57:47Z</time></trkpt><trkpt lat="44.718307969249814" lon="9.669841866187335"><ele>1060.6666666666667</ele><time>2026-05-02T09:57:49Z</time></trkpt><trkpt lat="44.718280352535885" lon="9.669721819013947"><ele>1062.8333333333333</ele><time>2026-05-02T09:58:18.999Z</time></trkpt><trkpt lat="44.71823207921911" lon="9.669654571793693"><ele>1065.0</ele><time>2026-05-02T09:58:19.999Z</time></trkpt><trkpt lat="44.7181775232225" lon="9.66957718108258"><ele>1065.0</ele><time>2026-05-02T09:58:20.999Z</time></trkpt><trkpt lat="44.71811606726647" lon="9.669466963435102"><ele>1065.0</ele><time>2026-05-02T09:58:21.999Z</time></trkpt><trkpt lat="44.71806159004674" lon="9.669342551133727"><ele>1065.0</ele><time>2026-05-02T09:58:22.999Z</time></trkpt><trkpt lat="44.7179990791837" lon="9.669209557631884"><ele>1065.0</ele><time>2026-05-02T09:58:23.999Z</time></trkpt><trkpt lat="44.71791756348083" lon="9.669098098384714"><ele>1065.0</ele><time>2026-05-02T09:58:24.999Z</time></trkpt><trkpt lat="44.71781633674671" lon="9.669018586517774"><ele>1064.75</ele><time>2026-05-02T09:58:25.999Z</time></trkpt><trkpt lat="44.7177039549128" lon="9.668952811843853"><ele>1064.5</ele><time>2026-05-02T09:58:26.999Z</time></trkpt><trkpt lat="44.71758944436966" lon="9.668873846955027"><ele>1064.25</ele><time>2026-05-02T09:58:27.999Z</time></trkpt><trkpt lat="44.717496724374556" lon="9.668778347970388"><ele>1064.0</ele><time>2026-05-02T09:58:28.999Z</time></trkpt><trkpt lat="44.717427369182985" lon="9.66868247274959"><ele>1068.4</ele><time>2026-05-02T09:58:29.999Z</time></trkpt><trkpt lat="44.71736893372549" lon="9.668572777149626"><ele>1072.8000000000002</ele><time>2026-05-02T09:58:30.999Z</time></trkpt><trkpt lat="44.71731970665596" lon="9.66845328402412"><ele>1077.1999999999998</ele><time>2026-05-02T09:58:31.999Z</time></trkpt><trkpt lat="44.717269104261376" lon="9.66834108466701"><ele>1081.6</ele><time>2026-05-02T09:58:32.999Z</time></trkpt><trkpt lat="44.71721653540402" lon="9.668234125398458"><ele>1086.0</ele><time>2026-05-02T09:58:33.999Z</time></trkpt><trkpt lat="44.717163706736926" lon="9.668125028105573"><ele>1086.0</ele><time>2026-05-02T09:58:34.999Z</time></trkpt><trkpt lat="44.71710777735217" lon="9.668014752000866"><ele>1086.0</ele><time>2026-05-02T09:58:35.999Z</time></trkpt><trkpt lat="44.717048290131046" lon="9.667902833277738"><ele>1086.0</ele><time>2026-05-02T09:58:36.999Z</time></trkpt><trkpt lat="44.71699137578582" lon="9.66779129861445"><ele>1086.0</ele><time>2026-05-02T09:58:37.999Z</time></trkpt><trkpt lat="44.71692316896393" lon="9.667694237121864"><ele>1086.0</ele><time>2026-05-02T09:58:38.999Z</time></trkpt><trkpt lat="44.716852280131754" lon="9.667602026414658"><ele>1086.8</ele><time>2026-05-02T09:58:39.999Z</time></trkpt><trkpt lat="44.71678787625128" lon="9.66750972536884"><ele>1087.6</ele><time>2026-05-02T09:58:40.999Z</time></trkpt><trkpt lat="44.71672964837852" lon="9.667411137718396"><ele>1088.4</ele><time>2026-05-02T09:58:41.999Z</time></trkpt><trkpt lat="44.71667485353061" lon="9.6673021765956"><ele>1089.2</ele><time>2026-05-02T09:58:42.999Z</time></trkpt><trkpt lat="44.716646587083964" lon="9.667161349482088"><ele>1090.0</ele><time>2026-05-02T09:58:43.999Z</time></trkpt><trkpt lat="44.71665281508861" lon="9.667012254879628"><ele>1092.6</ele><time>2026-05-02T09:58:44.999Z</time></trkpt><trkpt lat="44.71667183158771" lon="9.66685527803813"><ele>1095.2</ele><time>2026-05-02T09:58:45.999Z</time></trkpt><trkpt lat="44.71668162979688" lon="9.66670432937715"><ele>1097.8</ele><time>2026-05-02T09:58:46.999Z</time></trkpt><trkpt lat="44.71667578418809" lon="9.666557500441295"><ele>1100.4</ele><time>2026-05-02T09:58:47.999Z</time></trkpt><trkpt lat="44.71665944137776" lon="9.666415999962295"><ele>1103.0</ele><time>2026-05-02T09:58:48.999Z</time></trkpt><trkpt lat="44.71663975252175" lon="9.666279973848924"><ele>1103.0</ele><time>2026-05-02T09:58:49.999Z</time></trkpt><trkpt lat="44.71661633673516" lon="9.666141653144114"><ele>1103.0</ele><time>2026-05-02T09:58:50.999Z</time></trkpt><trkpt lat="44.71659234528206" lon="9.66599895211435"><ele>1103.0</ele><time>2026-05-02T09:58:51.999Z</time></trkpt><trkpt lat="44.71656526502524" lon="9.665850375092052"><ele>1103.0</ele><time>2026-05-02T09:58:52.999Z</time></trkpt><trkpt lat="44.71652626734123" lon="9.665702395505896"><ele>1103.0</ele><time>2026-05-02T09:58:53.999Z</time></trkpt><trkpt lat="44.71646355686671" lon="9.66558048744144"><ele>1105.25</ele><time>2026-05-02T09:58:54.999Z</time></trkpt><trkpt lat="44.71637853474489" lon="9.665463886698332"><ele>1107.5</ele><time>2026-05-02T09:58:55.999Z</time></trkpt><trkpt lat="44.71628436206945" lon="9.665337902562477"><ele>1109.75</ele><time>2026-05-02T09:58:56.999Z</time></trkpt><trkpt lat="44.71618535892075" lon="9.665198418447915"><ele>1112.0</ele><time>2026-05-02T09:58:57.999Z</time></trkpt><trkpt lat="44.716088229195336" lon="9.66505006132439"><ele>1111.0</ele><time>2026-05-02T09:58:58.999Z</time></trkpt><trkpt lat="44.71599961830008" lon="9.664907695329536"><ele>1110.0</ele><time>2026-05-02T09:58:59.999Z</time></trkpt><trkpt lat="44.71591449512609" lon="9.664775993237692"><ele>1109.0</ele><time>2026-05-02T09:59:00.999Z</time></trkpt><trkpt lat="44.71583226541967" lon="9.664646772794875"><ele>1108.0</ele><time>2026-05-02T09:59:01.998Z</time></trkpt><trkpt lat="44.71574911016393" lon="9.6645195800269"><ele>1112.0</ele><time>2026-05-02T09:59:02.998Z</time></trkpt><trkpt lat="44.71565922292842" lon="9.664381000933322"><ele>1116.0</ele><time>2026-05-02T09:59:03.998Z</time></trkpt><trkpt lat="44.71556338585516" lon="9.66423517477058"><ele>1120.0</ele><time>2026-05-02T09:59:04.998Z</time></trkpt><trkpt lat="44.715474797005754" lon="9.664104371602553"><ele>1124.0</ele><time>2026-05-02T09:59:05.998Z</time></trkpt><trkpt lat="44.71539776440165" lon="9.663991585515056"><ele>1124.0</ele><time>2026-05-02T09:59:06.998Z</time></trkpt><trkpt lat="44.71531796216352" lon="9.663894447538434"><ele>1124.0</ele><time>2026-05-02T09:59:07.998Z</time></trkpt><trkpt lat="44.71522282703873" lon="9.663819883930172"><ele>1124.0</ele><time>2026-05-02T09:59:08.998Z</time></trkpt><trkpt lat="44.71512509314815" lon="9.663776273612177"><ele>1124.0</ele><time>2026-05-02T09:59:09.998Z</time></trkpt><trkpt lat="44.715030567705945" lon="9.663756624628387"><ele>1124.0</ele><time>2026-05-02T09:59:10.998Z</time></trkpt><trkpt lat="44.71493936911254" lon="9.66374069751907"><ele>1122.8333333333335</ele><time>2026-05-02T09:59:11.998Z</time></trkpt><trkpt lat="44.71486328355021" lon="9.663705429897483"><ele>1121.6666666666667</ele><time>2026-05-02T09:59:12.998Z</time></trkpt><trkpt lat="44.714818265800204" lon="9.663643365715389"><ele>1120.5</ele><time>2026-05-02T09:59:13.998Z</time></trkpt><trkpt lat="44.714803677175794" lon="9.663482904597654"><ele>1119.3333333333333</ele><time>2026-05-02T09:59:15.998Z</time></trkpt><trkpt lat="44.71484571175878" lon="9.663403658190852"><ele>1118.1666666666665</ele><time>2026-05-02T09:59:16.998Z</time></trkpt><trkpt lat="44.71492295960302" lon="9.663342965973701"><ele>1117.0</ele><time>2026-05-02T09:59:17.998Z</time></trkpt><trkpt lat="44.715020449687486" lon="9.663301901969714"><ele>1120.5</ele><time>2026-05-02T09:59:18.998Z</time></trkpt><trkpt lat="44.71510148631437" lon="9.663278098616772"><ele>1124.0</ele><time>2026-05-02T09:59:19.998Z</time></trkpt><trkpt lat="44.71516801677589" lon="9.663273755380509"><ele>1127.5</ele><time>2026-05-02T09:59:20.998Z</time></trkpt><trkpt lat="44.715252355791996" lon="9.663274281258818"><ele>1131.0</ele><time>2026-05-02T09:59:22.998Z</time></trkpt><trkpt lat="44.715322898713666" lon="9.663285923579348"><ele>1134.5</ele><time>2026-05-02T09:59:26.998Z</time></trkpt><trkpt lat="44.71538740864083" lon="9.663263850623338"><ele>1138.0</ele><time>2026-05-02T09:59:43Z</time></trkpt><trkpt lat="44.71542476346921" lon="9.663164299497952"><ele>1138.0</ele><time>2026-05-02T09:59:45Z</time></trkpt><trkpt lat="44.71538661386399" lon="9.663026163824524"><ele>1138.0</ele><time>2026-05-02T09:59:47Z</time></trkpt><trkpt lat="44.71536334812301" lon="9.66287121550244"><ele>1138.0</ele><time>2026-05-02T09:59:49Z</time></trkpt><trkpt lat="44.71532196926282" lon="9.66275488395913"><ele>1138.0</ele><time>2026-05-02T09:59:51Z</time></trkpt><trkpt lat="44.715224680344576" lon="9.662752856662088"><ele>1138.0</ele><time>2026-05-02T09:59:54Z</time></trkpt><trkpt lat="44.71516736353797" lon="9.662791768899286"><ele>1138.0</ele><time>2026-05-02T09:59:55Z</time></trkpt><trkpt lat="44.71503622663324" lon="9.662806692726472"><ele>1138.0</ele><time>2026-05-02T09:59:57Z</time></trkpt><trkpt lat="44.714961024799315" lon="9.662799338264863"><ele>1138.0</ele><time>2026-05-02T09:59:58Z</time></trkpt><trkpt lat="44.71486565974659" lon="9.66278962167689"><ele>1138.0</ele><time>2026-05-02T10:00:00Z</time></trkpt><trkpt lat="44.71476857548707" lon="9.662891798748289"><ele>1138.0</ele><time>2026-05-02T10:00:02Z</time></trkpt><trkpt lat="44.71471509303783" lon="9.662948673543017"><ele>1138.0</ele><time>2026-05-02T10:00:03Z</time></trkpt><trkpt lat="44.71466930779475" lon="9.663018056311007"><ele>1138.0</ele><time>2026-05-02T10:00:04Z</time></trkpt><trkpt lat="44.71463732381662" lon="9.663095703595133"><ele>1138.0</ele><time>2026-05-02T10:00:05Z</time></trkpt><trkpt lat="44.71458451870086" lon="9.663171588765373"><ele>1138.0</ele><time>2026-05-02T10:00:06Z</time></trkpt><trkpt lat="44.71449116268708" lon="9.663278906778698"><ele>1138.0</ele><time>2026-05-02T10:00:08Z</time></trkpt><trkpt lat="44.71442806521429" lon="9.663347801725566"><ele>1138.0</ele><time>2026-05-02T10:00:09Z</time></trkpt><trkpt lat="44.71434335774988" lon="9.663446993983126"><ele>1141.0</ele><time>2026-05-02T10:00:10Z</time></trkpt><trkpt lat="44.714277752184344" lon="9.66353713683414"><ele>1144.0</ele><time>2026-05-02T10:00:11Z</time></trkpt><trkpt lat="44.71423376527727" lon="9.663617906302337"><ele>1147.0</ele><time>2026-05-02T10:00:12Z</time></trkpt><trkpt lat="44.71416327555313" lon="9.663783403432745"><ele>1150.0</ele><time>2026-05-02T10:00:14Z</time></trkpt><trkpt lat="44.71409592457186" lon="9.663905484216576"><ele>1153.0</ele><time>2026-05-02T10:00:16Z</time></trkpt><trkpt lat="44.71397850167438" lon="9.663945670963558"><ele>1153.0</ele><time>2026-05-02T10:00:18Z</time></trkpt><trkpt lat="44.713905895291795" lon="9.66393814694645"><ele>1153.0</ele><time>2026-05-02T10:00:18.999Z</time></trkpt><trkpt lat="44.71379899087249" lon="9.664028000011585"><ele>1153.0</ele><time>2026-05-02T10:00:20.999Z</time></trkpt><trkpt lat="44.71376377687557" lon="9.664101855636858"><ele>1153.0</ele><time>2026-05-02T10:00:21.999Z</time></trkpt><trkpt lat="44.713684942619146" lon="9.664178212813203"><ele>1153.0</ele><time>2026-05-02T10:00:23.999Z</time></trkpt><trkpt lat="44.713535745152925" lon="9.664179849699728"><ele>1157.8</ele><time>2026-05-02T10:00:25.999Z</time></trkpt><trkpt lat="44.713451383197054" lon="9.664170594055978"><ele>1162.6</ele><time>2026-05-02T10:00:26.999Z</time></trkpt><trkpt lat="44.713366247879506" lon="9.664213637187771"><ele>1167.4</ele><time>2026-05-02T10:00:28.999Z</time></trkpt><trkpt lat="44.71325455845189" lon="9.664278003188857"><ele>1172.2</ele><time>2026-05-02T10:00:30.999Z</time></trkpt><trkpt lat="44.713190606193905" lon="9.664327776762365"><ele>1177.0</ele><time>2026-05-02T10:00:31.999Z</time></trkpt><trkpt lat="44.71311960659527" lon="9.66440939834772"><ele>1174.3333333333333</ele><time>2026-05-02T10:00:32.999Z</time></trkpt><trkpt lat="44.71305321375744" lon="9.66445225647342"><ele>1171.6666666666665</ele><time>2026-05-02T10:00:33.999Z</time></trkpt><trkpt lat="44.71297437652626" lon="9.66449880147659"><ele>1169.0</ele><time>2026-05-02T10:00:34.999Z</time></trkpt><trkpt lat="44.71291162334004" lon="9.664508540000396"><ele>1166.3333333333333</ele><time>2026-05-02T10:00:35.999Z</time></trkpt><trkpt lat="44.71279702123818" lon="9.664554205122602"><ele>1163.6666666666667</ele><time>2026-05-02T10:00:37.999Z</time></trkpt><trkpt lat="44.712700576511445" lon="9.664618589220874"><ele>1161.0</ele><time>2026-05-02T10:00:39.999Z</time></trkpt><trkpt lat="44.712581536352396" lon="9.664661902760294"><ele>1161.0</ele><time>2026-05-02T10:00:41.999Z</time></trkpt><trkpt lat="44.71247471204277" lon="9.66467819513316"><ele>1161.0</ele><time>2026-05-02T10:00:43.999Z</time></trkpt><trkpt lat="44.71235555465467" lon="9.664684854156121"><ele>1161.0</ele><time>2026-05-02T10:00:45.999Z</time></trkpt><trkpt lat="44.71223738286901" lon="9.66470006294542"><ele>1161.0</ele><time>2026-05-02T10:00:47.999Z</time></trkpt><trkpt lat="44.71213323256369" lon="9.66465812238893"><ele>1161.0</ele><time>2026-05-02T10:00:49.999Z</time></trkpt><trkpt lat="44.712019020895845" lon="9.664617031515045"><ele>1161.0</ele><time>2026-05-02T10:00:51.999Z</time></trkpt><trkpt lat="44.711952876256824" lon="9.664586097121973"><ele>1161.0</ele><time>2026-05-02T10:00:52.999Z</time></trkpt><trkpt lat="44.711898855520175" lon="9.664531052738587"><ele>1161.0</ele><time>2026-05-02T10:00:53.999Z</time></trkpt><trkpt lat="44.71182638879352" lon="9.664393811434302"><ele>1161.0</ele><time>2026-05-02T10:00:55.999Z</time></trkpt><trkpt lat="44.71178067982781" lon="9.664315250794235"><ele>1161.0</ele><time>2026-05-02T10:00:56.999Z</time></trkpt><trkpt lat="44.71169629736873" lon="9.664210446262917"><ele>1160.6666666666667</ele><time>2026-05-02T10:00:58.999Z</time></trkpt><trkpt lat="44.711648727287546" lon="9.664142428434632"><ele>1160.3333333333333</ele><time>2026-05-02T10:00:59.999Z</time></trkpt><trkpt lat="44.71160223472652" lon="9.664053706960818"><ele>1160.0</ele><time>2026-05-02T10:01:00.999Z</time></trkpt><trkpt lat="44.71155358937143" lon="9.663972915326749"><ele>1159.6666666666665</ele><time>2026-05-02T10:01:01.999Z</time></trkpt><trkpt lat="44.711510796549604" lon="9.663885309156957"><ele>1159.3333333333333</ele><time>2026-05-02T10:01:02.999Z</time></trkpt><trkpt lat="44.71147033658349" lon="9.663799725649561"><ele>1159.0</ele><time>2026-05-02T10:01:03.999Z</time></trkpt><trkpt lat="44.71143437567217" lon="9.663697682111449"><ele>1162.6666666666665</ele><time>2026-05-02T10:01:04.999Z</time></trkpt><trkpt lat="44.71139192702306" lon="9.663591351592911"><ele>1166.3333333333333</ele><time>2026-05-02T10:01:05.999Z</time></trkpt><trkpt lat="44.71136944427333" lon="9.663453189445411"><ele>1170.0</ele><time>2026-05-02T10:01:06.998Z</time></trkpt><trkpt lat="44.7113342239465" lon="9.663355606415152"><ele>1173.6666666666667</ele><time>2026-05-02T10:01:07.998Z</time></trkpt><trkpt lat="44.71129381807091" lon="9.663264567922539"><ele>1177.3333333333335</ele><time>2026-05-02T10:01:08.998Z</time></trkpt><trkpt lat="44.71125505309355" lon="9.66317193393181"><ele>1181.0</ele><time>2026-05-02T10:01:09.998Z</time></trkpt><trkpt lat="44.71121840316408" lon="9.663082951431807"><ele>1181.0</ele><time>2026-05-02T10:01:10.998Z</time></trkpt><trkpt lat="44.7111787820025" lon="9.662972343559538"><ele>1181.0</ele><time>2026-05-02T10:01:11.998Z</time></trkpt><trkpt lat="44.71113428115865" lon="9.662881771725425"><ele>1181.0</ele><time>2026-05-02T10:01:12.998Z</time></trkpt><trkpt lat="44.71108871642805" lon="9.662767786611843"><ele>1181.0</ele><time>2026-05-02T10:01:13.998Z</time></trkpt><trkpt lat="44.7110640941083" lon="9.662649097521264"><ele>1181.0</ele><time>2026-05-02T10:01:14.998Z</time></trkpt><trkpt lat="44.711045686132714" lon="9.662531213550796"><ele>1181.0</ele><time>2026-05-02T10:01:15.998Z</time></trkpt><trkpt lat="44.71101927699202" lon="9.662431003697003"><ele>1180.8</ele><time>2026-05-02T10:01:16.998Z</time></trkpt><trkpt lat="44.71099208839488" lon="9.662318832541946"><ele>1180.6</ele><time>2026-05-02T10:01:17.998Z</time></trkpt><trkpt lat="44.710974211168214" lon="9.662180750645454"><ele>1180.4</ele><time>2026-05-02T10:01:18.998Z</time></trkpt><trkpt lat="44.71095998129174" lon="9.662059669021694"><ele>1180.2</ele><time>2026-05-02T10:01:19.998Z</time></trkpt><trkpt lat="44.710964007400634" lon="9.661929666886286"><ele>1180.0</ele><time>2026-05-02T10:01:20.998Z</time></trkpt><trkpt lat="44.71096992262428" lon="9.661807441025312"><ele>1180.0</ele><time>2026-05-02T10:01:21.998Z</time></trkpt><trkpt lat="44.71098365343347" lon="9.661715709129185"><ele>1180.0</ele><time>2026-05-02T10:01:22.998Z</time></trkpt><trkpt lat="44.71094224216871" lon="9.661622292486"><ele>1180.0</ele><time>2026-05-02T10:01:25.998Z</time></trkpt><trkpt lat="44.71083206842904" lon="9.661578612856925"><ele>1180.0</ele><time>2026-05-02T10:01:27.998Z</time></trkpt><trkpt lat="44.710768597201266" lon="9.661563714874934"><ele>1180.0</ele><time>2026-05-02T10:01:28.998Z</time></trkpt><trkpt lat="44.71067241839579" lon="9.661550102245675"><ele>1180.0</ele><time>2026-05-02T10:01:30.998Z</time></trkpt><trkpt lat="44.710577078142286" lon="9.661531884261901"><ele>1180.0</ele><time>2026-05-02T10:01:32.998Z</time></trkpt><trkpt lat="44.710473440740415" lon="9.66145708572014"><ele>1180.0</ele><time>2026-05-02T10:01:34.998Z</time></trkpt><trkpt lat="44.71040242603374" lon="9.661360065888523"><ele>1180.0</ele><time>2026-05-02T10:01:35.998Z</time></trkpt><trkpt lat="44.710354830093095" lon="9.661258323798412"><ele>1180.0</ele><time>2026-05-02T10:01:36.998Z</time></trkpt><trkpt lat="44.71032553216836" lon="9.661170251505828"><ele>1180.0</ele><time>2026-05-02T10:01:37.998Z</time></trkpt><trkpt lat="44.71031061274764" lon="9.661080380713756"><ele>1180.0</ele><time>2026-05-02T10:01:38.998Z</time></trkpt><trkpt lat="44.71028998270032" lon="9.66097342649151"><ele>1179.0</ele><time>2026-05-02T10:01:39.998Z</time></trkpt><trkpt lat="44.710253958333396" lon="9.66088860619559"><ele>1178.0</ele><time>2026-05-02T10:01:40.998Z</time></trkpt><trkpt lat="44.7102103883637" lon="9.660771259832982"><ele>1177.0</ele><time>2026-05-02T10:01:42.998Z</time></trkpt><trkpt lat="44.71010469916866" lon="9.660742548089754"><ele>1176.0</ele><time>2026-05-02T10:01:44.998Z</time></trkpt><trkpt lat="44.71004390373979" lon="9.660777871828547"><ele>1175.0</ele><time>2026-05-02T10:01:45.998Z</time></trkpt><trkpt lat="44.70993220631218" lon="9.660795352706696"><ele>1175.0</ele><time>2026-05-02T10:01:48Z</time></trkpt><trkpt lat="44.70986116320154" lon="9.660792555942175"><ele>1175.0</ele><time>2026-05-02T10:01:49Z</time></trkpt><trkpt lat="44.70978488330821" lon="9.66078574339987"><ele>1175.0</ele><time>2026-05-02T10:01:50Z</time></trkpt><trkpt lat="44.70972313373093" lon="9.66072141332376"><ele>1175.0</ele><time>2026-05-02T10:01:51Z</time></trkpt><trkpt lat="44.70969056019348" lon="9.660627206190817"><ele>1175.0</ele><time>2026-05-02T10:01:53Z</time></trkpt><trkpt lat="44.709647928469536" lon="9.660548789709361"><ele>1175.0</ele><time>2026-05-02T10:02:02Z</time></trkpt><trkpt lat="44.70958882458113" lon="9.660436759671502"><ele>1175.0</ele><time>2026-05-02T10:02:04Z</time></trkpt><trkpt lat="44.7095432402698" lon="9.660373071364369"><ele>1175.0</ele><time>2026-05-02T10:02:05Z</time></trkpt><trkpt lat="44.70944680340589" lon="9.660272168144822"><ele>1175.0</ele><time>2026-05-02T10:02:07Z</time></trkpt><trkpt lat="44.70935773116472" lon="9.660198663958413"><ele>1175.0</ele><time>2026-05-02T10:02:09Z</time></trkpt><trkpt lat="44.709295189481054" lon="9.660078305359518"><ele>1175.0</ele><time>2026-05-02T10:02:11Z</time></trkpt><trkpt lat="44.70926730539432" lon="9.659998670013206"><ele>1175.3333333333335</ele><time>2026-05-02T10:02:12Z</time></trkpt><trkpt lat="44.70923458963716" lon="9.659909268834976"><ele>1175.6666666666667</ele><time>2026-05-02T10:02:13Z</time></trkpt><trkpt lat="44.70919835081231" lon="9.659810266784646"><ele>1176.0</ele><time>2026-05-02T10:02:14Z</time></trkpt><trkpt lat="44.70915779325564" lon="9.65971987785625"><ele>1176.3333333333333</ele><time>2026-05-02T10:02:15Z</time></trkpt><trkpt lat="44.70912204735561" lon="9.659636362736371"><ele>1176.6666666666665</ele><time>2026-05-02T10:02:16Z</time></trkpt><trkpt lat="44.709050354754595" lon="9.65950417399543"><ele>1177.0</ele><time>2026-05-02T10:02:18Z</time></trkpt><trkpt lat="44.70895365562136" lon="9.659430157151023"><ele>1179.0</ele><time>2026-05-02T10:02:20Z</time></trkpt><trkpt lat="44.70888194861232" lon="9.659408861314459"><ele>1181.0</ele><time>2026-05-02T10:02:21Z</time></trkpt><trkpt lat="44.70878191316682" lon="9.659373009674256"><ele>1183.0</ele><time>2026-05-02T10:02:23Z</time></trkpt><trkpt lat="44.70871826277504" lon="9.659328123989878"><ele>1185.0</ele><time>2026-05-02T10:02:24.999Z</time></trkpt><trkpt lat="44.70862858144876" lon="9.659263827964462"><ele>1187.0</ele><time>2026-05-02T10:02:26.999Z</time></trkpt><trkpt lat="44.70855890152244" lon="9.659220153751992"><ele>1189.0</ele><time>2026-05-02T10:02:27.999Z</time></trkpt><trkpt lat="44.708470285635066" lon="9.659224077975136"><ele>1189.0</ele><time>2026-05-02T10:02:29.999Z</time></trkpt><trkpt lat="44.708407338872995" lon="9.659200817110024"><ele>1189.0</ele><time>2026-05-02T10:02:33.999Z</time></trkpt><trkpt lat="44.70835959054461" lon="9.659050733399123"><ele>1189.0</ele><time>2026-05-02T10:02:36.999Z</time></trkpt><trkpt lat="44.70832837835458" lon="9.65888881583137"><ele>1189.0</ele><time>2026-05-02T10:02:38.999Z</time></trkpt><trkpt lat="44.708319479134396" lon="9.65871861487864"><ele>1189.0</ele><time>2026-05-02T10:02:40.999Z</time></trkpt><trkpt lat="44.70830196561554" lon="9.658606330166544"><ele>1190.0</ele><time>2026-05-02T10:02:41.999Z</time></trkpt><trkpt lat="44.70829180985523" lon="9.658492069021245"><ele>1191.0</ele><time>2026-05-02T10:02:42.999Z</time></trkpt><trkpt lat="44.708280755966314" lon="9.65839964609455"><ele>1192.0</ele><time>2026-05-02T10:02:43.999Z</time></trkpt><trkpt lat="44.708300571571435" lon="9.658244214263553"><ele>1193.0</ele><time>2026-05-02T10:02:45.999Z</time></trkpt><trkpt lat="44.708328280474454" lon="9.65815180323496"><ele>1194.0</ele><time>2026-05-02T10:02:46.999Z</time></trkpt><trkpt lat="44.708343498060714" lon="9.657957726589242"><ele>1194.0</ele><time>2026-05-02T10:02:48.999Z</time></trkpt><trkpt lat="44.70831020148928" lon="9.657785863933782"><ele>1194.0</ele><time>2026-05-02T10:02:50.999Z</time></trkpt><trkpt lat="44.70830007319555" lon="9.657697860173451"><ele>1194.0</ele><time>2026-05-02T10:02:51.999Z</time></trkpt><trkpt lat="44.70829442888368" lon="9.65755113756061"><ele>1194.0</ele><time>2026-05-02T10:02:53.999Z</time></trkpt><trkpt lat="44.70830023191476" lon="9.657418822427294"><ele>1194.0</ele><time>2026-05-02T10:02:55.999Z</time></trkpt><trkpt lat="44.708305814396425" lon="9.657310723287678"><ele>1195.2</ele><time>2026-05-02T10:02:56.999Z</time></trkpt><trkpt lat="44.708309678253244" lon="9.657216476830078"><ele>1196.4</ele><time>2026-05-02T10:02:57.999Z</time></trkpt><trkpt lat="44.70831951805502" lon="9.657085477654515"><ele>1197.6</ele><time>2026-05-02T10:02:59.999Z</time></trkpt><trkpt lat="44.708319297577496" lon="9.656931262789142"><ele>1198.8</ele><time>2026-05-02T10:03:01.999Z</time></trkpt><trkpt lat="44.708272396186075" lon="9.656777190153145"><ele>1200.0</ele><time>2026-05-02T10:03:03.999Z</time></trkpt><trkpt lat="44.70822509997611" lon="9.656681632252745"><ele>1201.8333333333333</ele><time>2026-05-02T10:03:07.999Z</time></trkpt><trkpt lat="44.70820409582965" lon="9.656562416541997"><ele>1203.6666666666667</ele><time>2026-05-02T10:03:16.998Z</time></trkpt><trkpt lat="44.708197137465596" lon="9.65643250015832"><ele>1205.5</ele><time>2026-05-02T10:03:18.998Z</time></trkpt><trkpt lat="44.70818976301135" lon="9.656334974067041"><ele>1207.3333333333335</ele><time>2026-05-02T10:03:19.998Z</time></trkpt><trkpt lat="44.70817550914286" lon="9.656216098284107"><ele>1209.1666666666667</ele><time>2026-05-02T10:03:20.998Z</time></trkpt><trkpt lat="44.708171221047024" lon="9.65609731944358"><ele>1211.0</ele><time>2026-05-02T10:03:21.998Z</time></trkpt><trkpt lat="44.70815663691296" lon="9.655948528791358"><ele>1213.0</ele><time>2026-05-02T10:03:23.998Z</time></trkpt><trkpt lat="44.70814919354453" lon="9.65582315830874"><ele>1215.0</ele><time>2026-05-02T10:03:25.998Z</time></trkpt><trkpt lat="44.70815637055366" lon="9.655679551307061"><ele>1217.0</ele><time>2026-05-02T10:03:27.998Z</time></trkpt><trkpt lat="44.70811345683634" lon="9.655485154427252"><ele>1219.0</ele><time>2026-05-02T10:03:29.998Z</time></trkpt><trkpt lat="44.70810341391577" lon="9.655392405666788"><ele>1221.0</ele><time>2026-05-02T10:03:30.998Z</time></trkpt><trkpt lat="44.70807814987525" lon="9.655251686399884"><ele>1221.6</ele><time>2026-05-02T10:03:32.998Z</time></trkpt><trkpt lat="44.70804258353662" lon="9.655098014811095"><ele>1222.1999999999998</ele><time>2026-05-02T10:03:34.998Z</time></trkpt><trkpt lat="44.70801295265959" lon="9.654962292057354"><ele>1222.8000000000002</ele><time>2026-05-02T10:03:36.998Z</time></trkpt><trkpt lat="44.70796996515226" lon="9.654860421129577"><ele>1223.4</ele><time>2026-05-02T10:03:39.998Z</time></trkpt><trkpt lat="44.70793320400806" lon="9.654746012310936"><ele>1224.0</ele><time>2026-05-02T10:04:04Z</time></trkpt><trkpt lat="44.707930135843945" lon="9.654627472175708"><ele>1224.0</ele><time>2026-05-02T10:04:06Z</time></trkpt><trkpt lat="44.70791345516915" lon="9.654466108109535"><ele>1224.0</ele><time>2026-05-02T10:04:08Z</time></trkpt><trkpt lat="44.707917792666265" lon="9.654368674102455"><ele>1224.0</ele><time>2026-05-02T10:04:09Z</time></trkpt><trkpt lat="44.70792592399216" lon="9.65426438560399"><ele>1224.0</ele><time>2026-05-02T10:04:10Z</time></trkpt><trkpt lat="44.70792078226045" lon="9.65415184628293"><ele>1224.0</ele><time>2026-05-02T10:04:11Z</time></trkpt><trkpt lat="44.70792058339038" lon="9.654060560421081"><ele>1224.0</ele><time>2026-05-02T10:04:12Z</time></trkpt><trkpt lat="44.707885173830746" lon="9.65395792671956"><ele>1225.8</ele><time>2026-05-02T10:04:14Z</time></trkpt><trkpt lat="44.70778894474118" lon="9.653914517262123"><ele>1227.6000000000001</ele><time>2026-05-02T10:04:16Z</time></trkpt><trkpt lat="44.70772093531804" lon="9.653813327844253"><ele>1229.4</ele><time>2026-05-02T10:04:18Z</time></trkpt><trkpt lat="44.707670997973146" lon="9.653732070680357"><ele>1231.2</ele><time>2026-05-02T10:04:20Z</time></trkpt><trkpt lat="44.707693811361395" lon="9.653586193939667"><ele>1233.0</ele><time>2026-05-02T10:04:22Z</time></trkpt><trkpt lat="44.70766971033449" lon="9.65343317519984"><ele>1233.7142857142858</ele><time>2026-05-02T10:04:24Z</time></trkpt><trkpt lat="44.70763596839297" lon="9.653345445306703"><ele>1234.4285714285713</ele><time>2026-05-02T10:04:26Z</time></trkpt><trkpt lat="44.70755692258347" lon="9.653359563938132"><ele>1235.142857142857</ele><time>2026-05-02T10:04:28.999Z</time></trkpt><trkpt lat="44.70748778129358" lon="9.653345017995466"><ele>1235.857142857143</ele><time>2026-05-02T10:04:35.999Z</time></trkpt><trkpt lat="44.70742625473227" lon="9.653318825265641"><ele>1236.5714285714287</ele><time>2026-05-02T10:04:39.999Z</time></trkpt><trkpt lat="44.70736479689205" lon="9.653278632712885"><ele>1237.2857142857142</ele><time>2026-05-02T10:04:44.999Z</time></trkpt><trkpt lat="44.70730252474514" lon="9.65321292054728"><ele>1238.0</ele><time>2026-05-02T10:04:48.999Z</time></trkpt><trkpt lat="44.70724353826961" lon="9.653173992716864"><ele>1238.0</ele><time>2026-05-02T10:04:50.999Z</time></trkpt><trkpt lat="44.70720381206625" lon="9.653092818656043"><ele>1238.0</ele><time>2026-05-02T10:04:52.999Z</time></trkpt><trkpt lat="44.70716269351276" lon="9.653025010989715"><ele>1238.0</ele><time>2026-05-02T10:04:54.999Z</time></trkpt><trkpt lat="44.707131469393495" lon="9.652929320884287"><ele>1238.0</ele><time>2026-05-02T10:04:56.999Z</time></trkpt><trkpt lat="44.70714463286436" lon="9.652826932683487"><ele>1238.0</ele><time>2026-05-02T10:04:58.999Z</time></trkpt><trkpt lat="44.707156521015534" lon="9.652686714651942"><ele>1238.0</ele><time>2026-05-02T10:05:00.999Z</time></trkpt><trkpt lat="44.70718346280515" lon="9.652587246047942"><ele>1235.6666666666667</ele><time>2026-05-02T10:05:02.999Z</time></trkpt><trkpt lat="44.70723703098084" lon="9.652496136459675"><ele>1233.3333333333335</ele><time>2026-05-02T10:05:04.999Z</time></trkpt><trkpt lat="44.70726933877846" lon="9.652417892303461"><ele>1231.0</ele><time>2026-05-02T10:05:07.999Z</time></trkpt><trkpt lat="44.70730076611603" lon="9.652292850703317"><ele>1228.6666666666667</ele><time>2026-05-02T10:05:09.999Z</time></trkpt><trkpt lat="44.70731853106029" lon="9.652185642108522"><ele>1226.3333333333333</ele><time>2026-05-02T10:05:11.999Z</time></trkpt><trkpt lat="44.707398857144284" lon="9.652123740290023"><ele>1224.0</ele><time>2026-05-02T10:05:13.999Z</time></trkpt><trkpt lat="44.707475044347106" lon="9.65208860669253"><ele>1224.0</ele><time>2026-05-02T10:05:15.998Z</time></trkpt><trkpt lat="44.70755556723043" lon="9.652077607418267"><ele>1224.0</ele><time>2026-05-02T10:05:17.998Z</time></trkpt><trkpt lat="44.70763564734101" lon="9.652044849377909"><ele>1224.0</ele><time>2026-05-02T10:05:20.998Z</time></trkpt><trkpt lat="44.707705421884434" lon="9.652020912762856"><ele>1224.0</ele><time>2026-05-02T10:05:23.998Z</time></trkpt><trkpt lat="44.70776652712018" lon="9.651974665738512"><ele>1224.0</ele><time>2026-05-02T10:05:26.998Z</time></trkpt><trkpt lat="44.70782175353031" lon="9.651910460205515"><ele>1224.0</ele><time>2026-05-02T10:05:28.998Z</time></trkpt><trkpt lat="44.70784205597673" lon="9.651800960803604"><ele>1220.5</ele><time>2026-05-02T10:05:31.998Z</time></trkpt><trkpt lat="44.70786448288451" lon="9.651667443177127"><ele>1217.0</ele><time>2026-05-02T10:05:34.998Z</time></trkpt><trkpt lat="44.70788802227343" lon="9.651562936157509"><ele>1213.5</ele><time>2026-05-02T10:05:37.998Z</time></trkpt><trkpt lat="44.70786589646108" lon="9.65146776798311"><ele>1210.0</ele><time>2026-05-02T10:05:39.998Z</time></trkpt><trkpt lat="44.70778690961621" lon="9.651475112865372"><ele>1206.5</ele><time>2026-05-02T10:05:44.998Z</time></trkpt><trkpt lat="44.70774374172326" lon="9.65136938644713"><ele>1203.0</ele><time>2026-05-02T10:05:46.998Z</time></trkpt><trkpt lat="44.707666901788734" lon="9.651323951178753"><ele>1202.857142857143</ele><time>2026-05-02T10:07:17.999Z</time></trkpt><trkpt lat="44.70761688733179" lon="9.651248872500158"><ele>1202.7142857142858</ele><time>2026-05-02T10:07:21.998Z</time></trkpt><trkpt lat="44.70756288027762" lon="9.651176655181812"><ele>1202.5714285714284</ele><time>2026-05-02T10:07:24.998Z</time></trkpt><trkpt lat="44.70749561256932" lon="9.651113490933838"><ele>1202.4285714285716</ele><time>2026-05-02T10:07:29.998Z</time></trkpt><trkpt lat="44.70746095564637" lon="9.651023898869909"><ele>1202.2857142857144</ele><time>2026-05-02T10:07:35.998Z</time></trkpt><trkpt lat="44.70742210444108" lon="9.650927734044812"><ele>1202.142857142857</ele><time>2026-05-02T10:07:37.998Z</time></trkpt><trkpt lat="44.707376650327106" lon="9.650864039116788"><ele>1202.0</ele><time>2026-05-02T10:07:38.998Z</time></trkpt><trkpt lat="44.70728881522694" lon="9.650773785874385"><ele>1198.6666666666667</ele><time>2026-05-02T10:07:40.998Z</time></trkpt><trkpt lat="44.70722869936289" lon="9.650719314132473"><ele>1195.3333333333335</ele><time>2026-05-02T10:07:42.998Z</time></trkpt><trkpt lat="44.70718534663841" lon="9.6506228855648"><ele>1192.0</ele><time>2026-05-02T10:07:45.998Z</time></trkpt><trkpt lat="44.707154748135125" lon="9.650506878310907"><ele>1188.6666666666667</ele><time>2026-05-02T10:07:48.998Z</time></trkpt><trkpt lat="44.70714492756669" lon="9.65039995597052"><ele>1185.3333333333333</ele><time>2026-05-02T10:07:50.998Z</time></trkpt><trkpt lat="44.70714336461543" lon="9.650289110883318"><ele>1182.0</ele><time>2026-05-02T10:07:52.998Z</time></trkpt><trkpt lat="44.70711710597604" lon="9.650208102584322"><ele>1179.0</ele><time>2026-05-02T10:07:54.998Z</time></trkpt><trkpt lat="44.70713177371044" lon="9.650078786983705"><ele>1176.0</ele><time>2026-05-02T10:07:57.998Z</time></trkpt><trkpt lat="44.70715622926347" lon="9.64997269935997"><ele>1173.0</ele><time>2026-05-02T10:07:59.998Z</time></trkpt><trkpt lat="44.707195038789024" lon="9.649884454689746"><ele>1170.0</ele><time>2026-05-02T10:08:01.998Z</time></trkpt><trkpt lat="44.70723286773609" lon="9.649795660976269"><ele>1167.0</ele><time>2026-05-02T10:08:05Z</time></trkpt><trkpt lat="44.70727837880223" lon="9.649731167086433"><ele>1164.0</ele><time>2026-05-02T10:08:06Z</time></trkpt><trkpt lat="44.70734060567629" lon="9.64967848347117"><ele>1164.0</ele><time>2026-05-02T10:08:08Z</time></trkpt><trkpt lat="44.707400741595166" lon="9.649614988402345"><ele>1164.0</ele><time>2026-05-02T10:08:17Z</time></trkpt><trkpt lat="44.70746194656906" lon="9.649571740410977"><ele>1164.0</ele><time>2026-05-02T10:08:26Z</time></trkpt><trkpt lat="44.707530761096486" lon="9.649554607264164"><ele>1164.0</ele><time>2026-05-02T10:08:28Z</time></trkpt><trkpt lat="44.707634537461885" lon="9.649515942108787"><ele>1164.0</ele><time>2026-05-02T10:08:30Z</time></trkpt><trkpt lat="44.70769726790023" lon="9.649445352489916"><ele>1164.0</ele><time>2026-05-02T10:08:32Z</time></trkpt><trkpt lat="44.70774062031233" lon="9.64936191346258"><ele>1164.5714285714284</ele><time>2026-05-02T10:08:35Z</time></trkpt><trkpt lat="44.707749119642365" lon="9.649262587954215"><ele>1165.142857142857</ele><time>2026-05-02T10:08:39Z</time></trkpt><trkpt lat="44.707734152200636" lon="9.649167511285352"><ele>1165.7142857142858</ele><time>2026-05-02T10:08:42Z</time></trkpt><trkpt lat="44.7077103486515" lon="9.649071879097505"><ele>1166.2857142857142</ele><time>2026-05-02T10:08:44.999Z</time></trkpt><trkpt lat="44.70767666303054" lon="9.648995779810907"><ele>1166.857142857143</ele><time>2026-05-02T10:08:47.999Z</time></trkpt><trkpt lat="44.70760318661537" lon="9.648955497030308"><ele>1167.4285714285713</ele><time>2026-05-02T10:09:38.998Z</time></trkpt><trkpt lat="44.70752136214548" lon="9.64895059278156"><ele>1168.0</ele><time>2026-05-02T10:09:41.998Z</time></trkpt><trkpt lat="44.707449841023134" lon="9.648914592231247"><ele>1164.857142857143</ele><time>2026-05-02T10:09:44.998Z</time></trkpt><trkpt lat="44.707402778320734" lon="9.64883715266737"><ele>1161.7142857142858</ele><time>2026-05-02T10:09:47.998Z</time></trkpt><trkpt lat="44.70736708271415" lon="9.648763229809957"><ele>1158.5714285714287</ele><time>2026-05-02T10:09:50.998Z</time></trkpt><trkpt lat="44.70734243484403" lon="9.648681250779909"><ele>1155.4285714285716</ele><time>2026-05-02T10:09:53.998Z</time></trkpt><trkpt lat="44.707338713264946" lon="9.648583886077434"><ele>1152.2857142857144</ele><time>2026-05-02T10:09:56.998Z</time></trkpt><trkpt lat="44.707327999123585" lon="9.648488410085042"><ele>1149.142857142857</ele><time>2026-05-02T10:09:58.998Z</time></trkpt><trkpt lat="44.70733383615126" lon="9.648377984038488"><ele>1146.0</ele><time>2026-05-02T10:10:00.998Z</time></trkpt><trkpt lat="44.70730618122634" lon="9.64829605737994"><ele>1144.0</ele><time>2026-05-02T10:10:02.998Z</time></trkpt><trkpt lat="44.70721769622778" lon="9.648098723113288"><ele>1142.0</ele><time>2026-05-02T10:10:04.998Z</time></trkpt><trkpt lat="44.707210091266234" lon="9.648001631751308"><ele>1140.0</ele><time>2026-05-02T10:10:06.998Z</time></trkpt><trkpt lat="44.70721741377021" lon="9.647895451336723"><ele>1138.0</ele><time>2026-05-02T10:10:08.998Z</time></trkpt><trkpt lat="44.707245826627485" lon="9.647801772568805"><ele>1136.0</ele><time>2026-05-02T10:10:12Z</time></trkpt><trkpt lat="44.70728424895667" lon="9.647725878373528"><ele>1134.0</ele><time>2026-05-02T10:10:14Z</time></trkpt><trkpt lat="44.70732987651469" lon="9.647631250980304"><ele>1132.0</ele><time>2026-05-02T10:10:16Z</time></trkpt><trkpt lat="44.70735948825146" lon="9.647545837083143"><ele>1130.0</ele><time>2026-05-02T10:10:17Z</time></trkpt><trkpt lat="44.70739545827339" lon="9.647462710513368"><ele>1128.0</ele><time>2026-05-02T10:10:18Z</time></trkpt><trkpt lat="44.70743905726271" lon="9.647388670677586"><ele>1126.0</ele><time>2026-05-02T10:10:19Z</time></trkpt><trkpt lat="44.70747542227608" lon="9.647315975223727"><ele>1124.0</ele><time>2026-05-02T10:10:20Z</time></trkpt><trkpt lat="44.707543142711934" lon="9.647174480227607"><ele>1124.0</ele><time>2026-05-02T10:10:22Z</time></trkpt><trkpt lat="44.70755816281734" lon="9.647021263488522"><ele>1124.0</ele><time>2026-05-02T10:10:24Z</time></trkpt><trkpt lat="44.707536120015384" lon="9.646914829246587"><ele>1124.0</ele><time>2026-05-02T10:10:26Z</time></trkpt><trkpt lat="44.70745291789942" lon="9.64680034883979"><ele>1124.0</ele><time>2026-05-02T10:10:28Z</time></trkpt><trkpt lat="44.70745791532371" lon="9.646647004679625"><ele>1124.0</ele><time>2026-05-02T10:10:30Z</time></trkpt><trkpt lat="44.70747801824314" lon="9.646499306732427"><ele>1120.2</ele><time>2026-05-02T10:10:32Z</time></trkpt><trkpt lat="44.707503059617615" lon="9.64635417503859"><ele>1116.4</ele><time>2026-05-02T10:10:34Z</time></trkpt><trkpt lat="44.707528270946355" lon="9.646191354681068"><ele>1112.6</ele><time>2026-05-02T10:10:36Z</time></trkpt><trkpt lat="44.70752241754728" lon="9.646091702973514"><ele>1108.8</ele><time>2026-05-02T10:10:37Z</time></trkpt><trkpt lat="44.707480615724116" lon="9.64595179596728"><ele>1105.0</ele><time>2026-05-02T10:10:39Z</time></trkpt><trkpt lat="44.70743357963798" lon="9.645874138085503"><ele>1104.0</ele><time>2026-05-02T10:10:40Z</time></trkpt><trkpt lat="44.70738529800083" lon="9.645811013292816"><ele>1103.0</ele><time>2026-05-02T10:10:41Z</time></trkpt><trkpt lat="44.70731554489268" lon="9.645693165043495"><ele>1102.0</ele><time>2026-05-02T10:10:43Z</time></trkpt><trkpt lat="44.7072914440049" lon="9.645600276317284"><ele>1101.0</ele><time>2026-05-02T10:10:44Z</time></trkpt><trkpt lat="44.70728602663384" lon="9.645486620416369"><ele>1100.0</ele><time>2026-05-02T10:10:45Z</time></trkpt><trkpt lat="44.707271005116645" lon="9.645388365216549"><ele>1099.0</ele><time>2026-05-02T10:10:46Z</time></trkpt><trkpt lat="44.707240170269685" lon="9.645306867263827"><ele>1098.6666666666665</ele><time>2026-05-02T10:10:47Z</time></trkpt><trkpt lat="44.70719905451687" lon="9.645237228381346"><ele>1098.3333333333333</ele><time>2026-05-02T10:10:48Z</time></trkpt><trkpt lat="44.7071258789591" lon="9.645135287911671"><ele>1098.0</ele><time>2026-05-02T10:10:50Z</time></trkpt><trkpt lat="44.707129063805404" lon="9.644989294543109"><ele>1097.6666666666667</ele><time>2026-05-02T10:10:51.999Z</time></trkpt><trkpt lat="44.70709575705845" lon="9.644913758309862"><ele>1097.3333333333335</ele><time>2026-05-02T10:11:23.999Z</time></trkpt><trkpt lat="44.707076313501965" lon="9.645003333452474"><ele>1097.0</ele><time>2026-05-02T10:11:26.999Z</time></trkpt><trkpt lat="44.70703912812245" lon="9.645149684388416"><ele>1097.0</ele><time>2026-05-02T10:11:28.999Z</time></trkpt><trkpt lat="44.70697554881679" lon="9.645243476951809"><ele>1097.0</ele><time>2026-05-02T10:11:30.999Z</time></trkpt><trkpt lat="44.70689724834862" lon="9.64529469737063"><ele>1097.0</ele><time>2026-05-02T10:11:32.999Z</time></trkpt><trkpt lat="44.706830005738915" lon="9.645310901101102"><ele>1097.0</ele><time>2026-05-02T10:11:33.999Z</time></trkpt><trkpt lat="44.70676222855354" lon="9.645349914954707"><ele>1097.0</ele><time>2026-05-02T10:11:34.999Z</time></trkpt><trkpt lat="44.70670091476501" lon="9.645390038989234"><ele>1097.0</ele><time>2026-05-02T10:11:35.999Z</time></trkpt><trkpt lat="44.70663544173794" lon="9.645444534704096"><ele>1094.8333333333335</ele><time>2026-05-02T10:11:36.999Z</time></trkpt><trkpt lat="44.70655641260877" lon="9.645494084829085"><ele>1092.6666666666667</ele><time>2026-05-02T10:11:38.998Z</time></trkpt><trkpt lat="44.706497703464166" lon="9.645455956020593"><ele>1090.5</ele><time>2026-05-02T10:11:42.998Z</time></trkpt><trkpt lat="44.70643198181756" lon="9.645454206067857"><ele>1088.3333333333333</ele><time>2026-05-02T10:11:50.998Z</time></trkpt><trkpt lat="44.70632634203625" lon="9.645470796806935"><ele>1086.1666666666665</ele><time>2026-05-02T10:11:52.998Z</time></trkpt><trkpt lat="44.70624514840929" lon="9.645504661203951"><ele>1084.0</ele><time>2026-05-02T10:11:56.998Z</time></trkpt><trkpt lat="44.70616467888545" lon="9.64551571375685"><ele>1084.0</ele><time>2026-05-02T10:11:59.998Z</time></trkpt><trkpt lat="44.70608142854713" lon="9.645545057921762"><ele>1084.0</ele><time>2026-05-02T10:12:01.998Z</time></trkpt><trkpt lat="44.705994559403415" lon="9.645565414805997"><ele>1084.0</ele><time>2026-05-02T10:12:03.998Z</time></trkpt><trkpt lat="44.70592718502217" lon="9.645666873925004"><ele>1084.0</ele><time>2026-05-02T10:12:07.998Z</time></trkpt><trkpt lat="44.70587045476921" lon="9.645733559313538"><ele>1084.0</ele><time>2026-05-02T10:12:09.998Z</time></trkpt><trkpt lat="44.705806468998425" lon="9.645765681142466"><ele>1084.0</ele><time>2026-05-02T10:12:11.998Z</time></trkpt><trkpt lat="44.70574376838219" lon="9.645801813929522"><ele>1082.8333333333333</ele><time>2026-05-02T10:12:14.998Z</time></trkpt><trkpt lat="44.70565454184744" lon="9.645848051833298"><ele>1081.6666666666665</ele><time>2026-05-02T10:13:27.999Z</time></trkpt><trkpt lat="44.70558355539367" lon="9.645873047515567"><ele>1080.5</ele><time>2026-05-02T10:13:29.999Z</time></trkpt><trkpt lat="44.705520417852526" lon="9.645905231462473"><ele>1079.3333333333333</ele><time>2026-05-02T10:13:34.999Z</time></trkpt><trkpt lat="44.70544358790742" lon="9.645942967831658"><ele>1078.1666666666667</ele><time>2026-05-02T10:13:37.999Z</time></trkpt><trkpt lat="44.705415852847594" lon="9.646033497388897"><ele>1077.0</ele><time>2026-05-02T10:13:40.999Z</time></trkpt><trkpt lat="44.70537023867067" lon="9.646132003902766"><ele>1077.0</ele><time>2026-05-02T10:13:44.998Z</time></trkpt><trkpt lat="44.705309542433746" lon="9.646189832734514"><ele>1077.0</ele><time>2026-05-02T10:13:47.998Z</time></trkpt><trkpt lat="44.70522015284915" lon="9.646296885887597"><ele>1077.0</ele><time>2026-05-02T10:13:50.998Z</time></trkpt><trkpt lat="44.70515164092707" lon="9.646342534719071"><ele>1077.0</ele><time>2026-05-02T10:13:53.998Z</time></trkpt><trkpt lat="44.70506533952145" lon="9.646378427331411"><ele>1077.0</ele><time>2026-05-02T10:13:56.998Z</time></trkpt><trkpt lat="44.704950312998136" lon="9.646344710266366"><ele>1074.6666666666667</ele><time>2026-05-02T10:14:12.998Z</time></trkpt><trkpt lat="44.70488771720532" lon="9.646369024241721"><ele>1072.3333333333333</ele><time>2026-05-02T10:14:15.998Z</time></trkpt><trkpt lat="44.70479943574282" lon="9.646371323529321"><ele>1070.0</ele><time>2026-05-02T10:14:17.998Z</time></trkpt><trkpt lat="44.70471710367892" lon="9.64636301875751"><ele>1067.6666666666665</ele><time>2026-05-02T10:14:19.998Z</time></trkpt><trkpt lat="44.70462278616119" lon="9.646309319991454"><ele>1065.3333333333333</ele><time>2026-05-02T10:14:23Z</time></trkpt><trkpt lat="44.70454283974387" lon="9.646283187250969"><ele>1063.0</ele><time>2026-05-02T10:14:25Z</time></trkpt><trkpt lat="44.70446690963702" lon="9.646247111771894"><ele>1060.5</ele><time>2026-05-02T10:14:27Z</time></trkpt><trkpt lat="44.70440525456354" lon="9.646197270229484"><ele>1058.0</ele><time>2026-05-02T10:14:29Z</time></trkpt><trkpt lat="44.70431399492228" lon="9.646168207547309"><ele>1055.5</ele><time>2026-05-02T10:14:32Z</time></trkpt><trkpt lat="44.70424505662742" lon="9.646173757511344"><ele>1053.0</ele><time>2026-05-02T10:15:00.999Z</time></trkpt><trkpt lat="44.70424346949352" lon="9.64607363190068"><ele>1050.5</ele><time>2026-05-02T10:15:06.999Z</time></trkpt><trkpt lat="44.70423113296061" lon="9.645949173086612"><ele>1048.0</ele><time>2026-05-02T10:15:09.999Z</time></trkpt><trkpt lat="44.70422112896347" lon="9.645825445742382"><ele>1046.8333333333333</ele><time>2026-05-02T10:15:11.999Z</time></trkpt><trkpt lat="44.70423783826266" lon="9.645709051560745"><ele>1045.6666666666665</ele><time>2026-05-02T10:15:14.999Z</time></trkpt><trkpt lat="44.704292427793305" lon="9.645642683792552"><ele>1044.5</ele><time>2026-05-02T10:15:17.999Z</time></trkpt><trkpt lat="44.70433726803205" lon="9.645737026895507"><ele>1043.3333333333333</ele><time>2026-05-02T10:15:20.999Z</time></trkpt><trkpt lat="44.70433404663377" lon="9.645841873664677"><ele>1042.1666666666667</ele><time>2026-05-02T10:15:21.999Z</time></trkpt><trkpt lat="44.70432747625717" lon="9.645948575655922"><ele>1041.0</ele><time>2026-05-02T10:15:22.999Z</time></trkpt><trkpt lat="44.7043201237228" lon="9.646049213092873"><ele>1042.1666666666667</ele><time>2026-05-02T10:15:23.999Z</time></trkpt><trkpt lat="44.704262516619195" lon="9.646162209211935"><ele>1043.3333333333333</ele><time>2026-05-02T10:15:25.999Z</time></trkpt><trkpt lat="44.7041974965816" lon="9.646172816395755"><ele>1044.5</ele><time>2026-05-02T10:15:28.999Z</time></trkpt><trkpt lat="44.70414828745528" lon="9.646249741028642"><ele>1045.6666666666665</ele><time>2026-05-02T10:15:52.998Z</time></trkpt><trkpt lat="44.70409236804414" lon="9.646296173757396"><ele>1046.8333333333333</ele><time>2026-05-02T10:15:54.998Z</time></trkpt><trkpt lat="44.70400880640356" lon="9.646289272782923"><ele>1048.0</ele><time>2026-05-02T10:15:56.998Z</time></trkpt><trkpt lat="44.703937026399146" lon="9.646308806694865"><ele>1048.0</ele><time>2026-05-02T10:15:57.998Z</time></trkpt><trkpt lat="44.70384488852504" lon="9.64634833836928"><ele>1048.0</ele><time>2026-05-02T10:15:59.998Z</time></trkpt><trkpt lat="44.703759589715126" lon="9.646354668144637"><ele>1048.0</ele><time>2026-05-02T10:16:01.998Z</time></trkpt><trkpt lat="44.70373758776942" lon="9.6462220914862"><ele>1048.0</ele><time>2026-05-02T10:16:04.998Z</time></trkpt><trkpt lat="44.70376937937581" lon="9.646129712838"><ele>1048.0</ele><time>2026-05-02T10:16:06.998Z</time></trkpt><trkpt lat="44.70385101326926" lon="9.646132917786048"><ele>1048.0</ele><time>2026-05-02T10:17:06.999Z</time></trkpt><trkpt lat="44.7037812988393" lon="9.646125031475881"><ele>1046.6</ele><time>2026-05-02T10:18:07.998Z</time></trkpt><trkpt lat="44.70370084295333" lon="9.646105383664667"><ele>1045.1999999999998</ele><time>2026-05-02T10:18:30.998Z</time></trkpt><trkpt lat="44.70359474514755" lon="9.646092001773571"><ele>1043.8</ele><time>2026-05-02T10:18:33.998Z</time></trkpt><trkpt lat="44.70347234594254" lon="9.646087627657334"><ele>1042.3999999999999</ele><time>2026-05-02T10:18:38Z</time></trkpt><trkpt lat="44.70336747926096" lon="9.64611241447789"><ele>1041.0</ele><time>2026-05-02T10:18:40Z</time></trkpt><trkpt lat="44.703283039423205" lon="9.646216937219675"><ele>1040.0</ele><time>2026-05-02T10:18:42Z</time></trkpt><trkpt lat="44.70323244707143" lon="9.646290489352007"><ele>1039.0</ele><time>2026-05-02T10:18:43Z</time></trkpt><trkpt lat="44.70317363540691" lon="9.646367598339014"><ele>1038.0</ele><time>2026-05-02T10:18:44Z</time></trkpt><trkpt lat="44.70311941878304" lon="9.64644427019208"><ele>1037.0</ele><time>2026-05-02T10:18:45Z</time></trkpt><trkpt lat="44.7030661590867" lon="9.646503628616212"><ele>1036.0</ele><time>2026-05-02T10:18:46Z</time></trkpt><trkpt lat="44.703003136784005" lon="9.646554890901907"><ele>1035.0</ele><time>2026-05-02T10:18:47Z</time></trkpt><trkpt lat="44.702944041446216" lon="9.646595733767684"><ele>1034.0</ele><time>2026-05-02T10:18:48Z</time></trkpt><trkpt lat="44.70285270343569" lon="9.646658792323768"><ele>1034.0</ele><time>2026-05-02T10:18:50Z</time></trkpt><trkpt lat="44.70277620907747" lon="9.646633288550303"><ele>1034.0</ele><time>2026-05-02T10:18:52Z</time></trkpt><trkpt lat="44.70268790213435" lon="9.646582982855211"><ele>1034.0</ele><time>2026-05-02T10:18:54Z</time></trkpt><trkpt lat="44.70260481309965" lon="9.646554138832759"><ele>1034.0</ele><time>2026-05-02T10:18:56Z</time></trkpt><trkpt lat="44.702513866069324" lon="9.646541397689631"><ele>1034.0</ele><time>2026-05-02T10:18:58Z</time></trkpt><trkpt lat="44.702450702332655" lon="9.646532589919302"><ele>1034.0</ele><time>2026-05-02T10:19:00Z</time></trkpt><trkpt lat="44.70239521361061" lon="9.64648165051828"><ele>1031.4</ele><time>2026-05-02T10:19:02Z</time></trkpt><trkpt lat="44.70226368673145" lon="9.646335999124098"><ele>1028.8000000000002</ele><time>2026-05-02T10:19:05Z</time></trkpt><trkpt lat="44.702202899972136" lon="9.646295107899945"><ele>1026.1999999999998</ele><time>2026-05-02T10:19:07Z</time></trkpt><trkpt lat="44.7020912188774" lon="9.646283766158891"><ele>1023.5999999999999</ele><time>2026-05-02T10:20:06.998Z</time></trkpt><trkpt lat="44.702018025129455" lon="9.646282273329053"><ele>1021.0</ele><time>2026-05-02T10:20:07.998Z</time></trkpt><trkpt lat="44.70191263099793" lon="9.646258082374201"><ele>1020.4999999999999</ele><time>2026-05-02T10:20:09.998Z</time></trkpt><trkpt lat="44.70184239761422" lon="9.64627729730605"><ele>1020.0</ele><time>2026-05-02T10:20:12.998Z</time></trkpt><trkpt lat="44.7018169195125" lon="9.646362548155253"><ele>1019.5</ele><time>2026-05-02T10:20:15.998Z</time></trkpt><trkpt lat="44.7017569394264" lon="9.64641164001516"><ele>1019.0</ele><time>2026-05-02T10:20:32.998Z</time></trkpt><trkpt lat="44.701685721042075" lon="9.646347806067821"><ele>1018.4999999999999</ele><time>2026-05-02T10:20:34.998Z</time></trkpt><trkpt lat="44.70162602120583" lon="9.646249070936035"><ele>1018.0</ele><time>2026-05-02T10:20:36.998Z</time></trkpt><trkpt lat="44.701557695316055" lon="9.646194687600795"><ele>1016.6666666666666</ele><time>2026-05-02T10:20:38.998Z</time></trkpt><trkpt lat="44.70149316968245" lon="9.64611246854904"><ele>1015.3333333333333</ele><time>2026-05-02T10:20:41Z</time></trkpt><trkpt lat="44.70144056204147" lon="9.64599605556016"><ele>1014.0</ele><time>2026-05-02T10:20:43Z</time></trkpt><trkpt lat="44.70137061026295" lon="9.645924211886499"><ele>1012.6666666666667</ele><time>2026-05-02T10:20:45Z</time></trkpt><trkpt lat="44.701268165183485" lon="9.645916361506274"><ele>1011.3333333333334</ele><time>2026-05-02T10:20:47Z</time></trkpt><trkpt lat="44.70119583309634" lon="9.645930500465937"><ele>1010.0</ele><time>2026-05-02T10:20:48Z</time></trkpt><trkpt lat="44.701100548992876" lon="9.64593765591623"><ele>1008.8333333333334</ele><time>2026-05-02T10:20:50Z</time></trkpt><trkpt lat="44.70102402669398" lon="9.645899385093983"><ele>1007.6666666666667</ele><time>2026-05-02T10:20:52Z</time></trkpt><trkpt lat="44.70095812042125" lon="9.64589673932701"><ele>1006.5</ele><time>2026-05-02T10:20:54Z</time></trkpt><trkpt lat="44.70087058382991" lon="9.645905263419113"><ele>1005.3333333333333</ele><time>2026-05-02T10:20:56Z</time></trkpt><trkpt lat="44.700776775511706" lon="9.64592995260012"><ele>1004.1666666666666</ele><time>2026-05-02T10:20:58Z</time></trkpt><trkpt lat="44.700686686552984" lon="9.645864575053972"><ele>1003.0</ele><time>2026-05-02T10:21:01Z</time></trkpt><trkpt lat="44.70067236827122" lon="9.645746234474567"><ele>1002.9999999999999</ele><time>2026-05-02T10:21:03Z</time></trkpt><trkpt lat="44.700653173440884" lon="9.645640785381737"><ele>1003.0</ele><time>2026-05-02T10:21:05Z</time></trkpt><trkpt lat="44.700589098965736" lon="9.645572240864984"><ele>1003.0</ele><time>2026-05-02T10:21:07Z</time></trkpt><trkpt lat="44.700522757348615" lon="9.645497545375145"><ele>1003.0</ele><time>2026-05-02T10:21:09Z</time></trkpt><trkpt lat="44.70048520103745" lon="9.645399651159986"><ele>1002.9999999999999</ele><time>2026-05-02T10:21:11Z</time></trkpt><trkpt lat="44.700432497358015" lon="9.645285294305307"><ele>1003.0</ele><time>2026-05-02T10:21:13Z</time></trkpt><trkpt lat="44.70035379251721" lon="9.64521259076301"><ele>1000.8</ele><time>2026-05-02T10:21:15Z</time></trkpt><trkpt lat="44.700272510223215" lon="9.645200604242834"><ele>998.5999999999999</ele><time>2026-05-02T10:21:17Z</time></trkpt><trkpt lat="44.70020075907317" lon="9.645174757787906"><ele>996.4000000000001</ele><time>2026-05-02T10:21:18.999Z</time></trkpt><trkpt lat="44.70008640953975" lon="9.645122415633681"><ele>994.2</ele><time>2026-05-02T10:21:20.999Z</time></trkpt><trkpt lat="44.69996748515029" lon="9.645192011930526"><ele>992.0</ele><time>2026-05-02T10:21:23.999Z</time></trkpt><trkpt lat="44.69988284090168" lon="9.64524543728317"><ele>990.8</ele><time>2026-05-02T10:21:25.999Z</time></trkpt><trkpt lat="44.699821091892986" lon="9.64528628560508"><ele>989.6</ele><time>2026-05-02T10:21:27.999Z</time></trkpt><trkpt lat="44.69973134767416" lon="9.645247253552535"><ele>988.3999999999999</ele><time>2026-05-02T10:21:29.999Z</time></trkpt><trkpt lat="44.69961947036724" lon="9.645246442374495"><ele>987.1999999999999</ele><time>2026-05-02T10:21:31.999Z</time></trkpt><trkpt lat="44.69952406903894" lon="9.64520638863666"><ele>986.0</ele><time>2026-05-02T10:21:33.999Z</time></trkpt><trkpt lat="44.699435896660354" lon="9.645170993218503"><ele>984.4</ele><time>2026-05-02T10:21:35.999Z</time></trkpt><trkpt lat="44.699331058833664" lon="9.645137854539952"><ele>982.8</ele><time>2026-05-02T10:21:37.999Z</time></trkpt><trkpt lat="44.69922738472775" lon="9.645190106548197"><ele>981.1999999999999</ele><time>2026-05-02T10:21:39.999Z</time></trkpt><trkpt lat="44.69917542889137" lon="9.645251860975948"><ele>979.5999999999999</ele><time>2026-05-02T10:21:40.999Z</time></trkpt><trkpt lat="44.6991090063219" lon="9.64540357882321"><ele>978.0</ele><time>2026-05-02T10:21:42.999Z</time></trkpt><trkpt lat="44.69904165176095" lon="9.645474360936419"><ele>978.0</ele><time>2026-05-02T10:21:43.999Z</time></trkpt><trkpt lat="44.69897613525828" lon="9.645523404652986"><ele>978.0</ele><time>2026-05-02T10:21:44.999Z</time></trkpt><trkpt lat="44.69890807578009" lon="9.645574042601478"><ele>978.0</ele><time>2026-05-02T10:21:45.999Z</time></trkpt><trkpt lat="44.69883854607844" lon="9.645634863029201"><ele>978.0</ele><time>2026-05-02T10:21:46.999Z</time></trkpt><trkpt lat="44.69878565762253" lon="9.64569465689033"><ele>978.0</ele><time>2026-05-02T10:21:47.999Z</time></trkpt><trkpt lat="44.69870600511689" lon="9.645734222395403"><ele>978.0</ele><time>2026-05-02T10:21:49.999Z</time></trkpt><trkpt lat="44.69860081794102" lon="9.645734334833836"><ele>976.8333333333334</ele><time>2026-05-02T10:21:51.999Z</time></trkpt><trkpt lat="44.69852443111667" lon="9.64571703424822"><ele>975.6666666666667</ele><time>2026-05-02T10:21:52.999Z</time></trkpt><trkpt lat="44.698452533667634" lon="9.64570005320832"><ele>974.5</ele><time>2026-05-02T10:21:53.999Z</time></trkpt><trkpt lat="44.69833986290177" lon="9.645727185467774"><ele>973.3333333333334</ele><time>2026-05-02T10:21:55.999Z</time></trkpt><trkpt lat="44.698280217209366" lon="9.645774390240334"><ele>972.1666666666667</ele><time>2026-05-02T10:21:56.999Z</time></trkpt><trkpt lat="44.698210313441734" lon="9.64582809162241"><ele>971.0</ele><time>2026-05-02T10:21:57.999Z</time></trkpt><trkpt lat="44.69814089097128" lon="9.645873355094276"><ele>971.0000000000001</ele><time>2026-05-02T10:21:58.999Z</time></trkpt><trkpt lat="44.6980861992205" lon="9.645933839778941"><ele>971.0</ele><time>2026-05-02T10:21:59.999Z</time></trkpt><trkpt lat="44.69803260026436" lon="9.646004834258926"><ele>971.0</ele><time>2026-05-02T10:22:00.999Z</time></trkpt><trkpt lat="44.69796076874747" lon="9.646116645347716"><ele>971.0</ele><time>2026-05-02T10:22:02.999Z</time></trkpt><trkpt lat="44.69785773399182" lon="9.646173797148453"><ele>971.0000000000001</ele><time>2026-05-02T10:22:04.999Z</time></trkpt><trkpt lat="44.69777496384424" lon="9.646160831539122"><ele>971.0</ele><time>2026-05-02T10:22:05.998Z</time></trkpt><trkpt lat="44.69770648875746" lon="9.646145876751271"><ele>969.6666666666667</ele><time>2026-05-02T10:22:06.998Z</time></trkpt><trkpt lat="44.69763181218801" lon="9.646125702183285"><ele>968.3333333333334</ele><time>2026-05-02T10:22:07.998Z</time></trkpt><trkpt lat="44.697561456387554" lon="9.646104426206005"><ele>967.0</ele><time>2026-05-02T10:22:08.998Z</time></trkpt><trkpt lat="44.69748828362966" lon="9.64607318863017"><ele>965.6666666666667</ele><time>2026-05-02T10:22:09.998Z</time></trkpt><trkpt lat="44.69743120233862" lon="9.646025583796009"><ele>964.3333333333334</ele><time>2026-05-02T10:22:10.998Z</time></trkpt><trkpt lat="44.697376150789125" lon="9.645974945095176"><ele>963.0</ele><time>2026-05-02T10:22:11.998Z</time></trkpt><trkpt lat="44.6972712857879" lon="9.645924166693451"><ele>963.0</ele><time>2026-05-02T10:22:13.998Z</time></trkpt><trkpt lat="44.69718249905929" lon="9.645901120324213"><ele>963.0</ele><time>2026-05-02T10:22:15.998Z</time></trkpt><trkpt lat="44.69707115969568" lon="9.645938700544564"><ele>963.0</ele><time>2026-05-02T10:22:17.998Z</time></trkpt><trkpt lat="44.69700980473276" lon="9.645970303779736"><ele>963.0</ele><time>2026-05-02T10:22:18.998Z</time></trkpt><trkpt lat="44.69693877905948" lon="9.646001074001589"><ele>963.0</ele><time>2026-05-02T10:22:19.998Z</time></trkpt><trkpt lat="44.69685796926874" lon="9.646029274149889"><ele>963.0</ele><time>2026-05-02T10:22:20.998Z</time></trkpt><trkpt lat="44.69677686414626" lon="9.646059116117529"><ele>961.6666666666666</ele><time>2026-05-02T10:22:21.998Z</time></trkpt><trkpt lat="44.69671247195459" lon="9.646078450243449"><ele>960.3333333333333</ele><time>2026-05-02T10:22:22.998Z</time></trkpt><trkpt lat="44.696604926815766" lon="9.646090464695837"><ele>959.0</ele><time>2026-05-02T10:22:24.998Z</time></trkpt><trkpt lat="44.69648981170915" lon="9.646066836119331"><ele>957.6666666666666</ele><time>2026-05-02T10:22:26.998Z</time></trkpt><trkpt lat="44.69642218900747" lon="9.64604313988596"><ele>956.3333333333333</ele><time>2026-05-02T10:22:27.998Z</time></trkpt><trkpt lat="44.69635604288156" lon="9.64601994479474"><ele>955.0</ele><time>2026-05-02T10:22:28.998Z</time></trkpt><trkpt lat="44.6962402007283" lon="9.646003505811217"><ele>954.9999999999999</ele><time>2026-05-02T10:22:30.998Z</time></trkpt><trkpt lat="44.696171240150896" lon="9.646005391137919"><ele>955.0</ele><time>2026-05-02T10:22:31.998Z</time></trkpt><trkpt lat="44.69610619777887" lon="9.646010504231542"><ele>955.0</ele><time>2026-05-02T10:22:32.998Z</time></trkpt><trkpt lat="44.69599188818951" lon="9.646021982594696"><ele>955.0</ele><time>2026-05-02T10:22:34.998Z</time></trkpt><trkpt lat="44.69589246768383" lon="9.646054619762287"><ele>954.9999999999999</ele><time>2026-05-02T10:22:36.998Z</time></trkpt><trkpt lat="44.6958321258736" lon="9.64609048824666"><ele>955.0</ele><time>2026-05-02T10:22:38.998Z</time></trkpt><trkpt lat="44.695789070428035" lon="9.64620972024812"><ele>951.6666666666666</ele><time>2026-05-02T10:22:41.998Z</time></trkpt><trkpt lat="44.69574303009569" lon="9.646332065948183"><ele>948.3333333333333</ele><time>2026-05-02T10:22:43.998Z</time></trkpt><trkpt lat="44.69565986605043" lon="9.646436784180485"><ele>945.0</ele><time>2026-05-02T10:22:45.998Z</time></trkpt><trkpt lat="44.69560286422377" lon="9.646488142587668"><ele>941.6666666666667</ele><time>2026-05-02T10:22:47Z</time></trkpt><trkpt lat="44.695533636302564" lon="9.646534881800804"><ele>938.3333333333334</ele><time>2026-05-02T10:22:48Z</time></trkpt><trkpt lat="44.69545684054755" lon="9.64657427629984"><ele>935.0</ele><time>2026-05-02T10:22:49Z</time></trkpt><trkpt lat="44.69537395278726" lon="9.646615693000115"><ele>935.0</ele><time>2026-05-02T10:22:50Z</time></trkpt><trkpt lat="44.695286449775274" lon="9.646666743128543"><ele>935.0</ele><time>2026-05-02T10:22:51Z</time></trkpt><trkpt lat="44.69519512194578" lon="9.646713078431915"><ele>935.0</ele><time>2026-05-02T10:22:52Z</time></trkpt><trkpt lat="44.695100878053935" lon="9.64676789440673"><ele>935.0</ele><time>2026-05-02T10:22:53Z</time></trkpt><trkpt lat="44.69501429211311" lon="9.646846682662641"><ele>935.0</ele><time>2026-05-02T10:22:54Z</time></trkpt><trkpt lat="44.69492776418976" lon="9.646913574670982"><ele>932.6666666666667</ele><time>2026-05-02T10:22:55Z</time></trkpt><trkpt lat="44.69483812277434" lon="9.646939273356821"><ele>930.3333333333334</ele><time>2026-05-02T10:22:56Z</time></trkpt><trkpt lat="44.69475780382578" lon="9.646955250577705"><ele>928.0</ele><time>2026-05-02T10:22:57Z</time></trkpt><trkpt lat="44.694684732735226" lon="9.64699135752422"><ele>925.6666666666667</ele><time>2026-05-02T10:22:58Z</time></trkpt><trkpt lat="44.694623376418484" lon="9.647073981043404"><ele>923.3333333333334</ele><time>2026-05-02T10:22:59Z</time></trkpt><trkpt lat="44.69458757773709" lon="9.647200753548885"><ele>921.0</ele><time>2026-05-02T10:23:00Z</time></trkpt><trkpt lat="44.694551239782626" lon="9.647326786454245"><ele>921.0</ele><time>2026-05-02T10:23:01Z</time></trkpt><trkpt lat="44.69449580191309" lon="9.64744458251573"><ele>920.9999999999999</ele><time>2026-05-02T10:23:02Z</time></trkpt><trkpt lat="44.694433604407784" lon="9.647549894076226"><ele>920.9999999999999</ele><time>2026-05-02T10:23:03Z</time></trkpt><trkpt lat="44.69437551249339" lon="9.647653859249333"><ele>921.0</ele><time>2026-05-02T10:23:04Z</time></trkpt><trkpt lat="44.69432822566461" lon="9.647761057054245"><ele>921.0</ele><time>2026-05-02T10:23:05Z</time></trkpt><trkpt lat="44.694288703019794" lon="9.647873738586478"><ele>919.0</ele><time>2026-05-02T10:23:06Z</time></trkpt><trkpt lat="44.69426080640142" lon="9.647986714739236"><ele>917.0</ele><time>2026-05-02T10:23:07Z</time></trkpt><trkpt lat="44.69423460586848" lon="9.648092178476377"><ele>915.0</ele><time>2026-05-02T10:23:08Z</time></trkpt><trkpt lat="44.69420130412768" lon="9.648172021573696"><ele>913.0</ele><time>2026-05-02T10:23:09Z</time></trkpt><trkpt lat="44.69408077877332" lon="9.648215149144036"><ele>911.0</ele><time>2026-05-02T10:23:11Z</time></trkpt><trkpt lat="44.69401679152156" lon="9.64819629548276"><ele>909.0</ele><time>2026-05-02T10:23:12Z</time></trkpt><trkpt lat="44.69395553041978" lon="9.64811814001341"><ele>909.0</ele><time>2026-05-02T10:23:14Z</time></trkpt><trkpt lat="44.69385753423872" lon="9.648113272992235"><ele>909.0000000000001</ele><time>2026-05-02T10:23:17Z</time></trkpt><trkpt lat="44.69380500612231" lon="9.648178636567973"><ele>909.0000000000001</ele><time>2026-05-02T10:23:18Z</time></trkpt><trkpt lat="44.69373712553368" lon="9.648276649753319"><ele>909.0</ele><time>2026-05-02T10:23:19Z</time></trkpt><trkpt lat="44.69366121907059" lon="9.648379188431926"><ele>909.0</ele><time>2026-05-02T10:23:20Z</time></trkpt><trkpt lat="44.693584476211015" lon="9.648480716380167"><ele>908.3333333333334</ele><time>2026-05-02T10:23:21Z</time></trkpt><trkpt lat="44.693512714239645" lon="9.648563752416516"><ele>907.6666666666667</ele><time>2026-05-02T10:23:22Z</time></trkpt><trkpt lat="44.69343944322393" lon="9.64861561698463"><ele>907.0</ele><time>2026-05-02T10:23:23Z</time></trkpt><trkpt lat="44.69336214646551" lon="9.648632233110058"><ele>906.3333333333334</ele><time>2026-05-02T10:23:24Z</time></trkpt><trkpt lat="44.69327569091746" lon="9.648606522962508"><ele>905.6666666666667</ele><time>2026-05-02T10:23:25Z</time></trkpt><trkpt lat="44.69318537070438" lon="9.648563734214735"><ele>905.0</ele><time>2026-05-02T10:23:25.999Z</time></trkpt><trkpt lat="44.69309201059248" lon="9.648507490779265"><ele>905.0</ele><time>2026-05-02T10:23:26.999Z</time></trkpt><trkpt lat="44.69299824554539" lon="9.648459510233277"><ele>905.0</ele><time>2026-05-02T10:23:27.999Z</time></trkpt><trkpt lat="44.69289959789318" lon="9.64843802010832"><ele>905.0</ele><time>2026-05-02T10:23:28.999Z</time></trkpt><trkpt lat="44.69278646046124" lon="9.648438587834098"><ele>905.0</ele><time>2026-05-02T10:23:29.999Z</time></trkpt><trkpt lat="44.69268068631611" lon="9.64845635709494"><ele>905.0</ele><time>2026-05-02T10:23:30.999Z</time></trkpt><trkpt lat="44.692586632069016" lon="9.648494010964988"><ele>904.6</ele><time>2026-05-02T10:23:31.999Z</time></trkpt><trkpt lat="44.6924939826604" lon="9.648549818376287"><ele>904.2</ele><time>2026-05-02T10:23:32.999Z</time></trkpt><trkpt lat="44.69240410588221" lon="9.648613519127611"><ele>903.8</ele><time>2026-05-02T10:23:33.999Z</time></trkpt><trkpt lat="44.6923082358756" lon="9.648658964200607"><ele>903.4</ele><time>2026-05-02T10:23:34.999Z</time></trkpt><trkpt lat="44.69219944405916" lon="9.648685723551866"><ele>903.0</ele><time>2026-05-02T10:23:35.999Z</time></trkpt><trkpt lat="44.69209486919535" lon="9.648711020474684"><ele>903.5999999999999</ele><time>2026-05-02T10:23:36.999Z</time></trkpt><trkpt lat="44.69199942585975" lon="9.648735872094116"><ele>904.1999999999999</ele><time>2026-05-02T10:23:37.999Z</time></trkpt><trkpt lat="44.691910898047595" lon="9.648765790235327"><ele>904.8</ele><time>2026-05-02T10:23:38.999Z</time></trkpt><trkpt lat="44.691829780186026" lon="9.648832772214332"><ele>905.4</ele><time>2026-05-02T10:23:39.999Z</time></trkpt><trkpt lat="44.691772640194124" lon="9.648945762358158"><ele>906.0</ele><time>2026-05-02T10:23:40.999Z</time></trkpt><trkpt lat="44.69176900366204" lon="9.649142304012399"><ele>906.0</ele><time>2026-05-02T10:23:41.999Z</time></trkpt><trkpt lat="44.691758390238604" lon="9.64929083671069"><ele>906.0</ele><time>2026-05-02T10:23:42.999Z</time></trkpt><trkpt lat="44.691744727507384" lon="9.649404422184263"><ele>906.0</ele><time>2026-05-02T10:23:43.999Z</time></trkpt><trkpt lat="44.69171134131357" lon="9.649494546925961"><ele>906.0</ele><time>2026-05-02T10:23:44.999Z</time></trkpt><trkpt lat="44.69165629547503" lon="9.649547026947127"><ele>906.0</ele><time>2026-05-02T10:23:45.999Z</time></trkpt><trkpt lat="44.69158892430458" lon="9.649562574690801"><ele>906.0</ele><time>2026-05-02T10:23:46.999Z</time></trkpt><trkpt lat="44.69152676423766" lon="9.649535285365738"><ele>906.0</ele><time>2026-05-02T10:23:47.999Z</time></trkpt><trkpt lat="44.691471673379205" lon="9.649482174734969"><ele>906.0</ele><time>2026-05-02T10:23:48.999Z</time></trkpt><trkpt lat="44.69141924370522" lon="9.649397712110046"><ele>906.0</ele><time>2026-05-02T10:23:49.999Z</time></trkpt><trkpt lat="44.69135982629628" lon="9.649305626820986"><ele>906.0</ele><time>2026-05-02T10:23:50.999Z</time></trkpt><trkpt lat="44.691293428431855" lon="9.649201075503777"><ele>906.0</ele><time>2026-05-02T10:23:51.999Z</time></trkpt><trkpt lat="44.69122112643918" lon="9.649091363120462"><ele>906.0</ele><time>2026-05-02T10:23:52.999Z</time></trkpt><trkpt lat="44.691152026571864" lon="9.648977888326588"><ele>906.5</ele><time>2026-05-02T10:23:53.999Z</time></trkpt><trkpt lat="44.69108275777257" lon="9.648845085654601"><ele>907.0</ele><time>2026-05-02T10:23:54.999Z</time></trkpt><trkpt lat="44.69100679908576" lon="9.648705102282188"><ele>907.5</ele><time>2026-05-02T10:23:55.999Z</time></trkpt><trkpt lat="44.69092672369697" lon="9.648566821125591"><ele>908.0</ele><time>2026-05-02T10:23:56.999Z</time></trkpt><trkpt lat="44.69084866825323" lon="9.648430339144143"><ele>906.8</ele><time>2026-05-02T10:23:57.999Z</time></trkpt><trkpt lat="44.69078040824138" lon="9.64830103634119"><ele>905.5999999999999</ele><time>2026-05-02T10:23:58.999Z</time></trkpt><trkpt lat="44.690718237346054" lon="9.648177281146793"><ele>904.4000000000001</ele><time>2026-05-02T10:23:59.999Z</time></trkpt><trkpt lat="44.690658130596084" lon="9.648064136843592"><ele>903.2</ele><time>2026-05-02T10:24:00.999Z</time></trkpt><trkpt lat="44.69059579258035" lon="9.647957625452154"><ele>902.0</ele><time>2026-05-02T10:24:01.999Z</time></trkpt><trkpt lat="44.69052711479724" lon="9.647854294403016"><ele>902.5</ele><time>2026-05-02T10:24:02.999Z</time></trkpt><trkpt lat="44.690442088307364" lon="9.6477616811111"><ele>903.0</ele><time>2026-05-02T10:24:03.999Z</time></trkpt><trkpt lat="44.69033776937454" lon="9.647694109522774"><ele>903.5</ele><time>2026-05-02T10:24:04.999Z</time></trkpt><trkpt lat="44.69021844531926" lon="9.64765059560214"><ele>904.0</ele><time>2026-05-02T10:24:05.999Z</time></trkpt><trkpt lat="44.69009222719263" lon="9.647629151921267"><ele>904.0</ele><time>2026-05-02T10:24:06.999Z</time></trkpt><trkpt lat="44.68996474803532" lon="9.64761661057024"><ele>904.0</ele><time>2026-05-02T10:24:07.999Z</time></trkpt><trkpt lat="44.68983932615765" lon="9.647602263855628"><ele>904.0</ele><time>2026-05-02T10:24:08.999Z</time></trkpt><trkpt lat="44.68971468091243" lon="9.647584100550786"><ele>904.0</ele><time>2026-05-02T10:24:09.999Z</time></trkpt><trkpt lat="44.689595071620964" lon="9.647568190772866"><ele>904.0</ele><time>2026-05-02T10:24:10.999Z</time></trkpt><trkpt lat="44.689469312029885" lon="9.647551317146219"><ele>904.0</ele><time>2026-05-02T10:24:11.999Z</time></trkpt><trkpt lat="44.689341342462185" lon="9.64754218755"><ele>904.0</ele><time>2026-05-02T10:24:12.999Z</time></trkpt><trkpt lat="44.68921857785926" lon="9.647537709304652"><ele>904.0</ele><time>2026-05-02T10:24:13.999Z</time></trkpt><trkpt lat="44.68909848603268" lon="9.647546259935899"><ele>903.75</ele><time>2026-05-02T10:24:14.998Z</time></trkpt><trkpt lat="44.68898021495423" lon="9.647581660863258"><ele>903.5</ele><time>2026-05-02T10:24:15.998Z</time></trkpt><trkpt lat="44.688867613406465" lon="9.647659362982479"><ele>903.25</ele><time>2026-05-02T10:24:16.998Z</time></trkpt><trkpt lat="44.68876524020097" lon="9.647775487051804"><ele>903.0</ele><time>2026-05-02T10:24:17.998Z</time></trkpt><trkpt lat="44.68867515472644" lon="9.647885910276164"><ele>904.0</ele><time>2026-05-02T10:24:18.998Z</time></trkpt><trkpt lat="44.68858738048713" lon="9.647979879102627"><ele>905.0</ele><time>2026-05-02T10:24:19.998Z</time></trkpt><trkpt lat="44.688506504057194" lon="9.64806682077502"><ele>906.0</ele><time>2026-05-02T10:24:20.998Z</time></trkpt><trkpt lat="44.688440487763465" lon="9.64816063283272"><ele>907.0</ele><time>2026-05-02T10:24:21.998Z</time></trkpt><trkpt lat="44.68837650998312" lon="9.648271538633235"><ele>908.0</ele><time>2026-05-02T10:24:22.998Z</time></trkpt><trkpt lat="44.68830687651983" lon="9.64838266042104"><ele>908.0</ele><time>2026-05-02T10:24:23.998Z</time></trkpt><trkpt lat="44.68820964919946" lon="9.648470245213796"><ele>908.0</ele><time>2026-05-02T10:24:24.998Z</time></trkpt><trkpt lat="44.688087259440465" lon="9.648524783505756"><ele>908.0</ele><time>2026-05-02T10:24:25.998Z</time></trkpt><trkpt lat="44.687961743636826" lon="9.648569716446636"><ele>908.0</ele><time>2026-05-02T10:24:26.998Z</time></trkpt><trkpt lat="44.68783987855352" lon="9.648624330411497"><ele>909.4</ele><time>2026-05-02T10:24:27.998Z</time></trkpt><trkpt lat="44.68772702615209" lon="9.648679049461476"><ele>910.8</ele><time>2026-05-02T10:24:28.998Z</time></trkpt><trkpt lat="44.687622129883394" lon="9.648722699911572"><ele>912.2</ele><time>2026-05-02T10:24:29.998Z</time></trkpt><trkpt lat="44.68752168030887" lon="9.648755564545251"><ele>913.6</ele><time>2026-05-02T10:24:30.998Z</time></trkpt><trkpt lat="44.68741835304416" lon="9.648809593527606"><ele>915.0</ele><time>2026-05-02T10:24:31.998Z</time></trkpt><trkpt lat="44.68732690184063" lon="9.648914169259404"><ele>915.0</ele><time>2026-05-02T10:24:32.998Z</time></trkpt><trkpt lat="44.68725825339318" lon="9.649067837160306"><ele>915.0</ele><time>2026-05-02T10:24:33.998Z</time></trkpt><trkpt lat="44.68720046195694" lon="9.64921962319105"><ele>915.0</ele><time>2026-05-02T10:24:34.998Z</time></trkpt><trkpt lat="44.68714424443762" lon="9.649350471758162"><ele>915.0</ele><time>2026-05-02T10:24:35.998Z</time></trkpt><trkpt lat="44.687088726788595" lon="9.649469220470024"><ele>916.1666666666666</ele><time>2026-05-02T10:24:36.998Z</time></trkpt><trkpt lat="44.687033460734135" lon="9.649574106925904"><ele>917.3333333333333</ele><time>2026-05-02T10:24:37.998Z</time></trkpt><trkpt lat="44.68697334829222" lon="9.649659386826652"><ele>918.5</ele><time>2026-05-02T10:24:38.998Z</time></trkpt><trkpt lat="44.686902177052964" lon="9.649716647220426"><ele>919.6666666666666</ele><time>2026-05-02T10:24:39.998Z</time></trkpt><trkpt lat="44.68682326772461" lon="9.649733749973876"><ele>920.8333333333333</ele><time>2026-05-02T10:24:40.998Z</time></trkpt><trkpt lat="44.686737345462014" lon="9.649726353802093"><ele>922.0</ele><time>2026-05-02T10:24:41.998Z</time></trkpt><trkpt lat="44.68665054697505" lon="9.649679591075467"><ele>922.0</ele><time>2026-05-02T10:24:42.998Z</time></trkpt><trkpt lat="44.68656488598864" lon="9.649595794150288"><ele>922.0</ele><time>2026-05-02T10:24:43.998Z</time></trkpt><trkpt lat="44.686494581565206" lon="9.649471739791327"><ele>922.0</ele><time>2026-05-02T10:24:44.998Z</time></trkpt><trkpt lat="44.686462549104775" lon="9.649312046279123"><ele>922.0</ele><time>2026-05-02T10:24:45.998Z</time></trkpt><trkpt lat="44.68645692416854" lon="9.649139735599098"><ele>920.4000000000001</ele><time>2026-05-02T10:24:46.998Z</time></trkpt><trkpt lat="44.6864448673983" lon="9.648989337732464"><ele>918.8000000000001</ele><time>2026-05-02T10:24:47.998Z</time></trkpt><trkpt lat="44.686422922677636" lon="9.64884809788405"><ele>917.2</ele><time>2026-05-02T10:24:48.998Z</time></trkpt><trkpt lat="44.6863801410047" lon="9.648728030189666"><ele>915.6</ele><time>2026-05-02T10:24:49.998Z</time></trkpt><trkpt lat="44.68630872975453" lon="9.64862883250133"><ele>914.0</ele><time>2026-05-02T10:24:50.998Z</time></trkpt><trkpt lat="44.68621631151481" lon="9.648567308954105"><ele>913.8000000000001</ele><time>2026-05-02T10:24:51.998Z</time></trkpt><trkpt lat="44.68612126101879" lon="9.64851533500298"><ele>913.6000000000001</ele><time>2026-05-02T10:24:53Z</time></trkpt><trkpt lat="44.686028657064874" lon="9.64844632178185"><ele>913.4</ele><time>2026-05-02T10:24:54Z</time></trkpt><trkpt lat="44.68593979860773" lon="9.64835883740395"><ele>913.2</ele><time>2026-05-02T10:24:55Z</time></trkpt><trkpt lat="44.68585427456938" lon="9.648262269612513"><ele>913.0</ele><time>2026-05-02T10:24:56Z</time></trkpt><trkpt lat="44.68577875422733" lon="9.648150507879883"><ele>913.5999999999999</ele><time>2026-05-02T10:24:57Z</time></trkpt><trkpt lat="44.685716515372356" lon="9.648024677161805"><ele>914.1999999999999</ele><time>2026-05-02T10:24:58Z</time></trkpt><trkpt lat="44.68566736219086" lon="9.647899341183667"><ele>914.8</ele><time>2026-05-02T10:24:59Z</time></trkpt><trkpt lat="44.68561812259991" lon="9.647770992892823"><ele>915.4</ele><time>2026-05-02T10:25:00Z</time></trkpt><trkpt lat="44.68556461076759" lon="9.647639636603072"><ele>916.0</ele><time>2026-05-02T10:25:01Z</time></trkpt><trkpt lat="44.68550743554704" lon="9.647503157587916"><ele>916.0</ele><time>2026-05-02T10:25:02Z</time></trkpt><trkpt lat="44.685443198133655" lon="9.64736417958867"><ele>916.0</ele><time>2026-05-02T10:25:03Z</time></trkpt><trkpt lat="44.68537425139981" lon="9.647223885436107"><ele>916.0</ele><time>2026-05-02T10:25:04Z</time></trkpt><trkpt lat="44.685298539643355" lon="9.647082080066824"><ele>916.0</ele><time>2026-05-02T10:25:05Z</time></trkpt><trkpt lat="44.68520850254082" lon="9.646962756042225"><ele>915.25</ele><time>2026-05-02T10:25:06Z</time></trkpt><trkpt lat="44.685120574792464" lon="9.646861099372424"><ele>914.5</ele><time>2026-05-02T10:25:07Z</time></trkpt><trkpt lat="44.68502208085566" lon="9.646789165502291"><ele>913.75</ele><time>2026-05-02T10:25:08Z</time></trkpt><trkpt lat="44.684912813541075" lon="9.646760037964915"><ele>913.0</ele><time>2026-05-02T10:25:09Z</time></trkpt><trkpt lat="44.684793671994214" lon="9.64676070404153"><ele>913.0</ele><time>2026-05-02T10:25:10Z</time></trkpt><trkpt lat="44.684674735257495" lon="9.646783549829042"><ele>913.0</ele><time>2026-05-02T10:25:11Z</time></trkpt><trkpt lat="44.684554406937515" lon="9.646796311563948"><ele>913.0</ele><time>2026-05-02T10:25:12Z</time></trkpt><trkpt lat="44.68442905555267" lon="9.646811138517892"><ele>913.0</ele><time>2026-05-02T10:25:13Z</time></trkpt><trkpt lat="44.684310766672596" lon="9.646823880150995"><ele>912.25</ele><time>2026-05-02T10:25:14Z</time></trkpt><trkpt lat="44.68419741730191" lon="9.646835354067957"><ele>911.5</ele><time>2026-05-02T10:25:15Z</time></trkpt><trkpt lat="44.684084666547854" lon="9.64684343852822"><ele>910.75</ele><time>2026-05-02T10:25:16Z</time></trkpt><trkpt lat="44.683971568453686" lon="9.646854818475353"><ele>910.0</ele><time>2026-05-02T10:25:17Z</time></trkpt><trkpt lat="44.68385051573047" lon="9.646871139746487"><ele>910.0</ele><time>2026-05-02T10:25:18Z</time></trkpt><trkpt lat="44.68372506592275" lon="9.646892052117986"><ele>910.0</ele><time>2026-05-02T10:25:19Z</time></trkpt><trkpt lat="44.68359384644328" lon="9.646908121185998"><ele>910.0</ele><time>2026-05-02T10:25:20Z</time></trkpt><trkpt lat="44.683458557844" lon="9.646924695104635"><ele>910.0</ele><time>2026-05-02T10:25:21Z</time></trkpt><trkpt lat="44.683332501538494" lon="9.646939085048704"><ele>909.25</ele><time>2026-05-02T10:25:22Z</time></trkpt><trkpt lat="44.68321061126699" lon="9.646934617412802"><ele>908.5</ele><time>2026-05-02T10:25:23Z</time></trkpt><trkpt lat="44.683091626167446" lon="9.646895788735863"><ele>907.75</ele><time>2026-05-02T10:25:24Z</time></trkpt><trkpt lat="44.68297587629219" lon="9.646812895416451"><ele>907.0</ele><time>2026-05-02T10:25:25Z</time></trkpt><trkpt lat="44.682869823619846" lon="9.646707811960434"><ele>907.0</ele><time>2026-05-02T10:25:26Z</time></trkpt><trkpt lat="44.68277495423901" lon="9.646604799276975"><ele>907.0</ele><time>2026-05-02T10:25:27Z</time></trkpt><trkpt lat="44.682691062800544" lon="9.646494403602418"><ele>907.0</ele><time>2026-05-02T10:25:28Z</time></trkpt><trkpt lat="44.68264021719627" lon="9.646357673714403"><ele>907.0</ele><time>2026-05-02T10:25:29Z</time></trkpt><trkpt lat="44.682632076784046" lon="9.64620834323188"><ele>907.8</ele><time>2026-05-02T10:25:30Z</time></trkpt><trkpt lat="44.68265411583254" lon="9.646061482268143"><ele>908.6</ele><time>2026-05-02T10:25:31Z</time></trkpt><trkpt lat="44.68269418921488" lon="9.645913173403606"><ele>909.3999999999999</ele><time>2026-05-02T10:25:32Z</time></trkpt><trkpt lat="44.682742142806404" lon="9.645786403923347"><ele>910.1999999999999</ele><time>2026-05-02T10:25:32.999Z</time></trkpt><trkpt lat="44.682783534359665" lon="9.64566325340593"><ele>911.0</ele><time>2026-05-02T10:25:33.999Z</time></trkpt><trkpt lat="44.68279890526338" lon="9.645536310552034"><ele>911.0</ele><time>2026-05-02T10:25:34.999Z</time></trkpt><trkpt lat="44.68277624385326" lon="9.645402098428674"><ele>910.9999999999999</ele><time>2026-05-02T10:25:35.999Z</time></trkpt><trkpt lat="44.68271110298093" lon="9.645299331701452"><ele>910.9999999999999</ele><time>2026-05-02T10:25:36.999Z</time></trkpt><trkpt lat="44.68261544331204" lon="9.645234750226642"><ele>911.0</ele><time>2026-05-02T10:25:37.999Z</time></trkpt><trkpt lat="44.6825019273915" lon="9.645232185665128"><ele>911.0</ele><time>2026-05-02T10:25:38.999Z</time></trkpt><trkpt lat="44.68238183055683" lon="9.645259901820156"><ele>909.0</ele><time>2026-05-02T10:25:39.999Z</time></trkpt><trkpt lat="44.68227484400631" lon="9.64525551771123"><ele>906.9999999999999</ele><time>2026-05-02T10:25:40.999Z</time></trkpt><trkpt lat="44.68217842543397" lon="9.645194297658541"><ele>904.9999999999999</ele><time>2026-05-02T10:25:41.999Z</time></trkpt><trkpt lat="44.68209750019276" lon="9.645084039619"><ele>903.0</ele><time>2026-05-02T10:25:42.999Z</time></trkpt><trkpt lat="44.682044237328924" lon="9.644941242498641"><ele>901.0</ele><time>2026-05-02T10:25:43.999Z</time></trkpt><trkpt lat="44.682000952374004" lon="9.644794974531758"><ele>901.0</ele><time>2026-05-02T10:25:44.999Z</time></trkpt><trkpt lat="44.68196082044401" lon="9.644652698493617"><ele>900.9999999999999</ele><time>2026-05-02T10:25:45.999Z</time></trkpt><trkpt lat="44.68193290804412" lon="9.644511742608671"><ele>900.9999999999999</ele><time>2026-05-02T10:25:46.999Z</time></trkpt><trkpt lat="44.68192455986254" lon="9.644365484585624"><ele>901.0</ele><time>2026-05-02T10:25:47.999Z</time></trkpt><trkpt lat="44.68194201474105" lon="9.644211460634436"><ele>901.0</ele><time>2026-05-02T10:25:48.999Z</time></trkpt><trkpt lat="44.68199027189091" lon="9.644066452894414"><ele>898.5999999999999</ele><time>2026-05-02T10:25:49.999Z</time></trkpt><trkpt lat="44.68204497728631" lon="9.643925003751209"><ele>896.1999999999999</ele><time>2026-05-02T10:25:50.999Z</time></trkpt><trkpt lat="44.68208083547109" lon="9.643777613814454"><ele>893.8000000000001</ele><time>2026-05-02T10:25:51.999Z</time></trkpt><trkpt lat="44.68209383242429" lon="9.643630077920337"><ele>891.4000000000001</ele><time>2026-05-02T10:25:52.999Z</time></trkpt><trkpt lat="44.68209406076562" lon="9.643476731139893"><ele>889.0</ele><time>2026-05-02T10:25:53.999Z</time></trkpt><trkpt lat="44.682080039144786" lon="9.643334034414899"><ele>888.25</ele><time>2026-05-02T10:25:54.999Z</time></trkpt><trkpt lat="44.68204516712601" lon="9.643195912815937"><ele>887.5</ele><time>2026-05-02T10:25:55.999Z</time></trkpt><trkpt lat="44.68198772798725" lon="9.643063516268308"><ele>886.75</ele><time>2026-05-02T10:25:56.999Z</time></trkpt><trkpt lat="44.68191226514583" lon="9.642939835383949"><ele>886.0</ele><time>2026-05-02T10:25:57.999Z</time></trkpt><trkpt lat="44.68183743110434" lon="9.642804904527889"><ele>889.25</ele><time>2026-05-02T10:25:58.999Z</time></trkpt><trkpt lat="44.68177998475086" lon="9.64264441141972"><ele>892.5</ele><time>2026-05-02T10:25:59.999Z</time></trkpt><trkpt lat="44.68174070792582" lon="9.642471037500284"><ele>895.75</ele><time>2026-05-02T10:26:00.999Z</time></trkpt><trkpt lat="44.681713192610985" lon="9.642302082981663"><ele>899.0</ele><time>2026-05-02T10:26:01.999Z</time></trkpt><trkpt lat="44.681702508290186" lon="9.642131916282745"><ele>897.75</ele><time>2026-05-02T10:26:02.999Z</time></trkpt><trkpt lat="44.681704036725215" lon="9.641959465534566"><ele>896.5</ele><time>2026-05-02T10:26:03.999Z</time></trkpt><trkpt lat="44.681691532796314" lon="9.641796105231313"><ele>895.25</ele><time>2026-05-02T10:26:04.999Z</time></trkpt><trkpt lat="44.68165542960723" lon="9.641634664584247"><ele>894.0</ele><time>2026-05-02T10:26:05.999Z</time></trkpt><trkpt lat="44.681589223693955" lon="9.641486868333875"><ele>894.0</ele><time>2026-05-02T10:26:06.999Z</time></trkpt><trkpt lat="44.68149251761502" lon="9.641352608557895"><ele>894.0</ele><time>2026-05-02T10:26:07.999Z</time></trkpt><trkpt lat="44.68140461764018" lon="9.64122399034947"><ele>894.0</ele><time>2026-05-02T10:26:08.999Z</time></trkpt><trkpt lat="44.68132802766132" lon="9.641094888937499"><ele>894.0</ele><time>2026-05-02T10:26:09.999Z</time></trkpt><trkpt lat="44.681246572116585" lon="9.640982743579764"><ele>895.2</ele><time>2026-05-02T10:26:10.999Z</time></trkpt><trkpt lat="44.681157687802504" lon="9.640902522988519"><ele>896.4000000000001</ele><time>2026-05-02T10:26:11.999Z</time></trkpt><trkpt lat="44.68106207218886" lon="9.640852378300888"><ele>897.6</ele><time>2026-05-02T10:26:12.999Z</time></trkpt><trkpt lat="44.680978185362214" lon="9.640794353963402"><ele>898.8</ele><time>2026-05-02T10:26:13.999Z</time></trkpt><trkpt lat="44.68089971540828" lon="9.640746546567788"><ele>900.0</ele><time>2026-05-02T10:26:14.999Z</time></trkpt><trkpt lat="44.68082106975481" lon="9.640721017304012"><ele>900.0</ele><time>2026-05-02T10:26:15.999Z</time></trkpt><trkpt lat="44.68073260996409" lon="9.6407333877603"><ele>900.0</ele><time>2026-05-02T10:26:16.999Z</time></trkpt><trkpt lat="44.68064635449557" lon="9.640791517241649"><ele>900.0</ele><time>2026-05-02T10:26:17.999Z</time></trkpt><trkpt lat="44.680574413945116" lon="9.640887323649029"><ele>900.0</ele><time>2026-05-02T10:26:18.999Z</time></trkpt><trkpt lat="44.680517397373265" lon="9.64100191558129"><ele>900.0</ele><time>2026-05-02T10:26:19.999Z</time></trkpt><trkpt lat="44.68045871853246" lon="9.641117554988124"><ele>901.0</ele><time>2026-05-02T10:26:20.999Z</time></trkpt><trkpt lat="44.68038902076554" lon="9.641217923526794"><ele>902.0</ele><time>2026-05-02T10:26:21.998Z</time></trkpt><trkpt lat="44.68031103099666" lon="9.641301180606249"><ele>903.0</ele><time>2026-05-02T10:26:22.998Z</time></trkpt><trkpt lat="44.68022160469132" lon="9.641370699822419"><ele>904.0</ele><time>2026-05-02T10:26:23.998Z</time></trkpt><trkpt lat="44.68012510910289" lon="9.641436429633204"><ele>905.0</ele><time>2026-05-02T10:26:24.998Z</time></trkpt><trkpt lat="44.68001718096571" lon="9.641493531478414"><ele>905.0</ele><time>2026-05-02T10:26:25.998Z</time></trkpt><trkpt lat="44.67989816336083" lon="9.641528335764244"><ele>905.0</ele><time>2026-05-02T10:26:26.998Z</time></trkpt><trkpt lat="44.6797897533885" lon="9.641538587150466"><ele>905.0</ele><time>2026-05-02T10:26:27.998Z</time></trkpt><trkpt lat="44.6796893022671" lon="9.641555498563273"><ele>905.0</ele><time>2026-05-02T10:26:28.998Z</time></trkpt><trkpt lat="44.679601476787624" lon="9.64159541778033"><ele>905.0</ele><time>2026-05-02T10:26:29.998Z</time></trkpt><trkpt lat="44.67951640032803" lon="9.641670768123008"><ele>905.0</ele><time>2026-05-02T10:26:30.998Z</time></trkpt><trkpt lat="44.67945106554376" lon="9.64178374092592"><ele>905.0</ele><time>2026-05-02T10:26:31.998Z</time></trkpt><trkpt lat="44.679403337604626" lon="9.64191049488953"><ele>905.0</ele><time>2026-05-02T10:26:32.998Z</time></trkpt><trkpt lat="44.67935948010571" lon="9.642039459469597"><ele>905.0</ele><time>2026-05-02T10:26:33.998Z</time></trkpt><trkpt lat="44.67930994320797" lon="9.642163896211304"><ele>905.0</ele><time>2026-05-02T10:26:34.998Z</time></trkpt><trkpt lat="44.67923979100303" lon="9.64226970852274"><ele>906.6</ele><time>2026-05-02T10:26:35.998Z</time></trkpt><trkpt lat="44.679150954248534" lon="9.642349698670797"><ele>908.2</ele><time>2026-05-02T10:26:36.998Z</time></trkpt><trkpt lat="44.67905213705735" lon="9.642406135240993"><ele>909.8</ele><time>2026-05-02T10:26:37.998Z</time></trkpt><trkpt lat="44.67894928640599" lon="9.642457863976773"><ele>911.4</ele><time>2026-05-02T10:26:38.998Z</time></trkpt><trkpt lat="44.67884576577181" lon="9.642523146279132"><ele>913.0</ele><time>2026-05-02T10:26:39.998Z</time></trkpt><trkpt lat="44.67875158947721" lon="9.642600346308514"><ele>913.0</ele><time>2026-05-02T10:26:40.998Z</time></trkpt><trkpt lat="44.67867691221174" lon="9.642702028936604"><ele>913.0</ele><time>2026-05-02T10:26:41.998Z</time></trkpt><trkpt lat="44.67862104896874" lon="9.64282764514288"><ele>913.0</ele><time>2026-05-02T10:26:42.998Z</time></trkpt><trkpt lat="44.678566745677564" lon="9.642960970238759"><ele>913.0</ele><time>2026-05-02T10:26:43.998Z</time></trkpt><trkpt lat="44.67850740069511" lon="9.643092373153047"><ele>913.0</ele><time>2026-05-02T10:26:44.998Z</time></trkpt><trkpt lat="44.67844801376896" lon="9.643213723425152"><ele>911.5999999999999</ele><time>2026-05-02T10:26:45.998Z</time></trkpt><trkpt lat="44.67838723107487" lon="9.643333905173657"><ele>910.1999999999999</ele><time>2026-05-02T10:26:46.998Z</time></trkpt><trkpt lat="44.6783251689952" lon="9.643458294241706"><ele>908.8</ele><time>2026-05-02T10:26:47.998Z</time></trkpt><trkpt lat="44.678248774051234" lon="9.64357510336874"><ele>907.4</ele><time>2026-05-02T10:26:48.998Z</time></trkpt><trkpt lat="44.678161978804575" lon="9.64368065603823"><ele>906.0</ele><time>2026-05-02T10:26:49.998Z</time></trkpt><trkpt lat="44.67807437737765" lon="9.643782521801379"><ele>903.0</ele><time>2026-05-02T10:26:50.998Z</time></trkpt><trkpt lat="44.67798718005311" lon="9.643875633804068"><ele>899.9999999999999</ele><time>2026-05-02T10:26:51.998Z</time></trkpt><trkpt lat="44.67790570580623" lon="9.643960883366955"><ele>896.9999999999999</ele><time>2026-05-02T10:26:52.998Z</time></trkpt><trkpt lat="44.677839473900036" lon="9.644054077923963"><ele>894.0</ele><time>2026-05-02T10:26:53.998Z</time></trkpt><trkpt lat="44.677792223697374" lon="9.644165518284636"><ele>891.0</ele><time>2026-05-02T10:26:54.998Z</time></trkpt><trkpt lat="44.677757673204795" lon="9.644294582451181"><ele>891.0</ele><time>2026-05-02T10:26:55.998Z</time></trkpt><trkpt lat="44.67773658267525" lon="9.644431801691066"><ele>890.9999999999999</ele><time>2026-05-02T10:26:56.998Z</time></trkpt><trkpt lat="44.677724700424776" lon="9.64455906370455"><ele>890.9999999999999</ele><time>2026-05-02T10:26:57.998Z</time></trkpt><trkpt lat="44.67770326189303" lon="9.644681879840688"><ele>891.0</ele><time>2026-05-02T10:26:59Z</time></trkpt><trkpt lat="44.67768169288426" lon="9.644809040319984"><ele>891.0</ele><time>2026-05-02T10:27:00Z</time></trkpt><trkpt lat="44.67766462417941" lon="9.64493949591583"><ele>892.5999999999999</ele><time>2026-05-02T10:27:01Z</time></trkpt><trkpt lat="44.677646205679565" lon="9.645074458434316"><ele>894.1999999999999</ele><time>2026-05-02T10:27:02Z</time></trkpt><trkpt lat="44.67762703230278" lon="9.6452122998923"><ele>895.8000000000001</ele><time>2026-05-02T10:27:03Z</time></trkpt><trkpt lat="44.677607381383154" lon="9.645355919304018"><ele>897.4000000000001</ele><time>2026-05-02T10:27:04Z</time></trkpt><trkpt lat="44.67758673728752" lon="9.64549969915327"><ele>899.0</ele><time>2026-05-02T10:27:05Z</time></trkpt><trkpt lat="44.67756525663284" lon="9.645644389073528"><ele>901.0</ele><time>2026-05-02T10:27:06Z</time></trkpt><trkpt lat="44.67754472956801" lon="9.64579166949736"><ele>903.0000000000001</ele><time>2026-05-02T10:27:07Z</time></trkpt><trkpt lat="44.6775184056752" lon="9.645932474284635"><ele>905.0000000000001</ele><time>2026-05-02T10:27:08Z</time></trkpt><trkpt lat="44.67746901967569" lon="9.646052348953472"><ele>907.0</ele><time>2026-05-02T10:27:09Z</time></trkpt><trkpt lat="44.677391728345086" lon="9.646117962774223"><ele>909.0</ele><time>2026-05-02T10:27:10Z</time></trkpt><trkpt lat="44.677300627801" lon="9.646147510623571"><ele>909.0</ele><time>2026-05-02T10:27:11Z</time></trkpt><trkpt lat="44.677207756170446" lon="9.646130071287748"><ele>909.0000000000001</ele><time>2026-05-02T10:27:12Z</time></trkpt><trkpt lat="44.67711895300836" lon="9.646074236955881"><ele>909.0000000000001</ele><time>2026-05-02T10:27:13Z</time></trkpt><trkpt lat="44.6770275642925" lon="9.646019562971924"><ele>909.0</ele><time>2026-05-02T10:27:14Z</time></trkpt><trkpt lat="44.67693063535324" lon="9.64599601539692"><ele>909.0</ele><time>2026-05-02T10:27:15Z</time></trkpt><trkpt lat="44.67682693518837" lon="9.646017234673833"><ele>906.5</ele><time>2026-05-02T10:27:16Z</time></trkpt><trkpt lat="44.67672500869397" lon="9.646067806231754"><ele>904.0</ele><time>2026-05-02T10:27:17Z</time></trkpt><trkpt lat="44.676621999823766" lon="9.646138521999202"><ele>901.5</ele><time>2026-05-02T10:27:18Z</time></trkpt><trkpt lat="44.67651818546147" lon="9.646209994899582"><ele>899.0</ele><time>2026-05-02T10:27:19Z</time></trkpt><trkpt lat="44.67641345745649" lon="9.646272984958562"><ele>901.8000000000001</ele><time>2026-05-02T10:27:20Z</time></trkpt><trkpt lat="44.676308092694256" lon="9.646327673301256"><ele>904.6000000000001</ele><time>2026-05-02T10:27:21Z</time></trkpt><trkpt lat="44.67620257311833" lon="9.646379298848755"><ele>907.4</ele><time>2026-05-02T10:27:22Z</time></trkpt><trkpt lat="44.6760994057413" lon="9.646432100955192"><ele>910.2</ele><time>2026-05-02T10:27:23Z</time></trkpt><trkpt lat="44.67601601149951" lon="9.646512096427156"><ele>913.0</ele><time>2026-05-02T10:27:24Z</time></trkpt><trkpt lat="44.675947874215055" lon="9.646602437263214"><ele>913.0</ele><time>2026-05-02T10:27:25Z</time></trkpt><trkpt lat="44.67587872574486" lon="9.64668412828339"><ele>913.0</ele><time>2026-05-02T10:27:26Z</time></trkpt><trkpt lat="44.675778012262775" lon="9.646702694766267"><ele>913.0</ele><time>2026-05-02T10:27:27Z</time></trkpt><trkpt lat="44.675673470923826" lon="9.646671979749598"><ele>913.0</ele><time>2026-05-02T10:27:28Z</time></trkpt><trkpt lat="44.675571401579795" lon="9.646679036669516"><ele>913.0</ele><time>2026-05-02T10:27:29Z</time></trkpt><trkpt lat="44.67546874138109" lon="9.646762723295996"><ele>913.0</ele><time>2026-05-02T10:27:30Z</time></trkpt><trkpt lat="44.67536547853294" lon="9.646880304290884"><ele>913.0</ele><time>2026-05-02T10:27:31Z</time></trkpt><trkpt lat="44.675271191785335" lon="9.646974928753774"><ele>913.0</ele><time>2026-05-02T10:27:32Z</time></trkpt><trkpt lat="44.67516825673853" lon="9.647047556918055"><ele>913.0</ele><time>2026-05-02T10:27:33Z</time></trkpt><trkpt lat="44.67505822498111" lon="9.647081374696349"><ele>916.0</ele><time>2026-05-02T10:27:34Z</time></trkpt><trkpt lat="44.674941909054326" lon="9.64707881346185"><ele>919.0</ele><time>2026-05-02T10:27:34.999Z</time></trkpt><trkpt lat="44.67484033951808" lon="9.647052869431533"><ele>922.0</ele><time>2026-05-02T10:27:35.999Z</time></trkpt><trkpt lat="44.67474286139159" lon="9.647060899805929"><ele>925.0</ele><time>2026-05-02T10:27:36.999Z</time></trkpt><trkpt lat="44.67464392125718" lon="9.647107056240216"><ele>928.0</ele><time>2026-05-02T10:27:37.999Z</time></trkpt><trkpt lat="44.67454344905998" lon="9.647187712688861"><ele>928.0</ele><time>2026-05-02T10:27:38.999Z</time></trkpt><trkpt lat="44.67444973620322" lon="9.647287066690375"><ele>928.0</ele><time>2026-05-02T10:27:39.999Z</time></trkpt><trkpt lat="44.67435117911762" lon="9.647395315684623"><ele>928.0</ele><time>2026-05-02T10:27:40.999Z</time></trkpt><trkpt lat="44.674245835522335" lon="9.647499228059626"><ele>928.0</ele><time>2026-05-02T10:27:41.999Z</time></trkpt><trkpt lat="44.674141910207425" lon="9.64760867503752"><ele>928.25</ele><time>2026-05-02T10:27:42.999Z</time></trkpt><trkpt lat="44.674047039865535" lon="9.647735385873737"><ele>928.5</ele><time>2026-05-02T10:27:43.999Z</time></trkpt><trkpt lat="44.673959934744204" lon="9.647866608229025"><ele>928.75</ele><time>2026-05-02T10:27:44.999Z</time></trkpt><trkpt lat="44.67387238938077" lon="9.647995057148208"><ele>929.0</ele><time>2026-05-02T10:27:45.999Z</time></trkpt><trkpt lat="44.673791744678034" lon="9.648121768471178"><ele>929.0</ele><time>2026-05-02T10:27:46.999Z</time></trkpt><trkpt lat="44.6737110973315" lon="9.648254876505552"><ele>929.0</ele><time>2026-05-02T10:27:47.999Z</time></trkpt><trkpt lat="44.67363239358875" lon="9.64838860778289"><ele>929.0</ele><time>2026-05-02T10:27:48.999Z</time></trkpt><trkpt lat="44.673548796498594" lon="9.648514108949398"><ele>929.0</ele><time>2026-05-02T10:27:49.999Z</time></trkpt><trkpt lat="44.67344879753705" lon="9.648610318607322"><ele>930.0</ele><time>2026-05-02T10:27:50.999Z</time></trkpt><trkpt lat="44.67333523775583" lon="9.6486688593409"><ele>931.0</ele><time>2026-05-02T10:27:51.999Z</time></trkpt><trkpt lat="44.673212578091366" lon="9.64870943609901"><ele>932.0</ele><time>2026-05-02T10:27:52.999Z</time></trkpt><trkpt lat="44.67309859039955" lon="9.648765154033333"><ele>933.0</ele><time>2026-05-02T10:27:53.999Z</time></trkpt><trkpt lat="44.67300338791752" lon="9.648847712420416"><ele>933.0</ele><time>2026-05-02T10:27:54.999Z</time></trkpt><trkpt lat="44.67291045284792" lon="9.648934548158214"><ele>933.0</ele><time>2026-05-02T10:27:55.999Z</time></trkpt><trkpt lat="44.672805577659354" lon="9.648997887087347"><ele>933.0</ele><time>2026-05-02T10:27:56.999Z</time></trkpt><trkpt lat="44.67269519407246" lon="9.649041734024404"><ele>933.0</ele><time>2026-05-02T10:27:57.999Z</time></trkpt><trkpt lat="44.672576289217595" lon="9.649051480170424"><ele>932.5999999999999</ele><time>2026-05-02T10:27:58.999Z</time></trkpt><trkpt lat="44.672461284033574" lon="9.649026840672413"><ele>932.1999999999999</ele><time>2026-05-02T10:27:59.999Z</time></trkpt><trkpt lat="44.67235984574548" lon="9.64899055494521"><ele>931.8</ele><time>2026-05-02T10:28:00.999Z</time></trkpt><trkpt lat="44.672264990446536" lon="9.648971109192864"><ele>931.4</ele><time>2026-05-02T10:28:01.999Z</time></trkpt><trkpt lat="44.67216680783725" lon="9.648975630187287"><ele>931.0</ele><time>2026-05-02T10:28:02.999Z</time></trkpt><trkpt lat="44.67207645423892" lon="9.648985222878295"><ele>931.0</ele><time>2026-05-02T10:28:03.999Z</time></trkpt><trkpt lat="44.67199170178619" lon="9.648985277708451"><ele>930.9999999999999</ele><time>2026-05-02T10:28:04.999Z</time></trkpt><trkpt lat="44.671908099537895" lon="9.648935934882177"><ele>930.9999999999999</ele><time>2026-05-02T10:28:05.999Z</time></trkpt><trkpt lat="44.671845946380735" lon="9.648843846181794"><ele>931.0</ele><time>2026-05-02T10:28:06.999Z</time></trkpt><trkpt lat="44.67179926478525" lon="9.648711863414428"><ele>931.0</ele><time>2026-05-02T10:28:07.999Z</time></trkpt><trkpt lat="44.671767977943055" lon="9.648554873675455"><ele>930.1999999999999</ele><time>2026-05-02T10:28:08.999Z</time></trkpt><trkpt lat="44.671724419791474" lon="9.648420106352422"><ele>929.3999999999999</ele><time>2026-05-02T10:28:09.999Z</time></trkpt><trkpt lat="44.67166870236847" lon="9.648309293395691"><ele>928.6</ele><time>2026-05-02T10:28:10.999Z</time></trkpt><trkpt lat="44.671581184905065" lon="9.648247298518783"><ele>927.8</ele><time>2026-05-02T10:28:11.999Z</time></trkpt><trkpt lat="44.671484254042525" lon="9.648228881523872"><ele>927.0</ele><time>2026-05-02T10:28:12.999Z</time></trkpt><trkpt lat="44.67138003617634" lon="9.648238853381583"><ele>927.0</ele><time>2026-05-02T10:28:13.999Z</time></trkpt><trkpt lat="44.67126978538921" lon="9.648235679442145"><ele>927.0</ele><time>2026-05-02T10:28:14.999Z</time></trkpt><trkpt lat="44.671172358493216" lon="9.648241374663346"><ele>927.0</ele><time>2026-05-02T10:28:15.999Z</time></trkpt><trkpt lat="44.67107368353816" lon="9.648242428956493"><ele>927.0</ele><time>2026-05-02T10:28:16.999Z</time></trkpt><trkpt lat="44.670985155607944" lon="9.648242131685775"><ele>927.0</ele><time>2026-05-02T10:28:17.999Z</time></trkpt><trkpt lat="44.67089938225162" lon="9.648217704038007"><ele>927.3333333333334</ele><time>2026-05-02T10:28:18.999Z</time></trkpt><trkpt lat="44.6708340921331" lon="9.64811668142638"><ele>927.6666666666667</ele><time>2026-05-02T10:28:19.999Z</time></trkpt><trkpt lat="44.6707974584591" lon="9.648015442680093"><ele>928.0</ele><time>2026-05-02T10:28:20.999Z</time></trkpt><trkpt lat="44.67078177612966" lon="9.647897730388808"><ele>928.3333333333334</ele><time>2026-05-02T10:28:21.999Z</time></trkpt><trkpt lat="44.67078364854378" lon="9.647773942484694"><ele>928.6666666666667</ele><time>2026-05-02T10:28:22.998Z</time></trkpt><trkpt lat="44.670795444919484" lon="9.647642562372095"><ele>929.0</ele><time>2026-05-02T10:28:23.998Z</time></trkpt><trkpt lat="44.670791964613386" lon="9.6475168469262"><ele>929.0000000000001</ele><time>2026-05-02T10:28:24.998Z</time></trkpt><trkpt lat="44.6707697594904" lon="9.647409454171388"><ele>929.0</ele><time>2026-05-02T10:28:25.998Z</time></trkpt><trkpt lat="44.67071839349431" lon="9.647344386445084"><ele>929.0</ele><time>2026-05-02T10:28:26.998Z</time></trkpt><trkpt lat="44.670649784396716" lon="9.64732167489698"><ele>929.0</ele><time>2026-05-02T10:28:27.998Z</time></trkpt><trkpt lat="44.670552771848335" lon="9.647367238828249"><ele>929.0000000000001</ele><time>2026-05-02T10:28:28.998Z</time></trkpt><trkpt lat="44.670468329113014" lon="9.647419722756357"><ele>929.0</ele><time>2026-05-02T10:28:29.998Z</time></trkpt><trkpt lat="44.67039452458234" lon="9.6475165972877"><ele>929.0</ele><time>2026-05-02T10:28:30.998Z</time></trkpt><trkpt lat="44.670325936410485" lon="9.647613305038627"><ele>929.0000000000001</ele><time>2026-05-02T10:28:31.998Z</time></trkpt><trkpt lat="44.67025055641036" lon="9.647706824655648"><ele>929.0000000000001</ele><time>2026-05-02T10:28:32.998Z</time></trkpt><trkpt lat="44.67015303749047" lon="9.647779242499352"><ele>929.0</ele><time>2026-05-02T10:28:33.998Z</time></trkpt><trkpt lat="44.67003768363268" lon="9.647801050100567"><ele>929.0</ele><time>2026-05-02T10:28:34.998Z</time></trkpt><trkpt lat="44.66991981100917" lon="9.647792343942225"><ele>929.6</ele><time>2026-05-02T10:28:35.998Z</time></trkpt><trkpt lat="44.66980858445157" lon="9.647786681708924"><ele>930.2</ele><time>2026-05-02T10:28:36.998Z</time></trkpt><trkpt lat="44.669710988603796" lon="9.64780170597979"><ele>930.8000000000001</ele><time>2026-05-02T10:28:37.998Z</time></trkpt><trkpt lat="44.669614199883995" lon="9.647845291462739"><ele>931.4000000000001</ele><time>2026-05-02T10:28:38.998Z</time></trkpt><trkpt lat="44.66952662956316" lon="9.647908162726404"><ele>932.0</ele><time>2026-05-02T10:28:39.998Z</time></trkpt><trkpt lat="44.66945361637788" lon="9.647974406127819"><ele>932.0000000000001</ele><time>2026-05-02T10:28:40.998Z</time></trkpt><trkpt lat="44.66938974906273" lon="9.648041205974325"><ele>932.0</ele><time>2026-05-02T10:28:41.998Z</time></trkpt><trkpt lat="44.6693331596056" lon="9.648103816524296"><ele>932.0</ele><time>2026-05-02T10:28:42.998Z</time></trkpt><trkpt lat="44.6692696843029" lon="9.648179074932942"><ele>932.0</ele><time>2026-05-02T10:28:44.998Z</time></trkpt><trkpt lat="44.66919362156349" lon="9.648248757985332"><ele>932.0000000000001</ele><time>2026-05-02T10:28:47.998Z</time></trkpt><trkpt lat="44.66910120784191" lon="9.64825444415035"><ele>932.0</ele><time>2026-05-02T10:30:13.999Z</time></trkpt><trkpt lat="44.669035711234855" lon="9.648229565454242"><ele>932.0000000000001</ele><time>2026-05-02T10:30:15.999Z</time></trkpt><trkpt lat="44.66894514882283" lon="9.648204201834433"><ele>932.0</ele><time>2026-05-02T10:30:30.998Z</time></trkpt><trkpt lat="44.6688813506504" lon="9.64816455608045"><ele>932.0</ele><time>2026-05-02T10:30:32.998Z</time></trkpt><trkpt lat="44.6687768654877" lon="9.64807416749147"><ele>932.0</ele><time>2026-05-02T10:30:34.998Z</time></trkpt><trkpt lat="44.66872028112489" lon="9.648001996126197"><ele>932.0000000000001</ele><time>2026-05-02T10:30:35.998Z</time></trkpt><trkpt lat="44.668665381000146" lon="9.647915036903107"><ele>932.0</ele><time>2026-05-02T10:30:36.998Z</time></trkpt><trkpt lat="44.66860987735212" lon="9.647824000672692"><ele>931.8</ele><time>2026-05-02T10:30:37.998Z</time></trkpt><trkpt lat="44.66853422290748" lon="9.647741285625449"><ele>931.6</ele><time>2026-05-02T10:30:38.998Z</time></trkpt><trkpt lat="44.668447630741476" lon="9.647662960492685"><ele>931.3999999999999</ele><time>2026-05-02T10:30:39.998Z</time></trkpt><trkpt lat="44.66836297795796" lon="9.647591555584746"><ele>931.1999999999999</ele><time>2026-05-02T10:30:40.998Z</time></trkpt><trkpt lat="44.66828464468257" lon="9.647524712196649"><ele>931.0</ele><time>2026-05-02T10:30:41.998Z</time></trkpt><trkpt lat="44.66820805094502" lon="9.64743483681402"><ele>931.0</ele><time>2026-05-02T10:30:42.998Z</time></trkpt><trkpt lat="44.668136210876554" lon="9.64732526959598"><ele>931.0</ele><time>2026-05-02T10:30:43.998Z</time></trkpt><trkpt lat="44.66806638165816" lon="9.64720463664916"><ele>931.0</ele><time>2026-05-02T10:30:44.998Z</time></trkpt><trkpt lat="44.66800078683235" lon="9.647063847205672"><ele>931.0</ele><time>2026-05-02T10:30:45.998Z</time></trkpt><trkpt lat="44.66794238530835" lon="9.646904586067597"><ele>932.0</ele><time>2026-05-02T10:30:46.998Z</time></trkpt><trkpt lat="44.66788324603886" lon="9.64674991867482"><ele>933.0</ele><time>2026-05-02T10:30:47.998Z</time></trkpt><trkpt lat="44.66780899750203" lon="9.646602649593103"><ele>934.0</ele><time>2026-05-02T10:30:48.998Z</time></trkpt><trkpt lat="44.66772766243647" lon="9.646452941150812"><ele>935.0</ele><time>2026-05-02T10:30:49.998Z</time></trkpt><trkpt lat="44.6676426018033" lon="9.646313448443689"><ele>935.0</ele><time>2026-05-02T10:30:50.998Z</time></trkpt><trkpt lat="44.66754830621846" lon="9.64619141658137"><ele>935.0</ele><time>2026-05-02T10:30:51.998Z</time></trkpt><trkpt lat="44.66744058720609" lon="9.646079489265311"><ele>935.0</ele><time>2026-05-02T10:30:52.998Z</time></trkpt><trkpt lat="44.66731288066535" lon="9.645984398049238"><ele>935.0</ele><time>2026-05-02T10:30:53.998Z</time></trkpt><trkpt lat="44.66717117282542" lon="9.645902775022966"><ele>935.25</ele><time>2026-05-02T10:30:54.998Z</time></trkpt><trkpt lat="44.667029712118904" lon="9.645835523910659"><ele>935.5</ele><time>2026-05-02T10:30:55.998Z</time></trkpt><trkpt lat="44.6669047809243" lon="9.64578777330371"><ele>935.75</ele><time>2026-05-02T10:30:56.998Z</time></trkpt><trkpt lat="44.6667965966409" lon="9.64575097277368"><ele>936.0</ele><time>2026-05-02T10:30:57.998Z</time></trkpt><trkpt lat="44.6666927682156" lon="9.645709980715647"><ele>937.5</ele><time>2026-05-02T10:30:58.998Z</time></trkpt><trkpt lat="44.66659649442692" lon="9.645647514926821"><ele>939.0</ele><time>2026-05-02T10:30:59.998Z</time></trkpt><trkpt lat="44.666503736255024" lon="9.645563802225052"><ele>940.5</ele><time>2026-05-02T10:31:00.998Z</time></trkpt><trkpt lat="44.66641684042731" lon="9.645449699598725"><ele>942.0</ele><time>2026-05-02T10:31:01.998Z</time></trkpt><trkpt lat="44.666329072392145" lon="9.64532219959883"><ele>943.75</ele><time>2026-05-02T10:31:02.998Z</time></trkpt><trkpt lat="44.666228462169215" lon="9.64520779607577"><ele>945.5</ele><time>2026-05-02T10:31:03.998Z</time></trkpt><trkpt lat="44.66610739443772" lon="9.645136132923405"><ele>947.25</ele><time>2026-05-02T10:31:04.998Z</time></trkpt><trkpt lat="44.66596944857491" lon="9.645100558106025"><ele>949.0</ele><time>2026-05-02T10:31:05.998Z</time></trkpt><trkpt lat="44.66584457651675" lon="9.645056136417335"><ele>949.0</ele><time>2026-05-02T10:31:06.998Z</time></trkpt><trkpt lat="44.665744653930794" lon="9.644973117009831"><ele>949.0</ele><time>2026-05-02T10:31:07.998Z</time></trkpt><trkpt lat="44.665660164311" lon="9.644868237994519"><ele>949.0</ele><time>2026-05-02T10:31:08.998Z</time></trkpt><trkpt lat="44.66557637206712" lon="9.64474742087954"><ele>949.0</ele><time>2026-05-02T10:31:09.998Z</time></trkpt><trkpt lat="44.66549250381045" lon="9.644617537966777"><ele>949.0</ele><time>2026-05-02T10:31:11Z</time></trkpt><trkpt lat="44.6654104965905" lon="9.64450200169152"><ele>949.0</ele><time>2026-05-02T10:31:12Z</time></trkpt><trkpt lat="44.665330696944324" lon="9.644394370247298"><ele>949.0</ele><time>2026-05-02T10:31:13Z</time></trkpt><trkpt lat="44.66524733051086" lon="9.644281215588293"><ele>949.0</ele><time>2026-05-02T10:31:14Z</time></trkpt><trkpt lat="44.665163899941554" lon="9.644171413802356"><ele>948.4000000000001</ele><time>2026-05-02T10:31:15Z</time></trkpt><trkpt lat="44.665087397231446" lon="9.64406905696731"><ele>947.8000000000001</ele><time>2026-05-02T10:31:16Z</time></trkpt><trkpt lat="44.665013274102805" lon="9.643974201800427"><ele>947.1999999999999</ele><time>2026-05-02T10:31:17Z</time></trkpt><trkpt lat="44.664933454652484" lon="9.643879076663506"><ele>946.5999999999999</ele><time>2026-05-02T10:31:18Z</time></trkpt><trkpt lat="44.66485429188881" lon="9.643783793273146"><ele>946.0</ele><time>2026-05-02T10:31:19Z</time></trkpt><trkpt lat="44.66477541203988" lon="9.643705429442521"><ele>946.0</ele><time>2026-05-02T10:31:20Z</time></trkpt><trkpt lat="44.66469143581646" lon="9.643651144681511"><ele>945.9999999999999</ele><time>2026-05-02T10:31:21Z</time></trkpt><trkpt lat="44.66460091297433" lon="9.643620889468501"><ele>945.9999999999999</ele><time>2026-05-02T10:31:22Z</time></trkpt><trkpt lat="44.66449781290558" lon="9.64362142649639"><ele>946.0</ele><time>2026-05-02T10:31:23Z</time></trkpt><trkpt lat="44.66439732734037" lon="9.643649967758314"><ele>946.0</ele><time>2026-05-02T10:31:24Z</time></trkpt><trkpt lat="44.66429755255015" lon="9.64370214247003"><ele>946.0</ele><time>2026-05-02T10:31:25Z</time></trkpt><trkpt lat="44.66420073989093" lon="9.643781907138585"><ele>945.9999999999999</ele><time>2026-05-02T10:31:26Z</time></trkpt><trkpt lat="44.66411203625329" lon="9.643884215354767"><ele>945.9999999999999</ele><time>2026-05-02T10:31:27Z</time></trkpt><trkpt lat="44.664038148173866" lon="9.64399582495775"><ele>946.0</ele><time>2026-05-02T10:31:28Z</time></trkpt><trkpt lat="44.663947528014646" lon="9.644079989376634"><ele>946.0</ele><time>2026-05-02T10:31:29Z</time></trkpt><trkpt lat="44.66385602415312" lon="9.644136206079459"><ele>946.0</ele><time>2026-05-02T10:31:30Z</time></trkpt><trkpt lat="44.66377126022313" lon="9.64415776580223"><ele>945.9999999999999</ele><time>2026-05-02T10:31:31Z</time></trkpt><trkpt lat="44.66369192716258" lon="9.644171394146893"><ele>945.9999999999999</ele><time>2026-05-02T10:31:32Z</time></trkpt><trkpt lat="44.66360603494627" lon="9.644180891143344"><ele>946.0</ele><time>2026-05-02T10:31:33Z</time></trkpt><trkpt lat="44.66351293248973" lon="9.644197181457711"><ele>946.0</ele><time>2026-05-02T10:31:34Z</time></trkpt><trkpt lat="44.66340887989422" lon="9.644199820511622"><ele>948.5</ele><time>2026-05-02T10:31:35Z</time></trkpt><trkpt lat="44.663304758915174" lon="9.644191762233293"><ele>951.0</ele><time>2026-05-02T10:31:36Z</time></trkpt><trkpt lat="44.66318697938423" lon="9.644164907289099"><ele>953.5</ele><time>2026-05-02T10:31:37Z</time></trkpt><trkpt lat="44.66306477823354" lon="9.644106686611455"><ele>956.0</ele><time>2026-05-02T10:31:38Z</time></trkpt><trkpt lat="44.66294594320634" lon="9.64405990657469"><ele>956.0</ele><time>2026-05-02T10:31:39Z</time></trkpt><trkpt lat="44.66283876059232" lon="9.64401843464957"><ele>956.0</ele><time>2026-05-02T10:31:40Z</time></trkpt><trkpt lat="44.66274165321752" lon="9.643946844592886"><ele>956.0</ele><time>2026-05-02T10:31:41Z</time></trkpt><trkpt lat="44.66265826907176" lon="9.643819957902275"><ele>956.0</ele><time>2026-05-02T10:31:42Z</time></trkpt><trkpt lat="44.6625769621243" lon="9.64368728605549"><ele>959.75</ele><time>2026-05-02T10:31:43Z</time></trkpt><trkpt lat="44.66249302404792" lon="9.643582951483008"><ele>963.5</ele><time>2026-05-02T10:31:44Z</time></trkpt><trkpt lat="44.66238759580667" lon="9.64351900294152"><ele>967.25</ele><time>2026-05-02T10:31:45Z</time></trkpt><trkpt lat="44.66226500272461" lon="9.643513063362567"><ele>971.0</ele><time>2026-05-02T10:31:46Z</time></trkpt><trkpt lat="44.66214654722384" lon="9.643542471128871"><ele>971.0</ele><time>2026-05-02T10:31:47Z</time></trkpt><trkpt lat="44.66202817087499" lon="9.643573785650196"><ele>971.0</ele><time>2026-05-02T10:31:47.999Z</time></trkpt><trkpt lat="44.661912976439304" lon="9.643615960747466"><ele>971.0</ele><time>2026-05-02T10:31:48.999Z</time></trkpt><trkpt lat="44.661807350463796" lon="9.64368815379015"><ele>971.0</ele><time>2026-05-02T10:31:49.999Z</time></trkpt><trkpt lat="44.66172180475897" lon="9.643771685211087"><ele>966.4</ele><time>2026-05-02T10:31:50.999Z</time></trkpt><trkpt lat="44.66163653078232" lon="9.643836038155866"><ele>961.8</ele><time>2026-05-02T10:31:51.999Z</time></trkpt><trkpt lat="44.66153810741802" lon="9.643856053033346"><ele>957.1999999999999</ele><time>2026-05-02T10:31:52.999Z</time></trkpt><trkpt lat="44.66143879719196" lon="9.643857356981979"><ele>952.5999999999999</ele><time>2026-05-02T10:31:53.999Z</time></trkpt><trkpt lat="44.66133665035984" lon="9.643858584526987"><ele>948.0</ele><time>2026-05-02T10:31:54.999Z</time></trkpt><trkpt lat="44.661224272316694" lon="9.643858881237492"><ele>947.5</ele><time>2026-05-02T10:31:55.999Z</time></trkpt><trkpt lat="44.661108715041344" lon="9.643873566450205"><ele>947.0</ele><time>2026-05-02T10:31:56.999Z</time></trkpt><trkpt lat="44.66099345806072" lon="9.643886870086373"><ele>946.5</ele><time>2026-05-02T10:31:57.999Z</time></trkpt><trkpt lat="44.66088287573483" lon="9.643895143342812"><ele>946.0</ele><time>2026-05-02T10:31:58.999Z</time></trkpt><trkpt lat="44.660775954833895" lon="9.643904626515303"><ele>945.9999999999999</ele><time>2026-05-02T10:31:59.999Z</time></trkpt><trkpt lat="44.66068718127146" lon="9.643918229778258"><ele>946.0</ele><time>2026-05-02T10:32:00.999Z</time></trkpt><trkpt lat="44.660604994713275" lon="9.643931199813466"><ele>946.0</ele><time>2026-05-02T10:32:01.999Z</time></trkpt><trkpt lat="44.66052901285181" lon="9.643945902795151"><ele>946.0</ele><time>2026-05-02T10:32:02.999Z</time></trkpt><trkpt lat="44.66044756626737" lon="9.643930758436914"><ele>945.9999999999999</ele><time>2026-05-02T10:32:03.999Z</time></trkpt><trkpt lat="44.660373602629235" lon="9.643895994280326"><ele>946.0</ele><time>2026-05-02T10:32:04.999Z</time></trkpt><trkpt lat="44.66028190908452" lon="9.643831561426273"><ele>946.0</ele><time>2026-05-02T10:32:06.999Z</time></trkpt><trkpt lat="44.660210459606574" lon="9.643736252685787"><ele>945.9999999999999</ele><time>2026-05-02T10:32:09.999Z</time></trkpt><trkpt lat="44.660169252812814" lon="9.64360805901166"><ele>945.9999999999999</ele><time>2026-05-02T10:32:11.999Z</time></trkpt><trkpt lat="44.660154891439596" lon="9.643464288824909"><ele>946.0</ele><time>2026-05-02T10:32:13.999Z</time></trkpt><trkpt lat="44.66013748237542" lon="9.643375328161792"><ele>946.0</ele><time>2026-05-02T10:32:15.999Z</time></trkpt><trkpt lat="44.6601231642729" lon="9.643238109499604"><ele>945.9999999999999</ele><time>2026-05-02T10:32:17.999Z</time></trkpt><trkpt lat="44.660118826352196" lon="9.643075916956336"><ele>946.0</ele><time>2026-05-02T10:32:19.999Z</time></trkpt><trkpt lat="44.66010776113877" lon="9.642982025255668"><ele>946.0</ele><time>2026-05-02T10:32:20.999Z</time></trkpt><trkpt lat="44.660083676998184" lon="9.642899205946739"><ele>946.0</ele><time>2026-05-02T10:32:21.999Z</time></trkpt><trkpt lat="44.66004622394775" lon="9.642759383090715"><ele>945.9999999999999</ele><time>2026-05-02T10:32:23.999Z</time></trkpt><trkpt lat="44.66003408136066" lon="9.642640898128807"><ele>946.0</ele><time>2026-05-02T10:32:25.999Z</time></trkpt><trkpt lat="44.660054060488356" lon="9.642508799881469"><ele>948.0</ele><time>2026-05-02T10:32:27.999Z</time></trkpt><trkpt lat="44.660072663875596" lon="9.642359844275829"><ele>949.9999999999999</ele><time>2026-05-02T10:32:29.999Z</time></trkpt><trkpt lat="44.66013611533611" lon="9.642231956383851"><ele>951.9999999999999</ele><time>2026-05-02T10:32:31.999Z</time></trkpt><trkpt lat="44.66023654448117" lon="9.642113971151764"><ele>954.0</ele><time>2026-05-02T10:32:33.999Z</time></trkpt><trkpt lat="44.66028695163439" lon="9.642023474328294"><ele>956.0</ele><time>2026-05-02T10:32:34.999Z</time></trkpt><trkpt lat="44.66030612714587" lon="9.641915550711486"><ele>960.0000000000001</ele><time>2026-05-02T10:32:35.999Z</time></trkpt><trkpt lat="44.66034241526187" lon="9.64183129459485"><ele>964.0</ele><time>2026-05-02T10:32:36.998Z</time></trkpt><trkpt lat="44.66036391305548" lon="9.64174583998396"><ele>968.0</ele><time>2026-05-02T10:32:37.998Z</time></trkpt><trkpt lat="44.66040614448422" lon="9.641568501770145"><ele>972.0</ele><time>2026-05-02T10:32:39.998Z</time></trkpt><trkpt lat="44.66042477322005" lon="9.641481098510239"><ele>976.0000000000001</ele><time>2026-05-02T10:32:40.998Z</time></trkpt><trkpt lat="44.66044668461439" lon="9.641387531539761"><ele>980.0</ele><time>2026-05-02T10:32:41.998Z</time></trkpt><trkpt lat="44.66047862127676" lon="9.64129672977752"><ele>980.0000000000001</ele><time>2026-05-02T10:32:42.998Z</time></trkpt><trkpt lat="44.66051169541933" lon="9.641204538897709"><ele>980.0</ele><time>2026-05-02T10:32:43.998Z</time></trkpt><trkpt lat="44.6605358823301" lon="9.641114429586041"><ele>980.0</ele><time>2026-05-02T10:32:44.998Z</time></trkpt><trkpt lat="44.66053768047392" lon="9.64096313459351"><ele>980.0</ele><time>2026-05-02T10:32:46.998Z</time></trkpt><trkpt lat="44.66047663667362" lon="9.640903272017837"><ele>980.0000000000001</ele><time>2026-05-02T10:32:49.998Z</time></trkpt><trkpt lat="44.660439026721804" lon="9.640819185480572"><ele>980.0</ele><time>2026-05-02T10:33:00.998Z</time></trkpt><trkpt lat="44.66042131710176" lon="9.640702013083548"><ele>979.8</ele><time>2026-05-02T10:33:02.998Z</time></trkpt><trkpt lat="44.660378481662654" lon="9.640571217578191"><ele>979.6</ele><time>2026-05-02T10:33:04.998Z</time></trkpt><trkpt lat="44.660353355687185" lon="9.640427171369987"><ele>979.4000000000001</ele><time>2026-05-02T10:33:06.998Z</time></trkpt><trkpt lat="44.660333804774474" lon="9.640300600550857"><ele>979.2</ele><time>2026-05-02T10:33:08.998Z</time></trkpt><trkpt lat="44.66031107433781" lon="9.640151712443721"><ele>979.0</ele><time>2026-05-02T10:33:10.998Z</time></trkpt><trkpt lat="44.66026339426531" lon="9.640008348794623"><ele>973.6</ele><time>2026-05-02T10:33:12.998Z</time></trkpt><trkpt lat="44.660205290179945" lon="9.639885693689614"><ele>968.2</ele><time>2026-05-02T10:33:14.998Z</time></trkpt><trkpt lat="44.6601828698561" lon="9.639770016588326"><ele>962.8000000000001</ele><time>2026-05-02T10:33:17Z</time></trkpt><trkpt lat="44.66015283837608" lon="9.639659366952165"><ele>957.4000000000001</ele><time>2026-05-02T10:33:19Z</time></trkpt><trkpt lat="44.66009841032333" lon="9.639556027774136"><ele>952.0</ele><time>2026-05-02T10:33:21Z</time></trkpt><trkpt lat="44.660054482217596" lon="9.639425614112373"><ele>951.1666666666666</ele><time>2026-05-02T10:33:23Z</time></trkpt><trkpt lat="44.66004244143586" lon="9.639294520124617"><ele>950.3333333333333</ele><time>2026-05-02T10:33:25Z</time></trkpt><trkpt lat="44.66002925181758" lon="9.63915677430843"><ele>949.5</ele><time>2026-05-02T10:33:27Z</time></trkpt><trkpt lat="44.660006552410046" lon="9.639044682769292"><ele>948.6666666666667</ele><time>2026-05-02T10:33:29Z</time></trkpt><trkpt lat="44.65998839104901" lon="9.638956248503423"><ele>947.8333333333334</ele><time>2026-05-02T10:33:31Z</time></trkpt><trkpt lat="44.659981393781145" lon="9.638831408392608"><ele>947.0</ele><time>2026-05-02T10:33:34Z</time></trkpt><trkpt lat="44.65997767123714" lon="9.638736021413902"><ele>945.4000000000001</ele><time>2026-05-02T10:33:36Z</time></trkpt><trkpt lat="44.6599889837689" lon="9.638586414211204"><ele>943.8000000000001</ele><time>2026-05-02T10:33:38Z</time></trkpt><trkpt lat="44.65997060730923" lon="9.638392681880234"><ele>942.2</ele><time>2026-05-02T10:33:40Z</time></trkpt><trkpt lat="44.65997819537799" lon="9.638296092361651"><ele>940.6</ele><time>2026-05-02T10:33:41Z</time></trkpt><trkpt lat="44.65997588224492" lon="9.638192375932492"><ele>939.0</ele><time>2026-05-02T10:33:42Z</time></trkpt><trkpt lat="44.65996620399845" lon="9.638060337675023"><ele>939.0</ele><time>2026-05-02T10:33:43Z</time></trkpt><trkpt lat="44.65995516235139" lon="9.637934758383825"><ele>939.0</ele><time>2026-05-02T10:33:44Z</time></trkpt><trkpt lat="44.65995269510152" lon="9.637809192823054"><ele>939.0</ele><time>2026-05-02T10:33:45Z</time></trkpt><trkpt lat="44.65994293662569" lon="9.637687578207526"><ele>939.0</ele><time>2026-05-02T10:33:46Z</time></trkpt><trkpt lat="44.65993708320287" lon="9.637596349398276"><ele>939.0</ele><time>2026-05-02T10:33:47Z</time></trkpt><trkpt lat="44.65992074614219" lon="9.637507588222226"><ele>939.0</ele><time>2026-05-02T10:33:48Z</time></trkpt><trkpt lat="44.65991359280816" lon="9.637386675660498"><ele>939.0</ele><time>2026-05-02T10:33:49Z</time></trkpt><trkpt lat="44.659914787962585" lon="9.637271110479972"><ele>939.0</ele><time>2026-05-02T10:33:50Z</time></trkpt><trkpt lat="44.65991822594396" lon="9.63715952960702"><ele>939.0</ele><time>2026-05-02T10:33:51Z</time></trkpt><trkpt lat="44.65990671851825" lon="9.637069886321614"><ele>939.0</ele><time>2026-05-02T10:33:52Z</time></trkpt><trkpt lat="44.65987097550224" lon="9.636991725837214"><ele>939.0</ele><time>2026-05-02T10:33:53Z</time></trkpt><trkpt lat="44.6598050129279" lon="9.63691652561736"><ele>939.0</ele><time>2026-05-02T10:33:54Z</time></trkpt><trkpt lat="44.65976486566827" lon="9.636821913634378"><ele>940.6666666666666</ele><time>2026-05-02T10:33:54.999Z</time></trkpt><trkpt lat="44.659731364511636" lon="9.63674485375988"><ele>942.3333333333333</ele><time>2026-05-02T10:33:55.999Z</time></trkpt><trkpt lat="44.65970578542168" lon="9.63665498142946"><ele>944.0</ele><time>2026-05-02T10:33:56.999Z</time></trkpt><trkpt lat="44.65968084038001" lon="9.636550508051206"><ele>945.6666666666666</ele><time>2026-05-02T10:33:57.999Z</time></trkpt><trkpt lat="44.6596451570283" lon="9.63644277320669"><ele>947.3333333333333</ele><time>2026-05-02T10:33:58.999Z</time></trkpt><trkpt lat="44.659622272217995" lon="9.636338854972124"><ele>949.0</ele><time>2026-05-02T10:33:59.999Z</time></trkpt><trkpt lat="44.65958330846118" lon="9.636224828858113"><ele>951.6</ele><time>2026-05-02T10:34:01.999Z</time></trkpt><trkpt lat="44.659533178440384" lon="9.636131755159104"><ele>954.2</ele><time>2026-05-02T10:34:03.999Z</time></trkpt><trkpt lat="44.659470518784744" lon="9.635960320192936"><ele>956.8000000000001</ele><time>2026-05-02T10:34:05.999Z</time></trkpt><trkpt lat="44.65945112242783" lon="9.635874152692054"><ele>959.4000000000001</ele><time>2026-05-02T10:34:06.999Z</time></trkpt><trkpt lat="44.65944671114718" lon="9.635782593917193"><ele>962.0</ele><time>2026-05-02T10:34:07.999Z</time></trkpt><trkpt lat="44.659450821761" lon="9.635610082824773"><ele>962.0000000000001</ele><time>2026-05-02T10:34:09.999Z</time></trkpt><trkpt lat="44.65945460088429" lon="9.63551637411055"><ele>962.0</ele><time>2026-05-02T10:34:10.999Z</time></trkpt><trkpt lat="44.659466479475256" lon="9.635411481218231"><ele>962.0</ele><time>2026-05-02T10:34:11.999Z</time></trkpt><trkpt lat="44.65948130440711" lon="9.635316890850168"><ele>962.0</ele><time>2026-05-02T10:34:12.999Z</time></trkpt><trkpt lat="44.65951135727136" lon="9.63522021234363"><ele>962.0000000000001</ele><time>2026-05-02T10:34:13.999Z</time></trkpt><trkpt lat="44.659530804155594" lon="9.635133916821577"><ele>962.0</ele><time>2026-05-02T10:34:14.999Z</time></trkpt><trkpt lat="44.659512464646994" lon="9.634974878907453"><ele>962.8333333333334</ele><time>2026-05-02T10:34:16.999Z</time></trkpt><trkpt lat="44.659484306302616" lon="9.634823254446397"><ele>963.6666666666667</ele><time>2026-05-02T10:34:18.999Z</time></trkpt><trkpt lat="44.65945154847888" lon="9.634682210097237"><ele>964.5</ele><time>2026-05-02T10:34:20.999Z</time></trkpt><trkpt lat="44.6594364631322" lon="9.634594327902533"><ele>965.3333333333333</ele><time>2026-05-02T10:34:21.999Z</time></trkpt><trkpt lat="44.659440436705616" lon="9.634495189992604"><ele>966.1666666666666</ele><time>2026-05-02T10:34:22.999Z</time></trkpt><trkpt lat="44.65944762496576" lon="9.634401299511834"><ele>967.0</ele><time>2026-05-02T10:34:23.999Z</time></trkpt><trkpt lat="44.659425420146306" lon="9.634251042409602"><ele>961.0</ele><time>2026-05-02T10:34:25.999Z</time></trkpt><trkpt lat="44.659397101020396" lon="9.634153813122312"><ele>955.0</ele><time>2026-05-02T10:34:27.999Z</time></trkpt><trkpt lat="44.659307332561156" lon="9.634076713027245"><ele>949.0</ele><time>2026-05-02T10:34:30.999Z</time></trkpt><trkpt lat="44.65924478028997" lon="9.634046454332466"><ele>943.0</ele><time>2026-05-02T10:34:31.999Z</time></trkpt><trkpt lat="44.65915579886312" lon="9.633963256958753"><ele>937.0</ele><time>2026-05-02T10:34:33.999Z</time></trkpt><trkpt lat="44.65911964162152" lon="9.633791680204341"><ele>936.9999999999999</ele><time>2026-05-02T10:34:35.999Z</time></trkpt><trkpt lat="44.659104529322" lon="9.63370248860984"><ele>937.0</ele><time>2026-05-02T10:34:36.999Z</time></trkpt><trkpt lat="44.659080596943014" lon="9.633615546079419"><ele>937.0</ele><time>2026-05-02T10:34:37.999Z</time></trkpt><trkpt lat="44.65902387192615" lon="9.633504429237894"><ele>937.0</ele><time>2026-05-02T10:34:39.999Z</time></trkpt><trkpt lat="44.65896167074446" lon="9.633407727148706"><ele>936.9999999999999</ele><time>2026-05-02T10:34:41.999Z</time></trkpt><trkpt lat="44.65889418189053" lon="9.633336483131991"><ele>937.0</ele><time>2026-05-02T10:34:43.998Z</time></trkpt><trkpt lat="44.65880563020267" lon="9.633226632383423"><ele>936.3333333333333</ele><time>2026-05-02T10:34:45.998Z</time></trkpt><trkpt lat="44.65872579723361" lon="9.633151712135737"><ele>935.6666666666666</ele><time>2026-05-02T10:34:47.998Z</time></trkpt><trkpt lat="44.65866822525096" lon="9.633070955072654"><ele>935.0</ele><time>2026-05-02T10:34:49.998Z</time></trkpt><trkpt lat="44.65861083539746" lon="9.633019094931985"><ele>934.3333333333333</ele><time>2026-05-02T10:34:52.998Z</time></trkpt><trkpt lat="44.658531614955926" lon="9.632961544811538"><ele>933.6666666666666</ele><time>2026-05-02T10:34:55.998Z</time></trkpt><trkpt lat="44.65848181018295" lon="9.632891359386834"><ele>933.0</ele><time>2026-05-02T10:35:11.998Z</time></trkpt><trkpt lat="44.658441262803535" lon="9.632801046750592"><ele>933.0</ele><time>2026-05-02T10:35:17.998Z</time></trkpt><trkpt lat="44.658376800628886" lon="9.632717021420696"><ele>933.0</ele><time>2026-05-02T10:35:29Z</time></trkpt><trkpt lat="44.65833609304971" lon="9.632619855570711"><ele>933.0</ele><time>2026-05-02T10:35:33Z</time></trkpt><trkpt lat="44.658298789604956" lon="9.632492116319494"><ele>933.0</ele><time>2026-05-02T10:35:36Z</time></trkpt><trkpt lat="44.6582567203439" lon="9.632408280923993"><ele>933.0</ele><time>2026-05-02T10:35:38Z</time></trkpt><trkpt lat="44.6582239415332" lon="9.63231703283459"><ele>933.0</ele><time>2026-05-02T10:35:43Z</time></trkpt><trkpt lat="44.65819264224509" lon="9.632209621097813"><ele>933.0</ele><time>2026-05-02T10:35:47Z</time></trkpt><trkpt lat="44.65812805117418" lon="9.632144719027421"><ele>933.0</ele><time>2026-05-02T10:35:52Z</time></trkpt><trkpt lat="44.65804964000421" lon="9.632129687020967"><ele>933.0</ele><time>2026-05-02T10:35:55Z</time></trkpt><trkpt lat="44.65803486522941" lon="9.632039748582217"><ele>933.0</ele><time>2026-05-02T10:35:59.999Z</time></trkpt><trkpt lat="44.65809567742592" lon="9.632008641751614"><ele>933.0</ele><time>2026-05-02T10:36:01.999Z</time></trkpt><trkpt lat="44.65810266819284" lon="9.631893321591024"><ele>933.0</ele><time>2026-05-02T10:36:09.999Z</time></trkpt><trkpt lat="44.65807822830674" lon="9.631770874034995"><ele>934.0</ele><time>2026-05-02T10:36:11.999Z</time></trkpt><trkpt lat="44.65800884391898" lon="9.631722031522775"><ele>935.0</ele><time>2026-05-02T10:36:13.999Z</time></trkpt><trkpt lat="44.65795657545781" lon="9.631590031781261"><ele>936.0</ele><time>2026-05-02T10:36:15.999Z</time></trkpt><trkpt lat="44.6579457979941" lon="9.631446502206638"><ele>937.0</ele><time>2026-05-02T10:36:17.999Z</time></trkpt><trkpt lat="44.657960912948184" lon="9.631277437431526"><ele>938.0</ele><time>2026-05-02T10:36:19.999Z</time></trkpt><trkpt lat="44.6579612216111" lon="9.631157217897425"><ele>938.3333333333334</ele><time>2026-05-02T10:36:20.999Z</time></trkpt><trkpt lat="44.65791103306648" lon="9.631101942122232"><ele>938.6666666666667</ele><time>2026-05-02T10:36:22.999Z</time></trkpt><trkpt lat="44.657871884330085" lon="9.631016322236562"><ele>939.0</ele><time>2026-05-02T10:36:24.999Z</time></trkpt><trkpt lat="44.65776249713158" lon="9.630950309362973"><ele>939.3333333333333</ele><time>2026-05-02T10:36:26.999Z</time></trkpt><trkpt lat="44.657700100505316" lon="9.630913367003211"><ele>939.6666666666666</ele><time>2026-05-02T10:36:28.999Z</time></trkpt><trkpt lat="44.65763364365809" lon="9.630825064729343"><ele>940.0</ele><time>2026-05-02T10:36:30.999Z</time></trkpt><trkpt lat="44.657550382714994" lon="9.630814025984746"><ele>940.0</ele><time>2026-05-02T10:36:32.999Z</time></trkpt><trkpt lat="44.65743415146741" lon="9.630792762618809"><ele>940.0</ele><time>2026-05-02T10:36:34.999Z</time></trkpt><trkpt lat="44.65731883133789" lon="9.630734701933381"><ele>940.0</ele><time>2026-05-02T10:36:36.999Z</time></trkpt><trkpt lat="44.657232683361265" lon="9.6307214976341"><ele>940.0</ele><time>2026-05-02T10:36:37.999Z</time></trkpt><trkpt lat="44.657147441828" lon="9.6307242718221"><ele>940.0</ele><time>2026-05-02T10:36:38.999Z</time></trkpt><trkpt lat="44.6570815262098" lon="9.630696491169914"><ele>940.0</ele><time>2026-05-02T10:36:39.999Z</time></trkpt><trkpt lat="44.65701165086378" lon="9.630655647981417"><ele>939.9999999999999</ele><time>2026-05-02T10:36:41.999Z</time></trkpt><trkpt lat="44.65694852228375" lon="9.630676372662702"><ele>940.0</ele><time>2026-05-02T10:36:51.998Z</time></trkpt><trkpt lat="44.656892396427175" lon="9.630737521957053"><ele>940.0</ele><time>2026-05-02T10:36:55.998Z</time></trkpt><trkpt lat="44.65683076298893" lon="9.630774931842017"><ele>939.9999999999999</ele><time>2026-05-02T10:36:57.998Z</time></trkpt><trkpt lat="44.65674287130884" lon="9.63077928703602"><ele>940.0</ele><time>2026-05-02T10:37:00.998Z</time></trkpt><trkpt lat="44.6566755937316" lon="9.630741803751647"><ele>940.0</ele><time>2026-05-02T10:37:03.998Z</time></trkpt><trkpt lat="44.65659784892549" lon="9.630697911884514"><ele>940.2857142857142</ele><time>2026-05-02T10:37:07.998Z</time></trkpt><trkpt lat="44.65652847348986" lon="9.630681667640587"><ele>940.5714285714284</ele><time>2026-05-02T10:37:10.998Z</time></trkpt><trkpt lat="44.656462805034565" lon="9.630630940986197"><ele>940.8571428571429</ele><time>2026-05-02T10:37:25.998Z</time></trkpt><trkpt lat="44.65640100531086" lon="9.630598980850728"><ele>941.1428571428571</ele><time>2026-05-02T10:37:29Z</time></trkpt><trkpt lat="44.65633198481925" lon="9.63060015977415"><ele>941.4285714285714</ele><time>2026-05-02T10:37:32Z</time></trkpt><trkpt lat="44.65626314207205" lon="9.630513961648774"><ele>941.7142857142858</ele><time>2026-05-02T10:37:34Z</time></trkpt><trkpt lat="44.656210451796404" lon="9.630455686050963"><ele>942.0000000000001</ele><time>2026-05-02T10:37:35Z</time></trkpt><trkpt lat="44.65614248121584" lon="9.630400988880961"><ele>942.8333333333334</ele><time>2026-05-02T10:37:36Z</time></trkpt><trkpt lat="44.65607954397084" lon="9.630302990620304"><ele>943.6666666666667</ele><time>2026-05-02T10:37:37Z</time></trkpt><trkpt lat="44.6560066054118" lon="9.63019263289346"><ele>944.5</ele><time>2026-05-02T10:37:38Z</time></trkpt><trkpt lat="44.65595967257389" lon="9.630131295732312"><ele>945.3333333333334</ele><time>2026-05-02T10:37:39Z</time></trkpt><trkpt lat="44.65590162658101" lon="9.63003793431475"><ele>946.1666666666667</ele><time>2026-05-02T10:37:41Z</time></trkpt><trkpt lat="44.65584586569162" lon="9.6299939905311"><ele>947.0</ele><time>2026-05-02T10:37:44Z</time></trkpt><trkpt lat="44.65579477723691" lon="9.629933384306923"><ele>947.0000000000001</ele><time>2026-05-02T10:37:48Z</time></trkpt><trkpt lat="44.65572413465921" lon="9.629902076421951"><ele>947.0</ele><time>2026-05-02T10:37:54Z</time></trkpt><trkpt lat="44.65564693276634" lon="9.629887977572958"><ele>947.0</ele><time>2026-05-02T10:37:57Z</time></trkpt><trkpt lat="44.65557807331691" lon="9.629827951123731"><ele>947.0</ele><time>2026-05-02T10:38:00Z</time></trkpt><trkpt lat="44.65552831589229" lon="9.62975651919286"><ele>947.0000000000001</ele><time>2026-05-02T10:38:02Z</time></trkpt><trkpt lat="44.65544969200624" lon="9.629720373135266"><ele>947.0</ele><time>2026-05-02T10:38:03.999Z</time></trkpt><trkpt lat="44.655397535326216" lon="9.629668093080571"><ele>947.0000000000001</ele><time>2026-05-02T10:38:05.999Z</time></trkpt><trkpt lat="44.65532823949012" lon="9.629624102751503"><ele>947.0</ele><time>2026-05-02T10:38:07.999Z</time></trkpt><trkpt lat="44.65526739497339" lon="9.629561291880472"><ele>947.0</ele><time>2026-05-02T10:38:11.999Z</time></trkpt><trkpt lat="44.655204284514966" lon="9.629487018368971"><ele>947.0</ele><time>2026-05-02T10:38:37.999Z</time></trkpt><trkpt lat="44.65513535353931" lon="9.629434602299419"><ele>947.0000000000001</ele><time>2026-05-02T10:38:40.999Z</time></trkpt><trkpt lat="44.655059488093165" lon="9.629340607591931"><ele>947.0</ele><time>2026-05-02T10:38:43.999Z</time></trkpt><trkpt lat="44.65500292942753" lon="9.629278145137091"><ele>948.5714285714286</ele><time>2026-05-02T10:38:44.999Z</time></trkpt><trkpt lat="44.654952065034664" lon="9.629207177657097"><ele>950.1428571428571</ele><time>2026-05-02T10:38:45.999Z</time></trkpt><trkpt lat="44.654897862228815" lon="9.62915068575084"><ele>951.7142857142857</ele><time>2026-05-02T10:38:46.999Z</time></trkpt><trkpt lat="44.654849340356485" lon="9.629089342897359"><ele>953.2857142857142</ele><time>2026-05-02T10:38:47.999Z</time></trkpt><trkpt lat="44.65477020137875" lon="9.62905808402132"><ele>954.8571428571429</ele><time>2026-05-02T10:38:49.999Z</time></trkpt><trkpt lat="44.654697636615516" lon="9.629038731491878"><ele>956.4285714285713</ele><time>2026-05-02T10:38:50.998Z</time></trkpt><trkpt lat="44.65463687232403" lon="9.62901072316209"><ele>958.0</ele><time>2026-05-02T10:38:51.998Z</time></trkpt><trkpt lat="44.65455900546842" lon="9.628925298942036"><ele>957.9999999999999</ele><time>2026-05-02T10:38:53.998Z</time></trkpt><trkpt lat="44.654467023762585" lon="9.628874211474065"><ele>958.0</ele><time>2026-05-02T10:38:55.998Z</time></trkpt><trkpt lat="44.65438961054235" lon="9.628854395653605"><ele>958.0</ele><time>2026-05-02T10:38:57.998Z</time></trkpt><trkpt lat="44.654312170587524" lon="9.628834304090155"><ele>958.0</ele><time>2026-05-02T10:38:59.998Z</time></trkpt><trkpt lat="44.654211534325384" lon="9.628792577851664"><ele>957.9999999999999</ele><time>2026-05-02T10:39:02.998Z</time></trkpt><trkpt lat="44.65413918887588" lon="9.628752519316173"><ele>958.0</ele><time>2026-05-02T10:39:04.998Z</time></trkpt><trkpt lat="44.654075301476986" lon="9.628669961298293"><ele>959.6666666666666</ele><time>2026-05-02T10:39:06.998Z</time></trkpt><trkpt lat="44.65401071716095" lon="9.628632235044273"><ele>961.3333333333333</ele><time>2026-05-02T10:39:42Z</time></trkpt><trkpt lat="44.65394831092581" lon="9.628516650483174"><ele>963.0</ele><time>2026-05-02T10:39:45Z</time></trkpt><trkpt lat="44.6538735111788" lon="9.62836685093643"><ele>964.6666666666667</ele><time>2026-05-02T10:39:47Z</time></trkpt><trkpt lat="44.65384216330953" lon="9.628281092244801"><ele>966.3333333333334</ele><time>2026-05-02T10:39:48Z</time></trkpt><trkpt lat="44.65381195306229" lon="9.628202724609897"><ele>968.0</ele><time>2026-05-02T10:39:49Z</time></trkpt><trkpt lat="44.65373537359007" lon="9.628179965124758"><ele>968.0000000000001</ele><time>2026-05-02T10:40:09Z</time></trkpt><trkpt lat="44.653674706582976" lon="9.628245691332092"><ele>968.0</ele><time>2026-05-02T10:40:10Z</time></trkpt><trkpt lat="44.65361006017144" lon="9.628309792104112"><ele>968.0</ele><time>2026-05-02T10:40:11Z</time></trkpt><trkpt lat="44.6535348993078" lon="9.628442848404909"><ele>968.0</ele><time>2026-05-02T10:40:12.999Z</time></trkpt><trkpt lat="44.6534942456059" lon="9.628522996816287"><ele>968.0000000000001</ele><time>2026-05-02T10:40:13.999Z</time></trkpt><trkpt lat="44.65346100327429" lon="9.62861487029418"><ele>968.0</ele><time>2026-05-02T10:40:14.999Z</time></trkpt><trkpt lat="44.653421655552016" lon="9.628701731982641"><ele>968.8</ele><time>2026-05-02T10:40:15.999Z</time></trkpt><trkpt lat="44.65339302449989" lon="9.62878429591803"><ele>969.5999999999999</ele><time>2026-05-02T10:40:16.999Z</time></trkpt><trkpt lat="44.65334946941621" lon="9.628860496077799"><ele>970.4000000000001</ele><time>2026-05-02T10:40:17.999Z</time></trkpt><trkpt lat="44.6532620959238" lon="9.628982481802332"><ele>971.2</ele><time>2026-05-02T10:40:19.999Z</time></trkpt><trkpt lat="44.65318588588934" lon="9.629018701918113"><ele>972.0</ele><time>2026-05-02T10:40:20.999Z</time></trkpt><trkpt lat="44.653056438344024" lon="9.629029712598756"><ele>972.0</ele><time>2026-05-02T10:40:22.999Z</time></trkpt><trkpt lat="44.65296364761526" lon="9.629008726004407"><ele>972.0</ele><time>2026-05-02T10:40:23.999Z</time></trkpt><trkpt lat="44.65285925635927" lon="9.628973565579427"><ele>972.0</ele><time>2026-05-02T10:40:24.999Z</time></trkpt><trkpt lat="44.652737540578926" lon="9.628923312239023"><ele>972.0</ele><time>2026-05-02T10:40:25.999Z</time></trkpt><trkpt lat="44.652621748606606" lon="9.628875690106645"><ele>972.0</ele><time>2026-05-02T10:40:26.999Z</time></trkpt><trkpt lat="44.65253399240427" lon="9.62881473154777"><ele>972.0</ele><time>2026-05-02T10:40:28.999Z</time></trkpt><trkpt lat="44.65243662407102" lon="9.62876303606415"><ele>972.0</ele><time>2026-05-02T10:40:30.999Z</time></trkpt><trkpt lat="44.652360547537455" lon="9.628766024001083"><ele>972.0</ele><time>2026-05-02T10:40:31.999Z</time></trkpt><trkpt lat="44.6522803336118" lon="9.628778821056796"><ele>972.0</ele><time>2026-05-02T10:40:32.999Z</time></trkpt><trkpt lat="44.65220863693288" lon="9.628772951087665"><ele>972.0</ele><time>2026-05-02T10:40:33.999Z</time></trkpt><trkpt lat="44.652084505498884" lon="9.628718234037448"><ele>972.0</ele><time>2026-05-02T10:40:35.999Z</time></trkpt><trkpt lat="44.6520256791511" lon="9.628672122158731"><ele>972.0</ele><time>2026-05-02T10:40:36.999Z</time></trkpt><trkpt lat="44.651958987698904" lon="9.62863201472737"><ele>972.0</ele><time>2026-05-02T10:40:37.999Z</time></trkpt><trkpt lat="44.65187891694029" lon="9.628597249922983"><ele>972.0</ele><time>2026-05-02T10:40:38.999Z</time></trkpt><trkpt lat="44.65179441070405" lon="9.628554899931817"><ele>972.0</ele><time>2026-05-02T10:40:39.999Z</time></trkpt><trkpt lat="44.65171525167843" lon="9.628534443485739"><ele>972.0</ele><time>2026-05-02T10:40:40.999Z</time></trkpt><trkpt lat="44.651618659721635" lon="9.628528455909386"><ele>973.4000000000001</ele><time>2026-05-02T10:40:41.999Z</time></trkpt><trkpt lat="44.651519216313744" lon="9.628541592645485"><ele>974.8000000000001</ele><time>2026-05-02T10:40:42.999Z</time></trkpt><trkpt lat="44.651426419908624" lon="9.628527879876776"><ele>976.2</ele><time>2026-05-02T10:40:43.999Z</time></trkpt><trkpt lat="44.651345278713066" lon="9.628496203186062"><ele>977.6</ele><time>2026-05-02T10:40:44.999Z</time></trkpt><trkpt lat="44.6512737985418" lon="9.628472108301057"><ele>979.0</ele><time>2026-05-02T10:40:45.999Z</time></trkpt><trkpt lat="44.65116334297238" lon="9.628435702246076"><ele>979.8333333333333</ele><time>2026-05-02T10:40:47.999Z</time></trkpt><trkpt lat="44.65108474581393" lon="9.628437075669073"><ele>980.6666666666666</ele><time>2026-05-02T10:40:48.999Z</time></trkpt><trkpt lat="44.65102259460549" lon="9.628472935924101"><ele>981.5</ele><time>2026-05-02T10:40:49.999Z</time></trkpt><trkpt lat="44.65096142160156" lon="9.628510787118016"><ele>982.3333333333333</ele><time>2026-05-02T10:40:50.999Z</time></trkpt><trkpt lat="44.6508914668717" lon="9.62852756490222"><ele>983.1666666666666</ele><time>2026-05-02T10:40:51.999Z</time></trkpt><trkpt lat="44.6507980435239" lon="9.62853348612411"><ele>984.0</ele><time>2026-05-02T10:40:53.999Z</time></trkpt><trkpt lat="44.65066883531229" lon="9.628489961556614"><ele>984.0</ele><time>2026-05-02T10:40:55.999Z</time></trkpt><trkpt lat="44.65058798932763" lon="9.628445345071816"><ele>984.0000000000001</ele><time>2026-05-02T10:40:56.999Z</time></trkpt><trkpt lat="44.65049067422346" lon="9.62840277650175"><ele>984.0000000000001</ele><time>2026-05-02T10:40:57.999Z</time></trkpt><trkpt lat="44.65039380116171" lon="9.628340432911687"><ele>984.0</ele><time>2026-05-02T10:40:58.999Z</time></trkpt><trkpt lat="44.65028033067467" lon="9.628273552904668"><ele>984.0</ele><time>2026-05-02T10:40:59.999Z</time></trkpt><trkpt lat="44.65018820396095" lon="9.628210285879332"><ele>985.6</ele><time>2026-05-02T10:41:00.999Z</time></trkpt><trkpt lat="44.650108530703385" lon="9.628155457771904"><ele>987.2</ele><time>2026-05-02T10:41:01.999Z</time></trkpt><trkpt lat="44.65001587747642" lon="9.628100227153686"><ele>988.8000000000001</ele><time>2026-05-02T10:41:02.998Z</time></trkpt><trkpt lat="44.649936334757754" lon="9.628067732202929"><ele>990.4000000000001</ele><time>2026-05-02T10:41:03.998Z</time></trkpt><trkpt lat="44.64982556681374" lon="9.628089824394786"><ele>992.0</ele><time>2026-05-02T10:41:05.998Z</time></trkpt><trkpt lat="44.649712413238795" lon="9.628157772378307"><ele>992.0000000000001</ele><time>2026-05-02T10:41:07.998Z</time></trkpt><trkpt lat="44.64963700128592" lon="9.628199939962837"><ele>992.0</ele><time>2026-05-02T10:41:08.998Z</time></trkpt><trkpt lat="44.649558872769944" lon="9.62822793262495"><ele>992.0</ele><time>2026-05-02T10:41:09.998Z</time></trkpt><trkpt lat="44.64949023140549" lon="9.628257428518017"><ele>992.0</ele><time>2026-05-02T10:41:10.998Z</time></trkpt><trkpt lat="44.64941154794441" lon="9.628289091334006"><ele>992.0000000000001</ele><time>2026-05-02T10:41:11.998Z</time></trkpt><trkpt lat="44.64932765770247" lon="9.628310677369937"><ele>992.0</ele><time>2026-05-02T10:41:12.998Z</time></trkpt><trkpt lat="44.64925471866837" lon="9.628331907710148"><ele>990.4000000000001</ele><time>2026-05-02T10:41:13.998Z</time></trkpt><trkpt lat="44.6491716655477" lon="9.628354843487672"><ele>988.8000000000001</ele><time>2026-05-02T10:41:14.998Z</time></trkpt><trkpt lat="44.64908495270389" lon="9.628398079349578"><ele>987.2</ele><time>2026-05-02T10:41:15.998Z</time></trkpt><trkpt lat="44.64900332565374" lon="9.628466990055005"><ele>985.6</ele><time>2026-05-02T10:41:16.998Z</time></trkpt><trkpt lat="44.64891531571283" lon="9.62850933590987"><ele>984.0</ele><time>2026-05-02T10:41:17.998Z</time></trkpt><trkpt lat="44.64882387915023" lon="9.628528479930578"><ele>984.0</ele><time>2026-05-02T10:41:18.998Z</time></trkpt><trkpt lat="44.64874227483546" lon="9.628521806282425"><ele>984.0</ele><time>2026-05-02T10:41:19.998Z</time></trkpt><trkpt lat="44.648677943308606" lon="9.628503394245973"><ele>984.0</ele><time>2026-05-02T10:41:20.998Z</time></trkpt><trkpt lat="44.64860715660169" lon="9.628461818524725"><ele>984.0</ele><time>2026-05-02T10:41:21.998Z</time></trkpt><trkpt lat="44.64854471042008" lon="9.628386873815389"><ele>984.0</ele><time>2026-05-02T10:41:22.998Z</time></trkpt><trkpt lat="44.648471716739415" lon="9.628311452970186"><ele>984.0</ele><time>2026-05-02T10:41:23.998Z</time></trkpt><trkpt lat="44.64840162899066" lon="9.628242108120482"><ele>983.6</ele><time>2026-05-02T10:41:24.998Z</time></trkpt><trkpt lat="44.648322407346235" lon="9.628235694092556"><ele>983.2</ele><time>2026-05-02T10:41:25.998Z</time></trkpt><trkpt lat="44.64826430714974" lon="9.628282424880204"><ele>982.8000000000001</ele><time>2026-05-02T10:41:26.998Z</time></trkpt><trkpt lat="44.64816689034324" lon="9.628299412071721"><ele>982.4000000000001</ele><time>2026-05-02T10:41:27.998Z</time></trkpt><trkpt lat="44.64802244215407" lon="9.628305770658773"><ele>982.0</ele><time>2026-05-02T10:41:28.998Z</time></trkpt><trkpt lat="44.64791286266455" lon="9.62834255713091"><ele>982.0</ele><time>2026-05-02T10:41:29.998Z</time></trkpt><trkpt lat="44.64780999430186" lon="9.628395321861147"><ele>982.0</ele><time>2026-05-02T10:41:30.998Z</time></trkpt><trkpt lat="44.64769348279661" lon="9.62843328440466"><ele>982.0</ele><time>2026-05-02T10:41:31.998Z</time></trkpt><trkpt lat="44.647598117465996" lon="9.62847024890433"><ele>982.0</ele><time>2026-05-02T10:41:32.998Z</time></trkpt><trkpt lat="44.647529877255174" lon="9.628484350670373"><ele>982.0</ele><time>2026-05-02T10:41:33.998Z</time></trkpt><trkpt lat="44.6473742335401" lon="9.628465520902306"><ele>982.6</ele><time>2026-05-02T10:41:35.998Z</time></trkpt><trkpt lat="44.647289994629176" lon="9.62849472388313"><ele>983.2</ele><time>2026-05-02T10:41:36.998Z</time></trkpt><trkpt lat="44.64720659068518" lon="9.628570715887694"><ele>983.8</ele><time>2026-05-02T10:41:37.998Z</time></trkpt><trkpt lat="44.64713372769066" lon="9.62866186448986"><ele>984.4</ele><time>2026-05-02T10:41:38.998Z</time></trkpt><trkpt lat="44.647070714116715" lon="9.628764842397354"><ele>985.0</ele><time>2026-05-02T10:41:39.998Z</time></trkpt><trkpt lat="44.647010046396964" lon="9.628843975114371"><ele>986.1666666666666</ele><time>2026-05-02T10:41:41Z</time></trkpt><trkpt lat="44.64694400485975" lon="9.628903820587787"><ele>987.3333333333333</ele><time>2026-05-02T10:41:42Z</time></trkpt><trkpt lat="44.64687600162924" lon="9.628960640388776"><ele>988.5</ele><time>2026-05-02T10:41:43Z</time></trkpt><trkpt lat="44.64680723656929" lon="9.629003124600938"><ele>989.6666666666667</ele><time>2026-05-02T10:41:44Z</time></trkpt><trkpt lat="44.64670756913804" lon="9.629035619626796"><ele>990.8333333333334</ele><time>2026-05-02T10:41:45Z</time></trkpt><trkpt lat="44.64662124451058" lon="9.629063310841582"><ele>992.0</ele><time>2026-05-02T10:41:46Z</time></trkpt><trkpt lat="44.64655505044901" lon="9.629031281602881"><ele>992.0</ele><time>2026-05-02T10:41:48Z</time></trkpt><trkpt lat="44.646455544981094" lon="9.629019226605385"><ele>992.0</ele><time>2026-05-02T10:41:58Z</time></trkpt><trkpt lat="44.64637411670085" lon="9.629007514615619"><ele>992.0</ele><time>2026-05-02T10:42:00Z</time></trkpt><trkpt lat="44.64628772059484" lon="9.628980207068318"><ele>992.0</ele><time>2026-05-02T10:42:02Z</time></trkpt><trkpt lat="44.64619700447057" lon="9.628914375791927"><ele>992.0</ele><time>2026-05-02T10:42:04Z</time></trkpt><trkpt lat="44.64610488684217" lon="9.628838901625144"><ele>992.0000000000001</ele><time>2026-05-02T10:42:06Z</time></trkpt><trkpt lat="44.64603244347492" lon="9.62877417515109"><ele>992.0</ele><time>2026-05-02T10:42:08Z</time></trkpt><trkpt lat="44.64594891939682" lon="9.628715531303067"><ele>992.0</ele><time>2026-05-02T10:42:10Z</time></trkpt><trkpt lat="44.64588564612015" lon="9.62868777729174"><ele>992.0</ele><time>2026-05-02T10:42:11Z</time></trkpt><trkpt lat="44.64582205485593" lon="9.628661909220147"><ele>992.0000000000001</ele><time>2026-05-02T10:42:12Z</time></trkpt><trkpt lat="44.645734860545964" lon="9.628605951616708"><ele>992.0</ele><time>2026-05-02T10:42:14Z</time></trkpt><trkpt lat="44.645632485278256" lon="9.62860090697456"><ele>992.0</ele><time>2026-05-02T10:42:15.999Z</time></trkpt><trkpt lat="44.64557213306876" lon="9.628627061850871"><ele>992.0</ele><time>2026-05-02T10:42:16.999Z</time></trkpt><trkpt lat="44.64546194141996" lon="9.62870925169881"><ele>992.0</ele><time>2026-05-02T10:42:18.999Z</time></trkpt><trkpt lat="44.645346904250935" lon="9.628762781071165"><ele>992.0</ele><time>2026-05-02T10:42:20.999Z</time></trkpt><trkpt lat="44.64528007597032" lon="9.62875070283628"><ele>992.0</ele><time>2026-05-02T10:42:21.999Z</time></trkpt><trkpt lat="44.64520538995418" lon="9.628709283559589"><ele>991.5714285714287</ele><time>2026-05-02T10:42:22.999Z</time></trkpt><trkpt lat="44.64514364341099" lon="9.628656338395862"><ele>991.1428571428572</ele><time>2026-05-02T10:42:23.999Z</time></trkpt><trkpt lat="44.64508125746076" lon="9.628615494127137"><ele>990.7142857142858</ele><time>2026-05-02T10:42:24.999Z</time></trkpt><trkpt lat="44.64501461475972" lon="9.628599762342443"><ele>990.2857142857142</ele><time>2026-05-02T10:42:25.999Z</time></trkpt><trkpt lat="44.64494726339261" lon="9.628599065236344"><ele>989.8571428571428</ele><time>2026-05-02T10:42:26.999Z</time></trkpt><trkpt lat="44.64487092740199" lon="9.628621005466433"><ele>989.4285714285713</ele><time>2026-05-02T10:42:27.999Z</time></trkpt><trkpt lat="44.64478134306995" lon="9.628663440235881"><ele>989.0</ele><time>2026-05-02T10:42:28.999Z</time></trkpt><trkpt lat="44.64466816341602" lon="9.628736964503211"><ele>989.0</ele><time>2026-05-02T10:42:29.999Z</time></trkpt><trkpt lat="44.644560046607694" lon="9.628816121578456"><ele>989.0000000000001</ele><time>2026-05-02T10:42:30.999Z</time></trkpt><trkpt lat="44.644463801491426" lon="9.628895008189476"><ele>989.0000000000001</ele><time>2026-05-02T10:42:31.999Z</time></trkpt><trkpt lat="44.644373505875514" lon="9.628960084666822"><ele>989.0</ele><time>2026-05-02T10:42:32.999Z</time></trkpt><trkpt lat="44.64427694129" lon="9.629000236079438"><ele>989.0</ele><time>2026-05-02T10:42:33.999Z</time></trkpt><trkpt lat="44.644180586810755" lon="9.629005957303521"><ele>988.2</ele><time>2026-05-02T10:42:34.999Z</time></trkpt><trkpt lat="44.64409520079533" lon="9.62899942582582"><ele>987.4000000000001</ele><time>2026-05-02T10:42:35.999Z</time></trkpt><trkpt lat="44.64399028128348" lon="9.628991812245959"><ele>986.6</ele><time>2026-05-02T10:42:37.999Z</time></trkpt><trkpt lat="44.64390829422031" lon="9.628953505054014"><ele>985.8</ele><time>2026-05-02T10:42:39.999Z</time></trkpt><trkpt lat="44.64385329094692" lon="9.628798372265734"><ele>985.0</ele><time>2026-05-02T10:42:41.999Z</time></trkpt><trkpt lat="44.64384737302011" lon="9.628681251008974"><ele>983.4</ele><time>2026-05-02T10:42:42.999Z</time></trkpt><trkpt lat="44.64384480271555" lon="9.628522300669207"><ele>981.8</ele><time>2026-05-02T10:42:43.999Z</time></trkpt><trkpt lat="44.64385836445188" lon="9.628362619394458"><ele>980.2</ele><time>2026-05-02T10:42:44.999Z</time></trkpt><trkpt lat="44.643866154885714" lon="9.62823060844429"><ele>978.6</ele><time>2026-05-02T10:42:45.999Z</time></trkpt><trkpt lat="44.64385927476541" lon="9.62811171446568"><ele>977.0</ele><time>2026-05-02T10:42:46.999Z</time></trkpt><trkpt lat="44.64384822176513" lon="9.627980438478493"><ele>977.0000000000001</ele><time>2026-05-02T10:42:47.999Z</time></trkpt><trkpt lat="44.643835683918525" lon="9.627861937877896"><ele>977.0</ele><time>2026-05-02T10:42:48.999Z</time></trkpt><trkpt lat="44.64381703050059" lon="9.627761485359466"><ele>977.0</ele><time>2026-05-02T10:42:49.999Z</time></trkpt><trkpt lat="44.643796987632186" lon="9.627664640293267"><ele>977.0</ele><time>2026-05-02T10:42:50.999Z</time></trkpt><trkpt lat="44.64374902149861" lon="9.627544750852776"><ele>977.0000000000001</ele><time>2026-05-02T10:42:51.999Z</time></trkpt><trkpt lat="44.64371114323996" lon="9.627411621165537"><ele>977.0</ele><time>2026-05-02T10:42:52.999Z</time></trkpt><trkpt lat="44.643698284660715" lon="9.627292735922316"><ele>976.5000000000001</ele><time>2026-05-02T10:42:53.999Z</time></trkpt><trkpt lat="44.64368788565232" lon="9.627192337856945"><ele>976.0</ele><time>2026-05-02T10:42:54.999Z</time></trkpt><trkpt lat="44.643666740342915" lon="9.627099069602753"><ele>975.5</ele><time>2026-05-02T10:42:55.999Z</time></trkpt><trkpt lat="44.64362801872184" lon="9.627008515940707"><ele>975.0</ele><time>2026-05-02T10:42:56.999Z</time></trkpt><trkpt lat="44.64357713201183" lon="9.626926928483378"><ele>974.5000000000001</ele><time>2026-05-02T10:42:57.999Z</time></trkpt><trkpt lat="44.64352104918603" lon="9.626846844692832"><ele>974.0</ele><time>2026-05-02T10:42:58.999Z</time></trkpt><trkpt lat="44.643465887293665" lon="9.626763060350973"><ele>974.0</ele><time>2026-05-02T10:42:59.999Z</time></trkpt><trkpt lat="44.64341405949892" lon="9.626668968375986"><ele>974.0000000000001</ele><time>2026-05-02T10:43:00.999Z</time></trkpt><trkpt lat="44.64335528122951" lon="9.626571931439395"><ele>974.0000000000001</ele><time>2026-05-02T10:43:01.999Z</time></trkpt><trkpt lat="44.643275323851086" lon="9.62645537676409"><ele>974.0</ele><time>2026-05-02T10:43:02.999Z</time></trkpt><trkpt lat="44.64319222245672" lon="9.626356563391537"><ele>974.0</ele><time>2026-05-02T10:43:03.998Z</time></trkpt><trkpt lat="44.643103849947984" lon="9.626290330923428"><ele>974.0</ele><time>2026-05-02T10:43:04.998Z</time></trkpt><trkpt lat="44.64300876951952" lon="9.626238809517632"><ele>974.0000000000001</ele><time>2026-05-02T10:43:05.998Z</time></trkpt><trkpt lat="44.64289941573516" lon="9.626214860732915"><ele>974.0000000000001</ele><time>2026-05-02T10:43:06.998Z</time></trkpt><trkpt lat="44.642790163980465" lon="9.626204604777268"><ele>974.0</ele><time>2026-05-02T10:43:07.998Z</time></trkpt><trkpt lat="44.64268580291589" lon="9.626170631962978"><ele>974.0</ele><time>2026-05-02T10:43:08.998Z</time></trkpt><trkpt lat="44.642571630031874" lon="9.626143221198088"><ele>977.25</ele><time>2026-05-02T10:43:09.998Z</time></trkpt><trkpt lat="44.642465642339694" lon="9.626147923774303"><ele>980.5</ele><time>2026-05-02T10:43:10.998Z</time></trkpt><trkpt lat="44.6423620703524" lon="9.626160498203744"><ele>983.75</ele><time>2026-05-02T10:43:11.998Z</time></trkpt><trkpt lat="44.64224983388356" lon="9.626201044261629"><ele>987.0</ele><time>2026-05-02T10:43:12.998Z</time></trkpt><trkpt lat="44.642122126501974" lon="9.62625593369897"><ele>987.0</ele><time>2026-05-02T10:43:13.998Z</time></trkpt><trkpt lat="44.641991230232584" lon="9.626305225931015"><ele>987.0</ele><time>2026-05-02T10:43:14.998Z</time></trkpt><trkpt lat="44.64189451559644" lon="9.626335168483589"><ele>987.0</ele><time>2026-05-02T10:43:15.998Z</time></trkpt><trkpt lat="44.64181047715436" lon="9.62635974229952"><ele>987.0</ele><time>2026-05-02T10:43:16.998Z</time></trkpt><trkpt lat="44.64173595845233" lon="9.626398537486807"><ele>987.0</ele><time>2026-05-02T10:43:17.998Z</time></trkpt><trkpt lat="44.641663997471035" lon="9.626462333206444"><ele>986.4000000000001</ele><time>2026-05-02T10:43:18.998Z</time></trkpt><trkpt lat="44.64158977536904" lon="9.626552154325971"><ele>985.8000000000001</ele><time>2026-05-02T10:43:19.998Z</time></trkpt><trkpt lat="44.64151041117428" lon="9.626653658527706"><ele>985.2</ele><time>2026-05-02T10:43:20.998Z</time></trkpt><trkpt lat="44.64143619659994" lon="9.626736689328045"><ele>984.6</ele><time>2026-05-02T10:43:21.998Z</time></trkpt><trkpt lat="44.64136590569053" lon="9.626789068681518"><ele>984.0</ele><time>2026-05-02T10:43:22.998Z</time></trkpt><trkpt lat="44.6412890823972" lon="9.626822627315889"><ele>984.0</ele><time>2026-05-02T10:43:23.998Z</time></trkpt><trkpt lat="44.64119103353993" lon="9.626847848384214"><ele>984.0</ele><time>2026-05-02T10:43:24.998Z</time></trkpt><trkpt lat="44.641096643223975" lon="9.626862800667565"><ele>984.0</ele><time>2026-05-02T10:43:25.998Z</time></trkpt><trkpt lat="44.64101389934308" lon="9.6268775109255"><ele>984.0</ele><time>2026-05-02T10:43:26.998Z</time></trkpt><trkpt lat="44.64093769083706" lon="9.626898453420232"><ele>984.0</ele><time>2026-05-02T10:43:27.998Z</time></trkpt><trkpt lat="44.64086128616358" lon="9.626909318528375"><ele>984.0</ele><time>2026-05-02T10:43:28.998Z</time></trkpt><trkpt lat="44.64076653460388" lon="9.626889998688934"><ele>983.8000000000001</ele><time>2026-05-02T10:43:29.998Z</time></trkpt><trkpt lat="44.64066379941299" lon="9.626848866715601"><ele>983.6000000000001</ele><time>2026-05-02T10:43:30.998Z</time></trkpt><trkpt lat="44.64057433034997" lon="9.626823167789874"><ele>983.4</ele><time>2026-05-02T10:43:31.998Z</time></trkpt><trkpt lat="44.640483164404316" lon="9.626830725341826"><ele>983.2</ele><time>2026-05-02T10:43:32.998Z</time></trkpt><trkpt lat="44.64035597131229" lon="9.62687416930581"><ele>983.0</ele><time>2026-05-02T10:43:33.998Z</time></trkpt><trkpt lat="44.640283397582" lon="9.626937908925282"><ele>983.6666666666667</ele><time>2026-05-02T10:43:34.998Z</time></trkpt><trkpt lat="44.64021559370404" lon="9.626991059601648"><ele>984.3333333333334</ele><time>2026-05-02T10:43:35.998Z</time></trkpt><trkpt lat="44.64014496658711" lon="9.627010683134722"><ele>985.0</ele><time>2026-05-02T10:43:36.998Z</time></trkpt><trkpt lat="44.64007977225905" lon="9.627008198428882"><ele>985.6666666666667</ele><time>2026-05-02T10:43:37.998Z</time></trkpt><trkpt lat="44.64000926183176" lon="9.626963861721839"><ele>986.3333333333334</ele><time>2026-05-02T10:43:38.998Z</time></trkpt><trkpt lat="44.63993863516897" lon="9.626896673032666"><ele>987.0</ele><time>2026-05-02T10:43:39.998Z</time></trkpt><trkpt lat="44.639860778842994" lon="9.62680265866308"><ele>987.0</ele><time>2026-05-02T10:43:40.998Z</time></trkpt><trkpt lat="44.639782136992196" lon="9.626693410193013"><ele>987.0</ele><time>2026-05-02T10:43:41.998Z</time></trkpt><trkpt lat="44.63971259760032" lon="9.626583626395833"><ele>987.0</ele><time>2026-05-02T10:43:42.998Z</time></trkpt><trkpt lat="44.63963912652761" lon="9.626494290175575"><ele>987.0</ele><time>2026-05-02T10:43:43.998Z</time></trkpt><trkpt lat="44.63956001972113" lon="9.626414192214208"><ele>987.0</ele><time>2026-05-02T10:43:44.998Z</time></trkpt><trkpt lat="44.63945633511247" lon="9.626333839797653"><ele>986.6</ele><time>2026-05-02T10:43:45.998Z</time></trkpt><trkpt lat="44.63935238353256" lon="9.62626532754442"><ele>986.2</ele><time>2026-05-02T10:43:47Z</time></trkpt><trkpt lat="44.63925283344449" lon="9.62620864287709"><ele>985.8</ele><time>2026-05-02T10:43:48Z</time></trkpt><trkpt lat="44.6391673760522" lon="9.626168210845734"><ele>985.4</ele><time>2026-05-02T10:43:49Z</time></trkpt><trkpt lat="44.639095011529726" lon="9.626144187207274"><ele>985.0</ele><time>2026-05-02T10:43:50Z</time></trkpt><trkpt lat="44.63897739203499" lon="9.626132777949591"><ele>985.0</ele><time>2026-05-02T10:43:52Z</time></trkpt><trkpt lat="44.63887815119452" lon="9.626067217133299"><ele>985.0</ele><time>2026-05-02T10:43:54Z</time></trkpt><trkpt lat="44.63877350215006" lon="9.625974898513881"><ele>985.0</ele><time>2026-05-02T10:43:56Z</time></trkpt><trkpt lat="44.63870477592925" lon="9.625929651497554"><ele>985.0</ele><time>2026-05-02T10:43:57Z</time></trkpt><trkpt lat="44.63863102256057" lon="9.62588407499901"><ele>985.0</ele><time>2026-05-02T10:43:58Z</time></trkpt><trkpt lat="44.638539991728884" lon="9.625836817223309"><ele>987.5</ele><time>2026-05-02T10:43:59Z</time></trkpt><trkpt lat="44.638420137646015" lon="9.625780976100629"><ele>990.0</ele><time>2026-05-02T10:44:00Z</time></trkpt><trkpt lat="44.63832551263343" lon="9.625692170966103"><ele>992.5</ele><time>2026-05-02T10:44:01Z</time></trkpt><trkpt lat="44.63823819732665" lon="9.625578665284804"><ele>995.0</ele><time>2026-05-02T10:44:02Z</time></trkpt><trkpt lat="44.63818144005746" lon="9.625428257766181"><ele>992.0</ele><time>2026-05-02T10:44:03Z</time></trkpt><trkpt lat="44.638118827537745" lon="9.625254352535705"><ele>989.0</ele><time>2026-05-02T10:44:04Z</time></trkpt><trkpt lat="44.638044179336944" lon="9.62508881420458"><ele>986.0</ele><time>2026-05-02T10:44:05Z</time></trkpt><trkpt lat="44.63794420375836" lon="9.624931524617896"><ele>983.0</ele><time>2026-05-02T10:44:06Z</time></trkpt><trkpt lat="44.63785046777182" lon="9.624834930026347"><ele>983.1666666666667</ele><time>2026-05-02T10:44:07Z</time></trkpt><trkpt lat="44.63777863331921" lon="9.62474428784035"><ele>983.3333333333334</ele><time>2026-05-02T10:44:08Z</time></trkpt><trkpt lat="44.63773833866923" lon="9.624619158591399"><ele>983.5</ele><time>2026-05-02T10:44:09Z</time></trkpt><trkpt lat="44.63771434980619" lon="9.624508619560382"><ele>983.6666666666667</ele><time>2026-05-02T10:44:10Z</time></trkpt><trkpt lat="44.63770359005769" lon="9.624407586378869"><ele>983.8333333333334</ele><time>2026-05-02T10:44:11Z</time></trkpt><trkpt lat="44.63769590747945" lon="9.62427592294462"><ele>984.0</ele><time>2026-05-02T10:44:12Z</time></trkpt><trkpt lat="44.63768401264186" lon="9.624155279284684"><ele>984.0</ele><time>2026-05-02T10:44:13Z</time></trkpt><trkpt lat="44.6376530420206" lon="9.624046535460154"><ele>984.0</ele><time>2026-05-02T10:44:14Z</time></trkpt><trkpt lat="44.6376148127406" lon="9.623943532253831"><ele>984.0</ele><time>2026-05-02T10:44:15Z</time></trkpt><trkpt lat="44.637566300967" lon="9.623850605153562"><ele>984.0</ele><time>2026-05-02T10:44:16Z</time></trkpt><trkpt lat="44.63751768140643" lon="9.623761444928137"><ele>984.0</ele><time>2026-05-02T10:44:17Z</time></trkpt><trkpt lat="44.63747221973684" lon="9.623680937993084"><ele>984.0</ele><time>2026-05-02T10:44:18Z</time></trkpt><trkpt lat="44.63739922264177" lon="9.623551303454228"><ele>983.6</ele><time>2026-05-02T10:44:20Z</time></trkpt><trkpt lat="44.637285819626065" lon="9.623495139928217"><ele>983.2</ele><time>2026-05-02T10:44:22Z</time></trkpt><trkpt lat="44.63715719835582" lon="9.623477820950242"><ele>982.8000000000001</ele><time>2026-05-02T10:44:23.999Z</time></trkpt><trkpt lat="44.63709179822697" lon="9.623446387244643"><ele>982.4000000000001</ele><time>2026-05-02T10:44:24.999Z</time></trkpt><trkpt lat="44.63702411882972" lon="9.623397688032338"><ele>982.0</ele><time>2026-05-02T10:44:25.999Z</time></trkpt><trkpt lat="44.63696094600837" lon="9.623342927359285"><ele>980.8333333333333</ele><time>2026-05-02T10:44:26.999Z</time></trkpt><trkpt lat="44.636897819726876" lon="9.623299731730711"><ele>979.6666666666666</ele><time>2026-05-02T10:44:27.999Z</time></trkpt><trkpt lat="44.636790191682735" lon="9.623245707220384"><ele>978.5</ele><time>2026-05-02T10:44:29.999Z</time></trkpt><trkpt lat="44.63669112853674" lon="9.623266211058334"><ele>977.3333333333333</ele><time>2026-05-02T10:44:31.999Z</time></trkpt><trkpt lat="44.636625071417654" lon="9.623304603519648"><ele>976.1666666666666</ele><time>2026-05-02T10:44:33.999Z</time></trkpt><trkpt lat="44.636544658825734" lon="9.623307930119518"><ele>975.0</ele><time>2026-05-02T10:44:35.999Z</time></trkpt><trkpt lat="44.6364877180565" lon="9.6232059703017"><ele>975.0</ele><time>2026-05-02T10:44:36.999Z</time></trkpt><trkpt lat="44.63644956131257" lon="9.623076375777005"><ele>975.0</ele><time>2026-05-02T10:44:37.999Z</time></trkpt><trkpt lat="44.63640838882671" lon="9.622962294314394"><ele>975.0</ele><time>2026-05-02T10:44:38.999Z</time></trkpt><trkpt lat="44.63635496444784" lon="9.62284753743462"><ele>975.0</ele><time>2026-05-02T10:44:39.999Z</time></trkpt><trkpt lat="44.63630491386767" lon="9.622737832385043"><ele>975.0</ele><time>2026-05-02T10:44:40.999Z</time></trkpt><trkpt lat="44.636243530935936" lon="9.622629387631372"><ele>973.6</ele><time>2026-05-02T10:44:41.999Z</time></trkpt><trkpt lat="44.63615910452029" lon="9.622526294471562"><ele>972.2</ele><time>2026-05-02T10:44:42.999Z</time></trkpt><trkpt lat="44.636074234897016" lon="9.62244440327567"><ele>970.8</ele><time>2026-05-02T10:44:43.999Z</time></trkpt><trkpt lat="44.63598551068416" lon="9.622361622217984"><ele>969.4</ele><time>2026-05-02T10:44:44.999Z</time></trkpt><trkpt lat="44.635898786131946" lon="9.622277063274217"><ele>968.0</ele><time>2026-05-02T10:44:45.999Z</time></trkpt><trkpt lat="44.635825972289936" lon="9.622189430353615"><ele>968.0</ele><time>2026-05-02T10:44:46.999Z</time></trkpt><trkpt lat="44.635757668822166" lon="9.62209228613254"><ele>968.0</ele><time>2026-05-02T10:44:47.999Z</time></trkpt><trkpt lat="44.63569412501665" lon="9.621974268829204"><ele>968.0</ele><time>2026-05-02T10:44:48.999Z</time></trkpt><trkpt lat="44.635644058818954" lon="9.62182216632952"><ele>968.0</ele><time>2026-05-02T10:44:49.999Z</time></trkpt><trkpt lat="44.63561605015759" lon="9.621639324366381"><ele>970.75</ele><time>2026-05-02T10:44:50.999Z</time></trkpt><trkpt lat="44.63560344665284" lon="9.621456596073568"><ele>973.5</ele><time>2026-05-02T10:44:51.999Z</time></trkpt><trkpt lat="44.63559767816307" lon="9.621278881212724"><ele>976.25</ele><time>2026-05-02T10:44:52.999Z</time></trkpt><trkpt lat="44.635592907560884" lon="9.62109996549208"><ele>979.0</ele><time>2026-05-02T10:44:53.999Z</time></trkpt><trkpt lat="44.6355839615287" lon="9.620917799617361"><ele>979.0</ele><time>2026-05-02T10:44:54.999Z</time></trkpt><trkpt lat="44.63557516764693" lon="9.62073645942026"><ele>979.0</ele><time>2026-05-02T10:44:55.999Z</time></trkpt><trkpt lat="44.635567429126844" lon="9.620562226654389"><ele>979.0</ele><time>2026-05-02T10:44:56.999Z</time></trkpt><trkpt lat="44.63555823300103" lon="9.620400754927164"><ele>979.0</ele><time>2026-05-02T10:44:57.999Z</time></trkpt><trkpt lat="44.635548493307915" lon="9.620245116156195"><ele>978.4000000000001</ele><time>2026-05-02T10:44:58.999Z</time></trkpt><trkpt lat="44.635542841465465" lon="9.620082464044462"><ele>977.8000000000001</ele><time>2026-05-02T10:44:59.999Z</time></trkpt><trkpt lat="44.63554834830915" lon="9.619920076729658"><ele>977.1999999999999</ele><time>2026-05-02T10:45:00.999Z</time></trkpt><trkpt lat="44.63556928102453" lon="9.61977362666494"><ele>976.5999999999999</ele><time>2026-05-02T10:45:01.999Z</time></trkpt><trkpt lat="44.63560178108265" lon="9.619661476591794"><ele>976.0</ele><time>2026-05-02T10:45:02.999Z</time></trkpt><trkpt lat="44.635629891218755" lon="9.619568500593134"><ele>976.1999999999999</ele><time>2026-05-02T10:45:03.999Z</time></trkpt><trkpt lat="44.63564894135188" lon="9.61947363723155"><ele>976.3999999999999</ele><time>2026-05-02T10:45:04.999Z</time></trkpt><trkpt lat="44.63566714626171" lon="9.619333069417952"><ele>976.6</ele><time>2026-05-02T10:45:06.999Z</time></trkpt><trkpt lat="44.63566504791176" lon="9.619230623077803"><ele>976.8</ele><time>2026-05-02T10:45:08.999Z</time></trkpt><trkpt lat="44.63566201460367" lon="9.619092404339865"><ele>977.0</ele><time>2026-05-02T10:45:10.998Z</time></trkpt><trkpt lat="44.63568495251046" lon="9.618930441341293"><ele>977.0000000000001</ele><time>2026-05-02T10:45:12.998Z</time></trkpt><trkpt lat="44.63569964198782" lon="9.618782748855056"><ele>977.0</ele><time>2026-05-02T10:45:14.998Z</time></trkpt><trkpt lat="44.635679367723824" lon="9.618694865187603"><ele>977.0</ele><time>2026-05-02T10:45:16.998Z</time></trkpt><trkpt lat="44.635651775725904" lon="9.618600121117932"><ele>977.0</ele><time>2026-05-02T10:45:18.998Z</time></trkpt><trkpt lat="44.63561922345554" lon="9.618521579667064"><ele>977.0000000000001</ele><time>2026-05-02T10:45:19.998Z</time></trkpt><trkpt lat="44.63553608617442" lon="9.618471166959612"><ele>977.0</ele><time>2026-05-02T10:45:21.998Z</time></trkpt><trkpt lat="44.6354551351777" lon="9.618384440818906"><ele>976.8</ele><time>2026-05-02T10:45:23.998Z</time></trkpt><trkpt lat="44.6353688339306" lon="9.61825757178975"><ele>976.6</ele><time>2026-05-02T10:45:25.998Z</time></trkpt><trkpt lat="44.6352829218243" lon="9.618165954416089"><ele>976.3999999999999</ele><time>2026-05-02T10:45:27.998Z</time></trkpt><trkpt lat="44.635231163025175" lon="9.618078193635878"><ele>976.1999999999999</ele><time>2026-05-02T10:45:29.998Z</time></trkpt><trkpt lat="44.63517409912339" lon="9.618021963247001"><ele>976.0</ele><time>2026-05-02T10:45:35.998Z</time></trkpt><trkpt lat="44.63511039404374" lon="9.617946740452462"><ele>976.8333333333333</ele><time>2026-05-02T10:45:37.998Z</time></trkpt><trkpt lat="44.635067514956894" lon="9.61787082202627"><ele>977.6666666666666</ele><time>2026-05-02T10:45:48.998Z</time></trkpt><trkpt lat="44.63501206850206" lon="9.61778599466694"><ele>978.5</ele><time>2026-05-02T10:45:49.998Z</time></trkpt><trkpt lat="44.634965850772666" lon="9.617675704364414"><ele>979.3333333333333</ele><time>2026-05-02T10:45:50.998Z</time></trkpt><trkpt lat="44.63494339217338" lon="9.617560883100106"><ele>980.1666666666666</ele><time>2026-05-02T10:45:51.998Z</time></trkpt><trkpt lat="44.63495051652365" lon="9.617444111015214"><ele>981.0</ele><time>2026-05-02T10:45:53Z</time></trkpt><trkpt lat="44.63498676040245" lon="9.617297925498272"><ele>983.8</ele><time>2026-05-02T10:45:55Z</time></trkpt><trkpt lat="44.63499262844457" lon="9.61717925878446"><ele>986.5999999999999</ele><time>2026-05-02T10:45:57Z</time></trkpt><trkpt lat="44.63491170041948" lon="9.617064431774871"><ele>989.4</ele><time>2026-05-02T10:45:59Z</time></trkpt><trkpt lat="44.63484255747993" lon="9.617022958654944"><ele>992.2</ele><time>2026-05-02T10:46:02Z</time></trkpt><trkpt lat="44.634740092985126" lon="9.616923370414298"><ele>995.0</ele><time>2026-05-02T10:46:04Z</time></trkpt><trkpt lat="44.63466751400953" lon="9.61681586654374"><ele>995.6</ele><time>2026-05-02T10:46:06Z</time></trkpt><trkpt lat="44.63455894599433" lon="9.616724164422665"><ele>996.2</ele><time>2026-05-02T10:46:08Z</time></trkpt><trkpt lat="44.6344943542804" lon="9.616690148322105"><ele>996.8</ele><time>2026-05-02T10:46:09Z</time></trkpt><trkpt lat="44.63443982981205" lon="9.616627520323899"><ele>997.4</ele><time>2026-05-02T10:46:10Z</time></trkpt><trkpt lat="44.634392856423844" lon="9.616500383111594"><ele>998.0</ele><time>2026-05-02T10:46:12Z</time></trkpt><trkpt lat="44.634412264583325" lon="9.616369964033808"><ele>998.4</ele><time>2026-05-02T10:46:14Z</time></trkpt><trkpt lat="44.634393006444554" lon="9.616202088964364"><ele>998.8</ele><time>2026-05-02T10:46:16Z</time></trkpt><trkpt lat="44.63440272833206" lon="9.616057908315799"><ele>999.2</ele><time>2026-05-02T10:46:18Z</time></trkpt><trkpt lat="44.63446025971168" lon="9.615949285509714"><ele>999.6</ele><time>2026-05-02T10:46:20Z</time></trkpt><trkpt lat="44.634524103986024" lon="9.615861422146773"><ele>1000.0</ele><time>2026-05-02T10:46:22Z</time></trkpt><trkpt lat="44.6345842786711" lon="9.615756189937635"><ele>999.9999999999999</ele><time>2026-05-02T10:46:24Z</time></trkpt><trkpt lat="44.634657320124326" lon="9.615664461642263"><ele>1000.0</ele><time>2026-05-02T10:46:26Z</time></trkpt><trkpt lat="44.63471211714773" lon="9.615575689426423"><ele>1000.0</ele><time>2026-05-02T10:46:28Z</time></trkpt><trkpt lat="44.63473610109345" lon="9.615473865793117"><ele>1000.0</ele><time>2026-05-02T10:46:29.999Z</time></trkpt><trkpt lat="44.63476030535033" lon="9.61538506616696"><ele>999.9999999999999</ele><time>2026-05-02T10:46:34.999Z</time></trkpt><trkpt lat="44.63479963631163" lon="9.615270238276945"><ele>1000.0</ele><time>2026-05-02T10:46:36.999Z</time></trkpt><trkpt lat="44.634799393172486" lon="9.615178605682958"><ele>1000.6666666666666</ele><time>2026-05-02T10:46:37.999Z</time></trkpt><trkpt lat="44.63479326846655" lon="9.615046240712607"><ele>1001.3333333333333</ele><time>2026-05-02T10:46:38.999Z</time></trkpt><trkpt lat="44.63475632846753" lon="9.6149284160186"><ele>1002.0</ele><time>2026-05-02T10:46:39.999Z</time></trkpt><trkpt lat="44.63470180268555" lon="9.614830073680041"><ele>1002.6666666666667</ele><time>2026-05-02T10:46:40.999Z</time></trkpt><trkpt lat="44.63465234882356" lon="9.614733863009299"><ele>1003.3333333333334</ele><time>2026-05-02T10:46:41.999Z</time></trkpt><trkpt lat="44.634637025515794" lon="9.614635753512195"><ele>1004.0</ele><time>2026-05-02T10:46:42.999Z</time></trkpt><trkpt lat="44.6346191303398" lon="9.614538335321365"><ele>1004.2</ele><time>2026-05-02T10:46:43.999Z</time></trkpt><trkpt lat="44.63460218019112" lon="9.61442329772232"><ele>1004.4000000000001</ele><time>2026-05-02T10:46:44.999Z</time></trkpt><trkpt lat="44.63454632947239" lon="9.61428929794804"><ele>1004.6</ele><time>2026-05-02T10:46:46.999Z</time></trkpt><trkpt lat="44.63447857704573" lon="9.614151085202035"><ele>1004.8</ele><time>2026-05-02T10:46:48.999Z</time></trkpt><trkpt lat="44.634445101306426" lon="9.614062622251422"><ele>1005.0</ele><time>2026-05-02T10:46:51.999Z</time></trkpt><trkpt lat="44.634430227306524" lon="9.613964371451894"><ele>1005.0</ele><time>2026-05-02T10:47:11.999Z</time></trkpt><trkpt lat="44.634407560888995" lon="9.613856558083212"><ele>1005.0</ele><time>2026-05-02T10:47:15.999Z</time></trkpt><trkpt lat="44.63436316888091" lon="9.61375577200938"><ele>1005.0</ele><time>2026-05-02T10:47:17.998Z</time></trkpt><trkpt lat="44.634367786231365" lon="9.613665255706866"><ele>1005.0</ele><time>2026-05-02T10:47:21.998Z</time></trkpt><trkpt lat="44.63439800340603" lon="9.613541992494621"><ele>1005.0</ele><time>2026-05-02T10:47:24.998Z</time></trkpt><trkpt lat="44.63435397391723" lon="9.613335262021065"><ele>1005.6666666666666</ele><time>2026-05-02T10:47:26.998Z</time></trkpt><trkpt lat="44.63431762207893" lon="9.613183279150093"><ele>1006.3333333333333</ele><time>2026-05-02T10:47:27.998Z</time></trkpt><trkpt lat="44.634291288859416" lon="9.613073957688266"><ele>1007.0</ele><time>2026-05-02T10:47:28.998Z</time></trkpt><trkpt lat="44.634228370916716" lon="9.613019736905732"><ele>1007.6666666666666</ele><time>2026-05-02T10:47:29.998Z</time></trkpt><trkpt lat="44.63416786228067" lon="9.612972771535807"><ele>1008.3333333333333</ele><time>2026-05-02T10:47:30.998Z</time></trkpt><trkpt lat="44.63409738431449" lon="9.612868963263939"><ele>1009.0</ele><time>2026-05-02T10:47:32.998Z</time></trkpt><trkpt lat="44.634029941170226" lon="9.612810622611716"><ele>1009.1666666666666</ele><time>2026-05-02T10:47:35.998Z</time></trkpt><trkpt lat="44.63400949911297" lon="9.612654115529939"><ele>1009.3333333333333</ele><time>2026-05-02T10:47:37.998Z</time></trkpt><trkpt lat="44.63402895395109" lon="9.612563941310128"><ele>1009.5</ele><time>2026-05-02T10:47:39.998Z</time></trkpt><trkpt lat="44.633992193153794" lon="9.612440351499922"><ele>1009.6666666666667</ele><time>2026-05-02T10:47:42.998Z</time></trkpt><trkpt lat="44.63397738083414" lon="9.61233840459265"><ele>1009.8333333333334</ele><time>2026-05-02T10:47:44.998Z</time></trkpt><trkpt lat="44.63395135281135" lon="9.612235249825881"><ele>1010.0</ele><time>2026-05-02T10:47:46.998Z</time></trkpt><trkpt lat="44.633930754178664" lon="9.61214335145826"><ele>1008.25</ele><time>2026-05-02T10:47:48.998Z</time></trkpt><trkpt lat="44.6338755594831" lon="9.611924742586645"><ele>1006.5</ele><time>2026-05-02T10:47:50.998Z</time></trkpt><trkpt lat="44.63383797122156" lon="9.611747799707272"><ele>1004.75</ele><time>2026-05-02T10:47:51.998Z</time></trkpt><trkpt lat="44.63380796002499" lon="9.61158588822115"><ele>1003.0</ele><time>2026-05-02T10:47:52.998Z</time></trkpt><trkpt lat="44.633776253325735" lon="9.61142461763743"><ele>1002.9999999999999</ele><time>2026-05-02T10:47:53.998Z</time></trkpt><trkpt lat="44.633739251516964" lon="9.611289345141184"><ele>1003.0</ele><time>2026-05-02T10:47:54.998Z</time></trkpt><trkpt lat="44.633706047023985" lon="9.611179056177475"><ele>1003.0</ele><time>2026-05-02T10:47:55.998Z</time></trkpt><trkpt lat="44.63369041635177" lon="9.611088024649261"><ele>1003.0</ele><time>2026-05-02T10:47:56.998Z</time></trkpt><trkpt lat="44.63368079950657" lon="9.610910404136646"><ele>1002.9999999999999</ele><time>2026-05-02T10:47:59Z</time></trkpt><trkpt lat="44.633638865469166" lon="9.610836292859313"><ele>1003.0</ele><time>2026-05-02T10:48:00Z</time></trkpt><trkpt lat="44.63355441824589" lon="9.610810369403115"><ele>1004.2</ele><time>2026-05-02T10:48:01Z</time></trkpt><trkpt lat="44.63346638222444" lon="9.610797637524522"><ele>1005.4</ele><time>2026-05-02T10:48:02Z</time></trkpt><trkpt lat="44.63340959402116" lon="9.610719488811382"><ele>1006.6000000000001</ele><time>2026-05-02T10:48:04Z</time></trkpt><trkpt lat="44.633331027304926" lon="9.610561416010503"><ele>1007.8000000000001</ele><time>2026-05-02T10:48:06Z</time></trkpt><trkpt lat="44.63329089800448" lon="9.610444933328262"><ele>1009.0</ele><time>2026-05-02T10:48:07Z</time></trkpt><trkpt lat="44.63324750278617" lon="9.61035348462387"><ele>1010.3333333333333</ele><time>2026-05-02T10:48:08Z</time></trkpt><trkpt lat="44.633250956492454" lon="9.61025556341943"><ele>1011.6666666666666</ele><time>2026-05-02T10:48:10Z</time></trkpt><trkpt lat="44.63320596648701" lon="9.61018242652705"><ele>1013.0</ele><time>2026-05-02T10:48:16Z</time></trkpt><trkpt lat="44.633156868647504" lon="9.610072714909828"><ele>1014.3333333333333</ele><time>2026-05-02T10:48:19Z</time></trkpt><trkpt lat="44.63309863031367" lon="9.60999366144979"><ele>1015.6666666666666</ele><time>2026-05-02T10:48:23Z</time></trkpt><trkpt lat="44.63303206382385" lon="9.60992539995125"><ele>1017.0</ele><time>2026-05-02T10:48:25Z</time></trkpt><trkpt lat="44.632975652125076" lon="9.609822725114054"><ele>1017.0</ele><time>2026-05-02T10:48:27Z</time></trkpt><trkpt lat="44.63293490650233" lon="9.6097146383434"><ele>1017.0</ele><time>2026-05-02T10:48:29Z</time></trkpt><trkpt lat="44.632896026723174" lon="9.609622712275122"><ele>1017.0</ele><time>2026-05-02T10:48:31Z</time></trkpt><trkpt lat="44.6326604083654" lon="9.60905048981731"><ele>1015.6666666666666</ele><time>2026-05-02T10:48:33Z</time></trkpt><trkpt lat="44.632615248730225" lon="9.608945994298967"><ele>1014.3333333333333</ele><time>2026-05-02T10:48:34Z</time></trkpt><trkpt lat="44.632581864926465" lon="9.608832377871876"><ele>1013.0</ele><time>2026-05-02T10:48:36Z</time></trkpt><trkpt lat="44.63253879566776" lon="9.608757250135707"><ele>1011.6666666666666</ele><time>2026-05-02T10:48:37.999Z</time></trkpt><trkpt lat="44.6324869612987" lon="9.608658654758827"><ele>1010.3333333333333</ele><time>2026-05-02T10:48:38.999Z</time></trkpt><trkpt lat="44.63245763537583" lon="9.608551842055881"><ele>1009.0</ele><time>2026-05-02T10:48:39.999Z</time></trkpt><trkpt lat="44.63241515524135" lon="9.608404518795204"><ele>1008.8000000000001</ele><time>2026-05-02T10:48:40.999Z</time></trkpt><trkpt lat="44.632389900633186" lon="9.60829175685704"><ele>1008.6000000000001</ele><time>2026-05-02T10:48:41.999Z</time></trkpt><trkpt lat="44.632305041997014" lon="9.608180638539134"><ele>1008.4</ele><time>2026-05-02T10:48:42.999Z</time></trkpt><trkpt lat="44.63222332103432" lon="9.608077563492012"><ele>1008.2</ele><time>2026-05-02T10:48:43.999Z</time></trkpt><trkpt lat="44.63215108659459" lon="9.608016299758471"><ele>1008.0</ele><time>2026-05-02T10:48:44.999Z</time></trkpt><trkpt lat="44.632082315621254" lon="9.607966548656638"><ele>1008.0</ele><time>2026-05-02T10:48:45.999Z</time></trkpt><trkpt lat="44.632003933680096" lon="9.607887685530793"><ele>1008.0</ele><time>2026-05-02T10:48:46.999Z</time></trkpt><trkpt lat="44.63190100783273" lon="9.607820000306935"><ele>1008.0</ele><time>2026-05-02T10:48:47.999Z</time></trkpt><trkpt lat="44.63185203122686" lon="9.607722161671155"><ele>1008.0</ele><time>2026-05-02T10:48:48.999Z</time></trkpt><trkpt lat="44.631828603983855" lon="9.607639027442596"><ele>1008.0</ele><time>2026-05-02T10:48:49.999Z</time></trkpt><trkpt lat="44.63176418951506" lon="9.607579244113552"><ele>1008.0</ele><time>2026-05-02T10:48:50.999Z</time></trkpt><trkpt lat="44.631706940540916" lon="9.607537715952875"><ele>1009.0</ele><time>2026-05-02T10:48:51.999Z</time></trkpt><trkpt lat="44.63164205966278" lon="9.607379906995831"><ele>1010.0</ele><time>2026-05-02T10:48:53.999Z</time></trkpt><trkpt lat="44.6315880520173" lon="9.60720133729226"><ele>1011.0</ele><time>2026-05-02T10:48:54.999Z</time></trkpt><trkpt lat="44.63154321719704" lon="9.607033142884218"><ele>1012.0</ele><time>2026-05-02T10:48:55.999Z</time></trkpt><trkpt lat="44.63152640161963" lon="9.606900333328712"><ele>1012.3333333333333</ele><time>2026-05-02T10:48:56.999Z</time></trkpt><trkpt lat="44.63153160261532" lon="9.606801390424865"><ele>1012.6666666666666</ele><time>2026-05-02T10:48:57.999Z</time></trkpt><trkpt lat="44.63156104580277" lon="9.60669588806345"><ele>1013.0</ele><time>2026-05-02T10:48:58.999Z</time></trkpt><trkpt lat="44.63160894729343" lon="9.606602817997638"><ele>1013.3333333333333</ele><time>2026-05-02T10:48:59.999Z</time></trkpt><trkpt lat="44.631589374860546" lon="9.606495522678868"><ele>1013.6666666666666</ele><time>2026-05-02T10:49:01.999Z</time></trkpt><trkpt lat="44.63153319132016" lon="9.606452004526721"><ele>1014.0</ele><time>2026-05-02T10:49:02.999Z</time></trkpt><trkpt lat="44.63145939516566" lon="9.606417899697876"><ele>1014.0</ele><time>2026-05-02T10:49:03.999Z</time></trkpt><trkpt lat="44.63135971014459" lon="9.606381270039645"><ele>1014.0000000000001</ele><time>2026-05-02T10:49:04.999Z</time></trkpt><trkpt lat="44.631272272874625" lon="9.60635943343986"><ele>1014.0000000000001</ele><time>2026-05-02T10:49:05.999Z</time></trkpt><trkpt lat="44.631188268153124" lon="9.606260221455322"><ele>1014.0</ele><time>2026-05-02T10:49:07.999Z</time></trkpt><trkpt lat="44.631113303694676" lon="9.606148606386132"><ele>1014.0</ele><time>2026-05-02T10:49:09.999Z</time></trkpt><trkpt lat="44.63108585620294" lon="9.605996409863888"><ele>1014.6666666666666</ele><time>2026-05-02T10:49:11.999Z</time></trkpt><trkpt lat="44.63106588913285" lon="9.605882729738793"><ele>1015.3333333333333</ele><time>2026-05-02T10:49:12.999Z</time></trkpt><trkpt lat="44.63103322453291" lon="9.605751462555343"><ele>1016.0</ele><time>2026-05-02T10:49:13.999Z</time></trkpt><trkpt lat="44.630994967135585" lon="9.605636086160372"><ele>1016.6666666666666</ele><time>2026-05-02T10:49:14.999Z</time></trkpt><trkpt lat="44.63095397023309" lon="9.605533650346459"><ele>1017.3333333333333</ele><time>2026-05-02T10:49:15.999Z</time></trkpt><trkpt lat="44.63091216658346" lon="9.605430057739676"><ele>1018.0</ele><time>2026-05-02T10:49:16.999Z</time></trkpt><trkpt lat="44.63089171179035" lon="9.605314141725295"><ele>1017.9999999999999</ele><time>2026-05-02T10:49:17.999Z</time></trkpt><trkpt lat="44.63088124156145" lon="9.605221192081315"><ele>1018.0</ele><time>2026-05-02T10:49:18.999Z</time></trkpt><trkpt lat="44.630858740952924" lon="9.605099481765038"><ele>1018.0</ele><time>2026-05-02T10:49:20.999Z</time></trkpt><trkpt lat="44.630815576970036" lon="9.605002645615842"><ele>1018.0</ele><time>2026-05-02T10:49:22.999Z</time></trkpt><trkpt lat="44.63076766887577" lon="9.604891085752033"><ele>1017.9999999999999</ele><time>2026-05-02T10:49:24.999Z</time></trkpt><trkpt lat="44.6306890756412" lon="9.604809840586215"><ele>1018.0</ele><time>2026-05-02T10:49:26.998Z</time></trkpt><trkpt lat="44.630633626998836" lon="9.604711140759045"><ele>1018.0</ele><time>2026-05-02T10:49:27.998Z</time></trkpt><trkpt lat="44.63058798794282" lon="9.604610628396312"><ele>1018.0</ele><time>2026-05-02T10:49:28.998Z</time></trkpt><trkpt lat="44.630548902244094" lon="9.604533146222789"><ele>1018.0</ele><time>2026-05-02T10:49:29.998Z</time></trkpt><trkpt lat="44.630492773481386" lon="9.604397744937605"><ele>1018.0</ele><time>2026-05-02T10:49:31.998Z</time></trkpt><trkpt lat="44.63041853388115" lon="9.604265237225084"><ele>1018.0</ele><time>2026-05-02T10:49:33.998Z</time></trkpt><trkpt lat="44.63036643743105" lon="9.604195794984008"><ele>1017.4999999999999</ele><time>2026-05-02T10:49:34.998Z</time></trkpt><trkpt lat="44.63028138345807" lon="9.604108231139971"><ele>1017.0</ele><time>2026-05-02T10:49:35.998Z</time></trkpt><trkpt lat="44.63020651543617" lon="9.604049917647519"><ele>1016.5</ele><time>2026-05-02T10:49:36.998Z</time></trkpt><trkpt lat="44.630138943822935" lon="9.604009691493534"><ele>1016.0</ele><time>2026-05-02T10:49:37.998Z</time></trkpt><trkpt lat="44.63006406258625" lon="9.603972423024011"><ele>1015.4999999999999</ele><time>2026-05-02T10:49:38.998Z</time></trkpt><trkpt lat="44.629987634720756" lon="9.603951211653175"><ele>1015.0</ele><time>2026-05-02T10:49:39.998Z</time></trkpt><trkpt lat="44.62990275649827" lon="9.603949126133587"><ele>1014.9999999999999</ele><time>2026-05-02T10:49:40.998Z</time></trkpt><trkpt lat="44.62982914718625" lon="9.603939057448766"><ele>1015.0</ele><time>2026-05-02T10:49:41.998Z</time></trkpt><trkpt lat="44.62972520787428" lon="9.603872757146455"><ele>1015.0</ele><time>2026-05-02T10:49:43.998Z</time></trkpt><trkpt lat="44.62963999572409" lon="9.603838159524114"><ele>1015.0</ele><time>2026-05-02T10:49:46.998Z</time></trkpt><trkpt lat="44.62958270673762" lon="9.603770066907153"><ele>1014.9999999999999</ele><time>2026-05-02T10:49:48.998Z</time></trkpt><trkpt lat="44.62952033665299" lon="9.603666521095205"><ele>1015.0</ele><time>2026-05-02T10:49:50.998Z</time></trkpt><trkpt lat="44.62945494293437" lon="9.603524313499618"><ele>1013.1428571428571</ele><time>2026-05-02T10:49:52.998Z</time></trkpt><trkpt lat="44.62941558513169" lon="9.60344648938373"><ele>1011.2857142857142</ele><time>2026-05-02T10:49:53.998Z</time></trkpt><trkpt lat="44.62938103436303" lon="9.603370736341653"><ele>1009.4285714285714</ele><time>2026-05-02T10:49:54.998Z</time></trkpt><trkpt lat="44.6293317746251" lon="9.603308552026201"><ele>1007.5714285714286</ele><time>2026-05-02T10:49:55.998Z</time></trkpt><trkpt lat="44.62926785892813" lon="9.603286037599208"><ele>1005.7142857142857</ele><time>2026-05-02T10:49:56.998Z</time></trkpt><trkpt lat="44.62919464983672" lon="9.603293446894595"><ele>1003.8571428571429</ele><time>2026-05-02T10:49:57.998Z</time></trkpt><trkpt lat="44.62912295354977" lon="9.603307125898382"><ele>1002.0</ele><time>2026-05-02T10:49:58.998Z</time></trkpt><trkpt lat="44.62902202784899" lon="9.603288305529153"><ele>1002.0</ele><time>2026-05-02T10:50:00.998Z</time></trkpt><trkpt lat="44.6289566936869" lon="9.603253984783578"><ele>1002.0</ele><time>2026-05-02T10:50:01.998Z</time></trkpt><trkpt lat="44.628902031145685" lon="9.603196453410007"><ele>1002.0</ele><time>2026-05-02T10:50:02.998Z</time></trkpt><trkpt lat="44.62884592639546" lon="9.603117010106175"><ele>1002.0</ele><time>2026-05-02T10:50:03.998Z</time></trkpt><trkpt lat="44.628795309983815" lon="9.603010731040072"><ele>1002.0</ele><time>2026-05-02T10:50:05Z</time></trkpt><trkpt lat="44.628756349502055" lon="9.60291180259785"><ele>1002.0</ele><time>2026-05-02T10:50:06Z</time></trkpt><trkpt lat="44.62869334250842" lon="9.602778073782643"><ele>1000.2</ele><time>2026-05-02T10:50:08Z</time></trkpt><trkpt lat="44.628611715688734" lon="9.60267918968865"><ele>998.4000000000001</ele><time>2026-05-02T10:50:10Z</time></trkpt><trkpt lat="44.628602581612185" lon="9.60258824660928"><ele>996.5999999999999</ele><time>2026-05-02T10:50:12Z</time></trkpt><trkpt lat="44.62867919665724" lon="9.602580661520724"><ele>994.8</ele><time>2026-05-02T10:50:16Z</time></trkpt><trkpt lat="44.62875936864149" lon="9.602516489152205"><ele>993.0</ele><time>2026-05-02T10:50:41.999Z</time></trkpt><trkpt lat="44.62885520923459" lon="9.602433394343867"><ele>992.8</ele><time>2026-05-02T10:50:43.999Z</time></trkpt><trkpt lat="44.62896255482463" lon="9.602373664300728"><ele>992.5999999999999</ele><time>2026-05-02T10:50:45.999Z</time></trkpt><trkpt lat="44.62905009196105" lon="9.60233170624278"><ele>992.4000000000001</ele><time>2026-05-02T10:50:47.999Z</time></trkpt><trkpt lat="44.62915132358164" lon="9.602339530009571"><ele>992.2</ele><time>2026-05-02T10:50:49.999Z</time></trkpt><trkpt lat="44.629219868912195" lon="9.602277521726453"><ele>992.0</ele><time>2026-05-02T10:50:51.999Z</time></trkpt><trkpt lat="44.62929047383353" lon="9.602220908909302"><ele>992.0000000000001</ele><time>2026-05-02T10:50:53.999Z</time></trkpt><trkpt lat="44.629361607681524" lon="9.602186487616198"><ele>992.0</ele><time>2026-05-02T10:50:55.999Z</time></trkpt><trkpt lat="44.62941880781526" lon="9.602123118638145"><ele>992.0</ele><time>2026-05-02T10:50:57.999Z</time></trkpt><trkpt lat="44.62950907530972" lon="9.602095012008169"><ele>992.0</ele><time>2026-05-02T10:50:59.999Z</time></trkpt><trkpt lat="44.62960531878161" lon="9.602093061936587"><ele>992.0000000000001</ele><time>2026-05-02T10:51:01.999Z</time></trkpt><trkpt lat="44.62968723573041" lon="9.60208634245213"><ele>992.0</ele><time>2026-05-02T10:51:03.999Z</time></trkpt><trkpt lat="44.6297585802476" lon="9.601983998761872"><ele>990.8333333333334</ele><time>2026-05-02T10:51:12.999Z</time></trkpt><trkpt lat="44.62980746308843" lon="9.601908947988086"><ele>989.6666666666667</ele><time>2026-05-02T10:51:14.999Z</time></trkpt><trkpt lat="44.629884994901694" lon="9.601909029678547"><ele>988.5</ele><time>2026-05-02T10:51:16.999Z</time></trkpt><trkpt lat="44.629948653073036" lon="9.601927466257512"><ele>987.3333333333333</ele><time>2026-05-02T10:51:17.999Z</time></trkpt><trkpt lat="44.630039518297025" lon="9.60194846826706"><ele>986.1666666666666</ele><time>2026-05-02T10:51:19.999Z</time></trkpt><trkpt lat="44.63016191775828" lon="9.601995907083284"><ele>985.0</ele><time>2026-05-02T10:51:21.999Z</time></trkpt><trkpt lat="44.630233561025975" lon="9.602032497999193"><ele>984.9999999999999</ele><time>2026-05-02T10:51:22.999Z</time></trkpt><trkpt lat="44.630293231691915" lon="9.602064981632452"><ele>985.0</ele><time>2026-05-02T10:51:23.999Z</time></trkpt><trkpt lat="44.63037906497962" lon="9.602097085875169"><ele>985.0</ele><time>2026-05-02T10:51:25.999Z</time></trkpt><trkpt lat="44.63046723779101" lon="9.602112301573502"><ele>985.0</ele><time>2026-05-02T10:51:27.999Z</time></trkpt><trkpt lat="44.6305223918203" lon="9.602037984076254"><ele>984.9999999999999</ele><time>2026-05-02T10:51:29.998Z</time></trkpt><trkpt lat="44.63057030479474" lon="9.601942827052357"><ele>985.0</ele><time>2026-05-02T10:51:31.998Z</time></trkpt><trkpt lat="44.63060972484422" lon="9.60184774074994"><ele>983.3333333333333</ele><time>2026-05-02T10:51:33.998Z</time></trkpt><trkpt lat="44.630680924653596" lon="9.601732995134086"><ele>981.6666666666666</ele><time>2026-05-02T10:51:35.998Z</time></trkpt><trkpt lat="44.630737828112494" lon="9.60162264498309"><ele>980.0</ele><time>2026-05-02T10:51:37.998Z</time></trkpt><trkpt lat="44.63074665109106" lon="9.601499686255222"><ele>978.3333333333333</ele><time>2026-05-02T10:51:40.998Z</time></trkpt><trkpt lat="44.63076583395394" lon="9.60140212999584"><ele>976.6666666666666</ele><time>2026-05-02T10:51:44.998Z</time></trkpt><trkpt lat="44.63077326876034" lon="9.601311339965248"><ele>975.0</ele><time>2026-05-02T10:51:46.998Z</time></trkpt><trkpt lat="44.63075128634669" lon="9.60122780676832"><ele>973.7142857142857</ele><time>2026-05-02T10:51:50.998Z</time></trkpt><trkpt lat="44.63074681147995" lon="9.601128096889534"><ele>972.4285714285713</ele><time>2026-05-02T10:52:28Z</time></trkpt><trkpt lat="44.630779324921996" lon="9.601037628004464"><ele>971.1428571428571</ele><time>2026-05-02T10:52:33Z</time></trkpt><trkpt lat="44.63083124232084" lon="9.600968111695344"><ele>969.8571428571429</ele><time>2026-05-02T10:52:42Z</time></trkpt><trkpt lat="44.63085005270774" lon="9.600865632633166"><ele>968.5714285714286</ele><time>2026-05-02T10:52:49.999Z</time></trkpt><trkpt lat="44.63085623794645" lon="9.600776173390022"><ele>967.2857142857142</ele><time>2026-05-02T10:52:53.999Z</time></trkpt><trkpt lat="44.63085164209104" lon="9.600678148643468"><ele>966.0</ele><time>2026-05-02T10:52:57.999Z</time></trkpt><trkpt lat="44.63085049537407" lon="9.60057518483358"><ele>966.0</ele><time>2026-05-02T10:53:02.999Z</time></trkpt><trkpt lat="44.63083849390458" lon="9.600486479607587"><ele>966.0</ele><time>2026-05-02T10:53:21.999Z</time></trkpt><trkpt lat="44.630821512319514" lon="9.600397306160856"><ele>966.0</ele><time>2026-05-02T10:53:23.999Z</time></trkpt><trkpt lat="44.630755995001635" lon="9.600339611808467"><ele>966.0</ele><time>2026-05-02T10:53:28.999Z</time></trkpt><trkpt lat="44.630680685152086" lon="9.60031608765873"><ele>966.0</ele><time>2026-05-02T10:53:39.998Z</time></trkpt><trkpt lat="44.63062260286541" lon="9.600257489826513"><ele>966.0</ele><time>2026-05-02T10:53:42.998Z</time></trkpt><trkpt lat="44.63066250627516" lon="9.600132804031784"><ele>964.5999999999999</ele><time>2026-05-02T10:53:45.998Z</time></trkpt><trkpt lat="44.63068253681955" lon="9.599979317364799"><ele>963.1999999999999</ele><time>2026-05-02T10:54:08.998Z</time></trkpt><trkpt lat="44.63072906959303" lon="9.599859050172123"><ele>961.8000000000001</ele><time>2026-05-02T10:54:10.998Z</time></trkpt><trkpt lat="44.6307900007598" lon="9.599730414467805"><ele>960.4000000000001</ele><time>2026-05-02T10:54:12.998Z</time></trkpt><trkpt lat="44.63084832860373" lon="9.599622262636183"><ele>959.0</ele><time>2026-05-02T10:54:14.998Z</time></trkpt><trkpt lat="44.63086299290977" lon="9.599506251029702"><ele>958.1428571428571</ele><time>2026-05-02T10:54:18Z</time></trkpt><trkpt lat="44.630875708375044" lon="9.599410896668083"><ele>957.2857142857142</ele><time>2026-05-02T10:54:21Z</time></trkpt><trkpt lat="44.63087536800029" lon="9.599308216441425"><ele>956.4285714285714</ele><time>2026-05-02T10:54:24Z</time></trkpt><trkpt lat="44.630887633104514" lon="9.599212867656705"><ele>955.5714285714286</ele><time>2026-05-02T10:54:27Z</time></trkpt><trkpt lat="44.63093421657815" lon="9.599152161096608"><ele>954.7142857142857</ele><time>2026-05-02T10:54:29Z</time></trkpt><trkpt lat="44.631001568275394" lon="9.59910630999231"><ele>953.8571428571429</ele><time>2026-05-02T10:54:32Z</time></trkpt><trkpt lat="44.631012493572065" lon="9.59899836874094"><ele>953.0</ele><time>2026-05-02T10:54:34Z</time></trkpt><trkpt lat="44.630988761313056" lon="9.598902254575282"><ele>953.0</ele><time>2026-05-02T10:54:36Z</time></trkpt><trkpt lat="44.63101244050263" lon="9.598756869259546"><ele>953.0</ele><time>2026-05-02T10:54:39Z</time></trkpt><trkpt lat="44.6309859918076" lon="9.598613519308508"><ele>953.0</ele><time>2026-05-02T10:54:41Z</time></trkpt><trkpt lat="44.630971895350925" lon="9.598478812246018"><ele>953.0</ele><time>2026-05-02T10:54:43Z</time></trkpt><trkpt lat="44.630969581037554" lon="9.59834533771364"><ele>953.0</ele><time>2026-05-02T10:54:46Z</time></trkpt><trkpt lat="44.630982182694105" lon="9.598216534850192"><ele>951.8333333333334</ele><time>2026-05-02T10:54:50Z</time></trkpt><trkpt lat="44.63097648989256" lon="9.598112935521563"><ele>950.6666666666667</ele><time>2026-05-02T10:54:52.999Z</time></trkpt><trkpt lat="44.63100898907771" lon="9.5979735720746"><ele>949.5</ele><time>2026-05-02T10:54:57.999Z</time></trkpt><trkpt lat="44.631046443670485" lon="9.597860411223275"><ele>948.3333333333333</ele><time>2026-05-02T10:54:59.999Z</time></trkpt><trkpt lat="44.631088507179854" lon="9.59777322486473"><ele>947.1666666666666</ele><time>2026-05-02T10:55:01.999Z</time></trkpt><trkpt lat="44.63115154869194" lon="9.597715485058924"><ele>946.0</ele><time>2026-05-02T10:55:03.999Z</time></trkpt><trkpt lat="44.63118987108613" lon="9.597597646400414"><ele>943.4999999999999</ele><time>2026-05-02T10:55:07.999Z</time></trkpt><trkpt lat="44.6312124170608" lon="9.597487995169272"><ele>941.0</ele><time>2026-05-02T10:55:11.999Z</time></trkpt><trkpt lat="44.6312465481539" lon="9.597406762594101"><ele>938.5</ele><time>2026-05-02T10:55:16.999Z</time></trkpt><trkpt lat="44.631218445372944" lon="9.597325017346371"><ele>936.0</ele><time>2026-05-02T10:55:19.999Z</time></trkpt><trkpt lat="44.63123038080337" lon="9.597234422314342"><ele>933.4999999999999</ele><time>2026-05-02T10:55:25.999Z</time></trkpt><trkpt lat="44.63127400952345" lon="9.59710598242239"><ele>931.0</ele><time>2026-05-02T10:55:28.999Z</time></trkpt><trkpt lat="44.63132745595372" lon="9.597029225856216"><ele>930.0</ele><time>2026-05-02T10:55:30.999Z</time></trkpt><trkpt lat="44.631417575490865" lon="9.596944258241908"><ele>928.9999999999999</ele><time>2026-05-02T10:55:32.999Z</time></trkpt><trkpt lat="44.631489622563684" lon="9.596809693520997"><ele>927.9999999999999</ele><time>2026-05-02T10:55:34.999Z</time></trkpt><trkpt lat="44.63152539801857" lon="9.596695234351978"><ele>927.0</ele><time>2026-05-02T10:55:36.999Z</time></trkpt><trkpt lat="44.63156831941812" lon="9.596617444456097"><ele>926.0</ele><time>2026-05-02T10:55:39.999Z</time></trkpt><trkpt lat="44.63160729372164" lon="9.596514699518401"><ele>926.0</ele><time>2026-05-02T10:56:18.998Z</time></trkpt><trkpt lat="44.63164383618565" lon="9.596400999609077"><ele>925.9999999999999</ele><time>2026-05-02T10:56:21.998Z</time></trkpt><trkpt lat="44.63165481736204" lon="9.59630196848263"><ele>925.9999999999999</ele><time>2026-05-02T10:56:34Z</time></trkpt><trkpt lat="44.63171612695905" lon="9.59617042928645"><ele>926.0</ele><time>2026-05-02T10:56:37Z</time></trkpt><trkpt lat="44.63177938918765" lon="9.596095907154785"><ele>926.0</ele><time>2026-05-02T10:56:39Z</time></trkpt><trkpt lat="44.631901502266906" lon="9.5960229101682"><ele>926.8</ele><time>2026-05-02T10:56:41Z</time></trkpt><trkpt lat="44.63194480815125" lon="9.59595128420458"><ele>927.5999999999999</ele><time>2026-05-02T10:56:42Z</time></trkpt><trkpt lat="44.63197717482067" lon="9.595848563796384"><ele>928.4</ele><time>2026-05-02T10:56:44Z</time></trkpt><trkpt lat="44.63205281825387" lon="9.595764542378342"><ele>929.2</ele><time>2026-05-02T10:56:47Z</time></trkpt><trkpt lat="44.632116577524" lon="9.595674284426094"><ele>930.0</ele><time>2026-05-02T10:56:50Z</time></trkpt><trkpt lat="44.63224596927561" lon="9.595590041859015"><ele>928.4</ele><time>2026-05-02T10:56:52Z</time></trkpt><trkpt lat="44.63232968442772" lon="9.595555092976726"><ele>926.8</ele><time>2026-05-02T10:56:53Z</time></trkpt><trkpt lat="44.63240154140271" lon="9.5955127456205"><ele>925.2</ele><time>2026-05-02T10:56:54Z</time></trkpt><trkpt lat="44.63247328681913" lon="9.59541246883098"><ele>923.6</ele><time>2026-05-02T10:56:56Z</time></trkpt><trkpt lat="44.63251651142042" lon="9.595298385078292"><ele>922.0</ele><time>2026-05-02T10:56:57.999Z</time></trkpt><trkpt lat="44.63259158199331" lon="9.595186856728509"><ele>921.9999999999999</ele><time>2026-05-02T10:56:59.999Z</time></trkpt><trkpt lat="44.63268520926015" lon="9.595095975421735"><ele>922.0</ele><time>2026-05-02T10:57:01.999Z</time></trkpt><trkpt lat="44.63276813483704" lon="9.595021996326532"><ele>922.0</ele><time>2026-05-02T10:57:03.999Z</time></trkpt><trkpt lat="44.63282570428977" lon="9.594983512556215"><ele>922.0</ele><time>2026-05-02T10:57:04.999Z</time></trkpt><trkpt lat="44.63289243675582" lon="9.594947311085244"><ele>921.9999999999999</ele><time>2026-05-02T10:57:05.999Z</time></trkpt><trkpt lat="44.632965268060964" lon="9.594913762729798"><ele>922.0</ele><time>2026-05-02T10:57:06.999Z</time></trkpt><trkpt lat="44.633033032033566" lon="9.594880280557893"><ele>921.4000000000001</ele><time>2026-05-02T10:57:07.999Z</time></trkpt><trkpt lat="44.633148707766736" lon="9.594838306118454"><ele>920.8000000000001</ele><time>2026-05-02T10:57:09.999Z</time></trkpt><trkpt lat="44.63325874235596" lon="9.594811503320434"><ele>920.2</ele><time>2026-05-02T10:57:11.999Z</time></trkpt><trkpt lat="44.63336579540343" lon="9.594824939974034"><ele>919.6</ele><time>2026-05-02T10:57:13.999Z</time></trkpt><trkpt lat="44.63345804563659" lon="9.594803769807712"><ele>919.0</ele><time>2026-05-02T10:57:15.999Z</time></trkpt><trkpt lat="44.633536608199165" lon="9.594757236778534"><ele>919.0</ele><time>2026-05-02T10:57:17.999Z</time></trkpt><trkpt lat="44.63357063023493" lon="9.594652883408994"><ele>919.0000000000001</ele><time>2026-05-02T10:57:19.999Z</time></trkpt><trkpt lat="44.63361214732868" lon="9.59450727472439"><ele>919.0000000000001</ele><time>2026-05-02T10:57:21.999Z</time></trkpt><trkpt lat="44.633665992155116" lon="9.594339339416901"><ele>919.0</ele><time>2026-05-02T10:57:23.999Z</time></trkpt><trkpt lat="44.6336945169632" lon="9.594249878583343"><ele>919.0</ele><time>2026-05-02T10:57:24.999Z</time></trkpt><trkpt lat="44.633719414958016" lon="9.594152008086647"><ele>918.9999999999999</ele><time>2026-05-02T10:57:25.999Z</time></trkpt><trkpt lat="44.63375783370008" lon="9.594059371350014"><ele>919.0</ele><time>2026-05-02T10:57:26.999Z</time></trkpt><trkpt lat="44.63382143695068" lon="9.5939660000002"><ele>919.0</ele><time>2026-05-02T10:57:27.999Z</time></trkpt><trkpt lat="44.63389242886955" lon="9.593876115642786"><ele>919.0</ele><time>2026-05-02T10:57:28.999Z</time></trkpt><trkpt lat="44.63396681760676" lon="9.593799536586033"><ele>918.9999999999999</ele><time>2026-05-02T10:57:29.999Z</time></trkpt><trkpt lat="44.6340373693595" lon="9.593732841857129"><ele>919.0</ele><time>2026-05-02T10:57:30.999Z</time></trkpt><trkpt lat="44.63409536566253" lon="9.59366889176065"><ele>918.9999999999999</ele><time>2026-05-02T10:57:31.999Z</time></trkpt><trkpt lat="44.63415187350091" lon="9.59358589347588"><ele>919.0</ele><time>2026-05-02T10:57:32.999Z</time></trkpt><trkpt lat="44.634210318879376" lon="9.593498070716898"><ele>919.0</ele><time>2026-05-02T10:57:33.999Z</time></trkpt><trkpt lat="44.6342696123708" lon="9.593410350292425"><ele>919.0</ele><time>2026-05-02T10:57:34.999Z</time></trkpt><trkpt lat="44.63432365769478" lon="9.59332935193425"><ele>918.9999999999999</ele><time>2026-05-02T10:57:35.999Z</time></trkpt><trkpt lat="44.634406699320856" lon="9.593234091719076"><ele>919.0</ele><time>2026-05-02T10:57:37.999Z</time></trkpt><trkpt lat="44.634509073822485" lon="9.593167961671243"><ele>916.8000000000001</ele><time>2026-05-02T10:57:39.999Z</time></trkpt><trkpt lat="44.63456920530718" lon="9.593136732204197"><ele>914.6000000000001</ele><time>2026-05-02T10:57:40.999Z</time></trkpt><trkpt lat="44.63468361232643" lon="9.593078715795324"><ele>912.4</ele><time>2026-05-02T10:57:42.999Z</time></trkpt><trkpt lat="44.63477299048858" lon="9.593002181365822"><ele>910.2</ele><time>2026-05-02T10:57:44.999Z</time></trkpt><trkpt lat="44.634849180465864" lon="9.592888293554694"><ele>908.0</ele><time>2026-05-02T10:57:46.998Z</time></trkpt><trkpt lat="44.634878103858654" lon="9.592746311849169"><ele>906.8</ele><time>2026-05-02T10:57:48.998Z</time></trkpt><trkpt lat="44.634898864101814" lon="9.592621864200542"><ele>905.5999999999999</ele><time>2026-05-02T10:57:50.998Z</time></trkpt><trkpt lat="44.63492729138285" lon="9.592526983074722"><ele>904.4000000000001</ele><time>2026-05-02T10:57:52.998Z</time></trkpt><trkpt lat="44.63499970875034" lon="9.592400739527854"><ele>903.2</ele><time>2026-05-02T10:57:54.998Z</time></trkpt><trkpt lat="44.63504019767907" lon="9.592326263012742"><ele>902.0</ele><time>2026-05-02T10:57:55.998Z</time></trkpt><trkpt lat="44.635068299905186" lon="9.59215926378467"><ele>902.0000000000001</ele><time>2026-05-02T10:57:57.998Z</time></trkpt><trkpt lat="44.63506614760721" lon="9.592008371416043"><ele>902.0</ele><time>2026-05-02T10:57:59.998Z</time></trkpt><trkpt lat="44.63513275369558" lon="9.591918045718527"><ele>902.0</ele><time>2026-05-02T10:58:01.998Z</time></trkpt><trkpt lat="44.63523243989318" lon="9.59190489889678"><ele>902.0</ele><time>2026-05-02T10:58:03.998Z</time></trkpt><trkpt lat="44.63529992243755" lon="9.591879754849158"><ele>902.0000000000001</ele><time>2026-05-02T10:58:04.998Z</time></trkpt><trkpt lat="44.63537234434476" lon="9.591838212603363"><ele>902.0</ele><time>2026-05-02T10:58:05.998Z</time></trkpt><trkpt lat="44.635436184705085" lon="9.59181074603973"><ele>899.8</ele><time>2026-05-02T10:58:06.998Z</time></trkpt><trkpt lat="44.635545929608575" lon="9.591858616755923"><ele>897.6</ele><time>2026-05-02T10:58:08.998Z</time></trkpt><trkpt lat="44.635636745274724" lon="9.591919851649841"><ele>895.3999999999999</ele><time>2026-05-02T10:58:10.998Z</time></trkpt><trkpt lat="44.6357317165167" lon="9.591911860111871"><ele>893.1999999999999</ele><time>2026-05-02T10:58:12.998Z</time></trkpt><trkpt lat="44.635781167829954" lon="9.591781604327847"><ele>891.0</ele><time>2026-05-02T10:58:14.998Z</time></trkpt><trkpt lat="44.635769736838455" lon="9.591688101930174"><ele>891.0</ele><time>2026-05-02T10:58:15.998Z</time></trkpt><trkpt lat="44.635747027323944" lon="9.591545718729675"><ele>890.9999999999999</ele><time>2026-05-02T10:58:17.998Z</time></trkpt><trkpt lat="44.635729721311336" lon="9.591381319579655"><ele>890.9999999999999</ele><time>2026-05-02T10:58:19.998Z</time></trkpt><trkpt lat="44.63572087714738" lon="9.591207995960694"><ele>891.0</ele><time>2026-05-02T10:58:21.998Z</time></trkpt><trkpt lat="44.63573050732965" lon="9.591108831804327"><ele>891.0</ele><time>2026-05-02T10:58:22.998Z</time></trkpt><trkpt lat="44.635755015815704" lon="9.591016577925393"><ele>889.5714285714287</ele><time>2026-05-02T10:58:23.998Z</time></trkpt><trkpt lat="44.635781523446354" lon="9.590920499541765"><ele>888.1428571428571</ele><time>2026-05-02T10:58:24.998Z</time></trkpt><trkpt lat="44.63579902417564" lon="9.590821866405028"><ele>886.7142857142858</ele><time>2026-05-02T10:58:25.998Z</time></trkpt><trkpt lat="44.63580814598155" lon="9.590727446034666"><ele>885.2857142857143</ele><time>2026-05-02T10:58:26.998Z</time></trkpt><trkpt lat="44.63581616643328" lon="9.590634186572611"><ele>883.8571428571429</ele><time>2026-05-02T10:58:27.998Z</time></trkpt><trkpt lat="44.63582589722264" lon="9.59054016835596"><ele>882.4285714285714</ele><time>2026-05-02T10:58:29Z</time></trkpt><trkpt lat="44.63584177048818" lon="9.590451106301694"><ele>881.0</ele><time>2026-05-02T10:58:30Z</time></trkpt><trkpt lat="44.635858211493556" lon="9.590361714087555"><ele>879.6666666666667</ele><time>2026-05-02T10:58:31Z</time></trkpt><trkpt lat="44.635877401898924" lon="9.590275080262598"><ele>878.3333333333334</ele><time>2026-05-02T10:58:32Z</time></trkpt><trkpt lat="44.635887833297765" lon="9.590186428863385"><ele>877.0</ele><time>2026-05-02T10:58:33Z</time></trkpt><trkpt lat="44.6358876714332" lon="9.590097642388615"><ele>875.6666666666667</ele><time>2026-05-02T10:58:34Z</time></trkpt><trkpt lat="44.63586443035479" lon="9.589919052577905"><ele>874.3333333333334</ele><time>2026-05-02T10:58:36Z</time></trkpt><trkpt lat="44.63584751162148" lon="9.589819050297747"><ele>873.0</ele><time>2026-05-02T10:58:37Z</time></trkpt><trkpt lat="44.63582098859199" lon="9.589696022411308"><ele>873.0</ele><time>2026-05-02T10:58:38Z</time></trkpt><trkpt lat="44.63579190215867" lon="9.589567482035429"><ele>873.0</ele><time>2026-05-02T10:58:39Z</time></trkpt><trkpt lat="44.63576829224451" lon="9.58945720253344"><ele>873.0</ele><time>2026-05-02T10:58:40Z</time></trkpt><trkpt lat="44.635743065729905" lon="9.589361065875142"><ele>873.0</ele><time>2026-05-02T10:58:41Z</time></trkpt><trkpt lat="44.63572233285608" lon="9.589273852188379"><ele>873.0</ele><time>2026-05-02T10:58:42Z</time></trkpt><trkpt lat="44.635717547662175" lon="9.589107713558734"><ele>873.0</ele><time>2026-05-02T10:58:44Z</time></trkpt><trkpt lat="44.63577707390873" lon="9.588938070316972"><ele>872.6666666666666</ele><time>2026-05-02T10:58:46Z</time></trkpt><trkpt lat="44.635825864280605" lon="9.588857419537767"><ele>872.3333333333333</ele><time>2026-05-02T10:58:47Z</time></trkpt><trkpt lat="44.6358758604687" lon="9.588785037718777"><ele>872.0</ele><time>2026-05-02T10:58:48Z</time></trkpt><trkpt lat="44.63592659894567" lon="9.588696357702167"><ele>871.6666666666666</ele><time>2026-05-02T10:58:49Z</time></trkpt><trkpt lat="44.63597353089758" lon="9.588602277395008"><ele>871.3333333333333</ele><time>2026-05-02T10:58:50Z</time></trkpt><trkpt lat="44.63602361203767" lon="9.588505170967714"><ele>871.0</ele><time>2026-05-02T10:58:51Z</time></trkpt><trkpt lat="44.63608043864641" lon="9.58841330649658"><ele>870.4</ele><time>2026-05-02T10:58:52Z</time></trkpt><trkpt lat="44.63614524868034" lon="9.588330848271454"><ele>869.8</ele><time>2026-05-02T10:58:53Z</time></trkpt><trkpt lat="44.63619689211539" lon="9.588277265042905"><ele>869.1999999999999</ele><time>2026-05-02T10:58:54Z</time></trkpt><trkpt lat="44.63627863241034" lon="9.588210756083619"><ele>868.5999999999999</ele><time>2026-05-02T10:58:56Z</time></trkpt><trkpt lat="44.636360138866735" lon="9.588063371732979"><ele>868.0</ele><time>2026-05-02T10:58:58Z</time></trkpt><trkpt lat="44.63638923158635" lon="9.587917031468788"><ele>868.9999999999999</ele><time>2026-05-02T10:59:00Z</time></trkpt><trkpt lat="44.63640587689357" lon="9.587826131958321"><ele>870.0</ele><time>2026-05-02T10:59:01Z</time></trkpt><trkpt lat="44.63645843499585" lon="9.587680733123056"><ele>871.0</ele><time>2026-05-02T10:59:03Z</time></trkpt><trkpt lat="44.63649952385809" lon="9.587605485839177"><ele>872.0</ele><time>2026-05-02T10:59:04Z</time></trkpt><trkpt lat="44.63653300946825" lon="9.587517640412369"><ele>872.9999999999999</ele><time>2026-05-02T10:59:05Z</time></trkpt><trkpt lat="44.63655927427736" lon="9.587411706160811"><ele>874.0</ele><time>2026-05-02T10:59:06Z</time></trkpt><trkpt lat="44.636594354415486" lon="9.587305803740664"><ele>874.0</ele><time>2026-05-02T10:59:06.999Z</time></trkpt><trkpt lat="44.63661956707092" lon="9.5872083615731"><ele>874.0000000000001</ele><time>2026-05-02T10:59:07.999Z</time></trkpt><trkpt lat="44.6366582474786" lon="9.587042189098105"><ele>874.0000000000001</ele><time>2026-05-02T10:59:09.999Z</time></trkpt><trkpt lat="44.636676662375166" lon="9.586912072754375"><ele>874.0</ele><time>2026-05-02T10:59:11.999Z</time></trkpt><trkpt lat="44.636676130818515" lon="9.586746636861482"><ele>874.0</ele><time>2026-05-02T10:59:13.999Z</time></trkpt><trkpt lat="44.63666593457109" lon="9.586657199254349"><ele>873.8333333333333</ele><time>2026-05-02T10:59:14.999Z</time></trkpt><trkpt lat="44.63664346911347" lon="9.586573841443908"><ele>873.6666666666666</ele><time>2026-05-02T10:59:15.999Z</time></trkpt><trkpt lat="44.636627325302456" lon="9.586466791859348"><ele>873.5</ele><time>2026-05-02T10:59:16.999Z</time></trkpt><trkpt lat="44.636602073126994" lon="9.586323187755392"><ele>873.3333333333333</ele><time>2026-05-02T10:59:18.999Z</time></trkpt><trkpt lat="44.63659209785709" lon="9.58623406334367"><ele>873.1666666666666</ele><time>2026-05-02T10:59:19.999Z</time></trkpt><trkpt lat="44.636560547965644" lon="9.586092118786025"><ele>873.0</ele><time>2026-05-02T10:59:21.999Z</time></trkpt><trkpt lat="44.63652981627059" lon="9.585957078745874"><ele>873.0</ele><time>2026-05-02T10:59:23.999Z</time></trkpt><trkpt lat="44.63652326350171" lon="9.5857874314399"><ele>873.0</ele><time>2026-05-02T10:59:25.999Z</time></trkpt><trkpt lat="44.636537587650515" lon="9.585613787877701"><ele>873.0</ele><time>2026-05-02T10:59:27.999Z</time></trkpt><trkpt lat="44.63653885477659" lon="9.585521495178856"><ele>873.0</ele><time>2026-05-02T10:59:28.999Z</time></trkpt><trkpt lat="44.63652612787689" lon="9.585417643357525"><ele>873.0</ele><time>2026-05-02T10:59:29.999Z</time></trkpt><trkpt lat="44.636520666792954" lon="9.585310942235092"><ele>872.3333333333334</ele><time>2026-05-02T10:59:30.999Z</time></trkpt><trkpt lat="44.636517665528544" lon="9.585207573990747"><ele>871.6666666666667</ele><time>2026-05-02T10:59:31.999Z</time></trkpt><trkpt lat="44.63652119960288" lon="9.585091969455457"><ele>871.0</ele><time>2026-05-02T10:59:32.999Z</time></trkpt><trkpt lat="44.63652822331132" lon="9.584968511343082"><ele>870.3333333333334</ele><time>2026-05-02T10:59:33.999Z</time></trkpt><trkpt lat="44.636539324462966" lon="9.584843852812382"><ele>869.6666666666667</ele><time>2026-05-02T10:59:34.999Z</time></trkpt><trkpt lat="44.63654845419697" lon="9.584724300964188"><ele>869.0</ele><time>2026-05-02T10:59:35.999Z</time></trkpt><trkpt lat="44.63655621364587" lon="9.584605527324921"><ele>870.0000000000001</ele><time>2026-05-02T10:59:36.999Z</time></trkpt><trkpt lat="44.63656492374055" lon="9.58449015245281"><ele>871.0</ele><time>2026-05-02T10:59:37.999Z</time></trkpt><trkpt lat="44.63657132211653" lon="9.584389959687384"><ele>872.0</ele><time>2026-05-02T10:59:38.999Z</time></trkpt><trkpt lat="44.636577849535634" lon="9.584229070175239"><ele>873.0</ele><time>2026-05-02T10:59:40.999Z</time></trkpt><trkpt lat="44.63659592743232" lon="9.584138817832907"><ele>874.0000000000001</ele><time>2026-05-02T10:59:41.999Z</time></trkpt><trkpt lat="44.63663307979451" lon="9.584054895990734"><ele>875.0</ele><time>2026-05-02T10:59:42.999Z</time></trkpt><trkpt lat="44.636685946857455" lon="9.583993080115542"><ele>875.0</ele><time>2026-05-02T10:59:43.999Z</time></trkpt><trkpt lat="44.63674566159078" lon="9.583948877433517"><ele>875.0</ele><time>2026-05-02T10:59:44.999Z</time></trkpt><trkpt lat="44.63680832883634" lon="9.583915280894912"><ele>875.0</ele><time>2026-05-02T10:59:45.999Z</time></trkpt><trkpt lat="44.636865508082884" lon="9.583861133051059"><ele>875.0</ele><time>2026-05-02T10:59:46.999Z</time></trkpt><trkpt lat="44.63692160273558" lon="9.583780333423876"><ele>875.0</ele><time>2026-05-02T10:59:47.999Z</time></trkpt><trkpt lat="44.63697858242307" lon="9.58369970424484"><ele>875.0</ele><time>2026-05-02T10:59:48.999Z</time></trkpt><trkpt lat="44.63704068178206" lon="9.583619945364354"><ele>875.0</ele><time>2026-05-02T10:59:49.999Z</time></trkpt><trkpt lat="44.63709193998493" lon="9.583545227996298"><ele>875.5000000000001</ele><time>2026-05-02T10:59:50.999Z</time></trkpt><trkpt lat="44.637127074027106" lon="9.583469847998067"><ele>876.0</ele><time>2026-05-02T10:59:51.999Z</time></trkpt><trkpt lat="44.63717510399119" lon="9.583388881207616"><ele>876.5</ele><time>2026-05-02T10:59:53.999Z</time></trkpt><trkpt lat="44.63721145447112" lon="9.58329509316434"><ele>877.0</ele><time>2026-05-02T10:59:56.998Z</time></trkpt><trkpt lat="44.637223729640304" lon="9.583183906306411"><ele>877.5000000000001</ele><time>2026-05-02T11:00:00.998Z</time></trkpt><trkpt lat="44.637245748518396" lon="9.583033784611064"><ele>878.0</ele><time>2026-05-02T11:00:02.998Z</time></trkpt><trkpt lat="44.63727298528632" lon="9.582951738847148"><ele>878.0000000000001</ele><time>2026-05-02T11:00:06.998Z</time></trkpt><trkpt lat="44.63727147392314" lon="9.582845924138734"><ele>878.0</ele><time>2026-05-02T11:00:43Z</time></trkpt><trkpt lat="44.63725650980354" lon="9.58267639704024"><ele>878.0</ele><time>2026-05-02T11:00:45Z</time></trkpt><trkpt lat="44.63725902675418" lon="9.582583708794685"><ele>878.0</ele><time>2026-05-02T11:00:46Z</time></trkpt><trkpt lat="44.63724581396917" lon="9.582497072313702"><ele>878.0000000000001</ele><time>2026-05-02T11:00:47Z</time></trkpt><trkpt lat="44.63721144781417" lon="9.582407692956036"><ele>878.0</ele><time>2026-05-02T11:00:48Z</time></trkpt><trkpt lat="44.63715939309759" lon="9.58231122401317"><ele>878.0000000000001</ele><time>2026-05-02T11:00:49Z</time></trkpt><trkpt lat="44.63709618775137" lon="9.582225683252899"><ele>878.0</ele><time>2026-05-02T11:00:50Z</time></trkpt><trkpt lat="44.63703570893316" lon="9.58217103466383"><ele>878.0</ele><time>2026-05-02T11:00:51Z</time></trkpt><trkpt lat="44.63699590864433" lon="9.58210243343315"><ele>878.0</ele><time>2026-05-02T11:00:52Z</time></trkpt><trkpt lat="44.63697690988226" lon="9.58201272657714"><ele>878.0000000000001</ele><time>2026-05-02T11:00:53Z</time></trkpt><trkpt lat="44.6369373387119" lon="9.581865748521501"><ele>878.0</ele><time>2026-05-02T11:00:55Z</time></trkpt><trkpt lat="44.636877983504796" lon="9.581743184172659"><ele>877.5999999999999</ele><time>2026-05-02T11:00:57Z</time></trkpt><trkpt lat="44.63680783314254" lon="9.581616548853273"><ele>877.1999999999999</ele><time>2026-05-02T11:00:59Z</time></trkpt><trkpt lat="44.63673439232984" lon="9.581489154039188"><ele>876.8</ele><time>2026-05-02T11:01:01Z</time></trkpt><trkpt lat="44.636669522918474" lon="9.581413037173988"><ele>876.4</ele><time>2026-05-02T11:01:02Z</time></trkpt><trkpt lat="44.63661505829783" lon="9.581342966683483"><ele>876.0</ele><time>2026-05-02T11:01:03Z</time></trkpt><trkpt lat="44.63657168312866" lon="9.58127301571945"><ele>873.4</ele><time>2026-05-02T11:01:04Z</time></trkpt><trkpt lat="44.636508150495" lon="9.58112814375142"><ele>870.8</ele><time>2026-05-02T11:01:06Z</time></trkpt><trkpt lat="44.63643522024724" lon="9.580983222734655"><ele>868.1999999999999</ele><time>2026-05-02T11:01:08Z</time></trkpt><trkpt lat="44.636393954586474" lon="9.580905288385738"><ele>865.5999999999999</ele><time>2026-05-02T11:01:09Z</time></trkpt><trkpt lat="44.63635617194536" lon="9.580806656395556"><ele>863.0</ele><time>2026-05-02T11:01:10Z</time></trkpt><trkpt lat="44.636326945760786" lon="9.580693858026233"><ele>863.0000000000001</ele><time>2026-05-02T11:01:11Z</time></trkpt><trkpt lat="44.63629990328037" lon="9.580598014795886"><ele>863.0</ele><time>2026-05-02T11:01:11.999Z</time></trkpt><trkpt lat="44.636270202086436" lon="9.58050965454224"><ele>863.0</ele><time>2026-05-02T11:01:12.999Z</time></trkpt><trkpt lat="44.63624173835237" lon="9.580418777442244"><ele>863.0</ele><time>2026-05-02T11:01:13.999Z</time></trkpt><trkpt lat="44.6362145128205" lon="9.580329691477958"><ele>863.0000000000001</ele><time>2026-05-02T11:01:14.999Z</time></trkpt><trkpt lat="44.636194908839165" lon="9.580243623880731"><ele>863.0</ele><time>2026-05-02T11:01:15.999Z</time></trkpt><trkpt lat="44.63617139216546" lon="9.580056994521597"><ele>862.3333333333334</ele><time>2026-05-02T11:01:17.999Z</time></trkpt><trkpt lat="44.63617454522688" lon="9.579950362802068"><ele>861.6666666666667</ele><time>2026-05-02T11:01:18.999Z</time></trkpt><trkpt lat="44.63618086311315" lon="9.579850428250282"><ele>861.0</ele><time>2026-05-02T11:01:19.999Z</time></trkpt><trkpt lat="44.636200016447596" lon="9.57976108650275"><ele>860.3333333333333</ele><time>2026-05-02T11:01:20.999Z</time></trkpt><trkpt lat="44.63622465671077" lon="9.5796786249725"><ele>859.6666666666666</ele><time>2026-05-02T11:01:21.999Z</time></trkpt><trkpt lat="44.636250202874365" lon="9.579593894370898"><ele>859.0</ele><time>2026-05-02T11:01:22.999Z</time></trkpt><trkpt lat="44.63627228204722" lon="9.579435237200554"><ele>859.0</ele><time>2026-05-02T11:01:24.999Z</time></trkpt><trkpt lat="44.63625178437065" lon="9.579301691917241"><ele>859.0000000000001</ele><time>2026-05-02T11:01:26.999Z</time></trkpt><trkpt lat="44.63618206228005" lon="9.579136586283504"><ele>859.0000000000001</ele><time>2026-05-02T11:01:28.999Z</time></trkpt><trkpt lat="44.63612063904272" lon="9.579055782930617"><ele>859.0</ele><time>2026-05-02T11:01:29.999Z</time></trkpt><trkpt lat="44.63605365026156" lon="9.578986988780443"><ele>859.0</ele><time>2026-05-02T11:01:30.999Z</time></trkpt><trkpt lat="44.6359734033104" lon="9.578874683006216"><ele>859.3333333333333</ele><time>2026-05-02T11:01:32.999Z</time></trkpt><trkpt lat="44.635955612399144" lon="9.578784162524336"><ele>859.6666666666666</ele><time>2026-05-02T11:01:33.999Z</time></trkpt><trkpt lat="44.635933820141965" lon="9.578698621503948"><ele>860.0</ele><time>2026-05-02T11:01:34.999Z</time></trkpt><trkpt lat="44.635880100030946" lon="9.57855362262565"><ele>860.3333333333333</ele><time>2026-05-02T11:01:36.999Z</time></trkpt><trkpt lat="44.635833071763884" lon="9.57848628854162"><ele>860.6666666666666</ele><time>2026-05-02T11:01:37.999Z</time></trkpt><trkpt lat="44.63578214612719" lon="9.5784224822439"><ele>861.0</ele><time>2026-05-02T11:01:38.999Z</time></trkpt><trkpt lat="44.63572649127271" lon="9.578358151106649"><ele>860.3333333333334</ele><time>2026-05-02T11:01:39.999Z</time></trkpt><trkpt lat="44.63566891980513" lon="9.578283206358492"><ele>859.6666666666667</ele><time>2026-05-02T11:01:40.999Z</time></trkpt><trkpt lat="44.6356183477159" lon="9.578205882835382"><ele>859.0</ele><time>2026-05-02T11:01:41.999Z</time></trkpt><trkpt lat="44.63557268368695" lon="9.578127713977684"><ele>858.3333333333334</ele><time>2026-05-02T11:01:42.999Z</time></trkpt><trkpt lat="44.6355270843113" lon="9.578046157579015"><ele>857.6666666666667</ele><time>2026-05-02T11:01:43.999Z</time></trkpt><trkpt lat="44.63548420410438" lon="9.577957098624928"><ele>857.0</ele><time>2026-05-02T11:01:44.999Z</time></trkpt><trkpt lat="44.635445284775976" lon="9.577862973647408"><ele>855.5000000000001</ele><time>2026-05-02T11:01:45.999Z</time></trkpt><trkpt lat="44.63541800231066" lon="9.577771302206347"><ele>854.0</ele><time>2026-05-02T11:01:46.999Z</time></trkpt><trkpt lat="44.63540486857559" lon="9.577606719743608"><ele>852.5</ele><time>2026-05-02T11:01:48.999Z</time></trkpt><trkpt lat="44.635452311435735" lon="9.577514960863894"><ele>851.0</ele><time>2026-05-02T11:01:49.999Z</time></trkpt><trkpt lat="44.63552169454189" lon="9.577442496257346"><ele>849.5000000000001</ele><time>2026-05-02T11:01:50.999Z</time></trkpt><trkpt lat="44.635570012731954" lon="9.577373181431748"><ele>848.0</ele><time>2026-05-02T11:01:51.999Z</time></trkpt><trkpt lat="44.63559458551922" lon="9.577270115120811"><ele>848.0000000000001</ele><time>2026-05-02T11:01:52.999Z</time></trkpt><trkpt lat="44.63560305823836" lon="9.577149473333215"><ele>848.0</ele><time>2026-05-02T11:01:53.999Z</time></trkpt><trkpt lat="44.635603393225246" lon="9.57704297876209"><ele>848.0</ele><time>2026-05-02T11:01:54.999Z</time></trkpt><trkpt lat="44.63560220389555" lon="9.576938186102696"><ele>848.0</ele><time>2026-05-02T11:01:55.999Z</time></trkpt><trkpt lat="44.635594414753626" lon="9.57683718629771"><ele>848.0000000000001</ele><time>2026-05-02T11:01:56.999Z</time></trkpt><trkpt lat="44.6355720823136" lon="9.57673916973761"><ele>848.0</ele><time>2026-05-02T11:01:57.999Z</time></trkpt><trkpt lat="44.63553589035977" lon="9.576640563489535"><ele>845.0000000000001</ele><time>2026-05-02T11:01:58.999Z</time></trkpt><trkpt lat="44.63549897085526" lon="9.576550153956632"><ele>842.0</ele><time>2026-05-02T11:01:59.999Z</time></trkpt><trkpt lat="44.63542783110061" lon="9.576418270819792"><ele>839.0</ele><time>2026-05-02T11:02:01.998Z</time></trkpt><trkpt lat="44.63537608611068" lon="9.576293755086812"><ele>836.0</ele><time>2026-05-02T11:02:03.998Z</time></trkpt><trkpt lat="44.63533656680354" lon="9.57620291988361"><ele>833.0000000000001</ele><time>2026-05-02T11:02:05.998Z</time></trkpt><trkpt lat="44.63533307699385" lon="9.57610371900219"><ele>830.0</ele><time>2026-05-02T11:02:07.998Z</time></trkpt><trkpt lat="44.63537116373286" lon="9.575963797798451"><ele>828.0000000000001</ele><time>2026-05-02T11:02:09.998Z</time></trkpt><trkpt lat="44.63537946808311" lon="9.575821468505294"><ele>826.0</ele><time>2026-05-02T11:02:11.998Z</time></trkpt><trkpt lat="44.635342101147" lon="9.575698938053316"><ele>824.0</ele><time>2026-05-02T11:02:13.998Z</time></trkpt><trkpt lat="44.63527160484783" lon="9.57566927765584"><ele>822.0</ele><time>2026-05-02T11:02:16.998Z</time></trkpt><trkpt lat="44.63523102590957" lon="9.575746610414692"><ele>820.0000000000001</ele><time>2026-05-02T11:02:23.998Z</time></trkpt><trkpt lat="44.635279973839005" lon="9.575816972640542"><ele>818.0</ele><time>2026-05-02T11:03:58.999Z</time></trkpt><trkpt lat="44.635288080774636" lon="9.575906047532447"><ele>818.0</ele><time>2026-05-02T11:04:05.999Z</time></trkpt><trkpt lat="44.63531453887944" lon="9.576004199581257"><ele>818.0</ele><time>2026-05-02T11:04:24.998Z</time></trkpt><trkpt lat="44.63526439632821" lon="9.575929746956337"><ele>818.0</ele><time>2026-05-02T11:06:00.999Z</time></trkpt><trkpt lat="44.63520108299626" lon="9.575925612714027"><ele>818.0</ele><time>2026-05-02T11:06:23.998Z</time></trkpt><trkpt lat="44.635121161158274" lon="9.575957422703393"><ele>818.0</ele><time>2026-05-02T12:36:32.998Z</time></trkpt><trkpt lat="44.635066623752415" lon="9.575905697319206"><ele>818.0</ele><time>2026-05-02T12:37:59.999Z</time></trkpt><trkpt lat="44.63510381282165" lon="9.575820577385418"><ele>818.0</ele><time>2026-05-02T12:38:07.999Z</time></trkpt><trkpt lat="44.635157614300695" lon="9.575764884022366"><ele>818.0000000000001</ele><time>2026-05-02T12:38:16.999Z</time></trkpt><trkpt lat="44.6352191608797" lon="9.575787206859768"><ele>818.0</ele><time>2026-05-02T12:38:25.999Z</time></trkpt><trkpt lat="44.63527873124422" lon="9.575742667225521"><ele>818.0</ele><time>2026-05-02T12:38:52.998Z</time></trkpt><trkpt lat="44.63532842539342" lon="9.575681400383838"><ele>818.0</ele><time>2026-05-02T12:43:21.998Z</time></trkpt><trkpt lat="44.635366511060155" lon="9.575832900097382"><ele>818.0000000000001</ele><time>2026-05-02T12:43:29Z</time></trkpt><trkpt lat="44.63538267257965" lon="9.575930409303664"><ele>818.0</ele><time>2026-05-02T12:43:30Z</time></trkpt><trkpt lat="44.635375267341175" lon="9.576028676820158"><ele>817.5000000000001</ele><time>2026-05-02T12:43:31Z</time></trkpt><trkpt lat="44.635338029261625" lon="9.576117100547265"><ele>817.0</ele><time>2026-05-02T12:43:32Z</time></trkpt><trkpt lat="44.63527544287881" lon="9.57621074037354"><ele>816.5</ele><time>2026-05-02T12:43:34Z</time></trkpt><trkpt lat="44.63518920538582" lon="9.576209107126676"><ele>816.0</ele><time>2026-05-02T12:43:36Z</time></trkpt><trkpt lat="44.63508919019263" lon="9.576209995420923"><ele>815.5000000000001</ele><time>2026-05-02T12:43:38Z</time></trkpt><trkpt lat="44.63500776304387" lon="9.576239039722225"><ele>815.0</ele><time>2026-05-02T12:43:40Z</time></trkpt><trkpt lat="44.63491187823248" lon="9.57629948411956"><ele>816.5000000000001</ele><time>2026-05-02T12:43:42Z</time></trkpt><trkpt lat="44.63484037239996" lon="9.576323726156234"><ele>818.0</ele><time>2026-05-02T12:43:44Z</time></trkpt><trkpt lat="44.634745107466614" lon="9.576362030543857"><ele>819.5</ele><time>2026-05-02T12:44:06.999Z</time></trkpt><trkpt lat="44.63466731308987" lon="9.576400174688175"><ele>821.0</ele><time>2026-05-02T12:44:07.999Z</time></trkpt><trkpt lat="44.634585325217394" lon="9.576438368032804"><ele>822.5000000000001</ele><time>2026-05-02T12:44:08.999Z</time></trkpt><trkpt lat="44.63450761599494" lon="9.576475206928947"><ele>824.0</ele><time>2026-05-02T12:44:09.999Z</time></trkpt><trkpt lat="44.63444012970681" lon="9.576513920891767"><ele>824.0000000000001</ele><time>2026-05-02T12:44:10.999Z</time></trkpt><trkpt lat="44.63436109813293" lon="9.576559199395838"><ele>824.0</ele><time>2026-05-02T12:44:11.999Z</time></trkpt><trkpt lat="44.63426864937639" lon="9.57660578428109"><ele>824.0</ele><time>2026-05-02T12:44:12.999Z</time></trkpt><trkpt lat="44.634177471972805" lon="9.576648756688375"><ele>824.0</ele><time>2026-05-02T12:44:13.999Z</time></trkpt><trkpt lat="44.63410308835102" lon="9.576692536120385"><ele>824.0000000000001</ele><time>2026-05-02T12:44:14.999Z</time></trkpt><trkpt lat="44.63402530459418" lon="9.57673510117699"><ele>824.0</ele><time>2026-05-02T12:44:15.999Z</time></trkpt><trkpt lat="44.63392284739142" lon="9.576774181673986"><ele>824.0</ele><time>2026-05-02T12:44:16.999Z</time></trkpt><trkpt lat="44.63382585065" lon="9.576810581256078"><ele>824.0</ele><time>2026-05-02T12:44:17.999Z</time></trkpt><trkpt lat="44.633735465030355" lon="9.576849544097728"><ele>824.0</ele><time>2026-05-02T12:44:18.999Z</time></trkpt><trkpt lat="44.633649069765774" lon="9.57688232418205"><ele>824.0</ele><time>2026-05-02T12:44:19.999Z</time></trkpt><trkpt lat="44.633560474346176" lon="9.576920811194846"><ele>824.0</ele><time>2026-05-02T12:44:20.999Z</time></trkpt><trkpt lat="44.63347592483422" lon="9.57696471500378"><ele>823.1666666666667</ele><time>2026-05-02T12:44:21.999Z</time></trkpt><trkpt lat="44.63339078961173" lon="9.57700306027756"><ele>822.3333333333334</ele><time>2026-05-02T12:44:22.999Z</time></trkpt><trkpt lat="44.63330766531095" lon="9.577041968107666"><ele>821.5</ele><time>2026-05-02T12:44:23.999Z</time></trkpt><trkpt lat="44.63322832133585" lon="9.577062791401886"><ele>820.6666666666667</ele><time>2026-05-02T12:44:24.999Z</time></trkpt><trkpt lat="44.63315417180828" lon="9.577032296062947"><ele>819.8333333333334</ele><time>2026-05-02T12:44:25.999Z</time></trkpt><trkpt lat="44.63310122072149" lon="9.57695100950047"><ele>819.0</ele><time>2026-05-02T12:44:26.999Z</time></trkpt><trkpt lat="44.633072932708714" lon="9.576822001640883"><ele>819.0</ele><time>2026-05-02T12:44:27.999Z</time></trkpt><trkpt lat="44.63308469559783" lon="9.576668280839138"><ele>819.0</ele><time>2026-05-02T12:44:28.999Z</time></trkpt><trkpt lat="44.63308137113731" lon="9.576542918125268"><ele>819.0</ele><time>2026-05-02T12:44:29.999Z</time></trkpt><trkpt lat="44.6330480233813" lon="9.576406105183686"><ele>819.0</ele><time>2026-05-02T12:44:30.999Z</time></trkpt><trkpt lat="44.63302055084515" lon="9.576282970398697"><ele>819.0</ele><time>2026-05-02T12:44:31.999Z</time></trkpt><trkpt lat="44.63303877717985" lon="9.576160100885648"><ele>817.6</ele><time>2026-05-02T12:44:32.999Z</time></trkpt><trkpt lat="44.6330961825707" lon="9.576057976173006"><ele>816.2</ele><time>2026-05-02T12:44:33.999Z</time></trkpt><trkpt lat="44.6331609469278" lon="9.575964088746659"><ele>814.8000000000001</ele><time>2026-05-02T12:44:34.999Z</time></trkpt><trkpt lat="44.633217127710225" lon="9.575865995692432"><ele>813.4000000000001</ele><time>2026-05-02T12:44:35.999Z</time></trkpt><trkpt lat="44.63326803170727" lon="9.575747842302928"><ele>812.0</ele><time>2026-05-02T12:44:36.999Z</time></trkpt><trkpt lat="44.63331174908773" lon="9.575616839548927"><ele>812.0</ele><time>2026-05-02T12:44:37.999Z</time></trkpt><trkpt lat="44.633361177580355" lon="9.57548918972943"><ele>812.0</ele><time>2026-05-02T12:44:38.999Z</time></trkpt><trkpt lat="44.63340769717591" lon="9.575374675179718"><ele>812.0</ele><time>2026-05-02T12:44:39.999Z</time></trkpt><trkpt lat="44.633448192816154" lon="9.575255281104662"><ele>812.0</ele><time>2026-05-02T12:44:40.999Z</time></trkpt><trkpt lat="44.63348353742184" lon="9.575136770927722"><ele>812.0</ele><time>2026-05-02T12:44:41.999Z</time></trkpt><trkpt lat="44.63351149978602" lon="9.575019458048278"><ele>812.3333333333334</ele><time>2026-05-02T12:44:42.999Z</time></trkpt><trkpt lat="44.63351987084036" lon="9.574908385980207"><ele>812.6666666666667</ele><time>2026-05-02T12:44:43.999Z</time></trkpt><trkpt lat="44.633529187029815" lon="9.574779964429334"><ele>813.0</ele><time>2026-05-02T12:44:44.999Z</time></trkpt><trkpt lat="44.63352695795809" lon="9.574647461663"><ele>813.3333333333333</ele><time>2026-05-02T12:44:45.999Z</time></trkpt><trkpt lat="44.63352196746724" lon="9.5745213373829"><ele>813.6666666666666</ele><time>2026-05-02T12:44:46.999Z</time></trkpt><trkpt lat="44.6335160959233" lon="9.574394281481814"><ele>814.0</ele><time>2026-05-02T12:44:47.999Z</time></trkpt><trkpt lat="44.63351660203343" lon="9.5742661537749"><ele>813.0</ele><time>2026-05-02T12:44:48.999Z</time></trkpt><trkpt lat="44.633530105222185" lon="9.5741380522789"><ele>812.0</ele><time>2026-05-02T12:44:49.999Z</time></trkpt><trkpt lat="44.63355807720045" lon="9.573994828294559"><ele>811.0</ele><time>2026-05-02T12:44:50.999Z</time></trkpt><trkpt lat="44.633590105155236" lon="9.573833279510353"><ele>810.0</ele><time>2026-05-02T12:44:51.998Z</time></trkpt><trkpt lat="44.63360904444157" lon="9.573654964913253"><ele>809.0</ele><time>2026-05-02T12:44:52.998Z</time></trkpt><trkpt lat="44.6336112579223" lon="9.573473138462184"><ele>807.75</ele><time>2026-05-02T12:44:53.998Z</time></trkpt><trkpt lat="44.633589975197026" lon="9.573304605119695"><ele>806.5</ele><time>2026-05-02T12:44:54.998Z</time></trkpt><trkpt lat="44.63353141165203" lon="9.57314404945008"><ele>805.25</ele><time>2026-05-02T12:44:55.998Z</time></trkpt><trkpt lat="44.63342343501333" lon="9.5730089747749"><ele>804.0</ele><time>2026-05-02T12:44:56.998Z</time></trkpt><trkpt lat="44.63329696802283" lon="9.57291165637607"><ele>800.75</ele><time>2026-05-02T12:44:57.998Z</time></trkpt><trkpt lat="44.633176183926224" lon="9.572845042086092"><ele>797.5</ele><time>2026-05-02T12:44:58.998Z</time></trkpt><trkpt lat="44.63305564182267" lon="9.57279211650782"><ele>794.25</ele><time>2026-05-02T12:44:59.998Z</time></trkpt><trkpt lat="44.632947697811275" lon="9.57275002009262"><ele>791.0</ele><time>2026-05-02T12:45:00.998Z</time></trkpt><trkpt lat="44.63284092092803" lon="9.572719894686902"><ele>793.0</ele><time>2026-05-02T12:45:01.998Z</time></trkpt><trkpt lat="44.632734810946644" lon="9.572695234599928"><ele>795.0</ele><time>2026-05-02T12:45:02.998Z</time></trkpt><trkpt lat="44.63263110422438" lon="9.5726654205534"><ele>797.0</ele><time>2026-05-02T12:45:03.998Z</time></trkpt><trkpt lat="44.63254403967089" lon="9.572586391243947"><ele>799.0</ele><time>2026-05-02T12:45:04.998Z</time></trkpt><trkpt lat="44.63249764878802" lon="9.572463436041149"><ele>801.0</ele><time>2026-05-02T12:45:05.998Z</time></trkpt><trkpt lat="44.6324833362881" lon="9.572315023712557"><ele>801.0</ele><time>2026-05-02T12:45:06.998Z</time></trkpt><trkpt lat="44.63246395026919" lon="9.572163526758288"><ele>801.0</ele><time>2026-05-02T12:45:07.998Z</time></trkpt><trkpt lat="44.63241008268957" lon="9.5720258659813"><ele>801.0</ele><time>2026-05-02T12:45:08.998Z</time></trkpt><trkpt lat="44.632373583145174" lon="9.571903811859395"><ele>801.0</ele><time>2026-05-02T12:45:09.998Z</time></trkpt><trkpt lat="44.63239160167409" lon="9.571788081358514"><ele>801.0</ele><time>2026-05-02T12:45:10.998Z</time></trkpt><trkpt lat="44.63244346030456" lon="9.571705255709277"><ele>798.5999999999999</ele><time>2026-05-02T12:45:11.998Z</time></trkpt><trkpt lat="44.63251598319951" lon="9.571656098805924"><ele>796.2</ele><time>2026-05-02T12:45:12.998Z</time></trkpt><trkpt lat="44.63259623819739" lon="9.571655696337082"><ele>793.8</ele><time>2026-05-02T12:45:13.998Z</time></trkpt><trkpt lat="44.63269152916689" lon="9.571680440369606"><ele>791.4000000000001</ele><time>2026-05-02T12:45:14.998Z</time></trkpt><trkpt lat="44.632797526357535" lon="9.571727041397024"><ele>789.0</ele><time>2026-05-02T12:45:15.998Z</time></trkpt><trkpt lat="44.63291575020599" lon="9.571764189982883"><ele>786.5</ele><time>2026-05-02T12:45:16.998Z</time></trkpt><trkpt lat="44.6330408915959" lon="9.571753226433868"><ele>784.0</ele><time>2026-05-02T12:45:17.998Z</time></trkpt><trkpt lat="44.63316307194266" lon="9.571705561448509"><ele>781.5</ele><time>2026-05-02T12:45:18.998Z</time></trkpt><trkpt lat="44.63327326542988" lon="9.571620815858626"><ele>779.0</ele><time>2026-05-02T12:45:19.998Z</time></trkpt><trkpt lat="44.63337477308661" lon="9.571521628055502"><ele>779.0</ele><time>2026-05-02T12:45:20.998Z</time></trkpt><trkpt lat="44.63347672812861" lon="9.571410754070508"><ele>779.0</ele><time>2026-05-02T12:45:21.998Z</time></trkpt><trkpt lat="44.63357688527678" lon="9.571279711064228"><ele>779.0</ele><time>2026-05-02T12:45:22.998Z</time></trkpt><trkpt lat="44.63367219656952" lon="9.571137177729053"><ele>779.0</ele><time>2026-05-02T12:45:23.998Z</time></trkpt><trkpt lat="44.633759926079755" lon="9.570990491680945"><ele>777.0</ele><time>2026-05-02T12:45:24.998Z</time></trkpt><trkpt lat="44.6338353089814" lon="9.570857837665837"><ele>775.0</ele><time>2026-05-02T12:45:25.998Z</time></trkpt><trkpt lat="44.63388192667074" lon="9.570747708015416"><ele>773.0</ele><time>2026-05-02T12:45:26.998Z</time></trkpt><trkpt lat="44.63389928421389" lon="9.57061929555896"><ele>771.0</ele><time>2026-05-02T12:45:27.998Z</time></trkpt><trkpt lat="44.63387786846564" lon="9.570474813483456"><ele>769.0</ele><time>2026-05-02T12:45:28.998Z</time></trkpt><trkpt lat="44.63386352212157" lon="9.570313513792676"><ele>768.6</ele><time>2026-05-02T12:45:29.998Z</time></trkpt><trkpt lat="44.633863739824285" lon="9.570145485403147"><ele>768.2</ele><time>2026-05-02T12:45:30.998Z</time></trkpt><trkpt lat="44.63387120634251" lon="9.569988075837623"><ele>767.8000000000001</ele><time>2026-05-02T12:45:31.998Z</time></trkpt><trkpt lat="44.63388585954906" lon="9.569841124458037"><ele>767.4000000000001</ele><time>2026-05-02T12:45:32.998Z</time></trkpt><trkpt lat="44.63391675746387" lon="9.56970512371363"><ele>767.0</ele><time>2026-05-02T12:45:33.998Z</time></trkpt><trkpt lat="44.63394590195696" lon="9.569565131583055"><ele>767.2</ele><time>2026-05-02T12:45:35Z</time></trkpt><trkpt lat="44.63398127350131" lon="9.569433235143348"><ele>767.4000000000001</ele><time>2026-05-02T12:45:36Z</time></trkpt><trkpt lat="44.63400554837255" lon="9.569296611591525"><ele>767.5999999999999</ele><time>2026-05-02T12:45:37Z</time></trkpt><trkpt lat="44.634023415321046" lon="9.56914970596877"><ele>767.8</ele><time>2026-05-02T12:45:38Z</time></trkpt><trkpt lat="44.63400932519126" lon="9.569006405177353"><ele>768.0</ele><time>2026-05-02T12:45:39Z</time></trkpt><trkpt lat="44.63396993463828" lon="9.568855862183149"><ele>768.0</ele><time>2026-05-02T12:45:40Z</time></trkpt><trkpt lat="44.633920696693956" lon="9.568706159896555"><ele>768.0</ele><time>2026-05-02T12:45:41Z</time></trkpt><trkpt lat="44.63386400220727" lon="9.568575029417811"><ele>768.0</ele><time>2026-05-02T12:45:42Z</time></trkpt><trkpt lat="44.633798220422726" lon="9.568463826298622"><ele>768.0</ele><time>2026-05-02T12:45:43Z</time></trkpt><trkpt lat="44.63372574475939" lon="9.568357175395755"><ele>768.0</ele><time>2026-05-02T12:45:44Z</time></trkpt><trkpt lat="44.63364509553729" lon="9.568253499127087"><ele>769.75</ele><time>2026-05-02T12:45:45Z</time></trkpt><trkpt lat="44.63355194354485" lon="9.568163399632954"><ele>771.5</ele><time>2026-05-02T12:45:46Z</time></trkpt><trkpt lat="44.633444367571904" lon="9.568087300380165"><ele>773.25</ele><time>2026-05-02T12:45:47Z</time></trkpt><trkpt lat="44.633332990211095" lon="9.568023230741247"><ele>775.0</ele><time>2026-05-02T12:45:48Z</time></trkpt><trkpt lat="44.63323468923612" lon="9.56796381255335"><ele>775.0</ele><time>2026-05-02T12:45:49Z</time></trkpt><trkpt lat="44.63314682358918" lon="9.567885690364227"><ele>775.0</ele><time>2026-05-02T12:45:50Z</time></trkpt><trkpt lat="44.633067282249925" lon="9.567765978053682"><ele>775.0</ele><time>2026-05-02T12:45:51Z</time></trkpt><trkpt lat="44.63300542448633" lon="9.567627921206496"><ele>775.0</ele><time>2026-05-02T12:45:52Z</time></trkpt><trkpt lat="44.6329555609805" lon="9.567495387549238"><ele>775.0</ele><time>2026-05-02T12:45:53Z</time></trkpt><trkpt lat="44.63292027925939" lon="9.567359766113013"><ele>773.8</ele><time>2026-05-02T12:45:54Z</time></trkpt><trkpt lat="44.63289256522831" lon="9.56722103674932"><ele>772.6</ele><time>2026-05-02T12:45:55Z</time></trkpt><trkpt lat="44.632881457588866" lon="9.567076314567625"><ele>771.4000000000001</ele><time>2026-05-02T12:45:56Z</time></trkpt><trkpt lat="44.63288479755743" lon="9.566928466494854"><ele>770.2</ele><time>2026-05-02T12:45:57Z</time></trkpt><trkpt lat="44.63290247368451" lon="9.566777987857458"><ele>769.0</ele><time>2026-05-02T12:45:58Z</time></trkpt><trkpt lat="44.632934417585005" lon="9.566626456314742"><ele>769.0</ele><time>2026-05-02T12:45:59Z</time></trkpt><trkpt lat="44.63298013233118" lon="9.566483556949116"><ele>769.0</ele><time>2026-05-02T12:46:00Z</time></trkpt><trkpt lat="44.633038955562064" lon="9.566347274788617"><ele>769.0</ele><time>2026-05-02T12:46:01Z</time></trkpt><trkpt lat="44.633109752316024" lon="9.566225921851325"><ele>769.0</ele><time>2026-05-02T12:46:02Z</time></trkpt><trkpt lat="44.633202312297065" lon="9.566151829958784"><ele>769.0</ele><time>2026-05-02T12:46:03Z</time></trkpt><trkpt lat="44.633305153186456" lon="9.56611296247377"><ele>772.0</ele><time>2026-05-02T12:46:04Z</time></trkpt><trkpt lat="44.63341818499175" lon="9.566100522561673"><ele>775.0</ele><time>2026-05-02T12:46:05Z</time></trkpt><trkpt lat="44.63353927930001" lon="9.56610884383507"><ele>778.0</ele><time>2026-05-02T12:46:06Z</time></trkpt><trkpt lat="44.63366875881557" lon="9.56612846219503"><ele>781.0</ele><time>2026-05-02T12:46:07Z</time></trkpt><trkpt lat="44.633802637025596" lon="9.5661484391326"><ele>781.5</ele><time>2026-05-02T12:46:08Z</time></trkpt><trkpt lat="44.633928561668164" lon="9.566161696661876"><ele>782.0</ele><time>2026-05-02T12:46:09Z</time></trkpt><trkpt lat="44.634052114464936" lon="9.566178884883557"><ele>782.5</ele><time>2026-05-02T12:46:10Z</time></trkpt><trkpt lat="44.63417263890462" lon="9.566203818209967"><ele>783.0</ele><time>2026-05-02T12:46:11Z</time></trkpt><trkpt lat="44.63428849089089" lon="9.566247372365948"><ele>777.25</ele><time>2026-05-02T12:46:11.999Z</time></trkpt><trkpt lat="44.63439339721553" lon="9.566320356969701"><ele>771.5</ele><time>2026-05-02T12:46:12.999Z</time></trkpt><trkpt lat="44.634504063376916" lon="9.566371397170867"><ele>765.75</ele><time>2026-05-02T12:46:13.999Z</time></trkpt><trkpt lat="44.634615805989974" lon="9.566387416090901"><ele>760.0</ele><time>2026-05-02T12:46:14.999Z</time></trkpt><trkpt lat="44.634724888906405" lon="9.566386420649682"><ele>759.8</ele><time>2026-05-02T12:46:15.999Z</time></trkpt><trkpt lat="44.63482967451976" lon="9.566417957293144"><ele>759.6</ele><time>2026-05-02T12:46:16.999Z</time></trkpt><trkpt lat="44.63491906667026" lon="9.566502286158265"><ele>759.4000000000001</ele><time>2026-05-02T12:46:17.999Z</time></trkpt><trkpt lat="44.634989490141216" lon="9.56663735951074"><ele>759.2</ele><time>2026-05-02T12:46:18.999Z</time></trkpt><trkpt lat="44.6350462603488" lon="9.566774865670219"><ele>759.0</ele><time>2026-05-02T12:46:19.999Z</time></trkpt><trkpt lat="44.63512461437892" lon="9.566869400355149"><ele>759.0</ele><time>2026-05-02T12:46:20.999Z</time></trkpt><trkpt lat="44.6352228743902" lon="9.566933882673009"><ele>759.0</ele><time>2026-05-02T12:46:21.999Z</time></trkpt><trkpt lat="44.63533459080008" lon="9.566966786416081"><ele>759.0</ele><time>2026-05-02T12:46:22.999Z</time></trkpt><trkpt lat="44.635440302897436" lon="9.56699368837186"><ele>759.0</ele><time>2026-05-02T12:46:23.999Z</time></trkpt><trkpt lat="44.63554409381741" lon="9.567035642168749"><ele>759.0</ele><time>2026-05-02T12:46:24.999Z</time></trkpt><trkpt lat="44.63564881988872" lon="9.567096590188035"><ele>755.25</ele><time>2026-05-02T12:46:25.999Z</time></trkpt><trkpt lat="44.635756854942464" lon="9.567166807203401"><ele>751.5</ele><time>2026-05-02T12:46:26.999Z</time></trkpt><trkpt lat="44.63586618639687" lon="9.56724061221096"><ele>747.75</ele><time>2026-05-02T12:46:27.999Z</time></trkpt><trkpt lat="44.63597910717437" lon="9.567304339702744"><ele>744.0</ele><time>2026-05-02T12:46:28.999Z</time></trkpt><trkpt lat="44.63609792543336" lon="9.567352561442135"><ele>742.2</ele><time>2026-05-02T12:46:29.999Z</time></trkpt><trkpt lat="44.636215464830734" lon="9.567368582265086"><ele>740.4000000000001</ele><time>2026-05-02T12:46:30.999Z</time></trkpt><trkpt lat="44.636326630362866" lon="9.567349739609064"><ele>738.6</ele><time>2026-05-02T12:46:31.999Z</time></trkpt><trkpt lat="44.63643309447193" lon="9.567312706895915"><ele>736.8</ele><time>2026-05-02T12:46:32.999Z</time></trkpt><trkpt lat="44.636532941270055" lon="9.567256400028956"><ele>735.0</ele><time>2026-05-02T12:46:33.999Z</time></trkpt><trkpt lat="44.6366330533436" lon="9.56721043166803"><ele>735.0</ele><time>2026-05-02T12:46:34.999Z</time></trkpt><trkpt lat="44.63672683997704" lon="9.567142958111369"><ele>735.0</ele><time>2026-05-02T12:46:35.999Z</time></trkpt><trkpt lat="44.63680931289637" lon="9.56705776411112"><ele>735.0</ele><time>2026-05-02T12:46:36.999Z</time></trkpt><trkpt lat="44.63688781030821" lon="9.5669702907299"><ele>735.0</ele><time>2026-05-02T12:46:37.999Z</time></trkpt><trkpt lat="44.636956476144626" lon="9.566873161939283"><ele>735.0</ele><time>2026-05-02T12:46:38.999Z</time></trkpt><trkpt lat="44.63701542014668" lon="9.566773717371182"><ele>733.6</ele><time>2026-05-02T12:46:39.999Z</time></trkpt><trkpt lat="44.6370876252129" lon="9.566686251246484"><ele>732.2</ele><time>2026-05-02T12:46:40.999Z</time></trkpt><trkpt lat="44.63715257273036" lon="9.566598343406719"><ele>730.8</ele><time>2026-05-02T12:46:41.999Z</time></trkpt><trkpt lat="44.63720901465785" lon="9.566489740909713"><ele>729.4</ele><time>2026-05-02T12:46:42.999Z</time></trkpt><trkpt lat="44.637256593604924" lon="9.566389460827608"><ele>728.0</ele><time>2026-05-02T12:46:43.999Z</time></trkpt><trkpt lat="44.63730597643638" lon="9.56628358821442"><ele>730.3333333333333</ele><time>2026-05-02T12:46:44.999Z</time></trkpt><trkpt lat="44.63735602561475" lon="9.566177700431039"><ele>732.6666666666666</ele><time>2026-05-02T12:46:45.999Z</time></trkpt><trkpt lat="44.637405557853874" lon="9.566082986153367"><ele>735.0</ele><time>2026-05-02T12:46:46.999Z</time></trkpt><trkpt lat="44.63744938495107" lon="9.56598580848937"><ele>737.3333333333334</ele><time>2026-05-02T12:46:47.999Z</time></trkpt><trkpt lat="44.63748729912764" lon="9.565893719918707"><ele>739.6666666666667</ele><time>2026-05-02T12:46:48.999Z</time></trkpt><trkpt lat="44.637525022377375" lon="9.565805102114345"><ele>742.0</ele><time>2026-05-02T12:46:49.999Z</time></trkpt><trkpt lat="44.6375708738544" lon="9.565705885085084"><ele>742.0</ele><time>2026-05-02T12:46:50.999Z</time></trkpt><trkpt lat="44.63762851150475" lon="9.565604010738632"><ele>742.0</ele><time>2026-05-02T12:46:51.999Z</time></trkpt><trkpt lat="44.63769560331014" lon="9.565508682633636"><ele>742.0</ele><time>2026-05-02T12:46:52.999Z</time></trkpt><trkpt lat="44.637750441647874" lon="9.565393243975098"><ele>742.0</ele><time>2026-05-02T12:46:53.999Z</time></trkpt><trkpt lat="44.63778923651882" lon="9.565259145047897"><ele>742.0</ele><time>2026-05-02T12:46:54.999Z</time></trkpt><trkpt lat="44.637823558483475" lon="9.565136164279808"><ele>740.8</ele><time>2026-05-02T12:46:55.999Z</time></trkpt><trkpt lat="44.63787021024321" lon="9.565029113575903"><ele>739.6</ele><time>2026-05-02T12:46:56.999Z</time></trkpt><trkpt lat="44.637928962055746" lon="9.564933484401609"><ele>738.4</ele><time>2026-05-02T12:46:57.999Z</time></trkpt><trkpt lat="44.63800814769132" lon="9.56487890273617"><ele>737.1999999999999</ele><time>2026-05-02T12:46:58.998Z</time></trkpt><trkpt lat="44.63810076484506" lon="9.564868412737836"><ele>736.0</ele><time>2026-05-02T12:46:59.998Z</time></trkpt><trkpt lat="44.63819084397016" lon="9.564877502524954"><ele>736.0</ele><time>2026-05-02T12:47:00.998Z</time></trkpt><trkpt lat="44.6382855372746" lon="9.564869552693358"><ele>736.0</ele><time>2026-05-02T12:47:01.998Z</time></trkpt><trkpt lat="44.6383753485612" lon="9.564855099342005"><ele>736.0</ele><time>2026-05-02T12:47:02.998Z</time></trkpt><trkpt lat="44.638470236114564" lon="9.564822944806412"><ele>736.0</ele><time>2026-05-02T12:47:04.998Z</time></trkpt><trkpt lat="44.638464492611845" lon="9.564729149982233"><ele>736.0</ele><time>2026-05-02T12:47:07.998Z</time></trkpt><trkpt lat="44.63839653324906" lon="9.564707758905676"><ele>736.0</ele><time>2026-05-02T12:47:41Z</time></trkpt><trkpt lat="44.63827977207078" lon="9.564698622977856"><ele>736.0</ele><time>2026-05-02T12:47:43Z</time></trkpt><trkpt lat="44.63821525716343" lon="9.564601743353707"><ele>736.0</ele><time>2026-05-02T12:47:45Z</time></trkpt><trkpt lat="44.63829363929143" lon="9.564496520026541"><ele>736.0</ele><time>2026-05-02T12:47:47Z</time></trkpt><trkpt lat="44.63836038141128" lon="9.564463460020011"><ele>736.0</ele><time>2026-05-02T12:47:48Z</time></trkpt><trkpt lat="44.63844184979522" lon="9.564438881439624"><ele>736.0</ele><time>2026-05-02T12:47:49Z</time></trkpt><trkpt lat="44.63852532927037" lon="9.564398968994647"><ele>736.0</ele><time>2026-05-02T12:47:50Z</time></trkpt><trkpt lat="44.638627633066285" lon="9.56434883147498"><ele>738.1666666666667</ele><time>2026-05-02T12:47:51Z</time></trkpt><trkpt lat="44.63872494162482" lon="9.564285385088297"><ele>740.3333333333334</ele><time>2026-05-02T12:47:52Z</time></trkpt><trkpt lat="44.638806347730714" lon="9.564213738103922"><ele>742.5</ele><time>2026-05-02T12:47:53Z</time></trkpt><trkpt lat="44.63885741717668" lon="9.564146127364003"><ele>744.6666666666666</ele><time>2026-05-02T12:47:54Z</time></trkpt><trkpt lat="44.63889086855365" lon="9.56407029366456"><ele>746.8333333333333</ele><time>2026-05-02T12:47:55Z</time></trkpt><trkpt lat="44.63892356407511" lon="9.563970721337629"><ele>749.0</ele><time>2026-05-02T12:47:56Z</time></trkpt><trkpt lat="44.63893646629522" lon="9.563861358481043"><ele>749.0</ele><time>2026-05-02T12:47:57Z</time></trkpt><trkpt lat="44.638923727469496" lon="9.56375815260457"><ele>749.0</ele><time>2026-05-02T12:47:58Z</time></trkpt><trkpt lat="44.638897742743524" lon="9.563656212358454"><ele>749.0</ele><time>2026-05-02T12:47:59Z</time></trkpt><trkpt lat="44.63886741615414" lon="9.563546192518544"><ele>749.0</ele><time>2026-05-02T12:48:00Z</time></trkpt><trkpt lat="44.638836860578316" lon="9.563388095458878"><ele>749.0</ele><time>2026-05-02T12:48:01Z</time></trkpt><trkpt lat="44.638805858871244" lon="9.56326302871118"><ele>749.0</ele><time>2026-05-02T12:48:02Z</time></trkpt><trkpt lat="44.63871685500208" lon="9.563177703504703"><ele>751.0</ele><time>2026-05-02T12:48:04Z</time></trkpt><trkpt lat="44.63868077622286" lon="9.56305645549289"><ele>753.0</ele><time>2026-05-02T12:48:06Z</time></trkpt><trkpt lat="44.638675947033995" lon="9.562953099234045"><ele>755.0</ele><time>2026-05-02T12:48:07Z</time></trkpt><trkpt lat="44.63865441136988" lon="9.562850609556689"><ele>757.0</ele><time>2026-05-02T12:48:08Z</time></trkpt><trkpt lat="44.63856675202722" lon="9.562725701678644"><ele>759.0</ele><time>2026-05-02T12:48:10Z</time></trkpt><trkpt lat="44.63850620492493" lon="9.56265527073602"><ele>761.0</ele><time>2026-05-02T12:48:11Z</time></trkpt><trkpt lat="44.63846096406907" lon="9.562548508675135"><ele>765.1666666666666</ele><time>2026-05-02T12:48:12Z</time></trkpt><trkpt lat="44.63841922175713" lon="9.562442460139982"><ele>769.3333333333333</ele><time>2026-05-02T12:48:13Z</time></trkpt><trkpt lat="44.63829969327407" lon="9.562380090731205"><ele>773.5</ele><time>2026-05-02T12:48:15Z</time></trkpt><trkpt lat="44.63822343467498" lon="9.562377360042362"><ele>777.6666666666666</ele><time>2026-05-02T12:48:16Z</time></trkpt><trkpt lat="44.63815065181008" lon="9.562344428397328"><ele>781.8333333333334</ele><time>2026-05-02T12:48:16.999Z</time></trkpt><trkpt lat="44.638090096220935" lon="9.562295229521107"><ele>786.0</ele><time>2026-05-02T12:48:17.999Z</time></trkpt><trkpt lat="44.63804423909949" lon="9.562231496543744"><ele>786.0</ele><time>2026-05-02T12:48:18.999Z</time></trkpt><trkpt lat="44.63800174345678" lon="9.56215642775518"><ele>786.0</ele><time>2026-05-02T12:48:19.999Z</time></trkpt><trkpt lat="44.63795269070174" lon="9.562073405476687"><ele>786.0</ele><time>2026-05-02T12:48:20.999Z</time></trkpt><trkpt lat="44.63792760852061" lon="9.561984417913477"><ele>786.0</ele><time>2026-05-02T12:48:21.999Z</time></trkpt><trkpt lat="44.63791322742082" lon="9.561852540542295"><ele>786.0</ele><time>2026-05-02T12:48:23.999Z</time></trkpt><trkpt lat="44.63783864642764" lon="9.561896858181312"><ele>786.0</ele><time>2026-05-02T12:48:26.999Z</time></trkpt><trkpt lat="44.637794344140055" lon="9.562045158632753"><ele>791.0</ele><time>2026-05-02T12:48:28.999Z</time></trkpt><trkpt lat="44.637751045813104" lon="9.562135305096174"><ele>796.0</ele><time>2026-05-02T12:48:29.999Z</time></trkpt><trkpt lat="44.637648037485604" lon="9.562209279017956"><ele>801.0</ele><time>2026-05-02T12:48:31.999Z</time></trkpt><trkpt lat="44.637565996215635" lon="9.562202553177523"><ele>806.0</ele><time>2026-05-02T12:48:32.999Z</time></trkpt><trkpt lat="44.637467968500786" lon="9.562197391351"><ele>811.0</ele><time>2026-05-02T12:48:33.999Z</time></trkpt><trkpt lat="44.637386066864934" lon="9.562223540298744"><ele>811.0</ele><time>2026-05-02T12:48:34.999Z</time></trkpt><trkpt lat="44.63729344514136" lon="9.562280512298113"><ele>811.0</ele><time>2026-05-02T12:48:35.999Z</time></trkpt><trkpt lat="44.63720008362842" lon="9.562312148568394"><ele>811.0</ele><time>2026-05-02T12:48:36.999Z</time></trkpt><trkpt lat="44.63713268722531" lon="9.562370001452479"><ele>811.0</ele><time>2026-05-02T12:48:37.999Z</time></trkpt><trkpt lat="44.637105346257535" lon="9.562476093862918"><ele>811.0</ele><time>2026-05-02T12:48:38.999Z</time></trkpt><trkpt lat="44.63708028310899" lon="9.562621306915455"><ele>811.0</ele><time>2026-05-02T12:48:39.999Z</time></trkpt><trkpt lat="44.63703074956821" lon="9.562741591763016"><ele>811.0</ele><time>2026-05-02T12:48:40.999Z</time></trkpt><trkpt lat="44.63694769743206" lon="9.562815797170275"><ele>811.0</ele><time>2026-05-02T12:48:41.999Z</time></trkpt><trkpt lat="44.63683721545952" lon="9.56288042011955"><ele>811.0</ele><time>2026-05-02T12:48:42.999Z</time></trkpt><trkpt lat="44.63671567202729" lon="9.56293475318345"><ele>811.0</ele><time>2026-05-02T12:48:43.999Z</time></trkpt><trkpt lat="44.636606770488235" lon="9.562949867475185"><ele>812.5999999999999</ele><time>2026-05-02T12:48:44.999Z</time></trkpt><trkpt lat="44.63654322350963" lon="9.56293826076138"><ele>814.2</ele><time>2026-05-02T12:48:45.999Z</time></trkpt><trkpt lat="44.63643605706849" lon="9.562814455339783"><ele>815.8</ele><time>2026-05-02T12:48:47.999Z</time></trkpt><trkpt lat="44.636379968404896" lon="9.562718454285704"><ele>817.4000000000001</ele><time>2026-05-02T12:48:48.999Z</time></trkpt><trkpt lat="44.63631600208669" lon="9.562617038004328"><ele>819.0</ele><time>2026-05-02T12:48:49.999Z</time></trkpt><trkpt lat="44.63625947424465" lon="9.562518859545627"><ele>821.4000000000001</ele><time>2026-05-02T12:48:50.999Z</time></trkpt><trkpt lat="44.636184971024925" lon="9.562411000883007"><ele>823.8</ele><time>2026-05-02T12:48:51.999Z</time></trkpt><trkpt lat="44.63609483843748" lon="9.562302598008678"><ele>826.2</ele><time>2026-05-02T12:48:52.999Z</time></trkpt><trkpt lat="44.6360274349451" lon="9.5622207852161"><ele>828.5999999999999</ele><time>2026-05-02T12:48:53.999Z</time></trkpt><trkpt lat="44.63599858396885" lon="9.56212600976594"><ele>831.0</ele><time>2026-05-02T12:48:54.999Z</time></trkpt><trkpt lat="44.6359958038762" lon="9.562003737428405"><ele>836.4</ele><time>2026-05-02T12:48:55.999Z</time></trkpt><trkpt lat="44.636006308790726" lon="9.561848498001853"><ele>841.8</ele><time>2026-05-02T12:48:56.999Z</time></trkpt><trkpt lat="44.635994021448205" lon="9.561686459190927"><ele>847.1999999999999</ele><time>2026-05-02T12:48:57.999Z</time></trkpt><trkpt lat="44.63595153327811" lon="9.561551711941032"><ele>852.5999999999999</ele><time>2026-05-02T12:48:58.999Z</time></trkpt><trkpt lat="44.635895164333625" lon="9.561431096029127"><ele>858.0</ele><time>2026-05-02T12:48:59.999Z</time></trkpt><trkpt lat="44.63585513909028" lon="9.561335264807331"><ele>858.0</ele><time>2026-05-02T12:49:00.999Z</time></trkpt><trkpt lat="44.63580354033699" lon="9.561265353857323"><ele>858.0</ele><time>2026-05-02T12:49:01.999Z</time></trkpt><trkpt lat="44.63573608331845" lon="9.561219582753736"><ele>858.0</ele><time>2026-05-02T12:49:02.999Z</time></trkpt><trkpt lat="44.63565118825485" lon="9.561196266474402"><ele>858.0</ele><time>2026-05-02T12:49:03.998Z</time></trkpt><trkpt lat="44.63556020576574" lon="9.561192009866739"><ele>858.0</ele><time>2026-05-02T12:49:04.998Z</time></trkpt><trkpt lat="44.63548367969386" lon="9.561193134962656"><ele>858.0</ele><time>2026-05-02T12:49:05.998Z</time></trkpt><trkpt lat="44.6353978586961" lon="9.561321241832012"><ele>858.0</ele><time>2026-05-02T12:49:07.998Z</time></trkpt><trkpt lat="44.635355307351794" lon="9.561393437659254"><ele>858.0</ele><time>2026-05-02T12:49:08.998Z</time></trkpt><trkpt lat="44.63528906012777" lon="9.561387155794579"><ele>858.0</ele><time>2026-05-02T12:49:10.998Z</time></trkpt><trkpt lat="44.635220178561084" lon="9.561310831044443"><ele>858.0</ele><time>2026-05-02T12:49:12.998Z</time></trkpt><trkpt lat="44.63516240460455" lon="9.561150393178014"><ele>858.0</ele><time>2026-05-02T12:49:14.998Z</time></trkpt><trkpt lat="44.635115065870345" lon="9.561074417593852"><ele>858.0</ele><time>2026-05-02T12:49:15.998Z</time></trkpt><trkpt lat="44.635041893674675" lon="9.561008270748705"><ele>862.3333333333334</ele><time>2026-05-02T12:49:16.998Z</time></trkpt><trkpt lat="44.634969262046354" lon="9.560927035261836"><ele>866.6666666666667</ele><time>2026-05-02T12:49:17.998Z</time></trkpt><trkpt lat="44.63491146585776" lon="9.560836407783519"><ele>871.0</ele><time>2026-05-02T12:49:18.998Z</time></trkpt><trkpt lat="44.63486470950273" lon="9.56074477370284"><ele>875.3333333333334</ele><time>2026-05-02T12:49:19.998Z</time></trkpt><trkpt lat="44.63480563631226" lon="9.560711656509906"><ele>879.6666666666667</ele><time>2026-05-02T12:49:21.998Z</time></trkpt><trkpt lat="44.63473038102624" lon="9.560834316959236"><ele>884.0</ele><time>2026-05-02T12:49:23.998Z</time></trkpt><trkpt lat="44.6347031520983" lon="9.56094669800344"><ele>884.0</ele><time>2026-05-02T12:49:24.998Z</time></trkpt><trkpt lat="44.63464096031188" lon="9.561073866604557"><ele>884.0000000000001</ele><time>2026-05-02T12:49:25.998Z</time></trkpt><trkpt lat="44.63456768658465" lon="9.56121659881335"><ele>884.0000000000001</ele><time>2026-05-02T12:49:26.998Z</time></trkpt><trkpt lat="44.63450103262249" lon="9.56131489873727"><ele>884.0</ele><time>2026-05-02T12:49:27.998Z</time></trkpt><trkpt lat="44.634480585568845" lon="9.561405251481146"><ele>884.0</ele><time>2026-05-02T12:49:28.998Z</time></trkpt><trkpt lat="44.63447725951558" lon="9.561517664358751"><ele>886.6</ele><time>2026-05-02T12:49:29.998Z</time></trkpt><trkpt lat="44.63446900576478" lon="9.56162197458817"><ele>889.2</ele><time>2026-05-02T12:49:30.998Z</time></trkpt><trkpt lat="44.63439836220521" lon="9.56169201547561"><ele>891.8000000000001</ele><time>2026-05-02T12:49:32.998Z</time></trkpt><trkpt lat="44.63428556601353" lon="9.561780262743234"><ele>894.4000000000001</ele><time>2026-05-02T12:49:34.998Z</time></trkpt><trkpt lat="44.6342592842477" lon="9.561935961776294"><ele>897.0</ele><time>2026-05-02T12:49:36.998Z</time></trkpt><trkpt lat="44.634211708953906" lon="9.562063056840392"><ele>897.0</ele><time>2026-05-02T12:49:38.998Z</time></trkpt><trkpt lat="44.634078538811366" lon="9.562065825361431"><ele>897.0</ele><time>2026-05-02T12:49:40.998Z</time></trkpt><trkpt lat="44.63400895484717" lon="9.56201663658582"><ele>897.0</ele><time>2026-05-02T12:49:41.998Z</time></trkpt><trkpt lat="44.633943256342214" lon="9.561939006353139"><ele>897.0</ele><time>2026-05-02T12:49:42.998Z</time></trkpt><trkpt lat="44.63389433540948" lon="9.561842586712617"><ele>897.0</ele><time>2026-05-02T12:49:43.998Z</time></trkpt><trkpt lat="44.63383804999812" lon="9.561707073060232"><ele>898.8</ele><time>2026-05-02T12:49:44.998Z</time></trkpt><trkpt lat="44.63379039475997" lon="9.561575196148915"><ele>900.6</ele><time>2026-05-02T12:49:45.998Z</time></trkpt><trkpt lat="44.633747921816386" lon="9.561445752906915"><ele>902.3999999999999</ele><time>2026-05-02T12:49:47Z</time></trkpt><trkpt lat="44.633705854054995" lon="9.56131508610238"><ele>904.1999999999999</ele><time>2026-05-02T12:49:48Z</time></trkpt><trkpt lat="44.63366513071045" lon="9.561180936597442"><ele>906.0</ele><time>2026-05-02T12:49:49Z</time></trkpt><trkpt lat="44.633624298366826" lon="9.56104708257344"><ele>910.5</ele><time>2026-05-02T12:49:50Z</time></trkpt><trkpt lat="44.63356717526776" lon="9.560936222905502"><ele>915.0</ele><time>2026-05-02T12:49:51Z</time></trkpt><trkpt lat="44.633528240168275" lon="9.560834487032919"><ele>919.5</ele><time>2026-05-02T12:49:52Z</time></trkpt><trkpt lat="44.633500769035265" lon="9.560715574487668"><ele>924.0</ele><time>2026-05-02T12:49:53Z</time></trkpt><trkpt lat="44.633464096257825" lon="9.560621661394174"><ele>928.5</ele><time>2026-05-02T12:49:54Z</time></trkpt><trkpt lat="44.63340278706428" lon="9.560538491675551"><ele>933.0</ele><time>2026-05-02T12:49:55Z</time></trkpt><trkpt lat="44.63333000054396" lon="9.560473670098995"><ele>933.0</ele><time>2026-05-02T12:49:56Z</time></trkpt><trkpt lat="44.633240354877216" lon="9.560407707934692"><ele>933.0</ele><time>2026-05-02T12:49:57Z</time></trkpt><trkpt lat="44.6331409748503" lon="9.5603161414627"><ele>933.0</ele><time>2026-05-02T12:49:58Z</time></trkpt><trkpt lat="44.63304020336334" lon="9.56023665003614"><ele>933.0</ele><time>2026-05-02T12:49:59Z</time></trkpt><trkpt lat="44.632928422064445" lon="9.560184568902672"><ele>937.0</ele><time>2026-05-02T12:50:00Z</time></trkpt><trkpt lat="44.63282794532102" lon="9.560104584956171"><ele>941.0</ele><time>2026-05-02T12:50:01Z</time></trkpt><trkpt lat="44.63274408700002" lon="9.560051175929269"><ele>945.0</ele><time>2026-05-02T12:50:02Z</time></trkpt><trkpt lat="44.632648752609136" lon="9.560006936386186"><ele>949.0</ele><time>2026-05-02T12:50:03Z</time></trkpt><trkpt lat="44.63255338285617" lon="9.55993364515973"><ele>953.0</ele><time>2026-05-02T12:50:04Z</time></trkpt><trkpt lat="44.632468656830035" lon="9.559846743715454"><ele>955.0</ele><time>2026-05-02T12:50:05Z</time></trkpt><trkpt lat="44.63238948286099" lon="9.55975678069256"><ele>957.0</ele><time>2026-05-02T12:50:06Z</time></trkpt><trkpt lat="44.632304565969875" lon="9.559706165086741"><ele>959.0</ele><time>2026-05-02T12:50:07Z</time></trkpt><trkpt lat="44.632195256940435" lon="9.559690959264218"><ele>961.0</ele><time>2026-05-02T12:50:08Z</time></trkpt><trkpt lat="44.63206684302481" lon="9.559674227633867"><ele>963.0</ele><time>2026-05-02T12:50:09Z</time></trkpt><trkpt lat="44.63194450992648" lon="9.559647057416116"><ele>963.0</ele><time>2026-05-02T12:50:10Z</time></trkpt><trkpt lat="44.63184190640795" lon="9.559590384540453"><ele>963.0</ele><time>2026-05-02T12:50:11Z</time></trkpt><trkpt lat="44.63173927528138" lon="9.559527187241121"><ele>963.0</ele><time>2026-05-02T12:50:12Z</time></trkpt><trkpt lat="44.631643060390815" lon="9.559470482936288"><ele>963.0</ele><time>2026-05-02T12:50:13Z</time></trkpt><trkpt lat="44.6315384435353" lon="9.559426168501542"><ele>963.0</ele><time>2026-05-02T12:50:14Z</time></trkpt><trkpt lat="44.631441504396086" lon="9.559409054572228"><ele>969.5999999999999</ele><time>2026-05-02T12:50:15Z</time></trkpt><trkpt lat="44.63134969052858" lon="9.559386855280314"><ele>976.1999999999999</ele><time>2026-05-02T12:50:16Z</time></trkpt><trkpt lat="44.63127752340964" lon="9.559334692769204"><ele>982.8</ele><time>2026-05-02T12:50:17Z</time></trkpt><trkpt lat="44.63120974982788" lon="9.559251670345333"><ele>989.4</ele><time>2026-05-02T12:50:18Z</time></trkpt><trkpt lat="44.631130992369684" lon="9.559168056270503"><ele>996.0</ele><time>2026-05-02T12:50:19Z</time></trkpt><trkpt lat="44.631033188112866" lon="9.559096866715334"><ele>996.0</ele><time>2026-05-02T12:50:20Z</time></trkpt><trkpt lat="44.63092112140024" lon="9.559043068750016"><ele>996.0</ele><time>2026-05-02T12:50:21Z</time></trkpt><trkpt lat="44.63080643407992" lon="9.558979227814929"><ele>996.0</ele><time>2026-05-02T12:50:22Z</time></trkpt><trkpt lat="44.630695317626746" lon="9.558885420964712"><ele>996.0</ele><time>2026-05-02T12:50:23Z</time></trkpt><trkpt lat="44.63059052729536" lon="9.558809396835782"><ele>996.0</ele><time>2026-05-02T12:50:24Z</time></trkpt><trkpt lat="44.63049153927895" lon="9.558797569976795"><ele>996.0</ele><time>2026-05-02T12:50:25Z</time></trkpt><trkpt lat="44.630372490954315" lon="9.558802645119533"><ele>996.0</ele><time>2026-05-02T12:50:25.999Z</time></trkpt><trkpt lat="44.63024127679476" lon="9.558792953317512"><ele>996.0</ele><time>2026-05-02T12:50:26.999Z</time></trkpt><trkpt lat="44.63012014271078" lon="9.55877109521513"><ele>995.1999999999999</ele><time>2026-05-02T12:50:27.999Z</time></trkpt><trkpt lat="44.63002201909668" lon="9.558748863640753"><ele>994.3999999999999</ele><time>2026-05-02T12:50:28.999Z</time></trkpt><trkpt lat="44.62993924019906" lon="9.558724319610242"><ele>993.6</ele><time>2026-05-02T12:50:29.999Z</time></trkpt><trkpt lat="44.629859114409484" lon="9.558671698381765"><ele>992.8</ele><time>2026-05-02T12:50:30.999Z</time></trkpt><trkpt lat="44.62976920859065" lon="9.558589235061303"><ele>992.0</ele><time>2026-05-02T12:50:31.999Z</time></trkpt><trkpt lat="44.62966360694319" lon="9.558490404643337"><ele>996.5</ele><time>2026-05-02T12:50:32.999Z</time></trkpt><trkpt lat="44.62955119521452" lon="9.558390393611544"><ele>1001.0</ele><time>2026-05-02T12:50:33.999Z</time></trkpt><trkpt lat="44.629439327117666" lon="9.558303995454363"><ele>1005.5</ele><time>2026-05-02T12:50:34.999Z</time></trkpt><trkpt lat="44.629331738617154" lon="9.558240736715646"><ele>1010.0</ele><time>2026-05-02T12:50:35.999Z</time></trkpt><trkpt lat="44.6292376059087" lon="9.558189088810343"><ele>1010.0</ele><time>2026-05-02T12:50:36.999Z</time></trkpt><trkpt lat="44.62915604822498" lon="9.55812099498492"><ele>1010.0</ele><time>2026-05-02T12:50:37.999Z</time></trkpt><trkpt lat="44.62908911696524" lon="9.558014557217922"><ele>1010.0</ele><time>2026-05-02T12:50:38.999Z</time></trkpt><trkpt lat="44.629048105294764" lon="9.557892146143677"><ele>1010.0</ele><time>2026-05-02T12:50:39.999Z</time></trkpt><trkpt lat="44.62902353619854" lon="9.557782149725268"><ele>1010.0</ele><time>2026-05-02T12:50:40.999Z</time></trkpt><trkpt lat="44.62898096672296" lon="9.55769361319761"><ele>1009.75</ele><time>2026-05-02T12:50:41.999Z</time></trkpt><trkpt lat="44.62890597286825" lon="9.557618710764226"><ele>1009.5</ele><time>2026-05-02T12:50:42.999Z</time></trkpt><trkpt lat="44.62879232906407" lon="9.55754588366965"><ele>1009.25</ele><time>2026-05-02T12:50:43.999Z</time></trkpt><trkpt lat="44.62866417623008" lon="9.557455672434406"><ele>1009.0</ele><time>2026-05-02T12:50:44.999Z</time></trkpt><trkpt lat="44.62853328257745" lon="9.557341150997917"><ele>1009.0</ele><time>2026-05-02T12:50:45.999Z</time></trkpt><trkpt lat="44.62842632805647" lon="9.557244743828075"><ele>1009.0000000000001</ele><time>2026-05-02T12:50:46.999Z</time></trkpt><trkpt lat="44.628328133147534" lon="9.557138803659178"><ele>1009.0000000000001</ele><time>2026-05-02T12:50:47.999Z</time></trkpt><trkpt lat="44.62826266787634" lon="9.557034046183896"><ele>1009.0</ele><time>2026-05-02T12:50:48.999Z</time></trkpt><trkpt lat="44.62821065418732" lon="9.556927531124428"><ele>1009.0</ele><time>2026-05-02T12:50:49.999Z</time></trkpt><trkpt lat="44.628148283564094" lon="9.556870300506587"><ele>1013.4000000000001</ele><time>2026-05-02T12:50:50.999Z</time></trkpt><trkpt lat="44.62805332542013" lon="9.55684411103829"><ele>1017.8000000000001</ele><time>2026-05-02T12:50:51.999Z</time></trkpt><trkpt lat="44.62794398978705" lon="9.556851665028644"><ele>1022.1999999999999</ele><time>2026-05-02T12:50:52.999Z</time></trkpt><trkpt lat="44.62785630995007" lon="9.556828705306192"><ele>1026.6</ele><time>2026-05-02T12:50:53.999Z</time></trkpt><trkpt lat="44.62775928502488" lon="9.556767073915289"><ele>1031.0</ele><time>2026-05-02T12:50:54.999Z</time></trkpt><trkpt lat="44.62767156248562" lon="9.556693917889465"><ele>1031.0</ele><time>2026-05-02T12:50:55.999Z</time></trkpt><trkpt lat="44.627598041065774" lon="9.556615641850577"><ele>1031.0</ele><time>2026-05-02T12:50:56.999Z</time></trkpt><trkpt lat="44.62754714294212" lon="9.556561982417753"><ele>1031.0</ele><time>2026-05-02T12:50:57.999Z</time></trkpt><trkpt lat="44.62748357195393" lon="9.556669141612723"><ele>1031.0</ele><time>2026-05-02T12:51:00.999Z</time></trkpt><trkpt lat="44.6273647870511" lon="9.556801074998946"><ele>1031.0</ele><time>2026-05-02T12:51:02.999Z</time></trkpt><trkpt lat="44.6272608261106" lon="9.556844541357261"><ele>1031.0</ele><time>2026-05-02T12:51:03.999Z</time></trkpt><trkpt lat="44.62715123068984" lon="9.556877836034886"><ele>1031.0</ele><time>2026-05-02T12:51:04.999Z</time></trkpt><trkpt lat="44.62703938009459" lon="9.556902135622913"><ele>1031.0</ele><time>2026-05-02T12:51:05.999Z</time></trkpt><trkpt lat="44.626963763636226" lon="9.556904487166685"><ele>1031.0</ele><time>2026-05-02T12:51:06.999Z</time></trkpt><trkpt lat="44.62689415445695" lon="9.556869874562311"><ele>1031.0</ele><time>2026-05-02T12:51:07.999Z</time></trkpt><trkpt lat="44.62681492327409" lon="9.55680532210842"><ele>1034.6</ele><time>2026-05-02T12:51:08.999Z</time></trkpt><trkpt lat="44.62671333561452" lon="9.556730736468122"><ele>1038.1999999999998</ele><time>2026-05-02T12:51:09.999Z</time></trkpt><trkpt lat="44.62663761271136" lon="9.55665478225935"><ele>1041.8000000000002</ele><time>2026-05-02T12:51:10.999Z</time></trkpt><trkpt lat="44.62655471264545" lon="9.55663189227947"><ele>1045.4</ele><time>2026-05-02T12:51:11.999Z</time></trkpt><trkpt lat="44.62644917264758" lon="9.556592132776961"><ele>1049.0</ele><time>2026-05-02T12:51:12.999Z</time></trkpt><trkpt lat="44.62634143685942" lon="9.556557885560501"><ele>1049.0</ele><time>2026-05-02T12:51:13.998Z</time></trkpt><trkpt lat="44.62625977979345" lon="9.556536940685763"><ele>1049.0</ele><time>2026-05-02T12:51:14.998Z</time></trkpt><trkpt lat="44.62616290860872" lon="9.556502927149856"><ele>1049.0</ele><time>2026-05-02T12:51:15.998Z</time></trkpt><trkpt lat="44.626068505170736" lon="9.556542858960535"><ele>1049.0</ele><time>2026-05-02T12:51:16.998Z</time></trkpt><trkpt lat="44.626005394513776" lon="9.556614201578489"><ele>1049.0</ele><time>2026-05-02T12:51:17.998Z</time></trkpt><trkpt lat="44.62592227753496" lon="9.556653125292618"><ele>1052.4</ele><time>2026-05-02T12:51:18.998Z</time></trkpt><trkpt lat="44.62581873087971" lon="9.556672919560452"><ele>1055.8000000000002</ele><time>2026-05-02T12:51:19.998Z</time></trkpt><trkpt lat="44.625728855736554" lon="9.55664291931518"><ele>1059.1999999999998</ele><time>2026-05-02T12:51:20.998Z</time></trkpt><trkpt lat="44.625633055844546" lon="9.556582350301221"><ele>1062.6</ele><time>2026-05-02T12:51:21.998Z</time></trkpt><trkpt lat="44.62555354465391" lon="9.556505884440755"><ele>1066.0</ele><time>2026-05-02T12:51:22.998Z</time></trkpt><trkpt lat="44.62549817369802" lon="9.55646053014647"><ele>1066.0</ele><time>2026-05-02T12:51:23.998Z</time></trkpt><trkpt lat="44.62544076068119" lon="9.556517136162363"><ele>1066.0</ele><time>2026-05-02T12:53:02.999Z</time></trkpt><trkpt lat="44.62538057250271" lon="9.556586770382177"><ele>1066.0</ele><time>2026-05-02T12:53:03.999Z</time></trkpt><trkpt lat="44.625321781412616" lon="9.55664816651372"><ele>1066.0</ele><time>2026-05-02T12:53:04.999Z</time></trkpt><trkpt lat="44.62524190518894" lon="9.556571367129637"><ele>1066.0</ele><time>2026-05-02T12:53:07.999Z</time></trkpt><trkpt lat="44.625239229248336" lon="9.556419875652601"><ele>1066.0</ele><time>2026-05-02T12:53:09.999Z</time></trkpt><trkpt lat="44.62527182042606" lon="9.556277950250813"><ele>1069.6</ele><time>2026-05-02T12:53:11.999Z</time></trkpt><trkpt lat="44.62519419811306" lon="9.556197380645395"><ele>1073.1999999999998</ele><time>2026-05-02T12:53:13.999Z</time></trkpt><trkpt lat="44.62511623322254" lon="9.556164531494804"><ele>1076.8000000000002</ele><time>2026-05-02T12:53:14.999Z</time></trkpt><trkpt lat="44.625029323427555" lon="9.556157990928579"><ele>1080.4</ele><time>2026-05-02T12:53:15.999Z</time></trkpt><trkpt lat="44.624923676101815" lon="9.556191778416364"><ele>1084.0</ele><time>2026-05-02T12:53:16.999Z</time></trkpt><trkpt lat="44.624822411347374" lon="9.556247647851333"><ele>1084.0</ele><time>2026-05-02T12:53:17.998Z</time></trkpt><trkpt lat="44.624728581214086" lon="9.5562319641386"><ele>1084.0</ele><time>2026-05-02T12:53:19.998Z</time></trkpt><trkpt lat="44.624646561668605" lon="9.556086271115758"><ele>1084.0</ele><time>2026-05-02T12:53:21.998Z</time></trkpt><trkpt lat="44.624582012344504" lon="9.556002373245784"><ele>1084.0</ele><time>2026-05-02T12:53:22.998Z</time></trkpt><trkpt lat="44.624496660307344" lon="9.555962066456523"><ele>1084.0</ele><time>2026-05-02T12:53:23.998Z</time></trkpt><trkpt lat="44.62442389408514" lon="9.555924451620982"><ele>1086.8</ele><time>2026-05-02T12:53:24.998Z</time></trkpt><trkpt lat="44.624368737893796" lon="9.555862889504143"><ele>1089.6000000000001</ele><time>2026-05-02T12:53:25.998Z</time></trkpt><trkpt lat="44.62433769406424" lon="9.555746173948679"><ele>1092.4</ele><time>2026-05-02T12:53:27.998Z</time></trkpt><trkpt lat="44.6244063325529" lon="9.55563561073751"><ele>1095.2</ele><time>2026-05-02T12:53:29.998Z</time></trkpt><trkpt lat="44.62455748273832" lon="9.555619873276942"><ele>1098.0</ele><time>2026-05-02T12:53:31.998Z</time></trkpt><trkpt lat="44.62465043032885" lon="9.555607908071321"><ele>1098.0</ele><time>2026-05-02T12:53:33.998Z</time></trkpt><trkpt lat="44.62469026369494" lon="9.555479243133279"><ele>1098.0</ele><time>2026-05-02T12:53:35.998Z</time></trkpt><trkpt lat="44.62468977057513" lon="9.55533085030926"><ele>1098.0</ele><time>2026-05-02T12:53:37.998Z</time></trkpt><trkpt lat="44.62462137018307" lon="9.555245858835965"><ele>1098.0</ele><time>2026-05-02T12:53:39.998Z</time></trkpt><trkpt lat="44.62448563567886" lon="9.555214240390965"><ele>1098.0</ele><time>2026-05-02T12:53:42.998Z</time></trkpt><trkpt lat="44.62447447458792" lon="9.555123046671229"><ele>1101.0</ele><time>2026-05-02T12:53:44.998Z</time></trkpt><trkpt lat="44.62448976714447" lon="9.555033268543736"><ele>1104.0</ele><time>2026-05-02T12:53:46.998Z</time></trkpt><trkpt lat="44.62453813135045" lon="9.554956542094258"><ele>1107.0</ele><time>2026-05-02T12:53:48.998Z</time></trkpt><trkpt lat="44.624518090582995" lon="9.554824817135053"><ele>1110.0</ele><time>2026-05-02T12:53:50.998Z</time></trkpt><trkpt lat="44.624455566402006" lon="9.554740427311842"><ele>1113.0</ele><time>2026-05-02T12:53:52.998Z</time></trkpt><trkpt lat="44.62442186238967" lon="9.554659233537707"><ele>1116.0</ele><time>2026-05-02T12:53:53.998Z</time></trkpt><trkpt lat="44.62436823256857" lon="9.554612007783241"><ele>1118.5</ele><time>2026-05-02T12:53:54.998Z</time></trkpt><trkpt lat="44.62431892117622" lon="9.55454386137339"><ele>1121.0</ele><time>2026-05-02T12:53:55.998Z</time></trkpt><trkpt lat="44.62426127146878" lon="9.55447175584403"><ele>1123.5</ele><time>2026-05-02T12:53:56.998Z</time></trkpt><trkpt lat="44.624186168759444" lon="9.55433748060942"><ele>1126.0</ele><time>2026-05-02T12:53:57.998Z</time></trkpt><trkpt lat="44.624129164013475" lon="9.554238470345462"><ele>1128.5</ele><time>2026-05-02T12:53:59Z</time></trkpt><trkpt lat="44.624092398552534" lon="9.554124285865313"><ele>1131.0</ele><time>2026-05-02T12:54:00Z</time></trkpt><trkpt lat="44.62405426479545" lon="9.55399729336425"><ele>1134.2</ele><time>2026-05-02T12:54:01Z</time></trkpt><trkpt lat="44.62400352887691" lon="9.553906633412526"><ele>1137.3999999999999</ele><time>2026-05-02T12:54:02Z</time></trkpt><trkpt lat="44.6239571176101" lon="9.553743669083563"><ele>1140.6</ele><time>2026-05-02T12:54:04Z</time></trkpt><trkpt lat="44.623952623049796" lon="9.553630585924292"><ele>1143.8</ele><time>2026-05-02T12:54:05Z</time></trkpt><trkpt lat="44.62398965519984" lon="9.553532858453167"><ele>1147.0</ele><time>2026-05-02T12:54:06Z</time></trkpt><trkpt lat="44.62401478723216" lon="9.553404635867347"><ele>1149.8</ele><time>2026-05-02T12:54:08Z</time></trkpt><trkpt lat="44.62402226552238" lon="9.553287250040329"><ele>1152.6</ele><time>2026-05-02T12:54:10Z</time></trkpt><trkpt lat="44.62405555336589" lon="9.553146837730244"><ele>1155.3999999999999</ele><time>2026-05-02T12:54:12Z</time></trkpt><trkpt lat="44.62409274577586" lon="9.553015882355632"><ele>1158.2</ele><time>2026-05-02T12:54:14Z</time></trkpt><trkpt lat="44.62407989168701" lon="9.552866785453546"><ele>1161.0</ele><time>2026-05-02T12:54:16Z</time></trkpt><trkpt lat="44.624101371119664" lon="9.55278017537249"><ele>1163.1666666666667</ele><time>2026-05-02T12:54:17Z</time></trkpt><trkpt lat="44.624156826095394" lon="9.552649173160578"><ele>1165.3333333333333</ele><time>2026-05-02T12:54:19Z</time></trkpt><trkpt lat="44.62420234551797" lon="9.55255518816719"><ele>1167.5</ele><time>2026-05-02T12:54:20Z</time></trkpt><trkpt lat="44.624229550978484" lon="9.55247433466639"><ele>1169.6666666666665</ele><time>2026-05-02T12:54:21Z</time></trkpt><trkpt lat="44.624274271622056" lon="9.552354627361414"><ele>1171.8333333333333</ele><time>2026-05-02T12:54:23Z</time></trkpt><trkpt lat="44.62434305866399" lon="9.552291207572251"><ele>1174.0</ele><time>2026-05-02T12:54:26Z</time></trkpt><trkpt lat="44.624391368218" lon="9.552229996066986"><ele>1170.6666666666665</ele><time>2026-05-02T12:54:28Z</time></trkpt><trkpt lat="44.6244826577718" lon="9.552132123594903"><ele>1167.3333333333333</ele><time>2026-05-02T12:54:30Z</time></trkpt><trkpt lat="44.62454616953166" lon="9.552120435434501"><ele>1164.0</ele><time>2026-05-02T12:54:31Z</time></trkpt><trkpt lat="44.624660656205066" lon="9.552065694739056"><ele>1160.6666666666667</ele><time>2026-05-02T12:54:34Z</time></trkpt><trkpt lat="44.62472746426716" lon="9.552045727022087"><ele>1157.3333333333335</ele><time>2026-05-02T12:54:35Z</time></trkpt><trkpt lat="44.62479712559679" lon="9.552051010790006"><ele>1154.0</ele><time>2026-05-02T12:54:36Z</time></trkpt><trkpt lat="44.62488023176502" lon="9.552051651787181"><ele>1154.0</ele><time>2026-05-02T12:54:36.999Z</time></trkpt><trkpt lat="44.62495497261822" lon="9.552068611451922"><ele>1154.0</ele><time>2026-05-02T12:54:37.999Z</time></trkpt><trkpt lat="44.62507685300267" lon="9.552105960626614"><ele>1154.0</ele><time>2026-05-02T12:54:39.999Z</time></trkpt><trkpt lat="44.62514959397376" lon="9.552088992222446"><ele>1154.0</ele><time>2026-05-02T12:54:40.999Z</time></trkpt><trkpt lat="44.62521781760948" lon="9.552029427325147"><ele>1154.0</ele><time>2026-05-02T12:54:41.999Z</time></trkpt><trkpt lat="44.625308808797875" lon="9.552008594780018"><ele>1154.0</ele><time>2026-05-02T12:54:42.999Z</time></trkpt><trkpt lat="44.62537118493649" lon="9.551996638388237"><ele>1156.2</ele><time>2026-05-02T12:54:44.999Z</time></trkpt><trkpt lat="44.625474325392815" lon="9.551962795688434"><ele>1158.4</ele><time>2026-05-02T12:54:47.999Z</time></trkpt><trkpt lat="44.62554038399043" lon="9.55197965887955"><ele>1160.6</ele><time>2026-05-02T12:54:48.999Z</time></trkpt><trkpt lat="44.62562430715636" lon="9.55201308506727"><ele>1162.8</ele><time>2026-05-02T12:54:50.999Z</time></trkpt><trkpt lat="44.62573387026374" lon="9.551989314324986"><ele>1165.0</ele><time>2026-05-02T12:54:54.999Z</time></trkpt><trkpt lat="44.625830832770674" lon="9.552000152733555"><ele>1165.0</ele><time>2026-05-02T12:54:56.999Z</time></trkpt><trkpt lat="44.62595485355015" lon="9.551970398778746"><ele>1165.0</ele><time>2026-05-02T12:54:58.999Z</time></trkpt><trkpt lat="44.62602569839196" lon="9.551941674168082"><ele>1165.0</ele><time>2026-05-02T12:55:00.999Z</time></trkpt><trkpt lat="44.6261014805315" lon="9.55188875923537"><ele>1165.0</ele><time>2026-05-02T12:55:03.999Z</time></trkpt><trkpt lat="44.626192669138895" lon="9.551766590217998"><ele>1165.0</ele><time>2026-05-02T12:55:05.999Z</time></trkpt><trkpt lat="44.62622169216176" lon="9.551674452804027"><ele>1164.8</ele><time>2026-05-02T12:55:07.999Z</time></trkpt><trkpt lat="44.62624672677442" lon="9.551568796592125"><ele>1164.6</ele><time>2026-05-02T12:55:11.999Z</time></trkpt><trkpt lat="44.62626841255" lon="9.55146973058564"><ele>1164.4</ele><time>2026-05-02T12:55:13.999Z</time></trkpt><trkpt lat="44.62632682986063" lon="9.551387531352825"><ele>1164.2</ele><time>2026-05-02T12:55:15.999Z</time></trkpt><trkpt lat="44.62639180750456" lon="9.551216639462819"><ele>1164.0</ele><time>2026-05-02T12:55:17.999Z</time></trkpt><trkpt lat="44.62651126837593" lon="9.551046177416646"><ele>1164.0</ele><time>2026-05-02T12:55:19.999Z</time></trkpt><trkpt lat="44.626546026968555" lon="9.55092260303221"><ele>1164.0</ele><time>2026-05-02T12:55:21.999Z</time></trkpt><trkpt lat="44.62648566666453" lon="9.550876716949038"><ele>1164.0</ele><time>2026-05-02T12:55:22.999Z</time></trkpt><trkpt lat="44.62654887904191" lon="9.550851722273427"><ele>1164.0</ele><time>2026-05-02T12:55:23.998Z</time></trkpt><trkpt lat="44.626499670346135" lon="9.550791333152741"><ele>1164.0</ele><time>2026-05-02T12:57:21.999Z</time></trkpt><trkpt lat="44.62648897690758" lon="9.550699414855801"><ele>1164.0</ele><time>2026-05-02T12:57:23.999Z</time></trkpt><trkpt lat="44.62651945586305" lon="9.550599688784969"><ele>1164.0</ele><time>2026-05-02T12:57:25.999Z</time></trkpt><trkpt lat="44.62659372605029" lon="9.550529835566131"><ele>1164.0</ele><time>2026-05-02T12:57:28.998Z</time></trkpt><trkpt lat="44.626653238815194" lon="9.550475064232533"><ele>1164.0</ele><time>2026-05-02T12:57:30.998Z</time></trkpt><trkpt lat="44.62674072998081" lon="9.550511166606734"><ele>1164.0</ele><time>2026-05-02T12:57:32.998Z</time></trkpt><trkpt lat="44.62681647677046" lon="9.55049352434449"><ele>1164.0</ele><time>2026-05-02T12:57:34.998Z</time></trkpt><trkpt lat="44.626902379209064" lon="9.550556733201367"><ele>1164.0</ele><time>2026-05-02T12:57:37.998Z</time></trkpt><trkpt lat="44.62701786123381" lon="9.550548050600455"><ele>1164.8333333333333</ele><time>2026-05-02T12:57:39.998Z</time></trkpt><trkpt lat="44.62708131422417" lon="9.550551333629194"><ele>1165.6666666666667</ele><time>2026-05-02T12:57:40.998Z</time></trkpt><trkpt lat="44.62718100876152" lon="9.550539755155949"><ele>1166.5</ele><time>2026-05-02T12:57:42.998Z</time></trkpt><trkpt lat="44.62724877309277" lon="9.550573594670722"><ele>1167.3333333333335</ele><time>2026-05-02T12:57:43.998Z</time></trkpt><trkpt lat="44.62734230148062" lon="9.550572705235306"><ele>1168.1666666666667</ele><time>2026-05-02T12:57:44.998Z</time></trkpt><trkpt lat="44.6274246602218" lon="9.55064313672302"><ele>1169.0</ele><time>2026-05-02T12:57:46.998Z</time></trkpt><trkpt lat="44.62747973176796" lon="9.550704578026966"><ele>1169.0</ele><time>2026-05-02T12:57:47.998Z</time></trkpt><trkpt lat="44.62757427082452" lon="9.550759109045044"><ele>1169.0</ele><time>2026-05-02T12:57:48.998Z</time></trkpt><trkpt lat="44.627649260147784" lon="9.550791937277653"><ele>1169.0</ele><time>2026-05-02T12:57:49.998Z</time></trkpt><trkpt lat="44.62771871724047" lon="9.550845626661001"><ele>1169.0</ele><time>2026-05-02T12:57:50.998Z</time></trkpt><trkpt lat="44.627823309768594" lon="9.550939400474958"><ele>1169.0</ele><time>2026-05-02T12:57:51.998Z</time></trkpt><trkpt lat="44.62792216197586" lon="9.55098224547154"><ele>1168.8</ele><time>2026-05-02T12:57:52.998Z</time></trkpt><trkpt lat="44.62801238515521" lon="9.55103358482942"><ele>1168.6000000000001</ele><time>2026-05-02T12:57:53.998Z</time></trkpt><trkpt lat="44.628145874817726" lon="9.551027473237111"><ele>1168.4</ele><time>2026-05-02T12:57:55.998Z</time></trkpt><trkpt lat="44.62826181616237" lon="9.55099337373661"><ele>1168.2</ele><time>2026-05-02T12:57:57.998Z</time></trkpt><trkpt lat="44.62833077666284" lon="9.55098372282904"><ele>1168.0</ele><time>2026-05-02T12:57:59.998Z</time></trkpt><trkpt lat="44.62839226409932" lon="9.551012795302118"><ele>1168.0</ele><time>2026-05-02T12:58:24Z</time></trkpt><trkpt lat="44.62848252630095" lon="9.551046350819703"><ele>1168.0</ele><time>2026-05-02T12:58:51.999Z</time></trkpt><trkpt lat="44.6285442896933" lon="9.551098301771917"><ele>1168.0</ele><time>2026-05-02T12:58:53.999Z</time></trkpt><trkpt lat="44.628634646035785" lon="9.551127246378838"><ele>1168.0</ele><time>2026-05-02T12:58:56.999Z</time></trkpt><trkpt lat="44.62870408961531" lon="9.551125378818295"><ele>1168.0</ele><time>2026-05-02T12:58:59.999Z</time></trkpt><trkpt lat="44.628774191215854" lon="9.551165371993262"><ele>1168.0</ele><time>2026-05-02T12:59:02.999Z</time></trkpt><trkpt lat="44.6288509074869" lon="9.551200366555813"><ele>1166.2857142857142</ele><time>2026-05-02T12:59:04.999Z</time></trkpt><trkpt lat="44.628914721350505" lon="9.55122946939334"><ele>1164.5714285714287</ele><time>2026-05-02T12:59:08.999Z</time></trkpt><trkpt lat="44.62897815521293" lon="9.551234788610813"><ele>1162.857142857143</ele><time>2026-05-02T12:59:10.999Z</time></trkpt><trkpt lat="44.62905522350744" lon="9.55126652518268"><ele>1161.142857142857</ele><time>2026-05-02T12:59:13.999Z</time></trkpt><trkpt lat="44.629111691673465" lon="9.551309490999138"><ele>1159.4285714285713</ele><time>2026-05-02T12:59:16.999Z</time></trkpt><trkpt lat="44.629190686237756" lon="9.551344821245383"><ele>1157.7142857142858</ele><time>2026-05-02T12:59:20.999Z</time></trkpt><trkpt lat="44.629249602575584" lon="9.551381097502285"><ele>1156.0</ele><time>2026-05-02T12:59:24.999Z</time></trkpt><trkpt lat="44.62931907348775" lon="9.551388179683054"><ele>1156.0</ele><time>2026-05-02T12:59:27.999Z</time></trkpt><trkpt lat="44.629409020657455" lon="9.551371300206839"><ele>1156.0</ele><time>2026-05-02T12:59:31.999Z</time></trkpt><trkpt lat="44.629473923576874" lon="9.551362241052841"><ele>1156.0</ele><time>2026-05-02T12:59:36.998Z</time></trkpt><trkpt lat="44.62953576813678" lon="9.551312671855554"><ele>1156.0</ele><time>2026-05-02T12:59:41.998Z</time></trkpt><trkpt lat="44.62959929899623" lon="9.551250483217032"><ele>1156.0</ele><time>2026-05-02T12:59:46.998Z</time></trkpt><trkpt lat="44.62967041131938" lon="9.55119628023254"><ele>1156.0</ele><time>2026-05-02T12:59:53.998Z</time></trkpt><trkpt lat="44.6297258406666" lon="9.551151141305947"><ele>1150.5714285714287</ele><time>2026-05-02T12:59:58.998Z</time></trkpt><trkpt lat="44.62978488102328" lon="9.551100656292542"><ele>1145.142857142857</ele><time>2026-05-02T13:00:03.998Z</time></trkpt><trkpt lat="44.62983997889748" lon="9.551042093598975"><ele>1139.7142857142858</ele><time>2026-05-02T13:00:07.998Z</time></trkpt><trkpt lat="44.62990524358516" lon="9.55108171823366"><ele>1134.2857142857142</ele><time>2026-05-02T13:00:11.998Z</time></trkpt><trkpt lat="44.62997369790675" lon="9.551101359784955"><ele>1128.857142857143</ele><time>2026-05-02T13:00:14.998Z</time></trkpt><trkpt lat="44.63004504400367" lon="9.551088805082076"><ele>1123.4285714285716</ele><time>2026-05-02T13:00:18Z</time></trkpt><trkpt lat="44.63012097779453" lon="9.55109065209431"><ele>1118.0</ele><time>2026-05-02T13:00:21Z</time></trkpt><trkpt lat="44.63019300628528" lon="9.551051867296607"><ele>1118.0</ele><time>2026-05-02T13:00:25Z</time></trkpt><trkpt lat="44.630260857580716" lon="9.5510012441296"><ele>1118.0</ele><time>2026-05-02T13:00:30Z</time></trkpt><trkpt lat="44.63033102153985" lon="9.550942915009127"><ele>1118.0</ele><time>2026-05-02T13:00:35Z</time></trkpt><trkpt lat="44.63038939667661" lon="9.550881788678058"><ele>1118.0</ele><time>2026-05-02T13:00:39Z</time></trkpt><trkpt lat="44.63044907263037" lon="9.550845575740619"><ele>1118.0</ele><time>2026-05-02T13:00:42Z</time></trkpt><trkpt lat="44.630510825849996" lon="9.550802093419874"><ele>1118.0</ele><time>2026-05-02T13:00:45Z</time></trkpt><trkpt lat="44.63056614444382" lon="9.550759556305525"><ele>1118.0</ele><time>2026-05-02T13:00:48Z</time></trkpt><trkpt lat="44.6307139611112" lon="9.550754187104742"><ele>1113.1666666666667</ele><time>2026-05-02T13:04:20.998Z</time></trkpt><trkpt lat="44.63070186624783" lon="9.550661475980917"><ele>1108.3333333333335</ele><time>2026-05-02T13:13:23Z</time></trkpt><trkpt lat="44.63077189139136" lon="9.550591954499248"><ele>1103.5</ele><time>2026-05-02T13:13:26Z</time></trkpt><trkpt lat="44.63089490696214" lon="9.550551142800634"><ele>1098.6666666666667</ele><time>2026-05-02T13:13:28.999Z</time></trkpt><trkpt lat="44.63096240579118" lon="9.550513901860608"><ele>1093.8333333333333</ele><time>2026-05-02T13:13:31.999Z</time></trkpt><trkpt lat="44.6310317176104" lon="9.550539471096233"><ele>1089.0</ele><time>2026-05-02T13:13:33.999Z</time></trkpt><trkpt lat="44.63110418955759" lon="9.550573721207595"><ele>1086.1666666666667</ele><time>2026-05-02T13:13:35.999Z</time></trkpt><trkpt lat="44.63118916222976" lon="9.550579615503507"><ele>1083.3333333333333</ele><time>2026-05-02T13:13:38.999Z</time></trkpt><trkpt lat="44.63126046015963" lon="9.550596804624822"><ele>1080.5</ele><time>2026-05-02T13:13:40.999Z</time></trkpt><trkpt lat="44.631343049416785" lon="9.550620329847474"><ele>1077.6666666666665</ele><time>2026-05-02T13:13:43.999Z</time></trkpt><trkpt lat="44.631403643384395" lon="9.550660155233452"><ele>1074.8333333333333</ele><time>2026-05-02T13:13:46.999Z</time></trkpt><trkpt lat="44.631450852673005" lon="9.550719663188858"><ele>1072.0</ele><time>2026-05-02T13:13:48.999Z</time></trkpt><trkpt lat="44.63153978762501" lon="9.550753907002754"><ele>1072.0</ele><time>2026-05-02T13:13:51.999Z</time></trkpt><trkpt lat="44.63162019096415" lon="9.550745200119472"><ele>1072.0</ele><time>2026-05-02T13:13:53.999Z</time></trkpt><trkpt lat="44.63168501682509" lon="9.55073750358049"><ele>1072.0</ele><time>2026-05-02T13:13:55.999Z</time></trkpt><trkpt lat="44.63176085882505" lon="9.550714251064937"><ele>1072.0</ele><time>2026-05-02T13:13:59.999Z</time></trkpt><trkpt lat="44.63181175215484" lon="9.550635363642371"><ele>1072.0</ele><time>2026-05-02T13:14:03.999Z</time></trkpt><trkpt lat="44.63183730833859" lon="9.550551906668687"><ele>1072.0</ele><time>2026-05-02T13:14:06.999Z</time></trkpt><trkpt lat="44.631848680384316" lon="9.550460063604651"><ele>1072.0</ele><time>2026-05-02T13:14:09.999Z</time></trkpt><trkpt lat="44.6318250262173" lon="9.550374380110068"><ele>1069.8</ele><time>2026-05-02T13:14:12.999Z</time></trkpt><trkpt lat="44.63175563967283" lon="9.550281390131216"><ele>1067.6</ele><time>2026-05-02T13:20:34.999Z</time></trkpt><trkpt lat="44.6316501745122" lon="9.550198363977113"><ele>1065.3999999999999</ele><time>2026-05-02T13:20:36.999Z</time></trkpt><trkpt lat="44.63158935369276" lon="9.550153183667804"><ele>1063.2</ele><time>2026-05-02T13:20:37.998Z</time></trkpt><trkpt lat="44.631507614396334" lon="9.550049825864306"><ele>1061.0</ele><time>2026-05-02T13:20:39.998Z</time></trkpt><trkpt lat="44.631464220596655" lon="9.549916606303555"><ele>1061.0</ele><time>2026-05-02T13:20:41.998Z</time></trkpt><trkpt lat="44.63139271430056" lon="9.549770236249632"><ele>1061.0</ele><time>2026-05-02T13:20:43.998Z</time></trkpt><trkpt lat="44.631353806035335" lon="9.549695745209686"><ele>1061.0</ele><time>2026-05-02T13:20:44.998Z</time></trkpt><trkpt lat="44.63127248944102" lon="9.549598681591029"><ele>1061.0</ele><time>2026-05-02T13:20:46.998Z</time></trkpt><trkpt lat="44.63114650674791" lon="9.549527063181015"><ele>1061.0</ele><time>2026-05-02T13:20:48.998Z</time></trkpt><trkpt lat="44.63107606201429" lon="9.549495721897895"><ele>1063.6</ele><time>2026-05-02T13:20:49.998Z</time></trkpt><trkpt lat="44.631016363916544" lon="9.54945971331288"><ele>1066.1999999999998</ele><time>2026-05-02T13:20:50.998Z</time></trkpt><trkpt lat="44.630964545150384" lon="9.549309689351194"><ele>1068.8000000000002</ele><time>2026-05-02T13:20:52.998Z</time></trkpt><trkpt lat="44.630980062561214" lon="9.54911493633001"><ele>1071.4</ele><time>2026-05-02T13:20:54.998Z</time></trkpt><trkpt lat="44.63103213894166" lon="9.549030792383155"><ele>1074.0</ele><time>2026-05-02T13:20:55.998Z</time></trkpt><trkpt lat="44.631081304028285" lon="9.54894037419961"><ele>1070.5</ele><time>2026-05-02T13:20:56.998Z</time></trkpt><trkpt lat="44.631141750805796" lon="9.548898601076756"><ele>1067.0</ele><time>2026-05-02T13:20:57.998Z</time></trkpt><trkpt lat="44.631229915511796" lon="9.548864435564402"><ele>1063.5</ele><time>2026-05-02T13:20:58.998Z</time></trkpt><trkpt lat="44.63130524943264" lon="9.548839812252245"><ele>1060.0</ele><time>2026-05-02T13:20:59.998Z</time></trkpt><trkpt lat="44.63136536661945" lon="9.548807437661994"><ele>1056.5</ele><time>2026-05-02T13:21:00.998Z</time></trkpt><trkpt lat="44.631417183279915" lon="9.548755853545817"><ele>1053.0</ele><time>2026-05-02T13:21:01.998Z</time></trkpt><trkpt lat="44.63147133622558" lon="9.548646504429454"><ele>1053.0</ele><time>2026-05-02T13:21:03.998Z</time></trkpt><trkpt lat="44.631432116498374" lon="9.548485756076115"><ele>1053.0</ele><time>2026-05-02T13:21:05.998Z</time></trkpt><trkpt lat="44.63139819011753" lon="9.548387728308999"><ele>1053.0</ele><time>2026-05-02T13:21:06.998Z</time></trkpt><trkpt lat="44.63136255032792" lon="9.548286938107484"><ele>1053.0</ele><time>2026-05-02T13:21:07.998Z</time></trkpt><trkpt lat="44.6313155249992" lon="9.548179843730573"><ele>1053.0</ele><time>2026-05-02T13:21:08.998Z</time></trkpt><trkpt lat="44.63125340946377" lon="9.54807720819519"><ele>1053.0</ele><time>2026-05-02T13:21:09.998Z</time></trkpt><trkpt lat="44.63118120863111" lon="9.547995103184189"><ele>1053.0</ele><time>2026-05-02T13:21:10.998Z</time></trkpt><trkpt lat="44.63111831461284" lon="9.547891964284123"><ele>1053.0</ele><time>2026-05-02T13:21:11.998Z</time></trkpt><trkpt lat="44.63106868427711" lon="9.547796747041046"><ele>1053.0</ele><time>2026-05-02T13:21:12.998Z</time></trkpt><trkpt lat="44.631004358027035" lon="9.547727769831102"><ele>1053.0</ele><time>2026-05-02T13:21:13.998Z</time></trkpt><trkpt lat="44.63093613721452" lon="9.547684817488706"><ele>1053.0</ele><time>2026-05-02T13:21:14.998Z</time></trkpt><trkpt lat="44.63087764664632" lon="9.547634195260631"><ele>1055.5714285714284</ele><time>2026-05-02T13:21:15.998Z</time></trkpt><trkpt lat="44.630815543312515" lon="9.54757527118452"><ele>1058.142857142857</ele><time>2026-05-02T13:21:17Z</time></trkpt><trkpt lat="44.630758352146294" lon="9.547518970289708"><ele>1060.7142857142858</ele><time>2026-05-02T13:21:18Z</time></trkpt><trkpt lat="44.6307014872482" lon="9.547466801366252"><ele>1063.2857142857142</ele><time>2026-05-02T13:21:19Z</time></trkpt><trkpt lat="44.63063913148007" lon="9.547420954132741"><ele>1065.857142857143</ele><time>2026-05-02T13:21:20Z</time></trkpt><trkpt lat="44.63057561727516" lon="9.54737695147"><ele>1068.4285714285713</ele><time>2026-05-02T13:21:21Z</time></trkpt><trkpt lat="44.63050514908133" lon="9.547340390695975"><ele>1071.0</ele><time>2026-05-02T13:21:22Z</time></trkpt><trkpt lat="44.630443359676896" lon="9.54732076346586"><ele>1071.0</ele><time>2026-05-02T13:21:23Z</time></trkpt><trkpt lat="44.63035573461208" lon="9.54736081422167"><ele>1071.0</ele><time>2026-05-02T13:21:25Z</time></trkpt><trkpt lat="44.6302543258446" lon="9.547397448093003"><ele>1071.0</ele><time>2026-05-02T13:21:27Z</time></trkpt><trkpt lat="44.63014176600073" lon="9.547404554765153"><ele>1071.0</ele><time>2026-05-02T13:21:29Z</time></trkpt><trkpt lat="44.63007835461933" lon="9.54742843782036"><ele>1071.0</ele><time>2026-05-02T13:21:30Z</time></trkpt><trkpt lat="44.63001177779663" lon="9.54745987440613"><ele>1071.0</ele><time>2026-05-02T13:21:31Z</time></trkpt><trkpt lat="44.62991292622018" lon="9.547379751152782"><ele>1071.1666666666667</ele><time>2026-05-02T13:21:33Z</time></trkpt><trkpt lat="44.62989148834654" lon="9.547292539056913"><ele>1071.3333333333333</ele><time>2026-05-02T13:21:34Z</time></trkpt><trkpt lat="44.62987658842838" lon="9.547181380141424"><ele>1071.5</ele><time>2026-05-02T13:21:35Z</time></trkpt><trkpt lat="44.629874229049065" lon="9.547069825528684"><ele>1071.6666666666665</ele><time>2026-05-02T13:21:36Z</time></trkpt><trkpt lat="44.62987246352245" lon="9.546967898140474"><ele>1071.8333333333333</ele><time>2026-05-02T13:21:37Z</time></trkpt><trkpt lat="44.62979001027" lon="9.546866912662473"><ele>1072.0</ele><time>2026-05-02T13:21:39Z</time></trkpt><trkpt lat="44.62966477241176" lon="9.546886164036003"><ele>1072.0</ele><time>2026-05-02T13:21:41Z</time></trkpt><trkpt lat="44.62960423428143" lon="9.546918129271244"><ele>1072.0</ele><time>2026-05-02T13:21:42Z</time></trkpt><trkpt lat="44.6295444753176" lon="9.546946179406804"><ele>1072.0</ele><time>2026-05-02T13:21:43Z</time></trkpt><trkpt lat="44.62948046006715" lon="9.546974038427882"><ele>1072.0</ele><time>2026-05-02T13:21:44Z</time></trkpt><trkpt lat="44.62941620278033" lon="9.547018649449173"><ele>1072.0</ele><time>2026-05-02T13:21:45Z</time></trkpt><trkpt lat="44.62932357855538" lon="9.547002450955995"><ele>1072.0</ele><time>2026-05-02T13:21:47Z</time></trkpt><trkpt lat="44.62920674724702" lon="9.54694907620273"><ele>1076.6</ele><time>2026-05-02T13:21:49Z</time></trkpt><trkpt lat="44.62914361228609" lon="9.546942282011662"><ele>1081.2</ele><time>2026-05-02T13:21:50Z</time></trkpt><trkpt lat="44.62902872429508" lon="9.546926638323797"><ele>1085.8</ele><time>2026-05-02T13:21:52Z</time></trkpt><trkpt lat="44.62889872666562" lon="9.546884433349314"><ele>1090.4</ele><time>2026-05-02T13:21:54Z</time></trkpt><trkpt lat="44.6288290219391" lon="9.546853911547869"><ele>1095.0</ele><time>2026-05-02T13:21:54.999Z</time></trkpt><trkpt lat="44.62876639406915" lon="9.546816846640661"><ele>1094.9999999999998</ele><time>2026-05-02T13:21:55.999Z</time></trkpt><trkpt lat="44.62871290873944" lon="9.54675932459412"><ele>1095.0</ele><time>2026-05-02T13:21:56.999Z</time></trkpt><trkpt lat="44.62862679710258" lon="9.54671345084129"><ele>1095.0</ele><time>2026-05-02T13:21:57.999Z</time></trkpt><trkpt lat="44.62855621998338" lon="9.546721125083469"><ele>1095.0</ele><time>2026-05-02T13:21:58.999Z</time></trkpt><trkpt lat="44.628487117576505" lon="9.546765614176596"><ele>1095.0</ele><time>2026-05-02T13:21:59.999Z</time></trkpt><trkpt lat="44.62842436207865" lon="9.546799889715121"><ele>1094.9999999999998</ele><time>2026-05-02T13:22:00.999Z</time></trkpt><trkpt lat="44.62836494201892" lon="9.546738378338587"><ele>1095.0</ele><time>2026-05-02T13:22:02.999Z</time></trkpt><trkpt lat="44.62833368707677" lon="9.546654277867257"><ele>1099.2</ele><time>2026-05-02T13:22:03.999Z</time></trkpt><trkpt lat="44.62830093909191" lon="9.546567965047826"><ele>1103.4</ele><time>2026-05-02T13:22:04.999Z</time></trkpt><trkpt lat="44.628253555759684" lon="9.546372367515415"><ele>1107.6</ele><time>2026-05-02T13:22:06.999Z</time></trkpt><trkpt lat="44.62818973673584" lon="9.546298792423638"><ele>1111.8</ele><time>2026-05-02T13:22:07.999Z</time></trkpt><trkpt lat="44.628114688673435" lon="9.546268607013303"><ele>1116.0</ele><time>2026-05-02T13:22:08.999Z</time></trkpt><trkpt lat="44.628041154297954" lon="9.546283002004397"><ele>1116.0</ele><time>2026-05-02T13:22:09.999Z</time></trkpt><trkpt lat="44.62797638557205" lon="9.546320166515702"><ele>1116.0</ele><time>2026-05-02T13:22:10.999Z</time></trkpt><trkpt lat="44.62788099053193" lon="9.546367835198323"><ele>1116.0</ele><time>2026-05-02T13:22:12.999Z</time></trkpt><trkpt lat="44.62777368853554" lon="9.546246449258726"><ele>1116.0</ele><time>2026-05-02T13:22:14.999Z</time></trkpt><trkpt lat="44.62768554639605" lon="9.546184629332485"><ele>1116.0</ele><time>2026-05-02T13:22:15.999Z</time></trkpt><trkpt lat="44.62758812965022" lon="9.546134659941616"><ele>1115.1666666666667</ele><time>2026-05-02T13:22:16.999Z</time></trkpt><trkpt lat="44.627486690545965" lon="9.546109689148597"><ele>1114.3333333333333</ele><time>2026-05-02T13:22:17.999Z</time></trkpt><trkpt lat="44.62741890085785" lon="9.546090976575346"><ele>1113.5</ele><time>2026-05-02T13:22:18.999Z</time></trkpt><trkpt lat="44.62736091119969" lon="9.546020376459886"><ele>1112.6666666666665</ele><time>2026-05-02T13:22:20.999Z</time></trkpt><trkpt lat="44.62729831462048" lon="9.545918029131837"><ele>1111.8333333333333</ele><time>2026-05-02T13:22:24.999Z</time></trkpt><trkpt lat="44.62725396968557" lon="9.545816951597619"><ele>1111.0</ele><time>2026-05-02T13:22:25.999Z</time></trkpt><trkpt lat="44.62723033091938" lon="9.54570784495705"><ele>1111.0</ele><time>2026-05-02T13:22:26.999Z</time></trkpt><trkpt lat="44.627183556717966" lon="9.545600642141768"><ele>1111.0</ele><time>2026-05-02T13:22:28.999Z</time></trkpt><trkpt lat="44.62717780873523" lon="9.545511654350271"><ele>1111.0</ele><time>2026-05-02T13:22:30.999Z</time></trkpt><trkpt lat="44.62716751646026" lon="9.545362517824733"><ele>1111.0</ele><time>2026-05-02T13:24:11.999Z</time></trkpt><trkpt lat="44.62723366978912" lon="9.545248326546075"><ele>1111.0</ele><time>2026-05-02T13:24:14.999Z</time></trkpt><trkpt lat="44.627232081156365" lon="9.545129494132341"><ele>1111.0</ele><time>2026-05-02T13:24:16.999Z</time></trkpt><trkpt lat="44.627228387774075" lon="9.544995224333574"><ele>1109.1666666666665</ele><time>2026-05-02T13:24:18.999Z</time></trkpt><trkpt lat="44.627262053549536" lon="9.544839964031048"><ele>1107.3333333333333</ele><time>2026-05-02T13:24:20.999Z</time></trkpt><trkpt lat="44.62724467548312" lon="9.544725805028925"><ele>1105.5</ele><time>2026-05-02T13:24:22.999Z</time></trkpt><trkpt lat="44.62724095435573" lon="9.544617221373507"><ele>1103.6666666666667</ele><time>2026-05-02T13:24:24.999Z</time></trkpt><trkpt lat="44.62732063648587" lon="9.544590967376713"><ele>1101.8333333333335</ele><time>2026-05-02T13:24:30.999Z</time></trkpt><trkpt lat="44.62737570562077" lon="9.544636711122939"><ele>1100.0</ele><time>2026-05-02T13:24:31.999Z</time></trkpt><trkpt lat="44.627435117117635" lon="9.544730888024949"><ele>1100.0</ele><time>2026-05-02T13:24:33.999Z</time></trkpt><trkpt lat="44.62750566439538" lon="9.544847681876236"><ele>1100.0</ele><time>2026-05-02T13:24:35.999Z</time></trkpt><trkpt lat="44.627566353978786" lon="9.544952194928655"><ele>1100.0</ele><time>2026-05-02T13:24:37.999Z</time></trkpt><trkpt lat="44.627648111555885" lon="9.545000909456686"><ele>1100.0</ele><time>2026-05-02T13:24:39.999Z</time></trkpt><trkpt lat="44.62775101773961" lon="9.545062281830711"><ele>1100.0</ele><time>2026-05-02T13:24:41.999Z</time></trkpt><trkpt lat="44.627864749790675" lon="9.545075329549524"><ele>1096.8333333333335</ele><time>2026-05-02T13:24:43.999Z</time></trkpt><trkpt lat="44.62795506897731" lon="9.545058136806944"><ele>1093.6666666666667</ele><time>2026-05-02T13:24:45.999Z</time></trkpt><trkpt lat="44.62802444498374" lon="9.545052809097564"><ele>1090.5</ele><time>2026-05-02T13:24:47.998Z</time></trkpt><trkpt lat="44.62810301959033" lon="9.54509621866268"><ele>1087.3333333333333</ele><time>2026-05-02T13:24:50.998Z</time></trkpt><trkpt lat="44.62817934306664" lon="9.545149025127781"><ele>1084.1666666666665</ele><time>2026-05-02T13:24:53.998Z</time></trkpt><trkpt lat="44.628245942660776" lon="9.545173668391751"><ele>1081.0</ele><time>2026-05-02T13:24:56.998Z</time></trkpt><trkpt lat="44.62831285089335" lon="9.545174451676095"><ele>1081.0</ele><time>2026-05-02T13:24:58.998Z</time></trkpt><trkpt lat="44.62837487099387" lon="9.54520591224992"><ele>1081.0</ele><time>2026-05-02T13:25:00.998Z</time></trkpt><trkpt lat="44.628454105112546" lon="9.545291095759369"><ele>1081.0</ele><time>2026-05-02T13:25:02.998Z</time></trkpt><trkpt lat="44.62852856149887" lon="9.545372320614227"><ele>1081.0</ele><time>2026-05-02T13:25:04.998Z</time></trkpt><trkpt lat="44.628608388337554" lon="9.545423307934458"><ele>1081.0</ele><time>2026-05-02T13:25:06.998Z</time></trkpt><trkpt lat="44.628681916528" lon="9.545494601512866"><ele>1081.0</ele><time>2026-05-02T13:25:08.998Z</time></trkpt><trkpt lat="44.62874565106775" lon="9.545495264794338"><ele>1079.5</ele><time>2026-05-02T13:25:10.998Z</time></trkpt><trkpt lat="44.628808204283104" lon="9.545438354154458"><ele>1078.0</ele><time>2026-05-02T13:25:12.998Z</time></trkpt><trkpt lat="44.62880495824568" lon="9.545336110954148"><ele>1076.5</ele><time>2026-05-02T13:25:16.998Z</time></trkpt><trkpt lat="44.62874790518443" lon="9.54526441998112"><ele>1075.0</ele><time>2026-05-02T13:25:18.998Z</time></trkpt><trkpt lat="44.62875506562621" lon="9.545147136079988"><ele>1073.5</ele><time>2026-05-02T13:25:21.998Z</time></trkpt><trkpt lat="44.62876455162786" lon="9.54505817826697"><ele>1072.0</ele><time>2026-05-02T13:25:24.998Z</time></trkpt><trkpt lat="44.628763935384825" lon="9.544933684801343"><ele>1069.2857142857142</ele><time>2026-05-02T13:25:29Z</time></trkpt><trkpt lat="44.62876577117455" lon="9.544824867586215"><ele>1066.5714285714284</ele><time>2026-05-02T13:25:32Z</time></trkpt><trkpt lat="44.628770886094976" lon="9.544729714105973"><ele>1063.8571428571427</ele><time>2026-05-02T13:25:35Z</time></trkpt><trkpt lat="44.6288161041137" lon="9.544662398635746"><ele>1061.142857142857</ele><time>2026-05-02T13:25:38Z</time></trkpt><trkpt lat="44.62886141943742" lon="9.544599768201081"><ele>1058.4285714285713</ele><time>2026-05-02T13:25:39Z</time></trkpt><trkpt lat="44.62891949047221" lon="9.544551720979793"><ele>1055.7142857142856</ele><time>2026-05-02T13:25:44Z</time></trkpt><trkpt lat="44.62901404664751" lon="9.544587408780588"><ele>1053.0</ele><time>2026-05-02T13:26:25.999Z</time></trkpt><trkpt lat="44.62908967884279" lon="9.544554198318716"><ele>1052.1666666666667</ele><time>2026-05-02T13:27:10.998Z</time></trkpt><trkpt lat="44.62917601958184" lon="9.544529761499264"><ele>1051.3333333333333</ele><time>2026-05-02T13:27:13.998Z</time></trkpt><trkpt lat="44.62919795407494" lon="9.544396309996548"><ele>1050.5</ele><time>2026-05-02T13:27:35Z</time></trkpt><trkpt lat="44.62921368950823" lon="9.544293961791011"><ele>1049.6666666666665</ele><time>2026-05-02T13:27:36Z</time></trkpt><trkpt lat="44.62925570256418" lon="9.544173472136375"><ele>1048.8333333333333</ele><time>2026-05-02T13:27:37Z</time></trkpt><trkpt lat="44.62930690252729" lon="9.544111099538139"><ele>1048.0</ele><time>2026-05-02T13:27:40Z</time></trkpt><trkpt lat="44.62938916610463" lon="9.54403001446557"><ele>1048.0</ele><time>2026-05-02T13:27:43Z</time></trkpt><trkpt lat="44.62942207536966" lon="9.543946285737473"><ele>1048.0</ele><time>2026-05-02T13:27:45Z</time></trkpt><trkpt lat="44.629463108554376" lon="9.543875898501986"><ele>1048.0</ele><time>2026-05-02T13:28:11.999Z</time></trkpt><trkpt lat="44.629524440835574" lon="9.543690247328401"><ele>1048.0</ele><time>2026-05-02T13:28:55.999Z</time></trkpt><trkpt lat="44.62950154623785" lon="9.543597902384487"><ele>1048.0</ele><time>2026-05-02T13:29:08.998Z</time></trkpt><trkpt lat="44.62953480726431" lon="9.543498753805881"><ele>1048.0</ele><time>2026-05-02T13:29:18.998Z</time></trkpt><trkpt lat="44.6295929042998" lon="9.543444708798148"><ele>1045.5714285714287</ele><time>2026-05-02T13:29:21.998Z</time></trkpt><trkpt lat="44.62965746172784" lon="9.543438173673081"><ele>1043.1428571428573</ele><time>2026-05-02T13:29:31.998Z</time></trkpt><trkpt lat="44.62960530976988" lon="9.543507266684683"><ele>1040.7142857142858</ele><time>2026-05-02T13:30:00Z</time></trkpt><trkpt lat="44.62956592192346" lon="9.54358160822642"><ele>1038.2857142857142</ele><time>2026-05-02T13:30:11Z</time></trkpt><trkpt lat="44.62949052622144" lon="9.543652103410029"><ele>1035.8571428571427</ele><time>2026-05-02T13:31:33.998Z</time></trkpt><trkpt lat="44.62954940499726" lon="9.543690970562986"><ele>1033.4285714285713</ele><time>2026-05-02T13:32:19Z</time></trkpt><trkpt lat="44.62949761895978" lon="9.543602662533825"><ele>1031.0</ele><time>2026-05-02T13:36:27Z</time></trkpt><trkpt lat="44.62952400792126" lon="9.54352171497099"><ele>1031.0</ele><time>2026-05-02T13:36:41.999Z</time></trkpt><trkpt lat="44.62956668941674" lon="9.543448968774271"><ele>1031.0</ele><time>2026-05-02T13:36:52.999Z</time></trkpt><trkpt lat="44.62962770247688" lon="9.543416982984398"><ele>1031.0</ele><time>2026-05-02T13:37:03.999Z</time></trkpt><trkpt lat="44.62969988117516" lon="9.543399627873875"><ele>1031.0</ele><time>2026-05-02T13:38:58.999Z</time></trkpt><trkpt lat="44.62977005767632" lon="9.543321703449354"><ele>1031.0</ele><time>2026-05-02T13:39:01.999Z</time></trkpt><trkpt lat="44.62984716296406" lon="9.543231069085563"><ele>1031.0</ele><time>2026-05-02T13:39:03.999Z</time></trkpt><trkpt lat="44.62990196053792" lon="9.54316230806177"><ele>1031.0</ele><time>2026-05-02T13:39:05.999Z</time></trkpt><trkpt lat="44.6299785197482" lon="9.543059778050262"><ele>1031.0</ele><time>2026-05-02T13:39:07.999Z</time></trkpt><trkpt lat="44.63001950834708" lon="9.542984596693088"><ele>1031.0</ele><time>2026-05-02T13:39:09.999Z</time></trkpt><trkpt lat="44.630075999246344" lon="9.54293839819297"><ele>1031.0</ele><time>2026-05-02T13:39:12.999Z</time></trkpt><trkpt lat="44.63014075056355" lon="9.542873869876773"><ele>1031.0</ele><time>2026-05-02T13:39:15.999Z</time></trkpt><trkpt lat="44.63020963270255" lon="9.54279588860996"><ele>1031.0</ele><time>2026-05-02T13:39:18.999Z</time></trkpt><trkpt lat="44.63028846866189" lon="9.542732184164732"><ele>1028.2</ele><time>2026-05-02T13:39:20.999Z</time></trkpt><trkpt lat="44.63038327002907" lon="9.542691553729217"><ele>1025.3999999999999</ele><time>2026-05-02T13:39:23.999Z</time></trkpt><trkpt lat="44.630506447821716" lon="9.542657934050263"><ele>1022.6</ele><time>2026-05-02T13:39:25.999Z</time></trkpt><trkpt lat="44.630593762269605" lon="9.542652892614637"><ele>1019.8</ele><time>2026-05-02T13:39:27.999Z</time></trkpt><trkpt lat="44.630693203394515" lon="9.542629679355594"><ele>1017.0</ele><time>2026-05-02T13:39:29.999Z</time></trkpt><trkpt lat="44.630760433849936" lon="9.542620867376158"><ele>1017.0</ele><time>2026-05-02T13:39:30.999Z</time></trkpt><trkpt lat="44.63088439741505" lon="9.542561529978881"><ele>1017.0</ele><time>2026-05-02T13:39:32.998Z</time></trkpt><trkpt lat="44.63094671595232" lon="9.542522437290074"><ele>1017.0</ele><time>2026-05-02T13:39:33.998Z</time></trkpt><trkpt lat="44.63103357035458" lon="9.542535801822797"><ele>1017.0</ele><time>2026-05-02T13:39:36.998Z</time></trkpt><trkpt lat="44.63110477551179" lon="9.542515069959117"><ele>1017.0</ele><time>2026-05-02T13:39:38.998Z</time></trkpt><trkpt lat="44.63117134293672" lon="9.54249221871775"><ele>1017.0</ele><time>2026-05-02T13:39:40.998Z</time></trkpt><trkpt lat="44.63123605445592" lon="9.542466379843646"><ele>1014.3333333333334</ele><time>2026-05-02T13:39:42.998Z</time></trkpt><trkpt lat="44.63131169778807" lon="9.542403078895724"><ele>1011.6666666666667</ele><time>2026-05-02T13:39:45.998Z</time></trkpt><trkpt lat="44.631352807275135" lon="9.54228222100278"><ele>1009.0</ele><time>2026-05-02T13:39:47.998Z</time></trkpt><trkpt lat="44.63142717899989" lon="9.54226057012088"><ele>1006.3333333333334</ele><time>2026-05-02T13:39:50.998Z</time></trkpt><trkpt lat="44.631501397504586" lon="9.542178953716453"><ele>1003.6666666666667</ele><time>2026-05-02T13:39:53.998Z</time></trkpt><trkpt lat="44.63156302072508" lon="9.542160869089537"><ele>1001.0</ele><time>2026-05-02T13:39:54.998Z</time></trkpt><trkpt lat="44.63163577530326" lon="9.542126726517168"><ele>1001.5000000000001</ele><time>2026-05-02T13:39:56.998Z</time></trkpt><trkpt lat="44.63170519270719" lon="9.54203060560001"><ele>1002.0</ele><time>2026-05-02T13:39:58.998Z</time></trkpt><trkpt lat="44.63179587242447" lon="9.541927533275155"><ele>1002.5</ele><time>2026-05-02T13:40:00.998Z</time></trkpt><trkpt lat="44.63185668468909" lon="9.541869269119475"><ele>1003.0</ele><time>2026-05-02T13:40:02.998Z</time></trkpt><trkpt lat="44.63191378623075" lon="9.541783784139076"><ele>1003.5000000000001</ele><time>2026-05-02T13:40:04.998Z</time></trkpt><trkpt lat="44.6319595274943" lon="9.541711615637617"><ele>1004.0</ele><time>2026-05-02T13:40:05.998Z</time></trkpt><trkpt lat="44.63197557019234" lon="9.54159091404975"><ele>1001.8333333333334</ele><time>2026-05-02T13:40:07.998Z</time></trkpt><trkpt lat="44.63199307485002" lon="9.541454420778354"><ele>999.6666666666667</ele><time>2026-05-02T13:40:09.998Z</time></trkpt><trkpt lat="44.63202053829239" lon="9.541363131619637"><ele>997.5</ele><time>2026-05-02T13:40:12Z</time></trkpt><trkpt lat="44.632001918279876" lon="9.54126322321889"><ele>995.3333333333333</ele><time>2026-05-02T13:40:14Z</time></trkpt><trkpt lat="44.6320632087637" lon="9.541190363450642"><ele>993.1666666666666</ele><time>2026-05-02T13:40:16Z</time></trkpt><trkpt lat="44.63213224244674" lon="9.54112664434022"><ele>991.0</ele><time>2026-05-02T13:40:18Z</time></trkpt><trkpt lat="44.63220228378302" lon="9.54109661829605"><ele>989.5999999999999</ele><time>2026-05-02T13:40:20Z</time></trkpt><trkpt lat="44.63228932629062" lon="9.541008435420915"><ele>988.1999999999999</ele><time>2026-05-02T13:40:22Z</time></trkpt><trkpt lat="44.63234646875263" lon="9.54093429182328"><ele>986.8000000000001</ele><time>2026-05-02T13:40:24Z</time></trkpt><trkpt lat="44.63242355873805" lon="9.540846145045872"><ele>985.4000000000001</ele><time>2026-05-02T13:40:26Z</time></trkpt><trkpt lat="44.63247077487474" lon="9.540752089457719"><ele>984.0</ele><time>2026-05-02T13:40:28Z</time></trkpt><trkpt lat="44.63246432747248" lon="9.540620585226506"><ele>984.0</ele><time>2026-05-02T13:40:30Z</time></trkpt><trkpt lat="44.63250149466699" lon="9.540531756554973"><ele>984.0</ele><time>2026-05-02T13:40:32Z</time></trkpt><trkpt lat="44.63257221105231" lon="9.54044872688201"><ele>984.0</ele><time>2026-05-02T13:40:34Z</time></trkpt><trkpt lat="44.632635178114825" lon="9.54036032542598"><ele>984.0</ele><time>2026-05-02T13:40:36Z</time></trkpt><trkpt lat="44.632686025246755" lon="9.54026730759611"><ele>984.0</ele><time>2026-05-02T13:40:38Z</time></trkpt><trkpt lat="44.632729820518634" lon="9.540170026465452"><ele>984.0</ele><time>2026-05-02T13:40:40Z</time></trkpt><trkpt lat="44.63278972005086" lon="9.540094367853502"><ele>983.3333333333334</ele><time>2026-05-02T13:40:42Z</time></trkpt><trkpt lat="44.63285546995609" lon="9.540010727405312"><ele>982.6666666666667</ele><time>2026-05-02T13:40:45Z</time></trkpt><trkpt lat="44.63289045399973" lon="9.539926600990514"><ele>982.0</ele><time>2026-05-02T13:40:51.999Z</time></trkpt><trkpt lat="44.63289651654401" lon="9.539826882592452"><ele>981.3333333333334</ele><time>2026-05-02T13:40:54.999Z</time></trkpt><trkpt lat="44.632925175620564" lon="9.539716765588972"><ele>980.6666666666667</ele><time>2026-05-02T13:40:58.999Z</time></trkpt><trkpt lat="44.6329378829649" lon="9.539594148180836"><ele>980.0</ele><time>2026-05-02T13:41:02.999Z</time></trkpt><trkpt lat="44.63290266399192" lon="9.539510724610276"><ele>977.2</ele><time>2026-05-02T13:41:06.999Z</time></trkpt><trkpt lat="44.63285434694768" lon="9.53943217387264"><ele>974.4</ele><time>2026-05-02T13:41:09.999Z</time></trkpt><trkpt lat="44.63282326043602" lon="9.539320812216216"><ele>971.5999999999999</ele><time>2026-05-02T13:41:12.999Z</time></trkpt><trkpt lat="44.632845275991244" lon="9.539146150847307"><ele>968.8</ele><time>2026-05-02T13:41:15.999Z</time></trkpt><trkpt lat="44.63289845393055" lon="9.539027763367065"><ele>966.0</ele><time>2026-05-02T13:41:17.999Z</time></trkpt><trkpt lat="44.63289420313859" lon="9.538914173475789"><ele>966.0</ele><time>2026-05-02T13:41:18.999Z</time></trkpt><trkpt lat="44.63284623369228" lon="9.538763833388714"><ele>965.9999999999999</ele><time>2026-05-02T13:41:19.999Z</time></trkpt><trkpt lat="44.63280610136615" lon="9.538605893513369"><ele>965.9999999999999</ele><time>2026-05-02T13:41:20.999Z</time></trkpt><trkpt lat="44.632809726999646" lon="9.538447395577503"><ele>966.0</ele><time>2026-05-02T13:41:21.999Z</time></trkpt><trkpt lat="44.63280309446593" lon="9.538327308498959"><ele>966.0</ele><time>2026-05-02T13:41:22.999Z</time></trkpt><trkpt lat="44.632821281049594" lon="9.538220042783315"><ele>962.5999999999999</ele><time>2026-05-02T13:41:23.999Z</time></trkpt><trkpt lat="44.63287205891744" lon="9.538067085660009"><ele>959.1999999999999</ele><time>2026-05-02T13:41:25.999Z</time></trkpt><trkpt lat="44.632875117987865" lon="9.537923422293655"><ele>955.8000000000001</ele><time>2026-05-02T13:41:27.999Z</time></trkpt><trkpt lat="44.63292601170489" lon="9.537787255282463"><ele>952.4000000000001</ele><time>2026-05-02T13:41:29.999Z</time></trkpt><trkpt lat="44.63297015405501" lon="9.537665933149082"><ele>949.0</ele><time>2026-05-02T13:41:31.999Z</time></trkpt><trkpt lat="44.632986179128174" lon="9.537569524740901"><ele>946.4999999999999</ele><time>2026-05-02T13:41:33.999Z</time></trkpt><trkpt lat="44.633008258982585" lon="9.537459054878337"><ele>944.0</ele><time>2026-05-02T13:41:35.998Z</time></trkpt><trkpt lat="44.63302662284783" lon="9.537348349594778"><ele>941.5</ele><time>2026-05-02T13:41:37.998Z</time></trkpt><trkpt lat="44.633043141473046" lon="9.537248763164616"><ele>939.0</ele><time>2026-05-02T13:41:41.998Z</time></trkpt><trkpt lat="44.63309888642521" lon="9.53716191208053"><ele>936.4999999999999</ele><time>2026-05-02T13:41:43.998Z</time></trkpt><trkpt lat="44.63321327216294" lon="9.537166221985688"><ele>934.0</ele><time>2026-05-02T13:41:45.998Z</time></trkpt><trkpt lat="44.63327694714098" lon="9.537173475496301"><ele>934.0</ele><time>2026-05-02T13:41:46.998Z</time></trkpt><trkpt lat="44.633369239306376" lon="9.537172335331947"><ele>934.0000000000001</ele><time>2026-05-02T13:41:48.998Z</time></trkpt><trkpt lat="44.633453393420396" lon="9.537164036643684"><ele>934.0000000000001</ele><time>2026-05-02T13:41:50.998Z</time></trkpt><trkpt lat="44.63353116459343" lon="9.537110585114421"><ele>934.0</ele><time>2026-05-02T13:41:51.998Z</time></trkpt><trkpt lat="44.633638240428745" lon="9.537054530275034"><ele>934.0</ele><time>2026-05-02T13:41:52.998Z</time></trkpt><trkpt lat="44.63374957161488" lon="9.537072620430232"><ele>932.0</ele><time>2026-05-02T13:41:53.998Z</time></trkpt><trkpt lat="44.63383256215532" lon="9.537059112450828"><ele>930.0000000000001</ele><time>2026-05-02T13:41:54.998Z</time></trkpt><trkpt lat="44.63390212869069" lon="9.53705420533328"><ele>928.0000000000001</ele><time>2026-05-02T13:41:55.998Z</time></trkpt><trkpt lat="44.633969082317456" lon="9.537079441207771"><ele>926.0</ele><time>2026-05-02T13:41:57.998Z</time></trkpt><trkpt lat="44.63409284788774" lon="9.537195719255466"><ele>924.0</ele><time>2026-05-02T13:41:59.998Z</time></trkpt><trkpt lat="44.634173942023075" lon="9.537243056701298"><ele>924.0</ele><time>2026-05-02T13:42:01.998Z</time></trkpt><trkpt lat="44.63423573480306" lon="9.53727086769453"><ele>924.0</ele><time>2026-05-02T13:42:03.998Z</time></trkpt><trkpt lat="44.634326560846645" lon="9.537329719186074"><ele>924.0</ele><time>2026-05-02T13:42:05.998Z</time></trkpt><trkpt lat="44.634386672401774" lon="9.53738576110808"><ele>924.0</ele><time>2026-05-02T13:42:07.998Z</time></trkpt><trkpt lat="44.63445845746787" lon="9.5374382162486"><ele>924.0</ele><time>2026-05-02T13:42:09.998Z</time></trkpt><trkpt lat="44.63451399213048" lon="9.537482667736985"><ele>924.0</ele><time>2026-05-02T13:42:11.998Z</time></trkpt><trkpt lat="44.63460496136588" lon="9.53750603847122"><ele>921.5</ele><time>2026-05-02T13:42:14.998Z</time></trkpt><trkpt lat="44.63468578620802" lon="9.537527780704833"><ele>919.0</ele><time>2026-05-02T13:42:17Z</time></trkpt><trkpt lat="44.634784491565306" lon="9.537527158380788"><ele>916.5</ele><time>2026-05-02T13:42:20Z</time></trkpt><trkpt lat="44.63484506081989" lon="9.537500901394901"><ele>914.0</ele><time>2026-05-02T13:42:22Z</time></trkpt><trkpt lat="44.6349354103625" lon="9.537475881523639"><ele>911.5</ele><time>2026-05-02T13:42:25Z</time></trkpt><trkpt lat="44.63499751790181" lon="9.537442387713453"><ele>909.0</ele><time>2026-05-02T13:42:27Z</time></trkpt><trkpt lat="44.63506851079631" lon="9.537345501914007"><ele>909.0</ele><time>2026-05-02T13:42:29Z</time></trkpt><trkpt lat="44.63512511619564" lon="9.537289713555865"><ele>909.0</ele><time>2026-05-02T13:42:31Z</time></trkpt><trkpt lat="44.63522608880297" lon="9.537295478174887"><ele>909.0</ele><time>2026-05-02T13:42:33Z</time></trkpt><trkpt lat="44.63533827040065" lon="9.53729164962802"><ele>909.0</ele><time>2026-05-02T13:42:35Z</time></trkpt><trkpt lat="44.63540276223839" lon="9.537269204463184"><ele>909.0</ele><time>2026-05-02T13:42:36Z</time></trkpt><trkpt lat="44.63547435226179" lon="9.537259882830933"><ele>909.0</ele><time>2026-05-02T13:42:37Z</time></trkpt><trkpt lat="44.63556960909527" lon="9.537207125967143"><ele>907.8333333333334</ele><time>2026-05-02T13:42:39Z</time></trkpt><trkpt lat="44.63563868378231" lon="9.537181382224247"><ele>906.6666666666667</ele><time>2026-05-02T13:42:41Z</time></trkpt><trkpt lat="44.63571166281195" lon="9.537120422573844"><ele>905.5</ele><time>2026-05-02T13:42:43Z</time></trkpt><trkpt lat="44.63576207429088" lon="9.537029024118471"><ele>904.3333333333334</ele><time>2026-05-02T13:42:45Z</time></trkpt><trkpt lat="44.635800433548866" lon="9.536861485031398"><ele>903.1666666666667</ele><time>2026-05-02T13:42:47Z</time></trkpt><trkpt lat="44.635831806716" lon="9.536776388438748"><ele>902.0</ele><time>2026-05-02T13:42:48Z</time></trkpt><trkpt lat="44.635876778388116" lon="9.536710221630742"><ele>900.4000000000001</ele><time>2026-05-02T13:42:49Z</time></trkpt><trkpt lat="44.6359468488617" lon="9.53660669501989"><ele>898.8000000000001</ele><time>2026-05-02T13:42:51Z</time></trkpt><trkpt lat="44.63599856266399" lon="9.536480347225057"><ele>897.2</ele><time>2026-05-02T13:42:52.999Z</time></trkpt><trkpt lat="44.636035586338366" lon="9.536359658051381"><ele>895.6</ele><time>2026-05-02T13:42:54.999Z</time></trkpt><trkpt lat="44.63612550519344" lon="9.536291117114041"><ele>894.0</ele><time>2026-05-02T13:42:56.999Z</time></trkpt><trkpt lat="44.636213393151074" lon="9.536216224700146"><ele>891.6</ele><time>2026-05-02T13:42:57.999Z</time></trkpt><trkpt lat="44.63629745312476" lon="9.536129095515916"><ele>889.2</ele><time>2026-05-02T13:42:58.999Z</time></trkpt><trkpt lat="44.63636550560579" lon="9.536060274649767"><ele>886.8000000000001</ele><time>2026-05-02T13:42:59.999Z</time></trkpt><trkpt lat="44.63644940125211" lon="9.535984533703203"><ele>884.4000000000001</ele><time>2026-05-02T13:43:01.999Z</time></trkpt><trkpt lat="44.636543139617096" lon="9.535950376484177"><ele>882.0</ele><time>2026-05-02T13:43:03.999Z</time></trkpt><trkpt lat="44.63665595667166" lon="9.535950918236937"><ele>882.0</ele><time>2026-05-02T13:43:05.999Z</time></trkpt><trkpt lat="44.636784645762084" lon="9.535949398465876"><ele>882.0</ele><time>2026-05-02T13:43:07.999Z</time></trkpt><trkpt lat="44.63686809326419" lon="9.535932971890428"><ele>882.0</ele><time>2026-05-02T13:43:09.999Z</time></trkpt><trkpt lat="44.63691170132783" lon="9.535827810659319"><ele>882.0</ele><time>2026-05-02T13:49:00Z</time></trkpt><trkpt lat="44.6369258524363" lon="9.535696322053225"><ele>882.0</ele><time>2026-05-02T13:49:02Z</time></trkpt><trkpt lat="44.63693074519489" lon="9.535582454894891"><ele>882.0</ele><time>2026-05-02T13:49:05Z</time></trkpt><trkpt lat="44.636941007288655" lon="9.53547263549732"><ele>882.0</ele><time>2026-05-02T13:49:08Z</time></trkpt><trkpt lat="44.63691657923656" lon="9.535388756772182"><ele>882.0</ele><time>2026-05-02T13:49:11Z</time></trkpt><trkpt lat="44.63685498617515" lon="9.535338896836794"><ele>882.0</ele><time>2026-05-02T13:49:14.999Z</time></trkpt><trkpt lat="44.63679596068255" lon="9.535276004239934"><ele>882.0</ele><time>2026-05-02T13:56:10.999Z</time></trkpt><trkpt lat="44.63672242200041" lon="9.535222594872627"><ele>882.0</ele><time>2026-05-02T13:56:12.999Z</time></trkpt><trkpt lat="44.636647201885296" lon="9.535139580150696"><ele>880.3333333333334</ele><time>2026-05-02T13:56:14.999Z</time></trkpt><trkpt lat="44.636552481778615" lon="9.535033918366247"><ele>878.6666666666667</ele><time>2026-05-02T13:56:16.998Z</time></trkpt><trkpt lat="44.636479452163115" lon="9.534976731882406"><ele>877.0</ele><time>2026-05-02T13:56:17.998Z</time></trkpt><trkpt lat="44.636408847708864" lon="9.534916407423323"><ele>875.3333333333334</ele><time>2026-05-02T13:56:18.998Z</time></trkpt><trkpt lat="44.63636372405061" lon="9.534847077423692"><ele>873.6666666666667</ele><time>2026-05-02T13:56:19.998Z</time></trkpt><trkpt lat="44.63634206813225" lon="9.534744993976904"><ele>872.0</ele><time>2026-05-02T13:56:21.998Z</time></trkpt><trkpt lat="44.63638100064349" lon="9.534594365822606"><ele>871.5000000000001</ele><time>2026-05-02T13:56:23.998Z</time></trkpt><trkpt lat="44.63641800054091" lon="9.53448485652416"><ele>871.0</ele><time>2026-05-02T13:56:24.998Z</time></trkpt><trkpt lat="44.63646281805405" lon="9.53437608220913"><ele>870.5</ele><time>2026-05-02T13:56:25.998Z</time></trkpt><trkpt lat="44.63654957758137" lon="9.53427581460609"><ele>870.0</ele><time>2026-05-02T13:56:27.998Z</time></trkpt><trkpt lat="44.63661716570739" lon="9.534251362558987"><ele>869.5000000000001</ele><time>2026-05-02T13:56:28.998Z</time></trkpt><trkpt lat="44.636680166207434" lon="9.534224729048953"><ele>869.0</ele><time>2026-05-02T13:56:29.998Z</time></trkpt><trkpt lat="44.63680720814448" lon="9.534229890882404"><ele>869.0000000000001</ele><time>2026-05-02T13:56:31.998Z</time></trkpt><trkpt lat="44.63692741567923" lon="9.534233159346575"><ele>869.0</ele><time>2026-05-02T13:56:33.998Z</time></trkpt><trkpt lat="44.636995466529534" lon="9.534249755195185"><ele>869.0</ele><time>2026-05-02T13:56:34.998Z</time></trkpt><trkpt lat="44.637077408553004" lon="9.534269391062633"><ele>869.0</ele><time>2026-05-02T13:56:35.998Z</time></trkpt><trkpt lat="44.63715109085691" lon="9.534275341297624"><ele>869.0000000000001</ele><time>2026-05-02T13:56:36.998Z</time></trkpt><trkpt lat="44.63723530855219" lon="9.534201040175105"><ele>869.0</ele><time>2026-05-02T13:56:38.998Z</time></trkpt><trkpt lat="44.6373314843045" lon="9.534144557352285"><ele>868.6</ele><time>2026-05-02T13:56:40.998Z</time></trkpt><trkpt lat="44.637431780898304" lon="9.53411555033231"><ele>868.2</ele><time>2026-05-02T13:56:42.998Z</time></trkpt><trkpt lat="44.63753057926376" lon="9.534106448236649"><ele>867.8000000000001</ele><time>2026-05-02T13:56:44.998Z</time></trkpt><trkpt lat="44.63761500394202" lon="9.534041028225566"><ele>867.4000000000001</ele><time>2026-05-02T13:56:46.998Z</time></trkpt><trkpt lat="44.63768091100756" lon="9.533958082376385"><ele>867.0</ele><time>2026-05-02T13:56:48.998Z</time></trkpt><trkpt lat="44.63775495707845" lon="9.533891027809508"><ele>867.0</ele><time>2026-05-02T13:56:51.998Z</time></trkpt><trkpt lat="44.63780120280224" lon="9.533823637283023"><ele>867.0</ele><time>2026-05-02T13:57:07Z</time></trkpt><trkpt lat="44.637840322820125" lon="9.533732445688145"><ele>867.0</ele><time>2026-05-02T13:57:08Z</time></trkpt><trkpt lat="44.63789164270628" lon="9.533613798485295"><ele>867.0</ele><time>2026-05-02T13:57:09Z</time></trkpt><trkpt lat="44.63792362838625" lon="9.533510718452156"><ele>867.0</ele><time>2026-05-02T13:57:10Z</time></trkpt><trkpt lat="44.63793323734031" lon="9.533387240563371"><ele>867.0</ele><time>2026-05-02T13:57:11Z</time></trkpt><trkpt lat="44.63795006859288" lon="9.533279267313755"><ele>863.8333333333334</ele><time>2026-05-02T13:57:12Z</time></trkpt><trkpt lat="44.63794901843538" lon="9.53312923947271"><ele>860.6666666666667</ele><time>2026-05-02T13:57:14Z</time></trkpt><trkpt lat="44.637959821826826" lon="9.533001633333543"><ele>857.5</ele><time>2026-05-02T13:57:16Z</time></trkpt><trkpt lat="44.63798014090877" lon="9.532908300498368"><ele>854.3333333333334</ele><time>2026-05-02T13:57:18Z</time></trkpt><trkpt lat="44.638051417550265" lon="9.53283056116973"><ele>851.1666666666667</ele><time>2026-05-02T13:57:20Z</time></trkpt><trkpt lat="44.63812207667269" lon="9.532773098237692"><ele>848.0</ele><time>2026-05-02T13:57:21Z</time></trkpt><trkpt lat="44.63821382509999" lon="9.532680049829588"><ele>847.2</ele><time>2026-05-02T13:57:22Z</time></trkpt><trkpt lat="44.63827457162909" lon="9.532614049110032"><ele>846.4</ele><time>2026-05-02T13:57:23Z</time></trkpt><trkpt lat="44.63832517227934" lon="9.532539517876634"><ele>845.6</ele><time>2026-05-02T13:57:24Z</time></trkpt><trkpt lat="44.6383724431817" lon="9.532423512927897"><ele>844.8000000000001</ele><time>2026-05-02T13:57:25Z</time></trkpt><trkpt lat="44.63842671041573" lon="9.532265760046538"><ele>844.0</ele><time>2026-05-02T13:57:26Z</time></trkpt><trkpt lat="44.63846733856684" lon="9.532087781300778"><ele>843.2</ele><time>2026-05-02T13:57:27Z</time></trkpt><trkpt lat="44.63850235585982" lon="9.531932607510827"><ele>842.4000000000001</ele><time>2026-05-02T13:57:28Z</time></trkpt><trkpt lat="44.638528319579464" lon="9.531812079482096"><ele>841.6</ele><time>2026-05-02T13:57:29Z</time></trkpt><trkpt lat="44.63857520889731" lon="9.531727337397093"><ele>840.8</ele><time>2026-05-02T13:57:30Z</time></trkpt><trkpt lat="44.638617366781766" lon="9.531650020003232"><ele>840.0</ele><time>2026-05-02T13:57:31Z</time></trkpt><trkpt lat="44.63858830761687" lon="9.531474265981398"><ele>840.0</ele><time>2026-05-02T13:57:33Z</time></trkpt><trkpt lat="44.6385397708019" lon="9.531356613558312"><ele>840.0</ele><time>2026-05-02T13:57:33.999Z</time></trkpt><trkpt lat="44.63847910534104" lon="9.531249744806292"><ele>840.0</ele><time>2026-05-02T13:57:34.999Z</time></trkpt><trkpt lat="44.63838686776386" lon="9.531151727728169"><ele>840.0</ele><time>2026-05-02T13:57:35.999Z</time></trkpt><trkpt lat="44.63832658050437" lon="9.531046384858433"><ele>840.0</ele><time>2026-05-02T13:57:36.999Z</time></trkpt><trkpt lat="44.638307435186334" lon="9.53095482191883"><ele>839.0</ele><time>2026-05-02T13:57:37.999Z</time></trkpt><trkpt lat="44.638337697723195" lon="9.530783106356012"><ele>838.0</ele><time>2026-05-02T13:57:39.999Z</time></trkpt><trkpt lat="44.63837341964399" lon="9.530665960601489"><ele>837.0</ele><time>2026-05-02T13:57:40.999Z</time></trkpt><trkpt lat="44.63841571414044" lon="9.530570616587564"><ele>836.0</ele><time>2026-05-02T13:57:41.999Z</time></trkpt><trkpt lat="44.638483887632" lon="9.530479196560783"><ele>835.0</ele><time>2026-05-02T13:57:42.999Z</time></trkpt><trkpt lat="44.63857956383828" lon="9.530388531286464"><ele>833.4</ele><time>2026-05-02T13:57:43.999Z</time></trkpt><trkpt lat="44.63869039613234" lon="9.530313816607483"><ele>831.8</ele><time>2026-05-02T13:57:44.999Z</time></trkpt><trkpt lat="44.63880568516177" lon="9.530257490884999"><ele>830.2</ele><time>2026-05-02T13:57:45.999Z</time></trkpt><trkpt lat="44.63891038571512" lon="9.530207300347094"><ele>828.6</ele><time>2026-05-02T13:57:46.999Z</time></trkpt><trkpt lat="44.638987808081616" lon="9.530171545559439"><ele>827.0</ele><time>2026-05-02T13:57:47.999Z</time></trkpt><trkpt lat="44.639080017652766" lon="9.530151708614603"><ele>827.0</ele><time>2026-05-02T13:57:48.999Z</time></trkpt><trkpt lat="44.63916495932224" lon="9.53014375014982"><ele>827.0</ele><time>2026-05-02T13:57:49.999Z</time></trkpt><trkpt lat="44.639228981166866" lon="9.530129981687983"><ele>827.0</ele><time>2026-05-02T13:57:50.999Z</time></trkpt><trkpt lat="44.639352160250255" lon="9.530194107810644"><ele>827.0</ele><time>2026-05-02T13:57:52.999Z</time></trkpt><trkpt lat="44.63943732418365" lon="9.530295651816987"><ele>827.0</ele><time>2026-05-02T13:57:53.999Z</time></trkpt><trkpt lat="44.6395153257668" lon="9.53035102113422"><ele>826.8333333333334</ele><time>2026-05-02T13:57:54.999Z</time></trkpt><trkpt lat="44.63958816741649" lon="9.530346061208444"><ele>826.6666666666667</ele><time>2026-05-02T13:57:55.999Z</time></trkpt><trkpt lat="44.63967519928027" lon="9.530285208957382"><ele>826.5</ele><time>2026-05-02T13:57:56.999Z</time></trkpt><trkpt lat="44.63974333590299" lon="9.530258906824823"><ele>826.3333333333333</ele><time>2026-05-02T13:57:57.999Z</time></trkpt><trkpt lat="44.63981136572453" lon="9.530299426010911"><ele>826.1666666666666</ele><time>2026-05-02T13:57:58.999Z</time></trkpt><trkpt lat="44.639890028126906" lon="9.530381322118803"><ele>826.0</ele><time>2026-05-02T13:57:59.999Z</time></trkpt><trkpt lat="44.639993276134" lon="9.530419368988134"><ele>825.8</ele><time>2026-05-02T13:58:00.999Z</time></trkpt><trkpt lat="44.640088243833105" lon="9.530379338838634"><ele>825.5999999999999</ele><time>2026-05-02T13:58:01.999Z</time></trkpt><trkpt lat="44.64018177474023" lon="9.530343495334268"><ele>825.4</ele><time>2026-05-02T13:58:02.999Z</time></trkpt><trkpt lat="44.64025663908675" lon="9.530356196714278"><ele>825.2</ele><time>2026-05-02T13:58:03.999Z</time></trkpt><trkpt lat="44.64035304519016" lon="9.530381325491192"><ele>825.0</ele><time>2026-05-02T13:58:04.999Z</time></trkpt><trkpt lat="44.640452107526436" lon="9.53037235232342"><ele>824.0</ele><time>2026-05-02T13:58:05.999Z</time></trkpt><trkpt lat="44.64056052448578" lon="9.530353623527727"><ele>823.0</ele><time>2026-05-02T13:58:06.999Z</time></trkpt><trkpt lat="44.64069065167269" lon="9.530329776739444"><ele>822.0</ele><time>2026-05-02T13:58:07.999Z</time></trkpt><trkpt lat="44.64080486292874" lon="9.530276988259452"><ele>821.0</ele><time>2026-05-02T13:58:08.999Z</time></trkpt><trkpt lat="44.64087501593071" lon="9.530233816029629"><ele>820.0</ele><time>2026-05-02T13:58:09.999Z</time></trkpt><trkpt lat="44.640937020007186" lon="9.530109808216885"><ele>820.0</ele><time>2026-05-02T13:58:11.999Z</time></trkpt><trkpt lat="44.64091187887649" lon="9.529904779535885"><ele>820.0</ele><time>2026-05-02T13:58:13.999Z</time></trkpt><trkpt lat="44.640865785080656" lon="9.529786255991553"><ele>820.0</ele><time>2026-05-02T13:58:14.999Z</time></trkpt><trkpt lat="44.640791171755616" lon="9.529704233892126"><ele>820.0</ele><time>2026-05-02T13:58:15.999Z</time></trkpt><trkpt lat="44.640717448508205" lon="9.529632214275642"><ele>820.0</ele><time>2026-05-02T13:58:16.999Z</time></trkpt><trkpt lat="44.64065934991962" lon="9.529551127408261"><ele>819.0</ele><time>2026-05-02T13:58:17.999Z</time></trkpt><trkpt lat="44.640639932743724" lon="9.52946450354091"><ele>818.0</ele><time>2026-05-02T13:58:19.999Z</time></trkpt><trkpt lat="44.6406853588288" lon="9.529354467494628"><ele>817.0</ele><time>2026-05-02T13:58:22.998Z</time></trkpt><trkpt lat="44.64077509418507" lon="9.529332501077798"><ele>816.0</ele><time>2026-05-02T13:58:24.998Z</time></trkpt><trkpt lat="44.64091699078731" lon="9.529316077075705"><ele>815.0</ele><time>2026-05-02T13:58:26.998Z</time></trkpt><trkpt lat="44.64102308644147" lon="9.529316092751705"><ele>815.0</ele><time>2026-05-02T13:58:27.998Z</time></trkpt><trkpt lat="44.64112833408509" lon="9.529304970147908"><ele>815.0</ele><time>2026-05-02T13:58:28.998Z</time></trkpt><trkpt lat="44.641228951970426" lon="9.529288759393477"><ele>815.0</ele><time>2026-05-02T13:58:29.998Z</time></trkpt><trkpt lat="44.64131390035524" lon="9.52928673649639"><ele>815.0</ele><time>2026-05-02T13:58:30.998Z</time></trkpt><trkpt lat="44.64138058648088" lon="9.529285686111535"><ele>815.0</ele><time>2026-05-02T13:58:31.998Z</time></trkpt><trkpt lat="44.6414856684125" lon="9.529287349236412"><ele>813.2</ele><time>2026-05-02T13:58:33.998Z</time></trkpt><trkpt lat="44.64157118043158" lon="9.529249229179477"><ele>811.4</ele><time>2026-05-02T13:58:35.998Z</time></trkpt><trkpt lat="44.64165693809171" lon="9.529149550368546"><ele>809.5999999999999</ele><time>2026-05-02T13:58:37.998Z</time></trkpt><trkpt lat="44.641706327955866" lon="9.529053557103348"><ele>807.8</ele><time>2026-05-02T13:58:39.998Z</time></trkpt><trkpt lat="44.641776165995566" lon="9.529055699315757"><ele>806.0</ele><time>2026-05-02T13:58:41.998Z</time></trkpt><trkpt lat="44.64186536516685" lon="9.529147196333502"><ele>806.0</ele><time>2026-05-02T13:58:43.998Z</time></trkpt><trkpt lat="44.64192444000928" lon="9.529225082280167"><ele>806.0</ele><time>2026-05-02T13:58:44.998Z</time></trkpt><trkpt lat="44.64197090695479" lon="9.529306608421745"><ele>806.0</ele><time>2026-05-02T13:58:45.998Z</time></trkpt><trkpt lat="44.642065597933886" lon="9.529385285323922"><ele>806.0</ele><time>2026-05-02T13:58:47.998Z</time></trkpt><trkpt lat="44.642150760744634" lon="9.529335931184347"><ele>806.0</ele><time>2026-05-02T13:58:49.998Z</time></trkpt><trkpt lat="44.6422245937118" lon="9.529200649350043"><ele>802.5</ele><time>2026-05-02T13:58:51.998Z</time></trkpt><trkpt lat="44.64231944150894" lon="9.52912871163231"><ele>799.0</ele><time>2026-05-02T13:58:53.998Z</time></trkpt><trkpt lat="44.64243395994387" lon="9.529150330055451"><ele>795.5</ele><time>2026-05-02T13:58:55.998Z</time></trkpt><trkpt lat="44.642537935774484" lon="9.52923248817573"><ele>792.0</ele><time>2026-05-02T13:58:57.998Z</time></trkpt><trkpt lat="44.642662137386836" lon="9.52924505720536"><ele>792.0</ele><time>2026-05-02T13:58:59.998Z</time></trkpt><trkpt lat="44.64277555168319" lon="9.529278094900695"><ele>792.0</ele><time>2026-05-02T13:59:01.998Z</time></trkpt><trkpt lat="44.64283807842006" lon="9.52925365825255"><ele>792.0</ele><time>2026-05-02T13:59:02.998Z</time></trkpt><trkpt lat="44.64291294778459" lon="9.529201559746957"><ele>792.0</ele><time>2026-05-02T13:59:03.998Z</time></trkpt><trkpt lat="44.64299926447554" lon="9.529155265439027"><ele>792.0</ele><time>2026-05-02T13:59:05Z</time></trkpt><trkpt lat="44.643073335206836" lon="9.529103029453083"><ele>792.0</ele><time>2026-05-02T13:59:06Z</time></trkpt><trkpt lat="44.6431425882763" lon="9.529066450606255"><ele>789.0</ele><time>2026-05-02T13:59:07Z</time></trkpt><trkpt lat="44.643215702952105" lon="9.529028690992835"><ele>786.0</ele><time>2026-05-02T13:59:08Z</time></trkpt><trkpt lat="44.64328310622872" lon="9.528984452466009"><ele>783.0</ele><time>2026-05-02T13:59:09Z</time></trkpt><trkpt lat="44.64337300511844" lon="9.528954967727925"><ele>780.0</ele><time>2026-05-02T13:59:10Z</time></trkpt><trkpt lat="44.64344260218398" lon="9.528936211699264"><ele>777.0</ele><time>2026-05-02T13:59:11Z</time></trkpt><trkpt lat="44.64351132787006" lon="9.528908440440885"><ele>774.0</ele><time>2026-05-02T13:59:12Z</time></trkpt><trkpt lat="44.64357972954752" lon="9.528883991856755"><ele>771.2</ele><time>2026-05-02T13:59:13Z</time></trkpt><trkpt lat="44.64367482622649" lon="9.528887830536219"><ele>768.4000000000001</ele><time>2026-05-02T13:59:15Z</time></trkpt><trkpt lat="44.6437652819483" lon="9.528916680941032"><ele>765.6</ele><time>2026-05-02T13:59:17Z</time></trkpt><trkpt lat="44.64389603580007" lon="9.52890440480493"><ele>762.8</ele><time>2026-05-02T13:59:19Z</time></trkpt><trkpt lat="44.6439677613303" lon="9.528901520678227"><ele>760.0</ele><time>2026-05-02T13:59:20Z</time></trkpt><trkpt lat="44.64404763289274" lon="9.52890789884942"><ele>760.0</ele><time>2026-05-02T13:59:21Z</time></trkpt><trkpt lat="44.644122769284266" lon="9.528897252785967"><ele>760.0</ele><time>2026-05-02T13:59:22Z</time></trkpt><trkpt lat="44.64418939020713" lon="9.528888296156172"><ele>760.0</ele><time>2026-05-02T13:59:23Z</time></trkpt><trkpt lat="44.64427521181117" lon="9.528901570041874"><ele>760.0</ele><time>2026-05-02T13:59:25Z</time></trkpt><trkpt lat="44.64433397316307" lon="9.528944502212347"><ele>760.0</ele><time>2026-05-02T13:59:29Z</time></trkpt><trkpt lat="44.644394927475524" lon="9.528967589332185"><ele>760.0</ele><time>2026-05-02T13:59:33Z</time></trkpt><trkpt lat="44.6444728451396" lon="9.52900965054579"><ele>760.0</ele><time>2026-05-02T13:59:50.999Z</time></trkpt><trkpt lat="44.64453964645701" lon="9.528964690298997"><ele>758.3333333333334</ele><time>2026-05-02T13:59:59.999Z</time></trkpt><trkpt lat="44.64462273463581" lon="9.528846781856036"><ele>756.6666666666667</ele><time>2026-05-02T14:00:01.999Z</time></trkpt><trkpt lat="44.64464977543949" lon="9.5287585211652"><ele>755.0</ele><time>2026-05-02T14:00:02.999Z</time></trkpt><trkpt lat="44.644670137397576" lon="9.528674141462025"><ele>753.3333333333334</ele><time>2026-05-02T14:00:03.999Z</time></trkpt><trkpt lat="44.6447066985962" lon="9.528505177963694"><ele>751.6666666666666</ele><time>2026-05-02T14:00:05.999Z</time></trkpt><trkpt lat="44.644730758254624" lon="9.528417736117472"><ele>750.0</ele><time>2026-05-02T14:00:06.999Z</time></trkpt><trkpt lat="44.644763036162985" lon="9.528300828649954"><ele>750.0</ele><time>2026-05-02T14:00:07.999Z</time></trkpt><trkpt lat="44.6448044271372" lon="9.528151034147076"><ele>750.0</ele><time>2026-05-02T14:00:08.999Z</time></trkpt><trkpt lat="44.64483693110267" lon="9.528021015277345"><ele>750.0</ele><time>2026-05-02T14:00:09.999Z</time></trkpt><trkpt lat="44.64487032845366" lon="9.527908426974655"><ele>750.0</ele><time>2026-05-02T14:00:10.999Z</time></trkpt><trkpt lat="44.64489795554323" lon="9.527807325237823"><ele>750.0</ele><time>2026-05-02T14:00:11.999Z</time></trkpt><trkpt lat="44.644938383768555" lon="9.527682919445217"><ele>751.0</ele><time>2026-05-02T14:00:12.999Z</time></trkpt><trkpt lat="44.644983043787455" lon="9.527554859581533"><ele>752.0</ele><time>2026-05-02T14:00:13.999Z</time></trkpt><trkpt lat="44.645032632249155" lon="9.527438166352576"><ele>753.0</ele><time>2026-05-02T14:00:14.999Z</time></trkpt><trkpt lat="44.64507928945841" lon="9.527343285557135"><ele>754.0</ele><time>2026-05-02T14:00:15.999Z</time></trkpt><trkpt lat="44.64513879167185" lon="9.527240350509276"><ele>755.0</ele><time>2026-05-02T14:00:16.999Z</time></trkpt><trkpt lat="44.64521417346131" lon="9.52712556576652"><ele>752.6</ele><time>2026-05-02T14:00:17.999Z</time></trkpt><trkpt lat="44.64528497738637" lon="9.527014139534915"><ele>750.2</ele><time>2026-05-02T14:00:18.999Z</time></trkpt><trkpt lat="44.64535657668578" lon="9.52692208791185"><ele>747.8</ele><time>2026-05-02T14:00:19.999Z</time></trkpt><trkpt lat="44.645443962107535" lon="9.526857163134602"><ele>745.4</ele><time>2026-05-02T14:00:20.999Z</time></trkpt><trkpt lat="44.645530596557485" lon="9.526789305581964"><ele>743.0</ele><time>2026-05-02T14:00:21.999Z</time></trkpt><trkpt lat="44.64561522603433" lon="9.526729707680468"><ele>743.0</ele><time>2026-05-02T14:00:22.999Z</time></trkpt><trkpt lat="44.64569385753597" lon="9.526661513223075"><ele>743.0</ele><time>2026-05-02T14:00:23.999Z</time></trkpt><trkpt lat="44.64576094621925" lon="9.526581687465207"><ele>743.0</ele><time>2026-05-02T14:00:24.999Z</time></trkpt><trkpt lat="44.64581553851667" lon="9.5264564871949"><ele>743.0</ele><time>2026-05-02T14:00:25.999Z</time></trkpt><trkpt lat="44.64587319736099" lon="9.526327153626193"><ele>743.0</ele><time>2026-05-02T14:00:26.999Z</time></trkpt><trkpt lat="44.645962671458605" lon="9.526216739811224"><ele>740.75</ele><time>2026-05-02T14:00:27.999Z</time></trkpt><trkpt lat="44.64606979826983" lon="9.526128801284791"><ele>738.5</ele><time>2026-05-02T14:00:28.999Z</time></trkpt><trkpt lat="44.64617922123217" lon="9.526055140904191"><ele>736.25</ele><time>2026-05-02T14:00:29.999Z</time></trkpt><trkpt lat="44.64628224853218" lon="9.525974264675122"><ele>734.0</ele><time>2026-05-02T14:00:30.999Z</time></trkpt><trkpt lat="44.646390489800766" lon="9.525906739197088"><ele>734.0</ele><time>2026-05-02T14:00:31.998Z</time></trkpt><trkpt lat="44.64650647745652" lon="9.52589376300383"><ele>734.0</ele><time>2026-05-02T14:00:32.998Z</time></trkpt><trkpt lat="44.64662504755919" lon="9.525869598706043"><ele>734.0</ele><time>2026-05-02T14:00:33.998Z</time></trkpt><trkpt lat="44.646734509890315" lon="9.525824872955457"><ele>734.0</ele><time>2026-05-02T14:00:34.998Z</time></trkpt><trkpt lat="44.64683435987552" lon="9.525753575353988"><ele>734.0</ele><time>2026-05-02T14:00:35.998Z</time></trkpt><trkpt lat="44.64693395619154" lon="9.525680040022609"><ele>734.0</ele><time>2026-05-02T14:00:36.998Z</time></trkpt><trkpt lat="44.64703723055682" lon="9.525649890768479"><ele>734.0</ele><time>2026-05-02T14:00:37.998Z</time></trkpt><trkpt lat="44.64714230720291" lon="9.525666195809205"><ele>734.0</ele><time>2026-05-02T14:00:38.998Z</time></trkpt><trkpt lat="44.64724467359956" lon="9.525684615402191"><ele>734.0</ele><time>2026-05-02T14:00:39.998Z</time></trkpt><trkpt lat="44.64733501314085" lon="9.525664170406968"><ele>733.0</ele><time>2026-05-02T14:00:40.998Z</time></trkpt><trkpt lat="44.64741259347524" lon="9.525590662109957"><ele>732.0</ele><time>2026-05-02T14:00:41.998Z</time></trkpt><trkpt lat="44.64746504261314" lon="9.52548906557367"><ele>731.0</ele><time>2026-05-02T14:00:42.998Z</time></trkpt><trkpt lat="44.647510003130776" lon="9.525370999548937"><ele>730.0</ele><time>2026-05-02T14:00:43.998Z</time></trkpt><trkpt lat="44.64754584201963" lon="9.525238861118332"><ele>729.0</ele><time>2026-05-02T14:00:44.998Z</time></trkpt><trkpt lat="44.647574868949924" lon="9.525094199005013"><ele>729.0</ele><time>2026-05-02T14:00:45.998Z</time></trkpt><trkpt lat="44.647587438349504" lon="9.524939214227073"><ele>729.0</ele><time>2026-05-02T14:00:46.998Z</time></trkpt><trkpt lat="44.64759223744755" lon="9.524775534642153"><ele>729.0</ele><time>2026-05-02T14:00:47.998Z</time></trkpt><trkpt lat="44.64759996174439" lon="9.52460832845629"><ele>729.0</ele><time>2026-05-02T14:00:48.998Z</time></trkpt><trkpt lat="44.64760519233014" lon="9.524457076840688"><ele>729.4000000000001</ele><time>2026-05-02T14:00:49.998Z</time></trkpt><trkpt lat="44.647608728841796" lon="9.524306842095783"><ele>729.8</ele><time>2026-05-02T14:00:50.998Z</time></trkpt><trkpt lat="44.6476073754965" lon="9.524172883272136"><ele>730.2</ele><time>2026-05-02T14:00:51.998Z</time></trkpt><trkpt lat="44.64760951295497" lon="9.524027069679068"><ele>730.5999999999999</ele><time>2026-05-02T14:00:52.998Z</time></trkpt><trkpt lat="44.647605679119536" lon="9.52388532450457"><ele>731.0</ele><time>2026-05-02T14:00:53.998Z</time></trkpt><trkpt lat="44.64761746613821" lon="9.523750293094142"><ele>731.4</ele><time>2026-05-02T14:00:54.998Z</time></trkpt><trkpt lat="44.64765155212974" lon="9.523614264822365"><ele>731.8</ele><time>2026-05-02T14:00:55.998Z</time></trkpt><trkpt lat="44.64770203764953" lon="9.523505162844433"><ele>732.1999999999999</ele><time>2026-05-02T14:00:56.998Z</time></trkpt><trkpt lat="44.64779280256741" lon="9.523411520389367"><ele>732.5999999999999</ele><time>2026-05-02T14:00:57.998Z</time></trkpt><trkpt lat="44.647895060961226" lon="9.523369772569282"><ele>733.0</ele><time>2026-05-02T14:00:58.998Z</time></trkpt><trkpt lat="44.64799951561496" lon="9.52334143495591"><ele>730.0</ele><time>2026-05-02T14:00:59.998Z</time></trkpt><trkpt lat="44.648106946189145" lon="9.523315807360005"><ele>727.0</ele><time>2026-05-02T14:01:00.998Z</time></trkpt><trkpt lat="44.64821974950431" lon="9.523292359351759"><ele>724.0</ele><time>2026-05-02T14:01:01.998Z</time></trkpt><trkpt lat="44.64833225152138" lon="9.523270151985406"><ele>721.0</ele><time>2026-05-02T14:01:02.998Z</time></trkpt><trkpt lat="44.64843052333436" lon="9.523246215896162"><ele>718.0</ele><time>2026-05-02T14:01:03.998Z</time></trkpt><trkpt lat="44.64851600464876" lon="9.523204907154714"><ele>718.0</ele><time>2026-05-02T14:01:04.998Z</time></trkpt><trkpt lat="44.64858595144195" lon="9.523122858669712"><ele>718.0</ele><time>2026-05-02T14:01:05.998Z</time></trkpt><trkpt lat="44.64861078920459" lon="9.523006494676082"><ele>718.0</ele><time>2026-05-02T14:01:06.998Z</time></trkpt><trkpt lat="44.64858701071289" lon="9.522871181175313"><ele>718.0</ele><time>2026-05-02T14:01:07.998Z</time></trkpt><trkpt lat="44.64853224923319" lon="9.522722216765091"><ele>718.0</ele><time>2026-05-02T14:01:08.998Z</time></trkpt><trkpt lat="44.648495176117464" lon="9.522569212856169"><ele>717.25</ele><time>2026-05-02T14:01:09.998Z</time></trkpt><trkpt lat="44.64847572164617" lon="9.522419770245405"><ele>716.5</ele><time>2026-05-02T14:01:11Z</time></trkpt><trkpt lat="44.64845136667202" lon="9.522277414605078"><ele>715.75</ele><time>2026-05-02T14:01:12Z</time></trkpt><trkpt lat="44.64839869297347" lon="9.522128857006962"><ele>715.0</ele><time>2026-05-02T14:01:13Z</time></trkpt><trkpt lat="44.64829536154984" lon="9.521999899239832"><ele>715.0</ele><time>2026-05-02T14:01:14Z</time></trkpt><trkpt lat="44.648186227027736" lon="9.521869760836406"><ele>715.0</ele><time>2026-05-02T14:01:15Z</time></trkpt><trkpt lat="44.64811212947265" lon="9.521712609666226"><ele>715.0</ele><time>2026-05-02T14:01:16Z</time></trkpt><trkpt lat="44.64806631929397" lon="9.521555461336362"><ele>715.0</ele><time>2026-05-02T14:01:17Z</time></trkpt><trkpt lat="44.64803747130282" lon="9.521403252482287"><ele>715.0</ele><time>2026-05-02T14:01:18Z</time></trkpt><trkpt lat="44.648013297674595" lon="9.521253082811576"><ele>715.0</ele><time>2026-05-02T14:01:19Z</time></trkpt><trkpt lat="44.64798181819636" lon="9.521109895923617"><ele>715.0</ele><time>2026-05-02T14:01:20Z</time></trkpt><trkpt lat="44.647939121407944" lon="9.520976225310937"><ele>715.0</ele><time>2026-05-02T14:01:21Z</time></trkpt><trkpt lat="44.647869481897956" lon="9.52086959573619"><ele>715.0</ele><time>2026-05-02T14:01:22Z</time></trkpt><trkpt lat="44.647786289591885" lon="9.52077882769998"><ele>716.6</ele><time>2026-05-02T14:01:23Z</time></trkpt><trkpt lat="44.64770956949294" lon="9.520693594760527"><ele>718.2</ele><time>2026-05-02T14:01:24Z</time></trkpt><trkpt lat="44.64763934772008" lon="9.52061480010557"><ele>719.8</ele><time>2026-05-02T14:01:25Z</time></trkpt><trkpt lat="44.64757150050059" lon="9.520524356261944"><ele>721.4</ele><time>2026-05-02T14:01:26Z</time></trkpt><trkpt lat="44.647519264970896" lon="9.520423809341105"><ele>723.0</ele><time>2026-05-02T14:01:27Z</time></trkpt><trkpt lat="44.647490651420085" lon="9.520304871877938"><ele>723.0</ele><time>2026-05-02T14:01:28Z</time></trkpt><trkpt lat="44.6475114902269" lon="9.520186885392624"><ele>723.0</ele><time>2026-05-02T14:01:29Z</time></trkpt><trkpt lat="44.64756378609211" lon="9.520067147634613"><ele>723.0</ele><time>2026-05-02T14:01:30Z</time></trkpt><trkpt lat="44.64764790008597" lon="9.519931539202917"><ele>723.0</ele><time>2026-05-02T14:01:31Z</time></trkpt><trkpt lat="44.64773178859551" lon="9.519783934785426"><ele>723.0</ele><time>2026-05-02T14:01:32Z</time></trkpt><trkpt lat="44.64779078901682" lon="9.519640976246965"><ele>717.25</ele><time>2026-05-02T14:01:33Z</time></trkpt><trkpt lat="44.64782437428905" lon="9.51949344184343"><ele>711.5</ele><time>2026-05-02T14:01:34Z</time></trkpt><trkpt lat="44.647859672255066" lon="9.519331676996059"><ele>705.75</ele><time>2026-05-02T14:01:35Z</time></trkpt><trkpt lat="44.64786647700347" lon="9.519170911034678"><ele>700.0</ele><time>2026-05-02T14:01:36Z</time></trkpt><trkpt lat="44.64784490165367" lon="9.518979323768503"><ele>700.0</ele><time>2026-05-02T14:01:37Z</time></trkpt><trkpt lat="44.64783218780963" lon="9.518805050960902"><ele>700.0</ele><time>2026-05-02T14:01:38Z</time></trkpt><trkpt lat="44.64783963342462" lon="9.51863087158356"><ele>700.0</ele><time>2026-05-02T14:01:39Z</time></trkpt><trkpt lat="44.64780443710667" lon="9.518479667313532"><ele>700.0</ele><time>2026-05-02T14:01:40Z</time></trkpt><trkpt lat="44.64773729345347" lon="9.518356059722624"><ele>702.75</ele><time>2026-05-02T14:01:41Z</time></trkpt><trkpt lat="44.647662337903405" lon="9.518220193541046"><ele>705.5</ele><time>2026-05-02T14:01:42Z</time></trkpt><trkpt lat="44.64760304592055" lon="9.51807680718564"><ele>708.25</ele><time>2026-05-02T14:01:43Z</time></trkpt><trkpt lat="44.647570172254014" lon="9.517929510334953"><ele>711.0</ele><time>2026-05-02T14:01:44Z</time></trkpt><trkpt lat="44.64757055758462" lon="9.517776787716038"><ele>711.0</ele><time>2026-05-02T14:01:45Z</time></trkpt><trkpt lat="44.64759281554942" lon="9.517628082112196"><ele>711.0</ele><time>2026-05-02T14:01:46Z</time></trkpt><trkpt lat="44.647620094979274" lon="9.517489266568775"><ele>711.0</ele><time>2026-05-02T14:01:47Z</time></trkpt><trkpt lat="44.64761576631308" lon="9.517347888675104"><ele>711.0</ele><time>2026-05-02T14:01:47.999Z</time></trkpt><trkpt lat="44.647568271862944" lon="9.517221549260565"><ele>711.0</ele><time>2026-05-02T14:01:48.999Z</time></trkpt><trkpt lat="44.64749327151866" lon="9.517113679357587"><ele>708.5</ele><time>2026-05-02T14:01:49.999Z</time></trkpt><trkpt lat="44.64739527443086" lon="9.517031565010788"><ele>706.0</ele><time>2026-05-02T14:01:50.999Z</time></trkpt><trkpt lat="44.64728557956438" lon="9.516951179689638"><ele>703.5</ele><time>2026-05-02T14:01:51.999Z</time></trkpt><trkpt lat="44.647183920196014" lon="9.516862245847644"><ele>701.0</ele><time>2026-05-02T14:01:52.999Z</time></trkpt><trkpt lat="44.64708831625323" lon="9.516756778975237"><ele>701.0</ele><time>2026-05-02T14:01:53.999Z</time></trkpt><trkpt lat="44.647002079074255" lon="9.51663609325714"><ele>701.0</ele><time>2026-05-02T14:01:54.999Z</time></trkpt><trkpt lat="44.64692924418266" lon="9.516500979681075"><ele>701.0</ele><time>2026-05-02T14:01:55.999Z</time></trkpt><trkpt lat="44.6468630767896" lon="9.516369478902634"><ele>701.0</ele><time>2026-05-02T14:01:56.999Z</time></trkpt><trkpt lat="44.646781699594726" lon="9.516232583492586"><ele>700.5</ele><time>2026-05-02T14:01:57.999Z</time></trkpt><trkpt lat="44.64669388889057" lon="9.516086294586433"><ele>700.0</ele><time>2026-05-02T14:01:58.999Z</time></trkpt><trkpt lat="44.646603245915934" lon="9.515930170120521"><ele>699.5</ele><time>2026-05-02T14:01:59.999Z</time></trkpt><trkpt lat="44.646515649173516" lon="9.515769978859097"><ele>699.0</ele><time>2026-05-02T14:02:00.999Z</time></trkpt><trkpt lat="44.64644613104468" lon="9.51559667992533"><ele>699.0</ele><time>2026-05-02T14:02:01.999Z</time></trkpt><trkpt lat="44.64641233233251" lon="9.51541649349168"><ele>699.0</ele><time>2026-05-02T14:02:02.999Z</time></trkpt><trkpt lat="44.64640676549605" lon="9.51523613764693"><ele>699.0</ele><time>2026-05-02T14:02:03.999Z</time></trkpt><trkpt lat="44.646408563751265" lon="9.515063522858801"><ele>699.0</ele><time>2026-05-02T14:02:04.999Z</time></trkpt><trkpt lat="44.64638424663439" lon="9.514906098594643"><ele>698.6</ele><time>2026-05-02T14:02:05.999Z</time></trkpt><trkpt lat="44.64632499807586" lon="9.514774249250294"><ele>698.2</ele><time>2026-05-02T14:02:06.999Z</time></trkpt><trkpt lat="44.64625318306038" lon="9.51465609411112"><ele>697.8000000000001</ele><time>2026-05-02T14:02:07.999Z</time></trkpt><trkpt lat="44.646178882969316" lon="9.514543334366696"><ele>697.4000000000001</ele><time>2026-05-02T14:02:08.999Z</time></trkpt><trkpt lat="44.64611546183894" lon="9.514420793220182"><ele>697.0</ele><time>2026-05-02T14:02:09.999Z</time></trkpt><trkpt lat="44.64609010524308" lon="9.514277618816493"><ele>697.0</ele><time>2026-05-02T14:02:10.999Z</time></trkpt><trkpt lat="44.64611743927876" lon="9.514130731946965"><ele>697.0</ele><time>2026-05-02T14:02:11.999Z</time></trkpt><trkpt lat="44.646174949836606" lon="9.513991492883102"><ele>697.0</ele><time>2026-05-02T14:02:12.999Z</time></trkpt><trkpt lat="44.6462341457391" lon="9.513843108717388"><ele>697.0</ele><time>2026-05-02T14:02:13.999Z</time></trkpt><trkpt lat="44.64625928519557" lon="9.513686163236123"><ele>693.5</ele><time>2026-05-02T14:02:14.999Z</time></trkpt><trkpt lat="44.64627145102001" lon="9.513532802973144"><ele>690.0</ele><time>2026-05-02T14:02:15.999Z</time></trkpt><trkpt lat="44.64628472759677" lon="9.513384066402855"><ele>686.5</ele><time>2026-05-02T14:02:16.999Z</time></trkpt><trkpt lat="44.646299104316576" lon="9.513226660744115"><ele>683.0</ele><time>2026-05-02T14:02:17.999Z</time></trkpt><trkpt lat="44.646315455002195" lon="9.513058020396493"><ele>683.5</ele><time>2026-05-02T14:02:18.999Z</time></trkpt><trkpt lat="44.646333870670475" lon="9.512887567087873"><ele>684.0</ele><time>2026-05-02T14:02:19.999Z</time></trkpt><trkpt lat="44.646350489352486" lon="9.512711712990487"><ele>684.5</ele><time>2026-05-02T14:02:20.999Z</time></trkpt><trkpt lat="44.64637420916059" lon="9.512530622429471"><ele>685.0</ele><time>2026-05-02T14:02:21.999Z</time></trkpt><trkpt lat="44.64640584426016" lon="9.512340982096395"><ele>685.0</ele><time>2026-05-02T14:02:22.999Z</time></trkpt><trkpt lat="44.6464415605713" lon="9.512155932976794"><ele>685.0</ele><time>2026-05-02T14:02:23.999Z</time></trkpt><trkpt lat="44.64648186434865" lon="9.511988389541322"><ele>685.0</ele><time>2026-05-02T14:02:24.999Z</time></trkpt><trkpt lat="44.64652956440982" lon="9.511834305092105"><ele>685.0</ele><time>2026-05-02T14:02:25.999Z</time></trkpt><trkpt lat="44.64658481664728" lon="9.511689258666122"><ele>685.25</ele><time>2026-05-02T14:02:26.999Z</time></trkpt><trkpt lat="44.646652078101944" lon="9.511552153704079"><ele>685.5</ele><time>2026-05-02T14:02:27.999Z</time></trkpt><trkpt lat="44.64672672455219" lon="9.51142070705511"><ele>685.75</ele><time>2026-05-02T14:02:28.999Z</time></trkpt><trkpt lat="44.64680051266465" lon="9.511280775367393"><ele>686.0</ele><time>2026-05-02T14:02:29.999Z</time></trkpt><trkpt lat="44.64687091275648" lon="9.511130811952595"><ele>686.8</ele><time>2026-05-02T14:02:30.999Z</time></trkpt><trkpt lat="44.64693494154481" lon="9.51098368682299"><ele>687.5999999999999</ele><time>2026-05-02T14:02:31.999Z</time></trkpt><trkpt lat="44.64699149771679" lon="9.510848834154112"><ele>688.4</ele><time>2026-05-02T14:02:32.999Z</time></trkpt><trkpt lat="44.64703347450723" lon="9.510719132046551"><ele>689.2</ele><time>2026-05-02T14:02:33.999Z</time></trkpt><trkpt lat="44.6470421180022" lon="9.510603859981414"><ele>690.0</ele><time>2026-05-02T14:02:34.999Z</time></trkpt><trkpt lat="44.64701955629903" lon="9.510483099058828"><ele>688.75</ele><time>2026-05-02T14:02:35.999Z</time></trkpt><trkpt lat="44.64696330635346" lon="9.510357597621775"><ele>687.5</ele><time>2026-05-02T14:02:36.999Z</time></trkpt><trkpt lat="44.64688047860505" lon="9.510235904450754"><ele>686.25</ele><time>2026-05-02T14:02:37.998Z</time></trkpt><trkpt lat="44.64678778647996" lon="9.510124023219122"><ele>685.0</ele><time>2026-05-02T14:02:38.998Z</time></trkpt><trkpt lat="44.64669211724607" lon="9.510020062532885"><ele>684.75</ele><time>2026-05-02T14:02:39.998Z</time></trkpt><trkpt lat="44.646598817907055" lon="9.50991759204314"><ele>684.5</ele><time>2026-05-02T14:02:40.998Z</time></trkpt><trkpt lat="44.64651167063033" lon="9.509810237747706"><ele>684.25</ele><time>2026-05-02T14:02:41.998Z</time></trkpt><trkpt lat="44.646426401262936" lon="9.50970686996017"><ele>684.0</ele><time>2026-05-02T14:02:42.998Z</time></trkpt><trkpt lat="44.64634376974195" lon="9.509610386725631"><ele>683.8000000000001</ele><time>2026-05-02T14:02:43.998Z</time></trkpt><trkpt lat="44.64626936311262" lon="9.509513370344392"><ele>683.6</ele><time>2026-05-02T14:02:44.998Z</time></trkpt><trkpt lat="44.646202060376254" lon="9.509411639534513"><ele>683.4</ele><time>2026-05-02T14:02:45.998Z</time></trkpt><trkpt lat="44.64614260836778" lon="9.509302213817572"><ele>683.2</ele><time>2026-05-02T14:02:46.998Z</time></trkpt><trkpt lat="44.64609328294133" lon="9.509184047511145"><ele>683.0</ele><time>2026-05-02T14:02:47.998Z</time></trkpt><trkpt lat="44.646046541377295" lon="9.509051006213493"><ele>683.0</ele><time>2026-05-02T14:02:48.998Z</time></trkpt><trkpt lat="44.64599787728804" lon="9.508900914070262"><ele>683.0</ele><time>2026-05-02T14:02:49.998Z</time></trkpt><trkpt lat="44.64595004387059" lon="9.508735153867557"><ele>683.0</ele><time>2026-05-02T14:02:50.998Z</time></trkpt><trkpt lat="44.645927644491294" lon="9.508581011325852"><ele>683.0</ele><time>2026-05-02T14:02:51.998Z</time></trkpt><trkpt lat="44.64593954115335" lon="9.50845715875851"><ele>683.0</ele><time>2026-05-02T14:02:52.998Z</time></trkpt><trkpt lat="44.645986044604605" lon="9.50837061722149"><ele>682.0</ele><time>2026-05-02T14:02:53.998Z</time></trkpt><trkpt lat="44.64605217014687" lon="9.50832454783306"><ele>681.0</ele><time>2026-05-02T14:02:54.998Z</time></trkpt><trkpt lat="44.64612607087834" lon="9.508333203545728"><ele>680.0</ele><time>2026-05-02T14:02:55.998Z</time></trkpt><trkpt lat="44.64621033799026" lon="9.508398196727027"><ele>679.0</ele><time>2026-05-02T14:02:56.998Z</time></trkpt><trkpt lat="44.64630812240425" lon="9.50850555662422"><ele>678.0</ele><time>2026-05-02T14:02:57.998Z</time></trkpt><trkpt lat="44.64643163451664" lon="9.508627244271826"><ele>676.75</ele><time>2026-05-02T14:02:58.998Z</time></trkpt><trkpt lat="44.64657920386146" lon="9.50874187451613"><ele>675.5</ele><time>2026-05-02T14:02:59.998Z</time></trkpt><trkpt lat="44.646701943976275" lon="9.50882874665392"><ele>674.25</ele><time>2026-05-02T14:03:00.998Z</time></trkpt><trkpt lat="44.64679045887011" lon="9.508875077619866"><ele>673.0</ele><time>2026-05-02T14:03:01.998Z</time></trkpt><trkpt lat="44.64689307781684" lon="9.50885063730749"><ele>671.0</ele><time>2026-05-02T14:03:03.998Z</time></trkpt><trkpt lat="44.64691202534367" lon="9.508711342865476"><ele>669.0</ele><time>2026-05-02T14:03:05.998Z</time></trkpt><trkpt lat="44.64687122441563" lon="9.508634933201963"><ele>667.0</ele><time>2026-05-02T14:03:06.998Z</time></trkpt><trkpt lat="44.64678214601253" lon="9.508570047155818"><ele>665.0</ele><time>2026-05-02T14:03:07.998Z</time></trkpt><trkpt lat="44.64669300856648" lon="9.508470563727258"><ele>663.0</ele><time>2026-05-02T14:03:08.998Z</time></trkpt><trkpt lat="44.64665341789049" lon="9.508316162445155"><ele>663.0</ele><time>2026-05-02T14:03:09.998Z</time></trkpt><trkpt lat="44.64663743341518" lon="9.508149494272336"><ele>663.0</ele><time>2026-05-02T14:03:10.998Z</time></trkpt><trkpt lat="44.6466239844032" lon="9.507989603107857"><ele>663.0</ele><time>2026-05-02T14:03:11.998Z</time></trkpt><trkpt lat="44.64664993738007" lon="9.507835113031918"><ele>663.0</ele><time>2026-05-02T14:03:12.998Z</time></trkpt><trkpt lat="44.64671089485564" lon="9.507693160036819"><ele>662.2</ele><time>2026-05-02T14:03:13.998Z</time></trkpt><trkpt lat="44.64676852550181" lon="9.50756015964988"><ele>661.4</ele><time>2026-05-02T14:03:14.998Z</time></trkpt><trkpt lat="44.64678876342133" lon="9.507453250384883"><ele>660.6</ele><time>2026-05-02T14:03:15.998Z</time></trkpt><trkpt lat="44.646763298656104" lon="9.507349832717768"><ele>659.8000000000001</ele><time>2026-05-02T14:03:17Z</time></trkpt><trkpt lat="44.646711240742725" lon="9.507219288008448"><ele>659.0</ele><time>2026-05-02T14:03:18Z</time></trkpt><trkpt lat="44.64663393927824" lon="9.507060761584798"><ele>657.0</ele><time>2026-05-02T14:03:19Z</time></trkpt><trkpt lat="44.64656257924226" lon="9.506903212369723"><ele>655.0</ele><time>2026-05-02T14:03:20Z</time></trkpt><trkpt lat="44.6465226034073" lon="9.506730366407462"><ele>653.0</ele><time>2026-05-02T14:03:21Z</time></trkpt><trkpt lat="44.646497731717375" lon="9.506554202983304"><ele>651.0</ele><time>2026-05-02T14:03:22Z</time></trkpt><trkpt lat="44.646473396876104" lon="9.506383214433605"><ele>648.3333333333334</ele><time>2026-05-02T14:03:23Z</time></trkpt><trkpt lat="44.64644752857858" lon="9.50624238318732"><ele>645.6666666666666</ele><time>2026-05-02T14:03:24Z</time></trkpt><trkpt lat="44.646410696340155" lon="9.506119410411387"><ele>643.0</ele><time>2026-05-02T14:03:25Z</time></trkpt><trkpt lat="44.64637804101913" lon="9.506020918339278"><ele>640.3333333333333</ele><time>2026-05-02T14:03:26Z</time></trkpt><trkpt lat="44.64635444496886" lon="9.50593293324138"><ele>637.6666666666666</ele><time>2026-05-02T14:03:27Z</time></trkpt><trkpt lat="44.6463424367627" lon="9.505806340530892"><ele>635.0</ele><time>2026-05-02T14:03:29Z</time></trkpt><trkpt lat="44.64633376962844" lon="9.505710994978406"><ele>635.0</ele><time>2026-05-02T14:03:31Z</time></trkpt><trkpt lat="44.646255439912444" lon="9.505593247080858"><ele>635.0</ele><time>2026-05-02T14:03:33Z</time></trkpt><trkpt lat="44.64620581704825" lon="9.50553154374744"><ele>635.0</ele><time>2026-05-02T14:03:34Z</time></trkpt><trkpt lat="44.64616334695126" lon="9.50544805901182"><ele>635.0</ele><time>2026-05-02T14:03:35Z</time></trkpt><trkpt lat="44.64612209030229" lon="9.505331026305202"><ele>635.0</ele><time>2026-05-02T14:03:36Z</time></trkpt><trkpt lat="44.64608641827879" lon="9.505203260684413"><ele>635.0</ele><time>2026-05-02T14:03:37Z</time></trkpt><trkpt lat="44.646083604490975" lon="9.50506332899693"><ele>632.25</ele><time>2026-05-02T14:03:38Z</time></trkpt><trkpt lat="44.64610607270538" lon="9.504893768457153"><ele>629.5</ele><time>2026-05-02T14:03:39Z</time></trkpt><trkpt lat="44.646144974809715" lon="9.504746369618463"><ele>626.75</ele><time>2026-05-02T14:03:40Z</time></trkpt><trkpt lat="44.646182530820724" lon="9.504587167599357"><ele>624.0</ele><time>2026-05-02T14:03:41Z</time></trkpt><trkpt lat="44.646202233263296" lon="9.504440170950447"><ele>624.0</ele><time>2026-05-02T14:03:42Z</time></trkpt><trkpt lat="44.64619945383986" lon="9.504295342427632"><ele>624.0</ele><time>2026-05-02T14:03:43Z</time></trkpt><trkpt lat="44.646172185241284" lon="9.504164783358341"><ele>624.0</ele><time>2026-05-02T14:03:44Z</time></trkpt><trkpt lat="44.64613069296906" lon="9.504037118645426"><ele>624.0</ele><time>2026-05-02T14:03:45Z</time></trkpt><trkpt lat="44.64607329774806" lon="9.503922729565865"><ele>624.0</ele><time>2026-05-02T14:03:46Z</time></trkpt><trkpt lat="44.64602247281934" lon="9.503809987304567"><ele>627.6</ele><time>2026-05-02T14:03:47Z</time></trkpt><trkpt lat="44.64597590304447" lon="9.503696181114965"><ele>631.2</ele><time>2026-05-02T14:03:48Z</time></trkpt><trkpt lat="44.64593826431067" lon="9.503567383160696"><ele>634.8000000000001</ele><time>2026-05-02T14:03:49Z</time></trkpt><trkpt lat="44.645903817777764" lon="9.50341145780925"><ele>638.4</ele><time>2026-05-02T14:03:50Z</time></trkpt><trkpt lat="44.64586969857175" lon="9.503259769117108"><ele>642.0</ele><time>2026-05-02T14:03:51Z</time></trkpt><trkpt lat="44.64582486024018" lon="9.503141589224414"><ele>642.0</ele><time>2026-05-02T14:03:52Z</time></trkpt><trkpt lat="44.64577808357286" lon="9.503060609357147"><ele>642.0</ele><time>2026-05-02T14:03:53Z</time></trkpt><trkpt lat="44.64571635424276" lon="9.502965880454928"><ele>642.0</ele><time>2026-05-02T14:03:55Z</time></trkpt><trkpt lat="44.64566238914652" lon="9.502916481566972"><ele>642.0</ele><time>2026-05-02T14:03:57.999Z</time></trkpt><trkpt lat="44.64561812476864" lon="9.50284051353827"><ele>642.0</ele><time>2026-05-02T14:06:38.999Z</time></trkpt><trkpt lat="44.645679907645714" lon="9.502812572012571"><ele>642.0</ele><time>2026-05-02T14:11:24.998Z</time></trkpt><trkpt lat="44.64559501834881" lon="9.502779642057554"><ele>640.0</ele><time>2026-05-02T14:12:12.999Z</time></trkpt><trkpt lat="44.64562026802682" lon="9.502684988536588"><ele>638.0</ele><time>2026-05-02T14:22:45Z</time></trkpt><trkpt lat="44.64565489027335" lon="9.502549664977307"><ele>636.0</ele><time>2026-05-02T14:22:47Z</time></trkpt><trkpt lat="44.64561420780737" lon="9.50237656555897"><ele>634.0</ele><time>2026-05-02T14:22:49Z</time></trkpt><trkpt lat="44.645572118145346" lon="9.502272438084104"><ele>632.0</ele><time>2026-05-02T14:22:50Z</time></trkpt><trkpt lat="44.6455242756606" lon="9.50216287247757"><ele>630.5</ele><time>2026-05-02T14:22:51Z</time></trkpt><trkpt lat="44.64548237713226" lon="9.50203880464318"><ele>629.0</ele><time>2026-05-02T14:22:52Z</time></trkpt><trkpt lat="44.6454497474011" lon="9.50192844054944"><ele>627.5</ele><time>2026-05-02T14:22:53Z</time></trkpt><trkpt lat="44.64542575282244" lon="9.501819888056968"><ele>626.0</ele><time>2026-05-02T14:22:54Z</time></trkpt><trkpt lat="44.645400841891814" lon="9.501724330340165"><ele>624.5</ele><time>2026-05-02T14:22:55Z</time></trkpt><trkpt lat="44.64537564523" lon="9.501634162455863"><ele>623.0</ele><time>2026-05-02T14:22:56Z</time></trkpt><trkpt lat="44.64535038454464" lon="9.501552041445539"><ele>623.0</ele><time>2026-05-02T14:22:57Z</time></trkpt><trkpt lat="44.64529956140167" lon="9.501397233369318"><ele>623.0</ele><time>2026-05-02T14:22:59Z</time></trkpt><trkpt lat="44.645263771416666" lon="9.501304272718313"><ele>623.0</ele><time>2026-05-02T14:23:00Z</time></trkpt><trkpt lat="44.64522203320889" lon="9.501196992605603"><ele>623.0</ele><time>2026-05-02T14:23:01Z</time></trkpt><trkpt lat="44.64517215368918" lon="9.50108232659797"><ele>623.0</ele><time>2026-05-02T14:23:02Z</time></trkpt><trkpt lat="44.645114089012516" lon="9.500967846841606"><ele>625.25</ele><time>2026-05-02T14:23:03Z</time></trkpt><trkpt lat="44.64504232812023" lon="9.50085455753517"><ele>627.5</ele><time>2026-05-02T14:23:04Z</time></trkpt><trkpt lat="44.64496040900011" lon="9.500747027990752"><ele>629.75</ele><time>2026-05-02T14:23:05Z</time></trkpt><trkpt lat="44.644869032029945" lon="9.500649933437384"><ele>632.0</ele><time>2026-05-02T14:23:06Z</time></trkpt><trkpt lat="44.6447682673169" lon="9.500547739672776"><ele>632.0</ele><time>2026-05-02T14:23:07Z</time></trkpt><trkpt lat="44.644658390619846" lon="9.500445589535394"><ele>632.0</ele><time>2026-05-02T14:23:08Z</time></trkpt><trkpt lat="44.64454355257775" lon="9.500362019140036"><ele>632.0</ele><time>2026-05-02T14:23:09Z</time></trkpt><trkpt lat="44.64442849522757" lon="9.500308067749152"><ele>632.0</ele><time>2026-05-02T14:23:10Z</time></trkpt><trkpt lat="44.644318067591435" lon="9.500246756953468"><ele>631.4</ele><time>2026-05-02T14:23:11Z</time></trkpt><trkpt lat="44.644214770684066" lon="9.500167169603603"><ele>630.8000000000001</ele><time>2026-05-02T14:23:12Z</time></trkpt><trkpt lat="44.64410948957575" lon="9.50008885293933"><ele>630.2</ele><time>2026-05-02T14:23:13Z</time></trkpt><trkpt lat="44.64401649429527" lon="9.500017262208758"><ele>629.6</ele><time>2026-05-02T14:23:14Z</time></trkpt><trkpt lat="44.64392617580904" lon="9.49994797130258"><ele>629.0</ele><time>2026-05-02T14:23:15Z</time></trkpt><trkpt lat="44.64384468763445" lon="9.499876140670693"><ele>629.0</ele><time>2026-05-02T14:23:16Z</time></trkpt><trkpt lat="44.64377248859589" lon="9.499801176537144"><ele>629.0</ele><time>2026-05-02T14:23:17Z</time></trkpt><trkpt lat="44.64370322140088" lon="9.499730318236269"><ele>629.0</ele><time>2026-05-02T14:23:18Z</time></trkpt><trkpt lat="44.643637742806796" lon="9.49965052343166"><ele>629.0</ele><time>2026-05-02T14:23:19Z</time></trkpt><trkpt lat="44.643576396523414" lon="9.49956211654501"><ele>629.0</ele><time>2026-05-02T14:23:20Z</time></trkpt><trkpt lat="44.643530640482844" lon="9.499476183636151"><ele>629.0</ele><time>2026-05-02T14:23:21Z</time></trkpt><trkpt lat="44.643502904659016" lon="9.499381188690363"><ele>628.3333333333333</ele><time>2026-05-02T14:23:22Z</time></trkpt><trkpt lat="44.643500249264335" lon="9.499280964530566"><ele>627.6666666666666</ele><time>2026-05-02T14:23:23Z</time></trkpt><trkpt lat="44.64351395962634" lon="9.499188120765078"><ele>627.0</ele><time>2026-05-02T14:23:24Z</time></trkpt><trkpt lat="44.64353812482253" lon="9.499104419916616"><ele>626.3333333333334</ele><time>2026-05-02T14:23:25Z</time></trkpt><trkpt lat="44.643580548728636" lon="9.498991042700107"><ele>625.6666666666667</ele><time>2026-05-02T14:23:26Z</time></trkpt><trkpt lat="44.64364353251117" lon="9.498854506136375"><ele>625.0</ele><time>2026-05-02T14:23:27Z</time></trkpt><trkpt lat="44.64371392147571" lon="9.498721585346557"><ele>625.0</ele><time>2026-05-02T14:23:28Z</time></trkpt><trkpt lat="44.64377727275992" lon="9.498611419576203"><ele>625.0</ele><time>2026-05-02T14:23:29Z</time></trkpt><trkpt lat="44.64383272461456" lon="9.498508345820394"><ele>625.0</ele><time>2026-05-02T14:23:30Z</time></trkpt><trkpt lat="44.643878208562285" lon="9.498413863660462"><ele>625.0</ele><time>2026-05-02T14:23:31Z</time></trkpt><trkpt lat="44.64391790683672" lon="9.498336015665767"><ele>625.0</ele><time>2026-05-02T14:23:32Z</time></trkpt><trkpt lat="44.643971981047876" lon="9.498219521364234"><ele>625.0</ele><time>2026-05-02T14:23:34Z</time></trkpt><trkpt lat="44.644023191637075" lon="9.498111596647282"><ele>625.0</ele><time>2026-05-02T14:23:36Z</time></trkpt><trkpt lat="44.64406701931445" lon="9.49802800250077"><ele>625.0</ele><time>2026-05-02T14:23:38Z</time></trkpt><trkpt lat="44.64413886343629" lon="9.497969867379185"><ele>625.0</ele><time>2026-05-02T14:23:40.999Z</time></trkpt><trkpt lat="44.64423309636471" lon="9.497992310013078"><ele>625.0</ele><time>2026-05-02T14:23:42.999Z</time></trkpt><trkpt lat="44.64429835508634" lon="9.49805021408331"><ele>625.0</ele><time>2026-05-02T14:23:43.999Z</time></trkpt><trkpt lat="44.64436719064663" lon="9.498093456005574"><ele>625.0</ele><time>2026-05-02T14:23:44.999Z</time></trkpt><trkpt lat="44.644444859776186" lon="9.498126412559868"><ele>625.3333333333334</ele><time>2026-05-02T14:23:45.999Z</time></trkpt><trkpt lat="44.64453149669727" lon="9.498127036280515"><ele>625.6666666666667</ele><time>2026-05-02T14:23:46.999Z</time></trkpt><trkpt lat="44.64461041327792" lon="9.498116359525119"><ele>626.0</ele><time>2026-05-02T14:23:47.999Z</time></trkpt><trkpt lat="44.64469340008074" lon="9.49810742484756"><ele>626.3333333333334</ele><time>2026-05-02T14:23:48.999Z</time></trkpt><trkpt lat="44.644775725049286" lon="9.498090875600356"><ele>626.6666666666666</ele><time>2026-05-02T14:23:49.999Z</time></trkpt><trkpt lat="44.644842137557845" lon="9.498066508474587"><ele>627.0</ele><time>2026-05-02T14:23:50.999Z</time></trkpt><trkpt lat="44.64490479388496" lon="9.498045067787388"><ele>627.0</ele><time>2026-05-02T14:23:51.999Z</time></trkpt><trkpt lat="44.644968060031225" lon="9.49800819498611"><ele>627.0</ele><time>2026-05-02T14:23:52.999Z</time></trkpt><trkpt lat="44.6450849545395" lon="9.497957793789247"><ele>627.0</ele><time>2026-05-02T14:23:54.999Z</time></trkpt><trkpt lat="44.64515006199941" lon="9.497938551089609"><ele>627.0</ele><time>2026-05-02T14:23:55.999Z</time></trkpt><trkpt lat="44.645215262566175" lon="9.49790881881345"><ele>627.0</ele><time>2026-05-02T14:23:56.999Z</time></trkpt><trkpt lat="44.64528098203599" lon="9.497881868775545"><ele>627.0</ele><time>2026-05-02T14:23:57.999Z</time></trkpt><trkpt lat="44.64534398635898" lon="9.497870308788169"><ele>627.0</ele><time>2026-05-02T14:23:58.999Z</time></trkpt><trkpt lat="44.64543707989229" lon="9.497809335587613"><ele>627.0</ele><time>2026-05-02T14:24:00.999Z</time></trkpt><trkpt lat="44.6454669580331" lon="9.49762912762441"><ele>627.0</ele><time>2026-05-02T14:24:02.999Z</time></trkpt><trkpt lat="44.64544534240288" lon="9.49752047213729"><ele>627.0</ele><time>2026-05-02T14:24:03.999Z</time></trkpt><trkpt lat="44.645409761673235" lon="9.49742689811217"><ele>627.0</ele><time>2026-05-02T14:24:04.999Z</time></trkpt><trkpt lat="44.645367686304425" lon="9.497319011480599"><ele>627.0</ele><time>2026-05-02T14:24:05.999Z</time></trkpt><trkpt lat="44.64532598535527" lon="9.497191315448225"><ele>627.0</ele><time>2026-05-02T14:24:06.999Z</time></trkpt><trkpt lat="44.645290879964584" lon="9.497044197374517"><ele>627.0</ele><time>2026-05-02T14:24:07.999Z</time></trkpt><trkpt lat="44.645274659714104" lon="9.496919908666122"><ele>627.0</ele><time>2026-05-02T14:24:08.999Z</time></trkpt><trkpt lat="44.645262995906215" lon="9.496795832411998"><ele>627.0</ele><time>2026-05-02T14:24:09.999Z</time></trkpt><trkpt lat="44.645252684683726" lon="9.496677060845741"><ele>627.5</ele><time>2026-05-02T14:24:10.999Z</time></trkpt><trkpt lat="44.64525657299689" lon="9.496559354205186"><ele>628.0</ele><time>2026-05-02T14:24:11.999Z</time></trkpt><trkpt lat="44.645271810254336" lon="9.49644537845"><ele>628.5</ele><time>2026-05-02T14:24:12.999Z</time></trkpt><trkpt lat="44.64529994933721" lon="9.49633849463321"><ele>629.0</ele><time>2026-05-02T14:24:13.999Z</time></trkpt><trkpt lat="44.64533117890522" lon="9.49623826953912"><ele>629.5</ele><time>2026-05-02T14:24:14.999Z</time></trkpt><trkpt lat="44.64535972937808" lon="9.496131397340067"><ele>630.0</ele><time>2026-05-02T14:24:16.001Z</time></trkpt><trkpt lat="44.64539036784594" lon="9.496020585824388"><ele>631.5</ele><time>2026-05-02T14:24:17.001Z</time></trkpt><trkpt lat="44.64541999377647" lon="9.495915475524104"><ele>633.0</ele><time>2026-05-02T14:24:18.001Z</time></trkpt><trkpt lat="44.64545785001326" lon="9.49582271762007"><ele>634.5</ele><time>2026-05-02T14:24:19.001Z</time></trkpt><trkpt lat="44.64551409922198" lon="9.495735160659137"><ele>636.0</ele><time>2026-05-02T14:24:20.001Z</time></trkpt><trkpt lat="44.64557591119888" lon="9.495640947894959"><ele>637.5</ele><time>2026-05-02T14:24:21.001Z</time></trkpt><trkpt lat="44.64563889164067" lon="9.49554266994994"><ele>639.0</ele><time>2026-05-02T14:24:22.001Z</time></trkpt><trkpt lat="44.64570931763144" lon="9.495444447869339"><ele>641.1666666666666</ele><time>2026-05-02T14:24:23.001Z</time></trkpt><trkpt lat="44.645779644780355" lon="9.495346418236297"><ele>643.3333333333334</ele><time>2026-05-02T14:24:24.001Z</time></trkpt><trkpt lat="44.64584122234496" lon="9.495250857950307"><ele>645.5</ele><time>2026-05-02T14:24:25.001Z</time></trkpt><trkpt lat="44.64587728179926" lon="9.495156753788446"><ele>647.6666666666667</ele><time>2026-05-02T14:24:26.001Z</time></trkpt><trkpt lat="44.645891814601804" lon="9.495050986705376"><ele>649.8333333333334</ele><time>2026-05-02T14:24:27.001Z</time></trkpt><trkpt lat="44.645869710483105" lon="9.494935518454014"><ele>652.0</ele><time>2026-05-02T14:24:28.001Z</time></trkpt><trkpt lat="44.6458352853364" lon="9.494803936759094"><ele>652.0</ele><time>2026-05-02T14:24:29.001Z</time></trkpt><trkpt lat="44.645810141761515" lon="9.494655241763773"><ele>652.0</ele><time>2026-05-02T14:24:30.001Z</time></trkpt><trkpt lat="44.645784574243876" lon="9.494500485248372"><ele>652.0</ele><time>2026-05-02T14:24:31.001Z</time></trkpt><trkpt lat="44.645759525476734" lon="9.494334576856591"><ele>652.0</ele><time>2026-05-02T14:24:32.001Z</time></trkpt><trkpt lat="44.64573211441357" lon="9.49414656273304"><ele>655.0</ele><time>2026-05-02T14:24:33.001Z</time></trkpt><trkpt lat="44.645699944009124" lon="9.493907318239847"><ele>658.0</ele><time>2026-05-02T14:24:34.001Z</time></trkpt><trkpt lat="44.64567135019198" lon="9.49369866560039"><ele>661.0</ele><time>2026-05-02T14:24:35.001Z</time></trkpt><trkpt lat="44.645647082511076" lon="9.493543532527458"><ele>664.0</ele><time>2026-05-02T14:24:36.001Z</time></trkpt><trkpt lat="44.64564233518501" lon="9.493405419064382"><ele>663.0</ele><time>2026-05-02T14:24:38Z</time></trkpt><trkpt lat="44.645705450539545" lon="9.493333707416719"><ele>662.0</ele><time>2026-05-02T14:24:57Z</time></trkpt><trkpt lat="44.64577827885663" lon="9.493334211945353"><ele>661.0</ele><time>2026-05-02T14:24:58Z</time></trkpt><trkpt lat="44.64585835387166" lon="9.49333829736672"><ele>660.0</ele><time>2026-05-02T14:24:59Z</time></trkpt><trkpt lat="44.64595151796859" lon="9.493323084373802"><ele>659.0</ele><time>2026-05-02T14:25:00Z</time></trkpt><trkpt lat="44.64604723587199" lon="9.493296514862642"><ele>658.0</ele><time>2026-05-02T14:25:01Z</time></trkpt><trkpt lat="44.64615673616765" lon="9.493273938566679"><ele>658.0</ele><time>2026-05-02T14:25:02Z</time></trkpt><trkpt lat="44.646254887044826" lon="9.493257608670248"><ele>658.0</ele><time>2026-05-02T14:25:03Z</time></trkpt><trkpt lat="44.64633008207063" lon="9.493237291865036"><ele>658.0</ele><time>2026-05-02T14:25:04Z</time></trkpt><trkpt lat="44.646406495075574" lon="9.49321375192501"><ele>658.0</ele><time>2026-05-02T14:25:05Z</time></trkpt><trkpt lat="44.6464742011534" lon="9.493164574825396"><ele>658.0</ele><time>2026-05-02T14:25:06Z</time></trkpt><trkpt lat="44.64652800303444" lon="9.493091422375151"><ele>658.0</ele><time>2026-05-02T14:25:07Z</time></trkpt><trkpt lat="44.64656303720016" lon="9.493000321516535"><ele>662.0</ele><time>2026-05-02T14:25:08Z</time></trkpt><trkpt lat="44.64659418400907" lon="9.49287604239698"><ele>666.0</ele><time>2026-05-02T14:25:09Z</time></trkpt><trkpt lat="44.6466437489889" lon="9.492738844558444"><ele>670.0</ele><time>2026-05-02T14:25:10Z</time></trkpt><trkpt lat="44.6467291000419" lon="9.492585774739586"><ele>674.0</ele><time>2026-05-02T14:25:11Z</time></trkpt><trkpt lat="44.64683356534374" lon="9.492482405551208"><ele>674.0</ele><time>2026-05-02T14:25:12Z</time></trkpt><trkpt lat="44.64693038614561" lon="9.492408166887968"><ele>674.0</ele><time>2026-05-02T14:25:13Z</time></trkpt><trkpt lat="44.64702503207649" lon="9.492329138322619"><ele>674.0</ele><time>2026-05-02T14:25:14Z</time></trkpt><trkpt lat="44.647117752891845" lon="9.492240824322419"><ele>674.0</ele><time>2026-05-02T14:25:15Z</time></trkpt><trkpt lat="44.64720589937953" lon="9.492153085631873"><ele>674.0</ele><time>2026-05-02T14:25:16Z</time></trkpt><trkpt lat="44.64727866055647" lon="9.49206099942028"><ele>669.5</ele><time>2026-05-02T14:25:17Z</time></trkpt><trkpt lat="44.64731958891782" lon="9.49192022335722"><ele>665.0</ele><time>2026-05-02T14:25:18Z</time></trkpt><trkpt lat="44.647345859889874" lon="9.491749641663866"><ele>660.5</ele><time>2026-05-02T14:25:19Z</time></trkpt><trkpt lat="44.64735697413012" lon="9.491584082325867"><ele>656.0</ele><time>2026-05-02T14:25:20Z</time></trkpt><trkpt lat="44.6473570605192" lon="9.491433799191798"><ele>656.0</ele><time>2026-05-02T14:25:21Z</time></trkpt><trkpt lat="44.64733126239373" lon="9.49129214660144"><ele>656.0</ele><time>2026-05-02T14:25:22Z</time></trkpt><trkpt lat="44.64729903895039" lon="9.491146341015265"><ele>656.0</ele><time>2026-05-02T14:25:23Z</time></trkpt><trkpt lat="44.647260510824005" lon="9.49100200668809"><ele>656.0</ele><time>2026-05-02T14:25:24Z</time></trkpt><trkpt lat="44.647231666238255" lon="9.490865677327509"><ele>656.0</ele><time>2026-05-02T14:25:25Z</time></trkpt><trkpt lat="44.647209536680435" lon="9.490713598183916"><ele>655.8</ele><time>2026-05-02T14:25:26Z</time></trkpt><trkpt lat="44.647197552574816" lon="9.490564100674174"><ele>655.5999999999999</ele><time>2026-05-02T14:25:27Z</time></trkpt><trkpt lat="44.64715811429536" lon="9.490444537720098"><ele>655.4</ele><time>2026-05-02T14:25:28Z</time></trkpt><trkpt lat="44.64711308147036" lon="9.490343257506723"><ele>655.2</ele><time>2026-05-02T14:25:29Z</time></trkpt><trkpt lat="44.64708922522458" lon="9.490255197172326"><ele>655.0</ele><time>2026-05-02T14:25:30Z</time></trkpt><trkpt lat="44.64710958813201" lon="9.490103674766623"><ele>656.2</ele><time>2026-05-02T14:25:32Z</time></trkpt><trkpt lat="44.647164923004084" lon="9.490035046065245"><ele>657.4</ele><time>2026-05-02T14:25:33Z</time></trkpt><trkpt lat="44.64725006785986" lon="9.489947540811814"><ele>658.5999999999999</ele><time>2026-05-02T14:25:34Z</time></trkpt><trkpt lat="44.64731095773107" lon="9.489817760946451"><ele>659.8</ele><time>2026-05-02T14:25:35Z</time></trkpt><trkpt lat="44.64737283569288" lon="9.489623931165577"><ele>661.0</ele><time>2026-05-02T14:25:36Z</time></trkpt><trkpt lat="44.64743419525763" lon="9.4894281248769"><ele>663.0</ele><time>2026-05-02T14:25:37Z</time></trkpt><trkpt lat="44.64747993395651" lon="9.48924437547846"><ele>665.0</ele><time>2026-05-02T14:25:38Z</time></trkpt><trkpt lat="44.64751832798831" lon="9.489077058309858"><ele>667.0</ele><time>2026-05-02T14:25:39Z</time></trkpt><trkpt lat="44.64754147757587" lon="9.488927747607727"><ele>669.0</ele><time>2026-05-02T14:25:40Z</time></trkpt><trkpt lat="44.647540496938504" lon="9.4887781890912"><ele>670.4000000000001</ele><time>2026-05-02T14:25:41Z</time></trkpt><trkpt lat="44.64751767197073" lon="9.488615807586694"><ele>671.8</ele><time>2026-05-02T14:25:42Z</time></trkpt><trkpt lat="44.64748979216813" lon="9.488444465848206"><ele>673.2</ele><time>2026-05-02T14:25:43Z</time></trkpt><trkpt lat="44.64749396907118" lon="9.488300971878198"><ele>674.5999999999999</ele><time>2026-05-02T14:25:44Z</time></trkpt><trkpt lat="44.64750732541512" lon="9.488182160839894"><ele>676.0</ele><time>2026-05-02T14:25:45Z</time></trkpt><trkpt lat="44.647499325440585" lon="9.488077950769506"><ele>676.0</ele><time>2026-05-02T14:25:46Z</time></trkpt><trkpt lat="44.64747286957456" lon="9.48799040630574"><ele>676.0</ele><time>2026-05-02T14:25:47Z</time></trkpt><trkpt lat="44.647416586538526" lon="9.487885099210226"><ele>676.0</ele><time>2026-05-02T14:25:49Z</time></trkpt><trkpt lat="44.64737234509259" lon="9.487801222563304"><ele>676.0</ele><time>2026-05-02T14:25:51Z</time></trkpt><trkpt lat="44.647310768635755" lon="9.487706871021429"><ele>676.0</ele><time>2026-05-02T14:25:53Z</time></trkpt><trkpt lat="44.64724195481026" lon="9.487578633996788"><ele>676.0</ele><time>2026-05-02T14:25:55Z</time></trkpt><trkpt lat="44.64724670271252" lon="9.48743692416808"><ele>678.25</ele><time>2026-05-02T14:25:57Z</time></trkpt><trkpt lat="44.64734954551076" lon="9.487352972534781"><ele>680.5</ele><time>2026-05-02T14:25:59Z</time></trkpt><trkpt lat="44.647454628649506" lon="9.487330735258524"><ele>682.75</ele><time>2026-05-02T14:26:00Z</time></trkpt><trkpt lat="44.64756586029723" lon="9.487297464475738"><ele>685.0</ele><time>2026-05-02T14:26:01Z</time></trkpt><trkpt lat="44.64767080544784" lon="9.487208429183495"><ele>683.6666666666667</ele><time>2026-05-02T14:26:02Z</time></trkpt><trkpt lat="44.64776871882438" lon="9.487079053156796"><ele>682.3333333333334</ele><time>2026-05-02T14:26:03Z</time></trkpt><trkpt lat="44.647865290895474" lon="9.48689614710725"><ele>681.0</ele><time>2026-05-02T14:26:04Z</time></trkpt><trkpt lat="44.64793587587314" lon="9.48670172123563"><ele>681.0</ele><time>2026-05-02T14:26:05Z</time></trkpt><trkpt lat="44.648004101342295" lon="9.486488799309424"><ele>681.0</ele><time>2026-05-02T14:26:06Z</time></trkpt><trkpt lat="44.64805168257674" lon="9.486322367941275"><ele>681.0</ele><time>2026-05-02T14:26:06.999Z</time></trkpt><trkpt lat="44.648075928995446" lon="9.48620016708164"><ele>681.0</ele><time>2026-05-02T14:26:07.999Z</time></trkpt><trkpt lat="44.648083685090945" lon="9.486092325111786"><ele>682.4</ele><time>2026-05-02T14:26:08.999Z</time></trkpt><trkpt lat="44.64804566730374" lon="9.48599583086152"><ele>683.8</ele><time>2026-05-02T14:26:09.999Z</time></trkpt><trkpt lat="44.648004584580214" lon="9.485846991534302"><ele>685.1999999999999</ele><time>2026-05-02T14:26:10.999Z</time></trkpt><trkpt lat="44.648002039649654" lon="9.485682449057474"><ele>686.5999999999999</ele><time>2026-05-02T14:26:11.999Z</time></trkpt><trkpt lat="44.64803985660683" lon="9.485536829527348"><ele>688.0</ele><time>2026-05-02T14:26:12.999Z</time></trkpt><trkpt lat="44.648050880356664" lon="9.485417279203752"><ele>688.0</ele><time>2026-05-02T14:26:13.999Z</time></trkpt><trkpt lat="44.64801978385035" lon="9.485315435442343"><ele>688.0</ele><time>2026-05-02T14:26:14.999Z</time></trkpt><trkpt lat="44.64795490166945" lon="9.485216305309013"><ele>688.0</ele><time>2026-05-02T14:26:15.999Z</time></trkpt><trkpt lat="44.64787019553196" lon="9.485109743336244"><ele>688.0</ele><time>2026-05-02T14:26:16.999Z</time></trkpt><trkpt lat="44.647781997498605" lon="9.484992344519739"><ele>688.0</ele><time>2026-05-02T14:26:17.999Z</time></trkpt><trkpt lat="44.64772721047634" lon="9.484886716330355"><ele>692.1666666666667</ele><time>2026-05-02T14:26:18.999Z</time></trkpt><trkpt lat="44.6477045398932" lon="9.484769521086768"><ele>696.3333333333334</ele><time>2026-05-02T14:26:19.999Z</time></trkpt><trkpt lat="44.64771563618836" lon="9.484632303091091"><ele>700.5</ele><time>2026-05-02T14:26:20.999Z</time></trkpt><trkpt lat="44.647737580842666" lon="9.484519609171386"><ele>704.6666666666666</ele><time>2026-05-02T14:26:22.001Z</time></trkpt><trkpt lat="44.64775461138224" lon="9.484426540675946"><ele>708.8333333333333</ele><time>2026-05-02T14:26:23.001Z</time></trkpt><trkpt lat="44.647718213162676" lon="9.484283683631057"><ele>713.0</ele><time>2026-05-02T14:26:25.001Z</time></trkpt><trkpt lat="44.64765854772117" lon="9.484184539938935"><ele>713.0</ele><time>2026-05-02T14:26:26.001Z</time></trkpt><trkpt lat="44.64759727388728" lon="9.484044615057167"><ele>713.0</ele><time>2026-05-02T14:26:27.001Z</time></trkpt><trkpt lat="44.647532899943" lon="9.483891736770985"><ele>713.0</ele><time>2026-05-02T14:26:28.001Z</time></trkpt><trkpt lat="44.647485569909726" lon="9.483767560797986"><ele>713.0</ele><time>2026-05-02T14:26:29.001Z</time></trkpt><trkpt lat="44.647490461885084" lon="9.483635412312081"><ele>713.0</ele><time>2026-05-02T14:26:31.001Z</time></trkpt><trkpt lat="44.64759958121176" lon="9.483498563566194"><ele>714.3333333333333</ele><time>2026-05-02T14:26:33.001Z</time></trkpt><trkpt lat="44.64770442169765" lon="9.483375340228601"><ele>715.6666666666666</ele><time>2026-05-02T14:26:34.001Z</time></trkpt><trkpt lat="44.64783101596295" lon="9.483234841548049"><ele>717.0</ele><time>2026-05-02T14:26:35.001Z</time></trkpt><trkpt lat="44.64797294498392" lon="9.483096338256743"><ele>716.0</ele><time>2026-05-02T14:26:36.001Z</time></trkpt><trkpt lat="44.64807163114553" lon="9.482967542736828"><ele>715.0</ele><time>2026-05-02T14:26:37.001Z</time></trkpt><trkpt lat="44.648164245210275" lon="9.48281963970254"><ele>714.0</ele><time>2026-05-02T14:26:38.001Z</time></trkpt><trkpt lat="44.64824463289739" lon="9.48269411415642"><ele>713.0</ele><time>2026-05-02T14:26:39.001Z</time></trkpt><trkpt lat="44.64829519367362" lon="9.482606318063572"><ele>713.0</ele><time>2026-05-02T14:26:40.001Z</time></trkpt><trkpt lat="44.64832946836364" lon="9.482502180406886"><ele>713.0</ele><time>2026-05-02T14:26:41.001Z</time></trkpt><trkpt lat="44.64837161064129" lon="9.482366962271234"><ele>713.0</ele><time>2026-05-02T14:26:42.001Z</time></trkpt><trkpt lat="44.648442470507135" lon="9.482215779349623"><ele>713.0</ele><time>2026-05-02T14:26:43.001Z</time></trkpt><trkpt lat="44.648529017504714" lon="9.482101662641428"><ele>713.0</ele><time>2026-05-02T14:26:44.001Z</time></trkpt><trkpt lat="44.64858460296065" lon="9.482031005468242"><ele>711.5</ele><time>2026-05-02T14:26:45.001Z</time></trkpt><trkpt lat="44.648622265750234" lon="9.481840257806466"><ele>710.0</ele><time>2026-05-02T14:26:47Z</time></trkpt><trkpt lat="44.64863597866281" lon="9.481681240473888"><ele>708.5</ele><time>2026-05-02T14:26:48Z</time></trkpt><trkpt lat="44.6486459469755" lon="9.481521334540421"><ele>707.0</ele><time>2026-05-02T14:26:49Z</time></trkpt><trkpt lat="44.648643794156335" lon="9.481373563571886"><ele>709.8333333333333</ele><time>2026-05-02T14:26:50Z</time></trkpt><trkpt lat="44.648607975182664" lon="9.481260576923825"><ele>712.6666666666666</ele><time>2026-05-02T14:26:51Z</time></trkpt><trkpt lat="44.64854769708904" lon="9.481172247560004"><ele>715.5</ele><time>2026-05-02T14:26:52Z</time></trkpt><trkpt lat="44.64847950998661" lon="9.481093166831585"><ele>718.3333333333334</ele><time>2026-05-02T14:26:53Z</time></trkpt><trkpt lat="44.648417796355034" lon="9.481013072711704"><ele>721.1666666666667</ele><time>2026-05-02T14:26:54Z</time></trkpt><trkpt lat="44.64836509793535" lon="9.480922507644351"><ele>724.0</ele><time>2026-05-02T14:26:55Z</time></trkpt><trkpt lat="44.648318906936275" lon="9.480833067131082"><ele>724.0</ele><time>2026-05-02T14:26:56Z</time></trkpt><trkpt lat="44.64828892662349" lon="9.480747122084258"><ele>724.0</ele><time>2026-05-02T14:26:57Z</time></trkpt><trkpt lat="44.648281813018045" lon="9.48060498829612"><ele>724.0</ele><time>2026-05-02T14:26:59Z</time></trkpt><trkpt lat="44.648342718465585" lon="9.480482724019714"><ele>724.0</ele><time>2026-05-02T14:27:01Z</time></trkpt><trkpt lat="44.648391409870236" lon="9.480414137409614"><ele>724.0</ele><time>2026-05-02T14:27:02Z</time></trkpt><trkpt lat="44.64845450800295" lon="9.480354020957774"><ele>724.0</ele><time>2026-05-02T14:27:03Z</time></trkpt><trkpt lat="44.64853345158092" lon="9.480328319207228"><ele>722.8000000000001</ele><time>2026-05-02T14:27:04Z</time></trkpt><trkpt lat="44.64862081001982" lon="9.480341505611793"><ele>721.6</ele><time>2026-05-02T14:27:05Z</time></trkpt><trkpt lat="44.64872645514787" lon="9.480392633233352"><ele>720.4</ele><time>2026-05-02T14:27:06Z</time></trkpt><trkpt lat="44.648827102509024" lon="9.480440202986351"><ele>719.2</ele><time>2026-05-02T14:27:07Z</time></trkpt><trkpt lat="44.64890805095701" lon="9.480519749254782"><ele>718.0</ele><time>2026-05-02T14:27:08Z</time></trkpt><trkpt lat="44.64899192435434" lon="9.480599991330351"><ele>718.0</ele><time>2026-05-02T14:27:09Z</time></trkpt><trkpt lat="44.649073210209906" lon="9.480662019293188"><ele>718.0</ele><time>2026-05-02T14:27:10Z</time></trkpt><trkpt lat="44.649160077918864" lon="9.4806959587021"><ele>718.0</ele><time>2026-05-02T14:27:11Z</time></trkpt><trkpt lat="44.64925344242579" lon="9.480691604273357"><ele>718.0</ele><time>2026-05-02T14:27:12Z</time></trkpt><trkpt lat="44.649361217051194" lon="9.480662078851166"><ele>718.0</ele><time>2026-05-02T14:27:13Z</time></trkpt><trkpt lat="44.649483025695524" lon="9.480649161117261"><ele>720.4</ele><time>2026-05-02T14:27:14Z</time></trkpt><trkpt lat="44.64958591942557" lon="9.48068488387705"><ele>722.8</ele><time>2026-05-02T14:27:15Z</time></trkpt><trkpt lat="44.649679414967245" lon="9.480765002267106"><ele>725.2</ele><time>2026-05-02T14:27:16Z</time></trkpt><trkpt lat="44.64975565981911" lon="9.48086543757052"><ele>727.6</ele><time>2026-05-02T14:27:17Z</time></trkpt><trkpt lat="44.64983622304969" lon="9.4809542206493"><ele>730.0</ele><time>2026-05-02T14:27:18Z</time></trkpt><trkpt lat="44.649930755260414" lon="9.481006598972304"><ele>730.0</ele><time>2026-05-02T14:27:19Z</time></trkpt><trkpt lat="44.650038889892826" lon="9.481036468427309"><ele>730.0</ele><time>2026-05-02T14:27:20Z</time></trkpt><trkpt lat="44.65016785491422" lon="9.481027190941633"><ele>730.0</ele><time>2026-05-02T14:27:21Z</time></trkpt><trkpt lat="44.65028508606377" lon="9.480999950271578"><ele>730.0</ele><time>2026-05-02T14:27:22Z</time></trkpt><trkpt lat="44.65038815913661" lon="9.480986708673994"><ele>731.0</ele><time>2026-05-02T14:27:23Z</time></trkpt><trkpt lat="44.65047149376968" lon="9.48101214970293"><ele>732.0</ele><time>2026-05-02T14:27:24Z</time></trkpt><trkpt lat="44.65055015917137" lon="9.481062158918771"><ele>733.0</ele><time>2026-05-02T14:27:25Z</time></trkpt><trkpt lat="44.65061554832069" lon="9.481119498933422"><ele>734.0</ele><time>2026-05-02T14:27:26Z</time></trkpt><trkpt lat="44.650680574345145" lon="9.481182649197857"><ele>735.0</ele><time>2026-05-02T14:27:27Z</time></trkpt><trkpt lat="44.650753228272315" lon="9.481244717689572"><ele>736.0</ele><time>2026-05-02T14:27:28Z</time></trkpt><trkpt lat="44.65081683964426" lon="9.481310920378071"><ele>736.0</ele><time>2026-05-02T14:27:29Z</time></trkpt><trkpt lat="44.65087915579499" lon="9.481411497243494"><ele>736.0</ele><time>2026-05-02T14:27:31Z</time></trkpt><trkpt lat="44.650954312393196" lon="9.481352478590289"><ele>736.0</ele><time>2026-05-02T14:27:35Z</time></trkpt><trkpt lat="44.650980063510225" lon="9.481268652668744"><ele>736.0</ele><time>2026-05-02T14:27:37Z</time></trkpt><trkpt lat="44.651027687300115" lon="9.481138698273332"><ele>736.0</ele><time>2026-05-02T14:27:39Z</time></trkpt><trkpt lat="44.65101293734133" lon="9.480992393247815"><ele>737.8</ele><time>2026-05-02T14:27:41Z</time></trkpt><trkpt lat="44.65095215296186" lon="9.480912112325713"><ele>739.5999999999999</ele><time>2026-05-02T14:27:42Z</time></trkpt><trkpt lat="44.65090010764824" lon="9.480834766538983"><ele>741.4</ele><time>2026-05-02T14:27:43Z</time></trkpt><trkpt lat="44.65084181337473" lon="9.480705916384347"><ele>743.2</ele><time>2026-05-02T14:27:45Z</time></trkpt><trkpt lat="44.65081440622149" lon="9.48054786843065"><ele>745.0</ele><time>2026-05-02T14:27:47Z</time></trkpt><trkpt lat="44.65081879497391" lon="9.480416833374031"><ele>747.6</ele><time>2026-05-02T14:27:49Z</time></trkpt><trkpt lat="44.650867940823254" lon="9.480265739258375"><ele>750.2</ele><time>2026-05-02T14:27:51Z</time></trkpt><trkpt lat="44.650877099865575" lon="9.480163674983023"><ele>752.8</ele><time>2026-05-02T14:27:51.999Z</time></trkpt><trkpt lat="44.65084228505272" lon="9.480041219121116"><ele>755.4</ele><time>2026-05-02T14:27:53.999Z</time></trkpt><trkpt lat="44.65082087197798" lon="9.479944903140353"><ele>758.0</ele><time>2026-05-02T14:27:56.999Z</time></trkpt><trkpt lat="44.650747980564525" lon="9.479842035294087"><ele>758.0</ele><time>2026-05-02T14:28:36.001Z</time></trkpt><trkpt lat="44.65069884836083" lon="9.479724605393498"><ele>758.0</ele><time>2026-05-02T14:28:38.001Z</time></trkpt><trkpt lat="44.65068828971815" lon="9.479628864056902"><ele>758.0</ele><time>2026-05-02T14:28:39.001Z</time></trkpt><trkpt lat="44.65067730671165" lon="9.47952435269636"><ele>758.0</ele><time>2026-05-02T14:28:40.001Z</time></trkpt><trkpt lat="44.65064193165796" lon="9.479426777507891"><ele>758.0</ele><time>2026-05-02T14:28:41.001Z</time></trkpt><trkpt lat="44.650589964192626" lon="9.479326556419064"><ele>758.0</ele><time>2026-05-02T14:28:42.001Z</time></trkpt><trkpt lat="44.65054412609592" lon="9.479252584370562"><ele>761.1666666666666</ele><time>2026-05-02T14:28:43.001Z</time></trkpt><trkpt lat="44.650514019103426" lon="9.479171097381387"><ele>764.3333333333333</ele><time>2026-05-02T14:28:44.001Z</time></trkpt><trkpt lat="44.65049430307523" lon="9.47907422177124"><ele>767.5</ele><time>2026-05-02T14:28:45.001Z</time></trkpt><trkpt lat="44.6504512524147" lon="9.478977607565682"><ele>770.6666666666666</ele><time>2026-05-02T14:28:46.001Z</time></trkpt><trkpt lat="44.65040419683569" lon="9.478880176508351"><ele>773.8333333333334</ele><time>2026-05-02T14:28:47.001Z</time></trkpt><trkpt lat="44.650371096779075" lon="9.478779012094556"><ele>777.0</ele><time>2026-05-02T14:28:49Z</time></trkpt><trkpt lat="44.650396261070874" lon="9.478666761855763"><ele>780.3333333333334</ele><time>2026-05-02T14:28:51Z</time></trkpt><trkpt lat="44.65041860844689" lon="9.478529735579365"><ele>783.6666666666667</ele><time>2026-05-02T14:28:53Z</time></trkpt><trkpt lat="44.65042219297364" lon="9.478393749369674"><ele>787.0</ele><time>2026-05-02T14:28:55Z</time></trkpt><trkpt lat="44.65047257426212" lon="9.478313588614602"><ele>790.3333333333334</ele><time>2026-05-02T14:28:57Z</time></trkpt><trkpt lat="44.65049306250344" lon="9.478221581734704"><ele>793.6666666666667</ele><time>2026-05-02T14:29:04Z</time></trkpt><trkpt lat="44.650456967978556" lon="9.47812985720822"><ele>797.0</ele><time>2026-05-02T14:29:07Z</time></trkpt><trkpt lat="44.65038336883886" lon="9.47796451861281"><ele>797.6666666666667</ele><time>2026-05-02T14:29:08Z</time></trkpt><trkpt lat="44.65032895667284" lon="9.477890239506417"><ele>798.3333333333334</ele><time>2026-05-02T14:29:09Z</time></trkpt><trkpt lat="44.65027869374504" lon="9.47779562411849"><ele>799.0</ele><time>2026-05-02T14:29:11Z</time></trkpt><trkpt lat="44.65028478053161" lon="9.477690497299106"><ele>799.6666666666667</ele><time>2026-05-02T14:29:13Z</time></trkpt><trkpt lat="44.65032649927194" lon="9.477611909466782"><ele>800.3333333333334</ele><time>2026-05-02T14:29:15Z</time></trkpt><trkpt lat="44.65041857702117" lon="9.477610921153843"><ele>801.0</ele><time>2026-05-02T14:29:18Z</time></trkpt><trkpt lat="44.65051928207103" lon="9.477620582508406"><ele>803.3333333333334</ele><time>2026-05-02T14:29:19Z</time></trkpt><trkpt lat="44.65061935644617" lon="9.477630649767349"><ele>805.6666666666667</ele><time>2026-05-02T14:30:44.001Z</time></trkpt><trkpt lat="44.65068739403759" lon="9.47762150510572"><ele>808.0</ele><time>2026-05-02T14:30:45.001Z</time></trkpt><trkpt lat="44.65075026757479" lon="9.47763323381352"><ele>810.3333333333334</ele><time>2026-05-02T14:30:46Z</time></trkpt><trkpt lat="44.65081649629625" lon="9.477677432883738"><ele>812.6666666666667</ele><time>2026-05-02T14:30:47Z</time></trkpt><trkpt lat="44.65086414067416" lon="9.477752282327295"><ele>815.0</ele><time>2026-05-02T14:30:48Z</time></trkpt><trkpt lat="44.65091355661583" lon="9.477838104480742"><ele>815.0</ele><time>2026-05-02T14:30:49Z</time></trkpt><trkpt lat="44.65096868132474" lon="9.47789785550564"><ele>815.0</ele><time>2026-05-02T14:30:50Z</time></trkpt><trkpt lat="44.65103397292349" lon="9.477953554556196"><ele>815.0</ele><time>2026-05-02T14:30:51Z</time></trkpt><trkpt lat="44.65109938573098" lon="9.478001081046587"><ele>815.0</ele><time>2026-05-02T14:30:52Z</time></trkpt><trkpt lat="44.651197469479335" lon="9.477992741457262"><ele>815.0</ele><time>2026-05-02T14:30:54Z</time></trkpt><trkpt lat="44.651242522968865" lon="9.477930689089227"><ele>815.0</ele><time>2026-05-02T14:30:55Z</time></trkpt><trkpt lat="44.651283101959415" lon="9.477862540231463"><ele>815.0</ele><time>2026-05-02T14:30:56Z</time></trkpt><trkpt lat="44.651298321682255" lon="9.477772349006704"><ele>816.2</ele><time>2026-05-02T14:30:57Z</time></trkpt><trkpt lat="44.651292649571865" lon="9.47768291941528"><ele>817.4</ele><time>2026-05-02T14:30:58Z</time></trkpt><trkpt lat="44.65137720803892" lon="9.47757442326494"><ele>818.5999999999999</ele><time>2026-05-02T14:31:00Z</time></trkpt><trkpt lat="44.651452453735935" lon="9.477439747136273"><ele>819.8</ele><time>2026-05-02T14:31:02Z</time></trkpt><trkpt lat="44.65148018382203" lon="9.477332745943526"><ele>821.0</ele><time>2026-05-02T14:31:03Z</time></trkpt><trkpt lat="44.651481422682686" lon="9.477220257630592"><ele>821.0</ele><time>2026-05-02T14:31:04Z</time></trkpt><trkpt lat="44.65146569973547" lon="9.47712252753089"><ele>821.0</ele><time>2026-05-02T14:31:05Z</time></trkpt><trkpt lat="44.6514603885877" lon="9.47698432437093"><ele>821.0</ele><time>2026-05-02T14:31:07Z</time></trkpt><trkpt lat="44.651498403291924" lon="9.476842693631383"><ele>821.0</ele><time>2026-05-02T14:31:09Z</time></trkpt><trkpt lat="44.65151615847143" lon="9.476725187383995"><ele>821.0</ele><time>2026-05-02T14:31:11Z</time></trkpt><trkpt lat="44.65144207400403" lon="9.476616373262425"><ele>824.1999999999999</ele><time>2026-05-02T14:31:13Z</time></trkpt><trkpt lat="44.65132798612646" lon="9.476585165713185"><ele>827.4</ele><time>2026-05-02T14:31:15Z</time></trkpt><trkpt lat="44.651247554287146" lon="9.476522647244709"><ele>830.6</ele><time>2026-05-02T14:31:17Z</time></trkpt><trkpt lat="44.65127123072727" lon="9.476363800570981"><ele>833.8</ele><time>2026-05-02T14:31:19Z</time></trkpt><trkpt lat="44.65132236658338" lon="9.47627735826868"><ele>837.0</ele><time>2026-05-02T14:31:20Z</time></trkpt><trkpt lat="44.6513338285393" lon="9.47616314625294"><ele>838.3333333333334</ele><time>2026-05-02T14:31:22Z</time></trkpt><trkpt lat="44.651290999855036" lon="9.476083064153407"><ele>839.6666666666667</ele><time>2026-05-02T14:31:23Z</time></trkpt><trkpt lat="44.65124754298489" lon="9.475980919312871"><ele>841.0</ele><time>2026-05-02T14:31:24Z</time></trkpt><trkpt lat="44.65120293455968" lon="9.475867406861319"><ele>842.3333333333334</ele><time>2026-05-02T14:31:25Z</time></trkpt><trkpt lat="44.65116904718198" lon="9.47575150895547"><ele>843.6666666666667</ele><time>2026-05-02T14:31:26Z</time></trkpt><trkpt lat="44.65113430837574" lon="9.47564008880792"><ele>845.0</ele><time>2026-05-02T14:31:27Z</time></trkpt><trkpt lat="44.651081838748006" lon="9.47556947404547"><ele>845.0</ele><time>2026-05-02T14:31:28Z</time></trkpt><trkpt lat="44.651002934557496" lon="9.475486088218176"><ele>845.0</ele><time>2026-05-02T14:31:29Z</time></trkpt><trkpt lat="44.650953908821265" lon="9.475382574024145"><ele>845.0</ele><time>2026-05-02T14:31:30Z</time></trkpt><trkpt lat="44.65092920341496" lon="9.475275754659178"><ele>845.0</ele><time>2026-05-02T14:31:31Z</time></trkpt><trkpt lat="44.65090348413475" lon="9.475189998919703"><ele>845.0</ele><time>2026-05-02T14:31:32Z</time></trkpt><trkpt lat="44.6507810683377" lon="9.47511337897719"><ele>849.8</ele><time>2026-05-02T14:31:33.999Z</time></trkpt><trkpt lat="44.6507111301894" lon="9.475036340415597"><ele>854.6</ele><time>2026-05-02T14:31:34.999Z</time></trkpt><trkpt lat="44.65066208249458" lon="9.474935069293027"><ele>859.4000000000001</ele><time>2026-05-02T14:31:35.999Z</time></trkpt><trkpt lat="44.65059849173461" lon="9.474839242027265"><ele>864.2</ele><time>2026-05-02T14:31:36.999Z</time></trkpt><trkpt lat="44.65051346777414" lon="9.474749145556217"><ele>869.0</ele><time>2026-05-02T14:31:37.999Z</time></trkpt><trkpt lat="44.65042048374589" lon="9.474678190270852"><ele>869.0000000000001</ele><time>2026-05-02T14:31:38.999Z</time></trkpt><trkpt lat="44.65033192346527" lon="9.474645047341692"><ele>869.0</ele><time>2026-05-02T14:31:39.999Z</time></trkpt><trkpt lat="44.65024478870873" lon="9.47460880249991"><ele>869.0</ele><time>2026-05-02T14:31:40.999Z</time></trkpt><trkpt lat="44.65016120133394" lon="9.474570207345282"><ele>869.0</ele><time>2026-05-02T14:31:41.999Z</time></trkpt><trkpt lat="44.65010198766466" lon="9.474523998216569"><ele>869.0000000000001</ele><time>2026-05-02T14:31:42.999Z</time></trkpt><trkpt lat="44.65004294713286" lon="9.47448608944978"><ele>869.0</ele><time>2026-05-02T14:31:43.999Z</time></trkpt><trkpt lat="44.649969470176195" lon="9.474461393211314"><ele>874.2</ele><time>2026-05-02T14:31:44.999Z</time></trkpt><trkpt lat="44.649875997820565" lon="9.474425796053216"><ele>879.4000000000001</ele><time>2026-05-02T14:31:45.999Z</time></trkpt><trkpt lat="44.64979597497387" lon="9.47438920670611"><ele>884.6</ele><time>2026-05-02T14:31:46.999Z</time></trkpt><trkpt lat="44.64973138675331" lon="9.47435797750192"><ele>889.8</ele><time>2026-05-02T14:31:47.999Z</time></trkpt><trkpt lat="44.64970663391288" lon="9.474213552640817"><ele>895.0</ele><time>2026-05-02T14:31:49.999Z</time></trkpt><trkpt lat="44.64966968821854" lon="9.474058687702048"><ele>895.0</ele><time>2026-05-02T14:31:51.999Z</time></trkpt><trkpt lat="44.649630310716454" lon="9.473956681546868"><ele>895.0</ele><time>2026-05-02T14:31:53.999Z</time></trkpt><trkpt lat="44.649684156409656" lon="9.473794255919364"><ele>895.0</ele><time>2026-05-02T14:31:55.999Z</time></trkpt><trkpt lat="44.6497713136668" lon="9.473707525286983"><ele>895.0</ele><time>2026-05-02T14:31:57.999Z</time></trkpt><trkpt lat="44.64988572452592" lon="9.473597704228021"><ele>897.9999999999999</ele><time>2026-05-02T14:31:59.999Z</time></trkpt><trkpt lat="44.64993730930876" lon="9.473521477469543"><ele>901.0</ele><time>2026-05-02T14:32:00.999Z</time></trkpt><trkpt lat="44.649922843939635" lon="9.473431310387301"><ele>904.0</ele><time>2026-05-02T14:32:01.999Z</time></trkpt><trkpt lat="44.64989574661779" lon="9.473343402696765"><ele>907.0</ele><time>2026-05-02T14:32:02.999Z</time></trkpt><trkpt lat="44.64987013492438" lon="9.473254782648436"><ele>909.9999999999999</ele><time>2026-05-02T14:32:03.999Z</time></trkpt><trkpt lat="44.64987504049749" lon="9.473065598154408"><ele>913.0</ele><time>2026-05-02T14:32:05.999Z</time></trkpt><trkpt lat="44.64990102240341" lon="9.47296313726502"><ele>915.4</ele><time>2026-05-02T14:32:06.999Z</time></trkpt><trkpt lat="44.64998909603363" lon="9.472871016733004"><ele>917.8</ele><time>2026-05-02T14:32:08.999Z</time></trkpt><trkpt lat="44.65001596350049" lon="9.472781423481418"><ele>920.2</ele><time>2026-05-02T14:32:09.999Z</time></trkpt><trkpt lat="44.65004132259913" lon="9.472689269537666"><ele>922.6</ele><time>2026-05-02T14:32:10.999Z</time></trkpt><trkpt lat="44.65003893078907" lon="9.472512583551199"><ele>925.0</ele><time>2026-05-02T14:32:12.999Z</time></trkpt><trkpt lat="44.65000244802763" lon="9.472417193377758"><ele>924.9999999999999</ele><time>2026-05-02T14:32:13.999Z</time></trkpt><trkpt lat="44.64998466736918" lon="9.47230873554229"><ele>925.0</ele><time>2026-05-02T14:32:14.999Z</time></trkpt><trkpt lat="44.64998963354142" lon="9.472182359900726"><ele>925.0</ele><time>2026-05-02T14:32:15.999Z</time></trkpt><trkpt lat="44.64999270941054" lon="9.472057513385588"><ele>925.0</ele><time>2026-05-02T14:32:16.999Z</time></trkpt><trkpt lat="44.6499624362206" lon="9.47195831122856"><ele>924.9999999999999</ele><time>2026-05-02T14:32:17.999Z</time></trkpt><trkpt lat="44.6499327391907" lon="9.471867004286192"><ele>925.0</ele><time>2026-05-02T14:32:18.999Z</time></trkpt><trkpt lat="44.649932541121736" lon="9.471769144569794"><ele>925.6</ele><time>2026-05-02T14:32:19.999Z</time></trkpt><trkpt lat="44.649932589029824" lon="9.471633844235084"><ele>926.2</ele><time>2026-05-02T14:32:20.999Z</time></trkpt><trkpt lat="44.64993077830258" lon="9.471460920502812"><ele>926.8</ele><time>2026-05-02T14:32:21.999Z</time></trkpt><trkpt lat="44.649939594778196" lon="9.471329930604593"><ele>927.4</ele><time>2026-05-02T14:32:22.999Z</time></trkpt><trkpt lat="44.64996860736788" lon="9.471191848457027"><ele>928.0</ele><time>2026-05-02T14:32:23.999Z</time></trkpt><trkpt lat="44.65001369507592" lon="9.471023127644713"><ele>928.0</ele><time>2026-05-02T14:32:24.999Z</time></trkpt><trkpt lat="44.65005695405723" lon="9.470839779102327"><ele>928.0</ele><time>2026-05-02T14:32:25.999Z</time></trkpt><trkpt lat="44.65007957258594" lon="9.470671252716329"><ele>928.0</ele><time>2026-05-02T14:32:26.999Z</time></trkpt><trkpt lat="44.6500942082949" lon="9.47046745053566"><ele>928.0</ele><time>2026-05-02T14:32:27.999Z</time></trkpt><trkpt lat="44.65008323277986" lon="9.470265236724973"><ele>928.25</ele><time>2026-05-02T14:32:28.999Z</time></trkpt><trkpt lat="44.650071917429464" lon="9.470049136910502"><ele>928.5</ele><time>2026-05-02T14:32:29.999Z</time></trkpt><trkpt lat="44.65005696170696" lon="9.46983699589258"><ele>928.75</ele><time>2026-05-02T14:32:30.999Z</time></trkpt><trkpt lat="44.65003992654969" lon="9.46965878631109"><ele>929.0</ele><time>2026-05-02T14:32:31.999Z</time></trkpt><trkpt lat="44.650007940901105" lon="9.469503659515423"><ele>929.8000000000001</ele><time>2026-05-02T14:32:32.999Z</time></trkpt><trkpt lat="44.64995739142641" lon="9.469359030654743"><ele>930.6000000000001</ele><time>2026-05-02T14:32:33.999Z</time></trkpt><trkpt lat="44.649935015257434" lon="9.469242346717065"><ele>931.4</ele><time>2026-05-02T14:32:34.999Z</time></trkpt><trkpt lat="44.6499349325119" lon="9.469124324892723"><ele>932.2</ele><time>2026-05-02T14:32:35.998Z</time></trkpt><trkpt lat="44.6499302239483" lon="9.46898750343032"><ele>933.0</ele><time>2026-05-02T14:32:36.998Z</time></trkpt><trkpt lat="44.649931872852875" lon="9.468847126219188"><ele>935.0</ele><time>2026-05-02T14:32:37.998Z</time></trkpt><trkpt lat="44.649944235119065" lon="9.468694887082933"><ele>937.0</ele><time>2026-05-02T14:32:38.998Z</time></trkpt><trkpt lat="44.64994993195852" lon="9.468564803098166"><ele>939.0</ele><time>2026-05-02T14:32:40Z</time></trkpt><trkpt lat="44.649960758949604" lon="9.468437882646567"><ele>941.0</ele><time>2026-05-02T14:32:41Z</time></trkpt><trkpt lat="44.64996202078615" lon="9.468324452117637"><ele>943.0</ele><time>2026-05-02T14:32:42Z</time></trkpt><trkpt lat="44.64997337809081" lon="9.468211511596678"><ele>942.9999999999999</ele><time>2026-05-02T14:32:43Z</time></trkpt><trkpt lat="44.649987149660234" lon="9.468086333004877"><ele>943.0</ele><time>2026-05-02T14:32:44Z</time></trkpt><trkpt lat="44.649988301137014" lon="9.46799102915249"><ele>943.0</ele><time>2026-05-02T14:32:45Z</time></trkpt><trkpt lat="44.64998982602639" lon="9.467896562249331"><ele>943.0</ele><time>2026-05-02T14:32:46Z</time></trkpt><trkpt lat="44.64999277104182" lon="9.467765695300688"><ele>942.9999999999999</ele><time>2026-05-02T14:32:48Z</time></trkpt><trkpt lat="44.65000273728147" lon="9.46766855886233"><ele>943.0</ele><time>2026-05-02T14:32:49Z</time></trkpt><trkpt lat="44.65009106210204" lon="9.46752426290546"><ele>944.3333333333333</ele><time>2026-05-02T14:32:51Z</time></trkpt><trkpt lat="44.65014888489024" lon="9.467445975833199"><ele>945.6666666666666</ele><time>2026-05-02T14:32:52Z</time></trkpt><trkpt lat="44.65023105359042" lon="9.46739322169493"><ele>947.0</ele><time>2026-05-02T14:32:53Z</time></trkpt><trkpt lat="44.650305344530906" lon="9.467361422979181"><ele>948.3333333333333</ele><time>2026-05-02T14:32:54Z</time></trkpt><trkpt lat="44.65037079496617" lon="9.467326082441668"><ele>949.6666666666666</ele><time>2026-05-02T14:32:55Z</time></trkpt><trkpt lat="44.65040292589876" lon="9.4672491216756"><ele>951.0</ele><time>2026-05-02T14:32:56Z</time></trkpt><trkpt lat="44.650437768875406" lon="9.467122770380724"><ele>953.8333333333334</ele><time>2026-05-02T14:32:57Z</time></trkpt><trkpt lat="44.65043890725103" lon="9.467022471955715"><ele>956.6666666666667</ele><time>2026-05-02T14:32:58Z</time></trkpt><trkpt lat="44.6504342116766" lon="9.466896113438294"><ele>959.5</ele><time>2026-05-02T14:32:59Z</time></trkpt><trkpt lat="44.650449930869236" lon="9.46676285479892"><ele>962.3333333333334</ele><time>2026-05-02T14:33:00Z</time></trkpt><trkpt lat="44.65048713452522" lon="9.466645573774228"><ele>965.1666666666667</ele><time>2026-05-02T14:33:01Z</time></trkpt><trkpt lat="44.65052362954404" lon="9.46655027982103"><ele>968.0</ele><time>2026-05-02T14:33:02Z</time></trkpt><trkpt lat="44.650575933884326" lon="9.466459087536746"><ele>968.0000000000001</ele><time>2026-05-02T14:33:03Z</time></trkpt><trkpt lat="44.65060907145" lon="9.466355672959464"><ele>968.0</ele><time>2026-05-02T14:33:04Z</time></trkpt><trkpt lat="44.65063184287759" lon="9.466258520397194"><ele>968.0</ele><time>2026-05-02T14:33:05Z</time></trkpt><trkpt lat="44.650646789508016" lon="9.466170682971116"><ele>968.0</ele><time>2026-05-02T14:33:06Z</time></trkpt><trkpt lat="44.650676148317274" lon="9.465991571655447"><ele>968.0000000000001</ele><time>2026-05-02T14:33:08Z</time></trkpt><trkpt lat="44.65068974872162" lon="9.465857394656847"><ele>968.0</ele><time>2026-05-02T14:33:09Z</time></trkpt><trkpt lat="44.65071132880444" lon="9.465734092808338"><ele>970.0</ele><time>2026-05-02T14:33:10Z</time></trkpt><trkpt lat="44.65076662451695" lon="9.465662751089205"><ele>972.0</ele><time>2026-05-02T14:33:11Z</time></trkpt><trkpt lat="44.65081372414602" lon="9.465540460684082"><ele>974.0</ele><time>2026-05-02T14:33:13Z</time></trkpt><trkpt lat="44.650886364884066" lon="9.465409437578908"><ele>976.0</ele><time>2026-05-02T14:33:15Z</time></trkpt><trkpt lat="44.650960001114896" lon="9.46524441272209"><ele>978.0</ele><time>2026-05-02T14:33:17Z</time></trkpt><trkpt lat="44.651025482706544" lon="9.465169492427302"><ele>978.0</ele><time>2026-05-02T14:33:18Z</time></trkpt><trkpt lat="44.65108741557536" lon="9.465126396388744"><ele>978.0</ele><time>2026-05-02T14:33:19Z</time></trkpt><trkpt lat="44.651152475333326" lon="9.465110490988604"><ele>978.0</ele><time>2026-05-02T14:33:20Z</time></trkpt><trkpt lat="44.6512376682457" lon="9.465098604870946"><ele>978.0</ele><time>2026-05-02T14:33:21Z</time></trkpt><trkpt lat="44.651340301570805" lon="9.465071862189198"><ele>978.0</ele><time>2026-05-02T14:33:22Z</time></trkpt><trkpt lat="44.65140230936533" lon="9.465021014483163"><ele>978.0</ele><time>2026-05-02T14:33:23Z</time></trkpt><trkpt lat="44.65146239680129" lon="9.464909713605252"><ele>979.8</ele><time>2026-05-02T14:33:24Z</time></trkpt><trkpt lat="44.65152598284325" lon="9.464774366125189"><ele>981.5999999999999</ele><time>2026-05-02T14:33:25Z</time></trkpt><trkpt lat="44.65155631905913" lon="9.464644692950525"><ele>983.4000000000001</ele><time>2026-05-02T14:33:26Z</time></trkpt><trkpt lat="44.65160856577092" lon="9.464516510811741"><ele>985.2</ele><time>2026-05-02T14:33:27Z</time></trkpt><trkpt lat="44.65167508261436" lon="9.464406543841422"><ele>987.0</ele><time>2026-05-02T14:33:28Z</time></trkpt><trkpt lat="44.6517607969457" lon="9.464305018310439"><ele>987.0</ele><time>2026-05-02T14:33:29Z</time></trkpt><trkpt lat="44.65184461080752" lon="9.464187871568162"><ele>987.0</ele><time>2026-05-02T14:33:30Z</time></trkpt><trkpt lat="44.65192315873532" lon="9.464038908446465"><ele>987.0</ele><time>2026-05-02T14:33:31Z</time></trkpt><trkpt lat="44.65198998279043" lon="9.463896959210736"><ele>987.0</ele><time>2026-05-02T14:33:32Z</time></trkpt><trkpt lat="44.6520392924129" lon="9.463793696691122"><ele>988.0</ele><time>2026-05-02T14:33:32.999Z</time></trkpt><trkpt lat="44.652081476887716" lon="9.463690151360954"><ele>989.0</ele><time>2026-05-02T14:33:33.999Z</time></trkpt><trkpt lat="44.65210034968501" lon="9.463601653571954"><ele>990.0</ele><time>2026-05-02T14:33:34.999Z</time></trkpt><trkpt lat="44.65209477676447" lon="9.463493919259639"><ele>991.0</ele><time>2026-05-02T14:33:35.999Z</time></trkpt><trkpt lat="44.65208146890275" lon="9.463406768904935"><ele>992.0</ele><time>2026-05-02T14:33:36.999Z</time></trkpt><trkpt lat="44.65207470297443" lon="9.463263050188292"><ele>993.0</ele><time>2026-05-02T14:33:38.999Z</time></trkpt><trkpt lat="44.652117673106055" lon="9.463151217984759"><ele>993.0</ele><time>2026-05-02T14:33:39.999Z</time></trkpt><trkpt lat="44.65217005028725" lon="9.463074748569197"><ele>993.0</ele><time>2026-05-02T14:35:38.999Z</time></trkpt><trkpt lat="44.65225962231384" lon="9.462899964544686"><ele>993.0</ele><time>2026-05-02T14:35:40.999Z</time></trkpt><trkpt lat="44.652320347087155" lon="9.462760089956657"><ele>993.0</ele><time>2026-05-02T14:35:41.999Z</time></trkpt><trkpt lat="44.652403096140944" lon="9.462608203479512"><ele>993.0</ele><time>2026-05-02T14:35:42.999Z</time></trkpt><trkpt lat="44.65246295218379" lon="9.462476207641762"><ele>993.0</ele><time>2026-05-02T14:35:43.999Z</time></trkpt><trkpt lat="44.65250986754751" lon="9.46239028802867"><ele>993.0</ele><time>2026-05-02T14:35:44.999Z</time></trkpt><trkpt lat="44.65257796887113" lon="9.462312468734744"><ele>993.0</ele><time>2026-05-02T14:35:45.999Z</time></trkpt><trkpt lat="44.652674561995106" lon="9.462200100721889"><ele>993.0</ele><time>2026-05-02T14:35:46.999Z</time></trkpt><trkpt lat="44.65276080863283" lon="9.462079525983366"><ele>995.0</ele><time>2026-05-02T14:35:47.999Z</time></trkpt><trkpt lat="44.652821122294114" lon="9.462004536252326"><ele>997.0</ele><time>2026-05-02T14:35:48.999Z</time></trkpt><trkpt lat="44.652895199366704" lon="9.461941283314129"><ele>999.0</ele><time>2026-05-02T14:35:49.999Z</time></trkpt><trkpt lat="44.65298202758678" lon="9.461897786174273"><ele>1001.0</ele><time>2026-05-02T14:35:50.999Z</time></trkpt><trkpt lat="44.653068690608535" lon="9.461828400788503"><ele>1003.0</ele><time>2026-05-02T14:35:51.999Z</time></trkpt><trkpt lat="44.653166025703115" lon="9.4617775782839"><ele>1002.9999999999999</ele><time>2026-05-02T14:35:52.999Z</time></trkpt><trkpt lat="44.6532529138207" lon="9.46177024018204"><ele>1003.0</ele><time>2026-05-02T14:35:53.999Z</time></trkpt><trkpt lat="44.65332846983916" lon="9.46173584147855"><ele>1003.0</ele><time>2026-05-02T14:35:54.999Z</time></trkpt><trkpt lat="44.653391942464125" lon="9.461671730713299"><ele>1003.0</ele><time>2026-05-02T14:35:55.999Z</time></trkpt><trkpt lat="44.653461031394734" lon="9.46161481778922"><ele>1002.9999999999999</ele><time>2026-05-02T14:35:56.999Z</time></trkpt><trkpt lat="44.65353787651332" lon="9.461556370086667"><ele>1003.0</ele><time>2026-05-02T14:35:57.999Z</time></trkpt><trkpt lat="44.65362619902814" lon="9.461475242316771"><ele>1002.4</ele><time>2026-05-02T14:35:58.999Z</time></trkpt><trkpt lat="44.653715420104646" lon="9.461379205433385"><ele>1001.8</ele><time>2026-05-02T14:35:59.999Z</time></trkpt><trkpt lat="44.65379163845715" lon="9.461285947845548"><ele>1001.2</ele><time>2026-05-02T14:36:00.999Z</time></trkpt><trkpt lat="44.6538673556643" lon="9.461209315652882"><ele>1000.6</ele><time>2026-05-02T14:36:01.999Z</time></trkpt><trkpt lat="44.65396043871965" lon="9.46113746776486"><ele>1000.0</ele><time>2026-05-02T14:36:02.999Z</time></trkpt><trkpt lat="44.65405916889427" lon="9.461086305216678"><ele>1001.2</ele><time>2026-05-02T14:36:03.999Z</time></trkpt><trkpt lat="44.654161888648495" lon="9.461056639040716"><ele>1002.4</ele><time>2026-05-02T14:36:04.999Z</time></trkpt><trkpt lat="44.65425158063039" lon="9.461018956476101"><ele>1003.5999999999999</ele><time>2026-05-02T14:36:05.999Z</time></trkpt><trkpt lat="44.654312756166505" lon="9.460941023326484"><ele>1004.8</ele><time>2026-05-02T14:36:06.999Z</time></trkpt><trkpt lat="44.654355344982996" lon="9.460836799001644"><ele>1006.0</ele><time>2026-05-02T14:36:07.999Z</time></trkpt><trkpt lat="44.654406993343414" lon="9.460710473049822"><ele>1006.8</ele><time>2026-05-02T14:36:08.999Z</time></trkpt><trkpt lat="44.654473767772146" lon="9.460604599588917"><ele>1007.5999999999999</ele><time>2026-05-02T14:36:09.999Z</time></trkpt><trkpt lat="44.65454381379925" lon="9.460563062921814"><ele>1008.4</ele><time>2026-05-02T14:36:10.999Z</time></trkpt><trkpt lat="44.65460604160486" lon="9.460425606427787"><ele>1009.2</ele><time>2026-05-02T14:36:12.999Z</time></trkpt><trkpt lat="44.6545998734274" lon="9.46032289972919"><ele>1010.0</ele><time>2026-05-02T14:36:13.999Z</time></trkpt><trkpt lat="44.65461555798206" lon="9.460187529794043"><ele>1010.0</ele><time>2026-05-02T14:36:14.999Z</time></trkpt><trkpt lat="44.65464590139106" lon="9.460018602806452"><ele>1010.0</ele><time>2026-05-02T14:36:15.999Z</time></trkpt><trkpt lat="44.6546616587078" lon="9.459863615246942"><ele>1010.0</ele><time>2026-05-02T14:36:16.999Z</time></trkpt><trkpt lat="44.65467280472082" lon="9.459742895687219"><ele>1010.0</ele><time>2026-05-02T14:36:17.999Z</time></trkpt><trkpt lat="44.65471893966716" lon="9.459649895510003"><ele>1010.0</ele><time>2026-05-02T14:36:19.999Z</time></trkpt><trkpt lat="44.65478473051271" lon="9.45959518989029"><ele>1011.2</ele><time>2026-05-02T14:36:20.999Z</time></trkpt><trkpt lat="44.65486855990512" lon="9.45954165556087"><ele>1012.4</ele><time>2026-05-02T14:36:21.999Z</time></trkpt><trkpt lat="44.654921583917805" lon="9.4594526456678"><ele>1013.5999999999999</ele><time>2026-05-02T14:36:22.999Z</time></trkpt><trkpt lat="44.65494436645699" lon="9.459327863959968"><ele>1014.8</ele><time>2026-05-02T14:36:23.999Z</time></trkpt><trkpt lat="44.65496626312158" lon="9.459176579811242"><ele>1016.0</ele><time>2026-05-02T14:36:24.999Z</time></trkpt><trkpt lat="44.655023893206454" lon="9.459050772095232"><ele>1016.0</ele><time>2026-05-02T14:36:25.999Z</time></trkpt><trkpt lat="44.65508911006371" lon="9.458970634367954"><ele>1015.9999999999999</ele><time>2026-05-02T14:36:26.999Z</time></trkpt><trkpt lat="44.65517406334032" lon="9.4589015513308"><ele>1015.9999999999999</ele><time>2026-05-02T14:36:27.999Z</time></trkpt><trkpt lat="44.6552618128069" lon="9.458835319514002"><ele>1016.0</ele><time>2026-05-02T14:36:28.999Z</time></trkpt><trkpt lat="44.65531814946393" lon="9.458757422569496"><ele>1016.0</ele><time>2026-05-02T14:36:29.999Z</time></trkpt><trkpt lat="44.65536283505397" lon="9.45862989672723"><ele>1015.25</ele><time>2026-05-02T14:36:30.999Z</time></trkpt><trkpt lat="44.6554030556581" lon="9.458461421181676"><ele>1014.5</ele><time>2026-05-02T14:36:31.999Z</time></trkpt><trkpt lat="44.65544021979776" lon="9.458285603495646"><ele>1013.75</ele><time>2026-05-02T14:36:32.998Z</time></trkpt><trkpt lat="44.65546529506564" lon="9.458107901082403"><ele>1013.0</ele><time>2026-05-02T14:36:33.998Z</time></trkpt><trkpt lat="44.65549900798219" lon="9.457911021785298"><ele>1013.0000000000001</ele><time>2026-05-02T14:36:34.998Z</time></trkpt><trkpt lat="44.655535645820684" lon="9.45774735261091"><ele>1013.0</ele><time>2026-05-02T14:36:35.998Z</time></trkpt><trkpt lat="44.655585714667595" lon="9.457628284322752"><ele>1013.0</ele><time>2026-05-02T14:36:36.998Z</time></trkpt><trkpt lat="44.655610728879466" lon="9.45753319320139"><ele>1013.0</ele><time>2026-05-02T14:36:37.998Z</time></trkpt><trkpt lat="44.655612909411005" lon="9.457432443856398"><ele>1013.0000000000001</ele><time>2026-05-02T14:36:38.998Z</time></trkpt><trkpt lat="44.65562558070241" lon="9.457319765948895"><ele>1013.0</ele><time>2026-05-02T14:36:39.998Z</time></trkpt><trkpt lat="44.65563446063848" lon="9.457160089854781"><ele>1014.4</ele><time>2026-05-02T14:36:40.998Z</time></trkpt><trkpt lat="44.65563996202224" lon="9.457024995058763"><ele>1015.8</ele><time>2026-05-02T14:36:41.998Z</time></trkpt><trkpt lat="44.65563720571861" lon="9.45688940403902"><ele>1017.2</ele><time>2026-05-02T14:36:42.998Z</time></trkpt><trkpt lat="44.65563863759301" lon="9.456750994460217"><ele>1018.6</ele><time>2026-05-02T14:36:43.998Z</time></trkpt><trkpt lat="44.65565417038087" lon="9.456630632228169"><ele>1020.0</ele><time>2026-05-02T14:36:44.998Z</time></trkpt><trkpt lat="44.65574428322494" lon="9.456576250771265"><ele>1020.0</ele><time>2026-05-02T14:36:46.998Z</time></trkpt><trkpt lat="44.655840410107686" lon="9.456551459299128"><ele>1020.0</ele><time>2026-05-02T14:36:47.998Z</time></trkpt><trkpt lat="44.655942967252194" lon="9.456485857635693"><ele>1020.0</ele><time>2026-05-02T14:36:48.998Z</time></trkpt><trkpt lat="44.65600031759741" lon="9.456404886836367"><ele>1020.0</ele><time>2026-05-02T14:36:49.998Z</time></trkpt><trkpt lat="44.6560280079307" lon="9.45631321583295"><ele>1020.0</ele><time>2026-05-02T14:36:50.998Z</time></trkpt><trkpt lat="44.656077279243746" lon="9.456224097481817"><ele>1020.0</ele><time>2026-05-02T14:36:52Z</time></trkpt><trkpt lat="44.656134013577955" lon="9.456150323197141"><ele>1022.3333333333334</ele><time>2026-05-02T14:36:53Z</time></trkpt><trkpt lat="44.65619647691474" lon="9.456059062370155"><ele>1024.6666666666667</ele><time>2026-05-02T14:36:54Z</time></trkpt><trkpt lat="44.65624513384909" lon="9.455942430041102"><ele>1027.0</ele><time>2026-05-02T14:36:55Z</time></trkpt><trkpt lat="44.65627733394724" lon="9.455854285232931"><ele>1029.3333333333335</ele><time>2026-05-02T14:36:56Z</time></trkpt><trkpt lat="44.65631193510326" lon="9.455770568747607"><ele>1031.6666666666667</ele><time>2026-05-02T14:36:57Z</time></trkpt><trkpt lat="44.656410806038785" lon="9.455712623031344"><ele>1034.0</ele><time>2026-05-02T14:36:59Z</time></trkpt><trkpt lat="44.65651226450116" lon="9.455819535922316"><ele>1034.0</ele><time>2026-05-02T14:37:01Z</time></trkpt><trkpt lat="44.65655543033211" lon="9.455925285347606"><ele>1034.0</ele><time>2026-05-02T14:37:02Z</time></trkpt><trkpt lat="44.65659748024346" lon="9.456039454459814"><ele>1034.0</ele><time>2026-05-02T14:37:03Z</time></trkpt><trkpt lat="44.65670973667277" lon="9.456102308238487"><ele>1034.0</ele><time>2026-05-02T14:37:05Z</time></trkpt><trkpt lat="44.656831873815555" lon="9.45609350324885"><ele>1034.0</ele><time>2026-05-02T14:37:06Z</time></trkpt><trkpt lat="44.656974033554626" lon="9.456086068852642"><ele>1034.2</ele><time>2026-05-02T14:37:07Z</time></trkpt><trkpt lat="44.657092435148066" lon="9.456079455163984"><ele>1034.4</ele><time>2026-05-02T14:37:08Z</time></trkpt><trkpt lat="44.6571762700401" lon="9.456138167463076"><ele>1034.6</ele><time>2026-05-02T14:37:10Z</time></trkpt><trkpt lat="44.6572041269575" lon="9.456263220122716"><ele>1034.8</ele><time>2026-05-02T14:37:11Z</time></trkpt><trkpt lat="44.65725308355726" lon="9.456424155192522"><ele>1035.0</ele><time>2026-05-02T14:37:12Z</time></trkpt><trkpt lat="44.657317081023066" lon="9.4565464776828"><ele>1035.0</ele><time>2026-05-02T14:37:13Z</time></trkpt><trkpt lat="44.65738524906345" lon="9.456672936094511"><ele>1035.0</ele><time>2026-05-02T14:37:14Z</time></trkpt><trkpt lat="44.65748161862779" lon="9.456708650223113"><ele>1035.0</ele><time>2026-05-02T14:37:16Z</time></trkpt><trkpt lat="44.657533846110425" lon="9.456650623603581"><ele>1035.0</ele><time>2026-05-02T14:37:17Z</time></trkpt><trkpt lat="44.657552224314784" lon="9.45653844151744"><ele>1035.0</ele><time>2026-05-02T14:37:19Z</time></trkpt><trkpt lat="44.657502701646635" lon="9.456466450497475"><ele>1035.0</ele><time>2026-05-02T14:37:23Z</time></trkpt><trkpt lat="44.65744389101324" lon="9.456422365905349"><ele>1037.75</ele><time>2026-05-02T14:37:34.999Z</time></trkpt><trkpt lat="44.65736556768108" lon="9.456244792464698"><ele>1040.5</ele><time>2026-05-02T14:37:36.999Z</time></trkpt><trkpt lat="44.657318797417865" lon="9.456103278068193"><ele>1043.25</ele><time>2026-05-02T14:37:37.999Z</time></trkpt><trkpt lat="44.657271931480985" lon="9.455942631843213"><ele>1046.0</ele><time>2026-05-02T14:37:38.999Z</time></trkpt><trkpt lat="44.65722519015302" lon="9.455767000229926"><ele>1046.0</ele><time>2026-05-02T14:37:39.999Z</time></trkpt><trkpt lat="44.65719634146725" lon="9.455583177734702"><ele>1046.0</ele><time>2026-05-02T14:37:40.999Z</time></trkpt><trkpt lat="44.65721149974669" lon="9.455410211914204"><ele>1046.0</ele><time>2026-05-02T14:37:41.999Z</time></trkpt><trkpt lat="44.65724030418065" lon="9.455267387748323"><ele>1046.0</ele><time>2026-05-02T14:37:42.999Z</time></trkpt><trkpt lat="44.65723617828581" lon="9.455141518243233"><ele>1045.6666666666667</ele><time>2026-05-02T14:37:43.999Z</time></trkpt><trkpt lat="44.65718585888055" lon="9.455044314612696"><ele>1045.3333333333335</ele><time>2026-05-02T14:37:44.999Z</time></trkpt><trkpt lat="44.65711799371076" lon="9.45498531031349"><ele>1045.0</ele><time>2026-05-02T14:37:45.999Z</time></trkpt><trkpt lat="44.657051076045086" lon="9.454960951341242"><ele>1044.6666666666667</ele><time>2026-05-02T14:37:46.999Z</time></trkpt><trkpt lat="44.656949906117134" lon="9.454946604335166"><ele>1044.3333333333333</ele><time>2026-05-02T14:37:48.999Z</time></trkpt><trkpt lat="44.65686501995736" lon="9.454910732236232"><ele>1044.0</ele><time>2026-05-02T14:38:11.999Z</time></trkpt><trkpt lat="44.65692323165671" lon="9.454966222595052"><ele>1044.4</ele><time>2026-05-02T14:38:14.999Z</time></trkpt><trkpt lat="44.65703939668261" lon="9.454993693505873"><ele>1044.8000000000002</ele><time>2026-05-02T14:38:15.999Z</time></trkpt><trkpt lat="44.657162007453536" lon="9.455049875193899"><ele>1045.1999999999998</ele><time>2026-05-02T14:38:16.999Z</time></trkpt><trkpt lat="44.65722198071506" lon="9.45514140562109"><ele>1045.6</ele><time>2026-05-02T14:38:17.999Z</time></trkpt><trkpt lat="44.65724395888761" lon="9.455283490962437"><ele>1046.0</ele><time>2026-05-02T14:38:18.999Z</time></trkpt><trkpt lat="44.65722374768974" lon="9.45545875460945"><ele>1046.0</ele><time>2026-05-02T14:38:19.999Z</time></trkpt><trkpt lat="44.65719264881607" lon="9.455604097311332"><ele>1046.0</ele><time>2026-05-02T14:38:20.999Z</time></trkpt><trkpt lat="44.657194874124976" lon="9.455711241328249"><ele>1046.0</ele><time>2026-05-02T14:38:21.999Z</time></trkpt><trkpt lat="44.657218929313366" lon="9.45581639467599"><ele>1046.0</ele><time>2026-05-02T14:38:23.999Z</time></trkpt><trkpt lat="44.657258399144744" lon="9.455738008828314"><ele>1046.0</ele><time>2026-05-02T14:38:32.998Z</time></trkpt><trkpt lat="44.65721815192991" lon="9.455583639195847"><ele>1046.0</ele><time>2026-05-02T14:38:33.998Z</time></trkpt><trkpt lat="44.65720406656245" lon="9.455385119431327"><ele>1045.5</ele><time>2026-05-02T14:38:34.998Z</time></trkpt><trkpt lat="44.65721918614597" lon="9.455183399023444"><ele>1045.0</ele><time>2026-05-02T14:38:35.998Z</time></trkpt><trkpt lat="44.65718568963199" lon="9.45503115077823"><ele>1044.5</ele><time>2026-05-02T14:38:36.998Z</time></trkpt><trkpt lat="44.657080735455594" lon="9.454942086359722"><ele>1044.0</ele><time>2026-05-02T14:38:37.998Z</time></trkpt><trkpt lat="44.65692684568927" lon="9.454912883727365"><ele>1044.0</ele><time>2026-05-02T14:38:38.998Z</time></trkpt><trkpt lat="44.65672981532174" lon="9.454910749375626"><ele>1044.0</ele><time>2026-05-02T14:38:39.998Z</time></trkpt><trkpt lat="44.65658079934005" lon="9.454876062081569"><ele>1044.0</ele><time>2026-05-02T14:38:40.998Z</time></trkpt><trkpt lat="44.65647101840043" lon="9.45481060931613"><ele>1044.0</ele><time>2026-05-02T14:38:41.998Z</time></trkpt><trkpt lat="44.65638295844698" lon="9.454711078818617"><ele>1044.0</ele><time>2026-05-02T14:38:42.998Z</time></trkpt><trkpt lat="44.65631148694616" lon="9.454607596429838"><ele>1044.0</ele><time>2026-05-02T14:38:43.998Z</time></trkpt><trkpt lat="44.656249474254714" lon="9.454507476264498"><ele>1044.0</ele><time>2026-05-02T14:38:44.998Z</time></trkpt><trkpt lat="44.65619419604389" lon="9.454422536997798"><ele>1044.0</ele><time>2026-05-02T14:38:45.998Z</time></trkpt><trkpt lat="44.65614775397066" lon="9.454345319819566"><ele>1045.0</ele><time>2026-05-02T14:38:46.998Z</time></trkpt><trkpt lat="44.65611375069434" lon="9.454266882280375"><ele>1046.0</ele><time>2026-05-02T14:38:47.998Z</time></trkpt><trkpt lat="44.656078992002136" lon="9.454125906262624"><ele>1047.0</ele><time>2026-05-02T14:38:49.998Z</time></trkpt><trkpt lat="44.65605442764028" lon="9.45400074284228"><ele>1048.0</ele><time>2026-05-02T14:38:51.998Z</time></trkpt><trkpt lat="44.656014186215046" lon="9.453861468629535"><ele>1049.0</ele><time>2026-05-02T14:38:53.998Z</time></trkpt><trkpt lat="44.65597902346419" lon="9.453731296147074"><ele>1049.4</ele><time>2026-05-02T14:38:55.998Z</time></trkpt><trkpt lat="44.65595036643129" lon="9.453605257116353"><ele>1049.8000000000002</ele><time>2026-05-02T14:38:58Z</time></trkpt><trkpt lat="44.65592613057509" lon="9.453519824487879"><ele>1050.1999999999998</ele><time>2026-05-02T14:38:59Z</time></trkpt><trkpt lat="44.65589005798315" lon="9.453390444783489"><ele>1050.6</ele><time>2026-05-02T14:39:00Z</time></trkpt><trkpt lat="44.655848847734845" lon="9.453236205814886"><ele>1051.0</ele><time>2026-05-02T14:39:01Z</time></trkpt><trkpt lat="44.655793841114246" lon="9.45304366480815"><ele>1053.3333333333333</ele><time>2026-05-02T14:39:02Z</time></trkpt><trkpt lat="44.65573969751798" lon="9.452847573669482"><ele>1055.6666666666667</ele><time>2026-05-02T14:39:03Z</time></trkpt><trkpt lat="44.65568476070296" lon="9.452650631405001"><ele>1058.0</ele><time>2026-05-02T14:39:04Z</time></trkpt><trkpt lat="44.655627762559625" lon="9.452445523701307"><ele>1058.0</ele><time>2026-05-02T14:39:05Z</time></trkpt><trkpt lat="44.655570780622206" lon="9.452268277144341"><ele>1058.0</ele><time>2026-05-02T14:39:06Z</time></trkpt><trkpt lat="44.65549049470588" lon="9.452114827305415"><ele>1058.0</ele><time>2026-05-02T14:39:07Z</time></trkpt><trkpt lat="44.65538222255584" lon="9.451998722782387"><ele>1058.0</ele><time>2026-05-02T14:39:08Z</time></trkpt><trkpt lat="44.65525785950409" lon="9.45188736296998"><ele>1057.3333333333335</ele><time>2026-05-02T14:39:09Z</time></trkpt><trkpt lat="44.65514007298949" lon="9.451769646926246"><ele>1056.6666666666667</ele><time>2026-05-02T14:39:10Z</time></trkpt><trkpt lat="44.65501582292043" lon="9.451639489195054"><ele>1056.0</ele><time>2026-05-02T14:39:11Z</time></trkpt><trkpt lat="44.654878630554244" lon="9.451523163064486"><ele>1056.0</ele><time>2026-05-02T14:39:12Z</time></trkpt><trkpt lat="44.65473956966558" lon="9.451441526165363"><ele>1056.0</ele><time>2026-05-02T14:39:13Z</time></trkpt><trkpt lat="44.65459214871412" lon="9.451400174768176"><ele>1056.0</ele><time>2026-05-02T14:39:14Z</time></trkpt><trkpt lat="44.654456234736166" lon="9.451373040987436"><ele>1056.0</ele><time>2026-05-02T14:39:15Z</time></trkpt><trkpt lat="44.65432406419865" lon="9.4513492928207"><ele>1057.0</ele><time>2026-05-02T14:39:16Z</time></trkpt><trkpt lat="44.65420555480842" lon="9.451304143151503"><ele>1058.0</ele><time>2026-05-02T14:39:17Z</time></trkpt><trkpt lat="44.654111231940625" lon="9.451224343813951"><ele>1059.0</ele><time>2026-05-02T14:39:18Z</time></trkpt><trkpt lat="44.654043485015656" lon="9.45111263975667"><ele>1060.0</ele><time>2026-05-02T14:39:19Z</time></trkpt><trkpt lat="44.65400193545846" lon="9.450980919541502"><ele>1061.0</ele><time>2026-05-02T14:39:20Z</time></trkpt><trkpt lat="44.65397388967848" lon="9.450834464266473"><ele>1061.0</ele><time>2026-05-02T14:39:21Z</time></trkpt><trkpt lat="44.6539641023499" lon="9.45067896799832"><ele>1061.0</ele><time>2026-05-02T14:39:22Z</time></trkpt><trkpt lat="44.65397310265386" lon="9.450497127489388"><ele>1061.0</ele><time>2026-05-02T14:39:23Z</time></trkpt><trkpt lat="44.65399396249345" lon="9.45029460571344"><ele>1061.0</ele><time>2026-05-02T14:39:24Z</time></trkpt><trkpt lat="44.654023061778126" lon="9.450086786262206"><ele>1061.25</ele><time>2026-05-02T14:39:25Z</time></trkpt><trkpt lat="44.65405818900359" lon="9.44989447884358"><ele>1061.5</ele><time>2026-05-02T14:39:26Z</time></trkpt><trkpt lat="44.654098405160305" lon="9.449701935410939"><ele>1061.75</ele><time>2026-05-02T14:39:27Z</time></trkpt><trkpt lat="44.65414708059721" lon="9.449506957131673"><ele>1062.0</ele><time>2026-05-02T14:39:28Z</time></trkpt><trkpt lat="44.65419689268733" lon="9.449311603938986"><ele>1059.75</ele><time>2026-05-02T14:39:29Z</time></trkpt><trkpt lat="44.65424732491252" lon="9.449124938555986"><ele>1057.5</ele><time>2026-05-02T14:39:30Z</time></trkpt><trkpt lat="44.65429717369277" lon="9.448939199954866"><ele>1055.25</ele><time>2026-05-02T14:39:31Z</time></trkpt><trkpt lat="44.65435000235426" lon="9.44876607284821"><ele>1053.0</ele><time>2026-05-02T14:39:32Z</time></trkpt><trkpt lat="44.654406724669585" lon="9.448593151856485"><ele>1053.0</ele><time>2026-05-02T14:39:33Z</time></trkpt><trkpt lat="44.65446832241336" lon="9.448427812224418"><ele>1053.0</ele><time>2026-05-02T14:39:34Z</time></trkpt><trkpt lat="44.654569775981834" lon="9.448282717365752"><ele>1053.0</ele><time>2026-05-02T14:39:35Z</time></trkpt><trkpt lat="44.65472277116874" lon="9.448166693689867"><ele>1053.0</ele><time>2026-05-02T14:39:36Z</time></trkpt><trkpt lat="44.65489035978268" lon="9.448083323029529"><ele>1053.0</ele><time>2026-05-02T14:39:37Z</time></trkpt><trkpt lat="44.65504340604356" lon="9.448022160191968"><ele>1053.0</ele><time>2026-05-02T14:39:38Z</time></trkpt><trkpt lat="44.65519548578014" lon="9.4479801780691"><ele>1052.0</ele><time>2026-05-02T14:39:39Z</time></trkpt><trkpt lat="44.655343478353096" lon="9.447966318359908"><ele>1051.0</ele><time>2026-05-02T14:39:40Z</time></trkpt><trkpt lat="44.6554848187016" lon="9.447949665323787"><ele>1050.0</ele><time>2026-05-02T14:39:41Z</time></trkpt><trkpt lat="44.65559539675524" lon="9.44789775960923"><ele>1049.0</ele><time>2026-05-02T14:39:42Z</time></trkpt><trkpt lat="44.655669360508185" lon="9.447790734352829"><ele>1049.0</ele><time>2026-05-02T14:39:42.999Z</time></trkpt><trkpt lat="44.655700448972695" lon="9.44762510461855"><ele>1049.0</ele><time>2026-05-02T14:39:43.999Z</time></trkpt><trkpt lat="44.655694189746875" lon="9.447424895434736"><ele>1049.0</ele><time>2026-05-02T14:39:44.999Z</time></trkpt><trkpt lat="44.655674501205056" lon="9.447210505207039"><ele>1049.0</ele><time>2026-05-02T14:39:45.999Z</time></trkpt><trkpt lat="44.65565569608638" lon="9.447017608617397"><ele>1047.75</ele><time>2026-05-02T14:39:46.999Z</time></trkpt><trkpt lat="44.65563762079287" lon="9.446824081714249"><ele>1046.5</ele><time>2026-05-02T14:39:47.999Z</time></trkpt><trkpt lat="44.65563070712465" lon="9.446639490306872"><ele>1045.25</ele><time>2026-05-02T14:39:48.999Z</time></trkpt><trkpt lat="44.655650584506084" lon="9.446462952628421"><ele>1044.0</ele><time>2026-05-02T14:39:49.999Z</time></trkpt><trkpt lat="44.6557118091452" lon="9.446295646259461"><ele>1042.25</ele><time>2026-05-02T14:39:50.999Z</time></trkpt><trkpt lat="44.655821514658406" lon="9.446148817509334"><ele>1040.5</ele><time>2026-05-02T14:39:51.999Z</time></trkpt><trkpt lat="44.65594613780313" lon="9.4460351825846"><ele>1038.75</ele><time>2026-05-02T14:39:52.999Z</time></trkpt><trkpt lat="44.65607432039716" lon="9.445938861692605"><ele>1037.0</ele><time>2026-05-02T14:39:53.999Z</time></trkpt><trkpt lat="44.6562114094808" lon="9.445904928555098"><ele>1037.0</ele><time>2026-05-02T14:39:54.999Z</time></trkpt><trkpt lat="44.656346494335025" lon="9.445929377741685"><ele>1037.0</ele><time>2026-05-02T14:39:55.999Z</time></trkpt><trkpt lat="44.65647552820849" lon="9.44593910172496"><ele>1037.0</ele><time>2026-05-02T14:39:56.999Z</time></trkpt><trkpt lat="44.656594735123925" lon="9.445874029490064"><ele>1037.0</ele><time>2026-05-02T14:39:57.999Z</time></trkpt><trkpt lat="44.65668987342214" lon="9.445744158403466"><ele>1037.0</ele><time>2026-05-02T14:39:58.999Z</time></trkpt><trkpt lat="44.65677358246464" lon="9.445606093932218"><ele>1037.0</ele><time>2026-05-02T14:39:59.999Z</time></trkpt><trkpt lat="44.656876329368984" lon="9.44548696939297"><ele>1037.0</ele><time>2026-05-02T14:40:00.999Z</time></trkpt><trkpt lat="44.657014776020254" lon="9.445408561654752"><ele>1037.0</ele><time>2026-05-02T14:40:01.999Z</time></trkpt><trkpt lat="44.65716904055228" lon="9.445367419024347"><ele>1033.75</ele><time>2026-05-02T14:40:02.999Z</time></trkpt><trkpt lat="44.6573178424485" lon="9.445336352438229"><ele>1030.5</ele><time>2026-05-02T14:40:03.999Z</time></trkpt><trkpt lat="44.65745863558964" lon="9.445300533981154"><ele>1027.25</ele><time>2026-05-02T14:40:04.999Z</time></trkpt><trkpt lat="44.65760115704122" lon="9.44525846380974"><ele>1024.0</ele><time>2026-05-02T14:40:05.999Z</time></trkpt><trkpt lat="44.657738733493005" lon="9.44523419099822"><ele>1022.75</ele><time>2026-05-02T14:40:06.999Z</time></trkpt><trkpt lat="44.65787955626082" lon="9.445250720441019"><ele>1021.5</ele><time>2026-05-02T14:40:07.999Z</time></trkpt><trkpt lat="44.658010107265184" lon="9.445312362436672"><ele>1020.25</ele><time>2026-05-02T14:40:08.999Z</time></trkpt><trkpt lat="44.658137363823506" lon="9.445374547412495"><ele>1019.0</ele><time>2026-05-02T14:40:09.999Z</time></trkpt><trkpt lat="44.65828435042313" lon="9.44538181470951"><ele>1019.0</ele><time>2026-05-02T14:40:10.999Z</time></trkpt><trkpt lat="44.658439286176836" lon="9.445353769240993"><ele>1019.0</ele><time>2026-05-02T14:40:11.999Z</time></trkpt><trkpt lat="44.65859322227256" lon="9.445332887085577"><ele>1019.0</ele><time>2026-05-02T14:40:12.999Z</time></trkpt><trkpt lat="44.65874012539927" lon="9.445315879252577"><ele>1018.0</ele><time>2026-05-02T14:40:13.999Z</time></trkpt><trkpt lat="44.6588796924251" lon="9.445286257654537"><ele>1017.0</ele><time>2026-05-02T14:40:14.999Z</time></trkpt><trkpt lat="44.659015540773744" lon="9.445204476740331"><ele>1016.0</ele><time>2026-05-02T14:40:15.999Z</time></trkpt><trkpt lat="44.65913461114938" lon="9.445089924578163"><ele>1015.0</ele><time>2026-05-02T14:40:16.999Z</time></trkpt><trkpt lat="44.659249666160605" lon="9.444956015366502"><ele>1015.0</ele><time>2026-05-02T14:40:17.999Z</time></trkpt><trkpt lat="44.65937084508169" lon="9.444811264409408"><ele>1015.0</ele><time>2026-05-02T14:40:18.999Z</time></trkpt><trkpt lat="44.659488568904855" lon="9.444667248602471"><ele>1015.0</ele><time>2026-05-02T14:40:19.999Z</time></trkpt><trkpt lat="44.659599059316065" lon="9.44453029188011"><ele>1014.75</ele><time>2026-05-02T14:40:20.999Z</time></trkpt><trkpt lat="44.659706703003415" lon="9.444402148730129"><ele>1014.5</ele><time>2026-05-02T14:40:21.999Z</time></trkpt><trkpt lat="44.65980712437199" lon="9.444283821380253"><ele>1014.25</ele><time>2026-05-02T14:40:22.999Z</time></trkpt><trkpt lat="44.659904203012104" lon="9.44416356660455"><ele>1014.0</ele><time>2026-05-02T14:40:23.999Z</time></trkpt><trkpt lat="44.659999295825926" lon="9.444048899715419"><ele>1014.0</ele><time>2026-05-02T14:40:24.999Z</time></trkpt><trkpt lat="44.66010230313084" lon="9.443937665478424"><ele>1014.0</ele><time>2026-05-02T14:40:25.999Z</time></trkpt><trkpt lat="44.6602191257627" lon="9.443847158583003"><ele>1014.0</ele><time>2026-05-02T14:40:26.999Z</time></trkpt><trkpt lat="44.66035867685143" lon="9.443801326533592"><ele>1014.0</ele><time>2026-05-02T14:40:27.999Z</time></trkpt><trkpt lat="44.66049781934167" lon="9.443785938580682"><ele>1009.75</ele><time>2026-05-02T14:40:28.999Z</time></trkpt><trkpt lat="44.66063984306244" lon="9.443777430664802"><ele>1005.5</ele><time>2026-05-02T14:40:29.999Z</time></trkpt><trkpt lat="44.66078730258515" lon="9.443767523889077"><ele>1001.25</ele><time>2026-05-02T14:40:30.999Z</time></trkpt><trkpt lat="44.66092693039463" lon="9.443757147372757"><ele>997.0</ele><time>2026-05-02T14:40:31.999Z</time></trkpt><trkpt lat="44.661061499626136" lon="9.443742493687948"><ele>997.5</ele><time>2026-05-02T14:40:32.999Z</time></trkpt><trkpt lat="44.66119094547811" lon="9.443727254423965"><ele>998.0</ele><time>2026-05-02T14:40:33.999Z</time></trkpt><trkpt lat="44.66131489413172" lon="9.443720655138891"><ele>998.5</ele><time>2026-05-02T14:40:34.999Z</time></trkpt><trkpt lat="44.661430482485365" lon="9.443740403536168"><ele>999.0</ele><time>2026-05-02T14:40:35.999Z</time></trkpt><trkpt lat="44.661531139146405" lon="9.443817494795281"><ele>1002.0</ele><time>2026-05-02T14:40:36.999Z</time></trkpt><trkpt lat="44.66160819647961" lon="9.443952879885336"><ele>1005.0</ele><time>2026-05-02T14:40:37.999Z</time></trkpt><trkpt lat="44.661668884442925" lon="9.444105519605618"><ele>1008.0</ele><time>2026-05-02T14:40:38.999Z</time></trkpt><trkpt lat="44.66174241937813" lon="9.444238905545872"><ele>1011.0</ele><time>2026-05-02T14:40:39.999Z</time></trkpt><trkpt lat="44.6618428450389" lon="9.444311743635149"><ele>1012.75</ele><time>2026-05-02T14:40:40.998Z</time></trkpt><trkpt lat="44.66196088186555" lon="9.444318801163947"><ele>1014.5</ele><time>2026-05-02T14:40:41.998Z</time></trkpt><trkpt lat="44.66207255659809" lon="9.444242156002627"><ele>1016.25</ele><time>2026-05-02T14:40:42.998Z</time></trkpt><trkpt lat="44.66215970138337" lon="9.444094223458556"><ele>1018.0</ele><time>2026-05-02T14:40:43.998Z</time></trkpt><trkpt lat="44.66220493290083" lon="9.44389994217042"><ele>1017.5</ele><time>2026-05-02T14:40:44.998Z</time></trkpt><trkpt lat="44.66219449973958" lon="9.443712696886983"><ele>1017.0</ele><time>2026-05-02T14:40:45.998Z</time></trkpt><trkpt lat="44.66217031054228" lon="9.443543472578009"><ele>1016.5</ele><time>2026-05-02T14:40:46.998Z</time></trkpt><trkpt lat="44.66214990501865" lon="9.443370824704557"><ele>1016.0</ele><time>2026-05-02T14:40:47.998Z</time></trkpt><trkpt lat="44.66214972302605" lon="9.443186922909675"><ele>1016.0</ele><time>2026-05-02T14:40:48.998Z</time></trkpt><trkpt lat="44.66217943897543" lon="9.442990453990955"><ele>1016.0</ele><time>2026-05-02T14:40:49.998Z</time></trkpt><trkpt lat="44.6622216971315" lon="9.442790251625942"><ele>1016.0</ele><time>2026-05-02T14:40:50.998Z</time></trkpt><trkpt lat="44.66226418249267" lon="9.442590877932053"><ele>1016.0</ele><time>2026-05-02T14:40:51.998Z</time></trkpt><trkpt lat="44.6623072287312" lon="9.442420547647794"><ele>1015.1999999999999</ele><time>2026-05-02T14:40:52.998Z</time></trkpt><trkpt lat="44.66236101077733" lon="9.442297534934893"><ele>1014.3999999999999</ele><time>2026-05-02T14:40:53.998Z</time></trkpt><trkpt lat="44.662407025119954" lon="9.442192648783655"><ele>1013.6</ele><time>2026-05-02T14:40:54.998Z</time></trkpt><trkpt lat="44.6624423865619" lon="9.44210466734154"><ele>1012.8</ele><time>2026-05-02T14:40:55.998Z</time></trkpt><trkpt lat="44.66248933813815" lon="9.441982854347833"><ele>1012.0</ele><time>2026-05-02T14:40:57.998Z</time></trkpt><trkpt lat="44.662537938193985" lon="9.441822707269209"><ele>1012.0</ele><time>2026-05-02T14:41:34Z</time></trkpt><trkpt lat="44.662578402607316" lon="9.441744367661652"><ele>1012.0</ele><time>2026-05-02T14:41:35Z</time></trkpt><trkpt lat="44.66264529944775" lon="9.441693353173694"><ele>1012.0</ele><time>2026-05-02T14:41:36Z</time></trkpt><trkpt lat="44.66273709345727" lon="9.44168198612804"><ele>1012.0</ele><time>2026-05-02T14:41:37Z</time></trkpt><trkpt lat="44.66284771475417" lon="9.441730304471466"><ele>1012.0</ele><time>2026-05-02T14:41:38Z</time></trkpt><trkpt lat="44.66295162032802" lon="9.441785297253835"><ele>1012.0</ele><time>2026-05-02T14:41:39Z</time></trkpt><trkpt lat="44.66305111180572" lon="9.441816794227922"><ele>1012.0</ele><time>2026-05-02T14:41:40Z</time></trkpt><trkpt lat="44.66315138422333" lon="9.441836883643203"><ele>1012.0</ele><time>2026-05-02T14:41:41Z</time></trkpt><trkpt lat="44.6632517161327" lon="9.441839383903444"><ele>1012.0</ele><time>2026-05-02T14:41:42Z</time></trkpt><trkpt lat="44.66335118989614" lon="9.441813889631627"><ele>1012.0</ele><time>2026-05-02T14:41:43Z</time></trkpt><trkpt lat="44.66344443456551" lon="9.441759142009277"><ele>1011.9999999999999</ele><time>2026-05-02T14:41:44Z</time></trkpt><trkpt lat="44.66352266088744" lon="9.441685239426372"><ele>1012.0</ele><time>2026-05-02T14:41:45Z</time></trkpt><trkpt lat="44.66359715567533" lon="9.44161706955046"><ele>1012.0</ele><time>2026-05-02T14:41:46Z</time></trkpt><trkpt lat="44.66366714723932" lon="9.441544023092183"><ele>1012.0</ele><time>2026-05-02T14:41:47Z</time></trkpt><trkpt lat="44.66372043457768" lon="9.441463842462172"><ele>1011.9999999999999</ele><time>2026-05-02T14:41:48Z</time></trkpt><trkpt lat="44.663770192665936" lon="9.441377895704486"><ele>1012.0</ele><time>2026-05-02T14:41:48.999Z</time></trkpt><trkpt lat="44.66379861874202" lon="9.441292900581091"><ele>1014.8</ele><time>2026-05-02T14:41:49.999Z</time></trkpt><trkpt lat="44.6638342560802" lon="9.441199729035928"><ele>1017.6</ele><time>2026-05-02T14:41:50.999Z</time></trkpt><trkpt lat="44.66386930141694" lon="9.441115929167443"><ele>1020.3999999999999</ele><time>2026-05-02T14:41:51.999Z</time></trkpt><trkpt lat="44.66392864559193" lon="9.440971509370963"><ele>1023.1999999999999</ele><time>2026-05-02T14:41:53.999Z</time></trkpt><trkpt lat="44.664001086064985" lon="9.44082416302231"><ele>1026.0</ele><time>2026-05-02T14:41:55.999Z</time></trkpt><trkpt lat="44.66402298116963" lon="9.440734653656666"><ele>1026.0</ele><time>2026-05-02T14:41:56.999Z</time></trkpt><trkpt lat="44.66405022159426" lon="9.440645690964113"><ele>1026.0</ele><time>2026-05-02T14:41:57.999Z</time></trkpt><trkpt lat="44.6640722505641" lon="9.440557493568969"><ele>1026.0</ele><time>2026-05-02T14:41:58.999Z</time></trkpt><trkpt lat="44.66411411316139" lon="9.440403649623278"><ele>1026.0</ele><time>2026-05-02T14:42:00.999Z</time></trkpt><trkpt lat="44.6641728213309" lon="9.440253249817601"><ele>1026.0</ele><time>2026-05-02T14:42:02.999Z</time></trkpt><trkpt lat="44.664216593419745" lon="9.44008760605893"><ele>1025.3333333333333</ele><time>2026-05-02T14:42:04.999Z</time></trkpt><trkpt lat="44.664220109207875" lon="9.439996213195666"><ele>1024.6666666666667</ele><time>2026-05-02T14:42:05.999Z</time></trkpt><trkpt lat="44.66423549056639" lon="9.439903776205545"><ele>1024.0</ele><time>2026-05-02T14:42:06.999Z</time></trkpt><trkpt lat="44.66427471032486" lon="9.439797862673306"><ele>1023.3333333333334</ele><time>2026-05-02T14:42:07.999Z</time></trkpt><trkpt lat="44.66432754874457" lon="9.439700766483572"><ele>1022.6666666666667</ele><time>2026-05-02T14:42:08.999Z</time></trkpt><trkpt lat="44.66439882808031" lon="9.439627794391273"><ele>1022.0</ele><time>2026-05-02T14:42:09.999Z</time></trkpt><trkpt lat="44.66448565992042" lon="9.439562498485174"><ele>1022.0</ele><time>2026-05-02T14:42:10.999Z</time></trkpt><trkpt lat="44.664569785924186" lon="9.439490946312514"><ele>1022.0</ele><time>2026-05-02T14:42:11.999Z</time></trkpt><trkpt lat="44.66463950482293" lon="9.439406249047847"><ele>1022.0</ele><time>2026-05-02T14:42:12.999Z</time></trkpt><trkpt lat="44.66469149724958" lon="9.439330005201917"><ele>1022.0</ele><time>2026-05-02T14:42:13.999Z</time></trkpt><trkpt lat="44.66473407078701" lon="9.439188661822682"><ele>1022.0</ele><time>2026-05-02T14:42:15.999Z</time></trkpt><trkpt lat="44.66466723357234" lon="9.4390404235945"><ele>1022.0000000000001</ele><time>2026-05-02T14:42:17.999Z</time></trkpt><trkpt lat="44.664593059964766" lon="9.438972350718362"><ele>1022.0</ele><time>2026-05-02T14:42:18.999Z</time></trkpt><trkpt lat="44.66452209662997" lon="9.438895507746295"><ele>1022.0</ele><time>2026-05-02T14:42:19.999Z</time></trkpt><trkpt lat="44.66447779603403" lon="9.438801320114845"><ele>1022.0</ele><time>2026-05-02T14:42:20.999Z</time></trkpt><trkpt lat="44.664463224522116" lon="9.438675419237303"><ele>1022.0000000000001</ele><time>2026-05-02T14:42:21.999Z</time></trkpt><trkpt lat="44.66444779965752" lon="9.438536378153257"><ele>1022.0</ele><time>2026-05-02T14:42:22.999Z</time></trkpt><trkpt lat="44.664429416573476" lon="9.438401766593135"><ele>1020.8</ele><time>2026-05-02T14:42:23.999Z</time></trkpt><trkpt lat="44.664404057828236" lon="9.43826500997052"><ele>1019.6</ele><time>2026-05-02T14:42:24.999Z</time></trkpt><trkpt lat="44.6643620616238" lon="9.43814016683479"><ele>1018.3999999999999</ele><time>2026-05-02T14:42:25.999Z</time></trkpt><trkpt lat="44.664328585186205" lon="9.437997163979823"><ele>1017.1999999999999</ele><time>2026-05-02T14:42:26.999Z</time></trkpt><trkpt lat="44.66429863076998" lon="9.437853016465285"><ele>1016.0</ele><time>2026-05-02T14:42:27.999Z</time></trkpt><trkpt lat="44.664287342735165" lon="9.437720928183236"><ele>1016.0</ele><time>2026-05-02T14:42:28.999Z</time></trkpt><trkpt lat="44.66430750215907" lon="9.43758663907283"><ele>1015.9999999999999</ele><time>2026-05-02T14:42:29.999Z</time></trkpt><trkpt lat="44.66435635052353" lon="9.437488881192854"><ele>1015.9999999999999</ele><time>2026-05-02T14:42:30.999Z</time></trkpt><trkpt lat="44.664425484502964" lon="9.437396351212033"><ele>1016.0</ele><time>2026-05-02T14:42:31.999Z</time></trkpt><trkpt lat="44.66448227940509" lon="9.437277643942696"><ele>1016.0</ele><time>2026-05-02T14:42:32.999Z</time></trkpt><trkpt lat="44.664545975859525" lon="9.437159393808404"><ele>1019.1999999999999</ele><time>2026-05-02T14:42:33.999Z</time></trkpt><trkpt lat="44.6646300738914" lon="9.437040402378821"><ele>1022.3999999999999</ele><time>2026-05-02T14:42:34.999Z</time></trkpt><trkpt lat="44.664718461757744" lon="9.436926694076352"><ele>1025.6</ele><time>2026-05-02T14:42:35.999Z</time></trkpt><trkpt lat="44.664805595701935" lon="9.436847833447736"><ele>1028.8</ele><time>2026-05-02T14:42:36.999Z</time></trkpt><trkpt lat="44.664904902061885" lon="9.436814609865056"><ele>1032.0</ele><time>2026-05-02T14:42:37.999Z</time></trkpt><trkpt lat="44.66499977723925" lon="9.436808197694132"><ele>1032.0</ele><time>2026-05-02T14:42:38.999Z</time></trkpt><trkpt lat="44.66508044366992" lon="9.436854939924103"><ele>1032.0</ele><time>2026-05-02T14:42:39.999Z</time></trkpt><trkpt lat="44.66514953482791" lon="9.436947337764858"><ele>1032.0</ele><time>2026-05-02T14:42:40.999Z</time></trkpt><trkpt lat="44.66522152678581" lon="9.437035495800634"><ele>1032.0</ele><time>2026-05-02T14:42:41.999Z</time></trkpt><trkpt lat="44.66531121515276" lon="9.437091308427"><ele>1032.0</ele><time>2026-05-02T14:42:42.999Z</time></trkpt><trkpt lat="44.66542503124904" lon="9.437140289609259"><ele>1036.0</ele><time>2026-05-02T14:42:43.999Z</time></trkpt><trkpt lat="44.66554107484469" lon="9.43717627930304"><ele>1040.0</ele><time>2026-05-02T14:42:44.998Z</time></trkpt><trkpt lat="44.665655198922856" lon="9.43721123913458"><ele>1044.0</ele><time>2026-05-02T14:42:45.998Z</time></trkpt><trkpt lat="44.66576228491646" lon="9.437248294335877"><ele>1048.0</ele><time>2026-05-02T14:42:46.998Z</time></trkpt><trkpt lat="44.665873946047796" lon="9.43726276244916"><ele>1048.0</ele><time>2026-05-02T14:42:47.998Z</time></trkpt><trkpt lat="44.66599068413321" lon="9.437258012203328"><ele>1048.0</ele><time>2026-05-02T14:42:48.998Z</time></trkpt><trkpt lat="44.66611549312028" lon="9.437256016053727"><ele>1048.0</ele><time>2026-05-02T14:42:49.998Z</time></trkpt><trkpt lat="44.66622597863907" lon="9.437280914293055"><ele>1048.0</ele><time>2026-05-02T14:42:50.998Z</time></trkpt><trkpt lat="44.66633994345915" lon="9.437312257247658"><ele>1049.0</ele><time>2026-05-02T14:42:51.998Z</time></trkpt><trkpt lat="44.666461136999665" lon="9.437348779160045"><ele>1050.0</ele><time>2026-05-02T14:42:52.998Z</time></trkpt><trkpt lat="44.66658853933536" lon="9.437386065137828"><ele>1051.0</ele><time>2026-05-02T14:42:53.998Z</time></trkpt><trkpt lat="44.666714897067855" lon="9.437414822955231"><ele>1052.0</ele><time>2026-05-02T14:42:54.998Z</time></trkpt><trkpt lat="44.66682904247748" lon="9.43743263007922"><ele>1052.0</ele><time>2026-05-02T14:42:55.998Z</time></trkpt><trkpt lat="44.666935638139776" lon="9.43745264496032"><ele>1052.0</ele><time>2026-05-02T14:42:56.998Z</time></trkpt><trkpt lat="44.667022565752625" lon="9.43749306993448"><ele>1052.0</ele><time>2026-05-02T14:42:57.998Z</time></trkpt><trkpt lat="44.66707263339837" lon="9.437551841432985"><ele>1052.0</ele><time>2026-05-02T14:42:58.998Z</time></trkpt><trkpt lat="44.66709662340454" lon="9.437686116950998"><ele>1052.0</ele><time>2026-05-02T14:43:00.998Z</time></trkpt><trkpt lat="44.66710660167246" lon="9.437810882212128"><ele>1053.1666666666667</ele><time>2026-05-02T14:43:02.998Z</time></trkpt><trkpt lat="44.66714808359305" lon="9.437910820736873"><ele>1054.3333333333335</ele><time>2026-05-02T14:43:03.998Z</time></trkpt><trkpt lat="44.66720427500032" lon="9.438016803464226"><ele>1055.5</ele><time>2026-05-02T14:43:04.998Z</time></trkpt><trkpt lat="44.66726087630211" lon="9.438104568201567"><ele>1056.6666666666667</ele><time>2026-05-02T14:43:05.998Z</time></trkpt><trkpt lat="44.66737526804161" lon="9.438112347029953"><ele>1057.8333333333333</ele><time>2026-05-02T14:43:07.998Z</time></trkpt><trkpt lat="44.66744131316878" lon="9.438064528249509"><ele>1059.0</ele><time>2026-05-02T14:43:09Z</time></trkpt><trkpt lat="44.66750610125339" lon="9.438049457030079"><ele>1060.6666666666667</ele><time>2026-05-02T14:43:10Z</time></trkpt><trkpt lat="44.667585532452534" lon="9.438075660041099"><ele>1062.3333333333333</ele><time>2026-05-02T14:43:11Z</time></trkpt><trkpt lat="44.66767919013589" lon="9.438119325682598"><ele>1064.0</ele><time>2026-05-02T14:43:12Z</time></trkpt><trkpt lat="44.66774743053223" lon="9.438101941826313"><ele>1065.6666666666665</ele><time>2026-05-02T14:43:13Z</time></trkpt><trkpt lat="44.66781293797535" lon="9.438024656347617"><ele>1067.3333333333333</ele><time>2026-05-02T14:43:14Z</time></trkpt><trkpt lat="44.66787911053843" lon="9.437907528663139"><ele>1069.0</ele><time>2026-05-02T14:43:15Z</time></trkpt><trkpt lat="44.66794886714972" lon="9.437782766227738"><ele>1071.0</ele><time>2026-05-02T14:43:16Z</time></trkpt><trkpt lat="44.66802393127041" lon="9.437680730738673"><ele>1073.0</ele><time>2026-05-02T14:43:17Z</time></trkpt><trkpt lat="44.66810582654745" lon="9.437639501966927"><ele>1075.0</ele><time>2026-05-02T14:43:18Z</time></trkpt><trkpt lat="44.66820896646679" lon="9.437612313396086"><ele>1077.0</ele><time>2026-05-02T14:43:19Z</time></trkpt><trkpt lat="44.66833064659295" lon="9.437570352592651"><ele>1079.0</ele><time>2026-05-02T14:43:20Z</time></trkpt><trkpt lat="44.6684220117197" lon="9.437505803969245"><ele>1079.0</ele><time>2026-05-02T14:43:21Z</time></trkpt><trkpt lat="44.668498240202254" lon="9.437405040327972"><ele>1079.0</ele><time>2026-05-02T14:43:22Z</time></trkpt><trkpt lat="44.66854609010631" lon="9.437313805300949"><ele>1079.0</ele><time>2026-05-02T14:43:23Z</time></trkpt><trkpt lat="44.668603803401886" lon="9.437270880500368"><ele>1079.0</ele><time>2026-05-02T14:43:24Z</time></trkpt><trkpt lat="44.66869605595276" lon="9.437241504493839"><ele>1079.0</ele><time>2026-05-02T14:43:25Z</time></trkpt><trkpt lat="44.66880562814167" lon="9.437216775700627"><ele>1078.6666666666667</ele><time>2026-05-02T14:43:26Z</time></trkpt><trkpt lat="44.668918439092295" lon="9.437206098036063"><ele>1078.3333333333335</ele><time>2026-05-02T14:43:27Z</time></trkpt><trkpt lat="44.66900822188558" lon="9.437200802927665"><ele>1078.0</ele><time>2026-05-02T14:43:28Z</time></trkpt><trkpt lat="44.66906932900376" lon="9.437161510226748"><ele>1077.6666666666667</ele><time>2026-05-02T14:43:29Z</time></trkpt><trkpt lat="44.6691122965415" lon="9.437065475936388"><ele>1077.3333333333333</ele><time>2026-05-02T14:43:30Z</time></trkpt><trkpt lat="44.66914934040628" lon="9.436945021099916"><ele>1077.0</ele><time>2026-05-02T14:43:31Z</time></trkpt><trkpt lat="44.66920328147946" lon="9.436801939619388"><ele>1077.0</ele><time>2026-05-02T14:43:32Z</time></trkpt><trkpt lat="44.66926984949016" lon="9.436692404386367"><ele>1077.0</ele><time>2026-05-02T14:43:33Z</time></trkpt><trkpt lat="44.66934001037897" lon="9.436562104616016"><ele>1077.0</ele><time>2026-05-02T14:43:34Z</time></trkpt><trkpt lat="44.66939557181658" lon="9.436469586125526"><ele>1077.0</ele><time>2026-05-02T14:43:35Z</time></trkpt><trkpt lat="44.669460530873316" lon="9.436400915388942"><ele>1077.0</ele><time>2026-05-02T14:43:36Z</time></trkpt><trkpt lat="44.66954872977277" lon="9.436325431195376"><ele>1076.6</ele><time>2026-05-02T14:43:37Z</time></trkpt><trkpt lat="44.66963270672128" lon="9.436234280163802"><ele>1076.2</ele><time>2026-05-02T14:43:38Z</time></trkpt><trkpt lat="44.669712713836454" lon="9.436131062435592"><ele>1075.8</ele><time>2026-05-02T14:43:39Z</time></trkpt><trkpt lat="44.669804071944576" lon="9.43606836488078"><ele>1075.4</ele><time>2026-05-02T14:43:40Z</time></trkpt><trkpt lat="44.669887264109086" lon="9.436016113993587"><ele>1075.0</ele><time>2026-05-02T14:43:41Z</time></trkpt><trkpt lat="44.66995620730348" lon="9.435990191476174"><ele>1075.0</ele><time>2026-05-02T14:43:42Z</time></trkpt><trkpt lat="44.67007108801029" lon="9.436038450363624"><ele>1075.0</ele><time>2026-05-02T14:43:44Z</time></trkpt><trkpt lat="44.670128999079346" lon="9.436098500894767"><ele>1075.0</ele><time>2026-05-02T14:43:45Z</time></trkpt><trkpt lat="44.670225889878694" lon="9.436151761981385"><ele>1075.0</ele><time>2026-05-02T14:43:46Z</time></trkpt><trkpt lat="44.67033673295649" lon="9.436165893272145"><ele>1075.0</ele><time>2026-05-02T14:43:47Z</time></trkpt><trkpt lat="44.67042197293223" lon="9.436150452061872"><ele>1076.5</ele><time>2026-05-02T14:43:48Z</time></trkpt><trkpt lat="44.670482884762286" lon="9.436091431561168"><ele>1078.0</ele><time>2026-05-02T14:43:49Z</time></trkpt><trkpt lat="44.67053977561099" lon="9.4359929973697"><ele>1079.5</ele><time>2026-05-02T14:43:50Z</time></trkpt><trkpt lat="44.67060638620021" lon="9.435912693402482"><ele>1081.0</ele><time>2026-05-02T14:43:51Z</time></trkpt><trkpt lat="44.670677149549796" lon="9.435886350640361"><ele>1082.5</ele><time>2026-05-02T14:43:53Z</time></trkpt><trkpt lat="44.67073437848991" lon="9.435923338388836"><ele>1084.0</ele><time>2026-05-02T14:43:53.999Z</time></trkpt><trkpt lat="44.67081208709022" lon="9.435957733520189"><ele>1084.0</ele><time>2026-05-02T14:43:54.999Z</time></trkpt><trkpt lat="44.670900224806374" lon="9.435988506863168"><ele>1084.0</ele><time>2026-05-02T14:43:55.999Z</time></trkpt><trkpt lat="44.67099874709279" lon="9.435979974721285"><ele>1084.0</ele><time>2026-05-02T14:43:56.999Z</time></trkpt><trkpt lat="44.67110096073192" lon="9.43596010996815"><ele>1084.0</ele><time>2026-05-02T14:43:57.999Z</time></trkpt><trkpt lat="44.67117737785017" lon="9.435928228364467"><ele>1084.0</ele><time>2026-05-02T14:43:58.999Z</time></trkpt><trkpt lat="44.671223717283766" lon="9.435848599558154"><ele>1084.0</ele><time>2026-05-02T14:43:59.999Z</time></trkpt><trkpt lat="44.67128594849814" lon="9.435724874010221"><ele>1085.6000000000001</ele><time>2026-05-02T14:44:00.999Z</time></trkpt><trkpt lat="44.67137732206257" lon="9.435595550816975"><ele>1087.2</ele><time>2026-05-02T14:44:01.999Z</time></trkpt><trkpt lat="44.67145734440527" lon="9.43547055961214"><ele>1088.8000000000002</ele><time>2026-05-02T14:44:02.999Z</time></trkpt><trkpt lat="44.67151815974831" lon="9.435360629011416"><ele>1090.4</ele><time>2026-05-02T14:44:03.999Z</time></trkpt><trkpt lat="44.67157394592246" lon="9.4352554326673"><ele>1092.0</ele><time>2026-05-02T14:44:04.999Z</time></trkpt><trkpt lat="44.67163419738197" lon="9.435177285326182"><ele>1092.0</ele><time>2026-05-02T14:44:05.999Z</time></trkpt><trkpt lat="44.67169420871919" lon="9.435120917969433"><ele>1092.0</ele><time>2026-05-02T14:44:06.999Z</time></trkpt><trkpt lat="44.67175809716925" lon="9.43506779666631"><ele>1092.0</ele><time>2026-05-02T14:44:07.999Z</time></trkpt><trkpt lat="44.67183079000536" lon="9.435021446035545"><ele>1092.0</ele><time>2026-05-02T14:44:08.999Z</time></trkpt><trkpt lat="44.67189623606298" lon="9.435008882610646"><ele>1092.0</ele><time>2026-05-02T14:44:09.999Z</time></trkpt><trkpt lat="44.67196987078547" lon="9.434995922791929"><ele>1092.0</ele><time>2026-05-02T14:44:10.999Z</time></trkpt><trkpt lat="44.67209237671341" lon="9.435013610000306"><ele>1096.6</ele><time>2026-05-02T14:44:11.999Z</time></trkpt><trkpt lat="44.672193677001616" lon="9.435030339487929"><ele>1101.2</ele><time>2026-05-02T14:44:12.999Z</time></trkpt><trkpt lat="44.67226875675238" lon="9.43499942797838"><ele>1105.8</ele><time>2026-05-02T14:44:13.999Z</time></trkpt><trkpt lat="44.672352718839235" lon="9.43490255235887"><ele>1110.4</ele><time>2026-05-02T14:44:14.999Z</time></trkpt><trkpt lat="44.67245734872853" lon="9.434805553604674"><ele>1115.0</ele><time>2026-05-02T14:44:15.999Z</time></trkpt><trkpt lat="44.672539499667295" lon="9.434735167838202"><ele>1115.0</ele><time>2026-05-02T14:44:16.999Z</time></trkpt><trkpt lat="44.672626265064274" lon="9.434687219592071"><ele>1115.0</ele><time>2026-05-02T14:44:17.999Z</time></trkpt><trkpt lat="44.672714011653625" lon="9.434641756634178"><ele>1115.0</ele><time>2026-05-02T14:44:18.999Z</time></trkpt><trkpt lat="44.67279150289335" lon="9.43459701286392"><ele>1115.0</ele><time>2026-05-02T14:44:19.999Z</time></trkpt><trkpt lat="44.67284788115863" lon="9.434528305870135"><ele>1115.0</ele><time>2026-05-02T14:44:20.999Z</time></trkpt><trkpt lat="44.67287933197426" lon="9.43436688517259"><ele>1113.6</ele><time>2026-05-02T14:44:22.999Z</time></trkpt><trkpt lat="44.67294133222244" lon="9.434287587444267"><ele>1112.2</ele><time>2026-05-02T14:44:24.999Z</time></trkpt><trkpt lat="44.6730317096338" lon="9.434293593076887"><ele>1110.8</ele><time>2026-05-02T14:45:19Z</time></trkpt><trkpt lat="44.67314752642881" lon="9.434381703720668"><ele>1109.4</ele><time>2026-05-02T14:45:21Z</time></trkpt><trkpt lat="44.67321280365545" lon="9.434446971878973"><ele>1108.0</ele><time>2026-05-02T14:45:22Z</time></trkpt><trkpt lat="44.673272348935626" lon="9.434482774691533"><ele>1108.0</ele><time>2026-05-02T14:45:23Z</time></trkpt><trkpt lat="44.67334389980278" lon="9.434522267942722"><ele>1108.0</ele><time>2026-05-02T14:45:24Z</time></trkpt><trkpt lat="44.67341500690063" lon="9.43457571023881"><ele>1108.0</ele><time>2026-05-02T14:45:25Z</time></trkpt><trkpt lat="44.67349412413244" lon="9.43467092436227"><ele>1108.0</ele><time>2026-05-02T14:45:26Z</time></trkpt><trkpt lat="44.6735687831418" lon="9.43477820868543"><ele>1108.0</ele><time>2026-05-02T14:45:27Z</time></trkpt><trkpt lat="44.673658547965836" lon="9.434924040769987"><ele>1111.2</ele><time>2026-05-02T14:45:28Z</time></trkpt><trkpt lat="44.67374532371219" lon="9.435021390361015"><ele>1114.4</ele><time>2026-05-02T14:45:29Z</time></trkpt><trkpt lat="44.67382536002579" lon="9.435057527517099"><ele>1117.6000000000001</ele><time>2026-05-02T14:45:30Z</time></trkpt><trkpt lat="44.673907649759464" lon="9.435108824995755"><ele>1120.8</ele><time>2026-05-02T14:45:31Z</time></trkpt><trkpt lat="44.67398692123158" lon="9.435164507831326"><ele>1124.0</ele><time>2026-05-02T14:45:32Z</time></trkpt><trkpt lat="44.67407239827069" lon="9.435229304863826"><ele>1124.0</ele><time>2026-05-02T14:45:33Z</time></trkpt><trkpt lat="44.6741615520003" lon="9.435274297706373"><ele>1124.0</ele><time>2026-05-02T14:45:34Z</time></trkpt><trkpt lat="44.67425214182174" lon="9.43529973223405"><ele>1124.0</ele><time>2026-05-02T14:45:35Z</time></trkpt><trkpt lat="44.674334321564395" lon="9.435333282102755"><ele>1124.0</ele><time>2026-05-02T14:45:36Z</time></trkpt><trkpt lat="44.67439215914984" lon="9.435390535376703"><ele>1124.0</ele><time>2026-05-02T14:45:37Z</time></trkpt><trkpt lat="44.674437488821454" lon="9.435472591139838"><ele>1124.0</ele><time>2026-05-02T14:45:38Z</time></trkpt><trkpt lat="44.67448271962797" lon="9.435582376231082"><ele>1123.75</ele><time>2026-05-02T14:45:39Z</time></trkpt><trkpt lat="44.67451243619533" lon="9.435708568465811"><ele>1123.5</ele><time>2026-05-02T14:45:40Z</time></trkpt><trkpt lat="44.674525364193244" lon="9.435837634745532"><ele>1123.25</ele><time>2026-05-02T14:45:41Z</time></trkpt><trkpt lat="44.67452493410702" lon="9.436020619231686"><ele>1123.0</ele><time>2026-05-02T14:45:42Z</time></trkpt><trkpt lat="44.674549336505976" lon="9.43622727306107"><ele>1125.6</ele><time>2026-05-02T14:45:43Z</time></trkpt><trkpt lat="44.67459835458193" lon="9.436409400696585"><ele>1128.1999999999998</ele><time>2026-05-02T14:45:44Z</time></trkpt><trkpt lat="44.67463349978326" lon="9.436556683900049"><ele>1130.8</ele><time>2026-05-02T14:45:45Z</time></trkpt><trkpt lat="44.67466029375005" lon="9.43668092154131"><ele>1133.3999999999999</ele><time>2026-05-02T14:45:46Z</time></trkpt><trkpt lat="44.67469500564528" lon="9.436782785685224"><ele>1136.0</ele><time>2026-05-02T14:45:47Z</time></trkpt><trkpt lat="44.67481360861567" lon="9.436853597082722"><ele>1136.0</ele><time>2026-05-02T14:45:49Z</time></trkpt><trkpt lat="44.67490886496455" lon="9.436893313116654"><ele>1136.0</ele><time>2026-05-02T14:45:50Z</time></trkpt><trkpt lat="44.674998051338925" lon="9.43697570983921"><ele>1136.0</ele><time>2026-05-02T14:45:51Z</time></trkpt><trkpt lat="44.675073964723644" lon="9.437080146688492"><ele>1136.0</ele><time>2026-05-02T14:45:52Z</time></trkpt><trkpt lat="44.675148781834395" lon="9.437187655086552"><ele>1136.0</ele><time>2026-05-02T14:45:53Z</time></trkpt><trkpt lat="44.675229194977646" lon="9.437271026064506"><ele>1136.3999999999999</ele><time>2026-05-02T14:45:54Z</time></trkpt><trkpt lat="44.67533335324234" lon="9.437329259033653"><ele>1136.8</ele><time>2026-05-02T14:45:55Z</time></trkpt><trkpt lat="44.675438413695176" lon="9.437372305421887"><ele>1137.1999999999998</ele><time>2026-05-02T14:45:56Z</time></trkpt><trkpt lat="44.675495597628995" lon="9.437430748558597"><ele>1137.6</ele><time>2026-05-02T14:45:57Z</time></trkpt><trkpt lat="44.675531084152155" lon="9.437531998789057"><ele>1138.0</ele><time>2026-05-02T14:45:57.999Z</time></trkpt><trkpt lat="44.675544336495115" lon="9.437662566561993"><ele>1138.0</ele><time>2026-05-02T14:45:58.999Z</time></trkpt><trkpt lat="44.67553565130797" lon="9.43778971766379"><ele>1138.0</ele><time>2026-05-02T14:45:59.999Z</time></trkpt><trkpt lat="44.67547679420313" lon="9.437945481480867"><ele>1138.0</ele><time>2026-05-02T14:46:00.999Z</time></trkpt><trkpt lat="44.675418783703286" lon="9.438121814012277"><ele>1138.0</ele><time>2026-05-02T14:46:01.999Z</time></trkpt><trkpt lat="44.675402379313134" lon="9.43825388836473"><ele>1140.5</ele><time>2026-05-02T14:46:02.999Z</time></trkpt><trkpt lat="44.67548750476453" lon="9.438334024476038"><ele>1143.0</ele><time>2026-05-02T14:46:04.999Z</time></trkpt><trkpt lat="44.67557192739375" lon="9.438342556222487"><ele>1145.5</ele><time>2026-05-02T14:46:05.999Z</time></trkpt><trkpt lat="44.6756638030972" lon="9.43829745318469"><ele>1148.0</ele><time>2026-05-02T14:46:06.999Z</time></trkpt><trkpt lat="44.67573830314965" lon="9.438260553529432"><ele>1150.5</ele><time>2026-05-02T14:46:07.999Z</time></trkpt><trkpt lat="44.67580535603312" lon="9.43824092367902"><ele>1153.0</ele><time>2026-05-02T14:46:08.999Z</time></trkpt><trkpt lat="44.675868922861376" lon="9.438231355715295"><ele>1153.0</ele><time>2026-05-02T14:46:09.999Z</time></trkpt><trkpt lat="44.67595494703625" lon="9.438241160069365"><ele>1153.0</ele><time>2026-05-02T14:46:11.999Z</time></trkpt><trkpt lat="44.67603363175499" lon="9.438334048891342"><ele>1153.0</ele><time>2026-05-02T14:46:13.999Z</time></trkpt><trkpt lat="44.67608427566993" lon="9.438406996359197"><ele>1153.0</ele><time>2026-05-02T14:46:14.999Z</time></trkpt><trkpt lat="44.67615163599877" lon="9.438443206662846"><ele>1153.0</ele><time>2026-05-02T14:46:15.999Z</time></trkpt><trkpt lat="44.67625414067775" lon="9.4384589165555"><ele>1153.0</ele><time>2026-05-02T14:46:16.999Z</time></trkpt><trkpt lat="44.676362120096734" lon="9.438464307061793"><ele>1154.1666666666665</ele><time>2026-05-02T14:46:17.999Z</time></trkpt><trkpt lat="44.67644372779356" lon="9.438501822673627"><ele>1155.3333333333333</ele><time>2026-05-02T14:46:18.999Z</time></trkpt><trkpt lat="44.67652314146378" lon="9.438482788840107"><ele>1156.5</ele><time>2026-05-02T14:46:20.999Z</time></trkpt><trkpt lat="44.67656261310206" lon="9.43840101062001"><ele>1157.6666666666667</ele><time>2026-05-02T14:46:21.999Z</time></trkpt><trkpt lat="44.6765939256407" lon="9.438283048250295"><ele>1158.8333333333335</ele><time>2026-05-02T14:46:22.999Z</time></trkpt><trkpt lat="44.676654676268654" lon="9.438173330148489"><ele>1160.0</ele><time>2026-05-02T14:46:23.999Z</time></trkpt><trkpt lat="44.67675774778986" lon="9.438059671959829"><ele>1158.4</ele><time>2026-05-02T14:46:24.999Z</time></trkpt><trkpt lat="44.676844929854035" lon="9.437942095043972"><ele>1156.8</ele><time>2026-05-02T14:46:25.999Z</time></trkpt><trkpt lat="44.67692009511056" lon="9.43783926320126"><ele>1155.2</ele><time>2026-05-02T14:46:26.999Z</time></trkpt><trkpt lat="44.67698275275366" lon="9.437748625546115"><ele>1153.6</ele><time>2026-05-02T14:46:27.999Z</time></trkpt><trkpt lat="44.67709020328404" lon="9.437684958201674"><ele>1152.0</ele><time>2026-05-02T14:46:29.999Z</time></trkpt><trkpt lat="44.677185256202755" lon="9.437693828584209"><ele>1152.0</ele><time>2026-05-02T14:46:30.999Z</time></trkpt><trkpt lat="44.6772924647635" lon="9.437712253457725"><ele>1152.0</ele><time>2026-05-02T14:46:31.999Z</time></trkpt><trkpt lat="44.677407651557914" lon="9.437711419519916"><ele>1152.0</ele><time>2026-05-02T14:46:32.999Z</time></trkpt><trkpt lat="44.6775031204533" lon="9.437716123299854"><ele>1152.0</ele><time>2026-05-02T14:46:33.999Z</time></trkpt><trkpt lat="44.677587590192786" lon="9.437749367550772"><ele>1152.0</ele><time>2026-05-02T14:46:34.999Z</time></trkpt><trkpt lat="44.67765475985709" lon="9.43781745223349"><ele>1152.0</ele><time>2026-05-02T14:46:35.999Z</time></trkpt><trkpt lat="44.67770726902625" lon="9.437887837932092"><ele>1152.0</ele><time>2026-05-02T14:46:36.999Z</time></trkpt><trkpt lat="44.67773258835684" lon="9.437984692906147"><ele>1152.0</ele><time>2026-05-02T14:46:37.999Z</time></trkpt><trkpt lat="44.67775277364895" lon="9.438121630810027"><ele>1152.0</ele><time>2026-05-02T14:46:38.999Z</time></trkpt><trkpt lat="44.677800142255194" lon="9.438246153815092"><ele>1152.0</ele><time>2026-05-02T14:46:39.999Z</time></trkpt><trkpt lat="44.67787309717314" lon="9.438319089045985"><ele>1152.0</ele><time>2026-05-02T14:46:40.999Z</time></trkpt><trkpt lat="44.67793867224514" lon="9.438393264062876"><ele>1151.1666666666667</ele><time>2026-05-02T14:46:41.999Z</time></trkpt><trkpt lat="44.67796512065178" lon="9.438487604715586"><ele>1150.3333333333333</ele><time>2026-05-02T14:46:42.999Z</time></trkpt><trkpt lat="44.67796924433074" lon="9.438595645239547"><ele>1149.5</ele><time>2026-05-02T14:46:43.999Z</time></trkpt><trkpt lat="44.67795826027488" lon="9.438759489565328"><ele>1148.6666666666665</ele><time>2026-05-02T14:46:44.999Z</time></trkpt><trkpt lat="44.67795994249597" lon="9.438897433967753"><ele>1147.8333333333333</ele><time>2026-05-02T14:46:45.999Z</time></trkpt><trkpt lat="44.67800797385238" lon="9.438981023383628"><ele>1147.0</ele><time>2026-05-02T14:46:46.999Z</time></trkpt><trkpt lat="44.67808728346257" lon="9.439079186404305"><ele>1150.25</ele><time>2026-05-02T14:46:47.999Z</time></trkpt><trkpt lat="44.67819266963866" lon="9.439231593040436"><ele>1153.5</ele><time>2026-05-02T14:46:48.999Z</time></trkpt><trkpt lat="44.67827253518324" lon="9.43941247494077"><ele>1156.75</ele><time>2026-05-02T14:46:49.999Z</time></trkpt><trkpt lat="44.678323140027025" lon="9.439569197547266"><ele>1160.0</ele><time>2026-05-02T14:46:50.999Z</time></trkpt><trkpt lat="44.678384957911845" lon="9.439762524732863"><ele>1161.4</ele><time>2026-05-02T14:46:51.998Z</time></trkpt><trkpt lat="44.678438923481814" lon="9.43991931130275"><ele>1162.8</ele><time>2026-05-02T14:46:52.998Z</time></trkpt><trkpt lat="44.67847444905456" lon="9.440024838650851"><ele>1164.2</ele><time>2026-05-02T14:46:53.998Z</time></trkpt><trkpt lat="44.67853058346948" lon="9.440137581369106"><ele>1165.6</ele><time>2026-05-02T14:46:54.998Z</time></trkpt><trkpt lat="44.6785661510117" lon="9.44024388651256"><ele>1167.0</ele><time>2026-05-02T14:46:55.998Z</time></trkpt><trkpt lat="44.67858952230377" lon="9.440378637647743"><ele>1168.25</ele><time>2026-05-02T14:46:56.998Z</time></trkpt><trkpt lat="44.67860117463446" lon="9.440554852903324"><ele>1169.5</ele><time>2026-05-02T14:46:57.998Z</time></trkpt><trkpt lat="44.67861117875793" lon="9.440712084536996"><ele>1170.75</ele><time>2026-05-02T14:46:58.998Z</time></trkpt><trkpt lat="44.67862605952571" lon="9.440884080360387"><ele>1172.0</ele><time>2026-05-02T14:46:59.998Z</time></trkpt><trkpt lat="44.678636274196506" lon="9.44106976078743"><ele>1172.0</ele><time>2026-05-02T14:47:00.998Z</time></trkpt><trkpt lat="44.678623419060045" lon="9.44124373770054"><ele>1172.0</ele><time>2026-05-02T14:47:01.998Z</time></trkpt><trkpt lat="44.6785972403798" lon="9.44142817104212"><ele>1172.0</ele><time>2026-05-02T14:47:02.998Z</time></trkpt><trkpt lat="44.678574819389816" lon="9.441589142743062"><ele>1172.0</ele><time>2026-05-02T14:47:03.998Z</time></trkpt><trkpt lat="44.67854619452778" lon="9.441735738622134"><ele>1172.0</ele><time>2026-05-02T14:47:04.998Z</time></trkpt><trkpt lat="44.67851973183304" lon="9.441883015417575"><ele>1172.0</ele><time>2026-05-02T14:47:05.998Z</time></trkpt><trkpt lat="44.67849183854885" lon="9.442062462715866"><ele>1172.0</ele><time>2026-05-02T14:47:06.998Z</time></trkpt><trkpt lat="44.67846625351499" lon="9.442251110450245"><ele>1172.0</ele><time>2026-05-02T14:47:07.998Z</time></trkpt><trkpt lat="44.67844777940327" lon="9.442397618588814"><ele>1172.2</ele><time>2026-05-02T14:47:08.998Z</time></trkpt><trkpt lat="44.678451558727" lon="9.442498207773037"><ele>1172.4</ele><time>2026-05-02T14:47:09.998Z</time></trkpt><trkpt lat="44.67848503357983" lon="9.442590258128869"><ele>1172.6</ele><time>2026-05-02T14:47:10.998Z</time></trkpt><trkpt lat="44.67853742936882" lon="9.44271240066296"><ele>1172.8</ele><time>2026-05-02T14:47:11.998Z</time></trkpt><trkpt lat="44.6785963725926" lon="9.442836747408885"><ele>1173.0</ele><time>2026-05-02T14:47:12.998Z</time></trkpt><trkpt lat="44.67868913651653" lon="9.442920709632599"><ele>1171.8</ele><time>2026-05-02T14:47:13.998Z</time></trkpt><trkpt lat="44.67876761914817" lon="9.442978405091901"><ele>1170.6</ele><time>2026-05-02T14:47:14.998Z</time></trkpt><trkpt lat="44.67882581115563" lon="9.443038042288265"><ele>1169.4</ele><time>2026-05-02T14:47:15.998Z</time></trkpt><trkpt lat="44.678863630833085" lon="9.443146623445369"><ele>1168.2</ele><time>2026-05-02T14:47:16.998Z</time></trkpt><trkpt lat="44.67890372277746" lon="9.44330494674529"><ele>1167.0</ele><time>2026-05-02T14:47:17.998Z</time></trkpt><trkpt lat="44.678971455338186" lon="9.443405878109427"><ele>1167.0</ele><time>2026-05-02T14:47:18.998Z</time></trkpt><trkpt lat="44.67903256252759" lon="9.443465653564854"><ele>1167.0</ele><time>2026-05-02T14:47:19.998Z</time></trkpt><trkpt lat="44.6791190870429" lon="9.443473754318475"><ele>1167.0</ele><time>2026-05-02T14:47:21Z</time></trkpt><trkpt lat="44.67920912657986" lon="9.44349861332457"><ele>1167.0</ele><time>2026-05-02T14:47:22Z</time></trkpt><trkpt lat="44.67931179368749" lon="9.443514987250191"><ele>1167.0</ele><time>2026-05-02T14:47:23Z</time></trkpt><trkpt lat="44.67940496498623" lon="9.443571410345106"><ele>1168.0</ele><time>2026-05-02T14:47:24Z</time></trkpt><trkpt lat="44.67947430541521" lon="9.443650278984249"><ele>1169.0</ele><time>2026-05-02T14:47:25Z</time></trkpt><trkpt lat="44.679511500372264" lon="9.443724998589726"><ele>1170.0</ele><time>2026-05-02T14:47:26Z</time></trkpt><trkpt lat="44.67965645819335" lon="9.44384340923143"><ele>1171.0</ele><time>2026-05-02T14:47:28Z</time></trkpt><trkpt lat="44.67973033299801" lon="9.44390835391639"><ele>1172.0</ele><time>2026-05-02T14:47:29Z</time></trkpt><trkpt lat="44.679799286086585" lon="9.443984919670994"><ele>1172.0</ele><time>2026-05-02T14:47:31Z</time></trkpt><trkpt lat="44.6798705869312" lon="9.443992984896273"><ele>1172.0</ele><time>2026-05-02T14:47:32Z</time></trkpt><trkpt lat="44.679943602554864" lon="9.444015950879987"><ele>1172.0</ele><time>2026-05-02T14:47:33Z</time></trkpt><trkpt lat="44.68001866011099" lon="9.444060235584114"><ele>1172.0</ele><time>2026-05-02T14:47:34Z</time></trkpt><trkpt lat="44.68014251636093" lon="9.44410964893536"><ele>1172.0</ele><time>2026-05-02T14:47:35Z</time></trkpt><trkpt lat="44.68025124397471" lon="9.444146750946862"><ele>1170.0</ele><time>2026-05-02T14:47:36Z</time></trkpt><trkpt lat="44.680323333807806" lon="9.44417584743267"><ele>1168.0</ele><time>2026-05-02T14:47:37Z</time></trkpt><trkpt lat="44.68038750295352" lon="9.444220501551868"><ele>1166.0</ele><time>2026-05-02T14:47:38Z</time></trkpt><trkpt lat="44.68046530967252" lon="9.444300151154605"><ele>1164.0</ele><time>2026-05-02T14:47:39Z</time></trkpt><trkpt lat="44.68055105646382" lon="9.444381177075835"><ele>1162.0</ele><time>2026-05-02T14:47:40Z</time></trkpt><trkpt lat="44.680620251697405" lon="9.444465578192895"><ele>1160.0</ele><time>2026-05-02T14:47:41Z</time></trkpt><trkpt lat="44.68066970718233" lon="9.44455971795018"><ele>1160.8</ele><time>2026-05-02T14:47:42Z</time></trkpt><trkpt lat="44.6807323874526" lon="9.444674037869957"><ele>1161.6</ele><time>2026-05-02T14:47:43Z</time></trkpt><trkpt lat="44.68078232685685" lon="9.444803844296185"><ele>1162.4</ele><time>2026-05-02T14:47:44Z</time></trkpt><trkpt lat="44.68084304541939" lon="9.444931142463142"><ele>1163.2</ele><time>2026-05-02T14:47:45Z</time></trkpt><trkpt lat="44.68087679394544" lon="9.445048212917252"><ele>1164.0</ele><time>2026-05-02T14:47:46Z</time></trkpt><trkpt lat="44.680939158384334" lon="9.445148994075574"><ele>1164.0</ele><time>2026-05-02T14:47:47Z</time></trkpt><trkpt lat="44.681014243369816" lon="9.44525814306775"><ele>1164.0</ele><time>2026-05-02T14:47:48Z</time></trkpt><trkpt lat="44.681090563743815" lon="9.445360723149383"><ele>1164.0</ele><time>2026-05-02T14:47:49Z</time></trkpt><trkpt lat="44.68114621440081" lon="9.445466720818107"><ele>1164.0</ele><time>2026-05-02T14:47:50Z</time></trkpt><trkpt lat="44.6811803485357" lon="9.445603130839151"><ele>1164.0</ele><time>2026-05-02T14:47:51Z</time></trkpt><trkpt lat="44.68119878858402" lon="9.445728028206892"><ele>1162.8</ele><time>2026-05-02T14:47:52Z</time></trkpt><trkpt lat="44.6812317804439" lon="9.44582746424214"><ele>1161.6000000000001</ele><time>2026-05-02T14:47:53Z</time></trkpt><trkpt lat="44.68129889398682" lon="9.445907907645697"><ele>1160.4</ele><time>2026-05-02T14:47:54Z</time></trkpt><trkpt lat="44.681365063653445" lon="9.44601166623763"><ele>1159.2</ele><time>2026-05-02T14:47:55Z</time></trkpt><trkpt lat="44.68144317802076" lon="9.446139835556501"><ele>1158.0</ele><time>2026-05-02T14:47:56Z</time></trkpt><trkpt lat="44.68150669995626" lon="9.44624668620351"><ele>1158.0</ele><time>2026-05-02T14:47:57Z</time></trkpt><trkpt lat="44.68156728982353" lon="9.446293347390085"><ele>1158.0</ele><time>2026-05-02T14:47:58Z</time></trkpt><trkpt lat="44.68162602349703" lon="9.446349215246263"><ele>1158.0</ele><time>2026-05-02T14:47:59Z</time></trkpt><trkpt lat="44.681691495542275" lon="9.446483141693413"><ele>1158.0</ele><time>2026-05-02T14:48:00Z</time></trkpt><trkpt lat="44.681734330576184" lon="9.446632515321616"><ele>1158.0</ele><time>2026-05-02T14:48:01Z</time></trkpt><trkpt lat="44.68177750792419" lon="9.44670002290724"><ele>1158.0</ele><time>2026-05-02T14:48:02Z</time></trkpt><trkpt lat="44.68182006477403" lon="9.446783439984968"><ele>1159.0</ele><time>2026-05-02T14:48:03Z</time></trkpt><trkpt lat="44.681834411415906" lon="9.446896971775535"><ele>1160.0</ele><time>2026-05-02T14:48:04Z</time></trkpt><trkpt lat="44.68187057570646" lon="9.447015135092022"><ele>1161.0</ele><time>2026-05-02T14:48:05Z</time></trkpt><trkpt lat="44.68192946854944" lon="9.447152661356924"><ele>1162.0</ele><time>2026-05-02T14:48:06Z</time></trkpt><trkpt lat="44.68199005013132" lon="9.447264761116756"><ele>1163.0</ele><time>2026-05-02T14:48:06.999Z</time></trkpt><trkpt lat="44.682068122439254" lon="9.447402659528843"><ele>1163.0</ele><time>2026-05-02T14:48:07.999Z</time></trkpt><trkpt lat="44.68212032401281" lon="9.447518689350806"><ele>1163.0</ele><time>2026-05-02T14:48:08.999Z</time></trkpt><trkpt lat="44.68218173853681" lon="9.447619475310464"><ele>1163.0</ele><time>2026-05-02T14:48:09.999Z</time></trkpt><trkpt lat="44.68223679827328" lon="9.44773991023156"><ele>1163.0</ele><time>2026-05-02T14:48:10.999Z</time></trkpt><trkpt lat="44.682291766846674" lon="9.447858066220764"><ele>1163.0</ele><time>2026-05-02T14:48:11.999Z</time></trkpt><trkpt lat="44.68234887615758" lon="9.44796455119335"><ele>1165.0</ele><time>2026-05-02T14:48:12.999Z</time></trkpt><trkpt lat="44.68239290946194" lon="9.448067588724214"><ele>1167.0</ele><time>2026-05-02T14:48:13.999Z</time></trkpt><trkpt lat="44.68244735035549" lon="9.448202888242555"><ele>1169.0</ele><time>2026-05-02T14:48:14.999Z</time></trkpt><trkpt lat="44.682503645986" lon="9.448333825123866"><ele>1171.0</ele><time>2026-05-02T14:48:15.999Z</time></trkpt><trkpt lat="44.682543227576325" lon="9.448407897987593"><ele>1173.0</ele><time>2026-05-02T14:48:16.999Z</time></trkpt><trkpt lat="44.682602835411686" lon="9.448508261292519"><ele>1173.0</ele><time>2026-05-02T14:48:17.999Z</time></trkpt><trkpt lat="44.682664538794334" lon="9.448594161358429"><ele>1173.0</ele><time>2026-05-02T14:48:18.999Z</time></trkpt><trkpt lat="44.68274244975057" lon="9.448683841067474"><ele>1173.0</ele><time>2026-05-02T14:48:19.999Z</time></trkpt><trkpt lat="44.682820621195866" lon="9.448747620954492"><ele>1173.0</ele><time>2026-05-02T14:48:20.999Z</time></trkpt><trkpt lat="44.68292408020961" lon="9.448793637351482"><ele>1173.0</ele><time>2026-05-02T14:48:21.999Z</time></trkpt><trkpt lat="44.68302674954526" lon="9.448852359121236"><ele>1175.0</ele><time>2026-05-02T14:48:22.999Z</time></trkpt><trkpt lat="44.68310691207926" lon="9.44891337235498"><ele>1177.0</ele><time>2026-05-02T14:48:23.999Z</time></trkpt><trkpt lat="44.683173985256495" lon="9.448967102621781"><ele>1179.0</ele><time>2026-05-02T14:48:24.999Z</time></trkpt><trkpt lat="44.68325740050842" lon="9.448991034461294"><ele>1181.0</ele><time>2026-05-02T14:48:25.999Z</time></trkpt><trkpt lat="44.68335502243458" lon="9.44901623895597"><ele>1183.0</ele><time>2026-05-02T14:48:26.999Z</time></trkpt><trkpt lat="44.683450756875295" lon="9.449062214660968"><ele>1183.0</ele><time>2026-05-02T14:48:27.999Z</time></trkpt><trkpt lat="44.68354543729255" lon="9.449127533919825"><ele>1183.0</ele><time>2026-05-02T14:48:28.999Z</time></trkpt><trkpt lat="44.68363476707353" lon="9.44919385974838"><ele>1183.0</ele><time>2026-05-02T14:48:29.999Z</time></trkpt><trkpt lat="44.68372734555272" lon="9.449233407167569"><ele>1183.0</ele><time>2026-05-02T14:48:30.999Z</time></trkpt><trkpt lat="44.68382443153266" lon="9.449277094843131"><ele>1183.0</ele><time>2026-05-02T14:48:31.999Z</time></trkpt><trkpt lat="44.683907009450415" lon="9.449342026994742"><ele>1181.0</ele><time>2026-05-02T14:48:32.999Z</time></trkpt><trkpt lat="44.68398633878143" lon="9.44942548305925"><ele>1179.0</ele><time>2026-05-02T14:48:33.999Z</time></trkpt><trkpt lat="44.684083529899425" lon="9.449493619343663"><ele>1177.0</ele><time>2026-05-02T14:48:34.999Z</time></trkpt><trkpt lat="44.68417284620277" lon="9.449544836186572"><ele>1175.0</ele><time>2026-05-02T14:48:35.999Z</time></trkpt><trkpt lat="44.68428291383066" lon="9.449552673061843"><ele>1173.0</ele><time>2026-05-02T14:48:36.999Z</time></trkpt><trkpt lat="44.68439796635478" lon="9.449596038633596"><ele>1175.2</ele><time>2026-05-02T14:48:37.999Z</time></trkpt><trkpt lat="44.68449933994739" lon="9.44964939966829"><ele>1177.4</ele><time>2026-05-02T14:48:38.999Z</time></trkpt><trkpt lat="44.684589119558744" lon="9.449698064833191"><ele>1179.6000000000001</ele><time>2026-05-02T14:48:39.999Z</time></trkpt><trkpt lat="44.68468945356403" lon="9.449760294703827"><ele>1181.8</ele><time>2026-05-02T14:48:40.999Z</time></trkpt><trkpt lat="44.684783718218085" lon="9.44982659304695"><ele>1184.0</ele><time>2026-05-02T14:48:41.999Z</time></trkpt><trkpt lat="44.68489049255731" lon="9.449891556434832"><ele>1184.0</ele><time>2026-05-02T14:48:42.999Z</time></trkpt><trkpt lat="44.685011983446415" lon="9.449957936067172"><ele>1184.0</ele><time>2026-05-02T14:48:43.999Z</time></trkpt><trkpt lat="44.68510986801705" lon="9.450020145925606"><ele>1184.0</ele><time>2026-05-02T14:48:44.999Z</time></trkpt><trkpt lat="44.68518610585735" lon="9.45008349312196"><ele>1184.0</ele><time>2026-05-02T14:48:45.999Z</time></trkpt><trkpt lat="44.685244023588524" lon="9.450150000453847"><ele>1184.0</ele><time>2026-05-02T14:48:46.999Z</time></trkpt><trkpt lat="44.68530454677483" lon="9.450212576659363"><ele>1183.8</ele><time>2026-05-02T14:48:48.999Z</time></trkpt><trkpt lat="44.685353743803034" lon="9.450306559930615"><ele>1183.6000000000001</ele><time>2026-05-02T14:50:27.999Z</time></trkpt><trkpt lat="44.685429074306356" lon="9.450354123258533"><ele>1183.4</ele><time>2026-05-02T14:50:28.999Z</time></trkpt><trkpt lat="44.68551779991522" lon="9.450433471427425"><ele>1183.2</ele><time>2026-05-02T14:50:29.999Z</time></trkpt><trkpt lat="44.68559967772715" lon="9.450540669452216"><ele>1183.0</ele><time>2026-05-02T14:50:30.999Z</time></trkpt><trkpt lat="44.68567585088633" lon="9.45066310556961"><ele>1181.4</ele><time>2026-05-02T14:50:31.999Z</time></trkpt><trkpt lat="44.68574428693198" lon="9.450782746278016"><ele>1179.8</ele><time>2026-05-02T14:50:32.999Z</time></trkpt><trkpt lat="44.68581265805101" lon="9.450887492856808"><ele>1178.2</ele><time>2026-05-02T14:50:33.999Z</time></trkpt><trkpt lat="44.685877498786475" lon="9.450999498060524"><ele>1176.6</ele><time>2026-05-02T14:50:34.999Z</time></trkpt><trkpt lat="44.68593758841435" lon="9.45108429682929"><ele>1175.0</ele><time>2026-05-02T14:50:35.999Z</time></trkpt><trkpt lat="44.685993656074984" lon="9.451160016715423"><ele>1175.0</ele><time>2026-05-02T14:50:36.999Z</time></trkpt><trkpt lat="44.686039600616844" lon="9.451235539260416"><ele>1175.0</ele><time>2026-05-02T14:50:37.999Z</time></trkpt><trkpt lat="44.686071280430326" lon="9.451326616152526"><ele>1175.0</ele><time>2026-05-02T14:50:38.999Z</time></trkpt><trkpt lat="44.686070117562586" lon="9.451435167560657"><ele>1175.0</ele><time>2026-05-02T14:50:39.999Z</time></trkpt><trkpt lat="44.68606382879747" lon="9.451573598429059"><ele>1175.0</ele><time>2026-05-02T14:50:40.999Z</time></trkpt><trkpt lat="44.686087512133554" lon="9.451725284657368"><ele>1175.0</ele><time>2026-05-02T14:50:41.999Z</time></trkpt><trkpt lat="44.68612064848818" lon="9.45187841917072"><ele>1175.6</ele><time>2026-05-02T14:50:42.999Z</time></trkpt><trkpt lat="44.68616572736813" lon="9.452030240388954"><ele>1176.2</ele><time>2026-05-02T14:50:43.999Z</time></trkpt><trkpt lat="44.686213397242774" lon="9.452172239524783"><ele>1176.8</ele><time>2026-05-02T14:50:44.999Z</time></trkpt><trkpt lat="44.686257685128076" lon="9.452303430755718"><ele>1177.4</ele><time>2026-05-02T14:50:45.999Z</time></trkpt><trkpt lat="44.68633143972172" lon="9.452407216771881"><ele>1178.0</ele><time>2026-05-02T14:50:46.999Z</time></trkpt><trkpt lat="44.68641207370785" lon="9.452490393785128"><ele>1175.8333333333335</ele><time>2026-05-02T14:50:47.999Z</time></trkpt><trkpt lat="44.68649192851724" lon="9.452560019029596"><ele>1173.6666666666667</ele><time>2026-05-02T14:50:48.999Z</time></trkpt><trkpt lat="44.686550800265024" lon="9.45263941409997"><ele>1171.5</ele><time>2026-05-02T14:50:49.999Z</time></trkpt><trkpt lat="44.68659180550362" lon="9.452719972711948"><ele>1169.3333333333333</ele><time>2026-05-02T14:50:50.999Z</time></trkpt><trkpt lat="44.68661603315644" lon="9.452807150511973"><ele>1167.1666666666665</ele><time>2026-05-02T14:50:51.999Z</time></trkpt><trkpt lat="44.68660475451332" lon="9.452908721932687"><ele>1165.0</ele><time>2026-05-02T14:50:52.999Z</time></trkpt><trkpt lat="44.68658011255978" lon="9.453030143723193"><ele>1163.6</ele><time>2026-05-02T14:50:53.999Z</time></trkpt><trkpt lat="44.686564463687695" lon="9.45316383737934"><ele>1162.2</ele><time>2026-05-02T14:50:54.999Z</time></trkpt><trkpt lat="44.68658796581423" lon="9.453304510941832"><ele>1160.8</ele><time>2026-05-02T14:50:55.999Z</time></trkpt><trkpt lat="44.68662657509942" lon="9.453459145203745"><ele>1159.4</ele><time>2026-05-02T14:50:56.999Z</time></trkpt><trkpt lat="44.68666060831273" lon="9.45360390946398"><ele>1158.0</ele><time>2026-05-02T14:50:57.999Z</time></trkpt><trkpt lat="44.68667596353479" lon="9.453736062478235"><ele>1156.5</ele><time>2026-05-02T14:50:58.999Z</time></trkpt><trkpt lat="44.68667329554767" lon="9.453851823336144"><ele>1155.0</ele><time>2026-05-02T14:50:59.999Z</time></trkpt><trkpt lat="44.686671400398815" lon="9.453974182269858"><ele>1153.5</ele><time>2026-05-02T14:51:00.998Z</time></trkpt><trkpt lat="44.68667904216143" lon="9.45408313019088"><ele>1152.0</ele><time>2026-05-02T14:51:01.998Z</time></trkpt><trkpt lat="44.686701408164986" lon="9.454204487104299"><ele>1150.5</ele><time>2026-05-02T14:51:02.998Z</time></trkpt><trkpt lat="44.68673189461629" lon="9.45433436345742"><ele>1149.0</ele><time>2026-05-02T14:51:03.998Z</time></trkpt><trkpt lat="44.68675965462259" lon="9.45445057966261"><ele>1149.0</ele><time>2026-05-02T14:51:04.998Z</time></trkpt><trkpt lat="44.6867782425911" lon="9.454564453746736"><ele>1149.0</ele><time>2026-05-02T14:51:05.998Z</time></trkpt><trkpt lat="44.686752634636754" lon="9.45466919070712"><ele>1149.0</ele><time>2026-05-02T14:51:06.998Z</time></trkpt><trkpt lat="44.686711408443976" lon="9.454796623848484"><ele>1149.0</ele><time>2026-05-02T14:51:07.998Z</time></trkpt><trkpt lat="44.68666104625683" lon="9.45489899752147"><ele>1149.0</ele><time>2026-05-02T14:51:08.998Z</time></trkpt><trkpt lat="44.6866063529018" lon="9.454976841677112"><ele>1149.0</ele><time>2026-05-02T14:51:09.998Z</time></trkpt><trkpt lat="44.686535124232975" lon="9.455018881069142"><ele>1148.6000000000001</ele><time>2026-05-02T14:51:10.998Z</time></trkpt><trkpt lat="44.68646101272065" lon="9.455029454722231"><ele>1148.2</ele><time>2026-05-02T14:51:11.998Z</time></trkpt><trkpt lat="44.686403367241695" lon="9.455144408331332"><ele>1147.8000000000002</ele><time>2026-05-02T14:51:13.998Z</time></trkpt><trkpt lat="44.68641410058276" lon="9.45524599810009"><ele>1147.4</ele><time>2026-05-02T14:51:14.998Z</time></trkpt><trkpt lat="44.6864508887059" lon="9.455371847133813"><ele>1147.0</ele><time>2026-05-02T14:51:15.998Z</time></trkpt><trkpt lat="44.686490223179085" lon="9.455512202628812"><ele>1147.0</ele><time>2026-05-02T14:51:16.998Z</time></trkpt><trkpt lat="44.68650291130529" lon="9.45564177354201"><ele>1147.0</ele><time>2026-05-02T14:51:17.998Z</time></trkpt><trkpt lat="44.68649096599658" lon="9.455788561641961"><ele>1147.0</ele><time>2026-05-02T14:51:18.998Z</time></trkpt><trkpt lat="44.68645193262004" lon="9.455939413967183"><ele>1147.0</ele><time>2026-05-02T14:51:19.998Z</time></trkpt><trkpt lat="44.686401985115616" lon="9.45609545195986"><ele>1147.0</ele><time>2026-05-02T14:51:20.998Z</time></trkpt><trkpt lat="44.68634102549287" lon="9.456247663285904"><ele>1146.8</ele><time>2026-05-02T14:51:21.998Z</time></trkpt><trkpt lat="44.68627821852132" lon="9.456371038207134"><ele>1146.6</ele><time>2026-05-02T14:51:22.998Z</time></trkpt><trkpt lat="44.68624718097526" lon="9.456482467023983"><ele>1146.3999999999999</ele><time>2026-05-02T14:51:23.998Z</time></trkpt><trkpt lat="44.6862485438988" lon="9.456603473409912"><ele>1146.2</ele><time>2026-05-02T14:51:24.998Z</time></trkpt><trkpt lat="44.686281266354406" lon="9.456759002104132"><ele>1146.0</ele><time>2026-05-02T14:51:25.998Z</time></trkpt><trkpt lat="44.686311460093464" lon="9.456923296540415"><ele>1146.0</ele><time>2026-05-02T14:51:26.998Z</time></trkpt><trkpt lat="44.68632014720414" lon="9.457057963549813"><ele>1146.0</ele><time>2026-05-02T14:51:27.998Z</time></trkpt><trkpt lat="44.68629152081874" lon="9.457202089523694"><ele>1146.0</ele><time>2026-05-02T14:51:28.998Z</time></trkpt><trkpt lat="44.6862544935555" lon="9.457324436941466"><ele>1146.0</ele><time>2026-05-02T14:51:29.998Z</time></trkpt><trkpt lat="44.68624565580497" lon="9.457436539912427"><ele>1146.0</ele><time>2026-05-02T14:51:30.998Z</time></trkpt><trkpt lat="44.686262444326125" lon="9.457539017305534"><ele>1145.6666666666667</ele><time>2026-05-02T14:51:31.998Z</time></trkpt><trkpt lat="44.6862957943341" lon="9.457628321933552"><ele>1145.3333333333333</ele><time>2026-05-02T14:51:33Z</time></trkpt><trkpt lat="44.68634216509939" lon="9.457725267146795"><ele>1145.0</ele><time>2026-05-02T14:51:34Z</time></trkpt><trkpt lat="44.686400988395164" lon="9.45783009670088"><ele>1144.6666666666665</ele><time>2026-05-02T14:51:35Z</time></trkpt><trkpt lat="44.686445670693736" lon="9.457962160228638"><ele>1144.3333333333333</ele><time>2026-05-02T14:51:36Z</time></trkpt><trkpt lat="44.68644671713425" lon="9.458061047251665"><ele>1144.0</ele><time>2026-05-02T14:51:37Z</time></trkpt><trkpt lat="44.68642814963187" lon="9.45817482807091"><ele>1142.8333333333333</ele><time>2026-05-02T14:51:38Z</time></trkpt><trkpt lat="44.68638928992279" lon="9.458278269450268"><ele>1141.6666666666665</ele><time>2026-05-02T14:51:39Z</time></trkpt><trkpt lat="44.68635162572016" lon="9.45836561361708"><ele>1140.5</ele><time>2026-05-02T14:51:40Z</time></trkpt><trkpt lat="44.68630616371842" lon="9.458441930259134"><ele>1139.3333333333333</ele><time>2026-05-02T14:51:41Z</time></trkpt><trkpt lat="44.686253987222656" lon="9.458521616230087"><ele>1138.1666666666667</ele><time>2026-05-02T14:51:42Z</time></trkpt><trkpt lat="44.686207811783724" lon="9.458615065752623"><ele>1137.0</ele><time>2026-05-02T14:51:43Z</time></trkpt><trkpt lat="44.68618090514254" lon="9.458722439547195"><ele>1136.3333333333333</ele><time>2026-05-02T14:51:44Z</time></trkpt><trkpt lat="44.686163794746136" lon="9.458829335832117"><ele>1135.6666666666667</ele><time>2026-05-02T14:51:45Z</time></trkpt><trkpt lat="44.68615269290468" lon="9.458951827865553"><ele>1135.0</ele><time>2026-05-02T14:51:46Z</time></trkpt><trkpt lat="44.68614441208716" lon="9.45907625347214"><ele>1134.3333333333335</ele><time>2026-05-02T14:51:47Z</time></trkpt><trkpt lat="44.686142600019124" lon="9.459207578947876"><ele>1133.6666666666667</ele><time>2026-05-02T14:51:48Z</time></trkpt><trkpt lat="44.68613685487875" lon="9.459328114178769"><ele>1133.0</ele><time>2026-05-02T14:51:49Z</time></trkpt><trkpt lat="44.68613535492633" lon="9.459464694304438"><ele>1133.0</ele><time>2026-05-02T14:51:51Z</time></trkpt><trkpt lat="44.686144402751076" lon="9.459552335590855"><ele>1133.0</ele><time>2026-05-02T14:51:53Z</time></trkpt><trkpt lat="44.68619196696689" lon="9.459629473597358"><ele>1133.0</ele><time>2026-05-02T14:51:55Z</time></trkpt><trkpt lat="44.68627310204688" lon="9.459673713028861"><ele>1133.0</ele><time>2026-05-02T14:51:58Z</time></trkpt><trkpt lat="44.686328594777656" lon="9.45971873946891"><ele>1133.0</ele><time>2026-05-02T14:52:00Z</time></trkpt><trkpt lat="44.68638880736784" lon="9.459784068350176"><ele>1133.0</ele><time>2026-05-02T14:52:02Z</time></trkpt><trkpt lat="44.68641627105758" lon="9.45987323086873"><ele>1133.0</ele><time>2026-05-02T14:52:04Z</time></trkpt><trkpt lat="44.6864288175928" lon="9.459978458206175"><ele>1133.0</ele><time>2026-05-02T14:52:06Z</time></trkpt><trkpt lat="44.68643897836803" lon="9.46008274128422"><ele>1133.0</ele><time>2026-05-02T14:52:08Z</time></trkpt><trkpt lat="44.68644684089031" lon="9.460241688529152"><ele>1133.0</ele><time>2026-05-02T14:52:10Z</time></trkpt><trkpt lat="44.68645513933599" lon="9.460392406449992"><ele>1133.0</ele><time>2026-05-02T14:52:12Z</time></trkpt><trkpt lat="44.68645019830695" lon="9.46053556924429"><ele>1133.0</ele><time>2026-05-02T14:52:14Z</time></trkpt><trkpt lat="44.68641998536267" lon="9.460664890981588"><ele>1133.0</ele><time>2026-05-02T14:52:15.999Z</time></trkpt><trkpt lat="44.68639233543936" lon="9.46078811013129"><ele>1133.0</ele><time>2026-05-02T14:52:17.999Z</time></trkpt><trkpt lat="44.686381250047994" lon="9.460947096795492"><ele>1133.0</ele><time>2026-05-02T14:52:19.999Z</time></trkpt><trkpt lat="44.68637182793434" lon="9.461088611349766"><ele>1133.0</ele><time>2026-05-02T14:52:21.999Z</time></trkpt><trkpt lat="44.68640436431863" lon="9.461235898037506"><ele>1133.0</ele><time>2026-05-02T14:52:23.999Z</time></trkpt><trkpt lat="44.68640866051106" lon="9.461372648375606"><ele>1133.6666666666667</ele><time>2026-05-02T14:52:25.999Z</time></trkpt><trkpt lat="44.68647315643996" lon="9.4614649183075"><ele>1134.3333333333335</ele><time>2026-05-02T14:52:28.999Z</time></trkpt><trkpt lat="44.68656929325302" lon="9.461486722366754"><ele>1135.0</ele><time>2026-05-02T14:52:49.999Z</time></trkpt><trkpt lat="44.686646963436964" lon="9.461507468147646"><ele>1135.6666666666667</ele><time>2026-05-02T14:52:50.999Z</time></trkpt><trkpt lat="44.68672108591838" lon="9.461524323164316"><ele>1136.3333333333333</ele><time>2026-05-02T14:52:51.999Z</time></trkpt><trkpt lat="44.68678343923432" lon="9.461489087769637"><ele>1137.0</ele><time>2026-05-02T14:52:52.999Z</time></trkpt><trkpt lat="44.686870524881506" lon="9.461438098804052"><ele>1140.5</ele><time>2026-05-02T14:52:53.999Z</time></trkpt><trkpt lat="44.68694740698791" lon="9.461394793002867"><ele>1144.0</ele><time>2026-05-02T14:52:54.999Z</time></trkpt><trkpt lat="44.687018946481274" lon="9.461344462171704"><ele>1147.5</ele><time>2026-05-02T14:52:55.999Z</time></trkpt><trkpt lat="44.68709715416909" lon="9.461304222511245"><ele>1151.0</ele><time>2026-05-02T14:52:56.999Z</time></trkpt><trkpt lat="44.687168383584336" lon="9.461264781870387"><ele>1154.5</ele><time>2026-05-02T14:52:57.999Z</time></trkpt><trkpt lat="44.687241028671025" lon="9.461208252050682"><ele>1158.0</ele><time>2026-05-02T14:52:58.999Z</time></trkpt><trkpt lat="44.68731507764505" lon="9.461169628277672"><ele>1158.0</ele><time>2026-05-02T14:52:59.999Z</time></trkpt><trkpt lat="44.68738159502346" lon="9.461120972148784"><ele>1158.0</ele><time>2026-05-02T14:53:00.999Z</time></trkpt><trkpt lat="44.687492761771225" lon="9.46120892050558"><ele>1158.0</ele><time>2026-05-02T14:53:02.999Z</time></trkpt><trkpt lat="44.687534422189835" lon="9.46129469389463"><ele>1158.0</ele><time>2026-05-02T14:53:03.999Z</time></trkpt><trkpt lat="44.68758025784315" lon="9.461392034639628"><ele>1158.0</ele><time>2026-05-02T14:53:04.999Z</time></trkpt><trkpt lat="44.687608682654755" lon="9.461495145082456"><ele>1158.0</ele><time>2026-05-02T14:53:05.999Z</time></trkpt><trkpt lat="44.68764270166827" lon="9.461626325728496"><ele>1158.8333333333333</ele><time>2026-05-02T14:53:06.999Z</time></trkpt><trkpt lat="44.687677767650754" lon="9.461733652911795"><ele>1159.6666666666667</ele><time>2026-05-02T14:53:07.999Z</time></trkpt><trkpt lat="44.687705368937614" lon="9.461844866801721"><ele>1160.5</ele><time>2026-05-02T14:53:08.998Z</time></trkpt><trkpt lat="44.68771839682257" lon="9.461952438496038"><ele>1161.3333333333335</ele><time>2026-05-02T14:53:09.998Z</time></trkpt><trkpt lat="44.68772738727343" lon="9.462070084920521"><ele>1162.1666666666667</ele><time>2026-05-02T14:53:10.998Z</time></trkpt><trkpt lat="44.68774822305371" lon="9.462193568195993"><ele>1163.0</ele><time>2026-05-02T14:53:11.998Z</time></trkpt><trkpt lat="44.687793484678735" lon="9.462330493211718"><ele>1167.2</ele><time>2026-05-02T14:53:12.998Z</time></trkpt><trkpt lat="44.68782287398307" lon="9.46247362266069"><ele>1171.4</ele><time>2026-05-02T14:53:13.998Z</time></trkpt><trkpt lat="44.68782171829741" lon="9.462585074845244"><ele>1175.6000000000001</ele><time>2026-05-02T14:53:14.998Z</time></trkpt><trkpt lat="44.68781388406423" lon="9.462704808050661"><ele>1179.8</ele><time>2026-05-02T14:53:15.998Z</time></trkpt><trkpt lat="44.68780436167008" lon="9.462856380998465"><ele>1184.0</ele><time>2026-05-02T14:53:16.998Z</time></trkpt><trkpt lat="44.687815099026054" lon="9.463014655057266"><ele>1184.0</ele><time>2026-05-02T14:53:17.998Z</time></trkpt><trkpt lat="44.687844913239466" lon="9.463133418741869"><ele>1184.0</ele><time>2026-05-02T14:53:18.998Z</time></trkpt><trkpt lat="44.687891755358024" lon="9.46322553643011"><ele>1184.0</ele><time>2026-05-02T14:53:19.998Z</time></trkpt><trkpt lat="44.68793590827622" lon="9.463318999747878"><ele>1184.0</ele><time>2026-05-02T14:53:20.998Z</time></trkpt><trkpt lat="44.687981701109365" lon="9.463402035038847"><ele>1184.0</ele><time>2026-05-02T14:53:21.998Z</time></trkpt><trkpt lat="44.68807666134119" lon="9.46347099167058"><ele>1184.0</ele><time>2026-05-02T14:53:23.998Z</time></trkpt><trkpt lat="44.68820017047811" lon="9.463403008972582"><ele>1184.0</ele><time>2026-05-02T14:53:25.998Z</time></trkpt><trkpt lat="44.688260220752646" lon="9.463311247004857"><ele>1184.0</ele><time>2026-05-02T14:53:26.998Z</time></trkpt><trkpt lat="44.68833297107543" lon="9.463187013748096"><ele>1184.0</ele><time>2026-05-02T14:53:27.998Z</time></trkpt><trkpt lat="44.688399327487616" lon="9.463036764558042"><ele>1184.0</ele><time>2026-05-02T14:53:28.998Z</time></trkpt><trkpt lat="44.688466698675704" lon="9.462888938504882"><ele>1184.8333333333335</ele><time>2026-05-02T14:53:29.998Z</time></trkpt><trkpt lat="44.68852769362287" lon="9.46278844216385"><ele>1185.6666666666667</ele><time>2026-05-02T14:53:30.998Z</time></trkpt><trkpt lat="44.68858527098141" lon="9.462732277471302"><ele>1186.5</ele><time>2026-05-02T14:53:31.998Z</time></trkpt><trkpt lat="44.68865479176847" lon="9.462692279820036"><ele>1187.3333333333333</ele><time>2026-05-02T14:53:32.998Z</time></trkpt><trkpt lat="44.688745985035936" lon="9.462670816092386"><ele>1188.1666666666665</ele><time>2026-05-02T14:53:33.998Z</time></trkpt><trkpt lat="44.688838507749715" lon="9.462671372863408"><ele>1189.0</ele><time>2026-05-02T14:53:34.998Z</time></trkpt><trkpt lat="44.68894302020422" lon="9.462664855581776"><ele>1191.8333333333333</ele><time>2026-05-02T14:53:35.998Z</time></trkpt><trkpt lat="44.68903343636971" lon="9.462662087723041"><ele>1194.6666666666665</ele><time>2026-05-02T14:53:36.998Z</time></trkpt><trkpt lat="44.68909914240769" lon="9.462682062972675"><ele>1197.5</ele><time>2026-05-02T14:53:37.998Z</time></trkpt><trkpt lat="44.68917184162076" lon="9.462715702381054"><ele>1200.3333333333333</ele><time>2026-05-02T14:53:39Z</time></trkpt><trkpt lat="44.68923953812447" lon="9.462731534197967"><ele>1203.1666666666667</ele><time>2026-05-02T14:53:40Z</time></trkpt><trkpt lat="44.68932836651434" lon="9.462748567208251"><ele>1206.0</ele><time>2026-05-02T14:53:41Z</time></trkpt><trkpt lat="44.689421132765794" lon="9.462752407128711"><ele>1207.8</ele><time>2026-05-02T14:53:42Z</time></trkpt><trkpt lat="44.689503823539276" lon="9.462745204222998"><ele>1209.6</ele><time>2026-05-02T14:53:43Z</time></trkpt><trkpt lat="44.68957157100485" lon="9.462713996358481"><ele>1211.4</ele><time>2026-05-02T14:53:44Z</time></trkpt><trkpt lat="44.68965039704439" lon="9.462699785596067"><ele>1213.2</ele><time>2026-05-02T14:53:46Z</time></trkpt><trkpt lat="44.6896718621213" lon="9.462806862142148"><ele>1215.0</ele><time>2026-05-02T14:53:48Z</time></trkpt><trkpt lat="44.689761034975106" lon="9.46297997550445"><ele>1215.0</ele><time>2026-05-02T14:53:50Z</time></trkpt><trkpt lat="44.68983007232096" lon="9.463079626999217"><ele>1215.0</ele><time>2026-05-02T14:53:51Z</time></trkpt><trkpt lat="44.68990827666933" lon="9.463199886243268"><ele>1215.0</ele><time>2026-05-02T14:53:52Z</time></trkpt><trkpt lat="44.689969166352064" lon="9.46331734508138"><ele>1215.0</ele><time>2026-05-02T14:53:53Z</time></trkpt><trkpt lat="44.69001090410786" lon="9.463433639154058"><ele>1215.0</ele><time>2026-05-02T14:53:54Z</time></trkpt><trkpt lat="44.69005500625012" lon="9.463554359385586"><ele>1215.0</ele><time>2026-05-02T14:53:55Z</time></trkpt><trkpt lat="44.69006889977525" lon="9.46367367741943"><ele>1215.0</ele><time>2026-05-02T14:53:56Z</time></trkpt><trkpt lat="44.6900720628706" lon="9.4637745659583"><ele>1215.0</ele><time>2026-05-02T14:53:57Z</time></trkpt><trkpt lat="44.69004872090518" lon="9.463880956703406"><ele>1215.0</ele><time>2026-05-02T14:53:58Z</time></trkpt><trkpt lat="44.69003430467098" lon="9.463998899129486"><ele>1215.0</ele><time>2026-05-02T14:53:59Z</time></trkpt><trkpt lat="44.69001766238869" lon="9.464110125047412"><ele>1215.0</ele><time>2026-05-02T14:54:00Z</time></trkpt><trkpt lat="44.690015055511964" lon="9.464231100229972"><ele>1215.6666666666667</ele><time>2026-05-02T14:54:01Z</time></trkpt><trkpt lat="44.690020034501735" lon="9.46433973657614"><ele>1216.3333333333333</ele><time>2026-05-02T14:54:02Z</time></trkpt><trkpt lat="44.69003045513028" lon="9.464442969194076"><ele>1217.0</ele><time>2026-05-02T14:54:03Z</time></trkpt><trkpt lat="44.69005290815737" lon="9.464553500123488"><ele>1217.6666666666665</ele><time>2026-05-02T14:54:05Z</time></trkpt><trkpt lat="44.6901188751345" lon="9.46456504750963"><ele>1218.3333333333333</ele><time>2026-05-02T14:54:48.999Z</time></trkpt><trkpt lat="44.690193519678736" lon="9.464612663912263"><ele>1219.0</ele><time>2026-05-02T14:54:49.999Z</time></trkpt><trkpt lat="44.690266993539474" lon="9.464651418767817"><ele>1222.6000000000001</ele><time>2026-05-02T14:54:50.999Z</time></trkpt><trkpt lat="44.69033812694502" lon="9.464705830319708"><ele>1226.2</ele><time>2026-05-02T14:54:51.999Z</time></trkpt><trkpt lat="44.690416977931406" lon="9.464761975721055"><ele>1229.8000000000002</ele><time>2026-05-02T14:54:52.999Z</time></trkpt><trkpt lat="44.69050022284079" lon="9.464839180120949"><ele>1233.4</ele><time>2026-05-02T14:54:53.999Z</time></trkpt><trkpt lat="44.690590735207294" lon="9.464921895184416"><ele>1237.0</ele><time>2026-05-02T14:54:54.999Z</time></trkpt><trkpt lat="44.690674702594265" lon="9.465006722110374"><ele>1237.0</ele><time>2026-05-02T14:54:55.999Z</time></trkpt><trkpt lat="44.69075367310847" lon="9.465053595903665"><ele>1237.0</ele><time>2026-05-02T14:54:56.999Z</time></trkpt><trkpt lat="44.690832860413195" lon="9.465096372115953"><ele>1237.0</ele><time>2026-05-02T14:54:57.999Z</time></trkpt><trkpt lat="44.69090500356889" lon="9.465158060402391"><ele>1237.0</ele><time>2026-05-02T14:54:58.999Z</time></trkpt><trkpt lat="44.69095113028869" lon="9.465220475512329"><ele>1237.0</ele><time>2026-05-02T14:54:59.999Z</time></trkpt><trkpt lat="44.690992392173435" lon="9.465308622704509"><ele>1237.0</ele><time>2026-05-02T14:55:00.999Z</time></trkpt><trkpt lat="44.69103937764591" lon="9.465415202720113"><ele>1238.6666666666665</ele><time>2026-05-02T14:55:01.999Z</time></trkpt><trkpt lat="44.69109442014268" lon="9.465504499501211"><ele>1240.3333333333333</ele><time>2026-05-02T14:55:02.999Z</time></trkpt><trkpt lat="44.69115035315592" lon="9.465592308033372"><ele>1242.0</ele><time>2026-05-02T14:55:03.999Z</time></trkpt><trkpt lat="44.69120765838095" lon="9.46564913703787"><ele>1243.6666666666667</ele><time>2026-05-02T14:55:04.999Z</time></trkpt><trkpt lat="44.69127333992161" lon="9.46565878934494"><ele>1245.3333333333335</ele><time>2026-05-02T14:55:05.999Z</time></trkpt><trkpt lat="44.69136267967019" lon="9.465676720180193"><ele>1247.0</ele><time>2026-05-02T14:55:06.999Z</time></trkpt><trkpt lat="44.69144466373634" lon="9.465718032548347"><ele>1247.0</ele><time>2026-05-02T14:55:07.999Z</time></trkpt><trkpt lat="44.69151029039074" lon="9.465771918174058"><ele>1247.0</ele><time>2026-05-02T14:55:08.999Z</time></trkpt><trkpt lat="44.69162889627962" lon="9.46579163984022"><ele>1247.0</ele><time>2026-05-02T14:55:10.999Z</time></trkpt><trkpt lat="44.69169160774577" lon="9.465736210502627"><ele>1247.0</ele><time>2026-05-02T14:55:11.999Z</time></trkpt><trkpt lat="44.69177267491476" lon="9.465675414408462"><ele>1247.0</ele><time>2026-05-02T14:55:12.998Z</time></trkpt><trkpt lat="44.69183761986494" lon="9.465614755444753"><ele>1247.0</ele><time>2026-05-02T14:55:13.998Z</time></trkpt><trkpt lat="44.69191062294077" lon="9.465536728345214"><ele>1249.6</ele><time>2026-05-02T14:55:14.998Z</time></trkpt><trkpt lat="44.69200004630006" lon="9.465444443583182"><ele>1252.2</ele><time>2026-05-02T14:55:15.998Z</time></trkpt><trkpt lat="44.69207935389054" lon="9.465359027118138"><ele>1254.8</ele><time>2026-05-02T14:55:16.998Z</time></trkpt><trkpt lat="44.69215006072877" lon="9.4653196872783"><ele>1257.4</ele><time>2026-05-02T14:55:17.998Z</time></trkpt><trkpt lat="44.692239751196254" lon="9.465298555766072"><ele>1260.0</ele><time>2026-05-02T14:55:18.998Z</time></trkpt><trkpt lat="44.692316008546484" lon="9.465285033749684"><ele>1260.0</ele><time>2026-05-02T14:55:19.998Z</time></trkpt><trkpt lat="44.692420843792625" lon="9.46515396673576"><ele>1260.0</ele><time>2026-05-02T14:55:21.998Z</time></trkpt><trkpt lat="44.69248323649903" lon="9.465043706153407"><ele>1260.0</ele><time>2026-05-02T14:55:22.998Z</time></trkpt><trkpt lat="44.6925595158811" lon="9.46498512339581"><ele>1260.0</ele><time>2026-05-02T14:55:23.998Z</time></trkpt><trkpt lat="44.6926306677906" lon="9.464938411254426"><ele>1260.0</ele><time>2026-05-02T14:55:24.998Z</time></trkpt><trkpt lat="44.69269754628031" lon="9.464850446081698"><ele>1261.8333333333333</ele><time>2026-05-02T14:55:25.998Z</time></trkpt><trkpt lat="44.692763034308015" lon="9.464751121169458"><ele>1263.6666666666667</ele><time>2026-05-02T14:55:26.998Z</time></trkpt><trkpt lat="44.69281865947" lon="9.464673357974076"><ele>1265.5</ele><time>2026-05-02T14:55:27.998Z</time></trkpt><trkpt lat="44.69288490286152" lon="9.464622324890222"><ele>1267.3333333333335</ele><time>2026-05-02T14:55:28.998Z</time></trkpt><trkpt lat="44.69296551029584" lon="9.46456495875335"><ele>1269.1666666666667</ele><time>2026-05-02T14:55:29.998Z</time></trkpt><trkpt lat="44.693051363658014" lon="9.464505389146696"><ele>1271.0</ele><time>2026-05-02T14:55:30.998Z</time></trkpt><trkpt lat="44.69313961924551" lon="9.464427198414198"><ele>1271.0</ele><time>2026-05-02T14:55:31.998Z</time></trkpt><trkpt lat="44.69320621447951" lon="9.464366586947348"><ele>1271.0</ele><time>2026-05-02T14:55:32.998Z</time></trkpt><trkpt lat="44.6932843390002" lon="9.464378800146054"><ele>1271.0</ele><time>2026-05-02T14:55:34.998Z</time></trkpt><trkpt lat="44.693375066821964" lon="9.464483367172841"><ele>1271.0</ele><time>2026-05-02T14:55:36.998Z</time></trkpt><trkpt lat="44.69343160930025" lon="9.464538633103418"><ele>1271.0</ele><time>2026-05-02T14:55:37.998Z</time></trkpt><trkpt lat="44.693458704788" lon="9.464700315684953"><ele>1271.0</ele><time>2026-05-02T14:55:39.998Z</time></trkpt><trkpt lat="44.69344389105269" lon="9.464810862834275"><ele>1271.0</ele><time>2026-05-02T14:55:40.998Z</time></trkpt><trkpt lat="44.693404200028176" lon="9.464925745895515"><ele>1271.0</ele><time>2026-05-02T14:55:41.998Z</time></trkpt><trkpt lat="44.693368086562174" lon="9.465013537324063"><ele>1271.0</ele><time>2026-05-02T14:55:42.998Z</time></trkpt><trkpt lat="44.69335583665472" lon="9.465118434623026"><ele>1271.0</ele><time>2026-05-02T14:55:43.998Z</time></trkpt><trkpt lat="44.69335304082146" lon="9.465215969177592"><ele>1271.0</ele><time>2026-05-02T14:55:45Z</time></trkpt><trkpt lat="44.6933522912413" lon="9.465321843671525"><ele>1271.0</ele><time>2026-05-02T14:55:46Z</time></trkpt><trkpt lat="44.693340705779896" lon="9.465444732029155"><ele>1271.0</ele><time>2026-05-02T14:55:47Z</time></trkpt><trkpt lat="44.6933196205043" lon="9.465566402601093"><ele>1271.0</ele><time>2026-05-02T14:55:48Z</time></trkpt><trkpt lat="44.69329674585678" lon="9.465676701205457"><ele>1271.0</ele><time>2026-05-02T14:55:49Z</time></trkpt><trkpt lat="44.693278490599795" lon="9.465810393915929"><ele>1271.0</ele><time>2026-05-02T14:55:51Z</time></trkpt><trkpt lat="44.693284701248885" lon="9.465909373752302"><ele>1271.0</ele><time>2026-05-02T14:55:53Z</time></trkpt><trkpt lat="44.693258108007406" lon="9.46602320627841"><ele>1271.5</ele><time>2026-05-02T14:55:55Z</time></trkpt><trkpt lat="44.69319357779175" lon="9.466161423844165"><ele>1272.0</ele><time>2026-05-02T14:55:57Z</time></trkpt><trkpt lat="44.69315825040437" lon="9.466256504222372"><ele>1272.5</ele><time>2026-05-02T14:55:58Z</time></trkpt><trkpt lat="44.69312624246853" lon="9.46635718452227"><ele>1273.0</ele><time>2026-05-02T14:55:59Z</time></trkpt><trkpt lat="44.693095983655006" lon="9.466444431442325"><ele>1273.5</ele><time>2026-05-02T14:56:00Z</time></trkpt><trkpt lat="44.69305129745984" lon="9.466523578854297"><ele>1274.0</ele><time>2026-05-02T14:56:01Z</time></trkpt><trkpt lat="44.692985224369984" lon="9.466599977602213"><ele>1275.3333333333335</ele><time>2026-05-02T14:56:02Z</time></trkpt><trkpt lat="44.692926597183956" lon="9.466674429989013"><ele>1276.6666666666667</ele><time>2026-05-02T14:56:03Z</time></trkpt><trkpt lat="44.692874977320145" lon="9.466737508617506"><ele>1278.0</ele><time>2026-05-02T14:56:04Z</time></trkpt><trkpt lat="44.692785534470545" lon="9.46684693897372"><ele>1279.3333333333333</ele><time>2026-05-02T14:56:06Z</time></trkpt><trkpt lat="44.692743040296286" lon="9.466915019988841"><ele>1280.6666666666665</ele><time>2026-05-02T14:56:09Z</time></trkpt><trkpt lat="44.69270896643379" lon="9.466999110810676"><ele>1282.0</ele><time>2026-05-02T14:56:46.999Z</time></trkpt><trkpt lat="44.69265589580639" lon="9.467101858894711"><ele>1278.6</ele><time>2026-05-02T14:56:47.999Z</time></trkpt><trkpt lat="44.692606388167206" lon="9.467213848865779"><ele>1275.1999999999998</ele><time>2026-05-02T14:56:48.999Z</time></trkpt><trkpt lat="44.69257790319837" lon="9.467303281189352"><ele>1271.8</ele><time>2026-05-02T14:56:49.999Z</time></trkpt><trkpt lat="44.69258418651275" lon="9.46748132184838"><ele>1268.4</ele><time>2026-05-02T14:56:51.999Z</time></trkpt><trkpt lat="44.69266456271683" lon="9.467609755361968"><ele>1265.0</ele><time>2026-05-02T14:56:53.999Z</time></trkpt><trkpt lat="44.69273608627035" lon="9.46767850877278"><ele>1267.6</ele><time>2026-05-02T14:56:54.999Z</time></trkpt><trkpt lat="44.69281085730261" lon="9.467769759881254"><ele>1270.2</ele><time>2026-05-02T14:56:55.999Z</time></trkpt><trkpt lat="44.69285698724294" lon="9.467879613869123"><ele>1272.8</ele><time>2026-05-02T14:56:56.999Z</time></trkpt><trkpt lat="44.69288977437106" lon="9.46801030669127"><ele>1275.4</ele><time>2026-05-02T14:56:57.999Z</time></trkpt><trkpt lat="44.692911155915496" lon="9.468133086890274"><ele>1278.0</ele><time>2026-05-02T14:56:58.999Z</time></trkpt><trkpt lat="44.69294960300576" lon="9.46821946912529"><ele>1278.0</ele><time>2026-05-02T14:56:59.999Z</time></trkpt><trkpt lat="44.69301491436671" lon="9.468289824659703"><ele>1278.0</ele><time>2026-05-02T14:57:00.999Z</time></trkpt><trkpt lat="44.6931040563418" lon="9.468354429096513"><ele>1278.0</ele><time>2026-05-02T14:57:01.999Z</time></trkpt><trkpt lat="44.693215815007335" lon="9.468433956701498"><ele>1278.0</ele><time>2026-05-02T14:57:02.999Z</time></trkpt><trkpt lat="44.69331128461386" lon="9.468524937959454"><ele>1278.0</ele><time>2026-05-02T14:57:03.999Z</time></trkpt><trkpt lat="44.693377846941196" lon="9.46862506201471"><ele>1278.0</ele><time>2026-05-02T14:57:04.999Z</time></trkpt><trkpt lat="44.69342100279488" lon="9.468727507925571"><ele>1278.0</ele><time>2026-05-02T14:57:05.999Z</time></trkpt><trkpt lat="44.693442276285424" lon="9.46881764280183"><ele>1278.0</ele><time>2026-05-02T14:57:06.999Z</time></trkpt><trkpt lat="44.693378082998706" lon="9.468946473872695"><ele>1278.0</ele><time>2026-05-02T14:57:08.999Z</time></trkpt><trkpt lat="44.69330329115056" lon="9.468955790887755"><ele>1278.0</ele><time>2026-05-02T14:57:09.999Z</time></trkpt><trkpt lat="44.69319644141662" lon="9.46895691920652"><ele>1278.0</ele><time>2026-05-02T14:57:10.999Z</time></trkpt><trkpt lat="44.69309748516425" lon="9.46898306484297"><ele>1278.5</ele><time>2026-05-02T14:57:11.999Z</time></trkpt><trkpt lat="44.69299613423279" lon="9.469014867186615"><ele>1279.0</ele><time>2026-05-02T14:57:12.999Z</time></trkpt><trkpt lat="44.692902919505386" lon="9.469037364183796"><ele>1279.5</ele><time>2026-05-02T14:57:13.999Z</time></trkpt><trkpt lat="44.69284089642388" lon="9.469072917483134"><ele>1280.0</ele><time>2026-05-02T14:57:14.999Z</time></trkpt><trkpt lat="44.69281269927885" lon="9.469160556999842"><ele>1280.5</ele><time>2026-05-02T14:57:15.999Z</time></trkpt><trkpt lat="44.69278499357948" lon="9.469281408293087"><ele>1281.0</ele><time>2026-05-02T14:57:16.999Z</time></trkpt><trkpt lat="44.69275843747003" lon="9.469415608498736"><ele>1281.1666666666667</ele><time>2026-05-02T14:57:17.999Z</time></trkpt><trkpt lat="44.69275022781647" lon="9.46953231879722"><ele>1281.3333333333333</ele><time>2026-05-02T14:57:18.999Z</time></trkpt><trkpt lat="44.69275944235756" lon="9.469650160664074"><ele>1281.5</ele><time>2026-05-02T14:57:19.998Z</time></trkpt><trkpt lat="44.69277009123202" lon="9.469782801752293"><ele>1281.6666666666665</ele><time>2026-05-02T14:57:20.998Z</time></trkpt><trkpt lat="44.6927451033107" lon="9.469915003344664"><ele>1281.8333333333333</ele><time>2026-05-02T14:57:21.998Z</time></trkpt><trkpt lat="44.69269681909781" lon="9.470017183520948"><ele>1282.0</ele><time>2026-05-02T14:57:22.998Z</time></trkpt><trkpt lat="44.69265014896406" lon="9.470105382962284"><ele>1282.0</ele><time>2026-05-02T14:57:23.998Z</time></trkpt><trkpt lat="44.692583098027924" lon="9.470208113798511"><ele>1282.0</ele><time>2026-05-02T14:57:24.998Z</time></trkpt><trkpt lat="44.69251370277048" lon="9.470290095100042"><ele>1282.0</ele><time>2026-05-02T14:57:25.998Z</time></trkpt><trkpt lat="44.69243837303033" lon="9.47037927819701"><ele>1282.0</ele><time>2026-05-02T14:57:26.998Z</time></trkpt><trkpt lat="44.692353123338" lon="9.47045636026591"><ele>1282.0</ele><time>2026-05-02T14:57:27.998Z</time></trkpt><trkpt lat="44.692281816278744" lon="9.470537384202162"><ele>1281.8</ele><time>2026-05-02T14:57:28.998Z</time></trkpt><trkpt lat="44.69219933043464" lon="9.470604230352937"><ele>1281.6</ele><time>2026-05-02T14:57:29.998Z</time></trkpt><trkpt lat="44.692106699477385" lon="9.470651011977209"><ele>1281.3999999999999</ele><time>2026-05-02T14:57:30.998Z</time></trkpt><trkpt lat="44.69202644081084" lon="9.47069991165787"><ele>1281.1999999999998</ele><time>2026-05-02T14:57:31.998Z</time></trkpt><trkpt lat="44.69194474132448" lon="9.470774696890953"><ele>1281.0</ele><time>2026-05-02T14:57:32.998Z</time></trkpt><trkpt lat="44.69186333179175" lon="9.470862279643967"><ele>1281.0</ele><time>2026-05-02T14:57:33.998Z</time></trkpt><trkpt lat="44.69177921387083" lon="9.470932273203838"><ele>1281.0</ele><time>2026-05-02T14:57:34.998Z</time></trkpt><trkpt lat="44.69170338503932" lon="9.470991503160517"><ele>1281.0</ele><time>2026-05-02T14:57:35.998Z</time></trkpt><trkpt lat="44.691640775922565" lon="9.471050942248914"><ele>1281.0</ele><time>2026-05-02T14:57:36.998Z</time></trkpt><trkpt lat="44.69157769672445" lon="9.471176196168814"><ele>1281.0</ele><time>2026-05-02T14:57:38.998Z</time></trkpt><trkpt lat="44.691606911164406" lon="9.471277117618685"><ele>1281.0</ele><time>2026-05-02T14:57:40.998Z</time></trkpt><trkpt lat="44.69172956648309" lon="9.47133470168026"><ele>1281.6</ele><time>2026-05-02T14:57:42.998Z</time></trkpt><trkpt lat="44.691815879746116" lon="9.471384861781686"><ele>1282.1999999999998</ele><time>2026-05-02T14:57:43.998Z</time></trkpt><trkpt lat="44.69189120608644" lon="9.47147430065048"><ele>1282.8000000000002</ele><time>2026-05-02T14:57:44.998Z</time></trkpt><trkpt lat="44.691963207270845" lon="9.471594640484955"><ele>1283.4</ele><time>2026-05-02T14:57:45.998Z</time></trkpt><trkpt lat="44.69205404089486" lon="9.471713785825246"><ele>1284.0</ele><time>2026-05-02T14:57:46.998Z</time></trkpt><trkpt lat="44.69212620553912" lon="9.471819690499586"><ele>1285.8000000000002</ele><time>2026-05-02T14:57:47.998Z</time></trkpt><trkpt lat="44.69217383490526" lon="9.47195055953765"><ele>1287.6000000000001</ele><time>2026-05-02T14:57:48.998Z</time></trkpt><trkpt lat="44.69223380837537" lon="9.4720964979696"><ele>1289.4</ele><time>2026-05-02T14:57:49.998Z</time></trkpt><trkpt lat="44.69229353671507" lon="9.472212339738753"><ele>1291.2</ele><time>2026-05-02T14:57:51Z</time></trkpt><trkpt lat="44.69233820020951" lon="9.472314999990113"><ele>1293.0</ele><time>2026-05-02T14:57:52Z</time></trkpt><trkpt lat="44.692368542902194" lon="9.472429124523103"><ele>1293.0</ele><time>2026-05-02T14:57:53Z</time></trkpt><trkpt lat="44.69239763557226" lon="9.47252170494752"><ele>1293.0</ele><time>2026-05-02T14:57:54Z</time></trkpt><trkpt lat="44.692441317297515" lon="9.472647353234303"><ele>1293.0</ele><time>2026-05-02T14:57:56Z</time></trkpt><trkpt lat="44.69245484446471" lon="9.4727492984606"><ele>1293.0</ele><time>2026-05-02T14:57:58Z</time></trkpt><trkpt lat="44.69251226436235" lon="9.472866638809354"><ele>1293.0</ele><time>2026-05-02T14:58:01Z</time></trkpt><trkpt lat="44.692576305628705" lon="9.47290968104625"><ele>1293.0</ele><time>2026-05-02T14:58:02Z</time></trkpt><trkpt lat="44.69264964831623" lon="9.472953101499114"><ele>1293.2</ele><time>2026-05-02T14:58:03Z</time></trkpt><trkpt lat="44.69273764433338" lon="9.473041672482927"><ele>1293.4</ele><time>2026-05-02T14:58:05Z</time></trkpt><trkpt lat="44.692814815236694" lon="9.473158192390969"><ele>1293.6000000000001</ele><time>2026-05-02T14:58:07Z</time></trkpt><trkpt lat="44.69289984624068" lon="9.473234791133619"><ele>1293.8000000000002</ele><time>2026-05-02T14:58:09Z</time></trkpt><trkpt lat="44.69295394258194" lon="9.473359822790318"><ele>1294.0</ele><time>2026-05-02T14:58:11Z</time></trkpt><trkpt lat="44.692969808890126" lon="9.473490196149442"><ele>1297.2</ele><time>2026-05-02T14:58:13Z</time></trkpt><trkpt lat="44.6929830285898" lon="9.473621353537709"><ele>1300.4</ele><time>2026-05-02T14:58:15Z</time></trkpt><trkpt lat="44.693006490944406" lon="9.473734364802832"><ele>1303.6</ele><time>2026-05-02T14:58:17Z</time></trkpt><trkpt lat="44.69304200728901" lon="9.47387207739068"><ele>1306.8</ele><time>2026-05-02T14:58:19Z</time></trkpt><trkpt lat="44.6931433604626" lon="9.473975900107105"><ele>1310.0</ele><time>2026-05-02T14:58:21Z</time></trkpt><trkpt lat="44.69319470379546" lon="9.474032631448235"><ele>1310.0</ele><time>2026-05-02T14:58:22Z</time></trkpt><trkpt lat="44.69325818241908" lon="9.474122864106125"><ele>1310.0</ele><time>2026-05-02T14:58:24Z</time></trkpt><trkpt lat="44.693305912198475" lon="9.474185055395049"><ele>1310.0</ele><time>2026-05-02T14:58:26Z</time></trkpt><trkpt lat="44.69335013331792" lon="9.474248743375258"><ele>1310.0</ele><time>2026-05-02T14:58:29Z</time></trkpt><trkpt lat="44.69345498013622" lon="9.474378989813788"><ele>1310.0</ele><time>2026-05-02T14:59:28.998Z</time></trkpt><trkpt lat="44.69351407913487" lon="9.47443916703563"><ele>1310.0</ele><time>2026-05-02T14:59:29.998Z</time></trkpt><trkpt lat="44.69359162730699" lon="9.474502728678175"><ele>1308.6</ele><time>2026-05-02T14:59:30.998Z</time></trkpt><trkpt lat="44.69365431412943" lon="9.47455500274259"><ele>1307.2</ele><time>2026-05-02T14:59:31.998Z</time></trkpt><trkpt lat="44.693793830429044" lon="9.474600943589591"><ele>1305.8000000000002</ele><time>2026-05-02T14:59:33.998Z</time></trkpt><trkpt lat="44.69388379639525" lon="9.474615725527759"><ele>1304.4</ele><time>2026-05-02T14:59:34.998Z</time></trkpt><trkpt lat="44.69396738807297" lon="9.474617957270647"><ele>1303.0</ele><time>2026-05-02T14:59:35.998Z</time></trkpt><trkpt lat="44.6940348308122" lon="9.474656286456957"><ele>1303.0</ele><time>2026-05-02T14:59:36.998Z</time></trkpt><trkpt lat="44.69413685584691" lon="9.474766252067887"><ele>1303.0</ele><time>2026-05-02T14:59:38.998Z</time></trkpt><trkpt lat="44.69420734274411" lon="9.474820353282135"><ele>1303.0</ele><time>2026-05-02T14:59:39.998Z</time></trkpt><trkpt lat="44.69428481449892" lon="9.474855388988873"><ele>1303.0</ele><time>2026-05-02T14:59:40.998Z</time></trkpt><trkpt lat="44.69436173016068" lon="9.474893423520458"><ele>1303.0</ele><time>2026-05-02T14:59:41.998Z</time></trkpt><trkpt lat="44.69444091379568" lon="9.474932858306312"><ele>1303.0</ele><time>2026-05-02T14:59:42.998Z</time></trkpt><trkpt lat="44.694511246391045" lon="9.474973480445854"><ele>1303.0</ele><time>2026-05-02T14:59:43.998Z</time></trkpt><trkpt lat="44.694583000693484" lon="9.475025806010713"><ele>1303.0</ele><time>2026-05-02T14:59:44.998Z</time></trkpt><trkpt lat="44.69465801240483" lon="9.475101208924187"><ele>1303.0</ele><time>2026-05-02T14:59:45.998Z</time></trkpt><trkpt lat="44.69474059350195" lon="9.475167140502007"><ele>1303.0</ele><time>2026-05-02T14:59:46.998Z</time></trkpt><trkpt lat="44.694848316518275" lon="9.475215763948949"><ele>1303.0</ele><time>2026-05-02T14:59:47.998Z</time></trkpt><trkpt lat="44.69495890772451" lon="9.47526655414358"><ele>1303.0</ele><time>2026-05-02T14:59:48.998Z</time></trkpt><trkpt lat="44.695062121783835" lon="9.47532969064539"><ele>1303.0</ele><time>2026-05-02T14:59:49.998Z</time></trkpt><trkpt lat="44.695167947021396" lon="9.47539836224483"><ele>1303.0</ele><time>2026-05-02T14:59:50.998Z</time></trkpt><trkpt lat="44.69526786129112" lon="9.475451857935061"><ele>1302.4</ele><time>2026-05-02T14:59:51.998Z</time></trkpt><trkpt lat="44.69535738268897" lon="9.475504510364845"><ele>1301.8000000000002</ele><time>2026-05-02T14:59:52.998Z</time></trkpt><trkpt lat="44.69543031433375" lon="9.475587680068935"><ele>1301.2</ele><time>2026-05-02T14:59:53.998Z</time></trkpt><trkpt lat="44.695502674411394" lon="9.475677841913123"><ele>1300.6</ele><time>2026-05-02T14:59:54.998Z</time></trkpt><trkpt lat="44.695573156957884" lon="9.475779137571644"><ele>1300.0</ele><time>2026-05-02T14:59:55.998Z</time></trkpt><trkpt lat="44.69564483234874" lon="9.475892178325479"><ele>1300.0</ele><time>2026-05-02T14:59:57Z</time></trkpt><trkpt lat="44.69573145013648" lon="9.476012058958489"><ele>1300.0</ele><time>2026-05-02T14:59:58Z</time></trkpt><trkpt lat="44.69582405251239" lon="9.476145121129427"><ele>1300.0</ele><time>2026-05-02T14:59:59Z</time></trkpt><trkpt lat="44.69590978460692" lon="9.47625133819896"><ele>1300.0</ele><time>2026-05-02T15:00:00Z</time></trkpt><trkpt lat="44.69599715255889" lon="9.476340428674687"><ele>1300.0</ele><time>2026-05-02T15:00:01Z</time></trkpt><trkpt lat="44.69608151423343" lon="9.476421731015275"><ele>1300.0</ele><time>2026-05-02T15:00:02Z</time></trkpt><trkpt lat="44.69616114808953" lon="9.476493396361747"><ele>1300.0</ele><time>2026-05-02T15:00:03Z</time></trkpt><trkpt lat="44.69624455437689" lon="9.476566929580867"><ele>1300.0</ele><time>2026-05-02T15:00:04Z</time></trkpt><trkpt lat="44.69632093092997" lon="9.47665335450524"><ele>1300.0</ele><time>2026-05-02T15:00:05Z</time></trkpt><trkpt lat="44.69638131433504" lon="9.47674495950411"><ele>1300.0</ele><time>2026-05-02T15:00:06Z</time></trkpt><trkpt lat="44.69641256418974" lon="9.476855521434212"><ele>1300.0</ele><time>2026-05-02T15:00:07Z</time></trkpt><trkpt lat="44.696439225484504" lon="9.476952716997047"><ele>1300.0</ele><time>2026-05-02T15:00:08Z</time></trkpt><trkpt lat="44.69649205257318" lon="9.47703198595998"><ele>1300.0</ele><time>2026-05-02T15:00:09Z</time></trkpt><trkpt lat="44.69655368335247" lon="9.47709647849295"><ele>1300.0</ele><time>2026-05-02T15:00:10Z</time></trkpt><trkpt lat="44.69662362436416" lon="9.47714780455328"><ele>1300.0</ele><time>2026-05-02T15:00:11Z</time></trkpt><trkpt lat="44.696699901257794" lon="9.477191552003523"><ele>1298.2</ele><time>2026-05-02T15:00:12Z</time></trkpt><trkpt lat="44.69676899334872" lon="9.477234854497087"><ele>1296.4</ele><time>2026-05-02T15:00:13Z</time></trkpt><trkpt lat="44.696826224186374" lon="9.477285160910228"><ele>1294.6</ele><time>2026-05-02T15:00:14Z</time></trkpt><trkpt lat="44.69693489981842" lon="9.477375927079754"><ele>1292.8</ele><time>2026-05-02T15:00:16Z</time></trkpt><trkpt lat="44.69704831157231" lon="9.47745140974849"><ele>1291.0</ele><time>2026-05-02T15:00:18Z</time></trkpt><trkpt lat="44.69710903326252" lon="9.477490344802373"><ele>1291.0</ele><time>2026-05-02T15:00:19Z</time></trkpt><trkpt lat="44.69717646487373" lon="9.477533510439438"><ele>1291.0</ele><time>2026-05-02T15:00:20Z</time></trkpt><trkpt lat="44.69723428882941" lon="9.477577176518642"><ele>1291.0</ele><time>2026-05-02T15:00:21Z</time></trkpt><trkpt lat="44.69732923425417" lon="9.477646235990926"><ele>1291.0</ele><time>2026-05-02T15:00:23Z</time></trkpt><trkpt lat="44.69740680971307" lon="9.477706318507174"><ele>1291.0</ele><time>2026-05-02T15:00:26Z</time></trkpt><trkpt lat="44.69747963576766" lon="9.477757792833627"><ele>1291.0</ele><time>2026-05-02T15:00:28Z</time></trkpt><trkpt lat="44.69759104020194" lon="9.477778240485451"><ele>1291.0</ele><time>2026-05-02T15:00:30Z</time></trkpt><trkpt lat="44.69766139788035" lon="9.477771498187359"><ele>1291.0</ele><time>2026-05-02T15:00:31Z</time></trkpt><trkpt lat="44.69773173242687" lon="9.477770625706109"><ele>1291.0</ele><time>2026-05-02T15:00:32Z</time></trkpt><trkpt lat="44.697798976023314" lon="9.477785934042647"><ele>1291.0</ele><time>2026-05-02T15:00:33Z</time></trkpt><trkpt lat="44.6979149435791" lon="9.477787690298632"><ele>1291.0</ele><time>2026-05-02T15:00:35Z</time></trkpt><trkpt lat="44.69799134446018" lon="9.477781821517995"><ele>1291.0</ele><time>2026-05-02T15:00:36Z</time></trkpt><trkpt lat="44.69807683810946" lon="9.4777865704445"><ele>1290.8</ele><time>2026-05-02T15:00:37Z</time></trkpt><trkpt lat="44.69817342883088" lon="9.477772905803835"><ele>1290.6</ele><time>2026-05-02T15:00:38Z</time></trkpt><trkpt lat="44.69826636416768" lon="9.47772150658079"><ele>1290.4</ele><time>2026-05-02T15:00:38.999Z</time></trkpt><trkpt lat="44.69836610277311" lon="9.477643061354604"><ele>1290.2</ele><time>2026-05-02T15:00:39.999Z</time></trkpt><trkpt lat="44.69846109635647" lon="9.477565567946424"><ele>1290.0</ele><time>2026-05-02T15:00:40.999Z</time></trkpt><trkpt lat="44.69854876002953" lon="9.477497892330085"><ele>1289.5</ele><time>2026-05-02T15:00:41.999Z</time></trkpt><trkpt lat="44.6986334236548" lon="9.477437930809918"><ele>1289.0</ele><time>2026-05-02T15:00:42.999Z</time></trkpt><trkpt lat="44.69872167180266" lon="9.477378057602353"><ele>1288.5</ele><time>2026-05-02T15:00:43.999Z</time></trkpt><trkpt lat="44.698799316338494" lon="9.477313862820676"><ele>1288.0</ele><time>2026-05-02T15:00:44.999Z</time></trkpt><trkpt lat="44.69886415305823" lon="9.477242853648802"><ele>1287.5</ele><time>2026-05-02T15:00:45.999Z</time></trkpt><trkpt lat="44.698921978869485" lon="9.477165705725291"><ele>1287.0</ele><time>2026-05-02T15:00:46.999Z</time></trkpt><trkpt lat="44.698977349986464" lon="9.477116072541387"><ele>1287.0</ele><time>2026-05-02T15:00:47.999Z</time></trkpt><trkpt lat="44.69904028708467" lon="9.477128008997513"><ele>1287.0</ele><time>2026-05-02T15:00:48.999Z</time></trkpt><trkpt lat="44.69909109438192" lon="9.477200797418599"><ele>1287.0</ele><time>2026-05-02T15:00:49.999Z</time></trkpt><trkpt lat="44.69912029813683" lon="9.477293416801691"><ele>1287.0</ele><time>2026-05-02T15:00:50.999Z</time></trkpt><trkpt lat="44.699144630751704" lon="9.477408069921074"><ele>1287.0</ele><time>2026-05-02T15:00:51.999Z</time></trkpt><trkpt lat="44.69917330608815" lon="9.477505363056185"><ele>1287.0</ele><time>2026-05-02T15:00:52.999Z</time></trkpt><trkpt lat="44.69921111418209" lon="9.47760851957599"><ele>1287.0</ele><time>2026-05-02T15:00:53.999Z</time></trkpt><trkpt lat="44.69926608763001" lon="9.477686328378306"><ele>1287.0</ele><time>2026-05-02T15:00:54.999Z</time></trkpt><trkpt lat="44.69933162384201" lon="9.477765058760847"><ele>1287.0</ele><time>2026-05-02T15:00:55.999Z</time></trkpt><trkpt lat="44.699380992684226" lon="9.477869917775958"><ele>1287.0</ele><time>2026-05-02T15:00:56.999Z</time></trkpt><trkpt lat="44.69942077549337" lon="9.477983629271586"><ele>1287.0</ele><time>2026-05-02T15:00:57.999Z</time></trkpt><trkpt lat="44.699466581078575" lon="9.478112223911683"><ele>1287.0</ele><time>2026-05-02T15:00:58.999Z</time></trkpt><trkpt lat="44.69951924745913" lon="9.478233737670454"><ele>1286.1666666666667</ele><time>2026-05-02T15:00:59.999Z</time></trkpt><trkpt lat="44.69956861147395" lon="9.478344028876311"><ele>1285.3333333333333</ele><time>2026-05-02T15:01:00.999Z</time></trkpt><trkpt lat="44.69959939182199" lon="9.478447227984114"><ele>1284.5</ele><time>2026-05-02T15:01:01.999Z</time></trkpt><trkpt lat="44.69962424550574" lon="9.478536272678957"><ele>1283.6666666666665</ele><time>2026-05-02T15:01:02.999Z</time></trkpt><trkpt lat="44.69967671545411" lon="9.478596553836125"><ele>1282.8333333333333</ele><time>2026-05-02T15:01:03.999Z</time></trkpt><trkpt lat="44.69976305922546" lon="9.478654790826914"><ele>1282.0</ele><time>2026-05-02T15:01:04.999Z</time></trkpt><trkpt lat="44.699843504709676" lon="9.47871891177292"><ele>1282.0</ele><time>2026-05-02T15:01:05.999Z</time></trkpt><trkpt lat="44.69995821294548" lon="9.478765833205111"><ele>1282.0</ele><time>2026-05-02T15:01:06.999Z</time></trkpt><trkpt lat="44.70008456263651" lon="9.478824425722403"><ele>1282.0</ele><time>2026-05-02T15:01:07.999Z</time></trkpt><trkpt lat="44.70020766398132" lon="9.478919668193836"><ele>1282.0</ele><time>2026-05-02T15:01:08.999Z</time></trkpt><trkpt lat="44.700310233453955" lon="9.47901373840203"><ele>1281.8</ele><time>2026-05-02T15:01:09.999Z</time></trkpt><trkpt lat="44.700398330443136" lon="9.479100194586293"><ele>1281.6</ele><time>2026-05-02T15:01:10.999Z</time></trkpt><trkpt lat="44.700476805365184" lon="9.4791825896754"><ele>1281.3999999999999</ele><time>2026-05-02T15:01:11.999Z</time></trkpt><trkpt lat="44.70056817965119" lon="9.479283584937564"><ele>1281.1999999999998</ele><time>2026-05-02T15:01:12.999Z</time></trkpt><trkpt lat="44.70064982806251" lon="9.479364698210572"><ele>1281.0</ele><time>2026-05-02T15:01:13.999Z</time></trkpt><trkpt lat="44.70071005615533" lon="9.47946054472125"><ele>1281.0</ele><time>2026-05-02T15:01:14.999Z</time></trkpt><trkpt lat="44.70076023367096" lon="9.479566500538152"><ele>1281.0</ele><time>2026-05-02T15:01:15.999Z</time></trkpt><trkpt lat="44.700816099879304" lon="9.479665022614952"><ele>1281.0</ele><time>2026-05-02T15:01:16.999Z</time></trkpt><trkpt lat="44.70086376396566" lon="9.479762090665755"><ele>1281.0</ele><time>2026-05-02T15:01:17.999Z</time></trkpt><trkpt lat="44.70090449024435" lon="9.479850869587763"><ele>1281.0</ele><time>2026-05-02T15:01:18.999Z</time></trkpt><trkpt lat="44.700943413934624" lon="9.479932368585317"><ele>1281.0</ele><time>2026-05-02T15:01:19.999Z</time></trkpt><trkpt lat="44.70098599081206" lon="9.480015082285323"><ele>1278.6</ele><time>2026-05-02T15:01:20.999Z</time></trkpt><trkpt lat="44.7010889068179" lon="9.4801006206993"><ele>1276.1999999999998</ele><time>2026-05-02T15:01:22.999Z</time></trkpt><trkpt lat="44.70116109600767" lon="9.480117249028355"><ele>1273.8000000000002</ele><time>2026-05-02T15:01:23.999Z</time></trkpt><trkpt lat="44.70125381678927" lon="9.480136175192087"><ele>1271.4</ele><time>2026-05-02T15:01:24.999Z</time></trkpt><trkpt lat="44.70134961303065" lon="9.480136561412"><ele>1269.0</ele><time>2026-05-02T15:01:25.999Z</time></trkpt><trkpt lat="44.70144217662321" lon="9.48014812646378"><ele>1269.0</ele><time>2026-05-02T15:01:26.999Z</time></trkpt><trkpt lat="44.70152664123967" lon="9.4801777337757"><ele>1269.0</ele><time>2026-05-02T15:01:27.999Z</time></trkpt><trkpt lat="44.701608340527855" lon="9.480213491361962"><ele>1269.0</ele><time>2026-05-02T15:01:28.999Z</time></trkpt><trkpt lat="44.70168105409819" lon="9.48024877372295"><ele>1269.0</ele><time>2026-05-02T15:01:29.999Z</time></trkpt><trkpt lat="44.70175089813825" lon="9.480296193915034"><ele>1269.0</ele><time>2026-05-02T15:01:30.998Z</time></trkpt><trkpt lat="44.701822868832465" lon="9.480357816917408"><ele>1269.0</ele><time>2026-05-02T15:01:31.998Z</time></trkpt><trkpt lat="44.70190214589961" lon="9.480428184987812"><ele>1266.0</ele><time>2026-05-02T15:01:32.998Z</time></trkpt><trkpt lat="44.701990302013385" lon="9.480481866508189"><ele>1263.0</ele><time>2026-05-02T15:01:33.998Z</time></trkpt><trkpt lat="44.70207606481247" lon="9.480512999611086"><ele>1260.0</ele><time>2026-05-02T15:01:34.998Z</time></trkpt><trkpt lat="44.70215590162943" lon="9.480551931631844"><ele>1257.0</ele><time>2026-05-02T15:01:35.998Z</time></trkpt><trkpt lat="44.702236377387514" lon="9.480593247878858"><ele>1254.0</ele><time>2026-05-02T15:01:36.998Z</time></trkpt><trkpt lat="44.70231377170595" lon="9.480645508690703"><ele>1251.0</ele><time>2026-05-02T15:01:37.998Z</time></trkpt><trkpt lat="44.70238695420584" lon="9.480718053514039"><ele>1251.0</ele><time>2026-05-02T15:01:38.998Z</time></trkpt><trkpt lat="44.70245946305429" lon="9.480799342886504"><ele>1251.0</ele><time>2026-05-02T15:01:39.998Z</time></trkpt><trkpt lat="44.702523826534545" lon="9.48086847788607"><ele>1251.0</ele><time>2026-05-02T15:01:40.998Z</time></trkpt><trkpt lat="44.70258234549175" lon="9.48092391437862"><ele>1251.0</ele><time>2026-05-02T15:01:41.998Z</time></trkpt><trkpt lat="44.702620457310104" lon="9.481008030172875"><ele>1251.0</ele><time>2026-05-02T15:01:42.998Z</time></trkpt><trkpt lat="44.70265660234035" lon="9.481084968641685"><ele>1251.0</ele><time>2026-05-02T15:01:43.998Z</time></trkpt><trkpt lat="44.70270731583912" lon="9.481168551170079"><ele>1250.0</ele><time>2026-05-02T15:01:44.998Z</time></trkpt><trkpt lat="44.70284995313827" lon="9.48121204757939"><ele>1249.0</ele><time>2026-05-02T15:01:46.998Z</time></trkpt><trkpt lat="44.702968344457744" lon="9.48121632300062"><ele>1248.0</ele><time>2026-05-02T15:01:47.998Z</time></trkpt><trkpt lat="44.70307265259814" lon="9.481232916478431"><ele>1247.0</ele><time>2026-05-02T15:01:48.998Z</time></trkpt><trkpt lat="44.70316558339996" lon="9.481265080228779"><ele>1244.1666666666667</ele><time>2026-05-02T15:01:49.998Z</time></trkpt><trkpt lat="44.703254014678464" lon="9.48129368112141"><ele>1241.3333333333335</ele><time>2026-05-02T15:01:50.998Z</time></trkpt><trkpt lat="44.703335634449545" lon="9.481346215847337"><ele>1238.5</ele><time>2026-05-02T15:01:51.998Z</time></trkpt><trkpt lat="44.70342079989475" lon="9.48138918204575"><ele>1235.6666666666667</ele><time>2026-05-02T15:01:52.998Z</time></trkpt><trkpt lat="44.70350691807438" lon="9.48141076413546"><ele>1232.8333333333333</ele><time>2026-05-02T15:01:53.998Z</time></trkpt><trkpt lat="44.7035856034798" lon="9.48142993866097"><ele>1230.0</ele><time>2026-05-02T15:01:54.998Z</time></trkpt><trkpt lat="44.703662053377904" lon="9.481458570525685"><ele>1228.2</ele><time>2026-05-02T15:01:55.998Z</time></trkpt><trkpt lat="44.70373918662713" lon="9.481477434896805"><ele>1226.4</ele><time>2026-05-02T15:01:56.998Z</time></trkpt><trkpt lat="44.703817929702616" lon="9.481495690487966"><ele>1224.6</ele><time>2026-05-02T15:01:57.998Z</time></trkpt><trkpt lat="44.70390204872419" lon="9.481482336912345"><ele>1222.8</ele><time>2026-05-02T15:01:58.998Z</time></trkpt><trkpt lat="44.70400750040553" lon="9.481473789551723"><ele>1221.0</ele><time>2026-05-02T15:01:59.998Z</time></trkpt><trkpt lat="44.70412009578921" lon="9.481466221617245"><ele>1221.0</ele><time>2026-05-02T15:02:00.998Z</time></trkpt><trkpt lat="44.70422354058359" lon="9.481467702680185"><ele>1221.0</ele><time>2026-05-02T15:02:01.998Z</time></trkpt><trkpt lat="44.704320581235486" lon="9.48145137016877"><ele>1221.0</ele><time>2026-05-02T15:02:03Z</time></trkpt><trkpt lat="44.704411902752796" lon="9.481465300510774"><ele>1221.0</ele><time>2026-05-02T15:02:04Z</time></trkpt><trkpt lat="44.704505768781914" lon="9.481493237512256"><ele>1221.0</ele><time>2026-05-02T15:02:05Z</time></trkpt><trkpt lat="44.70459452294263" lon="9.481506649021709"><ele>1219.3999999999999</ele><time>2026-05-02T15:02:06Z</time></trkpt><trkpt lat="44.70467763775548" lon="9.481503378385815"><ele>1217.8</ele><time>2026-05-02T15:02:07Z</time></trkpt><trkpt lat="44.70476660887779" lon="9.481466496938367"><ele>1216.1999999999998</ele><time>2026-05-02T15:02:08Z</time></trkpt><trkpt lat="44.70486262667021" lon="9.481415240954208"><ele>1214.6</ele><time>2026-05-02T15:02:09Z</time></trkpt><trkpt lat="44.70496402966555" lon="9.481352018927474"><ele>1213.0</ele><time>2026-05-02T15:02:10Z</time></trkpt><trkpt lat="44.70506132937173" lon="9.481298558457654"><ele>1213.0</ele><time>2026-05-02T15:02:11Z</time></trkpt><trkpt lat="44.70515069214477" lon="9.481273120436226"><ele>1213.0</ele><time>2026-05-02T15:02:12Z</time></trkpt><trkpt lat="44.705230777645035" lon="9.48127136370235"><ele>1213.0</ele><time>2026-05-02T15:02:13Z</time></trkpt><trkpt lat="44.70531411122017" lon="9.481303146657462"><ele>1213.0</ele><time>2026-05-02T15:02:14Z</time></trkpt><trkpt lat="44.70538901202257" lon="9.481342122988258"><ele>1213.0</ele><time>2026-05-02T15:02:15Z</time></trkpt><trkpt lat="44.70546353122894" lon="9.481397776666274"><ele>1213.0</ele><time>2026-05-02T15:02:16Z</time></trkpt><trkpt lat="44.705545609170066" lon="9.481445373914914"><ele>1211.1666666666665</ele><time>2026-05-02T15:02:17Z</time></trkpt><trkpt lat="44.70563096115659" lon="9.481469748286914"><ele>1209.3333333333333</ele><time>2026-05-02T15:02:18Z</time></trkpt><trkpt lat="44.70571720746236" lon="9.481473195692615"><ele>1207.5</ele><time>2026-05-02T15:02:19Z</time></trkpt><trkpt lat="44.70578584226408" lon="9.48149929315898"><ele>1205.6666666666667</ele><time>2026-05-02T15:02:20Z</time></trkpt><trkpt lat="44.70585890680811" lon="9.481522411938492"><ele>1203.8333333333335</ele><time>2026-05-02T15:02:27Z</time></trkpt><trkpt lat="44.70585538890412" lon="9.481612492938039"><ele>1202.0</ele><time>2026-05-02T15:02:30Z</time></trkpt><trkpt lat="44.705804993771785" lon="9.481699506115614"><ele>1202.0</ele><time>2026-05-02T15:02:33Z</time></trkpt><trkpt lat="44.70575405872222" lon="9.481789184567248"><ele>1202.0</ele><time>2026-05-02T15:03:03.999Z</time></trkpt><trkpt lat="44.705671117873266" lon="9.48184833781039"><ele>1202.0</ele><time>2026-05-02T15:04:46Z</time></trkpt><trkpt lat="44.705603000290814" lon="9.481912153095042"><ele>1202.0</ele><time>2026-05-02T15:04:46.999Z</time></trkpt><trkpt lat="44.705535139770014" lon="9.48201131384505"><ele>1202.0</ele><time>2026-05-02T15:04:47.999Z</time></trkpt><trkpt lat="44.70545708674598" lon="9.482155571425906"><ele>1200.75</ele><time>2026-05-02T15:04:48.999Z</time></trkpt><trkpt lat="44.70540724742114" lon="9.482337564593175"><ele>1199.5</ele><time>2026-05-02T15:04:49.999Z</time></trkpt><trkpt lat="44.70539827771346" lon="9.482497683613094"><ele>1198.25</ele><time>2026-05-02T15:04:50.999Z</time></trkpt><trkpt lat="44.70543363116437" lon="9.482632551528466"><ele>1197.0</ele><time>2026-05-02T15:04:51.999Z</time></trkpt><trkpt lat="44.70551843476951" lon="9.482728341821801"><ele>1197.0</ele><time>2026-05-02T15:04:52.999Z</time></trkpt><trkpt lat="44.7056474238877" lon="9.482786478033873"><ele>1197.0</ele><time>2026-05-02T15:04:53.999Z</time></trkpt><trkpt lat="44.7058232554033" lon="9.482828135021776"><ele>1197.0</ele><time>2026-05-02T15:04:54.999Z</time></trkpt><trkpt lat="44.706004407658334" lon="9.482858528628284"><ele>1195.0</ele><time>2026-05-02T15:04:55.999Z</time></trkpt><trkpt lat="44.70613430123798" lon="9.482922570070711"><ele>1193.0</ele><time>2026-05-02T15:04:56.999Z</time></trkpt><trkpt lat="44.706210302910584" lon="9.483020166149334"><ele>1191.0</ele><time>2026-05-02T15:04:57.999Z</time></trkpt><trkpt lat="44.70624680293486" lon="9.483139929682471"><ele>1189.0</ele><time>2026-05-02T15:04:58.999Z</time></trkpt><trkpt lat="44.70624775630057" lon="9.483290358618214"><ele>1187.0</ele><time>2026-05-02T15:04:59.999Z</time></trkpt><trkpt lat="44.70620532422181" lon="9.4834605045725"><ele>1184.6666666666667</ele><time>2026-05-02T15:05:00.999Z</time></trkpt><trkpt lat="44.70611264709612" lon="9.483645541262165"><ele>1182.3333333333333</ele><time>2026-05-02T15:05:01.999Z</time></trkpt><trkpt lat="44.70598035106112" lon="9.48386058757653"><ele>1180.0</ele><time>2026-05-02T15:05:02.999Z</time></trkpt><trkpt lat="44.70582268958878" lon="9.48407531338344"><ele>1180.0</ele><time>2026-05-02T15:05:03.999Z</time></trkpt><trkpt lat="44.7056881527363" lon="9.48425264211373"><ele>1180.0</ele><time>2026-05-02T15:05:04.999Z</time></trkpt><trkpt lat="44.70558676294165" lon="9.484366215855612"><ele>1180.0</ele><time>2026-05-02T15:05:05.999Z</time></trkpt><trkpt lat="44.70549222267487" lon="9.48442505832625"><ele>1180.0</ele><time>2026-05-02T15:05:06.999Z</time></trkpt><trkpt lat="44.705397624345636" lon="9.484425326339045"><ele>1180.0</ele><time>2026-05-02T15:05:07.999Z</time></trkpt><trkpt lat="44.70530309637504" lon="9.484364904401698"><ele>1180.0</ele><time>2026-05-02T15:05:08.999Z</time></trkpt><trkpt lat="44.705204874663664" lon="9.4842463785262"><ele>1180.0</ele><time>2026-05-02T15:05:09.999Z</time></trkpt><trkpt lat="44.705081670633604" lon="9.484121407576161"><ele>1180.0</ele><time>2026-05-02T15:05:10.999Z</time></trkpt><trkpt lat="44.704948718419615" lon="9.484077984467213"><ele>1179.2</ele><time>2026-05-02T15:05:11.999Z</time></trkpt><trkpt lat="44.7048696487305" lon="9.48410698263185"><ele>1178.4</ele><time>2026-05-02T15:05:12.999Z</time></trkpt><trkpt lat="44.70484307164328" lon="9.484208038076945"><ele>1177.6</ele><time>2026-05-02T15:05:14.999Z</time></trkpt><trkpt lat="44.704910415644314" lon="9.484356568351625"><ele>1176.8</ele><time>2026-05-02T15:05:16.999Z</time></trkpt><trkpt lat="44.70501169292916" lon="9.484437484326815"><ele>1176.0</ele><time>2026-05-02T15:05:17.999Z</time></trkpt><trkpt lat="44.705121808177886" lon="9.484527125502868"><ele>1175.0</ele><time>2026-05-02T15:05:18.999Z</time></trkpt><trkpt lat="44.705156950739266" lon="9.484652861816942"><ele>1174.0</ele><time>2026-05-02T15:05:19.999Z</time></trkpt><trkpt lat="44.70516061871184" lon="9.484833475645527"><ele>1173.0</ele><time>2026-05-02T15:05:20.999Z</time></trkpt><trkpt lat="44.70518187019824" lon="9.484985670637887"><ele>1172.0</ele><time>2026-05-02T15:05:21.999Z</time></trkpt><trkpt lat="44.70525262229242" lon="9.485073652950742"><ele>1171.0</ele><time>2026-05-02T15:05:22.999Z</time></trkpt><trkpt lat="44.70535310564237" lon="9.485099803450481"><ele>1170.0</ele><time>2026-05-02T15:05:23.999Z</time></trkpt><trkpt lat="44.705475263789545" lon="9.48506326051012"><ele>1169.0</ele><time>2026-05-02T15:05:24.999Z</time></trkpt><trkpt lat="44.70561758004293" lon="9.484999704059629"><ele>1168.0</ele><time>2026-05-02T15:05:25.999Z</time></trkpt><trkpt lat="44.70578040666498" lon="9.484999741220074"><ele>1167.0</ele><time>2026-05-02T15:05:26.999Z</time></trkpt><trkpt lat="44.705951972914406" lon="9.485078653937641"><ele>1165.25</ele><time>2026-05-02T15:05:27.999Z</time></trkpt><trkpt lat="44.706109133848614" lon="9.485117305952192"><ele>1163.5</ele><time>2026-05-02T15:05:28.999Z</time></trkpt><trkpt lat="44.706227739714706" lon="9.485152385316438"><ele>1161.75</ele><time>2026-05-02T15:05:29.999Z</time></trkpt><trkpt lat="44.70633375405012" lon="9.48524874199851"><ele>1160.0</ele><time>2026-05-02T15:05:30.999Z</time></trkpt><trkpt lat="44.706393533496225" lon="9.485343454687767"><ele>1157.0</ele><time>2026-05-02T15:05:31.999Z</time></trkpt><trkpt lat="44.706382793122565" lon="9.485517334107968"><ele>1154.0</ele><time>2026-05-02T15:05:33.999Z</time></trkpt><trkpt lat="44.70631683450803" lon="9.48558275957568"><ele>1151.0</ele><time>2026-05-02T15:05:34.999Z</time></trkpt><trkpt lat="44.70620265856975" lon="9.485604273010292"><ele>1148.0</ele><time>2026-05-02T15:05:35.999Z</time></trkpt><trkpt lat="44.7060526830549" lon="9.485592059803292"><ele>1148.0</ele><time>2026-05-02T15:05:36.999Z</time></trkpt><trkpt lat="44.70587038607373" lon="9.48556095082851"><ele>1148.0</ele><time>2026-05-02T15:05:37.999Z</time></trkpt><trkpt lat="44.70573757095214" lon="9.48552242555226"><ele>1148.0</ele><time>2026-05-02T15:05:38.998Z</time></trkpt><trkpt lat="44.705651858182414" lon="9.485521625037016"><ele>1148.0</ele><time>2026-05-02T15:05:39.998Z</time></trkpt><trkpt lat="44.70558154794893" lon="9.485584980864942"><ele>1148.0</ele><time>2026-05-02T15:05:40.998Z</time></trkpt><trkpt lat="44.70554369911228" lon="9.485699551249906"><ele>1148.0</ele><time>2026-05-02T15:05:41.998Z</time></trkpt><trkpt lat="44.7055584620455" lon="9.485855643654352"><ele>1148.0</ele><time>2026-05-02T15:05:42.998Z</time></trkpt><trkpt lat="44.705589572472675" lon="9.486012962780901"><ele>1148.0</ele><time>2026-05-02T15:05:43.998Z</time></trkpt><trkpt lat="44.70550794019878" lon="9.48614165253417"><ele>1148.0</ele><time>2026-05-02T15:05:45.998Z</time></trkpt><trkpt lat="44.70542486194852" lon="9.48618252910768"><ele>1146.4</ele><time>2026-05-02T15:05:46.998Z</time></trkpt><trkpt lat="44.705365562639656" lon="9.486263536684532"><ele>1144.8</ele><time>2026-05-02T15:05:47.998Z</time></trkpt><trkpt lat="44.70537453001947" lon="9.486370729749693"><ele>1143.2</ele><time>2026-05-02T15:05:48.998Z</time></trkpt><trkpt lat="44.70545233234972" lon="9.486492096039848"><ele>1141.6</ele><time>2026-05-02T15:05:49.998Z</time></trkpt><trkpt lat="44.705546627158554" lon="9.486633866374252"><ele>1140.0</ele><time>2026-05-02T15:05:50.998Z</time></trkpt><trkpt lat="44.70560743770972" lon="9.48676550509406"><ele>1140.0</ele><time>2026-05-02T15:05:51.998Z</time></trkpt><trkpt lat="44.705616189832476" lon="9.486913324712372"><ele>1140.0</ele><time>2026-05-02T15:05:52.998Z</time></trkpt><trkpt lat="44.70556750313307" lon="9.48711870091773"><ele>1140.0</ele><time>2026-05-02T15:05:53.998Z</time></trkpt><trkpt lat="44.705484717882605" lon="9.487373777977405"><ele>1138.25</ele><time>2026-05-02T15:05:54.998Z</time></trkpt><trkpt lat="44.705440208731495" lon="9.487601027222706"><ele>1136.5</ele><time>2026-05-02T15:05:55.998Z</time></trkpt><trkpt lat="44.705438188066715" lon="9.487761041319924"><ele>1134.75</ele><time>2026-05-02T15:05:56.998Z</time></trkpt><trkpt lat="44.70545800218155" lon="9.487871847940747"><ele>1133.0</ele><time>2026-05-02T15:05:57.998Z</time></trkpt><trkpt lat="44.70555211896986" lon="9.487987308445229"><ele>1131.0</ele><time>2026-05-02T15:05:58.998Z</time></trkpt><trkpt lat="44.70564879416958" lon="9.488107951145867"><ele>1129.0</ele><time>2026-05-02T15:05:59.998Z</time></trkpt><trkpt lat="44.70568383000636" lon="9.488207193694736"><ele>1127.0</ele><time>2026-05-02T15:06:00.998Z</time></trkpt><trkpt lat="44.705665960646726" lon="9.488328888914006"><ele>1125.0</ele><time>2026-05-02T15:06:01.998Z</time></trkpt><trkpt lat="44.70560231100733" lon="9.488457389534906"><ele>1123.0</ele><time>2026-05-02T15:06:02.998Z</time></trkpt><trkpt lat="44.70554013034247" lon="9.488561825591239"><ele>1123.0</ele><time>2026-05-02T15:06:03.998Z</time></trkpt><trkpt lat="44.70556486116118" lon="9.488678376156525"><ele>1123.0</ele><time>2026-05-02T15:06:04.998Z</time></trkpt><trkpt lat="44.70562386512083" lon="9.488830039632752"><ele>1123.0</ele><time>2026-05-02T15:06:05.998Z</time></trkpt><trkpt lat="44.70563080096444" lon="9.489019204218321"><ele>1123.0</ele><time>2026-05-02T15:06:06.998Z</time></trkpt><trkpt lat="44.705583590517065" lon="9.489170421926815"><ele>1121.6666666666665</ele><time>2026-05-02T15:06:07.998Z</time></trkpt><trkpt lat="44.70549860247894" lon="9.48927018063864"><ele>1120.3333333333333</ele><time>2026-05-02T15:06:08.998Z</time></trkpt><trkpt lat="44.70535091870257" lon="9.489359184454903"><ele>1119.0</ele><time>2026-05-02T15:06:09.998Z</time></trkpt><trkpt lat="44.70518392850132" lon="9.489448911435916"><ele>1119.0</ele><time>2026-05-02T15:06:10.998Z</time></trkpt><trkpt lat="44.70502001299418" lon="9.489535063503045"><ele>1119.0</ele><time>2026-05-02T15:06:11.998Z</time></trkpt><trkpt lat="44.70487112958474" lon="9.489564592238052"><ele>1119.0</ele><time>2026-05-02T15:06:12.998Z</time></trkpt><trkpt lat="44.70475441996194" lon="9.489560961344472"><ele>1119.0</ele><time>2026-05-02T15:06:13.998Z</time></trkpt><trkpt lat="44.704649826104415" lon="9.489624784007027"><ele>1116.0</ele><time>2026-05-02T15:06:15Z</time></trkpt><trkpt lat="44.704563695020326" lon="9.489761919132969"><ele>1113.0</ele><time>2026-05-02T15:06:16Z</time></trkpt><trkpt lat="44.70447509693695" lon="9.489903547739035"><ele>1110.0</ele><time>2026-05-02T15:06:17Z</time></trkpt><trkpt lat="44.704314707475824" lon="9.489966504586357"><ele>1107.0</ele><time>2026-05-02T15:06:18Z</time></trkpt><trkpt lat="44.70414628592036" lon="9.490037159293145"><ele>1107.0</ele><time>2026-05-02T15:06:19Z</time></trkpt><trkpt lat="44.70400856796734" lon="9.490119371825354"><ele>1107.0</ele><time>2026-05-02T15:06:20Z</time></trkpt><trkpt lat="44.70388698086736" lon="9.490138704861174"><ele>1107.0</ele><time>2026-05-02T15:06:21Z</time></trkpt><trkpt lat="44.70379705874899" lon="9.490172521837577"><ele>1107.0</ele><time>2026-05-02T15:06:22Z</time></trkpt><trkpt lat="44.70374533226427" lon="9.490276499045207"><ele>1107.0</ele><time>2026-05-02T15:06:23Z</time></trkpt><trkpt lat="44.703744744076886" lon="9.490410280747323"><ele>1107.0</ele><time>2026-05-02T15:06:24Z</time></trkpt><trkpt lat="44.703799074515246" lon="9.490512227747143"><ele>1107.0</ele><time>2026-05-02T15:06:25Z</time></trkpt><trkpt lat="44.70389039508556" lon="9.490566793782442"><ele>1107.0</ele><time>2026-05-02T15:06:26Z</time></trkpt><trkpt lat="44.70401511672092" lon="9.49058800985398"><ele>1107.0</ele><time>2026-05-02T15:06:27Z</time></trkpt><trkpt lat="44.70414057528597" lon="9.490682700312949"><ele>1108.0</ele><time>2026-05-02T15:06:28Z</time></trkpt><trkpt lat="44.704242908471144" lon="9.490860428434324"><ele>1109.0</ele><time>2026-05-02T15:06:29Z</time></trkpt><trkpt lat="44.704361061259384" lon="9.491087358836774"><ele>1110.0</ele><time>2026-05-02T15:06:30Z</time></trkpt><trkpt lat="44.70450494222409" lon="9.491294517749669"><ele>1106.6666666666667</ele><time>2026-05-02T15:06:31Z</time></trkpt><trkpt lat="44.70462407279032" lon="9.491487130594829"><ele>1103.3333333333335</ele><time>2026-05-02T15:06:32Z</time></trkpt><trkpt lat="44.70469340726392" lon="9.49166959664866"><ele>1100.0</ele><time>2026-05-02T15:06:33Z</time></trkpt><trkpt lat="44.70473991900758" lon="9.491868375516493"><ele>1098.6666666666667</ele><time>2026-05-02T15:06:34Z</time></trkpt><trkpt lat="44.704760177706646" lon="9.492091181870764"><ele>1097.3333333333333</ele><time>2026-05-02T15:06:35Z</time></trkpt><trkpt lat="44.70475159692272" lon="9.4923333849827"><ele>1096.0</ele><time>2026-05-02T15:06:36Z</time></trkpt><trkpt lat="44.704709406685105" lon="9.492565388607906"><ele>1096.0</ele><time>2026-05-02T15:06:37Z</time></trkpt><trkpt lat="44.704674521016635" lon="9.492779862514894"><ele>1096.0</ele><time>2026-05-02T15:06:38Z</time></trkpt><trkpt lat="44.70467536568472" lon="9.492984231576346"><ele>1096.0</ele><time>2026-05-02T15:06:39Z</time></trkpt><trkpt lat="44.70470359307032" lon="9.49317830107018"><ele>1096.0</ele><time>2026-05-02T15:06:40Z</time></trkpt><trkpt lat="44.704748360824745" lon="9.493394752455574"><ele>1095.0</ele><time>2026-05-02T15:06:41Z</time></trkpt><trkpt lat="44.704801919980696" lon="9.493586759624497"><ele>1094.0</ele><time>2026-05-02T15:06:42Z</time></trkpt><trkpt lat="44.704844738669514" lon="9.493752230070083"><ele>1093.0</ele><time>2026-05-02T15:06:43Z</time></trkpt><trkpt lat="44.7048892928351" lon="9.493881625735215"><ele>1092.0</ele><time>2026-05-02T15:06:44Z</time></trkpt><trkpt lat="44.70492914380032" lon="9.49401870920735"><ele>1090.5</ele><time>2026-05-02T15:06:45Z</time></trkpt><trkpt lat="44.70495061829252" lon="9.494192050462885"><ele>1089.0</ele><time>2026-05-02T15:06:46Z</time></trkpt><trkpt lat="44.70494128821927" lon="9.49438790204494"><ele>1087.5</ele><time>2026-05-02T15:06:47Z</time></trkpt><trkpt lat="44.70494249323655" lon="9.494597480619214"><ele>1086.0</ele><time>2026-05-02T15:06:48Z</time></trkpt><trkpt lat="44.7049538776819" lon="9.494776831444328"><ele>1084.6</ele><time>2026-05-02T15:06:49Z</time></trkpt><trkpt lat="44.70495439321205" lon="9.49489503330054"><ele>1083.1999999999998</ele><time>2026-05-02T15:06:50Z</time></trkpt><trkpt lat="44.70491503745817" lon="9.495027140042628"><ele>1081.8000000000002</ele><time>2026-05-02T15:06:51Z</time></trkpt><trkpt lat="44.704881864136986" lon="9.495161460187829"><ele>1080.4</ele><time>2026-05-02T15:06:52Z</time></trkpt><trkpt lat="44.70480784174506" lon="9.495284319591509"><ele>1079.0</ele><time>2026-05-02T15:06:53Z</time></trkpt><trkpt lat="44.70474643972793" lon="9.495383897571292"><ele>1079.2</ele><time>2026-05-02T15:06:54Z</time></trkpt><trkpt lat="44.7046578570966" lon="9.495466984710971"><ele>1079.4</ele><time>2026-05-02T15:06:55Z</time></trkpt><trkpt lat="44.70455537870211" lon="9.495508213786396"><ele>1079.6</ele><time>2026-05-02T15:06:55.999Z</time></trkpt><trkpt lat="44.704460150443445" lon="9.49551581496941"><ele>1079.8</ele><time>2026-05-02T15:06:56.999Z</time></trkpt><trkpt lat="44.704371069558825" lon="9.495482525537156"><ele>1080.0</ele><time>2026-05-02T15:06:57.999Z</time></trkpt><trkpt lat="44.704296687938594" lon="9.495419254326745"><ele>1080.0</ele><time>2026-05-02T15:06:58.999Z</time></trkpt><trkpt lat="44.70425120712853" lon="9.495331968438183"><ele>1080.0</ele><time>2026-05-02T15:06:59.999Z</time></trkpt><trkpt lat="44.70421355377342" lon="9.495255407869223"><ele>1080.0</ele><time>2026-05-02T15:07:00.999Z</time></trkpt><trkpt lat="44.7041239604164" lon="9.495178623768469"><ele>1080.0</ele><time>2026-05-02T15:07:02.999Z</time></trkpt><trkpt lat="44.704032496397886" lon="9.495261949828112"><ele>1080.0</ele><time>2026-05-02T15:07:04.999Z</time></trkpt><trkpt lat="44.7040239462475" lon="9.495399604431933"><ele>1077.5</ele><time>2026-05-02T15:07:05.999Z</time></trkpt><trkpt lat="44.70405108933937" lon="9.495565178754036"><ele>1075.0</ele><time>2026-05-02T15:07:06.999Z</time></trkpt><trkpt lat="44.70404593370012" lon="9.495724965929119"><ele>1072.5</ele><time>2026-05-02T15:07:07.999Z</time></trkpt><trkpt lat="44.703980700754386" lon="9.49589418375751"><ele>1070.0</ele><time>2026-05-02T15:07:08.999Z</time></trkpt><trkpt lat="44.70386179064873" lon="9.496038279838617"><ele>1070.0</ele><time>2026-05-02T15:07:09.999Z</time></trkpt><trkpt lat="44.703760744580755" lon="9.496146439794739"><ele>1070.0</ele><time>2026-05-02T15:07:10.999Z</time></trkpt><trkpt lat="44.703718572557875" lon="9.496259092565243"><ele>1070.0</ele><time>2026-05-02T15:07:11.999Z</time></trkpt><trkpt lat="44.70371416947079" lon="9.496419648065102"><ele>1070.0</ele><time>2026-05-02T15:07:12.999Z</time></trkpt><trkpt lat="44.70374754011445" lon="9.49659041845262"><ele>1066.3333333333335</ele><time>2026-05-02T15:07:13.999Z</time></trkpt><trkpt lat="44.70384138767623" lon="9.496772918415825"><ele>1062.6666666666667</ele><time>2026-05-02T15:07:14.999Z</time></trkpt><trkpt lat="44.70396119455663" lon="9.496933608992192"><ele>1059.0</ele><time>2026-05-02T15:07:15.999Z</time></trkpt><trkpt lat="44.70405313652652" lon="9.497066399188801"><ele>1054.6666666666667</ele><time>2026-05-02T15:07:16.999Z</time></trkpt><trkpt lat="44.70408758340324" lon="9.49724661952066"><ele>1050.3333333333335</ele><time>2026-05-02T15:07:17.999Z</time></trkpt><trkpt lat="44.704080344097335" lon="9.497502546555129"><ele>1046.0</ele><time>2026-05-02T15:07:18.999Z</time></trkpt><trkpt lat="44.704073750131336" lon="9.497822999937641"><ele>1042.0</ele><time>2026-05-02T15:07:19.999Z</time></trkpt><trkpt lat="44.70408814094607" lon="9.498174866257353"><ele>1038.0</ele><time>2026-05-02T15:07:20.999Z</time></trkpt><trkpt lat="44.704087715660016" lon="9.498458197383432"><ele>1038.0</ele><time>2026-05-02T15:07:21.999Z</time></trkpt><trkpt lat="44.704083360154335" lon="9.498680544022825"><ele>1038.0</ele><time>2026-05-02T15:07:22.999Z</time></trkpt><trkpt lat="44.70409643351095" lon="9.498879527072004"><ele>1038.0</ele><time>2026-05-02T15:07:23.999Z</time></trkpt><trkpt lat="44.7040980101485" lon="9.499061081214276"><ele>1038.0</ele><time>2026-05-02T15:07:24.999Z</time></trkpt><trkpt lat="44.704062418915406" lon="9.499188942062892"><ele>1035.8</ele><time>2026-05-02T15:07:25.999Z</time></trkpt><trkpt lat="44.704041947430035" lon="9.4992760071262"><ele>1033.6</ele><time>2026-05-02T15:07:26.999Z</time></trkpt><trkpt lat="44.7040746053119" lon="9.499355067852118"><ele>1031.4</ele><time>2026-05-02T15:07:27.999Z</time></trkpt><trkpt lat="44.704159938219284" lon="9.499394728571248"><ele>1029.2</ele><time>2026-05-02T15:07:28.999Z</time></trkpt><trkpt lat="44.704278047728266" lon="9.49937801187821"><ele>1027.0</ele><time>2026-05-02T15:07:29.999Z</time></trkpt><trkpt lat="44.70442088514488" lon="9.499373291448178"><ele>1026.75</ele><time>2026-05-02T15:07:30.999Z</time></trkpt><trkpt lat="44.70453668601151" lon="9.499461632030949"><ele>1026.5</ele><time>2026-05-02T15:07:31.999Z</time></trkpt><trkpt lat="44.704621247400716" lon="9.499607298611199"><ele>1026.25</ele><time>2026-05-02T15:07:32.999Z</time></trkpt><trkpt lat="44.70468818324258" lon="9.499814242939713"><ele>1026.0</ele><time>2026-05-02T15:07:33.999Z</time></trkpt><trkpt lat="44.70474324041644" lon="9.500090612482367"><ele>1022.0</ele><time>2026-05-02T15:07:34.999Z</time></trkpt><trkpt lat="44.70477139384128" lon="9.500374113633233"><ele>1018.0</ele><time>2026-05-02T15:07:35.999Z</time></trkpt><trkpt lat="44.70477942201816" lon="9.50058266824656"><ele>1014.0</ele><time>2026-05-02T15:07:36.999Z</time></trkpt><trkpt lat="44.704775234166625" lon="9.500738530063538"><ele>1011.0</ele><time>2026-05-02T15:07:37.999Z</time></trkpt><trkpt lat="44.704792953367956" lon="9.500891450229746"><ele>1008.0</ele><time>2026-05-02T15:07:38.999Z</time></trkpt><trkpt lat="44.704860179178254" lon="9.501023020540169"><ele>1005.0</ele><time>2026-05-02T15:07:39.999Z</time></trkpt><trkpt lat="44.70490778091897" lon="9.501167800412713"><ele>1002.0</ele><time>2026-05-02T15:07:40.999Z</time></trkpt><trkpt lat="44.704897140610676" lon="9.501379142824288"><ele>1000.0</ele><time>2026-05-02T15:07:41.999Z</time></trkpt><trkpt lat="44.70486173760713" lon="9.501557602128832"><ele>998.0</ele><time>2026-05-02T15:07:42.999Z</time></trkpt><trkpt lat="44.70480324501967" lon="9.501696342608497"><ele>996.0</ele><time>2026-05-02T15:07:43.999Z</time></trkpt><trkpt lat="44.704689390870556" lon="9.50183890643107"><ele>994.0</ele><time>2026-05-02T15:07:44.999Z</time></trkpt><trkpt lat="44.70451010060357" lon="9.501997503717718"><ele>991.6666666666666</ele><time>2026-05-02T15:07:45.999Z</time></trkpt><trkpt lat="44.7043364051711" lon="9.502146977925511"><ele>989.3333333333333</ele><time>2026-05-02T15:07:46.999Z</time></trkpt><trkpt lat="44.70419683515037" lon="9.50228573744132"><ele>987.0</ele><time>2026-05-02T15:07:47.998Z</time></trkpt><trkpt lat="44.70409690138921" lon="9.502423260742006"><ele>987.0</ele><time>2026-05-02T15:07:48.998Z</time></trkpt><trkpt lat="44.70401055035609" lon="9.50258686951415"><ele>987.0</ele><time>2026-05-02T15:07:49.998Z</time></trkpt><trkpt lat="44.703941260797514" lon="9.502767540296489"><ele>987.0</ele><time>2026-05-02T15:07:50.998Z</time></trkpt><trkpt lat="44.70384964862176" lon="9.502925260013066"><ele>987.0</ele><time>2026-05-02T15:07:51.998Z</time></trkpt><trkpt lat="44.703729065795855" lon="9.503060138651326"><ele>985.0</ele><time>2026-05-02T15:07:52.998Z</time></trkpt><trkpt lat="44.703605637148314" lon="9.503200356846644"><ele>983.0</ele><time>2026-05-02T15:07:53.998Z</time></trkpt><trkpt lat="44.70349073128196" lon="9.50341543580046"><ele>981.0</ele><time>2026-05-02T15:07:54.998Z</time></trkpt><trkpt lat="44.70339587974221" lon="9.503614297783558"><ele>980.1666666666666</ele><time>2026-05-02T15:07:55.998Z</time></trkpt><trkpt lat="44.70330693736108" lon="9.503734643507906"><ele>979.3333333333333</ele><time>2026-05-02T15:07:56.998Z</time></trkpt><trkpt lat="44.703250580406646" lon="9.503792989654205"><ele>978.5</ele><time>2026-05-02T15:07:57.998Z</time></trkpt><trkpt lat="44.703233775250915" lon="9.503889994201318"><ele>977.6666666666666</ele><time>2026-05-02T15:08:00.998Z</time></trkpt><trkpt lat="44.70329823830101" lon="9.503930705919498"><ele>976.8333333333333</ele><time>2026-05-02T15:08:05.998Z</time></trkpt><trkpt lat="44.70336146934424" lon="9.503982615615028"><ele>976.0</ele><time>2026-05-02T15:08:16.998Z</time></trkpt><trkpt lat="44.7034178871225" lon="9.5040240015008"><ele>976.1666666666666</ele><time>2026-05-02T15:08:17.998Z</time></trkpt><trkpt lat="44.703499919855204" lon="9.50405945369341"><ele>976.3333333333333</ele><time>2026-05-02T15:08:18.998Z</time></trkpt><trkpt lat="44.70358248382179" lon="9.50407956632714"><ele>976.5</ele><time>2026-05-02T15:08:19.998Z</time></trkpt><trkpt lat="44.7036693334937" lon="9.504093332210786"><ele>976.6666666666667</ele><time>2026-05-02T15:08:21Z</time></trkpt><trkpt lat="44.703761239176785" lon="9.504124845535037"><ele>976.8333333333334</ele><time>2026-05-02T15:08:22Z</time></trkpt><trkpt lat="44.70384795008094" lon="9.50418109955951"><ele>977.0</ele><time>2026-05-02T15:08:23Z</time></trkpt><trkpt lat="44.70393186660232" lon="9.504245080476224"><ele>977.0000000000001</ele><time>2026-05-02T15:08:24Z</time></trkpt><trkpt lat="44.703993137583126" lon="9.504300034239634"><ele>977.0</ele><time>2026-05-02T15:08:25Z</time></trkpt><trkpt lat="44.704041457035665" lon="9.504366584657406"><ele>977.0</ele><time>2026-05-02T15:08:26Z</time></trkpt><trkpt lat="44.70408731520848" lon="9.504467177279054"><ele>977.0</ele><time>2026-05-02T15:08:27Z</time></trkpt><trkpt lat="44.70413319888526" lon="9.504573623089517"><ele>977.0000000000001</ele><time>2026-05-02T15:08:28Z</time></trkpt><trkpt lat="44.704183570526176" lon="9.504668610409867"><ele>977.0</ele><time>2026-05-02T15:08:29Z</time></trkpt><trkpt lat="44.704235814189396" lon="9.50475395031081"><ele>976.5000000000001</ele><time>2026-05-02T15:08:30Z</time></trkpt><trkpt lat="44.704286378614384" lon="9.504832976351146"><ele>976.0</ele><time>2026-05-02T15:08:31Z</time></trkpt><trkpt lat="44.70434562433533" lon="9.50491773703289"><ele>975.5</ele><time>2026-05-02T15:08:32Z</time></trkpt><trkpt lat="44.70440595597461" lon="9.504991967637691"><ele>975.0</ele><time>2026-05-02T15:08:33Z</time></trkpt><trkpt lat="44.70446719722517" lon="9.505054604479803"><ele>974.5000000000001</ele><time>2026-05-02T15:08:34Z</time></trkpt><trkpt lat="44.704535305044836" lon="9.505085038016738"><ele>974.0</ele><time>2026-05-02T15:08:35Z</time></trkpt><trkpt lat="44.704619704892515" lon="9.505100723607352"><ele>972.3333333333334</ele><time>2026-05-02T15:08:36Z</time></trkpt><trkpt lat="44.704694483391265" lon="9.505113111791482"><ele>970.6666666666667</ele><time>2026-05-02T15:08:37Z</time></trkpt><trkpt lat="44.70476347493987" lon="9.505121448188124"><ele>969.0</ele><time>2026-05-02T15:08:38Z</time></trkpt><trkpt lat="44.704829323692884" lon="9.505116969533422"><ele>967.3333333333333</ele><time>2026-05-02T15:08:39Z</time></trkpt><trkpt lat="44.70490132026125" lon="9.50509215720807"><ele>965.6666666666666</ele><time>2026-05-02T15:08:40Z</time></trkpt><trkpt lat="44.70496741438892" lon="9.505036369804909"><ele>964.0</ele><time>2026-05-02T15:08:41Z</time></trkpt><trkpt lat="44.70504151429616" lon="9.504959647834667"><ele>964.0</ele><time>2026-05-02T15:08:42Z</time></trkpt><trkpt lat="44.70510180142226" lon="9.504864990936749"><ele>964.0000000000001</ele><time>2026-05-02T15:08:43Z</time></trkpt><trkpt lat="44.7051774655486" lon="9.504740958326513"><ele>964.0000000000001</ele><time>2026-05-02T15:08:44Z</time></trkpt><trkpt lat="44.70525296476239" lon="9.50462720542743"><ele>964.0</ele><time>2026-05-02T15:08:45Z</time></trkpt><trkpt lat="44.70532261311177" lon="9.504547613755356"><ele>964.0</ele><time>2026-05-02T15:08:46Z</time></trkpt><trkpt lat="44.705395306406515" lon="9.504502623229103"><ele>962.4999999999999</ele><time>2026-05-02T15:08:47Z</time></trkpt><trkpt lat="44.70546415910952" lon="9.504470742238869"><ele>961.0</ele><time>2026-05-02T15:08:48Z</time></trkpt><trkpt lat="44.705555558427825" lon="9.504380861913301"><ele>959.5</ele><time>2026-05-02T15:08:50Z</time></trkpt><trkpt lat="44.70560004084716" lon="9.50429751747473"><ele>958.0</ele><time>2026-05-02T15:08:51Z</time></trkpt><trkpt lat="44.70568183827123" lon="9.50419297850279"><ele>956.4999999999999</ele><time>2026-05-02T15:08:53Z</time></trkpt><trkpt lat="44.705750261896036" lon="9.504202333004843"><ele>955.0</ele><time>2026-05-02T15:08:54Z</time></trkpt><trkpt lat="44.70581248975614" lon="9.504247229244566"><ele>954.9999999999999</ele><time>2026-05-02T15:08:55Z</time></trkpt><trkpt lat="44.705936007619485" lon="9.504307146743205"><ele>955.0</ele><time>2026-05-02T15:08:56.999Z</time></trkpt><trkpt lat="44.70601248660627" lon="9.504308096652894"><ele>955.0</ele><time>2026-05-02T15:08:57.999Z</time></trkpt><trkpt lat="44.70607904279363" lon="9.504311675720738"><ele>955.0</ele><time>2026-05-02T15:08:58.999Z</time></trkpt><trkpt lat="44.70614443749056" lon="9.504290231000544"><ele>954.9999999999999</ele><time>2026-05-02T15:09:12.999Z</time></trkpt><trkpt lat="44.706220611446206" lon="9.504297153887933"><ele>955.0</ele><time>2026-05-02T15:09:32.999Z</time></trkpt><trkpt lat="44.70629464175577" lon="9.504325687126947"><ele>955.1666666666666</ele><time>2026-05-02T15:09:34.999Z</time></trkpt><trkpt lat="44.706388693077585" lon="9.504309139294062"><ele>955.3333333333333</ele><time>2026-05-02T15:09:37.999Z</time></trkpt><trkpt lat="44.706472676690645" lon="9.504326760031152"><ele>955.5</ele><time>2026-05-02T15:09:45.998Z</time></trkpt><trkpt lat="44.70655503489777" lon="9.504336505476436"><ele>955.6666666666667</ele><time>2026-05-02T15:09:47.998Z</time></trkpt><trkpt lat="44.70662035882012" lon="9.504338157786034"><ele>955.8333333333334</ele><time>2026-05-02T15:11:41.999Z</time></trkpt><trkpt lat="44.70673113879306" lon="9.504344689555007"><ele>956.0</ele><time>2026-05-02T15:11:43.999Z</time></trkpt><trkpt lat="44.70682769165079" lon="9.504271624817207"><ele>956.0000000000001</ele><time>2026-05-02T15:11:45.999Z</time></trkpt><trkpt lat="44.70690245733583" lon="9.504218458230426"><ele>956.0</ele><time>2026-05-02T15:11:47.999Z</time></trkpt><trkpt lat="44.70697620215388" lon="9.504175305712657"><ele>956.0</ele><time>2026-05-02T15:11:49.999Z</time></trkpt><trkpt lat="44.707034615647196" lon="9.504130566766205"><ele>956.0</ele><time>2026-05-02T15:11:50.999Z</time></trkpt><trkpt lat="44.70714702179577" lon="9.504069318811204"><ele>956.0000000000001</ele><time>2026-05-02T15:11:52.999Z</time></trkpt><trkpt lat="44.707228926501266" lon="9.504070330104314"><ele>956.0</ele><time>2026-05-02T15:11:53.999Z</time></trkpt><trkpt lat="44.70731274756334" lon="9.504086237366039"><ele>957.1666666666667</ele><time>2026-05-02T15:11:54.999Z</time></trkpt><trkpt lat="44.70739703752872" lon="9.504109910786879"><ele>958.3333333333334</ele><time>2026-05-02T15:11:55.999Z</time></trkpt><trkpt lat="44.70748673641734" lon="9.504125288227852"><ele>959.5</ele><time>2026-05-02T15:11:56.999Z</time></trkpt><trkpt lat="44.70756309448567" lon="9.50413724529282"><ele>960.6666666666667</ele><time>2026-05-02T15:11:57.999Z</time></trkpt><trkpt lat="44.70763865225496" lon="9.504154348746003"><ele>961.8333333333334</ele><time>2026-05-02T15:11:58.998Z</time></trkpt><trkpt lat="44.70771176146086" lon="9.504169038243944"><ele>963.0</ele><time>2026-05-02T15:11:59.998Z</time></trkpt><trkpt lat="44.707781627509114" lon="9.504182412764498"><ele>965.8</ele><time>2026-05-02T15:12:00.998Z</time></trkpt><trkpt lat="44.70785003240676" lon="9.504202370839367"><ele>968.5999999999999</ele><time>2026-05-02T15:12:01.998Z</time></trkpt><trkpt lat="44.70794481754705" lon="9.504223804376014"><ele>971.4000000000001</ele><time>2026-05-02T15:12:03.998Z</time></trkpt><trkpt lat="44.70803449602539" lon="9.504205290832084"><ele>974.2</ele><time>2026-05-02T15:12:06.998Z</time></trkpt><trkpt lat="44.708124693897695" lon="9.50426686697587"><ele>977.0</ele><time>2026-05-02T15:12:08.998Z</time></trkpt><trkpt lat="44.708243342451894" lon="9.504313181967326"><ele>977.0</ele><time>2026-05-02T15:12:10.998Z</time></trkpt><trkpt lat="44.70831372403006" lon="9.504336875783643"><ele>977.0</ele><time>2026-05-02T15:12:11.998Z</time></trkpt><trkpt lat="44.70842736246214" lon="9.5043996843051"><ele>977.0</ele><time>2026-05-02T15:12:13.998Z</time></trkpt><trkpt lat="44.70848135600045" lon="9.504482572760926"><ele>977.0</ele><time>2026-05-02T15:12:14.998Z</time></trkpt><trkpt lat="44.708558981356596" lon="9.504565146593075"><ele>977.0</ele><time>2026-05-02T15:12:15.998Z</time></trkpt><trkpt lat="44.708643352328075" lon="9.504640723510219"><ele>979.1666666666667</ele><time>2026-05-02T15:12:16.998Z</time></trkpt><trkpt lat="44.70872971475941" lon="9.504689302948023"><ele>981.3333333333334</ele><time>2026-05-02T15:12:17.998Z</time></trkpt><trkpt lat="44.70880403009042" lon="9.504750427245197"><ele>983.5</ele><time>2026-05-02T15:12:18.998Z</time></trkpt><trkpt lat="44.70888860594245" lon="9.504808766542904"><ele>985.6666666666667</ele><time>2026-05-02T15:12:19.998Z</time></trkpt><trkpt lat="44.70896904563803" lon="9.504860252013549"><ele>987.8333333333334</ele><time>2026-05-02T15:12:20.998Z</time></trkpt><trkpt lat="44.70904546350354" lon="9.504908962292342"><ele>990.0</ele><time>2026-05-02T15:12:21.998Z</time></trkpt><trkpt lat="44.7091014989883" lon="9.50495036048891"><ele>990.0</ele><time>2026-05-02T15:12:22.998Z</time></trkpt><trkpt lat="44.7091673796557" lon="9.504980877889233"><ele>990.0</ele><time>2026-05-02T15:12:23.998Z</time></trkpt><trkpt lat="44.70925815115265" lon="9.50513022741477"><ele>990.0</ele><time>2026-05-02T15:12:25.998Z</time></trkpt><trkpt lat="44.70928638751578" lon="9.505252887991652"><ele>990.0</ele><time>2026-05-02T15:12:26.998Z</time></trkpt><trkpt lat="44.70932035189563" lon="9.50535469092015"><ele>990.0</ele><time>2026-05-02T15:12:27.998Z</time></trkpt><trkpt lat="44.70940053961304" lon="9.50536112876273"><ele>992.8</ele><time>2026-05-02T15:12:29.998Z</time></trkpt><trkpt lat="44.70947772596232" lon="9.505253480168237"><ele>995.6</ele><time>2026-05-02T15:12:31.998Z</time></trkpt><trkpt lat="44.709581975361694" lon="9.505225667425167"><ele>998.4000000000001</ele><time>2026-05-02T15:12:34Z</time></trkpt><trkpt lat="44.709648599924726" lon="9.50537968279034"><ele>1001.2</ele><time>2026-05-02T15:12:36Z</time></trkpt><trkpt lat="44.709693707691066" lon="9.505490685680352"><ele>1004.0</ele><time>2026-05-02T15:12:37Z</time></trkpt><trkpt lat="44.70974191197164" lon="9.505554607897446"><ele>1004.0</ele><time>2026-05-02T15:12:38Z</time></trkpt><trkpt lat="44.7098386539288" lon="9.505585459826166"><ele>1004.0000000000001</ele><time>2026-05-02T15:12:40Z</time></trkpt><trkpt lat="44.70997578550727" lon="9.505605674831264"><ele>1004.0000000000001</ele><time>2026-05-02T15:12:42Z</time></trkpt><trkpt lat="44.71006759031641" lon="9.505700298033485"><ele>1004.0</ele><time>2026-05-02T15:12:44Z</time></trkpt><trkpt lat="44.71012371965057" lon="9.50581064733521"><ele>1004.0</ele><time>2026-05-02T15:12:45Z</time></trkpt><trkpt lat="44.7101759263154" lon="9.505879675135889"><ele>1007.3333333333334</ele><time>2026-05-02T15:12:46Z</time></trkpt><trkpt lat="44.71024728404831" lon="9.505899285540625"><ele>1010.6666666666667</ele><time>2026-05-02T15:12:47Z</time></trkpt><trkpt lat="44.71031493747222" lon="9.505931945175009"><ele>1014.0</ele><time>2026-05-02T15:12:48Z</time></trkpt><trkpt lat="44.71037103140422" lon="9.505976864188298"><ele>1017.3333333333333</ele><time>2026-05-02T15:12:49Z</time></trkpt><trkpt lat="44.71049296415098" lon="9.506064059264185"><ele>1020.6666666666666</ele><time>2026-05-02T15:12:51Z</time></trkpt><trkpt lat="44.71057463975404" lon="9.506112841655487"><ele>1024.0</ele><time>2026-05-02T15:12:52Z</time></trkpt><trkpt lat="44.71066013226257" lon="9.506223552529063"><ele>1022.6666666666666</ele><time>2026-05-02T15:12:54Z</time></trkpt><trkpt lat="44.71066996929828" lon="9.506311149654298"><ele>1021.3333333333333</ele><time>2026-05-02T15:12:55Z</time></trkpt><trkpt lat="44.710780836927185" lon="9.50636987689167"><ele>1020.0</ele><time>2026-05-02T15:12:57Z</time></trkpt><trkpt lat="44.71084889719459" lon="9.50637766516366"><ele>1018.6666666666667</ele><time>2026-05-02T15:12:58Z</time></trkpt><trkpt lat="44.71092480937289" lon="9.506398498456129"><ele>1017.3333333333334</ele><time>2026-05-02T15:12:59Z</time></trkpt><trkpt lat="44.71101880570122" lon="9.506421927527478"><ele>1016.0</ele><time>2026-05-02T15:13:00Z</time></trkpt><trkpt lat="44.71110443140574" lon="9.50643601714038"><ele>1018.6666666666667</ele><time>2026-05-02T15:13:01Z</time></trkpt><trkpt lat="44.711183345890156" lon="9.506495596938512"><ele>1021.3333333333334</ele><time>2026-05-02T15:13:02Z</time></trkpt><trkpt lat="44.71126614587016" lon="9.506529293712596"><ele>1024.0</ele><time>2026-05-02T15:13:03Z</time></trkpt><trkpt lat="44.71134671621113" lon="9.506526118829168"><ele>1026.6666666666667</ele><time>2026-05-02T15:13:04Z</time></trkpt><trkpt lat="44.71143904743231" lon="9.506530957654737"><ele>1029.3333333333333</ele><time>2026-05-02T15:13:05Z</time></trkpt><trkpt lat="44.711518654652075" lon="9.506532195238734"><ele>1032.0</ele><time>2026-05-02T15:13:06Z</time></trkpt><trkpt lat="44.71158780824616" lon="9.50652679721961"><ele>1032.0</ele><time>2026-05-02T15:13:07Z</time></trkpt><trkpt lat="44.71171920647559" lon="9.5064867430978"><ele>1032.0</ele><time>2026-05-02T15:13:09Z</time></trkpt><trkpt lat="44.71179749934252" lon="9.506468350123662"><ele>1032.0</ele><time>2026-05-02T15:13:10Z</time></trkpt><trkpt lat="44.7118619178552" lon="9.506446082289434"><ele>1032.0</ele><time>2026-05-02T15:13:11Z</time></trkpt><trkpt lat="44.711940989986246" lon="9.506457204296064"><ele>1032.0</ele><time>2026-05-02T15:13:12Z</time></trkpt><trkpt lat="44.712017257102595" lon="9.506492256964282"><ele>1032.0</ele><time>2026-05-02T15:13:13Z</time></trkpt><trkpt lat="44.712108601388074" lon="9.506539278330788"><ele>1034.2</ele><time>2026-05-02T15:13:13.999Z</time></trkpt><trkpt lat="44.71219698318329" lon="9.506566321785318"><ele>1036.4</ele><time>2026-05-02T15:13:14.999Z</time></trkpt><trkpt lat="44.712300269882164" lon="9.506597964700438"><ele>1038.6</ele><time>2026-05-02T15:13:15.999Z</time></trkpt><trkpt lat="44.71238887545476" lon="9.506655966905605"><ele>1040.8</ele><time>2026-05-02T15:13:16.999Z</time></trkpt><trkpt lat="44.71247519114078" lon="9.506727429421671"><ele>1043.0</ele><time>2026-05-02T15:13:17.999Z</time></trkpt><trkpt lat="44.71254522071013" lon="9.506782020148064"><ele>1043.0</ele><time>2026-05-02T15:13:18.999Z</time></trkpt><trkpt lat="44.71266811770266" lon="9.506846360223802"><ele>1043.0</ele><time>2026-05-02T15:14:00.999Z</time></trkpt><trkpt lat="44.712740140883305" lon="9.506900320328638"><ele>1043.0</ele><time>2026-05-02T15:14:04.998Z</time></trkpt><trkpt lat="44.712802407603945" lon="9.506955066575191"><ele>1043.0</ele><time>2026-05-02T15:14:06.998Z</time></trkpt><trkpt lat="44.712862076719034" lon="9.507000031473982"><ele>1043.0</ele><time>2026-05-02T15:14:08.998Z</time></trkpt><trkpt lat="44.712935050295464" lon="9.507091345436546"><ele>1042.6</ele><time>2026-05-02T15:14:10.998Z</time></trkpt><trkpt lat="44.713004996225635" lon="9.507168944084619"><ele>1042.1999999999998</ele><time>2026-05-02T15:14:12.998Z</time></trkpt><trkpt lat="44.71307642764364" lon="9.507221814258788"><ele>1041.8</ele><time>2026-05-02T15:14:14.998Z</time></trkpt><trkpt lat="44.71314926541691" lon="9.507304549095686"><ele>1041.3999999999999</ele><time>2026-05-02T15:14:17.998Z</time></trkpt><trkpt lat="44.713244474576996" lon="9.507428481367294"><ele>1041.0</ele><time>2026-05-02T15:14:19.998Z</time></trkpt><trkpt lat="44.71331623948438" lon="9.5075040909124"><ele>1041.0</ele><time>2026-05-02T15:14:21.998Z</time></trkpt><trkpt lat="44.71335793333892" lon="9.507573321651751"><ele>1041.0</ele><time>2026-05-02T15:14:23.998Z</time></trkpt><trkpt lat="44.71341767115233" lon="9.507702291093613"><ele>1041.0</ele><time>2026-05-02T15:14:25.998Z</time></trkpt><trkpt lat="44.71349809978412" lon="9.50783378523829"><ele>1041.0</ele><time>2026-05-02T15:14:27.998Z</time></trkpt><trkpt lat="44.713594257879" lon="9.507933195061103"><ele>1041.0</ele><time>2026-05-02T15:14:29.998Z</time></trkpt><trkpt lat="44.713652210519285" lon="9.507980688990767"><ele>1041.8</ele><time>2026-05-02T15:14:30.998Z</time></trkpt><trkpt lat="44.71374860839372" lon="9.508077797322327"><ele>1042.6</ele><time>2026-05-02T15:14:32.998Z</time></trkpt><trkpt lat="44.713803611390645" lon="9.50814248024859"><ele>1043.4</ele><time>2026-05-02T15:14:33.998Z</time></trkpt><trkpt lat="44.71387575130172" lon="9.508232733150125"><ele>1044.2</ele><time>2026-05-02T15:14:34.998Z</time></trkpt><trkpt lat="44.71394718722875" lon="9.508325038483692"><ele>1045.0</ele><time>2026-05-02T15:14:35.998Z</time></trkpt><trkpt lat="44.7140306852164" lon="9.50840821768327"><ele>1045.0</ele><time>2026-05-02T15:14:36.998Z</time></trkpt><trkpt lat="44.71413002449935" lon="9.508497691436947"><ele>1045.0</ele><time>2026-05-02T15:14:37.998Z</time></trkpt><trkpt lat="44.71423460275905" lon="9.508578104721458"><ele>1045.0</ele><time>2026-05-02T15:14:39Z</time></trkpt><trkpt lat="44.71434305905168" lon="9.508663173186145"><ele>1045.0</ele><time>2026-05-02T15:14:40Z</time></trkpt><trkpt lat="44.71444829668747" lon="9.5087521222088"><ele>1047.6</ele><time>2026-05-02T15:14:41Z</time></trkpt><trkpt lat="44.7145392529815" lon="9.508835733885906"><ele>1050.2</ele><time>2026-05-02T15:14:42Z</time></trkpt><trkpt lat="44.7146331645521" lon="9.508909861767883"><ele>1052.8</ele><time>2026-05-02T15:14:43Z</time></trkpt><trkpt lat="44.71471290605655" lon="9.508986707131864"><ele>1055.4</ele><time>2026-05-02T15:14:44Z</time></trkpt><trkpt lat="44.714804538770224" lon="9.509055278160695"><ele>1058.0</ele><time>2026-05-02T15:14:45Z</time></trkpt><trkpt lat="44.71491036470075" lon="9.509117682974138"><ele>1058.0</ele><time>2026-05-02T15:14:46Z</time></trkpt><trkpt lat="44.7150159203816" lon="9.509218504722092"><ele>1058.0</ele><time>2026-05-02T15:14:47Z</time></trkpt><trkpt lat="44.715107688877964" lon="9.509332619280103"><ele>1058.0</ele><time>2026-05-02T15:14:48Z</time></trkpt><trkpt lat="44.715174781950786" lon="9.509435177329005"><ele>1058.0</ele><time>2026-05-02T15:14:49Z</time></trkpt><trkpt lat="44.715234057072486" lon="9.509548732784616"><ele>1058.0</ele><time>2026-05-02T15:14:50Z</time></trkpt><trkpt lat="44.71528119894359" lon="9.509675420251202"><ele>1060.8333333333335</ele><time>2026-05-02T15:14:51Z</time></trkpt><trkpt lat="44.71532717949664" lon="9.50979043437361"><ele>1063.6666666666667</ele><time>2026-05-02T15:14:52Z</time></trkpt><trkpt lat="44.715374256630284" lon="9.509875260829062"><ele>1066.5</ele><time>2026-05-02T15:14:53Z</time></trkpt><trkpt lat="44.71543967106493" lon="9.509926775363745"><ele>1069.3333333333333</ele><time>2026-05-02T15:14:54Z</time></trkpt><trkpt lat="44.71550690515205" lon="9.50996060319843"><ele>1072.1666666666665</ele><time>2026-05-02T15:14:55Z</time></trkpt><trkpt lat="44.715618943904396" lon="9.509952003132986"><ele>1075.0</ele><time>2026-05-02T15:14:57Z</time></trkpt><trkpt lat="44.71571551910973" lon="9.50989012892559"><ele>1075.0</ele><time>2026-05-02T15:14:59Z</time></trkpt><trkpt lat="44.71575497118562" lon="9.509761595065015"><ele>1075.0</ele><time>2026-05-02T15:15:01Z</time></trkpt><trkpt lat="44.71582754014595" lon="9.509864057993713"><ele>1075.0</ele><time>2026-05-02T15:16:41.998Z</time></trkpt><trkpt lat="44.715900044034555" lon="9.509985664691442"><ele>1075.0</ele><time>2026-05-02T15:16:43.998Z</time></trkpt><trkpt lat="44.71593971404753" lon="9.510089062534265"><ele>1075.0</ele><time>2026-05-02T15:16:45Z</time></trkpt><trkpt lat="44.7159955571174" lon="9.510175488003455"><ele>1076.2</ele><time>2026-05-02T15:16:46Z</time></trkpt><trkpt lat="44.716113731923336" lon="9.510227353155766"><ele>1077.4</ele><time>2026-05-02T15:16:48Z</time></trkpt><trkpt lat="44.71620675281943" lon="9.510259964627485"><ele>1078.6</ele><time>2026-05-02T15:16:49Z</time></trkpt><trkpt lat="44.71628366981053" lon="9.510340434567995"><ele>1079.8</ele><time>2026-05-02T15:16:50Z</time></trkpt><trkpt lat="44.71633942997917" lon="9.510438352102858"><ele>1081.0</ele><time>2026-05-02T15:16:51Z</time></trkpt><trkpt lat="44.71637996520057" lon="9.51052909132793"><ele>1081.3333333333333</ele><time>2026-05-02T15:16:52Z</time></trkpt><trkpt lat="44.71641762278315" lon="9.510614088232519"><ele>1081.6666666666665</ele><time>2026-05-02T15:16:53Z</time></trkpt><trkpt lat="44.71644316085695" lon="9.510718372864998"><ele>1082.0</ele><time>2026-05-02T15:16:56Z</time></trkpt><trkpt lat="44.716492730601026" lon="9.510827188413106"><ele>1082.3333333333333</ele><time>2026-05-02T15:17:07Z</time></trkpt><trkpt lat="44.71653792880424" lon="9.510993817987929"><ele>1082.6666666666667</ele><time>2026-05-02T15:17:09Z</time></trkpt><trkpt lat="44.71656605258612" lon="9.511074324208739"><ele>1083.0</ele><time>2026-05-02T15:17:10Z</time></trkpt><trkpt lat="44.71659380638939" lon="9.511195532557531"><ele>1083.1666666666667</ele><time>2026-05-02T15:17:11Z</time></trkpt><trkpt lat="44.71663191333066" lon="9.511291313371833"><ele>1083.3333333333333</ele><time>2026-05-02T15:17:12Z</time></trkpt><trkpt lat="44.71668571339507" lon="9.511386579003666"><ele>1083.5</ele><time>2026-05-02T15:17:13Z</time></trkpt><trkpt lat="44.716753642275805" lon="9.511479227302278"><ele>1083.6666666666665</ele><time>2026-05-02T15:17:14Z</time></trkpt><trkpt lat="44.71681610734177" lon="9.511575072260964"><ele>1083.8333333333333</ele><time>2026-05-02T15:17:15Z</time></trkpt><trkpt lat="44.71686850830876" lon="9.511644018732962"><ele>1084.0</ele><time>2026-05-02T15:17:16Z</time></trkpt><trkpt lat="44.71692175037964" lon="9.511722613053307"><ele>1084.0</ele><time>2026-05-02T15:17:18Z</time></trkpt><trkpt lat="44.716978571922645" lon="9.511795053752818"><ele>1084.0</ele><time>2026-05-02T15:17:20Z</time></trkpt><trkpt lat="44.717051715748724" lon="9.511917094672862"><ele>1084.0</ele><time>2026-05-02T15:17:22Z</time></trkpt><trkpt lat="44.717111792294695" lon="9.511980508153925"><ele>1084.0</ele><time>2026-05-02T15:17:22.999Z</time></trkpt><trkpt lat="44.71718548453705" lon="9.512101716674058"><ele>1084.0</ele><time>2026-05-02T15:17:24.999Z</time></trkpt><trkpt lat="44.71720852595548" lon="9.512190357406114"><ele>1084.0</ele><time>2026-05-02T15:17:25.999Z</time></trkpt><trkpt lat="44.717221068387644" lon="9.512366185951425"><ele>1084.8</ele><time>2026-05-02T15:17:28.999Z</time></trkpt><trkpt lat="44.717257501377055" lon="9.512518913020738"><ele>1085.6000000000001</ele><time>2026-05-02T15:17:30.999Z</time></trkpt><trkpt lat="44.71729210132702" lon="9.512634439704879"><ele>1086.4</ele><time>2026-05-02T15:17:32.999Z</time></trkpt><trkpt lat="44.717336130804874" lon="9.512717468949088"><ele>1087.2</ele><time>2026-05-02T15:17:36.999Z</time></trkpt><trkpt lat="44.7173933497279" lon="9.512758987233825"><ele>1088.0</ele><time>2026-05-02T15:17:39.999Z</time></trkpt><trkpt lat="44.71748430476942" lon="9.513009931051489"><ele>1088.1666666666667</ele><time>2026-05-02T15:17:41.999Z</time></trkpt><trkpt lat="44.71744917749135" lon="9.513095351383281"><ele>1088.3333333333335</ele><time>2026-05-02T15:17:42.999Z</time></trkpt><trkpt lat="44.71738717790447" lon="9.513193388160904"><ele>1088.5</ele><time>2026-05-02T15:17:43.999Z</time></trkpt><trkpt lat="44.71736463779718" lon="9.513300264543252"><ele>1088.6666666666667</ele><time>2026-05-02T15:17:44.999Z</time></trkpt><trkpt lat="44.71727148623198" lon="9.513387988963665"><ele>1088.8333333333333</ele><time>2026-05-02T15:17:45.999Z</time></trkpt><trkpt lat="44.71723075135806" lon="9.513496849498319"><ele>1089.0</ele><time>2026-05-02T15:17:46.999Z</time></trkpt><trkpt lat="44.71717339695471" lon="9.51356303401317"><ele>1089.0</ele><time>2026-05-02T15:17:47.999Z</time></trkpt><trkpt lat="44.71705930651663" lon="9.513669389249477"><ele>1089.0</ele><time>2026-05-02T15:17:49.999Z</time></trkpt><trkpt lat="44.71699063838357" lon="9.513697829045858"><ele>1089.0</ele><time>2026-05-02T15:17:50.999Z</time></trkpt><trkpt lat="44.71691137527534" lon="9.51364963159666"><ele>1089.0</ele><time>2026-05-02T15:17:52.999Z</time></trkpt><trkpt lat="44.71680257465188" lon="9.513715713343213"><ele>1089.0</ele><time>2026-05-02T15:17:54.999Z</time></trkpt><trkpt lat="44.716780188029574" lon="9.513806297295137"><ele>1089.8</ele><time>2026-05-02T15:17:55.999Z</time></trkpt><trkpt lat="44.71671652980581" lon="9.513890898396545"><ele>1090.6000000000001</ele><time>2026-05-02T15:17:56.999Z</time></trkpt><trkpt lat="44.71665066931191" lon="9.51398664967071"><ele>1091.4</ele><time>2026-05-02T15:17:57.999Z</time></trkpt><trkpt lat="44.716682189410726" lon="9.514073553043412"><ele>1092.2</ele><time>2026-05-02T15:17:58.999Z</time></trkpt><trkpt lat="44.71672646261848" lon="9.514192018095375"><ele>1093.0</ele><time>2026-05-02T15:17:59.999Z</time></trkpt><trkpt lat="44.7167780170348" lon="9.514393004738897"><ele>1093.0</ele><time>2026-05-02T15:18:02.999Z</time></trkpt><trkpt lat="44.716838102184745" lon="9.514550766062053"><ele>1093.0</ele><time>2026-05-02T15:18:03.999Z</time></trkpt><trkpt lat="44.71684349804242" lon="9.514677609277841"><ele>1093.0</ele><time>2026-05-02T15:18:04.999Z</time></trkpt><trkpt lat="44.71682427945568" lon="9.514766262868896"><ele>1093.0</ele><time>2026-05-02T15:18:07.999Z</time></trkpt><trkpt lat="44.716814428129375" lon="9.514881248000481"><ele>1093.0</ele><time>2026-05-02T15:18:11.999Z</time></trkpt><trkpt lat="44.71680950891479" lon="9.514969749438636"><ele>1093.0</ele><time>2026-05-02T15:18:12.998Z</time></trkpt><trkpt lat="44.716813488015966" lon="9.515228575101261"><ele>1093.0</ele><time>2026-05-02T15:18:13.998Z</time></trkpt><trkpt lat="44.7168165741365" lon="9.515373647400514"><ele>1093.0</ele><time>2026-05-02T15:18:14.998Z</time></trkpt><trkpt lat="44.71682408549564" lon="9.515483686657028"><ele>1093.0</ele><time>2026-05-02T15:18:15.998Z</time></trkpt><trkpt lat="44.716851206468135" lon="9.51558848359463"><ele>1093.0</ele><time>2026-05-02T15:18:16.998Z</time></trkpt><trkpt lat="44.716908508940094" lon="9.515625258502027"><ele>1093.0</ele><time>2026-05-02T15:18:17.998Z</time></trkpt><trkpt lat="44.71696511722441" lon="9.51571594356787"><ele>1093.0</ele><time>2026-05-02T15:18:19.998Z</time></trkpt><trkpt lat="44.71700289910206" lon="9.515797288027755"><ele>1093.857142857143</ele><time>2026-05-02T15:18:21.998Z</time></trkpt><trkpt lat="44.71705903872696" lon="9.515861590240117"><ele>1094.7142857142858</ele><time>2026-05-02T15:18:23.998Z</time></trkpt><trkpt lat="44.717144170199305" lon="9.515866593027297"><ele>1095.5714285714284</ele><time>2026-05-02T15:18:25.998Z</time></trkpt><trkpt lat="44.71722866959763" lon="9.515856471956564"><ele>1096.4285714285716</ele><time>2026-05-02T15:18:27.998Z</time></trkpt><trkpt lat="44.71728475127707" lon="9.515924030676366"><ele>1097.2857142857142</ele><time>2026-05-02T15:18:28.998Z</time></trkpt><trkpt lat="44.71732205538557" lon="9.515999314849621"><ele>1098.142857142857</ele><time>2026-05-02T15:18:29.998Z</time></trkpt><trkpt lat="44.71736135770306" lon="9.516077429654178"><ele>1099.0</ele><time>2026-05-02T15:18:30.998Z</time></trkpt><trkpt lat="44.717405341617514" lon="9.51615166617354"><ele>1099.0</ele><time>2026-05-02T15:18:31.998Z</time></trkpt><trkpt lat="44.717476298250254" lon="9.51621772027482"><ele>1099.0</ele><time>2026-05-02T15:18:34.998Z</time></trkpt><trkpt lat="44.71751495571899" lon="9.516307871312922"><ele>1099.0</ele><time>2026-05-02T15:18:36.998Z</time></trkpt><trkpt lat="44.71753299653416" lon="9.516412357969383"><ele>1099.0</ele><time>2026-05-02T15:18:38.998Z</time></trkpt><trkpt lat="44.71761751219088" lon="9.51643634802628"><ele>1099.0</ele><time>2026-05-02T15:18:40.998Z</time></trkpt><trkpt lat="44.717719781402685" lon="9.516428085966263"><ele>1099.0</ele><time>2026-05-02T15:18:42.998Z</time></trkpt><trkpt lat="44.71784375915334" lon="9.516409546261537"><ele>1096.6666666666665</ele><time>2026-05-02T15:18:44.998Z</time></trkpt><trkpt lat="44.71792245422397" lon="9.516451722324591"><ele>1094.3333333333333</ele><time>2026-05-02T15:18:45.998Z</time></trkpt><trkpt lat="44.71804381024858" lon="9.516450179667924"><ele>1092.0</ele><time>2026-05-02T15:18:47.998Z</time></trkpt><trkpt lat="44.71812080880051" lon="9.516442514292379"><ele>1089.6666666666667</ele><time>2026-05-02T15:18:48.998Z</time></trkpt><trkpt lat="44.71820119766435" lon="9.516443459335475"><ele>1087.3333333333335</ele><time>2026-05-02T15:18:49.998Z</time></trkpt><trkpt lat="44.71826579933943" lon="9.516429650032457"><ele>1085.0</ele><time>2026-05-02T15:18:51Z</time></trkpt><trkpt lat="44.71837926686911" lon="9.516400879964255"><ele>1085.0</ele><time>2026-05-02T15:18:53Z</time></trkpt><trkpt lat="44.718468874322056" lon="9.516346568112247"><ele>1085.0</ele><time>2026-05-02T15:18:55Z</time></trkpt><trkpt lat="44.71856229144815" lon="9.516437380314194"><ele>1085.0</ele><time>2026-05-02T15:18:57Z</time></trkpt><trkpt lat="44.71866240965731" lon="9.516484789569322"><ele>1085.0</ele><time>2026-05-02T15:18:59Z</time></trkpt><trkpt lat="44.71873652752491" lon="9.516490475551636"><ele>1085.0</ele><time>2026-05-02T15:19:02Z</time></trkpt><trkpt lat="44.718778414438745" lon="9.516599197218884"><ele>1085.0</ele><time>2026-05-02T15:19:07Z</time></trkpt><trkpt lat="44.71871409642192" lon="9.51668813497185"><ele>1085.0</ele><time>2026-05-02T15:19:09Z</time></trkpt><trkpt lat="44.71867818266212" lon="9.5167853944612"><ele>1085.0</ele><time>2026-05-02T15:20:23.998Z</time></trkpt><trkpt lat="44.718605207362" lon="9.516858275045307"><ele>1085.0</ele><time>2026-05-02T15:20:25.998Z</time></trkpt><trkpt lat="44.71852929842207" lon="9.516900218824432"><ele>1085.0</ele><time>2026-05-02T15:20:26.998Z</time></trkpt><trkpt lat="44.71844990135665" lon="9.516937208344329"><ele>1085.0</ele><time>2026-05-02T15:20:27.998Z</time></trkpt><trkpt lat="44.71838221351951" lon="9.516984958882379"><ele>1085.0</ele><time>2026-05-02T15:20:28.998Z</time></trkpt><trkpt lat="44.71832284987177" lon="9.517051584088152"><ele>1085.0</ele><time>2026-05-02T15:20:29.998Z</time></trkpt><trkpt lat="44.71827400437725" lon="9.517128905456604"><ele>1085.0</ele><time>2026-05-02T15:20:30.998Z</time></trkpt><trkpt lat="44.718201492770405" lon="9.51724447751968"><ele>1085.0</ele><time>2026-05-02T15:20:32.998Z</time></trkpt><trkpt lat="44.71814907249275" lon="9.517300593195213"><ele>1085.0</ele><time>2026-05-02T15:20:33.998Z</time></trkpt><trkpt lat="44.718095062213756" lon="9.517366667644104"><ele>1085.0</ele><time>2026-05-02T15:20:34.998Z</time></trkpt><trkpt lat="44.718027776138456" lon="9.51742171785182"><ele>1083.0</ele><time>2026-05-02T15:20:35.998Z</time></trkpt><trkpt lat="44.71794677022135" lon="9.51747721909043"><ele>1081.0</ele><time>2026-05-02T15:20:36.998Z</time></trkpt><trkpt lat="44.71787552145976" lon="9.51751990123862"><ele>1079.0</ele><time>2026-05-02T15:20:37.998Z</time></trkpt><trkpt lat="44.717817133730556" lon="9.517657303334731"><ele>1077.0</ele><time>2026-05-02T15:20:39.998Z</time></trkpt><trkpt lat="44.71776299387044" lon="9.517775647420956"><ele>1075.0</ele><time>2026-05-02T15:20:41.998Z</time></trkpt><trkpt lat="44.71771773721518" lon="9.517847291210817"><ele>1073.0</ele><time>2026-05-02T15:20:42.998Z</time></trkpt><trkpt lat="44.717674701581" lon="9.51800230754171"><ele>1070.3333333333335</ele><time>2026-05-02T15:20:44.998Z</time></trkpt><trkpt lat="44.717675142713205" lon="9.518093985211495"><ele>1067.6666666666667</ele><time>2026-05-02T15:20:45.998Z</time></trkpt><trkpt lat="44.717656918762515" lon="9.518200894885899"><ele>1065.0</ele><time>2026-05-02T15:20:46.998Z</time></trkpt><trkpt lat="44.71761722083096" lon="9.518279922784394"><ele>1062.3333333333333</ele><time>2026-05-02T15:20:47.998Z</time></trkpt><trkpt lat="44.71754410956173" lon="9.518349970068192"><ele>1059.6666666666665</ele><time>2026-05-02T15:20:48.998Z</time></trkpt><trkpt lat="44.7174637412382" lon="9.518447387710209"><ele>1057.0</ele><time>2026-05-02T15:20:49.998Z</time></trkpt><trkpt lat="44.71741518887419" lon="9.51851264383359"><ele>1057.0</ele><time>2026-05-02T15:20:50.998Z</time></trkpt><trkpt lat="44.717354702368574" lon="9.518581703819994"><ele>1057.0</ele><time>2026-05-02T15:20:51.998Z</time></trkpt><trkpt lat="44.717278351853174" lon="9.518611486968947"><ele>1057.0</ele><time>2026-05-02T15:20:52.998Z</time></trkpt><trkpt lat="44.71718015048889" lon="9.51864169008636"><ele>1057.0</ele><time>2026-05-02T15:20:54.998Z</time></trkpt><trkpt lat="44.717121978256785" lon="9.518676917591282"><ele>1057.0</ele><time>2026-05-02T15:21:12Z</time></trkpt><trkpt lat="44.71711743061545" lon="9.518819304697839"><ele>1057.0</ele><time>2026-05-02T15:21:14Z</time></trkpt><trkpt lat="44.71714363631997" lon="9.518923051406922"><ele>1054.5</ele><time>2026-05-02T15:21:15Z</time></trkpt><trkpt lat="44.71715274539207" lon="9.519016647445715"><ele>1052.0</ele><time>2026-05-02T15:21:17Z</time></trkpt><trkpt lat="44.71720020277258" lon="9.519115624850949"><ele>1049.5</ele><time>2026-05-02T15:21:19Z</time></trkpt><trkpt lat="44.71726039938484" lon="9.519192265421248"><ele>1047.0</ele><time>2026-05-02T15:21:21Z</time></trkpt><trkpt lat="44.71723270475698" lon="9.519277994410269"><ele>1044.5</ele><time>2026-05-02T15:21:23Z</time></trkpt><trkpt lat="44.71709560582214" lon="9.519326749041275"><ele>1042.0</ele><time>2026-05-02T15:21:26Z</time></trkpt><trkpt lat="44.717026438488745" lon="9.519331859455628"><ele>1042.0</ele><time>2026-05-02T15:21:27Z</time></trkpt><trkpt lat="44.71691390940697" lon="9.5194521586954"><ele>1042.0</ele><time>2026-05-02T15:21:29Z</time></trkpt><trkpt lat="44.716849601655845" lon="9.519526834313757"><ele>1042.0</ele><time>2026-05-02T15:21:30Z</time></trkpt><trkpt lat="44.71680555325386" lon="9.519604242447166"><ele>1042.0</ele><time>2026-05-02T15:21:31Z</time></trkpt><trkpt lat="44.71677012257576" lon="9.519750993454439"><ele>1042.0</ele><time>2026-05-02T15:21:33Z</time></trkpt><trkpt lat="44.716811752191965" lon="9.519848661748103"><ele>1039.4</ele><time>2026-05-02T15:21:35Z</time></trkpt><trkpt lat="44.71677465164898" lon="9.520029392573996"><ele>1036.8000000000002</ele><time>2026-05-02T15:21:36.999Z</time></trkpt><trkpt lat="44.71672384177701" lon="9.520141062053815"><ele>1034.2</ele><time>2026-05-02T15:21:37.999Z</time></trkpt><trkpt lat="44.71667893735931" lon="9.52022471729517"><ele>1031.6000000000001</ele><time>2026-05-02T15:21:38.999Z</time></trkpt><trkpt lat="44.71662459661479" lon="9.520304581693434"><ele>1029.0</ele><time>2026-05-02T15:21:39.999Z</time></trkpt><trkpt lat="44.71656143729349" lon="9.520400087497679"><ele>1026.1666666666667</ele><time>2026-05-02T15:21:40.999Z</time></trkpt><trkpt lat="44.716490775518096" lon="9.520492246905825"><ele>1023.3333333333333</ele><time>2026-05-02T15:21:41.999Z</time></trkpt><trkpt lat="44.716443642592886" lon="9.52059273437449"><ele>1020.5</ele><time>2026-05-02T15:21:42.999Z</time></trkpt><trkpt lat="44.716401166695384" lon="9.520674585335916"><ele>1017.6666666666666</ele><time>2026-05-02T15:21:43.999Z</time></trkpt><trkpt lat="44.7163266691154" lon="9.520782052330757"><ele>1014.8333333333333</ele><time>2026-05-02T15:21:45.999Z</time></trkpt><trkpt lat="44.71625460213719" lon="9.520815599849394"><ele>1012.0</ele><time>2026-05-02T15:21:47.999Z</time></trkpt><trkpt lat="44.716182624254586" lon="9.520842341700698"><ele>1012.0</ele><time>2026-05-02T15:21:49.999Z</time></trkpt><trkpt lat="44.71613702375713" lon="9.520961497261618"><ele>1012.0</ele><time>2026-05-02T15:21:51.999Z</time></trkpt><trkpt lat="44.71615794931485" lon="9.521074810414943"><ele>1012.0</ele><time>2026-05-02T15:21:53.999Z</time></trkpt><trkpt lat="44.71613724684272" lon="9.5211714364078"><ele>1012.0</ele><time>2026-05-02T15:21:55.999Z</time></trkpt><trkpt lat="44.71610178541193" lon="9.52130690049215"><ele>1012.0</ele><time>2026-05-02T15:21:57.999Z</time></trkpt><trkpt lat="44.716030255170715" lon="9.521456088593784"><ele>1009.4999999999999</ele><time>2026-05-02T15:21:59.999Z</time></trkpt><trkpt lat="44.716003258405806" lon="9.52153774562325"><ele>1007.0</ele><time>2026-05-02T15:22:00.999Z</time></trkpt><trkpt lat="44.71597145572274" lon="9.521631825788594"><ele>1004.5</ele><time>2026-05-02T15:22:01.999Z</time></trkpt><trkpt lat="44.715958858885706" lon="9.521722545989931"><ele>1002.0</ele><time>2026-05-02T15:22:02.999Z</time></trkpt><trkpt lat="44.71596315233387" lon="9.52183824476768"><ele>999.4999999999999</ele><time>2026-05-02T15:22:04.999Z</time></trkpt><trkpt lat="44.71586118644214" lon="9.5219127312442"><ele>997.0</ele><time>2026-05-02T15:22:07.999Z</time></trkpt><trkpt lat="44.715785678351935" lon="9.521969372063209"><ele>996.9999999999999</ele><time>2026-05-02T15:22:09.999Z</time></trkpt><trkpt lat="44.71573710224968" lon="9.522057265472439"><ele>997.0</ele><time>2026-05-02T15:22:26.998Z</time></trkpt><trkpt lat="44.71563067813105" lon="9.522096160299345"><ele>997.0</ele><time>2026-05-02T15:22:28.998Z</time></trkpt><trkpt lat="44.715563929886756" lon="9.52210851853867"><ele>997.0</ele><time>2026-05-02T15:22:31.998Z</time></trkpt><trkpt lat="44.715490626679156" lon="9.522082216692997"><ele>996.9999999999999</ele><time>2026-05-02T15:22:33.998Z</time></trkpt><trkpt lat="44.7154158243564" lon="9.522062831599401"><ele>997.0</ele><time>2026-05-02T15:22:35.998Z</time></trkpt><trkpt lat="44.71537694663662" lon="9.522170885897971"><ele>995.8333333333333</ele><time>2026-05-02T15:22:37.998Z</time></trkpt><trkpt lat="44.71537173479712" lon="9.522261175933203"><ele>994.6666666666666</ele><time>2026-05-02T15:22:38.998Z</time></trkpt><trkpt lat="44.715356034563435" lon="9.522368625752827"><ele>993.5</ele><time>2026-05-02T15:22:40.998Z</time></trkpt><trkpt lat="44.71531881812723" lon="9.5224634340571"><ele>992.3333333333333</ele><time>2026-05-02T15:22:42.998Z</time></trkpt><trkpt lat="44.71525011597403" lon="9.522528149004728"><ele>991.1666666666666</ele><time>2026-05-02T15:22:44.998Z</time></trkpt><trkpt lat="44.71514276322174" lon="9.522548788972884"><ele>990.0</ele><time>2026-05-02T15:22:46.998Z</time></trkpt><trkpt lat="44.71508593437034" lon="9.522591007877802"><ele>990.0</ele><time>2026-05-02T15:22:47.998Z</time></trkpt><trkpt lat="44.71505279685429" lon="9.522768138202373"><ele>990.0</ele><time>2026-05-02T15:22:49.998Z</time></trkpt><trkpt lat="44.71499864498196" lon="9.522850350201299"><ele>990.0</ele><time>2026-05-02T15:22:51.998Z</time></trkpt><trkpt lat="44.714944561739536" lon="9.522898868024015"><ele>990.0</ele><time>2026-05-02T15:22:52.998Z</time></trkpt><trkpt lat="44.714861718997085" lon="9.522950430441416"><ele>990.0</ele><time>2026-05-02T15:22:53.998Z</time></trkpt><trkpt lat="44.714786808580165" lon="9.52302204243813"><ele>987.8</ele><time>2026-05-02T15:22:55.998Z</time></trkpt><trkpt lat="44.71475514447477" lon="9.523121163635329"><ele>985.6</ele><time>2026-05-02T15:22:57.998Z</time></trkpt><trkpt lat="44.714748838451634" lon="9.523243804344304"><ele>983.4000000000001</ele><time>2026-05-02T15:22:58.998Z</time></trkpt><trkpt lat="44.714703977392624" lon="9.523437867162912"><ele>981.2</ele><time>2026-05-02T15:23:00.998Z</time></trkpt><trkpt lat="44.714655169420325" lon="9.523562153915043"><ele>979.0</ele><time>2026-05-02T15:23:01.998Z</time></trkpt><trkpt lat="44.71463745475215" lon="9.523678770921457"><ele>978.1428571428571</ele><time>2026-05-02T15:23:03Z</time></trkpt><trkpt lat="44.7146009428098" lon="9.52377381461799"><ele>977.2857142857143</ele><time>2026-05-02T15:23:04Z</time></trkpt><trkpt lat="44.714574984828786" lon="9.523865363562342"><ele>976.4285714285714</ele><time>2026-05-02T15:23:05Z</time></trkpt><trkpt lat="44.71454850582928" lon="9.52397820874038"><ele>975.5714285714286</ele><time>2026-05-02T15:23:06Z</time></trkpt><trkpt lat="44.71452858699358" lon="9.524083457713768"><ele>974.7142857142858</ele><time>2026-05-02T15:23:07Z</time></trkpt><trkpt lat="44.71449607436207" lon="9.524169678833724"><ele>973.8571428571429</ele><time>2026-05-02T15:23:08Z</time></trkpt><trkpt lat="44.71446983657723" lon="9.524254302552288"><ele>973.0</ele><time>2026-05-02T15:23:09Z</time></trkpt><trkpt lat="44.71444189190896" lon="9.524342989770481"><ele>973.0</ele><time>2026-05-02T15:23:10Z</time></trkpt><trkpt lat="44.71440946875333" lon="9.524478124994628"><ele>973.0</ele><time>2026-05-02T15:23:12Z</time></trkpt><trkpt lat="44.71436728093478" lon="9.524619079227849"><ele>973.0</ele><time>2026-05-02T15:23:14Z</time></trkpt><trkpt lat="44.71435996920464" lon="9.524750895090783"><ele>973.0</ele><time>2026-05-02T15:23:16Z</time></trkpt><trkpt lat="44.71435243532292" lon="9.524878514140715"><ele>973.0</ele><time>2026-05-02T15:23:19Z</time></trkpt><trkpt lat="44.714364747561696" lon="9.525008069285937"><ele>971.4</ele><time>2026-05-02T15:23:22Z</time></trkpt><trkpt lat="44.714387397305735" lon="9.525198088726931"><ele>969.8</ele><time>2026-05-02T15:23:24Z</time></trkpt><trkpt lat="44.714412106733896" lon="9.525290416881566"><ele>968.2</ele><time>2026-05-02T15:23:25Z</time></trkpt><trkpt lat="44.714439970740024" lon="9.525371932048644"><ele>966.6</ele><time>2026-05-02T15:23:26Z</time></trkpt><trkpt lat="44.714464678082315" lon="9.525531847045281"><ele>965.0</ele><time>2026-05-02T15:23:28Z</time></trkpt><trkpt lat="44.71444674308422" lon="9.525704222032749"><ele>963.1666666666667</ele><time>2026-05-02T15:23:30Z</time></trkpt><trkpt lat="44.714407583210345" lon="9.525787678285752"><ele>961.3333333333334</ele><time>2026-05-02T15:23:31Z</time></trkpt><trkpt lat="44.71436903019423" lon="9.525868019193606"><ele>959.5</ele><time>2026-05-02T15:23:32Z</time></trkpt><trkpt lat="44.71433955171498" lon="9.525962990556135"><ele>957.6666666666667</ele><time>2026-05-02T15:23:33Z</time></trkpt><trkpt lat="44.71431420925064" lon="9.526089214838223"><ele>955.8333333333334</ele><time>2026-05-02T15:23:34Z</time></trkpt><trkpt lat="44.71427820854226" lon="9.52622462206786"><ele>954.0</ele><time>2026-05-02T15:23:35Z</time></trkpt><trkpt lat="44.714245689722716" lon="9.526335459174907"><ele>952.5</ele><time>2026-05-02T15:23:36Z</time></trkpt><trkpt lat="44.714216423849145" lon="9.526441640892509"><ele>951.0</ele><time>2026-05-02T15:23:37Z</time></trkpt><trkpt lat="44.71418362689528" lon="9.526556100681649"><ele>949.5</ele><time>2026-05-02T15:23:38Z</time></trkpt><trkpt lat="44.714144699674364" lon="9.526669809869656"><ele>948.0</ele><time>2026-05-02T15:23:39Z</time></trkpt><trkpt lat="44.71410536249773" lon="9.526796216705353"><ele>946.5</ele><time>2026-05-02T15:23:40Z</time></trkpt><trkpt lat="44.71407058302024" lon="9.52689267108281"><ele>945.0</ele><time>2026-05-02T15:23:41Z</time></trkpt><trkpt lat="44.71405215417037" lon="9.526980468261831"><ele>945.0</ele><time>2026-05-02T15:23:42.999Z</time></trkpt><trkpt lat="44.71415462193997" lon="9.52699945005244"><ele>945.0</ele><time>2026-05-02T15:24:53.998Z</time></trkpt><trkpt lat="44.71423813415114" lon="9.526962596427303"><ele>945.0</ele><time>2026-05-02T15:24:54.998Z</time></trkpt><trkpt lat="44.71432364017408" lon="9.526939312127254"><ele>945.0</ele><time>2026-05-02T15:24:55.998Z</time></trkpt><trkpt lat="44.7143921506359" lon="9.5268790091295"><ele>945.0</ele><time>2026-05-02T15:24:56.998Z</time></trkpt><trkpt lat="44.71444853077586" lon="9.526836523179012"><ele>945.0</ele><time>2026-05-02T15:24:57.998Z</time></trkpt><trkpt lat="44.71452957123336" lon="9.526837461691967"><ele>944.5</ele><time>2026-05-02T15:24:58.998Z</time></trkpt><trkpt lat="44.71459530369597" lon="9.526859802122782"><ele>944.0</ele><time>2026-05-02T15:24:59.998Z</time></trkpt><trkpt lat="44.71466882522254" lon="9.526894401741957"><ele>943.5</ele><time>2026-05-02T15:25:00.998Z</time></trkpt><trkpt lat="44.71473233415353" lon="9.526927947016187"><ele>943.0</ele><time>2026-05-02T15:25:01.998Z</time></trkpt><trkpt lat="44.714808347179705" lon="9.526947733626676"><ele>942.5</ele><time>2026-05-02T15:25:02.998Z</time></trkpt><trkpt lat="44.71486491141851" lon="9.526994267620621"><ele>942.0</ele><time>2026-05-02T15:25:03.998Z</time></trkpt><trkpt lat="44.714961984907994" lon="9.527058712045658"><ele>939.5</ele><time>2026-05-02T15:25:05.998Z</time></trkpt><trkpt lat="44.71501165183208" lon="9.527187992265025"><ele>937.0</ele><time>2026-05-02T15:25:07.998Z</time></trkpt><trkpt lat="44.71500715967617" lon="9.527278375657835"><ele>934.5</ele><time>2026-05-02T15:25:09Z</time></trkpt><trkpt lat="44.7149840483926" lon="9.527378555956103"><ele>932.0</ele><time>2026-05-02T15:25:10Z</time></trkpt><trkpt lat="44.71497012120144" lon="9.527494082130046"><ele>929.5</ele><time>2026-05-02T15:25:11Z</time></trkpt><trkpt lat="44.71496449818575" lon="9.527609596500822"><ele>927.0</ele><time>2026-05-02T15:25:12Z</time></trkpt><trkpt lat="44.71495350975639" lon="9.527717739197088"><ele>927.0</ele><time>2026-05-02T15:25:13Z</time></trkpt><trkpt lat="44.714931139738496" lon="9.527827316674244"><ele>927.0</ele><time>2026-05-02T15:25:14Z</time></trkpt><trkpt lat="44.71489138477333" lon="9.527950513788351"><ele>927.0</ele><time>2026-05-02T15:25:15Z</time></trkpt><trkpt lat="44.71485547092715" lon="9.528067022124144"><ele>927.0</ele><time>2026-05-02T15:25:16Z</time></trkpt><trkpt lat="44.71483220828597" lon="9.528190516929866"><ele>927.0</ele><time>2026-05-02T15:25:17Z</time></trkpt><trkpt lat="44.71481930490628" lon="9.528322041479369"><ele>924.8</ele><time>2026-05-02T15:25:18Z</time></trkpt><trkpt lat="44.714810787915546" lon="9.528462034029772"><ele>922.6</ele><time>2026-05-02T15:25:19Z</time></trkpt><trkpt lat="44.714803016593294" lon="9.52859074390869"><ele>920.3999999999999</ele><time>2026-05-02T15:25:20Z</time></trkpt><trkpt lat="44.71478733164622" lon="9.528714238484952"><ele>918.1999999999999</ele><time>2026-05-02T15:25:21Z</time></trkpt><trkpt lat="44.71476589768141" lon="9.528835745825063"><ele>916.0</ele><time>2026-05-02T15:25:22Z</time></trkpt><trkpt lat="44.71474194284003" lon="9.528965702054302"><ele>914.1999999999999</ele><time>2026-05-02T15:25:23Z</time></trkpt><trkpt lat="44.714718725997635" lon="9.52911978999999"><ele>912.3999999999999</ele><time>2026-05-02T15:25:24Z</time></trkpt><trkpt lat="44.71469556053783" lon="9.529263960131207"><ele>910.6</ele><time>2026-05-02T15:25:25Z</time></trkpt><trkpt lat="44.71466945825263" lon="9.529405274756241"><ele>908.8</ele><time>2026-05-02T15:25:26Z</time></trkpt><trkpt lat="44.71463810646157" lon="9.52954264484305"><ele>907.0</ele><time>2026-05-02T15:25:27Z</time></trkpt><trkpt lat="44.71460159878303" lon="9.529673810093843"><ele>905.6</ele><time>2026-05-02T15:25:28Z</time></trkpt><trkpt lat="44.71456411089323" lon="9.529805073358032"><ele>904.2</ele><time>2026-05-02T15:25:29Z</time></trkpt><trkpt lat="44.714527468602725" lon="9.529928762026202"><ele>902.8</ele><time>2026-05-02T15:25:30Z</time></trkpt><trkpt lat="44.71449306681594" lon="9.530041795517379"><ele>901.4</ele><time>2026-05-02T15:25:31Z</time></trkpt><trkpt lat="44.71446709823447" lon="9.530164633053003"><ele>900.0</ele><time>2026-05-02T15:25:32Z</time></trkpt><trkpt lat="44.71444036927146" lon="9.530290196124746"><ele>899.2</ele><time>2026-05-02T15:25:33Z</time></trkpt><trkpt lat="44.7144038754534" lon="9.530401884812413"><ele>898.4</ele><time>2026-05-02T15:25:34Z</time></trkpt><trkpt lat="44.71435853362026" lon="9.53052903653828"><ele>897.5999999999999</ele><time>2026-05-02T15:25:35Z</time></trkpt><trkpt lat="44.714321581183555" lon="9.530650980618823"><ele>896.8</ele><time>2026-05-02T15:25:36Z</time></trkpt><trkpt lat="44.71429004753288" lon="9.53077064233154"><ele>896.0</ele><time>2026-05-02T15:25:37Z</time></trkpt><trkpt lat="44.714246082213805" lon="9.530896168216527"><ele>896.0</ele><time>2026-05-02T15:25:38Z</time></trkpt><trkpt lat="44.714178541703625" lon="9.53102722181663"><ele>895.9999999999999</ele><time>2026-05-02T15:25:39Z</time></trkpt><trkpt lat="44.71410865056459" lon="9.531165277702188"><ele>895.9999999999999</ele><time>2026-05-02T15:25:40Z</time></trkpt><trkpt lat="44.71404872508558" lon="9.531280812883988"><ele>896.0</ele><time>2026-05-02T15:25:41Z</time></trkpt><trkpt lat="44.713996670703175" lon="9.53138497243683"><ele>896.0</ele><time>2026-05-02T15:25:42Z</time></trkpt><trkpt lat="44.713938123481796" lon="9.531469018316837"><ele>894.4</ele><time>2026-05-02T15:25:43Z</time></trkpt><trkpt lat="44.71386766260343" lon="9.531537603113511"><ele>892.8</ele><time>2026-05-02T15:25:44Z</time></trkpt><trkpt lat="44.713782785785234" lon="9.53159968220267"><ele>891.1999999999999</ele><time>2026-05-02T15:25:45Z</time></trkpt><trkpt lat="44.71369768800544" lon="9.53165217413975"><ele>889.5999999999999</ele><time>2026-05-02T15:25:46Z</time></trkpt><trkpt lat="44.71361152288159" lon="9.531704806663098"><ele>888.0</ele><time>2026-05-02T15:25:47Z</time></trkpt><trkpt lat="44.71352785270851" lon="9.5317694306395"><ele>888.0</ele><time>2026-05-02T15:25:48Z</time></trkpt><trkpt lat="44.71345174684285" lon="9.531845212320345"><ele>888.0</ele><time>2026-05-02T15:25:48.999Z</time></trkpt><trkpt lat="44.7133717099703" lon="9.531924488073097"><ele>888.0</ele><time>2026-05-02T15:25:49.999Z</time></trkpt><trkpt lat="44.71328611426653" lon="9.53200307387325"><ele>888.0</ele><time>2026-05-02T15:25:50.999Z</time></trkpt><trkpt lat="44.71321231954612" lon="9.532075464925256"><ele>888.0</ele><time>2026-05-02T15:25:51.999Z</time></trkpt><trkpt lat="44.71313992499969" lon="9.532159386266848"><ele>886.4</ele><time>2026-05-02T15:25:52.999Z</time></trkpt><trkpt lat="44.71307808944312" lon="9.532252439911085"><ele>884.8</ele><time>2026-05-02T15:25:53.999Z</time></trkpt><trkpt lat="44.713026358492925" lon="9.532356321909143"><ele>883.2</ele><time>2026-05-02T15:25:54.999Z</time></trkpt><trkpt lat="44.71298362839441" lon="9.532467933807153"><ele>881.6</ele><time>2026-05-02T15:25:55.999Z</time></trkpt><trkpt lat="44.71293381636855" lon="9.532596249977052"><ele>880.0</ele><time>2026-05-02T15:25:56.999Z</time></trkpt><trkpt lat="44.71288706471339" lon="9.53273362260886"><ele>880.0</ele><time>2026-05-02T15:25:57.999Z</time></trkpt><trkpt lat="44.71283965215207" lon="9.532863166670863"><ele>880.0</ele><time>2026-05-02T15:25:58.999Z</time></trkpt><trkpt lat="44.71277327492341" lon="9.532984483037742"><ele>880.0</ele><time>2026-05-02T15:25:59.999Z</time></trkpt><trkpt lat="44.71271163754964" lon="9.533091755475953"><ele>880.0</ele><time>2026-05-02T15:26:00.999Z</time></trkpt><trkpt lat="44.7126564290754" lon="9.533195975952564"><ele>880.0</ele><time>2026-05-02T15:26:01.999Z</time></trkpt><trkpt lat="44.712593537715584" lon="9.533288260177505"><ele>877.2</ele><time>2026-05-02T15:26:02.999Z</time></trkpt><trkpt lat="44.71252991783981" lon="9.533382852818947"><ele>874.4</ele><time>2026-05-02T15:26:03.999Z</time></trkpt><trkpt lat="44.71247423365247" lon="9.53348177342411"><ele>871.5999999999999</ele><time>2026-05-02T15:26:04.999Z</time></trkpt><trkpt lat="44.712411406575455" lon="9.53356466893822"><ele>868.8</ele><time>2026-05-02T15:26:05.999Z</time></trkpt><trkpt lat="44.7123282734306" lon="9.533637010999854"><ele>866.0</ele><time>2026-05-02T15:26:06.999Z</time></trkpt><trkpt lat="44.71225009227697" lon="9.533694660199135"><ele>864.8333333333334</ele><time>2026-05-02T15:26:07.999Z</time></trkpt><trkpt lat="44.71219831050168" lon="9.533774395249305"><ele>863.6666666666667</ele><time>2026-05-02T15:26:09.999Z</time></trkpt><trkpt lat="44.71215797881906" lon="9.533885277606984"><ele>862.5</ele><time>2026-05-02T15:27:10.998Z</time></trkpt><trkpt lat="44.712131802300505" lon="9.533973141813718"><ele>861.3333333333333</ele><time>2026-05-02T15:27:11.998Z</time></trkpt><trkpt lat="44.71208818443879" lon="9.534057959572523"><ele>860.1666666666666</ele><time>2026-05-02T15:27:12.998Z</time></trkpt><trkpt lat="44.712051465343954" lon="9.534196004352443"><ele>859.0</ele><time>2026-05-02T15:27:15Z</time></trkpt><trkpt lat="44.71202217965052" lon="9.534331548363763"><ele>858.9999999999999</ele><time>2026-05-02T15:27:17Z</time></trkpt><trkpt lat="44.7119940762747" lon="9.534484728088962"><ele>859.0</ele><time>2026-05-02T15:27:19Z</time></trkpt><trkpt lat="44.71195582658116" lon="9.534598808593987"><ele>859.0</ele><time>2026-05-02T15:27:20Z</time></trkpt><trkpt lat="44.71191707449455" lon="9.534699390591078"><ele>859.0</ele><time>2026-05-02T15:27:21Z</time></trkpt><trkpt lat="44.71188442050209" lon="9.53479824166366"><ele>858.9999999999999</ele><time>2026-05-02T15:27:22Z</time></trkpt><trkpt lat="44.71185477540112" lon="9.534910259792674"><ele>859.0</ele><time>2026-05-02T15:27:23Z</time></trkpt><trkpt lat="44.71182391276322" lon="9.535030039479581"><ele>857.1666666666666</ele><time>2026-05-02T15:27:24Z</time></trkpt><trkpt lat="44.71179571384135" lon="9.535140743140925"><ele>855.3333333333333</ele><time>2026-05-02T15:27:25Z</time></trkpt><trkpt lat="44.7117690226451" lon="9.535243775307714"><ele>853.5</ele><time>2026-05-02T15:27:26Z</time></trkpt><trkpt lat="44.71174464843672" lon="9.535346553133417"><ele>851.6666666666667</ele><time>2026-05-02T15:27:27Z</time></trkpt><trkpt lat="44.71172187792738" lon="9.53543462311491"><ele>849.8333333333334</ele><time>2026-05-02T15:27:28Z</time></trkpt><trkpt lat="44.71171687166924" lon="9.53561022985289"><ele>848.0</ele><time>2026-05-02T15:27:30Z</time></trkpt><trkpt lat="44.7117406796283" lon="9.535742681979082"><ele>846.8333333333334</ele><time>2026-05-02T15:27:32Z</time></trkpt><trkpt lat="44.71170724011893" lon="9.535834662962062"><ele>845.6666666666667</ele><time>2026-05-02T15:27:35Z</time></trkpt><trkpt lat="44.71173556438561" lon="9.53592359436365"><ele>844.5</ele><time>2026-05-02T15:27:38Z</time></trkpt><trkpt lat="44.71177684740946" lon="9.536043188154773"><ele>843.3333333333333</ele><time>2026-05-02T15:27:40Z</time></trkpt><trkpt lat="44.71182239925905" lon="9.53616481769357"><ele>842.1666666666666</ele><time>2026-05-02T15:27:42Z</time></trkpt><trkpt lat="44.71185739597828" lon="9.536309715225132"><ele>841.0</ele><time>2026-05-02T15:27:44Z</time></trkpt><trkpt lat="44.71187599727007" lon="9.536465128999847"><ele>837.5999999999999</ele><time>2026-05-02T15:27:46Z</time></trkpt><trkpt lat="44.71191021891177" lon="9.536588409374723"><ele>834.2</ele><time>2026-05-02T15:27:48Z</time></trkpt><trkpt lat="44.711968682710626" lon="9.53673234484422"><ele>830.8</ele><time>2026-05-02T15:27:50Z</time></trkpt><trkpt lat="44.71199988151099" lon="9.536881221698762"><ele>827.4000000000001</ele><time>2026-05-02T15:27:52Z</time></trkpt><trkpt lat="44.71200233574812" lon="9.537038894011056"><ele>824.0</ele><time>2026-05-02T15:27:58.999Z</time></trkpt><trkpt lat="44.71197787466013" lon="9.537137963741797"><ele>823.4000000000001</ele><time>2026-05-02T15:27:59.999Z</time></trkpt><trkpt lat="44.71193767942816" lon="9.537291520600569"><ele>822.8</ele><time>2026-05-02T15:28:01.999Z</time></trkpt><trkpt lat="44.711906153224994" lon="9.537459876961146"><ele>822.2</ele><time>2026-05-02T15:28:03.999Z</time></trkpt><trkpt lat="44.71188062927973" lon="9.5375486176676"><ele>821.5999999999999</ele><time>2026-05-02T15:28:05.999Z</time></trkpt><trkpt lat="44.71187165119801" lon="9.537672893949361"><ele>821.0</ele><time>2026-05-02T15:28:12.999Z</time></trkpt><trkpt lat="44.71186965069318" lon="9.537801388262618"><ele>819.1666666666667</ele><time>2026-05-02T15:28:14.999Z</time></trkpt><trkpt lat="44.71188353718796" lon="9.537921843756306"><ele>817.3333333333334</ele><time>2026-05-02T15:28:16.999Z</time></trkpt><trkpt lat="44.71194214182629" lon="9.537991608698007"><ele>815.5</ele><time>2026-05-02T15:28:18.999Z</time></trkpt><trkpt lat="44.711976754778796" lon="9.538118172166284"><ele>813.6666666666667</ele><time>2026-05-02T15:28:20.999Z</time></trkpt><trkpt lat="44.71200496973861" lon="9.53827134832609"><ele>811.8333333333334</ele><time>2026-05-02T15:28:22.999Z</time></trkpt><trkpt lat="44.71196603637664" lon="9.53835836339792"><ele>810.0</ele><time>2026-05-02T15:28:25.999Z</time></trkpt><trkpt lat="44.711896643844575" lon="9.538423764498678"><ele>810.0</ele><time>2026-05-02T15:28:27.999Z</time></trkpt><trkpt lat="44.71189547870283" lon="9.538531404811305"><ele>810.0</ele><time>2026-05-02T15:28:29.999Z</time></trkpt><trkpt lat="44.711922450361435" lon="9.538638799812343"><ele>810.0</ele><time>2026-05-02T15:28:31.999Z</time></trkpt><trkpt lat="44.71198330419257" lon="9.53872519708755"><ele>810.0</ele><time>2026-05-02T15:28:33.999Z</time></trkpt><trkpt lat="44.71204962198491" lon="9.538746345027501"><ele>810.0</ele><time>2026-05-02T15:28:34.999Z</time></trkpt><trkpt lat="44.712125208755864" lon="9.538772624258247"><ele>810.0</ele><time>2026-05-02T15:28:35.999Z</time></trkpt><trkpt lat="44.71221748565937" lon="9.538781189161677"><ele>807.3333333333334</ele><time>2026-05-02T15:28:36.999Z</time></trkpt><trkpt lat="44.71228944864502" lon="9.538807231308304"><ele>804.6666666666667</ele><time>2026-05-02T15:28:37.999Z</time></trkpt><trkpt lat="44.71235080015068" lon="9.538848498837002"><ele>802.0</ele><time>2026-05-02T15:28:38.999Z</time></trkpt><trkpt lat="44.71241741320647" lon="9.538919273636983"><ele>799.3333333333334</ele><time>2026-05-02T15:28:40.999Z</time></trkpt><trkpt lat="44.712487772745" lon="9.538912536781826"><ele>796.6666666666667</ele><time>2026-05-02T15:28:42.998Z</time></trkpt><trkpt lat="44.71257816990581" lon="9.538872518794872"><ele>794.0</ele><time>2026-05-02T15:28:44.998Z</time></trkpt><trkpt lat="44.71267365720155" lon="9.538831632849336"><ele>794.0</ele><time>2026-05-02T15:28:46.998Z</time></trkpt><trkpt lat="44.7127378489333" lon="9.538930550052045"><ele>794.0</ele><time>2026-05-02T15:28:49.998Z</time></trkpt><trkpt lat="44.712772750211094" lon="9.539025064728394"><ele>794.0</ele><time>2026-05-02T15:28:51.998Z</time></trkpt><trkpt lat="44.71276753653417" lon="9.539164470085396"><ele>794.0</ele><time>2026-05-02T15:28:54.998Z</time></trkpt><trkpt lat="44.71274545303942" lon="9.539300615928273"><ele>794.0</ele><time>2026-05-02T15:28:56.998Z</time></trkpt><trkpt lat="44.71279860378611" lon="9.539402698124317"><ele>792.5000000000001</ele><time>2026-05-02T15:28:59.998Z</time></trkpt><trkpt lat="44.71281818377465" lon="9.539514085390026"><ele>791.0</ele><time>2026-05-02T15:29:03.998Z</time></trkpt><trkpt lat="44.712842913339564" lon="9.53961789525659"><ele>789.5</ele><time>2026-05-02T15:29:06.998Z</time></trkpt><trkpt lat="44.712818526189096" lon="9.539750385597038"><ele>788.0</ele><time>2026-05-02T15:29:08.998Z</time></trkpt><trkpt lat="44.71276248165376" lon="9.539845282125492"><ele>786.5000000000001</ele><time>2026-05-02T15:29:10.998Z</time></trkpt><trkpt lat="44.71270527009322" lon="9.539917157812138"><ele>785.0</ele><time>2026-05-02T15:29:12.998Z</time></trkpt><trkpt lat="44.71265440163025" lon="9.540084684490129"><ele>784.0000000000001</ele><time>2026-05-02T15:29:15.998Z</time></trkpt><trkpt lat="44.712590522171034" lon="9.540228545891337"><ele>783.0</ele><time>2026-05-02T15:29:17.998Z</time></trkpt><trkpt lat="44.71258056579275" lon="9.540322674823363"><ele>782.0</ele><time>2026-05-02T15:29:22Z</time></trkpt><trkpt lat="44.71259989119899" lon="9.540411491165676"><ele>781.0</ele><time>2026-05-02T15:29:27Z</time></trkpt><trkpt lat="44.71261747265316" lon="9.540511015830972"><ele>780.0000000000001</ele><time>2026-05-02T15:29:30Z</time></trkpt><trkpt lat="44.71268340422678" lon="9.5405884153592"><ele>779.0</ele><time>2026-05-02T15:29:34Z</time></trkpt><trkpt lat="44.712746974211214" lon="9.540705373800503"><ele>775.0000000000001</ele><time>2026-05-02T15:29:36Z</time></trkpt><trkpt lat="44.71283265866501" lon="9.540776031504388"><ele>771.0</ele><time>2026-05-02T15:29:39Z</time></trkpt><trkpt lat="44.71290110814386" lon="9.540807582731086"><ele>767.0</ele><time>2026-05-02T15:29:41Z</time></trkpt><trkpt lat="44.71294584059433" lon="9.540926569452214"><ele>763.0</ele><time>2026-05-02T15:29:43Z</time></trkpt><trkpt lat="44.712981344921026" lon="9.541036525136088"><ele>759.0</ele><time>2026-05-02T15:29:46Z</time></trkpt><trkpt lat="44.713043658194" lon="9.541122017369421"><ele>755.0</ele><time>2026-05-02T15:29:48Z</time></trkpt><trkpt lat="44.71310137202992" lon="9.541168533425276"><ele>753.1666666666666</ele><time>2026-05-02T15:29:51Z</time></trkpt><trkpt lat="44.713149839551825" lon="9.541235604509147"><ele>751.3333333333333</ele><time>2026-05-02T15:29:55Z</time></trkpt><trkpt lat="44.713158003347175" lon="9.541348726500802"><ele>749.5</ele><time>2026-05-02T15:30:39.999Z</time></trkpt><trkpt lat="44.71322547534279" lon="9.541376212282222"><ele>747.6666666666666</ele><time>2026-05-02T15:32:16.999Z</time></trkpt><trkpt lat="44.71329568490154" lon="9.541439115405566"><ele>745.8333333333334</ele><time>2026-05-02T15:32:19.999Z</time></trkpt><trkpt lat="44.71337076670355" lon="9.541601035158205"><ele>744.0</ele><time>2026-05-02T15:32:21.999Z</time></trkpt><trkpt lat="44.713402396712176" lon="9.541691037013669"><ele>744.0</ele><time>2026-05-02T15:32:22.999Z</time></trkpt><trkpt lat="44.713428094726964" lon="9.54177574304547"><ele>744.0</ele><time>2026-05-02T15:32:23.999Z</time></trkpt><trkpt lat="44.71346332331495" lon="9.541902289964053"><ele>744.0</ele><time>2026-05-02T15:32:25.999Z</time></trkpt><trkpt lat="44.71346647152184" lon="9.542031819586354"><ele>744.0</ele><time>2026-05-02T15:32:27.999Z</time></trkpt><trkpt lat="44.71351013255479" lon="9.542111394166666"><ele>744.0</ele><time>2026-05-02T15:32:30.999Z</time></trkpt><trkpt lat="44.71354140300751" lon="9.542229054568288"><ele>744.0</ele><time>2026-05-02T15:32:36.999Z</time></trkpt><trkpt lat="44.71356748524703" lon="9.542333400096387"><ele>743.0</ele><time>2026-05-02T15:32:39.999Z</time></trkpt><trkpt lat="44.713570228427265" lon="9.542431313072909"><ele>742.0</ele><time>2026-05-02T15:32:42.999Z</time></trkpt><trkpt lat="44.71357050967716" lon="9.542535363734558"><ele>741.0</ele><time>2026-05-02T15:32:45.999Z</time></trkpt><trkpt lat="44.713604103135175" lon="9.542627109083542"><ele>740.0</ele><time>2026-05-02T15:32:47.999Z</time></trkpt><trkpt lat="44.71364013610173" lon="9.542737100736034"><ele>739.0</ele><time>2026-05-02T15:32:49.999Z</time></trkpt><trkpt lat="44.713640856672356" lon="9.542855822217595"><ele>738.0</ele><time>2026-05-02T15:32:51.999Z</time></trkpt><trkpt lat="44.71363803001704" lon="9.542989869922465"><ele>736.4</ele><time>2026-05-02T15:32:53.999Z</time></trkpt><trkpt lat="44.7136099867341" lon="9.543117870869828"><ele>734.8</ele><time>2026-05-02T15:32:55.998Z</time></trkpt><trkpt lat="44.71358516197781" lon="9.54328911106257"><ele>733.2</ele><time>2026-05-02T15:32:57.998Z</time></trkpt><trkpt lat="44.71358115891276" lon="9.543417370230912"><ele>731.6</ele><time>2026-05-02T15:32:58.998Z</time></trkpt><trkpt lat="44.71356273356523" lon="9.543521027129584"><ele>730.0</ele><time>2026-05-02T15:32:59.998Z</time></trkpt><trkpt lat="44.71359493480892" lon="9.543684850455806"><ele>727.6666666666667</ele><time>2026-05-02T15:33:01.998Z</time></trkpt><trkpt lat="44.713600559235836" lon="9.543801851609789"><ele>725.3333333333334</ele><time>2026-05-02T15:33:03.998Z</time></trkpt><trkpt lat="44.71361357263536" lon="9.543900225546176"><ele>723.0</ele><time>2026-05-02T15:33:06.998Z</time></trkpt><trkpt lat="44.71362271613394" lon="9.544001203648566"><ele>720.6666666666666</ele><time>2026-05-02T15:33:09.998Z</time></trkpt><trkpt lat="44.71361117715844" lon="9.544156450584804"><ele>718.3333333333333</ele><time>2026-05-02T15:33:11.998Z</time></trkpt><trkpt lat="44.71358141957053" lon="9.544237207433259"><ele>716.0</ele><time>2026-05-02T15:33:13.998Z</time></trkpt><trkpt lat="44.71362144323094" lon="9.544316056512027"><ele>716.0</ele><time>2026-05-02T15:33:19.998Z</time></trkpt><trkpt lat="44.71358138025507" lon="9.544395164491524"><ele>716.0</ele><time>2026-05-02T15:34:01Z</time></trkpt><trkpt lat="44.71368404808853" lon="9.544463368023807"><ele>716.0</ele><time>2026-05-02T15:34:48.999Z</time></trkpt><trkpt lat="44.713747733995746" lon="9.544453534026726"><ele>716.0</ele><time>2026-05-02T15:34:49.999Z</time></trkpt><trkpt lat="44.713841368960104" lon="9.544456338890011"><ele>716.0</ele><time>2026-05-02T15:34:50.999Z</time></trkpt><trkpt lat="44.71392138979205" lon="9.54442971028147"><ele>716.0</ele><time>2026-05-02T15:34:51.999Z</time></trkpt><trkpt lat="44.713975909452024" lon="9.544380678177353"><ele>716.0</ele><time>2026-05-02T15:34:52.999Z</time></trkpt><trkpt lat="44.714046597817855" lon="9.54428398411083"><ele>716.0</ele><time>2026-05-02T15:34:53.999Z</time></trkpt><trkpt lat="44.71411649292106" lon="9.544223628378"><ele>716.0</ele><time>2026-05-02T15:34:54.999Z</time></trkpt><trkpt lat="44.71417919370509" lon="9.544198435313135"><ele>716.0</ele><time>2026-05-02T15:34:55.999Z</time></trkpt><trkpt lat="44.71425221513467" lon="9.544194760756584"><ele>716.0</ele><time>2026-05-02T15:34:56.999Z</time></trkpt><trkpt lat="44.71434194265303" lon="9.544198987416106"><ele>716.0</ele><time>2026-05-02T15:34:57.999Z</time></trkpt><trkpt lat="44.71443017227295" lon="9.544215794200266"><ele>716.1666666666666</ele><time>2026-05-02T15:34:58.999Z</time></trkpt><trkpt lat="44.71450467047693" lon="9.544231100829137"><ele>716.3333333333333</ele><time>2026-05-02T15:34:59.999Z</time></trkpt><trkpt lat="44.71457514024007" lon="9.544255678638981"><ele>716.5</ele><time>2026-05-02T15:35:00.998Z</time></trkpt><trkpt lat="44.71464916134708" lon="9.544293565717176"><ele>716.6666666666666</ele><time>2026-05-02T15:35:01.998Z</time></trkpt><trkpt lat="44.71472786969388" lon="9.544327478517403"><ele>716.8333333333334</ele><time>2026-05-02T15:35:02.998Z</time></trkpt><trkpt lat="44.714800869930336" lon="9.544326011306849"><ele>717.0</ele><time>2026-05-02T15:35:03.998Z</time></trkpt><trkpt lat="44.71489386526481" lon="9.544319575564513"><ele>717.0</ele><time>2026-05-02T15:35:04.998Z</time></trkpt><trkpt lat="44.71499487952907" lon="9.54429961433541"><ele>717.0</ele><time>2026-05-02T15:35:05.998Z</time></trkpt><trkpt lat="44.715082633044396" lon="9.54430809507421"><ele>717.0</ele><time>2026-05-02T15:35:06.998Z</time></trkpt><trkpt lat="44.71515610706479" lon="9.544291442629733"><ele>717.0</ele><time>2026-05-02T15:35:07.998Z</time></trkpt><trkpt lat="44.71521481428447" lon="9.544249241584803"><ele>717.0</ele><time>2026-05-02T15:35:08.998Z</time></trkpt><trkpt lat="44.71528397556103" lon="9.544196067622064"><ele>717.0</ele><time>2026-05-02T15:35:09.998Z</time></trkpt><trkpt lat="44.71536276032406" lon="9.544183966556645"><ele>717.0</ele><time>2026-05-02T15:35:10.998Z</time></trkpt><trkpt lat="44.715454026788954" lon="9.544192765803523"><ele>717.0</ele><time>2026-05-02T15:35:11.998Z</time></trkpt><trkpt lat="44.715552004401104" lon="9.544217342300543"><ele>717.0</ele><time>2026-05-02T15:35:12.998Z</time></trkpt><trkpt lat="44.715640061708434" lon="9.544210635050902"><ele>717.0</ele><time>2026-05-02T15:35:13.998Z</time></trkpt><trkpt lat="44.71571765149475" lon="9.544189902860932"><ele>717.0</ele><time>2026-05-02T15:35:14.998Z</time></trkpt><trkpt lat="44.715785863209305" lon="9.544184746089845"><ele>717.0</ele><time>2026-05-02T15:35:15.998Z</time></trkpt><trkpt lat="44.715847368285324" lon="9.544208675313987"><ele>717.0</ele><time>2026-05-02T15:35:16.998Z</time></trkpt><trkpt lat="44.715909178866134" lon="9.5442444112144"><ele>717.0</ele><time>2026-05-02T15:35:17.998Z</time></trkpt><trkpt lat="44.715972470213494" lon="9.544261980250912"><ele>717.0</ele><time>2026-05-02T15:35:18.998Z</time></trkpt><trkpt lat="44.71607862299834" lon="9.544212123266007"><ele>717.0</ele><time>2026-05-02T15:35:20.998Z</time></trkpt><trkpt lat="44.71614610331398" lon="9.544176448133967"><ele>717.0</ele><time>2026-05-02T15:35:21.998Z</time></trkpt><trkpt lat="44.716231797051115" lon="9.544136263327847"><ele>717.0</ele><time>2026-05-02T15:35:22.998Z</time></trkpt><trkpt lat="44.71631961308963" lon="9.544100426710386"><ele>715.0</ele><time>2026-05-02T15:35:23.998Z</time></trkpt><trkpt lat="44.71638588328334" lon="9.544070819370802"><ele>713.0</ele><time>2026-05-02T15:35:24.998Z</time></trkpt><trkpt lat="44.716498430976166" lon="9.544009370152505"><ele>711.0</ele><time>2026-05-02T15:35:36.998Z</time></trkpt><trkpt lat="44.71659187191418" lon="9.543915829191524"><ele>709.0</ele><time>2026-05-02T15:35:37.998Z</time></trkpt><trkpt lat="44.71666081473274" lon="9.54384006648787"><ele>707.0</ele><time>2026-05-02T15:35:39Z</time></trkpt><trkpt lat="44.716764738060206" lon="9.543819459238915"><ele>707.0</ele><time>2026-05-02T15:35:41Z</time></trkpt><trkpt lat="44.71680306141512" lon="9.543738960256757"><ele>707.0</ele><time>2026-05-02T15:35:43Z</time></trkpt><trkpt lat="44.71684603978924" lon="9.543637646612945"><ele>707.0</ele><time>2026-05-02T15:35:45Z</time></trkpt><trkpt lat="44.71693275002898" lon="9.54362771841456"><ele>707.0</ele><time>2026-05-02T15:35:48Z</time></trkpt><trkpt lat="44.717022530591684" lon="9.543721406552537"><ele>707.0</ele><time>2026-05-02T15:35:50Z</time></trkpt><trkpt lat="44.71707304137123" lon="9.543842558657696"><ele>707.0</ele><time>2026-05-02T15:35:51Z</time></trkpt><trkpt lat="44.71710584362841" lon="9.543966338283116"><ele>707.0</ele><time>2026-05-02T15:35:52Z</time></trkpt><trkpt lat="44.71714012819176" lon="9.544086514101782"><ele>707.0</ele><time>2026-05-02T15:35:53Z</time></trkpt><trkpt lat="44.71716607649456" lon="9.544186893147359"><ele>707.0</ele><time>2026-05-02T15:35:54Z</time></trkpt><trkpt lat="44.717204159434345" lon="9.5442597234201"><ele>707.0</ele><time>2026-05-02T15:35:55Z</time></trkpt><trkpt lat="44.71730292937582" lon="9.544326609577693"><ele>707.0</ele><time>2026-05-02T15:35:57Z</time></trkpt><trkpt lat="44.71736591935017" lon="9.544486256459697"><ele>705.3333333333333</ele><time>2026-05-02T15:35:59Z</time></trkpt><trkpt lat="44.71738364311174" lon="9.544578108204734"><ele>703.6666666666666</ele><time>2026-05-02T15:36:00Z</time></trkpt><trkpt lat="44.71743547011846" lon="9.544675638233802"><ele>702.0</ele><time>2026-05-02T15:36:02Z</time></trkpt><trkpt lat="44.71748481267783" lon="9.544740414281506"><ele>700.3333333333334</ele><time>2026-05-02T15:36:03Z</time></trkpt><trkpt lat="44.71754198220154" lon="9.544815616430153"><ele>698.6666666666667</ele><time>2026-05-02T15:36:04Z</time></trkpt><trkpt lat="44.7176306893427" lon="9.544894262017557"><ele>697.0</ele><time>2026-05-02T15:36:06Z</time></trkpt><trkpt lat="44.7177014221602" lon="9.544882590210413"><ele>699.1666666666667</ele><time>2026-05-02T15:36:30.999Z</time></trkpt><trkpt lat="44.71774055294057" lon="9.544745279555208"><ele>701.3333333333334</ele><time>2026-05-02T15:36:32.999Z</time></trkpt><trkpt lat="44.717821111580584" lon="9.544762033648214"><ele>703.5</ele><time>2026-05-02T15:36:34.999Z</time></trkpt><trkpt lat="44.71791255160328" lon="9.544749670319748"><ele>705.6666666666666</ele><time>2026-05-02T15:36:36.999Z</time></trkpt><trkpt lat="44.717993149728926" lon="9.544743917432545"><ele>707.8333333333333</ele><time>2026-05-02T15:36:38.999Z</time></trkpt><trkpt lat="44.718079558878024" lon="9.54476440364367"><ele>710.0</ele><time>2026-05-02T15:36:40.999Z</time></trkpt><trkpt lat="44.71813802652363" lon="9.544851792447044"><ele>710.0</ele><time>2026-05-02T15:36:42.999Z</time></trkpt><trkpt lat="44.71816466986985" lon="9.544937232420237"><ele>710.0</ele><time>2026-05-02T15:36:43.999Z</time></trkpt><trkpt lat="44.71824542926104" lon="9.545069872599706"><ele>710.0</ele><time>2026-05-02T15:36:45.999Z</time></trkpt><trkpt lat="44.71831363740636" lon="9.545152820255513"><ele>710.0</ele><time>2026-05-02T15:36:46.999Z</time></trkpt><trkpt lat="44.7184407464558" lon="9.545278295208963"><ele>710.0</ele><time>2026-05-02T15:36:48.999Z</time></trkpt><trkpt lat="44.71855451968028" lon="9.54531213731291"><ele>711.0</ele><time>2026-05-02T15:36:49.999Z</time></trkpt><trkpt lat="44.71864620009788" lon="9.545341004174945"><ele>712.0</ele><time>2026-05-02T15:36:50.999Z</time></trkpt><trkpt lat="44.71872093342087" lon="9.545342060256402"><ele>713.0</ele><time>2026-05-02T15:36:52.999Z</time></trkpt><trkpt lat="44.718770616564754" lon="9.545402716521826"><ele>714.0</ele><time>2026-05-02T15:36:53.999Z</time></trkpt><trkpt lat="44.718800096264545" lon="9.545493797264632"><ele>715.0</ele><time>2026-05-02T15:36:54.999Z</time></trkpt><trkpt lat="44.71886239993963" lon="9.54556419535403"><ele>716.0</ele><time>2026-05-02T15:36:55.999Z</time></trkpt><trkpt lat="44.71894653403042" lon="9.545594621971953"><ele>716.0000000000001</ele><time>2026-05-02T15:37:00.999Z</time></trkpt><trkpt lat="44.71901580611321" lon="9.545595946652345"><ele>716.0</ele><time>2026-05-02T15:37:05.999Z</time></trkpt><trkpt lat="44.719078492203096" lon="9.545610534855225"><ele>716.0</ele><time>2026-05-02T15:37:08.998Z</time></trkpt><trkpt lat="44.71914005789719" lon="9.545661411700886"><ele>716.0</ele><time>2026-05-02T15:37:33.998Z</time></trkpt><trkpt lat="44.71919239183393" lon="9.545602323323552"><ele>716.0</ele><time>2026-05-02T15:37:35.998Z</time></trkpt><trkpt lat="44.71920832928857" lon="9.545511932900132"><ele>716.0000000000001</ele><time>2026-05-02T15:37:37.998Z</time></trkpt><trkpt lat="44.719213211883144" lon="9.545377688047747"><ele>716.0</ele><time>2026-05-02T15:37:39.998Z</time></trkpt><trkpt lat="44.71927837458148" lon="9.545328565145121"><ele>716.0</ele><time>2026-05-02T15:37:41.998Z</time></trkpt><trkpt lat="44.719310849557274" lon="9.545247275362417"><ele>716.0</ele><time>2026-05-02T15:37:43.998Z</time></trkpt><trkpt lat="44.719347424009904" lon="9.545089427790984"><ele>716.0</ele><time>2026-05-02T15:37:46Z</time></trkpt><trkpt lat="44.719389117734494" lon="9.544998489528215"><ele>716.0</ele><time>2026-05-02T15:37:47Z</time></trkpt><trkpt lat="44.71945100751042" lon="9.544896877358696"><ele>716.0</ele><time>2026-05-02T15:37:48Z</time></trkpt><trkpt lat="44.71951298145895" lon="9.54480877703585"><ele>716.0</ele><time>2026-05-02T15:37:49Z</time></trkpt><trkpt lat="44.71957119703322" lon="9.544744254545542"><ele>716.1666666666666</ele><time>2026-05-02T15:37:51Z</time></trkpt><trkpt lat="44.71955713704072" lon="9.544652645141275"><ele>716.3333333333333</ele><time>2026-05-02T15:37:53Z</time></trkpt><trkpt lat="44.71950230569343" lon="9.544604564505807"><ele>716.5</ele><time>2026-05-02T15:37:55Z</time></trkpt><trkpt lat="44.71942493176021" lon="9.54452182983266"><ele>716.6666666666666</ele><time>2026-05-02T15:37:57Z</time></trkpt><trkpt lat="44.71939587766077" lon="9.544379733337196"><ele>716.8333333333334</ele><time>2026-05-02T15:37:59Z</time></trkpt><trkpt lat="44.719398223022836" lon="9.54421705269555"><ele>717.0</ele><time>2026-05-02T15:38:01Z</time></trkpt><trkpt lat="44.71938692784998" lon="9.544119956300396"><ele>719.3333333333334</ele><time>2026-05-02T15:38:02Z</time></trkpt><trkpt lat="44.71942439681628" lon="9.543970044370509"><ele>721.6666666666666</ele><time>2026-05-02T15:38:04Z</time></trkpt><trkpt lat="44.7193548823999" lon="9.54393896706024"><ele>724.0</ele><time>2026-05-02T15:38:09Z</time></trkpt><trkpt lat="44.719303201938146" lon="9.543835604008486"><ele>726.3333333333333</ele><time>2026-05-02T15:38:11Z</time></trkpt><trkpt lat="44.71932981877344" lon="9.543713631636987"><ele>728.6666666666666</ele><time>2026-05-02T15:38:13Z</time></trkpt><trkpt lat="44.71932493128852" lon="9.543605833136304"><ele>731.0</ele><time>2026-05-02T15:38:15Z</time></trkpt><trkpt lat="44.71941554091587" lon="9.543570005858053"><ele>733.1666666666666</ele><time>2026-05-02T15:38:17Z</time></trkpt><trkpt lat="44.71951507627027" lon="9.543568518550137"><ele>735.3333333333333</ele><time>2026-05-02T15:38:18Z</time></trkpt><trkpt lat="44.719605595812034" lon="9.543559345550115"><ele>737.5</ele><time>2026-05-02T15:38:19Z</time></trkpt><trkpt lat="44.719690129634245" lon="9.543519292065604"><ele>739.6666666666666</ele><time>2026-05-02T15:38:20Z</time></trkpt><trkpt lat="44.719769685864144" lon="9.543483206582273"><ele>741.8333333333334</ele><time>2026-05-02T15:38:21Z</time></trkpt><trkpt lat="44.71982994901546" lon="9.54343324931802"><ele>744.0</ele><time>2026-05-02T15:38:21.999Z</time></trkpt><trkpt lat="44.71987404947413" lon="9.543355884731405"><ele>744.0</ele><time>2026-05-02T15:38:22.999Z</time></trkpt><trkpt lat="44.71992441826089" lon="9.543256369530503"><ele>744.0</ele><time>2026-05-02T15:38:23.999Z</time></trkpt><trkpt lat="44.7199749351524" lon="9.54315739375668"><ele>744.0</ele><time>2026-05-02T15:38:24.999Z</time></trkpt><trkpt lat="44.72002960234608" lon="9.543052460172587"><ele>744.0</ele><time>2026-05-02T15:38:25.999Z</time></trkpt><trkpt lat="44.7200900957333" lon="9.542943634892087"><ele>744.0</ele><time>2026-05-02T15:38:26.999Z</time></trkpt><trkpt lat="44.72014285659208" lon="9.542841574264207"><ele>745.6666666666666</ele><time>2026-05-02T15:38:27.999Z</time></trkpt><trkpt lat="44.72020326181335" lon="9.542728399110324"><ele>747.3333333333334</ele><time>2026-05-02T15:38:28.999Z</time></trkpt><trkpt lat="44.72026783233473" lon="9.5426093884348"><ele>749.0</ele><time>2026-05-02T15:38:29.999Z</time></trkpt><trkpt lat="44.72031254510132" lon="9.542537142517151"><ele>750.6666666666667</ele><time>2026-05-02T15:38:30.999Z</time></trkpt><trkpt lat="44.720324930672945" lon="9.54243921918838"><ele>752.3333333333334</ele><time>2026-05-02T15:38:33.999Z</time></trkpt><trkpt lat="44.72034125484904" lon="9.542348904559582"><ele>754.0</ele><time>2026-05-02T15:39:44.998Z</time></trkpt><trkpt lat="44.72036548497402" lon="9.542266631050614"><ele>754.5</ele><time>2026-05-02T15:39:45.998Z</time></trkpt><trkpt lat="44.720371896234106" lon="9.542103757657065"><ele>755.0</ele><time>2026-05-02T15:39:47.998Z</time></trkpt><trkpt lat="44.7204460440883" lon="9.541987394139376"><ele>755.5</ele><time>2026-05-02T15:39:49.998Z</time></trkpt><trkpt lat="44.72049795991873" lon="9.541934214618628"><ele>756.0</ele><time>2026-05-02T15:39:51Z</time></trkpt><trkpt lat="44.72050126155292" lon="9.541830528486077"><ele>756.5</ele><time>2026-05-02T15:39:53Z</time></trkpt><trkpt lat="44.72051550639947" lon="9.541737414251278"><ele>757.0</ele><time>2026-05-02T15:39:54Z</time></trkpt><trkpt lat="44.72056718847943" lon="9.541662358493031"><ele>758.6666666666667</ele><time>2026-05-02T15:39:56Z</time></trkpt><trkpt lat="44.72050122835358" lon="9.541562477016654"><ele>760.3333333333334</ele><time>2026-05-02T15:40:01Z</time></trkpt><trkpt lat="44.720423988248186" lon="9.541525875660524"><ele>762.0</ele><time>2026-05-02T15:40:03Z</time></trkpt><trkpt lat="44.720389344720566" lon="9.541394393914075"><ele>763.6666666666666</ele><time>2026-05-02T15:40:05Z</time></trkpt><trkpt lat="44.7203999452887" lon="9.541289681697888"><ele>765.3333333333333</ele><time>2026-05-02T15:40:06Z</time></trkpt><trkpt lat="44.72042849739226" lon="9.541181061073653"><ele>767.0</ele><time>2026-05-02T15:40:07Z</time></trkpt><trkpt lat="44.72046836710211" lon="9.541067943856877"><ele>768.5</ele><time>2026-05-02T15:40:08Z</time></trkpt><trkpt lat="44.720513974363634" lon="9.540967981502638"><ele>770.0</ele><time>2026-05-02T15:40:09Z</time></trkpt><trkpt lat="44.72056843234834" lon="9.540864149178914"><ele>771.5</ele><time>2026-05-02T15:40:10Z</time></trkpt><trkpt lat="44.720616237679195" lon="9.540750251170588"><ele>773.0</ele><time>2026-05-02T15:40:11Z</time></trkpt><trkpt lat="44.720640961811085" lon="9.540633782285946"><ele>774.5000000000001</ele><time>2026-05-02T15:40:12Z</time></trkpt><trkpt lat="44.720664486345036" lon="9.540528213644645"><ele>776.0</ele><time>2026-05-02T15:40:13Z</time></trkpt><trkpt lat="44.72069758450988" lon="9.540419535375225"><ele>777.8333333333334</ele><time>2026-05-02T15:40:14Z</time></trkpt><trkpt lat="44.72073398821185" lon="9.540316160600174"><ele>779.6666666666667</ele><time>2026-05-02T15:40:15Z</time></trkpt><trkpt lat="44.72076096422185" lon="9.540217994111238"><ele>781.5</ele><time>2026-05-02T15:40:16Z</time></trkpt><trkpt lat="44.72076944130716" lon="9.540118440782122"><ele>783.3333333333333</ele><time>2026-05-02T15:40:17Z</time></trkpt><trkpt lat="44.720769478797116" lon="9.540007441422897"><ele>785.1666666666666</ele><time>2026-05-02T15:40:18Z</time></trkpt><trkpt lat="44.72076378470298" lon="9.539908935805805"><ele>787.0</ele><time>2026-05-02T15:40:19Z</time></trkpt><trkpt lat="44.72075111081194" lon="9.539807667769361"><ele>786.9999999999999</ele><time>2026-05-02T15:40:20Z</time></trkpt><trkpt lat="44.720744711725544" lon="9.539698366382694"><ele>787.0</ele><time>2026-05-02T15:40:21Z</time></trkpt><trkpt lat="44.72074628160967" lon="9.53959228270926"><ele>787.0</ele><time>2026-05-02T15:40:22Z</time></trkpt><trkpt lat="44.720746604348854" lon="9.539498951504317"><ele>787.0</ele><time>2026-05-02T15:40:23Z</time></trkpt><trkpt lat="44.72074429936457" lon="9.539398303239906"><ele>786.9999999999999</ele><time>2026-05-02T15:40:24Z</time></trkpt><trkpt lat="44.72072697978778" lon="9.539299949272959"><ele>787.0</ele><time>2026-05-02T15:40:25Z</time></trkpt><trkpt lat="44.72069481086475" lon="9.539172639868184"><ele>788.9999999999999</ele><time>2026-05-02T15:40:26.999Z</time></trkpt><trkpt lat="44.720684225265565" lon="9.53907549621105"><ele>791.0</ele><time>2026-05-02T15:40:28.999Z</time></trkpt><trkpt lat="44.720665572860604" lon="9.53894950016065"><ele>793.0</ele><time>2026-05-02T15:40:30.999Z</time></trkpt><trkpt lat="44.72063965365027" lon="9.538819243781615"><ele>795.0</ele><time>2026-05-02T15:40:32.999Z</time></trkpt><trkpt lat="44.720657107251284" lon="9.538688721415364"><ele>796.9999999999999</ele><time>2026-05-02T15:40:34.999Z</time></trkpt><trkpt lat="44.72071839499861" lon="9.538636097942382"><ele>799.0</ele><time>2026-05-02T15:40:36.999Z</time></trkpt><trkpt lat="44.72079977461272" lon="9.538714460962625"><ele>798.9999999999999</ele><time>2026-05-02T15:40:38.999Z</time></trkpt><trkpt lat="44.720833115012766" lon="9.53879288551925"><ele>799.0</ele><time>2026-05-02T15:40:39.999Z</time></trkpt><trkpt lat="44.72087866062759" lon="9.538871324149563"><ele>799.0</ele><time>2026-05-02T15:40:40.999Z</time></trkpt><trkpt lat="44.720943793249205" lon="9.53896812166764"><ele>799.0</ele><time>2026-05-02T15:40:41.999Z</time></trkpt><trkpt lat="44.720999837606975" lon="9.53902076382367"><ele>798.9999999999999</ele><time>2026-05-02T15:40:42.999Z</time></trkpt><trkpt lat="44.72111088663261" lon="9.538968475224038"><ele>799.0</ele><time>2026-05-02T15:40:44.999Z</time></trkpt><trkpt lat="44.72115023987157" lon="9.538889806256272"><ele>800.1666666666666</ele><time>2026-05-02T15:40:45.999Z</time></trkpt><trkpt lat="44.721193434357346" lon="9.538799614205546"><ele>801.3333333333333</ele><time>2026-05-02T15:40:47.999Z</time></trkpt><trkpt lat="44.721199447351516" lon="9.538695697501165"><ele>802.5</ele><time>2026-05-02T15:41:19.998Z</time></trkpt><trkpt lat="44.72114750987036" lon="9.538636861872465"><ele>803.6666666666667</ele><time>2026-05-02T15:41:21.998Z</time></trkpt><trkpt lat="44.72106632059308" lon="9.538514479693578"><ele>804.8333333333334</ele><time>2026-05-02T15:41:23.998Z</time></trkpt><trkpt lat="44.72103612869637" lon="9.538429072887531"><ele>806.0</ele><time>2026-05-02T15:41:24.998Z</time></trkpt><trkpt lat="44.7210344401943" lon="9.538338576570984"><ele>806.1428571428572</ele><time>2026-05-02T15:41:25.998Z</time></trkpt><trkpt lat="44.72105965594901" lon="9.538241569402073"><ele>806.2857142857142</ele><time>2026-05-02T15:41:26.998Z</time></trkpt><trkpt lat="44.72110140676918" lon="9.538150999673585"><ele>806.4285714285714</ele><time>2026-05-02T15:41:27.998Z</time></trkpt><trkpt lat="44.72115040453251" lon="9.538062127422055"><ele>806.5714285714287</ele><time>2026-05-02T15:41:28.998Z</time></trkpt><trkpt lat="44.721191317626044" lon="9.5379711018079"><ele>806.7142857142858</ele><time>2026-05-02T15:41:29.998Z</time></trkpt><trkpt lat="44.7212245285798" lon="9.537883030004043"><ele>806.8571428571429</ele><time>2026-05-02T15:41:30.998Z</time></trkpt><trkpt lat="44.72125083910993" lon="9.537801601304352"><ele>807.0</ele><time>2026-05-02T15:41:31.998Z</time></trkpt><trkpt lat="44.72129608810563" lon="9.537647008326982"><ele>810.5</ele><time>2026-05-02T15:41:33.998Z</time></trkpt><trkpt lat="44.721332983025434" lon="9.537561313118214"><ele>814.0</ele><time>2026-05-02T15:41:34.998Z</time></trkpt><trkpt lat="44.721372821241715" lon="9.53749068496677"><ele>817.5</ele><time>2026-05-02T15:41:35.998Z</time></trkpt><trkpt lat="44.72143483260853" lon="9.537454229007695"><ele>821.0</ele><time>2026-05-02T15:41:37.998Z</time></trkpt><trkpt lat="44.72155413759022" lon="9.537509767794017"><ele>824.5</ele><time>2026-05-02T15:41:39.998Z</time></trkpt><trkpt lat="44.7216531674778" lon="9.537437627521738"><ele>828.0</ele><time>2026-05-02T15:41:41.998Z</time></trkpt><trkpt lat="44.721700590106806" lon="9.537379156061835"><ele>828.0</ele><time>2026-05-02T15:41:42.998Z</time></trkpt><trkpt lat="44.72177064277655" lon="9.537354489401132"><ele>828.0</ele><time>2026-05-02T15:41:44.998Z</time></trkpt><trkpt lat="44.72184617737364" lon="9.537260103956967"><ele>828.0</ele><time>2026-05-02T15:41:46.998Z</time></trkpt><trkpt lat="44.72185472013583" lon="9.537170605895705"><ele>828.0</ele><time>2026-05-02T15:41:47.998Z</time></trkpt><trkpt lat="44.72187169503387" lon="9.537059933583084"><ele>828.0</ele><time>2026-05-02T15:41:48.998Z</time></trkpt><trkpt lat="44.72191622177309" lon="9.536958355608467"><ele>828.0</ele><time>2026-05-02T15:41:49.998Z</time></trkpt><trkpt lat="44.721981911595755" lon="9.536882035669748"><ele>830.6666666666666</ele><time>2026-05-02T15:41:50.998Z</time></trkpt><trkpt lat="44.72202986959166" lon="9.536799645886603"><ele>833.3333333333333</ele><time>2026-05-02T15:41:51.998Z</time></trkpt><trkpt lat="44.72206109830724" lon="9.53668878329691"><ele>836.0</ele><time>2026-05-02T15:41:52.998Z</time></trkpt><trkpt lat="44.72207119648479" lon="9.536571100065744"><ele>838.6666666666666</ele><time>2026-05-02T15:41:53.998Z</time></trkpt><trkpt lat="44.72207321430066" lon="9.53646569609894"><ele>841.3333333333333</ele><time>2026-05-02T15:41:54.998Z</time></trkpt><trkpt lat="44.722142212126116" lon="9.536364152610085"><ele>844.0</ele><time>2026-05-02T15:41:57Z</time></trkpt><trkpt lat="44.72219846509836" lon="9.536190801139574"><ele>845.4999999999999</ele><time>2026-05-02T15:41:59Z</time></trkpt><trkpt lat="44.72221511278155" lon="9.536094320623722"><ele>847.0</ele><time>2026-05-02T15:42:00Z</time></trkpt><trkpt lat="44.722233364934425" lon="9.535940562607063"><ele>848.5</ele><time>2026-05-02T15:42:01Z</time></trkpt><trkpt lat="44.722275140681354" lon="9.535820222627537"><ele>850.0</ele><time>2026-05-02T15:42:02Z</time></trkpt><trkpt lat="44.72233775188258" lon="9.535738436328904"><ele>851.4999999999999</ele><time>2026-05-02T15:42:03Z</time></trkpt><trkpt lat="44.72238129332383" lon="9.535660989435957"><ele>853.0</ele><time>2026-05-02T15:42:04Z</time></trkpt><trkpt lat="44.72244270316365" lon="9.5355885236607"><ele>852.9999999999999</ele><time>2026-05-02T15:42:05Z</time></trkpt><trkpt lat="44.72247551184098" lon="9.535509298111148"><ele>853.0</ele><time>2026-05-02T15:42:06Z</time></trkpt><trkpt lat="44.72251587269445" lon="9.535404606346829"><ele>853.0</ele><time>2026-05-02T15:42:07Z</time></trkpt><trkpt lat="44.72254981745853" lon="9.53529594513223"><ele>853.0</ele><time>2026-05-02T15:42:08Z</time></trkpt><trkpt lat="44.72258228464136" lon="9.535191439982205"><ele>852.9999999999999</ele><time>2026-05-02T15:42:09Z</time></trkpt><trkpt lat="44.72259376077889" lon="9.535003519284354"><ele>853.0</ele><time>2026-05-02T15:42:11Z</time></trkpt><trkpt lat="44.722631783272796" lon="9.534820287224427"><ele>854.1666666666666</ele><time>2026-05-02T15:42:12Z</time></trkpt><trkpt lat="44.7226794456764" lon="9.534693538298304"><ele>855.3333333333333</ele><time>2026-05-02T15:42:13Z</time></trkpt><trkpt lat="44.72268466486996" lon="9.53457682457045"><ele>856.5</ele><time>2026-05-02T15:42:14Z</time></trkpt><trkpt lat="44.722673787028725" lon="9.534472078154025"><ele>857.6666666666667</ele><time>2026-05-02T15:42:16Z</time></trkpt><trkpt lat="44.722751414110164" lon="9.534432380039096"><ele>858.8333333333334</ele><time>2026-05-02T15:42:20Z</time></trkpt><trkpt lat="44.72283040523588" lon="9.53444774705474"><ele>860.0</ele><time>2026-05-02T15:42:23Z</time></trkpt><trkpt lat="44.72292430268211" lon="9.53444553022994"><ele>860.8571428571428</ele><time>2026-05-02T15:42:26Z</time></trkpt><trkpt lat="44.72298791888339" lon="9.534441569216748"><ele>861.7142857142858</ele><time>2026-05-02T15:42:28Z</time></trkpt><trkpt lat="44.723050861848776" lon="9.534455043064614"><ele>862.5714285714286</ele><time>2026-05-02T15:42:30Z</time></trkpt><trkpt lat="44.72311247613894" lon="9.534481223817187"><ele>863.4285714285713</ele><time>2026-05-02T15:42:32Z</time></trkpt><trkpt lat="44.72318535322837" lon="9.534522211257979"><ele>864.2857142857142</ele><time>2026-05-02T15:42:34.999Z</time></trkpt><trkpt lat="44.723253281869965" lon="9.534581680177626"><ele>865.1428571428571</ele><time>2026-05-02T15:42:38.999Z</time></trkpt><trkpt lat="44.7233147924107" lon="9.534661536738788"><ele>866.0</ele><time>2026-05-02T15:42:41.999Z</time></trkpt><trkpt lat="44.723364141783776" lon="9.534744129214584"><ele>866.0</ele><time>2026-05-02T15:42:43.999Z</time></trkpt><trkpt lat="44.72341916397038" lon="9.53482673492596"><ele>865.9999999999999</ele><time>2026-05-02T15:42:45.999Z</time></trkpt><trkpt lat="44.723485426317104" lon="9.534914749027465"><ele>865.9999999999999</ele><time>2026-05-02T15:42:47.999Z</time></trkpt><trkpt lat="44.72355237196007" lon="9.535009083522588"><ele>866.0</ele><time>2026-05-02T15:42:49.999Z</time></trkpt><trkpt lat="44.723618134984584" lon="9.535082858897164"><ele>866.0</ele><time>2026-05-02T15:42:51.999Z</time></trkpt><trkpt lat="44.7236913478039" lon="9.535185963875449"><ele>866.0</ele><time>2026-05-02T15:42:53.999Z</time></trkpt><trkpt lat="44.723761739822045" lon="9.535302082032297"><ele>865.9999999999999</ele><time>2026-05-02T15:42:55.999Z</time></trkpt><trkpt lat="44.72382345452053" lon="9.535429890744554"><ele>865.9999999999999</ele><time>2026-05-02T15:42:57.999Z</time></trkpt><trkpt lat="44.72387711364218" lon="9.53556282276561"><ele>866.0</ele><time>2026-05-02T15:42:59.999Z</time></trkpt><trkpt lat="44.723920132380854" lon="9.535688938632354"><ele>866.0</ele><time>2026-05-02T15:43:01.999Z</time></trkpt><trkpt lat="44.72395059726473" lon="9.535785539355285"><ele>866.0000000000001</ele><time>2026-05-02T15:43:03.999Z</time></trkpt><trkpt lat="44.72398631042853" lon="9.535865873988628"><ele>866.0</ele><time>2026-05-02T15:43:05.999Z</time></trkpt><trkpt lat="44.724030792401905" lon="9.535943390561929"><ele>866.0</ele><time>2026-05-02T15:43:10.999Z</time></trkpt><trkpt lat="44.72407315854536" lon="9.536041080591831"><ele>866.0</ele><time>2026-05-02T15:43:22.998Z</time></trkpt><trkpt lat="44.7241570960619" lon="9.536174074952081"><ele>866.0000000000001</ele><time>2026-05-02T15:43:24.998Z</time></trkpt><trkpt lat="44.724203931874534" lon="9.536241560637409"><ele>866.0</ele><time>2026-05-02T15:43:25.998Z</time></trkpt><trkpt lat="44.724253067296516" lon="9.536303442359863"><ele>865.3333333333334</ele><time>2026-05-02T15:43:26.998Z</time></trkpt><trkpt lat="44.7243075867379" lon="9.536370086664808"><ele>864.6666666666667</ele><time>2026-05-02T15:43:27.998Z</time></trkpt><trkpt lat="44.7243676901117" lon="9.53645625145804"><ele>864.0</ele><time>2026-05-02T15:43:28.998Z</time></trkpt><trkpt lat="44.724425412983734" lon="9.536543881432861"><ele>863.3333333333333</ele><time>2026-05-02T15:43:29.998Z</time></trkpt><trkpt lat="44.724478250023225" lon="9.536625675481456"><ele>862.6666666666666</ele><time>2026-05-02T15:43:30.998Z</time></trkpt><trkpt lat="44.72452920360578" lon="9.536693913681226"><ele>862.0</ele><time>2026-05-02T15:43:31.998Z</time></trkpt><trkpt lat="44.724582067189345" lon="9.536747791433436"><ele>862.0</ele><time>2026-05-02T15:43:32.998Z</time></trkpt><trkpt lat="44.72464837526987" lon="9.53678037374444"><ele>862.0</ele><time>2026-05-02T15:43:33.998Z</time></trkpt><trkpt lat="44.724733678492115" lon="9.536803859091767"><ele>862.0</ele><time>2026-05-02T15:43:34.998Z</time></trkpt><trkpt lat="44.72483381044036" lon="9.536821138248985"><ele>862.0</ele><time>2026-05-02T15:43:35.998Z</time></trkpt><trkpt lat="44.724939874703445" lon="9.536823682404172"><ele>862.0</ele><time>2026-05-02T15:43:36.998Z</time></trkpt><trkpt lat="44.72503990898144" lon="9.536830584618178"><ele>862.0</ele><time>2026-05-02T15:43:37.998Z</time></trkpt><trkpt lat="44.725124243606174" lon="9.536882504196363"><ele>862.0</ele><time>2026-05-02T15:43:38.998Z</time></trkpt><trkpt lat="44.72521168529899" lon="9.53698689568667"><ele>862.0</ele><time>2026-05-02T15:43:39.998Z</time></trkpt><trkpt lat="44.72531197648682" lon="9.537107881991638"><ele>862.0</ele><time>2026-05-02T15:43:40.998Z</time></trkpt><trkpt lat="44.725411677419" lon="9.53718677884392"><ele>861.2</ele><time>2026-05-02T15:43:41.998Z</time></trkpt><trkpt lat="44.72550038718721" lon="9.537248247665636"><ele>860.4000000000001</ele><time>2026-05-02T15:43:42.998Z</time></trkpt><trkpt lat="44.72554759885882" lon="9.537320509586474"><ele>859.5999999999999</ele><time>2026-05-02T15:43:43.998Z</time></trkpt><trkpt lat="44.72555199118032" lon="9.5374257076083"><ele>858.8</ele><time>2026-05-02T15:43:44.998Z</time></trkpt><trkpt lat="44.7255108934379" lon="9.537553222085116"><ele>858.0</ele><time>2026-05-02T15:43:45.998Z</time></trkpt><trkpt lat="44.725438028500896" lon="9.537674423386816"><ele>858.0</ele><time>2026-05-02T15:43:46.998Z</time></trkpt><trkpt lat="44.72536905794019" lon="9.537809236868643"><ele>858.0</ele><time>2026-05-02T15:43:47.998Z</time></trkpt><trkpt lat="44.725339979699854" lon="9.537968698273781"><ele>858.0</ele><time>2026-05-02T15:43:48.998Z</time></trkpt><trkpt lat="44.725339300196566" lon="9.53817458289902"><ele>858.0</ele><time>2026-05-02T15:43:49.998Z</time></trkpt><trkpt lat="44.72534079668599" lon="9.538413292149151"><ele>857.5</ele><time>2026-05-02T15:43:50.998Z</time></trkpt><trkpt lat="44.725361925198875" lon="9.538627632967948"><ele>857.0</ele><time>2026-05-02T15:43:51.998Z</time></trkpt><trkpt lat="44.72540140123804" lon="9.538797342791792"><ele>856.5</ele><time>2026-05-02T15:43:52.998Z</time></trkpt><trkpt lat="44.72546308634772" lon="9.538940829381579"><ele>856.0</ele><time>2026-05-02T15:43:53.998Z</time></trkpt><trkpt lat="44.72554871758596" lon="9.539081742583994"><ele>855.5999999999999</ele><time>2026-05-02T15:43:54.998Z</time></trkpt><trkpt lat="44.725649533911366" lon="9.53918938068752"><ele>855.1999999999999</ele><time>2026-05-02T15:43:55.998Z</time></trkpt><trkpt lat="44.72575065787243" lon="9.53927993510433"><ele>854.8000000000001</ele><time>2026-05-02T15:43:56.998Z</time></trkpt><trkpt lat="44.72579691496904" lon="9.539385801211985"><ele>854.4000000000001</ele><time>2026-05-02T15:43:57.998Z</time></trkpt><trkpt lat="44.725807164076684" lon="9.539518676497114"><ele>854.0</ele><time>2026-05-02T15:43:58.998Z</time></trkpt><trkpt lat="44.72577781010575" lon="9.539671900448283"><ele>854.0</ele><time>2026-05-02T15:43:59.998Z</time></trkpt><trkpt lat="44.725723986295996" lon="9.539846732235121"><ele>854.0</ele><time>2026-05-02T15:44:00.998Z</time></trkpt><trkpt lat="44.72567477612388" lon="9.54004465077984"><ele>854.0</ele><time>2026-05-02T15:44:01.998Z</time></trkpt><trkpt lat="44.725647764704" lon="9.540251294734674"><ele>854.0</ele><time>2026-05-02T15:44:03Z</time></trkpt><trkpt lat="44.725629776183524" lon="9.540422031249303"><ele>854.4000000000001</ele><time>2026-05-02T15:44:04Z</time></trkpt><trkpt lat="44.725613173661245" lon="9.540563638876629"><ele>854.8000000000001</ele><time>2026-05-02T15:44:05Z</time></trkpt><trkpt lat="44.725624582352935" lon="9.540678721326008"><ele>855.1999999999999</ele><time>2026-05-02T15:44:06Z</time></trkpt><trkpt lat="44.725665625935676" lon="9.540773940362708"><ele>855.5999999999999</ele><time>2026-05-02T15:44:07Z</time></trkpt><trkpt lat="44.72575274721414" lon="9.540847434940886"><ele>856.0</ele><time>2026-05-02T15:44:08Z</time></trkpt><trkpt lat="44.72585287240715" lon="9.540922169582306"><ele>856.0</ele><time>2026-05-02T15:44:09Z</time></trkpt><trkpt lat="44.725933892218194" lon="9.541036216371074"><ele>855.9999999999999</ele><time>2026-05-02T15:44:10Z</time></trkpt><trkpt lat="44.725970357985084" lon="9.541192524850764"><ele>855.9999999999999</ele><time>2026-05-02T15:44:11Z</time></trkpt><trkpt lat="44.72596407048116" lon="9.541337829509827"><ele>856.0</ele><time>2026-05-02T15:44:12Z</time></trkpt><trkpt lat="44.72595276631094" lon="9.541491654522703"><ele>856.0</ele><time>2026-05-02T15:44:13Z</time></trkpt><trkpt lat="44.725970703572926" lon="9.541628366688016"><ele>855.4</ele><time>2026-05-02T15:44:14Z</time></trkpt><trkpt lat="44.7260126796763" lon="9.541727360301591"><ele>854.8</ele><time>2026-05-02T15:44:15Z</time></trkpt><trkpt lat="44.72606775756881" lon="9.54182305060739"><ele>854.1999999999999</ele><time>2026-05-02T15:44:16Z</time></trkpt><trkpt lat="44.726142708851825" lon="9.541911240740035"><ele>853.5999999999999</ele><time>2026-05-02T15:44:17Z</time></trkpt><trkpt lat="44.726242077346875" lon="9.54201981188415"><ele>853.0</ele><time>2026-05-02T15:44:18Z</time></trkpt><trkpt lat="44.72635502766458" lon="9.542152749089286"><ele>856.6666666666666</ele><time>2026-05-02T15:44:19Z</time></trkpt><trkpt lat="44.72646827946725" lon="9.542289932740092"><ele>860.3333333333333</ele><time>2026-05-02T15:44:20Z</time></trkpt><trkpt lat="44.72659083041665" lon="9.542408564713902"><ele>864.0</ele><time>2026-05-02T15:44:21Z</time></trkpt><trkpt lat="44.726734695414955" lon="9.542511936974718"><ele>867.6666666666667</ele><time>2026-05-02T15:44:22Z</time></trkpt><trkpt lat="44.726903837305656" lon="9.542609473723628"><ele>871.3333333333334</ele><time>2026-05-02T15:44:23Z</time></trkpt><trkpt lat="44.72706430891466" lon="9.542702865104888"><ele>875.0</ele><time>2026-05-02T15:44:24Z</time></trkpt><trkpt lat="44.72721005087502" lon="9.542773764941977"><ele>875.0</ele><time>2026-05-02T15:44:25Z</time></trkpt><trkpt lat="44.727347485038436" lon="9.54282078711057"><ele>875.0</ele><time>2026-05-02T15:44:26Z</time></trkpt><trkpt lat="44.727482661012864" lon="9.542847277546098"><ele>875.0</ele><time>2026-05-02T15:44:27Z</time></trkpt><trkpt lat="44.72760348944945" lon="9.54286096052346"><ele>875.0</ele><time>2026-05-02T15:44:28Z</time></trkpt><trkpt lat="44.72770752246266" lon="9.542895166986819"><ele>876.6</ele><time>2026-05-02T15:44:29Z</time></trkpt><trkpt lat="44.727779228202934" lon="9.542975990218133"><ele>878.2</ele><time>2026-05-02T15:44:30Z</time></trkpt><trkpt lat="44.727824985967175" lon="9.543099898162382"><ele>879.8</ele><time>2026-05-02T15:44:31Z</time></trkpt><trkpt lat="44.72783616497798" lon="9.543249175566926"><ele>881.4</ele><time>2026-05-02T15:44:32Z</time></trkpt><trkpt lat="44.727830363929264" lon="9.543438743256363"><ele>883.0</ele><time>2026-05-02T15:44:33Z</time></trkpt><trkpt lat="44.72784296717534" lon="9.543649171644562"><ele>883.75</ele><time>2026-05-02T15:44:34Z</time></trkpt><trkpt lat="44.727842244459254" lon="9.543845167613732"><ele>884.5</ele><time>2026-05-02T15:44:35Z</time></trkpt><trkpt lat="44.727841318890974" lon="9.54401842082228"><ele>885.25</ele><time>2026-05-02T15:44:36Z</time></trkpt><trkpt lat="44.72782962460427" lon="9.54417190278293"><ele>886.0</ele><time>2026-05-02T15:44:37Z</time></trkpt><trkpt lat="44.7278436627581" lon="9.544285197270577"><ele>886.0</ele><time>2026-05-02T15:44:38Z</time></trkpt><trkpt lat="44.72788425707058" lon="9.544366428195186"><ele>885.9999999999999</ele><time>2026-05-02T15:44:39Z</time></trkpt><trkpt lat="44.727950621008894" lon="9.544485104119076"><ele>885.9999999999999</ele><time>2026-05-02T15:44:40Z</time></trkpt><trkpt lat="44.72800337695905" lon="9.544643317208182"><ele>886.0</ele><time>2026-05-02T15:44:40.999Z</time></trkpt><trkpt lat="44.728034320926206" lon="9.544794662089814"><ele>886.0</ele><time>2026-05-02T15:44:41.999Z</time></trkpt><trkpt lat="44.728083251129064" lon="9.544927954482622"><ele>885.25</ele><time>2026-05-02T15:44:42.999Z</time></trkpt><trkpt lat="44.72816312445054" lon="9.54505943711005"><ele>884.5</ele><time>2026-05-02T15:44:43.999Z</time></trkpt><trkpt lat="44.728261625932156" lon="9.545216645998796"><ele>883.75</ele><time>2026-05-02T15:44:44.999Z</time></trkpt><trkpt lat="44.72834582464042" lon="9.545422240051206"><ele>883.0</ele><time>2026-05-02T15:44:45.999Z</time></trkpt><trkpt lat="44.728404988242275" lon="9.545622845752309"><ele>881.5</ele><time>2026-05-02T15:44:46.999Z</time></trkpt><trkpt lat="44.72844212443204" lon="9.545807064471301"><ele>880.0</ele><time>2026-05-02T15:44:47.999Z</time></trkpt><trkpt lat="44.728499349984794" lon="9.546000185678672"><ele>878.5</ele><time>2026-05-02T15:44:48.999Z</time></trkpt><trkpt lat="44.728573212599024" lon="9.546182016208896"><ele>877.0</ele><time>2026-05-02T15:44:49.999Z</time></trkpt><trkpt lat="44.72863740744777" lon="9.546348724816303"><ele>877.75</ele><time>2026-05-02T15:44:50.999Z</time></trkpt><trkpt lat="44.72869876436987" lon="9.54652407075653"><ele>878.5</ele><time>2026-05-02T15:44:51.999Z</time></trkpt><trkpt lat="44.72874473564212" lon="9.546706856418348"><ele>879.25</ele><time>2026-05-02T15:44:52.999Z</time></trkpt><trkpt lat="44.72877601325558" lon="9.546898533483043"><ele>880.0</ele><time>2026-05-02T15:44:53.999Z</time></trkpt><trkpt lat="44.728797992711954" lon="9.54708843039765"><ele>880.0</ele><time>2026-05-02T15:44:54.999Z</time></trkpt><trkpt lat="44.72881222613684" lon="9.547275041022255"><ele>880.0</ele><time>2026-05-02T15:44:55.999Z</time></trkpt><trkpt lat="44.72882410193545" lon="9.547429729648934"><ele>880.0</ele><time>2026-05-02T15:44:56.999Z</time></trkpt><trkpt lat="44.728856153693364" lon="9.547556019739146"><ele>880.0</ele><time>2026-05-02T15:44:57.999Z</time></trkpt><trkpt lat="44.728929352872484" lon="9.547641127157187"><ele>880.0</ele><time>2026-05-02T15:44:58.999Z</time></trkpt><trkpt lat="44.72902880259784" lon="9.54769124235596"><ele>880.0</ele><time>2026-05-02T15:44:59.999Z</time></trkpt><trkpt lat="44.72914772241143" lon="9.547695198340634"><ele>880.0</ele><time>2026-05-02T15:45:00.999Z</time></trkpt><trkpt lat="44.729291699485806" lon="9.547721544128432"><ele>880.0</ele><time>2026-05-02T15:45:01.999Z</time></trkpt><trkpt lat="44.72941190233495" lon="9.547750881075682"><ele>880.0</ele><time>2026-05-02T15:45:02.999Z</time></trkpt><trkpt lat="44.7294971627525" lon="9.547796387012827"><ele>883.0</ele><time>2026-05-02T15:45:03.999Z</time></trkpt><trkpt lat="44.729551928995875" lon="9.54786374765055"><ele>886.0</ele><time>2026-05-02T15:45:04.999Z</time></trkpt><trkpt lat="44.72956664967231" lon="9.547953795131024"><ele>889.0</ele><time>2026-05-02T15:45:05.999Z</time></trkpt><trkpt lat="44.72953786624742" lon="9.548064690641434"><ele>892.0</ele><time>2026-05-02T15:45:06.999Z</time></trkpt><trkpt lat="44.72948118009858" lon="9.548192364169815"><ele>895.0</ele><time>2026-05-02T15:45:07.999Z</time></trkpt><trkpt lat="44.729420379049905" lon="9.54838649605705"><ele>896.5</ele><time>2026-05-02T15:45:08.999Z</time></trkpt><trkpt lat="44.729376588298294" lon="9.548564913098595"><ele>898.0</ele><time>2026-05-02T15:45:09.999Z</time></trkpt><trkpt lat="44.72935006942869" lon="9.548722167371697"><ele>899.5</ele><time>2026-05-02T15:45:10.999Z</time></trkpt><trkpt lat="44.72937046617905" lon="9.548888728455792"><ele>901.0</ele><time>2026-05-02T15:45:11.999Z</time></trkpt><trkpt lat="44.72940553674161" lon="9.549025461500737"><ele>901.0</ele><time>2026-05-02T15:45:12.999Z</time></trkpt><trkpt lat="44.72940534817134" lon="9.549144304225484"><ele>900.9999999999999</ele><time>2026-05-02T15:45:13.999Z</time></trkpt><trkpt lat="44.72929707478107" lon="9.549274398721574"><ele>900.9999999999999</ele><time>2026-05-02T15:45:15.999Z</time></trkpt><trkpt lat="44.729183384931396" lon="9.54931389256094"><ele>901.0</ele><time>2026-05-02T15:45:16.999Z</time></trkpt><trkpt lat="44.729112911326304" lon="9.549376581857073"><ele>901.0</ele><time>2026-05-02T15:45:17.999Z</time></trkpt><trkpt lat="44.729070867851526" lon="9.549483637789658"><ele>900.25</ele><time>2026-05-02T15:45:18.999Z</time></trkpt><trkpt lat="44.729055373253644" lon="9.549610854333965"><ele>899.5</ele><time>2026-05-02T15:45:19.999Z</time></trkpt><trkpt lat="44.72904839130884" lon="9.549785066794458"><ele>898.75</ele><time>2026-05-02T15:45:20.999Z</time></trkpt><trkpt lat="44.72900293399422" lon="9.54996581698988"><ele>898.0</ele><time>2026-05-02T15:45:21.999Z</time></trkpt><trkpt lat="44.72892766313877" lon="9.55010936411721"><ele>898.0</ele><time>2026-05-02T15:45:22.999Z</time></trkpt><trkpt lat="44.72885214322401" lon="9.550234529951767"><ele>898.0</ele><time>2026-05-02T15:45:23.999Z</time></trkpt><trkpt lat="44.72879672278329" lon="9.550361048045872"><ele>898.0</ele><time>2026-05-02T15:45:24.999Z</time></trkpt><trkpt lat="44.728752131264294" lon="9.550497871582586"><ele>898.0</ele><time>2026-05-02T15:45:25.999Z</time></trkpt><trkpt lat="44.728711313868274" lon="9.550634816946394"><ele>898.0</ele><time>2026-05-02T15:45:26.999Z</time></trkpt><trkpt lat="44.728676651872355" lon="9.55075141891693"><ele>899.0</ele><time>2026-05-02T15:45:27.999Z</time></trkpt><trkpt lat="44.72865871729087" lon="9.550851334223365"><ele>900.0</ele><time>2026-05-02T15:45:28.998Z</time></trkpt><trkpt lat="44.72868626271332" lon="9.550959974842494"><ele>901.0</ele><time>2026-05-02T15:45:30.998Z</time></trkpt><trkpt lat="44.728765324211814" lon="9.550889274526877"><ele>902.0</ele><time>2026-05-02T15:45:33.998Z</time></trkpt><trkpt lat="44.72879402638321" lon="9.550732758061132"><ele>903.0</ele><time>2026-05-02T15:45:35.998Z</time></trkpt><trkpt lat="44.72886972304893" lon="9.550578569001377"><ele>903.0</ele><time>2026-05-02T15:45:37.998Z</time></trkpt><trkpt lat="44.728916088575" lon="9.55050548890123"><ele>903.0</ele><time>2026-05-02T15:45:38.998Z</time></trkpt><trkpt lat="44.72896237355057" lon="9.550432949915548"><ele>903.0</ele><time>2026-05-02T15:45:39.998Z</time></trkpt><trkpt lat="44.72901978900425" lon="9.550349062628342"><ele>903.0</ele><time>2026-05-02T15:45:40.998Z</time></trkpt><trkpt lat="44.72909200694747" lon="9.550271013734143"><ele>903.0</ele><time>2026-05-02T15:45:41.998Z</time></trkpt><trkpt lat="44.72917638147624" lon="9.550238286477036"><ele>903.0</ele><time>2026-05-02T15:45:42.998Z</time></trkpt><trkpt lat="44.729251042681184" lon="9.550251078186433"><ele>903.0</ele><time>2026-05-02T15:45:43.998Z</time></trkpt><trkpt lat="44.72933107159453" lon="9.55031210268727"><ele>903.0</ele><time>2026-05-02T15:45:45.998Z</time></trkpt><trkpt lat="44.72935547806346" lon="9.55042116522167"><ele>903.0</ele><time>2026-05-02T15:45:50.998Z</time></trkpt><trkpt lat="44.72938214481098" lon="9.55053093873077"><ele>903.0</ele><time>2026-05-02T15:45:54.998Z</time></trkpt><trkpt lat="44.7294241343735" lon="9.550646859825921"><ele>903.0</ele><time>2026-05-02T15:46:23Z</time></trkpt><trkpt lat="44.72946214760374" lon="9.550738361235965"><ele>903.0</ele><time>2026-05-02T15:46:24Z</time></trkpt><trkpt lat="44.72950950164494" lon="9.55084547952945"><ele>905.5999999999999</ele><time>2026-05-02T15:46:25Z</time></trkpt><trkpt lat="44.72956991996046" lon="9.550955888328213"><ele>908.1999999999999</ele><time>2026-05-02T15:46:26Z</time></trkpt><trkpt lat="44.72963553480337" lon="9.551072736673078"><ele>910.8</ele><time>2026-05-02T15:46:27Z</time></trkpt><trkpt lat="44.729707140947156" lon="9.551205012554266"><ele>913.4</ele><time>2026-05-02T15:46:28Z</time></trkpt><trkpt lat="44.72977235208242" lon="9.551335356050922"><ele>916.0</ele><time>2026-05-02T15:46:29Z</time></trkpt><trkpt lat="44.729827374511565" lon="9.55145853129603"><ele>916.1999999999999</ele><time>2026-05-02T15:46:30Z</time></trkpt><trkpt lat="44.729889765407464" lon="9.551597738470292"><ele>916.3999999999999</ele><time>2026-05-02T15:46:31Z</time></trkpt><trkpt lat="44.72995345684036" lon="9.551737294348909"><ele>916.6</ele><time>2026-05-02T15:46:32Z</time></trkpt><trkpt lat="44.730013930037416" lon="9.55185983624453"><ele>916.8</ele><time>2026-05-02T15:46:33Z</time></trkpt><trkpt lat="44.73007407283763" lon="9.551970082279915"><ele>917.0</ele><time>2026-05-02T15:46:34Z</time></trkpt><trkpt lat="44.7301383760104" lon="9.552097070764468"><ele>916.2</ele><time>2026-05-02T15:46:35Z</time></trkpt><trkpt lat="44.730207210526565" lon="9.552229106095195"><ele>915.4000000000001</ele><time>2026-05-02T15:46:36Z</time></trkpt><trkpt lat="44.730269812503096" lon="9.552349363376816"><ele>914.5999999999999</ele><time>2026-05-02T15:46:37Z</time></trkpt><trkpt lat="44.730343839930164" lon="9.55244923634556"><ele>913.8</ele><time>2026-05-02T15:46:38Z</time></trkpt><trkpt lat="44.730445534734386" lon="9.552544399789744"><ele>913.0</ele><time>2026-05-02T15:46:39Z</time></trkpt><trkpt lat="44.7305571700735" lon="9.55262174160324"><ele>915.75</ele><time>2026-05-02T15:46:40Z</time></trkpt><trkpt lat="44.73066808224417" lon="9.55269363052057"><ele>918.5</ele><time>2026-05-02T15:46:41Z</time></trkpt><trkpt lat="44.73077428810674" lon="9.552786006420977"><ele>921.25</ele><time>2026-05-02T15:46:42Z</time></trkpt><trkpt lat="44.73087451056234" lon="9.552895428864423"><ele>924.0</ele><time>2026-05-02T15:46:43Z</time></trkpt><trkpt lat="44.730975291645315" lon="9.553005787911257"><ele>926.8000000000001</ele><time>2026-05-02T15:46:44Z</time></trkpt><trkpt lat="44.73107263661036" lon="9.553106223014606"><ele>929.6000000000001</ele><time>2026-05-02T15:46:45Z</time></trkpt><trkpt lat="44.731154272205764" lon="9.553195753018288"><ele>932.4</ele><time>2026-05-02T15:46:45.999Z</time></trkpt><trkpt lat="44.73122182825829" lon="9.553294223205725"><ele>935.2</ele><time>2026-05-02T15:46:46.999Z</time></trkpt><trkpt lat="44.73126841465506" lon="9.553418947661404"><ele>938.0</ele><time>2026-05-02T15:46:47.999Z</time></trkpt><trkpt lat="44.73128793373996" lon="9.553570526286913"><ele>939.25</ele><time>2026-05-02T15:46:48.999Z</time></trkpt><trkpt lat="44.73127889105579" lon="9.553727390916642"><ele>940.5</ele><time>2026-05-02T15:46:49.999Z</time></trkpt><trkpt lat="44.73125967024629" lon="9.55389498181556"><ele>941.75</ele><time>2026-05-02T15:46:50.999Z</time></trkpt><trkpt lat="44.73124558114538" lon="9.554074900392331"><ele>943.0</ele><time>2026-05-02T15:46:51.999Z</time></trkpt><trkpt lat="44.73123309107889" lon="9.554264828943692"><ele>943.0</ele><time>2026-05-02T15:46:52.999Z</time></trkpt><trkpt lat="44.7312159460123" lon="9.554432283010167"><ele>943.0</ele><time>2026-05-02T15:46:53.999Z</time></trkpt><trkpt lat="44.731198529502464" lon="9.554573373342954"><ele>943.0</ele><time>2026-05-02T15:46:54.999Z</time></trkpt><trkpt lat="44.73119980395847" lon="9.554688336465397"><ele>943.0</ele><time>2026-05-02T15:46:55.999Z</time></trkpt><trkpt lat="44.73123490762823" lon="9.5547788043032"><ele>943.0</ele><time>2026-05-02T15:46:56.999Z</time></trkpt><trkpt lat="44.7312992260991" lon="9.554837920988232"><ele>942.5999999999999</ele><time>2026-05-02T15:46:57.999Z</time></trkpt><trkpt lat="44.73138429210199" lon="9.55486812012622"><ele>942.1999999999999</ele><time>2026-05-02T15:46:58.999Z</time></trkpt><trkpt lat="44.73145246949807" lon="9.554903527293376"><ele>941.8</ele><time>2026-05-02T15:46:59.999Z</time></trkpt><trkpt lat="44.73151314531362" lon="9.555051104879333"><ele>941.4</ele><time>2026-05-02T15:47:01.999Z</time></trkpt><trkpt lat="44.73155237572175" lon="9.555143939158118"><ele>941.0</ele><time>2026-05-02T15:47:02.999Z</time></trkpt><trkpt lat="44.73162339070052" lon="9.555275664777154"><ele>939.8</ele><time>2026-05-02T15:47:03.999Z</time></trkpt><trkpt lat="44.73167618887953" lon="9.555410963136584"><ele>938.5999999999999</ele><time>2026-05-02T15:47:04.999Z</time></trkpt><trkpt lat="44.73169480980955" lon="9.555539030368744"><ele>937.4</ele><time>2026-05-02T15:47:05.999Z</time></trkpt><trkpt lat="44.73173018592873" lon="9.55566683400635"><ele>936.2</ele><time>2026-05-02T15:47:06.999Z</time></trkpt><trkpt lat="44.731799538160104" lon="9.555783855262401"><ele>935.0</ele><time>2026-05-02T15:47:07.999Z</time></trkpt><trkpt lat="44.731860677311175" lon="9.555897907739094"><ele>935.0</ele><time>2026-05-02T15:47:08.999Z</time></trkpt><trkpt lat="44.731882124777" lon="9.556020501680491"><ele>935.0</ele><time>2026-05-02T15:47:09.999Z</time></trkpt><trkpt lat="44.73187214749266" lon="9.556148059655262"><ele>935.0</ele><time>2026-05-02T15:47:10.999Z</time></trkpt><trkpt lat="44.73184717355248" lon="9.556307858361732"><ele>935.0</ele><time>2026-05-02T15:47:11.999Z</time></trkpt><trkpt lat="44.73182458094944" lon="9.556465324190691"><ele>935.0</ele><time>2026-05-02T15:47:12.999Z</time></trkpt><trkpt lat="44.731834829189566" lon="9.556575236997533"><ele>936.5</ele><time>2026-05-02T15:47:13.999Z</time></trkpt><trkpt lat="44.731867797442696" lon="9.556704596296331"><ele>938.0</ele><time>2026-05-02T15:47:14.999Z</time></trkpt><trkpt lat="44.7318912656487" lon="9.556875831138013"><ele>939.5</ele><time>2026-05-02T15:47:15.999Z</time></trkpt><trkpt lat="44.731892025160874" lon="9.557047445808717"><ele>941.0</ele><time>2026-05-02T15:47:16.999Z</time></trkpt><trkpt lat="44.73189153929634" lon="9.557201444053062"><ele>942.0</ele><time>2026-05-02T15:47:17.999Z</time></trkpt><trkpt lat="44.7319288284668" lon="9.557287218060502"><ele>942.9999999999999</ele><time>2026-05-02T15:47:18.999Z</time></trkpt><trkpt lat="44.73189242575996" lon="9.557472081139501"><ele>943.9999999999999</ele><time>2026-05-02T15:47:20.999Z</time></trkpt><trkpt lat="44.731853683015984" lon="9.557603270991752"><ele>945.0</ele><time>2026-05-02T15:47:21.999Z</time></trkpt><trkpt lat="44.73183246371831" lon="9.557761749112935"><ele>946.0</ele><time>2026-05-02T15:47:22.999Z</time></trkpt><trkpt lat="44.731820515935844" lon="9.557936911841182"><ele>951.0</ele><time>2026-05-02T15:47:23.999Z</time></trkpt><trkpt lat="44.73178330148623" lon="9.558067492194827"><ele>956.0</ele><time>2026-05-02T15:47:24.999Z</time></trkpt><trkpt lat="44.731713510015204" lon="9.55816980939893"><ele>961.0</ele><time>2026-05-02T15:47:25.999Z</time></trkpt><trkpt lat="44.73161530405369" lon="9.558294336602104"><ele>966.0</ele><time>2026-05-02T15:47:26.999Z</time></trkpt><trkpt lat="44.73149767010088" lon="9.558426804591457"><ele>966.0</ele><time>2026-05-02T15:47:27.999Z</time></trkpt><trkpt lat="44.73140687438203" lon="9.558542974615616"><ele>965.9999999999999</ele><time>2026-05-02T15:47:28.999Z</time></trkpt><trkpt lat="44.73134429323527" lon="9.55866505152372"><ele>965.9999999999999</ele><time>2026-05-02T15:47:29.999Z</time></trkpt><trkpt lat="44.73131533036751" lon="9.558804803995885"><ele>966.0</ele><time>2026-05-02T15:47:30.999Z</time></trkpt><trkpt lat="44.73129950592903" lon="9.558933874412146"><ele>966.0</ele><time>2026-05-02T15:47:31.999Z</time></trkpt><trkpt lat="44.73130410547329" lon="9.559056783253197"><ele>970.75</ele><time>2026-05-02T15:47:32.999Z</time></trkpt><trkpt lat="44.731337620490464" lon="9.559192793848263"><ele>975.5</ele><time>2026-05-02T15:47:33.998Z</time></trkpt><trkpt lat="44.7313574045528" lon="9.559377152369647"><ele>980.25</ele><time>2026-05-02T15:47:34.998Z</time></trkpt><trkpt lat="44.73135022210085" lon="9.559571128351138"><ele>985.0</ele><time>2026-05-02T15:47:35.998Z</time></trkpt><trkpt lat="44.73136285516915" lon="9.559683954974515"><ele>985.9999999999999</ele><time>2026-05-02T15:47:36.998Z</time></trkpt><trkpt lat="44.731414978361954" lon="9.559763338562247"><ele>987.0</ele><time>2026-05-02T15:47:37.998Z</time></trkpt><trkpt lat="44.731477294044346" lon="9.559844927745289"><ele>988.0</ele><time>2026-05-02T15:47:38.998Z</time></trkpt><trkpt lat="44.73153993675682" lon="9.559899531911611"><ele>989.0</ele><time>2026-05-02T15:47:39.998Z</time></trkpt><trkpt lat="44.731610807968565" lon="9.559954897416189"><ele>989.9999999999999</ele><time>2026-05-02T15:47:40.998Z</time></trkpt><trkpt lat="44.73169653254766" lon="9.560004466195313"><ele>991.0</ele><time>2026-05-02T15:47:41.998Z</time></trkpt><trkpt lat="44.73180754723506" lon="9.560101016135041"><ele>991.1999999999999</ele><time>2026-05-02T15:47:42.998Z</time></trkpt><trkpt lat="44.731931367222415" lon="9.560206270782016"><ele>991.3999999999999</ele><time>2026-05-02T15:47:43.998Z</time></trkpt><trkpt lat="44.73203179902881" lon="9.560243487486543"><ele>991.6</ele><time>2026-05-02T15:47:44.998Z</time></trkpt><trkpt lat="44.73212233745992" lon="9.560263035596119"><ele>991.8</ele><time>2026-05-02T15:47:45.998Z</time></trkpt><trkpt lat="44.7322181320206" lon="9.560325245176198"><ele>992.0</ele><time>2026-05-02T15:47:46.998Z</time></trkpt><trkpt lat="44.73233467475051" lon="9.560420467007031"><ele>992.0</ele><time>2026-05-02T15:47:47.998Z</time></trkpt><trkpt lat="44.732431200228035" lon="9.560514759030841"><ele>992.0</ele><time>2026-05-02T15:47:48.998Z</time></trkpt><trkpt lat="44.732496340514366" lon="9.560541769479869"><ele>992.0</ele><time>2026-05-02T15:47:49.998Z</time></trkpt><trkpt lat="44.732579726038736" lon="9.560557397462826"><ele>992.0</ele><time>2026-05-02T15:47:50.998Z</time></trkpt><trkpt lat="44.73266861436774" lon="9.560553326939072"><ele>992.0</ele><time>2026-05-02T15:47:51.998Z</time></trkpt><trkpt lat="44.732806719233324" lon="9.560559710196097"><ele>992.5000000000001</ele><time>2026-05-02T15:47:52.998Z</time></trkpt><trkpt lat="44.73292324331776" lon="9.560570589153915"><ele>993.0</ele><time>2026-05-02T15:47:53.998Z</time></trkpt><trkpt lat="44.73299418675954" lon="9.56060652976758"><ele>993.5</ele><time>2026-05-02T15:47:54.998Z</time></trkpt><trkpt lat="44.73308926340804" lon="9.56063399997648"><ele>994.0</ele><time>2026-05-02T15:47:55.998Z</time></trkpt><trkpt lat="44.733164101121986" lon="9.560658170229807"><ele>994.5000000000001</ele><time>2026-05-02T15:47:56.998Z</time></trkpt><trkpt lat="44.733244994499636" lon="9.560667262071883"><ele>995.0</ele><time>2026-05-02T15:47:57.998Z</time></trkpt><trkpt lat="44.73333583111794" lon="9.560661453183343"><ele>995.0000000000001</ele><time>2026-05-02T15:47:58.998Z</time></trkpt><trkpt lat="44.73341978885673" lon="9.560639556653122"><ele>995.0</ele><time>2026-05-02T15:47:59.998Z</time></trkpt><trkpt lat="44.73352288805691" lon="9.560595441902043"><ele>995.0</ele><time>2026-05-02T15:48:00.998Z</time></trkpt><trkpt lat="44.733596380790864" lon="9.560543519796871"><ele>995.0</ele><time>2026-05-02T15:48:01.998Z</time></trkpt><trkpt lat="44.73367841572002" lon="9.560487137835988"><ele>995.0000000000001</ele><time>2026-05-02T15:48:02.998Z</time></trkpt><trkpt lat="44.733755729718624" lon="9.560469237982932"><ele>995.0</ele><time>2026-05-02T15:48:03.998Z</time></trkpt><trkpt lat="44.733836503276116" lon="9.560492886028413"><ele>994.0</ele><time>2026-05-02T15:48:04.998Z</time></trkpt><trkpt lat="44.73395380039783" lon="9.560546878044427"><ele>993.0</ele><time>2026-05-02T15:48:05.998Z</time></trkpt><trkpt lat="44.734095368668385" lon="9.56058836023117"><ele>992.0</ele><time>2026-05-02T15:48:06.998Z</time></trkpt><trkpt lat="44.7342338558374" lon="9.560632376042372"><ele>991.0</ele><time>2026-05-02T15:48:07.998Z</time></trkpt><trkpt lat="44.734343024735296" lon="9.560684086055877"><ele>994.1666666666666</ele><time>2026-05-02T15:48:08.998Z</time></trkpt><trkpt lat="44.7344175829371" lon="9.56072411329576"><ele>997.3333333333333</ele><time>2026-05-02T15:48:09.998Z</time></trkpt><trkpt lat="44.734478234593524" lon="9.56076493238837"><ele>1000.5</ele><time>2026-05-02T15:48:11.998Z</time></trkpt><trkpt lat="44.73453067468633" lon="9.56083743928672"><ele>1003.6666666666667</ele><time>2026-05-02T15:48:56.999Z</time></trkpt><trkpt lat="44.73460817991971" lon="9.560871626905216"><ele>1006.8333333333334</ele><time>2026-05-02T15:48:58.999Z</time></trkpt><trkpt lat="44.73467018103562" lon="9.56091104862002"><ele>1010.0</ele><time>2026-05-02T15:48:59.999Z</time></trkpt><trkpt lat="44.734749599181114" lon="9.560964183855871"><ele>1010.0000000000001</ele><time>2026-05-02T15:49:00.999Z</time></trkpt><trkpt lat="44.7348295128815" lon="9.561013642821747"><ele>1010.0</ele><time>2026-05-02T15:49:01.999Z</time></trkpt><trkpt lat="44.734904844753984" lon="9.56105650286435"><ele>1010.0</ele><time>2026-05-02T15:49:02.999Z</time></trkpt><trkpt lat="44.73497582387792" lon="9.56110575325018"><ele>1010.0</ele><time>2026-05-02T15:49:03.999Z</time></trkpt><trkpt lat="44.73503147762079" lon="9.56116097290802"><ele>1010.0000000000001</ele><time>2026-05-02T15:49:04.999Z</time></trkpt><trkpt lat="44.73508199130602" lon="9.561230573445478"><ele>1010.0</ele><time>2026-05-02T15:49:05.999Z</time></trkpt><trkpt lat="44.7351449917249" lon="9.56132249702601"><ele>1012.8</ele><time>2026-05-02T15:49:06.999Z</time></trkpt><trkpt lat="44.73519403267279" lon="9.561401674937786"><ele>1015.6</ele><time>2026-05-02T15:49:07.999Z</time></trkpt><trkpt lat="44.73524372167304" lon="9.561540968224952"><ele>1018.4000000000001</ele><time>2026-05-02T15:49:09.999Z</time></trkpt><trkpt lat="44.73522177404541" lon="9.561653051308216"><ele>1021.2</ele><time>2026-05-02T15:49:10.999Z</time></trkpt><trkpt lat="44.73520041374773" lon="9.56179677325913"><ele>1024.0</ele><time>2026-05-02T15:49:11.999Z</time></trkpt><trkpt lat="44.735192761178695" lon="9.561993141004912"><ele>1024.1666666666665</ele><time>2026-05-02T15:49:12.999Z</time></trkpt><trkpt lat="44.735202437339794" lon="9.562175959425385"><ele>1024.3333333333333</ele><time>2026-05-02T15:49:13.999Z</time></trkpt><trkpt lat="44.73519622287656" lon="9.562296698206692"><ele>1024.5</ele><time>2026-05-02T15:49:14.999Z</time></trkpt><trkpt lat="44.735189850343836" lon="9.562405337899571"><ele>1024.6666666666667</ele><time>2026-05-02T15:49:15.999Z</time></trkpt><trkpt lat="44.735191930605744" lon="9.562494216945128"><ele>1024.8333333333335</ele><time>2026-05-02T15:49:16.999Z</time></trkpt><trkpt lat="44.73523067021203" lon="9.56259451389224"><ele>1025.0</ele><time>2026-05-02T15:49:17.999Z</time></trkpt><trkpt lat="44.73529434368887" lon="9.562733217881553"><ele>1024.0</ele><time>2026-05-02T15:49:18.999Z</time></trkpt><trkpt lat="44.735366683340146" lon="9.562893271802606"><ele>1023.0</ele><time>2026-05-02T15:49:19.999Z</time></trkpt><trkpt lat="44.73542766733" lon="9.563048703767514"><ele>1022.0</ele><time>2026-05-02T15:49:20.999Z</time></trkpt><trkpt lat="44.735466241968986" lon="9.563180800319326"><ele>1021.0</ele><time>2026-05-02T15:49:21.999Z</time></trkpt><trkpt lat="44.73547919848828" lon="9.563316928398121"><ele>1021.0</ele><time>2026-05-02T15:49:22.999Z</time></trkpt><trkpt lat="44.7355007826164" lon="9.563457412805793"><ele>1020.9999999999999</ele><time>2026-05-02T15:49:23.999Z</time></trkpt><trkpt lat="44.735526727955076" lon="9.563579181118367"><ele>1020.9999999999999</ele><time>2026-05-02T15:49:24.999Z</time></trkpt><trkpt lat="44.73555912254065" lon="9.563692599995584"><ele>1021.0</ele><time>2026-05-02T15:49:25.999Z</time></trkpt><trkpt lat="44.7356018820923" lon="9.56380283793743"><ele>1021.0</ele><time>2026-05-02T15:49:26.999Z</time></trkpt><trkpt lat="44.73565906106006" lon="9.563908931569005"><ele>1018.0</ele><time>2026-05-02T15:49:27.999Z</time></trkpt><trkpt lat="44.73573284102994" lon="9.564024381708046"><ele>1014.9999999999999</ele><time>2026-05-02T15:49:28.999Z</time></trkpt><trkpt lat="44.7358293392924" lon="9.564138884069468"><ele>1011.9999999999999</ele><time>2026-05-02T15:49:29.999Z</time></trkpt><trkpt lat="44.73590490560142" lon="9.564233219744757"><ele>1009.0</ele><time>2026-05-02T15:49:30.999Z</time></trkpt><trkpt lat="44.735941885875434" lon="9.564322976744155"><ele>1006.0</ele><time>2026-05-02T15:49:31.999Z</time></trkpt><trkpt lat="44.735953255142306" lon="9.564447566770308"><ele>1003.25</ele><time>2026-05-02T15:49:32.999Z</time></trkpt><trkpt lat="44.7359522413786" lon="9.564647626365042"><ele>1000.5</ele><time>2026-05-02T15:49:33.999Z</time></trkpt><trkpt lat="44.73596101897933" lon="9.56486681255688"><ele>997.75</ele><time>2026-05-02T15:49:34.999Z</time></trkpt><trkpt lat="44.73597533658499" lon="9.565041791130962"><ele>995.0</ele><time>2026-05-02T15:49:35.999Z</time></trkpt><trkpt lat="44.735978609054804" lon="9.565172012871628"><ele>995.0000000000001</ele><time>2026-05-02T15:49:36.999Z</time></trkpt><trkpt lat="44.735993792691566" lon="9.565274933762476"><ele>995.0</ele><time>2026-05-02T15:49:37.999Z</time></trkpt><trkpt lat="44.73603091443216" lon="9.565355055327109"><ele>995.0</ele><time>2026-05-02T15:49:38.999Z</time></trkpt><trkpt lat="44.73608319507842" lon="9.565428897627289"><ele>995.0</ele><time>2026-05-02T15:49:39.999Z</time></trkpt><trkpt lat="44.736200812390194" lon="9.565486343443702"><ele>995.0000000000001</ele><time>2026-05-02T15:49:41.998Z</time></trkpt><trkpt lat="44.73630623218686" lon="9.565501713714475"><ele>995.0</ele><time>2026-05-02T15:49:42.998Z</time></trkpt><trkpt lat="44.73642458268645" lon="9.565528271698367"><ele>993.8</ele><time>2026-05-02T15:49:43.998Z</time></trkpt><trkpt lat="44.736530770492216" lon="9.565573031556237"><ele>992.6</ele><time>2026-05-02T15:49:44.998Z</time></trkpt><trkpt lat="44.73661475421615" lon="9.565626813035058"><ele>991.4000000000001</ele><time>2026-05-02T15:49:45.998Z</time></trkpt><trkpt lat="44.73667230849388" lon="9.565699021719421"><ele>990.2</ele><time>2026-05-02T15:49:46.998Z</time></trkpt><trkpt lat="44.73671879988441" lon="9.565797127534097"><ele>989.0</ele><time>2026-05-02T15:49:47.998Z</time></trkpt><trkpt lat="44.73678383828408" lon="9.565910395784204"><ele>989.0</ele><time>2026-05-02T15:49:48.998Z</time></trkpt><trkpt lat="44.73685966530246" lon="9.566039297963055"><ele>989.0</ele><time>2026-05-02T15:49:49.998Z</time></trkpt><trkpt lat="44.73693422591411" lon="9.56616931598821"><ele>989.0</ele><time>2026-05-02T15:49:50.998Z</time></trkpt><trkpt lat="44.737013087750626" lon="9.566258823468571"><ele>989.0</ele><time>2026-05-02T15:49:51.998Z</time></trkpt><trkpt lat="44.73711327262767" lon="9.566351619715995"><ele>988.8000000000001</ele><time>2026-05-02T15:49:52.998Z</time></trkpt><trkpt lat="44.73721640251258" lon="9.566443710716984"><ele>988.6000000000001</ele><time>2026-05-02T15:49:53.998Z</time></trkpt><trkpt lat="44.73729420047134" lon="9.566535865496967"><ele>988.4</ele><time>2026-05-02T15:49:54.998Z</time></trkpt><trkpt lat="44.73737114151564" lon="9.56664161859509"><ele>988.2</ele><time>2026-05-02T15:49:55.998Z</time></trkpt><trkpt lat="44.73745500101431" lon="9.566741816505179"><ele>988.0</ele><time>2026-05-02T15:49:56.998Z</time></trkpt><trkpt lat="44.73753134015905" lon="9.566829936711922"><ele>988.0</ele><time>2026-05-02T15:49:57.998Z</time></trkpt><trkpt lat="44.737617852627466" lon="9.566907430760203"><ele>988.0</ele><time>2026-05-02T15:49:58.998Z</time></trkpt><trkpt lat="44.73771373657783" lon="9.566982012376924"><ele>988.0</ele><time>2026-05-02T15:49:59.998Z</time></trkpt><trkpt lat="44.73780598704003" lon="9.56706446929473"><ele>988.0</ele><time>2026-05-02T15:50:00.998Z</time></trkpt><trkpt lat="44.737885447586194" lon="9.567155421503019"><ele>988.0</ele><time>2026-05-02T15:50:01.998Z</time></trkpt><trkpt lat="44.737954948954375" lon="9.567274138950792"><ele>985.2</ele><time>2026-05-02T15:50:02.998Z</time></trkpt><trkpt lat="44.73802717998532" lon="9.567380537981983"><ele>982.4</ele><time>2026-05-02T15:50:03.998Z</time></trkpt><trkpt lat="44.73809671160712" lon="9.567478197705455"><ele>979.6000000000001</ele><time>2026-05-02T15:50:04.998Z</time></trkpt><trkpt lat="44.738159947492704" lon="9.567561913278238"><ele>976.8000000000001</ele><time>2026-05-02T15:50:05.998Z</time></trkpt><trkpt lat="44.73824337242414" lon="9.567626228415332"><ele>974.0</ele><time>2026-05-02T15:50:06.998Z</time></trkpt><trkpt lat="44.738338052226005" lon="9.567666330688802"><ele>974.0000000000001</ele><time>2026-05-02T15:50:07.998Z</time></trkpt><trkpt lat="44.738423981115595" lon="9.567683880078782"><ele>974.0</ele><time>2026-05-02T15:50:08.998Z</time></trkpt><trkpt lat="44.7384951382094" lon="9.567700709708964"><ele>974.0</ele><time>2026-05-02T15:50:09.998Z</time></trkpt><trkpt lat="44.73856727292098" lon="9.567725074523842"><ele>974.0</ele><time>2026-05-02T15:50:10.998Z</time></trkpt><trkpt lat="44.73863835076308" lon="9.567776775606621"><ele>974.0000000000001</ele><time>2026-05-02T15:50:11.998Z</time></trkpt><trkpt lat="44.738711805109276" lon="9.567824290942184"><ele>974.0</ele><time>2026-05-02T15:50:12.998Z</time></trkpt><trkpt lat="44.73879116959669" lon="9.567865624450219"><ele>971.2</ele><time>2026-05-02T15:50:13.998Z</time></trkpt><trkpt lat="44.73888328063506" lon="9.567879699883385"><ele>968.4000000000001</ele><time>2026-05-02T15:50:14.998Z</time></trkpt><trkpt lat="44.73897329156044" lon="9.56791932369584"><ele>965.6</ele><time>2026-05-02T15:50:15.998Z</time></trkpt><trkpt lat="44.739042610303684" lon="9.56795677852537"><ele>962.8</ele><time>2026-05-02T15:50:16.998Z</time></trkpt><trkpt lat="44.739132906480016" lon="9.568022536562285"><ele>960.0</ele><time>2026-05-02T15:50:18.998Z</time></trkpt><trkpt lat="44.73922237380241" lon="9.568056971487879"><ele>960.0</ele><time>2026-05-02T15:50:21Z</time></trkpt><trkpt lat="44.73928385756878" lon="9.568082750197165"><ele>960.0</ele><time>2026-05-02T15:50:22Z</time></trkpt><trkpt lat="44.73939867578839" lon="9.568119455256074"><ele>960.0</ele><time>2026-05-02T15:50:24Z</time></trkpt><trkpt lat="44.73951891533699" lon="9.568133464880763"><ele>960.0</ele><time>2026-05-02T15:50:26Z</time></trkpt><trkpt lat="44.739624789692556" lon="9.5681488448792"><ele>960.0</ele><time>2026-05-02T15:50:27Z</time></trkpt><trkpt lat="44.73972564863233" lon="9.568172891201668"><ele>958.8</ele><time>2026-05-02T15:50:28Z</time></trkpt><trkpt lat="44.73980733633075" lon="9.568210856220915"><ele>957.6</ele><time>2026-05-02T15:50:29Z</time></trkpt><trkpt lat="44.739892812164705" lon="9.568219088961982"><ele>956.4000000000001</ele><time>2026-05-02T15:50:30Z</time></trkpt><trkpt lat="44.7399656535216" lon="9.568222167991436"><ele>955.2</ele><time>2026-05-02T15:50:31Z</time></trkpt><trkpt lat="44.74010168775834" lon="9.568193549791687"><ele>954.0</ele><time>2026-05-02T15:50:33Z</time></trkpt><trkpt lat="44.74022905772992" lon="9.568186361690218"><ele>951.8333333333334</ele><time>2026-05-02T15:50:35Z</time></trkpt><trkpt lat="44.74032953546961" lon="9.56821562806351"><ele>949.6666666666667</ele><time>2026-05-02T15:50:37Z</time></trkpt><trkpt lat="44.74039342951305" lon="9.568222316244276"><ele>947.5</ele><time>2026-05-02T15:50:38Z</time></trkpt><trkpt lat="44.74050328166199" lon="9.568217691275464"><ele>945.3333333333334</ele><time>2026-05-02T15:50:40Z</time></trkpt><trkpt lat="44.74056630215301" lon="9.568216187573947"><ele>943.1666666666667</ele><time>2026-05-02T15:50:41Z</time></trkpt><trkpt lat="44.74063099350569" lon="9.568211523183681"><ele>941.0</ele><time>2026-05-02T15:50:42Z</time></trkpt><trkpt lat="44.74075406423453" lon="9.56818902137541"><ele>941.0</ele><time>2026-05-02T15:50:44Z</time></trkpt><trkpt lat="44.74085981301904" lon="9.568205119228246"><ele>940.9999999999999</ele><time>2026-05-02T15:50:46Z</time></trkpt><trkpt lat="44.740932828077405" lon="9.568318185872947"><ele>940.9999999999999</ele><time>2026-05-02T15:51:54.998Z</time></trkpt><trkpt lat="44.74095204826478" lon="9.568221182642157"><ele>941.0</ele><time>2026-05-02T15:51:57.998Z</time></trkpt><trkpt lat="44.74100112981256" lon="9.568120276332518"><ele>941.0</ele><time>2026-05-02T15:51:59.998Z</time></trkpt><trkpt lat="44.741083872913215" lon="9.568006727570205"><ele>939.5000000000001</ele><time>2026-05-02T15:52:01.998Z</time></trkpt><trkpt lat="44.741170093386074" lon="9.567866101869877"><ele>938.0</ele><time>2026-05-02T15:52:03.998Z</time></trkpt><trkpt lat="44.7412149603074" lon="9.567790173125472"><ele>936.5</ele><time>2026-05-02T15:52:04.998Z</time></trkpt><trkpt lat="44.74127699478718" lon="9.567724606094565"><ele>935.0</ele><time>2026-05-02T15:52:05.998Z</time></trkpt><trkpt lat="44.741350049249746" lon="9.567670049643791"><ele>933.5000000000001</ele><time>2026-05-02T15:52:06.998Z</time></trkpt><trkpt lat="44.74142891683522" lon="9.567627498661706"><ele>932.0</ele><time>2026-05-02T15:52:07.998Z</time></trkpt><trkpt lat="44.741496115024965" lon="9.567571503082998"><ele>932.0000000000001</ele><time>2026-05-02T15:52:08.998Z</time></trkpt><trkpt lat="44.74155882342589" lon="9.567508810522362"><ele>932.0</ele><time>2026-05-02T15:52:09.998Z</time></trkpt><trkpt lat="44.74163973038525" lon="9.56745498871658"><ele>932.0</ele><time>2026-05-02T15:52:10.998Z</time></trkpt><trkpt lat="44.74171571048739" lon="9.567418678259179"><ele>932.0</ele><time>2026-05-02T15:52:11.998Z</time></trkpt><trkpt lat="44.74179003908946" lon="9.567387347324843"><ele>932.0000000000001</ele><time>2026-05-02T15:52:12.998Z</time></trkpt><trkpt lat="44.741860540702035" lon="9.567357974868964"><ele>932.0</ele><time>2026-05-02T15:52:13.998Z</time></trkpt><trkpt lat="44.741938359406525" lon="9.567335700586627"><ele>929.8</ele><time>2026-05-02T15:52:14.998Z</time></trkpt><trkpt lat="44.74205387098617" lon="9.567303930552152"><ele>927.6</ele><time>2026-05-02T15:52:15.998Z</time></trkpt><trkpt lat="44.742176478730855" lon="9.567279199243556"><ele>925.3999999999999</ele><time>2026-05-02T15:52:16.998Z</time></trkpt><trkpt lat="44.74225287089411" lon="9.567235129587758"><ele>923.1999999999999</ele><time>2026-05-02T15:52:17.998Z</time></trkpt><trkpt lat="44.742336594294436" lon="9.56721037134435"><ele>921.0</ele><time>2026-05-02T15:52:18.998Z</time></trkpt><trkpt lat="44.742430917696176" lon="9.56716805641616"><ele>921.0</ele><time>2026-05-02T15:52:19.998Z</time></trkpt><trkpt lat="44.74251533355508" lon="9.56713372181778"><ele>921.0</ele><time>2026-05-02T15:52:20.998Z</time></trkpt><trkpt lat="44.74259076725494" lon="9.567101677539021"><ele>921.0</ele><time>2026-05-02T15:52:21.998Z</time></trkpt><trkpt lat="44.74266645811928" lon="9.567060655421473"><ele>921.0</ele><time>2026-05-02T15:52:22.998Z</time></trkpt><trkpt lat="44.74274611205524" lon="9.566996007192273"><ele>921.0</ele><time>2026-05-02T15:52:23.998Z</time></trkpt><trkpt lat="44.742816173875056" lon="9.566891299444833"><ele>921.0</ele><time>2026-05-02T15:52:24.998Z</time></trkpt><trkpt lat="44.742890774521676" lon="9.566788878396348"><ele>918.3333333333334</ele><time>2026-05-02T15:52:25.998Z</time></trkpt><trkpt lat="44.74294262491475" lon="9.56670876531805"><ele>915.6666666666667</ele><time>2026-05-02T15:52:27Z</time></trkpt><trkpt lat="44.74300204487619" lon="9.566634223583932"><ele>913.0</ele><time>2026-05-02T15:52:29Z</time></trkpt><trkpt lat="44.743083339224675" lon="9.56660721948843"><ele>910.3333333333334</ele><time>2026-05-02T15:52:50Z</time></trkpt><trkpt lat="44.743201358884754" lon="9.566612339931801"><ele>907.6666666666667</ele><time>2026-05-02T15:52:52Z</time></trkpt><trkpt lat="44.74327079819012" lon="9.566640013641514"><ele>905.0</ele><time>2026-05-02T15:52:53Z</time></trkpt><trkpt lat="44.74337031190038" lon="9.566649609454704"><ele>905.0</ele><time>2026-05-02T15:52:55Z</time></trkpt><trkpt lat="44.743468812961005" lon="9.56662236506703"><ele>905.0</ele><time>2026-05-02T15:52:57Z</time></trkpt><trkpt lat="44.74356798793936" lon="9.566600520893573"><ele>905.0</ele><time>2026-05-02T15:52:59Z</time></trkpt><trkpt lat="44.74366743842617" lon="9.566581255647325"><ele>905.0</ele><time>2026-05-02T15:53:01Z</time></trkpt><trkpt lat="44.7437664316938" lon="9.566571307439805"><ele>905.0</ele><time>2026-05-02T15:53:03Z</time></trkpt><trkpt lat="44.74387450382289" lon="9.566554024568871"><ele>902.3333333333334</ele><time>2026-05-02T15:53:04.999Z</time></trkpt><trkpt lat="44.74397929744242" lon="9.566492411327411"><ele>899.6666666666667</ele><time>2026-05-02T15:53:06.999Z</time></trkpt><trkpt lat="44.74405166739757" lon="9.566432832058268"><ele>897.0</ele><time>2026-05-02T15:53:07.999Z</time></trkpt><trkpt lat="44.74412792968339" lon="9.566367340225153"><ele>894.3333333333333</ele><time>2026-05-02T15:53:08.999Z</time></trkpt><trkpt lat="44.74420010940391" lon="9.56631438821567"><ele>891.6666666666666</ele><time>2026-05-02T15:53:09.999Z</time></trkpt><trkpt lat="44.744261129224014" lon="9.566285735271022"><ele>889.0</ele><time>2026-05-02T15:53:10.999Z</time></trkpt><trkpt lat="44.74434948054201" lon="9.566341837015528"><ele>884.2</ele><time>2026-05-02T15:53:12.999Z</time></trkpt><trkpt lat="44.744410118207405" lon="9.566375263827974"><ele>879.4000000000001</ele><time>2026-05-02T15:53:13.999Z</time></trkpt><trkpt lat="44.744516641500795" lon="9.566344551039748"><ele>874.6</ele><time>2026-05-02T15:53:15.999Z</time></trkpt><trkpt lat="44.74459530089332" lon="9.566241374098858"><ele>869.8</ele><time>2026-05-02T15:53:17.999Z</time></trkpt><trkpt lat="44.744643148482965" lon="9.56618112383994"><ele>865.0</ele><time>2026-05-02T15:53:18.999Z</time></trkpt><trkpt lat="44.74471562512224" lon="9.566069325629647"><ele>865.0</ele><time>2026-05-02T15:53:20.999Z</time></trkpt><trkpt lat="44.74471370841395" lon="9.56593851994583"><ele>865.0</ele><time>2026-05-02T15:53:22.999Z</time></trkpt><trkpt lat="44.74466359070216" lon="9.565791840774617"><ele>865.0</ele><time>2026-05-02T15:53:24.999Z</time></trkpt><trkpt lat="44.74469223295336" lon="9.565646135678877"><ele>865.0</ele><time>2026-05-02T15:53:26.999Z</time></trkpt><trkpt lat="44.74477780583846" lon="9.56557434290481"><ele>865.0</ele><time>2026-05-02T15:53:28.999Z</time></trkpt><trkpt lat="44.74489108589644" lon="9.565530590728748"><ele>864.9999999999999</ele><time>2026-05-02T15:53:30.999Z</time></trkpt><trkpt lat="44.74499463594127" lon="9.565545295725993"><ele>865.0</ele><time>2026-05-02T15:53:32.999Z</time></trkpt><trkpt lat="44.74510288934911" lon="9.5656193294553"><ele>865.0</ele><time>2026-05-02T15:53:34.999Z</time></trkpt><trkpt lat="44.74516214762568" lon="9.565668758494063"><ele>865.0</ele><time>2026-05-02T15:53:35.999Z</time></trkpt><trkpt lat="44.74521069792726" lon="9.565727498345844"><ele>864.9999999999999</ele><time>2026-05-02T15:53:36.999Z</time></trkpt><trkpt lat="44.74526177553004" lon="9.56578200954587"><ele>865.0</ele><time>2026-05-02T15:53:37.999Z</time></trkpt><trkpt lat="44.74532651412584" lon="9.565821542012264"><ele>862.0</ele><time>2026-05-02T15:53:38.999Z</time></trkpt><trkpt lat="44.74538700329453" lon="9.565870212575858"><ele>859.0</ele><time>2026-05-02T15:53:39.999Z</time></trkpt><trkpt lat="44.745429852527145" lon="9.565937492288771"><ele>856.0</ele><time>2026-05-02T15:53:40.999Z</time></trkpt><trkpt lat="44.74546190361982" lon="9.566015261724894"><ele>853.0</ele><time>2026-05-02T15:53:41.999Z</time></trkpt><trkpt lat="44.74552372739292" lon="9.566077760254178"><ele>850.0</ele><time>2026-05-02T15:53:42.999Z</time></trkpt><trkpt lat="44.74559141360916" lon="9.566161120587482"><ele>847.0</ele><time>2026-05-02T15:53:44.999Z</time></trkpt><trkpt lat="44.745589688506406" lon="9.566254202663488"><ele>844.0</ele><time>2026-05-02T15:53:45.999Z</time></trkpt><trkpt lat="44.74562630018261" lon="9.566352924204017"><ele>844.0</ele><time>2026-05-02T15:53:47.999Z</time></trkpt><trkpt lat="44.74572802995286" lon="9.56632711914543"><ele>844.0</ele><time>2026-05-02T15:53:49.999Z</time></trkpt><trkpt lat="44.745807190816194" lon="9.566232886348043"><ele>844.0</ele><time>2026-05-02T15:53:51.999Z</time></trkpt><trkpt lat="44.745831793364935" lon="9.566081406269888"><ele>844.0</ele><time>2026-05-02T15:53:53.998Z</time></trkpt><trkpt lat="44.74584078644583" lon="9.56591630990825"><ele>844.0</ele><time>2026-05-02T15:53:55.998Z</time></trkpt><trkpt lat="44.745924477776676" lon="9.565880174273415"><ele>844.0</ele><time>2026-05-02T15:53:58.998Z</time></trkpt><trkpt lat="44.746025244836886" lon="9.565931699892795"><ele>844.0</ele><time>2026-05-02T15:54:00.998Z</time></trkpt><trkpt lat="44.74610802039283" lon="9.566054176289589"><ele>844.0</ele><time>2026-05-02T15:54:03.998Z</time></trkpt><trkpt lat="44.746189098465265" lon="9.566015868972805"><ele>844.0</ele><time>2026-05-02T15:54:05.998Z</time></trkpt><trkpt lat="44.74631260117424" lon="9.566004895689657"><ele>844.0</ele><time>2026-05-02T15:54:07.998Z</time></trkpt><trkpt lat="44.74635853411" lon="9.56607229684042"><ele>841.2</ele><time>2026-05-02T15:54:08.998Z</time></trkpt><trkpt lat="44.74645228109691" lon="9.566165384487286"><ele>838.4000000000001</ele><time>2026-05-02T15:54:10.998Z</time></trkpt><trkpt lat="44.746558189950726" lon="9.566135477153725"><ele>835.6</ele><time>2026-05-02T15:54:12.998Z</time></trkpt><trkpt lat="44.746638738675856" lon="9.56620727197513"><ele>832.8</ele><time>2026-05-02T15:54:14.998Z</time></trkpt><trkpt lat="44.74662994214989" lon="9.566347382295614"><ele>830.0</ele><time>2026-05-02T15:54:16.998Z</time></trkpt><trkpt lat="44.74671236341704" lon="9.566385385159577"><ele>827.6666666666667</ele><time>2026-05-02T15:54:19.998Z</time></trkpt><trkpt lat="44.74682690397731" lon="9.566360273661454"><ele>825.3333333333334</ele><time>2026-05-02T15:54:21.998Z</time></trkpt><trkpt lat="44.74690590079042" lon="9.566356143714906"><ele>823.0</ele><time>2026-05-02T15:54:23.998Z</time></trkpt><trkpt lat="44.746975286940234" lon="9.56635591931511"><ele>820.6666666666667</ele><time>2026-05-02T15:54:25.998Z</time></trkpt><trkpt lat="44.747053988807444" lon="9.566390556887791"><ele>818.3333333333334</ele><time>2026-05-02T15:54:27.998Z</time></trkpt><trkpt lat="44.74707832610776" lon="9.5665086143849"><ele>816.0</ele><time>2026-05-02T15:54:29.998Z</time></trkpt><trkpt lat="44.747093460354606" lon="9.566617634266773"><ele>813.6666666666666</ele><time>2026-05-02T15:54:31.998Z</time></trkpt><trkpt lat="44.74717393088311" lon="9.566630736257164"><ele>811.3333333333333</ele><time>2026-05-02T15:54:34Z</time></trkpt><trkpt lat="44.747226260960105" lon="9.566713113952309"><ele>809.0</ele><time>2026-05-02T15:54:36Z</time></trkpt><trkpt lat="44.74724766688304" lon="9.566819921443109"><ele>806.6666666666666</ele><time>2026-05-02T15:54:38Z</time></trkpt><trkpt lat="44.747342273768794" lon="9.566843131434794"><ele>804.3333333333333</ele><time>2026-05-02T15:54:40Z</time></trkpt><trkpt lat="44.74745088805565" lon="9.566841478578377"><ele>802.0</ele><time>2026-05-02T15:54:42Z</time></trkpt><trkpt lat="44.747526454574945" lon="9.566857343780548"><ele>801.9999999999999</ele><time>2026-05-02T15:54:43Z</time></trkpt><trkpt lat="44.747631590713645" lon="9.566843669592332"><ele>802.0</ele><time>2026-05-02T15:54:45Z</time></trkpt><trkpt lat="44.747757721210505" lon="9.566778011209799"><ele>802.0</ele><time>2026-05-02T15:54:47Z</time></trkpt><trkpt lat="44.74782893440069" lon="9.566753514697805"><ele>802.0</ele><time>2026-05-02T15:54:48Z</time></trkpt><trkpt lat="44.74789445539787" lon="9.566721850365493"><ele>801.9999999999999</ele><time>2026-05-02T15:54:49Z</time></trkpt><trkpt lat="44.7479593884929" lon="9.566739887955958"><ele>802.0</ele><time>2026-05-02T15:54:50Z</time></trkpt><trkpt lat="44.74804238442554" lon="9.566769849498602"><ele>797.8</ele><time>2026-05-02T15:54:52Z</time></trkpt><trkpt lat="44.74814065161384" lon="9.566829947485955"><ele>793.6</ele><time>2026-05-02T15:54:54Z</time></trkpt><trkpt lat="44.7482216321392" lon="9.566887680612155"><ele>789.4</ele><time>2026-05-02T15:54:56Z</time></trkpt><trkpt lat="44.74830952440505" lon="9.566894435866233"><ele>785.1999999999999</ele><time>2026-05-02T15:54:58Z</time></trkpt><trkpt lat="44.748383877468086" lon="9.566905281090001"><ele>781.0</ele><time>2026-05-02T15:55:00Z</time></trkpt><trkpt lat="44.748504765968725" lon="9.566964366776553"><ele>777.1999999999999</ele><time>2026-05-02T15:55:39.999Z</time></trkpt><trkpt lat="44.74856319247343" lon="9.567004190333884"><ele>773.4</ele><time>2026-05-02T15:56:39Z</time></trkpt><trkpt lat="44.74862557322973" lon="9.56712353084327"><ele>769.6</ele><time>2026-05-02T15:56:42Z</time></trkpt><trkpt lat="44.74865005609327" lon="9.567239247846688"><ele>765.8</ele><time>2026-05-02T15:56:44Z</time></trkpt><trkpt lat="44.74872718941895" lon="9.567348882843977"><ele>762.0</ele><time>2026-05-02T15:56:46Z</time></trkpt><trkpt lat="44.748782301287854" lon="9.567439959007807"><ele>762.0</ele><time>2026-05-02T15:56:47Z</time></trkpt><trkpt lat="44.74883658921558" lon="9.567530271050876"><ele>762.0</ele><time>2026-05-02T15:56:48Z</time></trkpt><trkpt lat="44.74889119077998" lon="9.567582496925871"><ele>762.0</ele><time>2026-05-02T15:56:49Z</time></trkpt><trkpt lat="44.74891959689302" lon="9.567673766401935"><ele>762.0</ele><time>2026-05-02T15:56:51Z</time></trkpt><trkpt lat="44.748952589027716" lon="9.567753217656092"><ele>762.0</ele><time>2026-05-02T15:56:54Z</time></trkpt><trkpt lat="44.74900485828123" lon="9.567827958397874"><ele>762.0</ele><time>2026-05-02T15:56:59Z</time></trkpt><trkpt lat="44.749066778062314" lon="9.567912321019918"><ele>762.0</ele><time>2026-05-02T15:57:05Z</time></trkpt><trkpt lat="44.749124375125625" lon="9.568000971420194"><ele>762.5</ele><time>2026-05-02T15:57:07Z</time></trkpt><trkpt lat="44.74917416942237" lon="9.56808928883618"><ele>763.0</ele><time>2026-05-02T15:57:09Z</time></trkpt><trkpt lat="44.74921649981382" lon="9.568160919649975"><ele>763.5</ele><time>2026-05-02T15:57:11Z</time></trkpt><trkpt lat="44.74924224303091" lon="9.568270959007606"><ele>764.0</ele><time>2026-05-02T15:57:13Z</time></trkpt><trkpt lat="44.74929806993479" lon="9.568406401308014"><ele>764.5</ele><time>2026-05-02T15:57:15Z</time></trkpt><trkpt lat="44.749335956570306" lon="9.56853610163843"><ele>765.0</ele><time>2026-05-02T15:57:16.999Z</time></trkpt><trkpt lat="44.74936829118923" lon="9.568620326081115"><ele>762.1666666666666</ele><time>2026-05-02T15:57:17.999Z</time></trkpt><trkpt lat="44.74940046606539" lon="9.568706968563376"><ele>759.3333333333334</ele><time>2026-05-02T15:57:18.999Z</time></trkpt><trkpt lat="44.74944007683544" lon="9.568788151344247"><ele>756.5</ele><time>2026-05-02T15:57:19.999Z</time></trkpt><trkpt lat="44.74946278886788" lon="9.568889303487921"><ele>753.6666666666667</ele><time>2026-05-02T15:57:20.999Z</time></trkpt><trkpt lat="44.74953621339154" lon="9.569021857330526"><ele>750.8333333333334</ele><time>2026-05-02T15:57:22.999Z</time></trkpt><trkpt lat="44.74960107849706" lon="9.56912090425715"><ele>748.0</ele><time>2026-05-02T15:57:24.999Z</time></trkpt><trkpt lat="44.74965834284894" lon="9.569226399940543"><ele>748.0</ele><time>2026-05-02T15:57:26.999Z</time></trkpt><trkpt lat="44.749737116043576" lon="9.569230114246656"><ele>748.0</ele><time>2026-05-02T15:57:29.999Z</time></trkpt><trkpt lat="44.74978438861917" lon="9.569289784177384"><ele>748.0</ele><time>2026-05-02T15:57:40.999Z</time></trkpt><trkpt lat="44.74984759455237" lon="9.569357881289339"><ele>748.0</ele><time>2026-05-02T15:58:18.998Z</time></trkpt><trkpt lat="44.74996745370821" lon="9.569405105208173"><ele>748.0</ele><time>2026-05-02T15:58:20.998Z</time></trkpt><trkpt lat="44.750052010691675" lon="9.569410280760822"><ele>748.0</ele><time>2026-05-02T15:58:21.998Z</time></trkpt><trkpt lat="44.75015189798278" lon="9.569402672114123"><ele>745.2</ele><time>2026-05-02T15:58:22.998Z</time></trkpt><trkpt lat="44.750253264610585" lon="9.569396091376085"><ele>742.4</ele><time>2026-05-02T15:58:23.998Z</time></trkpt><trkpt lat="44.75031663608106" lon="9.569395550922316"><ele>739.6</ele><time>2026-05-02T15:58:24.998Z</time></trkpt><trkpt lat="44.75043541294965" lon="9.569376979454262"><ele>736.8000000000001</ele><time>2026-05-02T15:58:26.998Z</time></trkpt><trkpt lat="44.75054290707261" lon="9.569359741608801"><ele>734.0</ele><time>2026-05-02T15:58:28.998Z</time></trkpt><trkpt lat="44.75066655053017" lon="9.569360954432298"><ele>734.0</ele><time>2026-05-02T15:58:30.998Z</time></trkpt><trkpt lat="44.75077806715568" lon="9.56932469542421"><ele>734.0</ele><time>2026-05-02T15:58:32.998Z</time></trkpt><trkpt lat="44.750827284665384" lon="9.569264401784462"><ele>734.0</ele><time>2026-05-02T15:58:34.998Z</time></trkpt><trkpt lat="44.75092499384726" lon="9.569235146635535"><ele>734.0</ele><time>2026-05-02T15:58:36.998Z</time></trkpt><trkpt lat="44.75102100790258" lon="9.56921841680277"><ele>734.0</ele><time>2026-05-02T15:58:38.998Z</time></trkpt><trkpt lat="44.751111834798934" lon="9.569136321789697"><ele>729.8000000000001</ele><time>2026-05-02T15:58:40.998Z</time></trkpt><trkpt lat="44.75119476257756" lon="9.569042015896448"><ele>725.6</ele><time>2026-05-02T15:58:42.998Z</time></trkpt><trkpt lat="44.75125685271124" lon="9.568991110738823"><ele>721.4</ele><time>2026-05-02T15:58:45Z</time></trkpt><trkpt lat="44.75138059951851" lon="9.569016766502708"><ele>717.2</ele><time>2026-05-02T15:58:47Z</time></trkpt><trkpt lat="44.75147262997062" lon="9.568971487228563"><ele>713.0</ele><time>2026-05-02T15:58:49Z</time></trkpt><trkpt lat="44.75151558175178" lon="9.568840012112226"><ele>713.0</ele><time>2026-05-02T15:58:51Z</time></trkpt><trkpt lat="44.75148258675403" lon="9.568708952935406"><ele>713.0</ele><time>2026-05-02T15:58:53Z</time></trkpt><trkpt lat="44.75147520793913" lon="9.56854685940743"><ele>713.0</ele><time>2026-05-02T15:58:55Z</time></trkpt><trkpt lat="44.751494141626495" lon="9.568460425325002"><ele>713.0</ele><time>2026-05-02T15:58:56Z</time></trkpt><trkpt lat="44.751513925530766" lon="9.568375701767746"><ele>713.0</ele><time>2026-05-02T15:58:57Z</time></trkpt><trkpt lat="44.751525022740104" lon="9.568222976868428"><ele>712.6666666666666</ele><time>2026-05-02T15:58:59Z</time></trkpt><trkpt lat="44.751549349876115" lon="9.568119599242214"><ele>712.3333333333333</ele><time>2026-05-02T15:59:01Z</time></trkpt><trkpt lat="44.75162916634698" lon="9.568113913162279"><ele>712.0</ele><time>2026-05-02T15:59:03Z</time></trkpt><trkpt lat="44.75171387111593" lon="9.568135552153883"><ele>711.6666666666666</ele><time>2026-05-02T15:59:05Z</time></trkpt><trkpt lat="44.751795521756634" lon="9.56813092254296"><ele>711.3333333333334</ele><time>2026-05-02T15:59:07Z</time></trkpt><trkpt lat="44.751888516020855" lon="9.568141551267926"><ele>711.0</ele><time>2026-05-02T15:59:09Z</time></trkpt><trkpt lat="44.75197949919253" lon="9.568149692268468"><ele>708.6666666666666</ele><time>2026-05-02T15:59:11Z</time></trkpt><trkpt lat="44.752050113885524" lon="9.568199472829228"><ele>706.3333333333334</ele><time>2026-05-02T15:59:12Z</time></trkpt><trkpt lat="44.75216003860801" lon="9.568234367829664"><ele>704.0</ele><time>2026-05-02T15:59:14Z</time></trkpt><trkpt lat="44.75222378106976" lon="9.56824450550452"><ele>701.6666666666667</ele><time>2026-05-02T15:59:15Z</time></trkpt><trkpt lat="44.752293087687676" lon="9.568227467167311"><ele>699.3333333333334</ele><time>2026-05-02T15:59:16Z</time></trkpt><trkpt lat="44.75239558370108" lon="9.568157231330632"><ele>697.0</ele><time>2026-05-02T15:59:18Z</time></trkpt><trkpt lat="44.75246862333017" lon="9.568071232969563"><ele>697.0</ele><time>2026-05-02T15:59:20Z</time></trkpt><trkpt lat="44.752542637472345" lon="9.567915468169284"><ele>697.0</ele><time>2026-05-02T15:59:22Z</time></trkpt><trkpt lat="44.7525933802571" lon="9.567790116865957"><ele>697.0</ele><time>2026-05-02T15:59:23.999Z</time></trkpt><trkpt lat="44.752640931458906" lon="9.567692072361663"><ele>697.0</ele><time>2026-05-02T15:59:25.999Z</time></trkpt><trkpt lat="44.75269694475777" lon="9.567639623842632"><ele>697.0</ele><time>2026-05-02T15:59:26.999Z</time></trkpt><trkpt lat="44.75270515872936" lon="9.567521045724414"><ele>694.0</ele><time>2026-05-02T15:59:29.999Z</time></trkpt><trkpt lat="44.75276803488252" lon="9.567367930355946"><ele>691.0</ele><time>2026-05-02T15:59:32.999Z</time></trkpt><trkpt lat="44.752807200587355" lon="9.56726535652707"><ele>688.0</ele><time>2026-05-02T15:59:33.999Z</time></trkpt><trkpt lat="44.75288804939366" lon="9.567119041309363"><ele>685.0</ele><time>2026-05-02T15:59:35.999Z</time></trkpt><trkpt lat="44.75295041744342" lon="9.567075827816671"><ele>682.0</ele><time>2026-05-02T15:59:36.999Z</time></trkpt><trkpt lat="44.75307687308742" lon="9.56703970251726"><ele>682.0</ele><time>2026-05-02T15:59:38.999Z</time></trkpt><trkpt lat="44.753144840025584" lon="9.567025932680448"><ele>682.0</ele><time>2026-05-02T15:59:39.999Z</time></trkpt><trkpt lat="44.75321996521581" lon="9.567025780942208"><ele>682.0</ele><time>2026-05-02T15:59:40.999Z</time></trkpt><trkpt lat="44.753288418208506" lon="9.567042590283044"><ele>682.0</ele><time>2026-05-02T15:59:41.999Z</time></trkpt><trkpt lat="44.75336296373793" lon="9.567042684748278"><ele>682.0</ele><time>2026-05-02T15:59:42.999Z</time></trkpt><trkpt lat="44.753463050940276" lon="9.567001697265054"><ele>682.0</ele><time>2026-05-02T15:59:44.999Z</time></trkpt><trkpt lat="44.7535297529375" lon="9.56701435918143"><ele>678.2</ele><time>2026-05-02T15:59:46.999Z</time></trkpt><trkpt lat="44.75361894150142" lon="9.567044920895784"><ele>674.4000000000001</ele><time>2026-05-02T15:59:48.999Z</time></trkpt><trkpt lat="44.75368170934158" lon="9.567140507556894"><ele>670.5999999999999</ele><time>2026-05-02T15:59:50.999Z</time></trkpt><trkpt lat="44.753764671855336" lon="9.56725666460609"><ele>666.8</ele><time>2026-05-02T15:59:52.999Z</time></trkpt><trkpt lat="44.75383131822273" lon="9.567294816481681"><ele>663.0</ele><time>2026-05-02T15:59:53.999Z</time></trkpt><trkpt lat="44.75391067774709" lon="9.567322076105828"><ele>663.0</ele><time>2026-05-02T15:59:54.999Z</time></trkpt><trkpt lat="44.75397808479399" lon="9.567328030725852"><ele>663.0</ele><time>2026-05-02T15:59:55.999Z</time></trkpt><trkpt lat="44.75407761219186" lon="9.567375187258946"><ele>663.0</ele><time>2026-05-02T15:59:57.999Z</time></trkpt><trkpt lat="44.754140177999254" lon="9.567524148357172"><ele>663.0</ele><time>2026-05-02T15:59:59.999Z</time></trkpt><trkpt lat="44.754198581888026" lon="9.56759713021485"><ele>663.0</ele><time>2026-05-02T16:00:00.999Z</time></trkpt><trkpt lat="44.754255523475344" lon="9.567660976869453"><ele>663.0</ele><time>2026-05-02T16:00:01.999Z</time></trkpt><trkpt lat="44.7543165455325" lon="9.567712211920968"><ele>660.0</ele><time>2026-05-02T16:00:02.999Z</time></trkpt><trkpt lat="44.75438436152715" lon="9.567731704163021"><ele>657.0</ele><time>2026-05-02T16:00:03.999Z</time></trkpt><trkpt lat="44.754449506720924" lon="9.567749853863086"><ele>654.0</ele><time>2026-05-02T16:00:04.999Z</time></trkpt><trkpt lat="44.75454850713092" lon="9.567839089857507"><ele>651.0</ele><time>2026-05-02T16:00:06.999Z</time></trkpt><trkpt lat="44.754636676227655" lon="9.567798194132344"><ele>648.0</ele><time>2026-05-02T16:00:09.999Z</time></trkpt><trkpt lat="44.754719747457514" lon="9.56762615838399"><ele>648.0</ele><time>2026-05-02T16:00:11.998Z</time></trkpt><trkpt lat="44.75477035992923" lon="9.567477562912845"><ele>648.0</ele><time>2026-05-02T16:00:13.998Z</time></trkpt><trkpt lat="44.754825296386194" lon="9.567403397393687"><ele>648.0</ele><time>2026-05-02T16:00:15.998Z</time></trkpt><trkpt lat="44.75490432913395" lon="9.567407454312209"><ele>648.0</ele><time>2026-05-02T16:00:17.998Z</time></trkpt><trkpt lat="44.7549612487937" lon="9.567515301761961"><ele>648.0</ele><time>2026-05-02T16:02:09.999Z</time></trkpt><trkpt lat="44.75496141860647" lon="9.567605860435739"><ele>648.0</ele><time>2026-05-02T16:02:10.999Z</time></trkpt><trkpt lat="44.75498566728329" lon="9.567762833394019"><ele>646.1666666666666</ele><time>2026-05-02T16:02:12.999Z</time></trkpt><trkpt lat="44.7550238439285" lon="9.567908608225608"><ele>644.3333333333334</ele><time>2026-05-02T16:02:14.998Z</time></trkpt><trkpt lat="44.75504448580486" lon="9.567996631894339"><ele>642.5</ele><time>2026-05-02T16:02:15.998Z</time></trkpt><trkpt lat="44.75506786369933" lon="9.568092257500384"><ele>640.6666666666667</ele><time>2026-05-02T16:02:16.998Z</time></trkpt><trkpt lat="44.755100144481844" lon="9.568188279571526"><ele>638.8333333333334</ele><time>2026-05-02T16:02:17.998Z</time></trkpt><trkpt lat="44.75514789320575" lon="9.568294599707652"><ele>637.0</ele><time>2026-05-02T16:02:18.998Z</time></trkpt><trkpt lat="44.75519535275959" lon="9.568418868767685"><ele>636.6</ele><time>2026-05-02T16:02:19.998Z</time></trkpt><trkpt lat="44.75523930418198" lon="9.568530211961784"><ele>636.2</ele><time>2026-05-02T16:02:20.998Z</time></trkpt><trkpt lat="44.75528652660978" lon="9.568621915338408"><ele>635.8</ele><time>2026-05-02T16:02:21.998Z</time></trkpt><trkpt lat="44.75532815885679" lon="9.568729419634725"><ele>635.4</ele><time>2026-05-02T16:02:22.998Z</time></trkpt><trkpt lat="44.7553692056616" lon="9.568860092296"><ele>635.0</ele><time>2026-05-02T16:02:23.998Z</time></trkpt><trkpt lat="44.75540615783042" lon="9.568998440705398"><ele>635.0</ele><time>2026-05-02T16:02:24.998Z</time></trkpt><trkpt lat="44.75543601296965" lon="9.569096182260566"><ele>635.0</ele><time>2026-05-02T16:02:25.998Z</time></trkpt><trkpt lat="44.75547445677387" lon="9.569205020538574"><ele>635.0</ele><time>2026-05-02T16:02:26.998Z</time></trkpt><trkpt lat="44.75551121332337" lon="9.569298383330931"><ele>635.0</ele><time>2026-05-02T16:02:27.998Z</time></trkpt><trkpt lat="44.75555585967257" lon="9.569391796164577"><ele>635.0</ele><time>2026-05-02T16:02:28.998Z</time></trkpt><trkpt lat="44.755590911898224" lon="9.569475662679356"><ele>635.0</ele><time>2026-05-02T16:02:29.998Z</time></trkpt><trkpt lat="44.75561378542798" lon="9.56957569550572"><ele>633.1428571428571</ele><time>2026-05-02T16:02:30.998Z</time></trkpt><trkpt lat="44.75563902823253" lon="9.569668794806878"><ele>631.2857142857142</ele><time>2026-05-02T16:02:31.998Z</time></trkpt><trkpt lat="44.75565700495324" lon="9.569756095694883"><ele>629.4285714285713</ele><time>2026-05-02T16:02:32.998Z</time></trkpt><trkpt lat="44.755668964035465" lon="9.569848948534498"><ele>627.5714285714286</ele><time>2026-05-02T16:02:33.998Z</time></trkpt><trkpt lat="44.755694263775474" lon="9.5699320829202"><ele>625.7142857142858</ele><time>2026-05-02T16:02:34.998Z</time></trkpt><trkpt lat="44.75573431520125" lon="9.570017407915456"><ele>623.8571428571428</ele><time>2026-05-02T16:02:35.998Z</time></trkpt><trkpt lat="44.755756363549274" lon="9.57011579285986"><ele>622.0</ele><time>2026-05-02T16:02:36.998Z</time></trkpt><trkpt lat="44.75577631905883" lon="9.570207715296474"><ele>620.0</ele><time>2026-05-02T16:02:37.998Z</time></trkpt><trkpt lat="44.75580105752576" lon="9.570360128469911"><ele>618.0</ele><time>2026-05-02T16:02:39.998Z</time></trkpt><trkpt lat="44.75578419906024" lon="9.570459081738777"><ele>616.0</ele><time>2026-05-02T16:02:40.998Z</time></trkpt><trkpt lat="44.75576298431165" lon="9.570558066082441"><ele>614.0</ele><time>2026-05-02T16:02:41.998Z</time></trkpt><trkpt lat="44.75575205708925" lon="9.570648959963338"><ele>612.0</ele><time>2026-05-02T16:02:42.998Z</time></trkpt><trkpt lat="44.755748662284226" lon="9.570821029733793"><ele>610.0</ele><time>2026-05-02T16:02:44.998Z</time></trkpt><trkpt lat="44.755741402472005" lon="9.570914634649187"><ele>610.0</ele><time>2026-05-02T16:02:45.998Z</time></trkpt><trkpt lat="44.75573329255864" lon="9.571006962847532"><ele>610.0</ele><time>2026-05-02T16:02:46.998Z</time></trkpt><trkpt lat="44.75575621237725" lon="9.571161811595191"><ele>610.0</ele><time>2026-05-02T16:02:48.998Z</time></trkpt><trkpt lat="44.7558024210281" lon="9.571227423133783"><ele>610.0</ele><time>2026-05-02T16:02:49.998Z</time></trkpt><trkpt lat="44.75585122149712" lon="9.571293080922699"><ele>610.0</ele><time>2026-05-02T16:02:50.998Z</time></trkpt><trkpt lat="44.75596483382151" lon="9.5713579688853"><ele>610.0</ele><time>2026-05-02T16:02:52.998Z</time></trkpt><trkpt lat="44.75602161141519" lon="9.571410388218228"><ele>608.6</ele><time>2026-05-02T16:02:53.998Z</time></trkpt><trkpt lat="44.75612087536142" lon="9.571455600346729"><ele>607.2</ele><time>2026-05-02T16:02:55.998Z</time></trkpt><trkpt lat="44.75619688947143" lon="9.571450638457689"><ele>605.8</ele><time>2026-05-02T16:02:58Z</time></trkpt><trkpt lat="44.75625579709797" lon="9.571615024207944"><ele>604.4</ele><time>2026-05-02T16:03:00Z</time></trkpt><trkpt lat="44.75630339455493" lon="9.57170495106437"><ele>603.0</ele><time>2026-05-02T16:03:01Z</time></trkpt><trkpt lat="44.756380744518005" lon="9.571779451087016"><ele>603.0</ele><time>2026-05-02T16:03:02Z</time></trkpt><trkpt lat="44.756471276794024" lon="9.571850577900946"><ele>603.0</ele><time>2026-05-02T16:03:03Z</time></trkpt><trkpt lat="44.75653515477955" lon="9.571925900604137"><ele>603.0</ele><time>2026-05-02T16:03:04Z</time></trkpt><trkpt lat="44.756579117694265" lon="9.57201817956527"><ele>603.0</ele><time>2026-05-02T16:03:05Z</time></trkpt><trkpt lat="44.75660631826098" lon="9.572139612261209"><ele>603.0</ele><time>2026-05-02T16:03:06Z</time></trkpt><trkpt lat="44.75663879831257" lon="9.572279669609449"><ele>601.6666666666666</ele><time>2026-05-02T16:03:07Z</time></trkpt><trkpt lat="44.75667590362833" lon="9.572421728634138"><ele>600.3333333333334</ele><time>2026-05-02T16:03:08Z</time></trkpt><trkpt lat="44.75669896889871" lon="9.572560166512487"><ele>599.0</ele><time>2026-05-02T16:03:09Z</time></trkpt><trkpt lat="44.75671345407694" lon="9.57267656396011"><ele>597.6666666666667</ele><time>2026-05-02T16:03:10Z</time></trkpt><trkpt lat="44.756713614095204" lon="9.572782792178032"><ele>596.3333333333334</ele><time>2026-05-02T16:03:11Z</time></trkpt><trkpt lat="44.7566944026105" lon="9.572883735670565"><ele>595.0</ele><time>2026-05-02T16:03:12Z</time></trkpt><trkpt lat="44.756672040430374" lon="9.572990598019212"><ele>593.8333333333334</ele><time>2026-05-02T16:03:13Z</time></trkpt><trkpt lat="44.75666488190435" lon="9.573095894349635"><ele>592.6666666666667</ele><time>2026-05-02T16:03:14Z</time></trkpt><trkpt lat="44.75667398806997" lon="9.573194862969057"><ele>591.5</ele><time>2026-05-02T16:03:15Z</time></trkpt><trkpt lat="44.756700165838396" lon="9.573289976965087"><ele>590.3333333333334</ele><time>2026-05-02T16:03:16Z</time></trkpt><trkpt lat="44.756711136058826" lon="9.57338898049829"><ele>589.1666666666666</ele><time>2026-05-02T16:03:17Z</time></trkpt><trkpt lat="44.75669282516599" lon="9.573505882850366"><ele>588.0</ele><time>2026-05-02T16:03:18Z</time></trkpt><trkpt lat="44.75665813920519" lon="9.573639561357126"><ele>587.8333333333334</ele><time>2026-05-02T16:03:19Z</time></trkpt><trkpt lat="44.75664697558527" lon="9.573776406132291"><ele>587.6666666666666</ele><time>2026-05-02T16:03:20Z</time></trkpt><trkpt lat="44.756665285629566" lon="9.573900462226502"><ele>587.5</ele><time>2026-05-02T16:03:21Z</time></trkpt><trkpt lat="44.756686786275466" lon="9.574012162730115"><ele>587.3333333333333</ele><time>2026-05-02T16:03:22Z</time></trkpt><trkpt lat="44.75670622692574" lon="9.574143338268552"><ele>587.1666666666666</ele><time>2026-05-02T16:03:23Z</time></trkpt><trkpt lat="44.756731937696834" lon="9.574245321784506"><ele>587.0</ele><time>2026-05-02T16:03:24Z</time></trkpt><trkpt lat="44.75678712690887" lon="9.574342277023456"><ele>587.0</ele><time>2026-05-02T16:03:25Z</time></trkpt><trkpt lat="44.75684563906486" lon="9.574440284875346"><ele>587.0</ele><time>2026-05-02T16:03:26Z</time></trkpt><trkpt lat="44.75689499345957" lon="9.574548284990524"><ele>587.0</ele><time>2026-05-02T16:03:27Z</time></trkpt><trkpt lat="44.7569301699099" lon="9.574660153515925"><ele>587.0</ele><time>2026-05-02T16:03:28Z</time></trkpt><trkpt lat="44.75695547186711" lon="9.574774818290535"><ele>587.0</ele><time>2026-05-02T16:03:29Z</time></trkpt><trkpt lat="44.75697037044998" lon="9.574887334828796"><ele>587.0</ele><time>2026-05-02T16:03:30Z</time></trkpt><trkpt lat="44.75699271676496" lon="9.574981662036244"><ele>587.6666666666666</ele><time>2026-05-02T16:03:31Z</time></trkpt><trkpt lat="44.7570345670527" lon="9.575058453165028"><ele>588.3333333333333</ele><time>2026-05-02T16:03:32Z</time></trkpt><trkpt lat="44.75708248387868" lon="9.575138965416928"><ele>589.0</ele><time>2026-05-02T16:03:33Z</time></trkpt><trkpt lat="44.75713229755864" lon="9.5752253213599"><ele>589.6666666666666</ele><time>2026-05-02T16:03:34Z</time></trkpt><trkpt lat="44.75720450211136" lon="9.575300866910919"><ele>590.3333333333334</ele><time>2026-05-02T16:03:34.999Z</time></trkpt><trkpt lat="44.75727468190495" lon="9.575364080395717"><ele>591.0</ele><time>2026-05-02T16:03:35.999Z</time></trkpt><trkpt lat="44.7573592214656" lon="9.575450399669625"><ele>589.0</ele><time>2026-05-02T16:03:36.999Z</time></trkpt><trkpt lat="44.75743220807962" lon="9.575546151795939"><ele>587.0</ele><time>2026-05-02T16:03:37.999Z</time></trkpt><trkpt lat="44.75748807249357" lon="9.575655300131201"><ele>585.0</ele><time>2026-05-02T16:03:38.999Z</time></trkpt><trkpt lat="44.75754271007902" lon="9.575772429688907"><ele>583.0</ele><time>2026-05-02T16:03:39.999Z</time></trkpt><trkpt lat="44.75760410086537" lon="9.575899466080243"><ele>581.0</ele><time>2026-05-02T16:03:40.999Z</time></trkpt><trkpt lat="44.757637690195736" lon="9.5759800221484"><ele>581.0</ele><time>2026-05-02T16:03:41.999Z</time></trkpt><trkpt lat="44.75769006395438" lon="9.576041921579549"><ele>581.0</ele><time>2026-05-02T16:04:42.998Z</time></trkpt><trkpt lat="44.75773776166737" lon="9.576158923693999"><ele>581.0</ele><time>2026-05-02T16:04:44.998Z</time></trkpt><trkpt lat="44.7577853180675" lon="9.576228382095348"><ele>581.0</ele><time>2026-05-02T16:04:45.998Z</time></trkpt><trkpt lat="44.75784116093429" lon="9.576299441717012"><ele>581.0</ele><time>2026-05-02T16:04:47.998Z</time></trkpt><trkpt lat="44.75792040341405" lon="9.576273145619533"><ele>581.0</ele><time>2026-05-02T16:04:49.998Z</time></trkpt><trkpt lat="44.757983771681964" lon="9.576239779566222"><ele>581.3333333333333</ele><time>2026-05-02T16:04:50.998Z</time></trkpt><trkpt lat="44.758072566358734" lon="9.576225061542939"><ele>581.6666666666666</ele><time>2026-05-02T16:04:51.998Z</time></trkpt><trkpt lat="44.758160206697596" lon="9.576222158631584"><ele>582.0</ele><time>2026-05-02T16:04:52.998Z</time></trkpt><trkpt lat="44.75823937497047" lon="9.576219909254178"><ele>582.3333333333334</ele><time>2026-05-02T16:04:53.998Z</time></trkpt><trkpt lat="44.75831027604348" lon="9.576190259116832"><ele>582.6666666666667</ele><time>2026-05-02T16:04:54.998Z</time></trkpt><trkpt lat="44.758376799801965" lon="9.576139361589863"><ele>583.0</ele><time>2026-05-02T16:04:55.998Z</time></trkpt><trkpt lat="44.75847507755747" lon="9.57607046000082"><ele>585.1999999999999</ele><time>2026-05-02T16:04:56.998Z</time></trkpt><trkpt lat="44.75856120395785" lon="9.576033714394079"><ele>587.4</ele><time>2026-05-02T16:04:57.998Z</time></trkpt><trkpt lat="44.75867611960904" lon="9.576092577163177"><ele>589.5999999999999</ele><time>2026-05-02T16:04:59.998Z</time></trkpt><trkpt lat="44.7587559696671" lon="9.576157791863158"><ele>591.8</ele><time>2026-05-02T16:05:01.998Z</time></trkpt><trkpt lat="44.75881054357277" lon="9.576257646221727"><ele>594.0</ele><time>2026-05-02T16:05:04Z</time></trkpt><trkpt lat="44.75884253734048" lon="9.576344468111971"><ele>594.0</ele><time>2026-05-02T16:05:05Z</time></trkpt><trkpt lat="44.75886843025105" lon="9.576452746932484"><ele>594.0</ele><time>2026-05-02T16:05:06Z</time></trkpt><trkpt lat="44.7588951767554" lon="9.576561541953415"><ele>594.0</ele><time>2026-05-02T16:05:07Z</time></trkpt><trkpt lat="44.75893817054887" lon="9.576691840655146"><ele>594.0</ele><time>2026-05-02T16:05:08Z</time></trkpt><trkpt lat="44.75898460371747" lon="9.576817803837582"><ele>594.0</ele><time>2026-05-02T16:05:09Z</time></trkpt><trkpt lat="44.759027284595426" lon="9.576936883737927"><ele>591.4</ele><time>2026-05-02T16:05:10Z</time></trkpt><trkpt lat="44.75906481893567" lon="9.577050213924402"><ele>588.8</ele><time>2026-05-02T16:05:11Z</time></trkpt><trkpt lat="44.75910313486484" lon="9.577171172155394"><ele>586.2</ele><time>2026-05-02T16:05:12Z</time></trkpt><trkpt lat="44.75913834684818" lon="9.57730171417699"><ele>583.6</ele><time>2026-05-02T16:05:13Z</time></trkpt><trkpt lat="44.75916007647766" lon="9.577437865325328"><ele>581.0</ele><time>2026-05-02T16:05:14Z</time></trkpt><trkpt lat="44.759159496861884" lon="9.577576668691819"><ele>581.0</ele><time>2026-05-02T16:05:15Z</time></trkpt><trkpt lat="44.75913989958248" lon="9.577720164025697"><ele>581.0</ele><time>2026-05-02T16:05:16Z</time></trkpt><trkpt lat="44.75910478308862" lon="9.57785020861516"><ele>581.0</ele><time>2026-05-02T16:05:17Z</time></trkpt><trkpt lat="44.7590600334937" lon="9.577971288798805"><ele>581.0</ele><time>2026-05-02T16:05:18Z</time></trkpt><trkpt lat="44.75901631188237" lon="9.578092544117418"><ele>581.0</ele><time>2026-05-02T16:05:19Z</time></trkpt><trkpt lat="44.758976551190855" lon="9.578209932170056"><ele>580.2</ele><time>2026-05-02T16:05:20Z</time></trkpt><trkpt lat="44.758932665533685" lon="9.578342424443862"><ele>579.4000000000001</ele><time>2026-05-02T16:05:21Z</time></trkpt><trkpt lat="44.75889153829014" lon="9.578472009292312"><ele>578.6</ele><time>2026-05-02T16:05:22Z</time></trkpt><trkpt lat="44.75886140437774" lon="9.578600126743623"><ele>577.8000000000001</ele><time>2026-05-02T16:05:23Z</time></trkpt><trkpt lat="44.75884485069787" lon="9.578733056758866"><ele>577.0</ele><time>2026-05-02T16:05:24Z</time></trkpt><trkpt lat="44.75885152083792" lon="9.578872374504023"><ele>575.8000000000001</ele><time>2026-05-02T16:05:25Z</time></trkpt><trkpt lat="44.758885430159346" lon="9.579014575343354"><ele>574.6</ele><time>2026-05-02T16:05:26Z</time></trkpt><trkpt lat="44.758943801274214" lon="9.57914761548757"><ele>573.4000000000001</ele><time>2026-05-02T16:05:27Z</time></trkpt><trkpt lat="44.75902112954276" lon="9.57926024261871"><ele>572.2</ele><time>2026-05-02T16:05:28Z</time></trkpt><trkpt lat="44.759103225741754" lon="9.579360703512732"><ele>571.0</ele><time>2026-05-02T16:05:29Z</time></trkpt><trkpt lat="44.75918654216675" lon="9.579461345225253"><ele>572.75</ele><time>2026-05-02T16:05:30Z</time></trkpt><trkpt lat="44.75925541453555" lon="9.579577211841249"><ele>574.5</ele><time>2026-05-02T16:05:31Z</time></trkpt><trkpt lat="44.75931009357446" lon="9.579711593324008"><ele>576.25</ele><time>2026-05-02T16:05:32Z</time></trkpt><trkpt lat="44.75936185686056" lon="9.579879334219553"><ele>578.0</ele><time>2026-05-02T16:05:33Z</time></trkpt><trkpt lat="44.75940075875701" lon="9.580061302222438"><ele>578.0</ele><time>2026-05-02T16:05:34Z</time></trkpt><trkpt lat="44.75944014724512" lon="9.58023554027111"><ele>578.0</ele><time>2026-05-02T16:05:35Z</time></trkpt><trkpt lat="44.75949170069726" lon="9.580415138916836"><ele>578.0</ele><time>2026-05-02T16:05:36Z</time></trkpt><trkpt lat="44.75954812616198" lon="9.580604989341786"><ele>578.0</ele><time>2026-05-02T16:05:37Z</time></trkpt><trkpt lat="44.759603103914905" lon="9.580795168104187"><ele>575.25</ele><time>2026-05-02T16:05:38Z</time></trkpt><trkpt lat="44.75965213659578" lon="9.580984960186251"><ele>572.5</ele><time>2026-05-02T16:05:38.999Z</time></trkpt><trkpt lat="44.75969414817905" lon="9.581175774590626"><ele>569.75</ele><time>2026-05-02T16:05:39.999Z</time></trkpt><trkpt lat="44.759736770667665" lon="9.581361564588308"><ele>567.0</ele><time>2026-05-02T16:05:40.999Z</time></trkpt><trkpt lat="44.75978896921542" lon="9.581531858425556"><ele>564.0</ele><time>2026-05-02T16:05:41.999Z</time></trkpt><trkpt lat="44.759858355687136" lon="9.58168728665851"><ele>561.0</ele><time>2026-05-02T16:05:42.999Z</time></trkpt><trkpt lat="44.75993777527887" lon="9.581837297367754"><ele>558.0</ele><time>2026-05-02T16:05:43.999Z</time></trkpt><trkpt lat="44.7600184433912" lon="9.581979874851"><ele>555.0</ele><time>2026-05-02T16:05:44.999Z</time></trkpt><trkpt lat="44.760098265019664" lon="9.582124835582352"><ele>555.5</ele><time>2026-05-02T16:05:45.999Z</time></trkpt><trkpt lat="44.76017493269659" lon="9.582268696343094"><ele>556.0</ele><time>2026-05-02T16:05:46.999Z</time></trkpt><trkpt lat="44.76025170324201" lon="9.58241382627892"><ele>556.5</ele><time>2026-05-02T16:05:47.999Z</time></trkpt><trkpt lat="44.76032780514271" lon="9.58255634183737"><ele>557.0</ele><time>2026-05-02T16:05:48.999Z</time></trkpt><trkpt lat="44.76040104618149" lon="9.58270182402331"><ele>557.0</ele><time>2026-05-02T16:05:49.999Z</time></trkpt><trkpt lat="44.76047300093302" lon="9.58284598284124"><ele>557.0</ele><time>2026-05-02T16:05:50.999Z</time></trkpt><trkpt lat="44.76054684345931" lon="9.582991267099626"><ele>557.0</ele><time>2026-05-02T16:05:51.999Z</time></trkpt><trkpt lat="44.760619625462546" lon="9.583131532438484"><ele>557.0</ele><time>2026-05-02T16:05:52.999Z</time></trkpt><trkpt lat="44.760691193517964" lon="9.58328147307166"><ele>553.75</ele><time>2026-05-02T16:05:53.999Z</time></trkpt><trkpt lat="44.76074937505593" lon="9.583441959620162"><ele>550.5</ele><time>2026-05-02T16:05:54.999Z</time></trkpt><trkpt lat="44.76079345265086" lon="9.583609077765157"><ele>547.25</ele><time>2026-05-02T16:05:55.999Z</time></trkpt><trkpt lat="44.760840329108945" lon="9.5837849220295"><ele>544.0</ele><time>2026-05-02T16:05:56.999Z</time></trkpt><trkpt lat="44.7608908836425" lon="9.583978436082122"><ele>543.5</ele><time>2026-05-02T16:05:57.999Z</time></trkpt><trkpt lat="44.76095057940191" lon="9.584185002730026"><ele>543.0</ele><time>2026-05-02T16:05:58.999Z</time></trkpt><trkpt lat="44.76100562343259" lon="9.584368615733098"><ele>542.5</ele><time>2026-05-02T16:05:59.999Z</time></trkpt><trkpt lat="44.761049191928485" lon="9.584524850450395"><ele>542.0</ele><time>2026-05-02T16:06:00.999Z</time></trkpt><trkpt lat="44.76107478536448" lon="9.584661007308044"><ele>542.0</ele><time>2026-05-02T16:06:01.999Z</time></trkpt><trkpt lat="44.76107549045438" lon="9.584790119645065"><ele>542.0</ele><time>2026-05-02T16:06:02.999Z</time></trkpt><trkpt lat="44.76103419451063" lon="9.584889365268108"><ele>542.0</ele><time>2026-05-02T16:06:03.999Z</time></trkpt><trkpt lat="44.76096820017203" lon="9.58496251351359"><ele>542.0</ele><time>2026-05-02T16:06:04.999Z</time></trkpt><trkpt lat="44.760884892090886" lon="9.584976758485505"><ele>542.0</ele><time>2026-05-02T16:06:05.999Z</time></trkpt><trkpt lat="44.760801032282565" lon="9.584943073220868"><ele>542.0</ele><time>2026-05-02T16:06:06.999Z</time></trkpt><trkpt lat="44.76073105001245" lon="9.584862882756633"><ele>538.8333333333333</ele><time>2026-05-02T16:06:07.999Z</time></trkpt><trkpt lat="44.76068758508252" lon="9.584737586187664"><ele>535.6666666666666</ele><time>2026-05-02T16:06:08.999Z</time></trkpt><trkpt lat="44.76062671240965" lon="9.584631577908354"><ele>532.5</ele><time>2026-05-02T16:06:09.999Z</time></trkpt><trkpt lat="44.76054517146459" lon="9.58459229695922"><ele>529.3333333333334</ele><time>2026-05-02T16:06:10.999Z</time></trkpt><trkpt lat="44.76046801583355" lon="9.58460831118152"><ele>526.1666666666667</ele><time>2026-05-02T16:06:11.999Z</time></trkpt><trkpt lat="44.7604085406182" lon="9.584657655904502"><ele>523.0</ele><time>2026-05-02T16:06:12.999Z</time></trkpt><trkpt lat="44.76036536382661" lon="9.584747160427645"><ele>523.0</ele><time>2026-05-02T16:06:13.999Z</time></trkpt><trkpt lat="44.76035291133114" lon="9.584852835688547"><ele>523.0</ele><time>2026-05-02T16:06:14.999Z</time></trkpt><trkpt lat="44.76036736198091" lon="9.584972519998518"><ele>523.0</ele><time>2026-05-02T16:06:15.999Z</time></trkpt><trkpt lat="44.76040973993977" lon="9.585093541704076"><ele>523.0</ele><time>2026-05-02T16:06:16.999Z</time></trkpt><trkpt lat="44.76049037437065" lon="9.585244055814272"><ele>523.0</ele><time>2026-05-02T16:06:17.999Z</time></trkpt><trkpt lat="44.76057545901956" lon="9.585401715887908"><ele>520.5</ele><time>2026-05-02T16:06:18.999Z</time></trkpt><trkpt lat="44.760667171182895" lon="9.585571097994624"><ele>518.0</ele><time>2026-05-02T16:06:19.999Z</time></trkpt><trkpt lat="44.76074508657014" lon="9.585734143242986"><ele>515.5</ele><time>2026-05-02T16:06:20.999Z</time></trkpt><trkpt lat="44.76081655418096" lon="9.585898665249788"><ele>513.0</ele><time>2026-05-02T16:06:21.999Z</time></trkpt><trkpt lat="44.76088445768521" lon="9.58605946680867"><ele>510.75</ele><time>2026-05-02T16:06:22.999Z</time></trkpt><trkpt lat="44.76094619831973" lon="9.586211283387964"><ele>508.5</ele><time>2026-05-02T16:06:23.999Z</time></trkpt><trkpt lat="44.76099699578992" lon="9.586363782655303"><ele>506.25</ele><time>2026-05-02T16:06:24.999Z</time></trkpt><trkpt lat="44.76102353748656" lon="9.586517911336056"><ele>504.0</ele><time>2026-05-02T16:06:25.999Z</time></trkpt><trkpt lat="44.76102306987159" lon="9.586682734246518"><ele>504.0</ele><time>2026-05-02T16:06:26.998Z</time></trkpt><trkpt lat="44.76101465728855" lon="9.586840493959935"><ele>504.0</ele><time>2026-05-02T16:06:27.998Z</time></trkpt><trkpt lat="44.76100494904646" lon="9.58699379052555"><ele>504.0</ele><time>2026-05-02T16:06:28.998Z</time></trkpt><trkpt lat="44.76099447146467" lon="9.587150243614362"><ele>504.0</ele><time>2026-05-02T16:06:29.998Z</time></trkpt><trkpt lat="44.76098342629915" lon="9.587306291043308"><ele>504.0</ele><time>2026-05-02T16:06:30.998Z</time></trkpt><trkpt lat="44.76097345105686" lon="9.587462561872666"><ele>503.2</ele><time>2026-05-02T16:06:31.998Z</time></trkpt><trkpt lat="44.76096167028658" lon="9.587617790896328"><ele>502.4</ele><time>2026-05-02T16:06:32.998Z</time></trkpt><trkpt lat="44.76095241792474" lon="9.587772665700275"><ele>501.6</ele><time>2026-05-02T16:06:33.998Z</time></trkpt><trkpt lat="44.76096075559139" lon="9.587930974188332"><ele>500.8</ele><time>2026-05-02T16:06:34.998Z</time></trkpt><trkpt lat="44.760972877533376" lon="9.588081547777577"><ele>500.0</ele><time>2026-05-02T16:06:35.998Z</time></trkpt><trkpt lat="44.76098606769188" lon="9.588224036857895"><ele>500.8</ele><time>2026-05-02T16:06:36.998Z</time></trkpt><trkpt lat="44.761005884773766" lon="9.588361370282092"><ele>501.6</ele><time>2026-05-02T16:06:37.998Z</time></trkpt><trkpt lat="44.76102703023321" lon="9.588497119193693"><ele>502.4</ele><time>2026-05-02T16:06:38.998Z</time></trkpt><trkpt lat="44.76104901086894" lon="9.588622666476967"><ele>503.2</ele><time>2026-05-02T16:06:39.998Z</time></trkpt><trkpt lat="44.76107252841412" lon="9.588747683731851"><ele>504.0</ele><time>2026-05-02T16:06:40.998Z</time></trkpt><trkpt lat="44.76108519869178" lon="9.588866067933054"><ele>502.3333333333333</ele><time>2026-05-02T16:06:41.998Z</time></trkpt><trkpt lat="44.76106970223745" lon="9.588985998898474"><ele>500.66666666666663</ele><time>2026-05-02T16:06:42.998Z</time></trkpt><trkpt lat="44.761029398023275" lon="9.589087888990932"><ele>499.0</ele><time>2026-05-02T16:06:43.998Z</time></trkpt><trkpt lat="44.76100783031448" lon="9.589196021853347"><ele>497.3333333333333</ele><time>2026-05-02T16:06:44.998Z</time></trkpt><trkpt lat="44.76102908787743" lon="9.589303776001383"><ele>495.66666666666663</ele><time>2026-05-02T16:06:45.998Z</time></trkpt><trkpt lat="44.761076007770406" lon="9.589389572820554"><ele>494.0</ele><time>2026-05-02T16:06:46.998Z</time></trkpt><trkpt lat="44.76112589634822" lon="9.589483439580462"><ele>492.2</ele><time>2026-05-02T16:06:47.998Z</time></trkpt><trkpt lat="44.761194569000715" lon="9.5895754629723"><ele>490.4</ele><time>2026-05-02T16:06:48.998Z</time></trkpt><trkpt lat="44.7612906326646" lon="9.589639459960983"><ele>488.6</ele><time>2026-05-02T16:06:49.998Z</time></trkpt><trkpt lat="44.76140384676114" lon="9.589688904620456"><ele>486.8</ele><time>2026-05-02T16:06:50.998Z</time></trkpt><trkpt lat="44.76152143834403" lon="9.589741003865758"><ele>485.0</ele><time>2026-05-02T16:06:51.998Z</time></trkpt><trkpt lat="44.76163344405332" lon="9.589801240178353"><ele>485.0</ele><time>2026-05-02T16:06:52.998Z</time></trkpt><trkpt lat="44.76174646535636" lon="9.589861031651251"><ele>485.0</ele><time>2026-05-02T16:06:53.998Z</time></trkpt><trkpt lat="44.761860316690786" lon="9.58992579628571"><ele>485.0</ele><time>2026-05-02T16:06:54.998Z</time></trkpt><trkpt lat="44.76197415786631" lon="9.589984525942803"><ele>485.0</ele><time>2026-05-02T16:06:55.998Z</time></trkpt><trkpt lat="44.76208837640485" lon="9.590043911896757"><ele>485.0</ele><time>2026-05-02T16:06:56.998Z</time></trkpt><trkpt lat="44.762199089025124" lon="9.590105874873453"><ele>485.0</ele><time>2026-05-02T16:06:57.998Z</time></trkpt><trkpt lat="44.762307265414705" lon="9.590171995134803"><ele>485.0</ele><time>2026-05-02T16:06:58.998Z</time></trkpt><trkpt lat="44.762413899264885" lon="9.590245018889503"><ele>485.0</ele><time>2026-05-02T16:06:59.998Z</time></trkpt><trkpt lat="44.76251632421801" lon="9.590323827008726"><ele>483.5</ele><time>2026-05-02T16:07:00.998Z</time></trkpt><trkpt lat="44.76261694935775" lon="9.59041667259758"><ele>482.0</ele><time>2026-05-02T16:07:01.998Z</time></trkpt><trkpt lat="44.76269760432469" lon="9.590542185896348"><ele>480.5</ele><time>2026-05-02T16:07:02.998Z</time></trkpt><trkpt lat="44.76273549047666" lon="9.590703858304964"><ele>479.0</ele><time>2026-05-02T16:07:03.998Z</time></trkpt><trkpt lat="44.762743785663254" lon="9.590867515560456"><ele>479.0</ele><time>2026-05-02T16:07:04.998Z</time></trkpt><trkpt lat="44.762757421002156" lon="9.591021326278259"><ele>479.0</ele><time>2026-05-02T16:07:05.998Z</time></trkpt><trkpt lat="44.76277421544773" lon="9.59117337334685"><ele>479.0</ele><time>2026-05-02T16:07:06.998Z</time></trkpt><trkpt lat="44.76278789223336" lon="9.591320946997133"><ele>479.0</ele><time>2026-05-02T16:07:07.998Z</time></trkpt><trkpt lat="44.76280121285154" lon="9.591462488692235"><ele>479.0</ele><time>2026-05-02T16:07:09Z</time></trkpt><trkpt lat="44.76281684209877" lon="9.591598214947416"><ele>477.49999999999994</ele><time>2026-05-02T16:07:10Z</time></trkpt><trkpt lat="44.762836443760754" lon="9.591733036260184"><ele>476.0</ele><time>2026-05-02T16:07:11Z</time></trkpt><trkpt lat="44.76285036320886" lon="9.591853863451538"><ele>474.5</ele><time>2026-05-02T16:07:12Z</time></trkpt><trkpt lat="44.76285447666768" lon="9.591973581772448"><ele>473.0</ele><time>2026-05-02T16:07:13Z</time></trkpt><trkpt lat="44.76282903686358" lon="9.592086917681694"><ele>471.49999999999994</ele><time>2026-05-02T16:07:14Z</time></trkpt><trkpt lat="44.76277672170842" lon="9.592180782663803"><ele>470.0</ele><time>2026-05-02T16:07:15Z</time></trkpt><trkpt lat="44.76270698790124" lon="9.592253246139297"><ele>469.4</ele><time>2026-05-02T16:07:16Z</time></trkpt><trkpt lat="44.76262136939864" lon="9.59232680190975"><ele>468.8</ele><time>2026-05-02T16:07:17Z</time></trkpt><trkpt lat="44.762523335877" lon="9.592392573801556"><ele>468.20000000000005</ele><time>2026-05-02T16:07:18Z</time></trkpt><trkpt lat="44.762423696571965" lon="9.592466230053626"><ele>467.6</ele><time>2026-05-02T16:07:19Z</time></trkpt><trkpt lat="44.76232740058502" lon="9.592541628702453"><ele>467.0</ele><time>2026-05-02T16:07:20Z</time></trkpt><trkpt lat="44.76223584557236" lon="9.592616779565967"><ele>466.99999999999994</ele><time>2026-05-02T16:07:21Z</time></trkpt><trkpt lat="44.762173432795684" lon="9.59268919060886"><ele>467.0</ele><time>2026-05-02T16:07:22Z</time></trkpt><trkpt lat="44.7621511450685" lon="9.592778400140723"><ele>467.0</ele><time>2026-05-02T16:07:23Z</time></trkpt><trkpt lat="44.76216375457567" lon="9.59287736308884"><ele>467.0</ele><time>2026-05-02T16:07:24Z</time></trkpt><trkpt lat="44.76220775314338" lon="9.59296084135959"><ele>466.99999999999994</ele><time>2026-05-02T16:07:25Z</time></trkpt><trkpt lat="44.76229281925169" lon="9.593008014513906"><ele>467.0</ele><time>2026-05-02T16:07:26Z</time></trkpt><trkpt lat="44.762402303794076" lon="9.593034719490053"><ele>464.25</ele><time>2026-05-02T16:07:27Z</time></trkpt><trkpt lat="44.762528575354416" lon="9.593048541825375"><ele>461.5</ele><time>2026-05-02T16:07:28Z</time></trkpt><trkpt lat="44.76266571991732" lon="9.593064994961905"><ele>458.75</ele><time>2026-05-02T16:07:29Z</time></trkpt><trkpt lat="44.76279852018466" lon="9.59308381060449"><ele>456.0</ele><time>2026-05-02T16:07:30Z</time></trkpt><trkpt lat="44.76292666579805" lon="9.593111697590961"><ele>456.0</ele><time>2026-05-02T16:07:31Z</time></trkpt><trkpt lat="44.763052413631435" lon="9.593138191478323"><ele>456.0</ele><time>2026-05-02T16:07:32Z</time></trkpt><trkpt lat="44.763174981771925" lon="9.593175060833383"><ele>456.0</ele><time>2026-05-02T16:07:33Z</time></trkpt><trkpt lat="44.76328429433983" lon="9.593229819512755"><ele>456.0</ele><time>2026-05-02T16:07:34Z</time></trkpt><trkpt lat="44.76335170489129" lon="9.593298127839326"><ele>456.0</ele><time>2026-05-02T16:07:35Z</time></trkpt><trkpt lat="44.76338924483159" lon="9.593383305468599"><ele>456.0</ele><time>2026-05-02T16:07:36Z</time></trkpt><trkpt lat="44.76339017112904" lon="9.593482642655392"><ele>456.0</ele><time>2026-05-02T16:07:37Z</time></trkpt><trkpt lat="44.763357881236644" lon="9.593598388597945"><ele>456.0</ele><time>2026-05-02T16:07:38Z</time></trkpt><trkpt lat="44.7633120533368" lon="9.593737987524163"><ele>456.0</ele><time>2026-05-02T16:07:39Z</time></trkpt><trkpt lat="44.76326704355895" lon="9.593890175782128"><ele>454.20000000000005</ele><time>2026-05-02T16:07:40Z</time></trkpt><trkpt lat="44.76324080255615" lon="9.594023928040286"><ele>452.40000000000003</ele><time>2026-05-02T16:07:41Z</time></trkpt><trkpt lat="44.76324181605848" lon="9.594152045920966"><ele>450.6</ele><time>2026-05-02T16:07:42Z</time></trkpt><trkpt lat="44.763271808225355" lon="9.594297004500183"><ele>448.8</ele><time>2026-05-02T16:07:43Z</time></trkpt><trkpt lat="44.763323308895245" lon="9.594456739137815"><ele>447.0</ele><time>2026-05-02T16:07:44Z</time></trkpt><trkpt lat="44.76339501852686" lon="9.594627669451913"><ele>447.33333333333337</ele><time>2026-05-02T16:07:45Z</time></trkpt><trkpt lat="44.76348874884704" lon="9.5948038196929"><ele>447.6666666666667</ele><time>2026-05-02T16:07:46Z</time></trkpt><trkpt lat="44.76359465324247" lon="9.594970556723755"><ele>448.0</ele><time>2026-05-02T16:07:46.999Z</time></trkpt><trkpt lat="44.7636992835196" lon="9.59512850618298"><ele>448.0</ele><time>2026-05-02T16:07:47.999Z</time></trkpt><trkpt lat="44.76379995579524" lon="9.595283131089474"><ele>448.0</ele><time>2026-05-02T16:07:48.999Z</time></trkpt><trkpt lat="44.76389348553861" lon="9.595435055604558"><ele>448.0</ele><time>2026-05-02T16:07:49.999Z</time></trkpt><trkpt lat="44.76398137642938" lon="9.59557432265944"><ele>448.0</ele><time>2026-05-02T16:07:50.999Z</time></trkpt><trkpt lat="44.76406778502566" lon="9.595715918872905"><ele>448.5</ele><time>2026-05-02T16:07:51.999Z</time></trkpt><trkpt lat="44.76415646365994" lon="9.595858408419184"><ele>449.0</ele><time>2026-05-02T16:07:52.999Z</time></trkpt><trkpt lat="44.76425289545169" lon="9.595984397767111"><ele>449.5</ele><time>2026-05-02T16:07:53.999Z</time></trkpt><trkpt lat="44.764357835098025" lon="9.596067785765364"><ele>450.0</ele><time>2026-05-02T16:07:54.999Z</time></trkpt><trkpt lat="44.76447311442848" lon="9.596112379841921"><ele>450.0</ele><time>2026-05-02T16:07:55.999Z</time></trkpt><trkpt lat="44.764593080859804" lon="9.596129821336696"><ele>450.0</ele><time>2026-05-02T16:07:56.999Z</time></trkpt><trkpt lat="44.76469425696863" lon="9.596135599191898"><ele>450.0</ele><time>2026-05-02T16:07:57.999Z</time></trkpt><trkpt lat="44.76478666855193" lon="9.596174503233955"><ele>450.0</ele><time>2026-05-02T16:07:58.999Z</time></trkpt><trkpt lat="44.764859482028236" lon="9.596232867664702"><ele>450.0</ele><time>2026-05-02T16:07:59.999Z</time></trkpt><trkpt lat="44.7648957364917" lon="9.596311384695733"><ele>445.4</ele><time>2026-05-02T16:08:00.999Z</time></trkpt><trkpt lat="44.76490565928882" lon="9.59640753624125"><ele>440.8</ele><time>2026-05-02T16:08:01.999Z</time></trkpt><trkpt lat="44.76487483959563" lon="9.596499300050478"><ele>436.20000000000005</ele><time>2026-05-02T16:08:02.999Z</time></trkpt><trkpt lat="44.764804509065875" lon="9.596577983890173"><ele>431.6</ele><time>2026-05-02T16:08:03.999Z</time></trkpt><trkpt lat="44.76470168849027" lon="9.596634694463289"><ele>427.0</ele><time>2026-05-02T16:08:04.999Z</time></trkpt><trkpt lat="44.76458211429804" lon="9.59667565886818"><ele>427.0</ele><time>2026-05-02T16:08:05.999Z</time></trkpt><trkpt lat="44.76445855538686" lon="9.596720701888065"><ele>427.00000000000006</ele><time>2026-05-02T16:08:06.999Z</time></trkpt><trkpt lat="44.76434439275011" lon="9.596760737663246"><ele>427.00000000000006</ele><time>2026-05-02T16:08:07.999Z</time></trkpt><trkpt lat="44.76425614068327" lon="9.596790449336517"><ele>427.0</ele><time>2026-05-02T16:08:08.999Z</time></trkpt><trkpt lat="44.764181603605884" lon="9.596854811941565"><ele>427.0</ele><time>2026-05-02T16:08:09.999Z</time></trkpt><trkpt lat="44.76412674334815" lon="9.596957933941253"><ele>423.20000000000005</ele><time>2026-05-02T16:08:10.999Z</time></trkpt><trkpt lat="44.764090708588576" lon="9.597107866452392"><ele>419.40000000000003</ele><time>2026-05-02T16:08:11.999Z</time></trkpt><trkpt lat="44.76406008719866" lon="9.59727005878337"><ele>415.6</ele><time>2026-05-02T16:08:12.999Z</time></trkpt><trkpt lat="44.76402584197343" lon="9.597371576388195"><ele>411.79999999999995</ele><time>2026-05-02T16:08:13.999Z</time></trkpt><trkpt lat="44.763980098518765" lon="9.597443344979242"><ele>408.0</ele><time>2026-05-02T16:08:14.999Z</time></trkpt><trkpt lat="44.76391566989421" lon="9.597490033567457"><ele>408.0</ele><time>2026-05-02T16:08:15.999Z</time></trkpt><trkpt lat="44.76383831589204" lon="9.597488335770896"><ele>408.0</ele><time>2026-05-02T16:08:16.999Z</time></trkpt><trkpt lat="44.76377821086283" lon="9.597415301521426"><ele>408.0</ele><time>2026-05-02T16:08:17.999Z</time></trkpt><trkpt lat="44.76373377440367" lon="9.597291314597362"><ele>408.0</ele><time>2026-05-02T16:08:18.999Z</time></trkpt><trkpt lat="44.76369932053917" lon="9.597169845418115"><ele>408.0</ele><time>2026-05-02T16:08:19.999Z</time></trkpt><trkpt lat="44.763637828952305" lon="9.597100878261378"><ele>408.0</ele><time>2026-05-02T16:08:20.999Z</time></trkpt><trkpt lat="44.76355821688411" lon="9.597071184419667"><ele>406.3333333333333</ele><time>2026-05-02T16:08:21.999Z</time></trkpt><trkpt lat="44.763486170930875" lon="9.597059826206491"><ele>404.66666666666663</ele><time>2026-05-02T16:08:22.999Z</time></trkpt><trkpt lat="44.76342426428822" lon="9.597087185525064"><ele>403.0</ele><time>2026-05-02T16:08:25.999Z</time></trkpt><trkpt lat="44.76337514285886" lon="9.597191058189567"><ele>401.3333333333333</ele><time>2026-05-02T16:08:34.999Z</time></trkpt><trkpt lat="44.76338489977554" lon="9.597301505360715"><ele>399.66666666666663</ele><time>2026-05-02T16:08:36.998Z</time></trkpt><trkpt lat="44.763412205797074" lon="9.597400217272135"><ele>398.0</ele><time>2026-05-02T16:08:39.998Z</time></trkpt><trkpt lat="44.7634325828735" lon="9.597521774923974"><ele>398.0</ele><time>2026-05-02T16:08:43.998Z</time></trkpt><trkpt lat="44.76344075313447" lon="9.597675956805812"><ele>398.0</ele><time>2026-05-02T16:08:45.998Z</time></trkpt><trkpt lat="44.76344056697714" lon="9.59784084676553"><ele>398.0</ele><time>2026-05-02T16:08:47.998Z</time></trkpt><trkpt lat="44.763453008854675" lon="9.59802496812583"><ele>398.0</ele><time>2026-05-02T16:08:49.998Z</time></trkpt><trkpt lat="44.76348485964755" lon="9.59811312860326"><ele>398.0</ele><time>2026-05-02T16:08:50.998Z</time></trkpt><trkpt lat="44.76354120662966" lon="9.598177391450276"><ele>397.16666666666663</ele><time>2026-05-02T16:08:51.998Z</time></trkpt><trkpt lat="44.76362174366534" lon="9.598212972404054"><ele>396.3333333333333</ele><time>2026-05-02T16:08:52.998Z</time></trkpt><trkpt lat="44.76371224002186" lon="9.59822215152999"><ele>395.5</ele><time>2026-05-02T16:08:53.998Z</time></trkpt><trkpt lat="44.76380316701861" lon="9.598227127341389"><ele>394.66666666666663</ele><time>2026-05-02T16:08:54.998Z</time></trkpt><trkpt lat="44.763890472840046" lon="9.59824034721185"><ele>393.8333333333333</ele><time>2026-05-02T16:08:55.998Z</time></trkpt><trkpt lat="44.7639767347007" lon="9.598248665078156"><ele>393.0</ele><time>2026-05-02T16:08:56.998Z</time></trkpt><trkpt lat="44.764063761489595" lon="9.59824754100942"><ele>393.0</ele><time>2026-05-02T16:08:57.998Z</time></trkpt><trkpt lat="44.7641624661697" lon="9.59823413951196"><ele>393.0</ele><time>2026-05-02T16:08:58.998Z</time></trkpt><trkpt lat="44.7642573114179" lon="9.59820745418021"><ele>393.0</ele><time>2026-05-02T16:08:59.998Z</time></trkpt><trkpt lat="44.76436358876281" lon="9.598181734823212"><ele>393.0</ele><time>2026-05-02T16:09:00.998Z</time></trkpt><trkpt lat="44.76447401607551" lon="9.598153958456594"><ele>393.0</ele><time>2026-05-02T16:09:01.998Z</time></trkpt><trkpt lat="44.76457355106512" lon="9.598121630055452"><ele>392.79999999999995</ele><time>2026-05-02T16:09:02.998Z</time></trkpt><trkpt lat="44.76466927436261" lon="9.59809960517598"><ele>392.6</ele><time>2026-05-02T16:09:03.998Z</time></trkpt><trkpt lat="44.76476994319892" lon="9.59809854980362"><ele>392.4</ele><time>2026-05-02T16:09:04.998Z</time></trkpt><trkpt lat="44.76488158611078" lon="9.598113501251119"><ele>392.20000000000005</ele><time>2026-05-02T16:09:05.998Z</time></trkpt><trkpt lat="44.765001223185166" lon="9.598137197535664"><ele>392.0</ele><time>2026-05-02T16:09:06.998Z</time></trkpt><trkpt lat="44.76512201422695" lon="9.598170811279058"><ele>394.0</ele><time>2026-05-02T16:09:07.998Z</time></trkpt><trkpt lat="44.76524025275121" lon="9.598222962404948"><ele>396.0</ele><time>2026-05-02T16:09:08.998Z</time></trkpt><trkpt lat="44.76535714268016" lon="9.598284873078804"><ele>398.0</ele><time>2026-05-02T16:09:09.998Z</time></trkpt><trkpt lat="44.76547373946562" lon="9.598355535620342"><ele>400.0</ele><time>2026-05-02T16:09:10.998Z</time></trkpt><trkpt lat="44.765581762714305" lon="9.59842690154199"><ele>400.0</ele><time>2026-05-02T16:09:11.998Z</time></trkpt><trkpt lat="44.765687939882284" lon="9.598488330380931"><ele>400.0</ele><time>2026-05-02T16:09:12.998Z</time></trkpt><trkpt lat="44.7657931671488" lon="9.598523928018482"><ele>400.0</ele><time>2026-05-02T16:09:13.998Z</time></trkpt><trkpt lat="44.765905047769756" lon="9.598569001298056"><ele>400.0</ele><time>2026-05-02T16:09:15Z</time></trkpt><trkpt lat="44.76602268485608" lon="9.598623487354985"><ele>398.0</ele><time>2026-05-02T16:09:16Z</time></trkpt><trkpt lat="44.76614701324557" lon="9.598674745160904"><ele>396.0</ele><time>2026-05-02T16:09:17Z</time></trkpt><trkpt lat="44.76627857642129" lon="9.598715310850885"><ele>394.0</ele><time>2026-05-02T16:09:18Z</time></trkpt><trkpt lat="44.76640765060325" lon="9.598763838967109"><ele>392.0</ele><time>2026-05-02T16:09:19Z</time></trkpt><trkpt lat="44.76652916717899" lon="9.598817793860599"><ele>392.0</ele><time>2026-05-02T16:09:20Z</time></trkpt><trkpt lat="44.76664446085509" lon="9.59889372587401"><ele>392.0</ele><time>2026-05-02T16:09:21Z</time></trkpt><trkpt lat="44.76675813499438" lon="9.599003711747299"><ele>392.0</ele><time>2026-05-02T16:09:22Z</time></trkpt><trkpt lat="44.7668747671578" lon="9.599140834580155"><ele>392.0</ele><time>2026-05-02T16:09:23Z</time></trkpt><trkpt lat="44.76700602233726" lon="9.599294256009237"><ele>394.3333333333333</ele><time>2026-05-02T16:09:24Z</time></trkpt><trkpt lat="44.76714455829665" lon="9.599445413768915"><ele>396.66666666666663</ele><time>2026-05-02T16:09:25Z</time></trkpt><trkpt lat="44.7672679452226" lon="9.599579763952661"><ele>399.0</ele><time>2026-05-02T16:09:26Z</time></trkpt><trkpt lat="44.767399366236155" lon="9.599685864428684"><ele>393.3333333333333</ele><time>2026-05-02T16:09:27Z</time></trkpt><trkpt lat="44.76753549798931" lon="9.599733547648365"><ele>387.66666666666663</ele><time>2026-05-02T16:09:28Z</time></trkpt><trkpt lat="44.767680459829776" lon="9.59973941333724"><ele>382.0</ele><time>2026-05-02T16:09:29Z</time></trkpt><trkpt lat="44.767842668863665" lon="9.599777978926097"><ele>382.0</ele><time>2026-05-02T16:09:30Z</time></trkpt><trkpt lat="44.76801130982459" lon="9.599856262596477"><ele>382.0</ele><time>2026-05-02T16:09:31Z</time></trkpt><trkpt lat="44.768172333386566" lon="9.59992490925501"><ele>382.0</ele><time>2026-05-02T16:09:32Z</time></trkpt><trkpt lat="44.76832766087186" lon="9.599957292137256"><ele>382.0</ele><time>2026-05-02T16:09:33Z</time></trkpt><trkpt lat="44.76847622117373" lon="9.599982117208102"><ele>382.0</ele><time>2026-05-02T16:09:34Z</time></trkpt><trkpt lat="44.76861649606074" lon="9.600021083977483"><ele>382.0</ele><time>2026-05-02T16:09:35Z</time></trkpt><trkpt lat="44.768751747449166" lon="9.600079792888621"><ele>382.0</ele><time>2026-05-02T16:09:36Z</time></trkpt><trkpt lat="44.76887944141168" lon="9.600147263582286"><ele>381.75</ele><time>2026-05-02T16:09:37Z</time></trkpt><trkpt lat="44.76900459460206" lon="9.6002208789611"><ele>381.5</ele><time>2026-05-02T16:09:38Z</time></trkpt><trkpt lat="44.76913561795094" lon="9.60029882194084"><ele>381.25</ele><time>2026-05-02T16:09:39Z</time></trkpt><trkpt lat="44.76926943649409" lon="9.60037218825643"><ele>381.0</ele><time>2026-05-02T16:09:40Z</time></trkpt><trkpt lat="44.769395579623016" lon="9.600446415302484"><ele>379.5</ele><time>2026-05-02T16:09:41Z</time></trkpt><trkpt lat="44.769509300190265" lon="9.600529675728863"><ele>378.0</ele><time>2026-05-02T16:09:42Z</time></trkpt><trkpt lat="44.76959975023887" lon="9.600648376896862"><ele>376.5</ele><time>2026-05-02T16:09:43Z</time></trkpt><trkpt lat="44.7696684604461" lon="9.600786037187108"><ele>375.0</ele><time>2026-05-02T16:09:44Z</time></trkpt><trkpt lat="44.76972865623896" lon="9.600942022879394"><ele>375.0</ele><time>2026-05-02T16:09:45Z</time></trkpt><trkpt lat="44.76978554241701" lon="9.601114574884742"><ele>375.0</ele><time>2026-05-02T16:09:46Z</time></trkpt><trkpt lat="44.769839109395036" lon="9.60130071200758"><ele>375.0</ele><time>2026-05-02T16:09:47Z</time></trkpt><trkpt lat="44.769882308201716" lon="9.601497750655245"><ele>375.0</ele><time>2026-05-02T16:09:48Z</time></trkpt><trkpt lat="44.769906781241886" lon="9.601677178618553"><ele>373.8</ele><time>2026-05-02T16:09:49Z</time></trkpt><trkpt lat="44.7699327051134" lon="9.601834853376584"><ele>372.6</ele><time>2026-05-02T16:09:50Z</time></trkpt><trkpt lat="44.769975838124225" lon="9.601949838801815"><ele>371.4</ele><time>2026-05-02T16:09:51Z</time></trkpt><trkpt lat="44.770052584672534" lon="9.602055318370553"><ele>370.2</ele><time>2026-05-02T16:09:51.999Z</time></trkpt><trkpt lat="44.7701560670364" lon="9.602143128260892"><ele>369.0</ele><time>2026-05-02T16:09:52.999Z</time></trkpt><trkpt lat="44.770291898937565" lon="9.602207857328182"><ele>367.0</ele><time>2026-05-02T16:09:53.999Z</time></trkpt><trkpt lat="44.77043975376599" lon="9.602239156357294"><ele>365.0</ele><time>2026-05-02T16:09:54.999Z</time></trkpt><trkpt lat="44.77057447682635" lon="9.602212220239922"><ele>363.0</ele><time>2026-05-02T16:09:55.999Z</time></trkpt><trkpt lat="44.770692169447734" lon="9.60213055469438"><ele>361.0</ele><time>2026-05-02T16:09:56.999Z</time></trkpt><trkpt lat="44.770792285959025" lon="9.60203914189209"><ele>361.0</ele><time>2026-05-02T16:09:57.999Z</time></trkpt><trkpt lat="44.770899543594055" lon="9.602007312576935"><ele>361.0</ele><time>2026-05-02T16:09:58.999Z</time></trkpt><trkpt lat="44.77100401601187" lon="9.60205913445856"><ele>361.0</ele><time>2026-05-02T16:09:59.999Z</time></trkpt><trkpt lat="44.771100467785374" lon="9.602167811310325"><ele>361.0</ele><time>2026-05-02T16:10:00.999Z</time></trkpt><trkpt lat="44.771170261278655" lon="9.602337854861677"><ele>360.25</ele><time>2026-05-02T16:10:01.999Z</time></trkpt><trkpt lat="44.77122568241492" lon="9.602512833060002"><ele>359.5</ele><time>2026-05-02T16:10:02.999Z</time></trkpt><trkpt lat="44.771293577570184" lon="9.602650848378088"><ele>358.75</ele><time>2026-05-02T16:10:03.999Z</time></trkpt><trkpt lat="44.77137687910298" lon="9.602747448657952"><ele>358.0</ele><time>2026-05-02T16:10:04.999Z</time></trkpt><trkpt lat="44.77147919592724" lon="9.602812290770151"><ele>358.0</ele><time>2026-05-02T16:10:05.999Z</time></trkpt><trkpt lat="44.77159819977392" lon="9.602821812777057"><ele>358.0</ele><time>2026-05-02T16:10:06.999Z</time></trkpt><trkpt lat="44.77172807646573" lon="9.602816002096947"><ele>358.0</ele><time>2026-05-02T16:10:07.999Z</time></trkpt><trkpt lat="44.77185303445269" lon="9.602839468990382"><ele>358.0</ele><time>2026-05-02T16:10:08.999Z</time></trkpt><trkpt lat="44.77197084269602" lon="9.602876482717075"><ele>355.25</ele><time>2026-05-02T16:10:09.999Z</time></trkpt><trkpt lat="44.7720855808346" lon="9.602929123791522"><ele>352.5</ele><time>2026-05-02T16:10:10.999Z</time></trkpt><trkpt lat="44.77219345260758" lon="9.602995564635764"><ele>349.75</ele><time>2026-05-02T16:10:11.999Z</time></trkpt><trkpt lat="44.772282419725634" lon="9.603103053421153"><ele>347.0</ele><time>2026-05-02T16:10:12.999Z</time></trkpt><trkpt lat="44.772348861606986" lon="9.603239568660923"><ele>347.0</ele><time>2026-05-02T16:10:13.999Z</time></trkpt><trkpt lat="44.7723830891128" lon="9.603396000265292"><ele>347.0</ele><time>2026-05-02T16:10:14.999Z</time></trkpt><trkpt lat="44.77238212512031" lon="9.60355701070489"><ele>347.0</ele><time>2026-05-02T16:10:15.999Z</time></trkpt><trkpt lat="44.772373359860815" lon="9.603716917920682"><ele>347.0</ele><time>2026-05-02T16:10:16.999Z</time></trkpt><trkpt lat="44.772381529986916" lon="9.603871121660681"><ele>345.75</ele><time>2026-05-02T16:10:17.999Z</time></trkpt><trkpt lat="44.77241659542302" lon="9.604030485633794"><ele>344.5</ele><time>2026-05-02T16:10:18.999Z</time></trkpt><trkpt lat="44.77248360560607" lon="9.604180758424974"><ele>343.25</ele><time>2026-05-02T16:10:19.999Z</time></trkpt><trkpt lat="44.77259789659477" lon="9.60430476897484"><ele>342.0</ele><time>2026-05-02T16:10:20.999Z</time></trkpt><trkpt lat="44.77274155396339" lon="9.604398600373813"><ele>342.0</ele><time>2026-05-02T16:10:21.999Z</time></trkpt><trkpt lat="44.772863341287426" lon="9.604480358092832"><ele>342.0</ele><time>2026-05-02T16:10:22.999Z</time></trkpt><trkpt lat="44.77299366503393" lon="9.6045656009186"><ele>342.0</ele><time>2026-05-02T16:10:23.999Z</time></trkpt><trkpt lat="44.77312340505911" lon="9.60463689422193"><ele>342.0</ele><time>2026-05-02T16:10:24.999Z</time></trkpt><trkpt lat="44.77325261329873" lon="9.60470827989792"><ele>339.5</ele><time>2026-05-02T16:10:25.999Z</time></trkpt><trkpt lat="44.773375992457886" lon="9.60477284705799"><ele>337.0</ele><time>2026-05-02T16:10:26.999Z</time></trkpt><trkpt lat="44.77349982061143" lon="9.604843951397955"><ele>334.5</ele><time>2026-05-02T16:10:27.999Z</time></trkpt><trkpt lat="44.77361621019666" lon="9.604905686182068"><ele>332.0</ele><time>2026-05-02T16:10:28.999Z</time></trkpt><trkpt lat="44.77373010199436" lon="9.604967037436529"><ele>331.5</ele><time>2026-05-02T16:10:29.999Z</time></trkpt><trkpt lat="44.77384028558636" lon="9.605026586261843"><ele>331.0</ele><time>2026-05-02T16:10:30.999Z</time></trkpt><trkpt lat="44.7739500340733" lon="9.605077782848827"><ele>330.5</ele><time>2026-05-02T16:10:31.999Z</time></trkpt><trkpt lat="44.774061113464256" lon="9.60511954485108"><ele>330.0</ele><time>2026-05-02T16:10:32.999Z</time></trkpt><trkpt lat="44.77417522456864" lon="9.60515351593999"><ele>330.0</ele><time>2026-05-02T16:10:33.999Z</time></trkpt><trkpt lat="44.774288523187586" lon="9.605180303124444"><ele>330.0</ele><time>2026-05-02T16:10:34.999Z</time></trkpt><trkpt lat="44.77439758005514" lon="9.6052073433147"><ele>330.0</ele><time>2026-05-02T16:10:35.999Z</time></trkpt><trkpt lat="44.774500518451354" lon="9.605230615132662"><ele>330.0</ele><time>2026-05-02T16:10:36.999Z</time></trkpt><trkpt lat="44.7746023850788" lon="9.60526203030719"><ele>330.0</ele><time>2026-05-02T16:10:37.999Z</time></trkpt><trkpt lat="44.774714567103146" lon="9.605297956382593"><ele>329.0</ele><time>2026-05-02T16:10:38.999Z</time></trkpt><trkpt lat="44.77483130420214" lon="9.605332247939813"><ele>328.0</ele><time>2026-05-02T16:10:39.998Z</time></trkpt><trkpt lat="44.77495033739913" lon="9.605362849585994"><ele>327.0</ele><time>2026-05-02T16:10:40.998Z</time></trkpt><trkpt lat="44.77506896123879" lon="9.605389533811563"><ele>326.0</ele><time>2026-05-02T16:10:41.998Z</time></trkpt><trkpt lat="44.77517917505911" lon="9.605411694825433"><ele>326.25</ele><time>2026-05-02T16:10:42.998Z</time></trkpt><trkpt lat="44.77528579011762" lon="9.605435297473566"><ele>326.5</ele><time>2026-05-02T16:10:43.998Z</time></trkpt><trkpt lat="44.77539406385438" lon="9.605452972186765"><ele>326.75</ele><time>2026-05-02T16:10:44.998Z</time></trkpt><trkpt lat="44.775510727361954" lon="9.605470487382233"><ele>327.0</ele><time>2026-05-02T16:10:45.998Z</time></trkpt><trkpt lat="44.77563798749114" lon="9.605485065849443"><ele>327.0</ele><time>2026-05-02T16:10:46.998Z</time></trkpt><trkpt lat="44.77576132390004" lon="9.605497836716584"><ele>327.0</ele><time>2026-05-02T16:10:47.998Z</time></trkpt><trkpt lat="44.77587487924866" lon="9.605510284617976"><ele>327.0</ele><time>2026-05-02T16:10:48.998Z</time></trkpt><trkpt lat="44.77597521381297" lon="9.605522013195783"><ele>327.0</ele><time>2026-05-02T16:10:49.998Z</time></trkpt><trkpt lat="44.77606540146819" lon="9.605522999316765"><ele>327.0</ele><time>2026-05-02T16:10:50.998Z</time></trkpt><trkpt lat="44.776147449543934" lon="9.605523893657775"><ele>326.6666666666667</ele><time>2026-05-02T16:10:51.998Z</time></trkpt><trkpt lat="44.77621200022087" lon="9.605540386274297"><ele>326.3333333333333</ele><time>2026-05-02T16:10:52.998Z</time></trkpt><trkpt lat="44.77627095481293" lon="9.605655008590949"><ele>326.0</ele><time>2026-05-02T16:10:54.998Z</time></trkpt><trkpt lat="44.77625967971205" lon="9.605744794082852"><ele>325.66666666666663</ele><time>2026-05-02T16:10:55.998Z</time></trkpt><trkpt lat="44.776248581705296" lon="9.60584457274238"><ele>325.3333333333333</ele><time>2026-05-02T16:10:56.998Z</time></trkpt><trkpt lat="44.776243461587704" lon="9.60594649253297"><ele>325.0</ele><time>2026-05-02T16:10:57.998Z</time></trkpt><trkpt lat="44.77624202428107" lon="9.60605565118023"><ele>325.0</ele><time>2026-05-02T16:10:58.998Z</time></trkpt><trkpt lat="44.77623598622992" lon="9.606184188864964"><ele>325.0</ele><time>2026-05-02T16:10:59.998Z</time></trkpt><trkpt lat="44.77623213276935" lon="9.606313609070986"><ele>325.0</ele><time>2026-05-02T16:11:00.998Z</time></trkpt><trkpt lat="44.77622683040637" lon="9.606432527158898"><ele>325.0</ele><time>2026-05-02T16:11:01.998Z</time></trkpt><trkpt lat="44.77622189040731" lon="9.606562743896404"><ele>325.0</ele><time>2026-05-02T16:11:02.998Z</time></trkpt><trkpt lat="44.77621309444108" lon="9.606713674136914"><ele>325.0</ele><time>2026-05-02T16:11:03.998Z</time></trkpt><trkpt lat="44.77621158744167" lon="9.60685844684535"><ele>325.0</ele><time>2026-05-02T16:11:04.998Z</time></trkpt><trkpt lat="44.77622123044467" lon="9.606964214899813"><ele>325.0</ele><time>2026-05-02T16:11:05.998Z</time></trkpt><trkpt lat="44.776287595718095" lon="9.607095065504188"><ele>325.0</ele><time>2026-05-02T16:11:07.998Z</time></trkpt><trkpt lat="44.77637173436434" lon="9.607145192759178"><ele>325.0</ele><time>2026-05-02T16:11:09.998Z</time></trkpt><trkpt lat="44.77644884825928" lon="9.60719516947697"><ele>325.6</ele><time>2026-05-02T16:11:12.998Z</time></trkpt><trkpt lat="44.77657094384448" lon="9.607256485771442"><ele>326.2</ele><time>2026-05-02T16:11:14.998Z</time></trkpt><trkpt lat="44.77664205126181" lon="9.607290604197892"><ele>326.79999999999995</ele><time>2026-05-02T16:11:15.998Z</time></trkpt><trkpt lat="44.776718197620276" lon="9.607326981369257"><ele>327.4</ele><time>2026-05-02T16:11:16.998Z</time></trkpt><trkpt lat="44.776794749682196" lon="9.607369250514168"><ele>328.0</ele><time>2026-05-02T16:11:17.998Z</time></trkpt><trkpt lat="44.7768760724668" lon="9.607412467298769"><ele>328.0</ele><time>2026-05-02T16:11:18.998Z</time></trkpt><trkpt lat="44.77697279358204" lon="9.607463510857919"><ele>328.0</ele><time>2026-05-02T16:11:19.998Z</time></trkpt><trkpt lat="44.77707317294836" lon="9.607516137122659"><ele>328.0</ele><time>2026-05-02T16:11:21Z</time></trkpt><trkpt lat="44.77717089512793" lon="9.60757228694168"><ele>328.0</ele><time>2026-05-02T16:11:22Z</time></trkpt><trkpt lat="44.77727189999701" lon="9.607637148197197"><ele>328.0</ele><time>2026-05-02T16:11:23Z</time></trkpt><trkpt lat="44.7773741617417" lon="9.607702279339026"><ele>328.0</ele><time>2026-05-02T16:11:24Z</time></trkpt><trkpt lat="44.77747425060913" lon="9.607757589775234"><ele>328.0</ele><time>2026-05-02T16:11:25Z</time></trkpt><trkpt lat="44.77756859752365" lon="9.607817046398157"><ele>328.0</ele><time>2026-05-02T16:11:26Z</time></trkpt><trkpt lat="44.77767055820058" lon="9.607876592815048"><ele>328.0</ele><time>2026-05-02T16:11:27Z</time></trkpt><trkpt lat="44.777775435820175" lon="9.607938818501399"><ele>328.0</ele><time>2026-05-02T16:11:28Z</time></trkpt><trkpt lat="44.77787884181882" lon="9.607996794440506"><ele>328.0</ele><time>2026-05-02T16:11:29Z</time></trkpt><trkpt lat="44.77798752155083" lon="9.608067038888267"><ele>328.0</ele><time>2026-05-02T16:11:30Z</time></trkpt><trkpt lat="44.778101598479125" lon="9.608134983484428"><ele>328.0</ele><time>2026-05-02T16:11:31Z</time></trkpt><trkpt lat="44.77822030518424" lon="9.6081971960031"><ele>328.0</ele><time>2026-05-02T16:11:32Z</time></trkpt><trkpt lat="44.7783437616747" lon="9.608262451443519"><ele>328.0</ele><time>2026-05-02T16:11:33Z</time></trkpt><trkpt lat="44.77846371785846" lon="9.608330746352552"><ele>328.0</ele><time>2026-05-02T16:11:34Z</time></trkpt><trkpt lat="44.77857601256299" lon="9.608396170926138"><ele>328.0</ele><time>2026-05-02T16:11:35Z</time></trkpt><trkpt lat="44.77868165012569" lon="9.60845698531205"><ele>328.0</ele><time>2026-05-02T16:11:36Z</time></trkpt><trkpt lat="44.77878348718677" lon="9.6085202790309"><ele>327.4</ele><time>2026-05-02T16:11:37Z</time></trkpt><trkpt lat="44.77888200862409" lon="9.608571104319473"><ele>326.79999999999995</ele><time>2026-05-02T16:11:38Z</time></trkpt><trkpt lat="44.778972854676674" lon="9.608617389911773"><ele>326.2</ele><time>2026-05-02T16:11:39Z</time></trkpt><trkpt lat="44.77906018418437" lon="9.60866977669567"><ele>325.6</ele><time>2026-05-02T16:11:40Z</time></trkpt><trkpt lat="44.77914930591714" lon="9.608725301870145"><ele>325.0</ele><time>2026-05-02T16:11:41Z</time></trkpt><trkpt lat="44.77924263700327" lon="9.608777088961578"><ele>325.0</ele><time>2026-05-02T16:11:42Z</time></trkpt><trkpt lat="44.7793452759245" lon="9.608838892383874"><ele>325.0</ele><time>2026-05-02T16:11:43Z</time></trkpt><trkpt lat="44.779452292511735" lon="9.608902972292862"><ele>325.0</ele><time>2026-05-02T16:11:44Z</time></trkpt><trkpt lat="44.779566792492666" lon="9.608968299087554"><ele>325.0</ele><time>2026-05-02T16:11:45Z</time></trkpt><trkpt lat="44.77968456977241" lon="9.609040792644242"><ele>325.25</ele><time>2026-05-02T16:11:46Z</time></trkpt><trkpt lat="44.77980461739106" lon="9.609110625648988"><ele>325.5</ele><time>2026-05-02T16:11:47Z</time></trkpt><trkpt lat="44.77992066250882" lon="9.60918012184765"><ele>325.75</ele><time>2026-05-02T16:11:48Z</time></trkpt><trkpt lat="44.78002870526203" lon="9.609247226392469"><ele>326.0</ele><time>2026-05-02T16:11:49Z</time></trkpt><trkpt lat="44.78013836805031" lon="9.609313860824129"><ele>325.75</ele><time>2026-05-02T16:11:50Z</time></trkpt><trkpt lat="44.78024867519088" lon="9.609381524643767"><ele>325.5</ele><time>2026-05-02T16:11:51Z</time></trkpt><trkpt lat="44.78035868779949" lon="9.609445828783288"><ele>325.25</ele><time>2026-05-02T16:11:52Z</time></trkpt><trkpt lat="44.780474590632025" lon="9.60950840783786"><ele>325.0</ele><time>2026-05-02T16:11:53Z</time></trkpt><trkpt lat="44.7805930839092" lon="9.609577135449744"><ele>325.0</ele><time>2026-05-02T16:11:54Z</time></trkpt><trkpt lat="44.78070916729265" lon="9.609645973349101"><ele>325.0</ele><time>2026-05-02T16:11:55Z</time></trkpt><trkpt lat="44.78082270523865" lon="9.609712699122857"><ele>325.0</ele><time>2026-05-02T16:11:56Z</time></trkpt><trkpt lat="44.780933566184785" lon="9.609775396012836"><ele>325.0</ele><time>2026-05-02T16:11:57Z</time></trkpt><trkpt lat="44.78104466604443" lon="9.609838931163438"><ele>325.0</ele><time>2026-05-02T16:11:57.999Z</time></trkpt><trkpt lat="44.781160683377685" lon="9.609906223177905"><ele>325.0</ele><time>2026-05-02T16:11:58.999Z</time></trkpt><trkpt lat="44.781278845936086" lon="9.609977231463867"><ele>325.0</ele><time>2026-05-02T16:11:59.999Z</time></trkpt><trkpt lat="44.78139907984432" lon="9.610051685422407"><ele>325.0</ele><time>2026-05-02T16:12:00.999Z</time></trkpt><trkpt lat="44.781522243038985" lon="9.610125731211399"><ele>325.0</ele><time>2026-05-02T16:12:01.999Z</time></trkpt><trkpt lat="44.78164367576311" lon="9.610198596980323"><ele>325.0</ele><time>2026-05-02T16:12:02.999Z</time></trkpt><trkpt lat="44.78176546291342" lon="9.610267913961732"><ele>325.0</ele><time>2026-05-02T16:12:03.999Z</time></trkpt><trkpt lat="44.781887604303726" lon="9.610330154779572"><ele>325.0</ele><time>2026-05-02T16:12:04.999Z</time></trkpt><trkpt lat="44.78199975485201" lon="9.610373893694236"><ele>325.2</ele><time>2026-05-02T16:12:05.999Z</time></trkpt><trkpt lat="44.78210576674151" lon="9.610405827819845"><ele>325.4</ele><time>2026-05-02T16:12:06.999Z</time></trkpt><trkpt lat="44.78220088202568" lon="9.610458901298538"><ele>325.6</ele><time>2026-05-02T16:12:07.999Z</time></trkpt><trkpt lat="44.782279673716424" lon="9.610538019852486"><ele>325.8</ele><time>2026-05-02T16:12:08.999Z</time></trkpt><trkpt lat="44.782333399460754" lon="9.610614379658486"><ele>326.0</ele><time>2026-05-02T16:12:09.999Z</time></trkpt><trkpt lat="44.78240625710756" lon="9.610659908103607"><ele>326.0</ele><time>2026-05-02T16:12:11.999Z</time></trkpt><trkpt lat="44.78247771696946" lon="9.610698195889862"><ele>326.0</ele><time>2026-05-02T16:12:45.999Z</time></trkpt><trkpt lat="44.78257003712465" lon="9.61064717289397"><ele>326.0</ele><time>2026-05-02T16:12:47.998Z</time></trkpt><trkpt lat="44.78263011849478" lon="9.610617512963925"><ele>326.0</ele><time>2026-05-02T16:12:48.998Z</time></trkpt><trkpt lat="44.78269332486106" lon="9.610580192692536"><ele>326.0</ele><time>2026-05-02T16:12:49.998Z</time></trkpt><trkpt lat="44.782757145526205" lon="9.610511409849709"><ele>326.0</ele><time>2026-05-02T16:12:50.998Z</time></trkpt><trkpt lat="44.78279675536662" lon="9.610403028553668"><ele>325.6666666666667</ele><time>2026-05-02T16:12:51.998Z</time></trkpt><trkpt lat="44.782803402470506" lon="9.61026942324822"><ele>325.33333333333337</ele><time>2026-05-02T16:12:52.998Z</time></trkpt><trkpt lat="44.782802992765106" lon="9.610154231945526"><ele>325.0</ele><time>2026-05-02T16:12:53.998Z</time></trkpt><trkpt lat="44.782837366399136" lon="9.610074369433422"><ele>324.6666666666667</ele><time>2026-05-02T16:12:54.998Z</time></trkpt><trkpt lat="44.78290207600804" lon="9.610046240867298"><ele>324.3333333333333</ele><time>2026-05-02T16:12:55.998Z</time></trkpt><trkpt lat="44.78299388360549" lon="9.61006069914473"><ele>324.0</ele><time>2026-05-02T16:12:56.998Z</time></trkpt><trkpt lat="44.78309647130969" lon="9.610093084820496"><ele>324.0</ele><time>2026-05-02T16:12:57.998Z</time></trkpt><trkpt lat="44.78321652864573" lon="9.610135638048133"><ele>324.0</ele><time>2026-05-02T16:12:58.998Z</time></trkpt><trkpt lat="44.783354572626166" lon="9.610195331432603"><ele>324.0</ele><time>2026-05-02T16:12:59.998Z</time></trkpt><trkpt lat="44.78350416134913" lon="9.610264846950544"><ele>324.0</ele><time>2026-05-02T16:13:00.998Z</time></trkpt><trkpt lat="44.78364293462211" lon="9.610348629508854"><ele>328.0</ele><time>2026-05-02T16:13:01.998Z</time></trkpt><trkpt lat="44.78379167359971" lon="9.610455180005872"><ele>332.0</ele><time>2026-05-02T16:13:02.998Z</time></trkpt><trkpt lat="44.783945712546824" lon="9.610574542453346"><ele>336.0</ele><time>2026-05-02T16:13:03.998Z</time></trkpt><trkpt lat="44.7840865314927" lon="9.610683211828952"><ele>336.0</ele><time>2026-05-02T16:13:04.998Z</time></trkpt><trkpt lat="44.78422047411088" lon="9.610782328755834"><ele>336.0</ele><time>2026-05-02T16:13:05.998Z</time></trkpt><trkpt lat="44.784356095229015" lon="9.610879417773072"><ele>336.0</ele><time>2026-05-02T16:13:06.998Z</time></trkpt><trkpt lat="44.784498152838" lon="9.610969188631241"><ele>335.6</ele><time>2026-05-02T16:13:07.998Z</time></trkpt><trkpt lat="44.78462893598762" lon="9.611032843589618"><ele>335.20000000000005</ele><time>2026-05-02T16:13:08.998Z</time></trkpt><trkpt lat="44.78474179000154" lon="9.611074579514854"><ele>334.79999999999995</ele><time>2026-05-02T16:13:09.998Z</time></trkpt><trkpt lat="44.784833342403886" lon="9.61111727955176"><ele>334.4</ele><time>2026-05-02T16:13:10.998Z</time></trkpt><trkpt lat="44.784905467478815" lon="9.611201055412472"><ele>334.0</ele><time>2026-05-02T16:13:11.998Z</time></trkpt><trkpt lat="44.784954025013164" lon="9.611351925622742"><ele>335.79999999999995</ele><time>2026-05-02T16:13:12.998Z</time></trkpt><trkpt lat="44.784960747793086" lon="9.611508772537627"><ele>337.59999999999997</ele><time>2026-05-02T16:13:13.998Z</time></trkpt><trkpt lat="44.78491535241262" lon="9.611618864579691"><ele>339.4</ele><time>2026-05-02T16:13:14.998Z</time></trkpt><trkpt lat="44.7848362695472" lon="9.611678593984507"><ele>341.2</ele><time>2026-05-02T16:13:15.998Z</time></trkpt><trkpt lat="44.78475398735828" lon="9.61167439076421"><ele>343.0</ele><time>2026-05-02T16:13:16.998Z</time></trkpt><trkpt lat="44.784672760246295" lon="9.611628800272445"><ele>343.0</ele><time>2026-05-02T16:13:17.998Z</time></trkpt><trkpt lat="44.78458662570196" lon="9.611544217118166"><ele>343.0</ele><time>2026-05-02T16:13:18.998Z</time></trkpt><trkpt lat="44.784476489808526" lon="9.611468116568531"><ele>343.0</ele><time>2026-05-02T16:13:19.998Z</time></trkpt><trkpt lat="44.78436413891735" lon="9.611457656086783"><ele>343.0</ele><time>2026-05-02T16:13:20.998Z</time></trkpt><trkpt lat="44.78425906622958" lon="9.611522956715756"><ele>343.4</ele><time>2026-05-02T16:13:21.998Z</time></trkpt><trkpt lat="44.7841740196999" lon="9.611619818034262"><ele>343.79999999999995</ele><time>2026-05-02T16:13:22.998Z</time></trkpt><trkpt lat="44.78411863300914" lon="9.61172310307035"><ele>344.2</ele><time>2026-05-02T16:13:23.998Z</time></trkpt><trkpt lat="44.78410610384801" lon="9.611844375502338"><ele>344.6</ele><time>2026-05-02T16:13:24.998Z</time></trkpt><trkpt lat="44.784154794199296" lon="9.611962842545413"><ele>345.0</ele><time>2026-05-02T16:13:25.998Z</time></trkpt><trkpt lat="44.78424287520529" lon="9.612036891898033"><ele>346.25</ele><time>2026-05-02T16:13:27Z</time></trkpt><trkpt lat="44.78436422556516" lon="9.612086322904117"><ele>347.5</ele><time>2026-05-02T16:13:28Z</time></trkpt><trkpt lat="44.78450519745104" lon="9.612172753501476"><ele>348.75</ele><time>2026-05-02T16:13:29Z</time></trkpt><trkpt lat="44.78463160912888" lon="9.612310515546456"><ele>350.0</ele><time>2026-05-02T16:13:30Z</time></trkpt><trkpt lat="44.7847508528043" lon="9.61247252134074"><ele>350.0</ele><time>2026-05-02T16:13:31Z</time></trkpt><trkpt lat="44.78488171614178" lon="9.612636587252815"><ele>350.0</ele><time>2026-05-02T16:13:32Z</time></trkpt><trkpt lat="44.78500762382605" lon="9.61277977524407"><ele>350.0</ele><time>2026-05-02T16:13:33Z</time></trkpt><trkpt lat="44.78512845823978" lon="9.612912194451285"><ele>352.6666666666667</ele><time>2026-05-02T16:13:34Z</time></trkpt><trkpt lat="44.78524683419248" lon="9.613046999720236"><ele>355.3333333333333</ele><time>2026-05-02T16:13:35Z</time></trkpt><trkpt lat="44.785363421450676" lon="9.613179117282256"><ele>358.0</ele><time>2026-05-02T16:13:36Z</time></trkpt><trkpt lat="44.785480577871986" lon="9.613308298946121"><ele>358.0</ele><time>2026-05-02T16:13:37Z</time></trkpt><trkpt lat="44.78559280171449" lon="9.613432320961065"><ele>358.0</ele><time>2026-05-02T16:13:38Z</time></trkpt><trkpt lat="44.7856950257144" lon="9.613548707158786"><ele>358.0</ele><time>2026-05-02T16:13:39Z</time></trkpt><trkpt lat="44.78578686322172" lon="9.613660275370155"><ele>358.0</ele><time>2026-05-02T16:13:40Z</time></trkpt><trkpt lat="44.7858634354765" lon="9.613766798360011"><ele>359.4</ele><time>2026-05-02T16:13:41Z</time></trkpt><trkpt lat="44.7859187051848" lon="9.613881080681864"><ele>360.79999999999995</ele><time>2026-05-02T16:13:42Z</time></trkpt><trkpt lat="44.785937070185746" lon="9.614009249793913"><ele>362.2</ele><time>2026-05-02T16:13:43Z</time></trkpt><trkpt lat="44.785917738762826" lon="9.614135431098072"><ele>363.6</ele><time>2026-05-02T16:13:44Z</time></trkpt><trkpt lat="44.785857882906235" lon="9.614243787415464"><ele>365.0</ele><time>2026-05-02T16:13:45Z</time></trkpt><trkpt lat="44.78577467822389" lon="9.614357865234869"><ele>366.75</ele><time>2026-05-02T16:13:46Z</time></trkpt><trkpt lat="44.78571175431205" lon="9.61449941996374"><ele>368.5</ele><time>2026-05-02T16:13:47Z</time></trkpt><trkpt lat="44.78570442054839" lon="9.614666992114335"><ele>370.25</ele><time>2026-05-02T16:13:48Z</time></trkpt><trkpt lat="44.78575339386264" lon="9.614833121732968"><ele>372.0</ele><time>2026-05-02T16:13:49Z</time></trkpt><trkpt lat="44.78583002218177" lon="9.615038491570695"><ele>372.0</ele><time>2026-05-02T16:13:50Z</time></trkpt><trkpt lat="44.78586126650676" lon="9.615295127623444"><ele>372.0</ele><time>2026-05-02T16:13:51Z</time></trkpt><trkpt lat="44.785907635470814" lon="9.615498402562888"><ele>372.0</ele><time>2026-05-02T16:13:52Z</time></trkpt><trkpt lat="44.78600479244782" lon="9.61567107270262"><ele>372.25</ele><time>2026-05-02T16:13:53Z</time></trkpt><trkpt lat="44.78614038323206" lon="9.615799274837451"><ele>372.5</ele><time>2026-05-02T16:13:54Z</time></trkpt><trkpt lat="44.786258891699774" lon="9.615905915798118"><ele>372.75</ele><time>2026-05-02T16:13:55Z</time></trkpt><trkpt lat="44.78633239643023" lon="9.61601627821465"><ele>373.0</ele><time>2026-05-02T16:13:56Z</time></trkpt><trkpt lat="44.78636193416016" lon="9.616161147561423"><ele>375.0</ele><time>2026-05-02T16:13:57Z</time></trkpt><trkpt lat="44.78636427380046" lon="9.616334114811421"><ele>377.0</ele><time>2026-05-02T16:13:58Z</time></trkpt><trkpt lat="44.78635506122512" lon="9.616518332922599"><ele>379.0</ele><time>2026-05-02T16:13:59Z</time></trkpt><trkpt lat="44.78634067325082" lon="9.616719641877907"><ele>381.0</ele><time>2026-05-02T16:14:00Z</time></trkpt><trkpt lat="44.78632434857128" lon="9.616916240778199"><ele>382.75</ele><time>2026-05-02T16:14:01Z</time></trkpt><trkpt lat="44.7863090315578" lon="9.617113259148473"><ele>384.5</ele><time>2026-05-02T16:14:02Z</time></trkpt><trkpt lat="44.78629085539334" lon="9.617306211500624"><ele>386.25</ele><time>2026-05-02T16:14:03Z</time></trkpt><trkpt lat="44.78627240950202" lon="9.617482855296709"><ele>388.0</ele><time>2026-05-02T16:14:04Z</time></trkpt><trkpt lat="44.786253274203325" lon="9.61766100671938"><ele>389.25</ele><time>2026-05-02T16:14:04.999Z</time></trkpt><trkpt lat="44.78622815423342" lon="9.617840442876508"><ele>390.5</ele><time>2026-05-02T16:14:05.999Z</time></trkpt><trkpt lat="44.78620165695931" lon="9.618007791970635"><ele>391.75</ele><time>2026-05-02T16:14:06.999Z</time></trkpt><trkpt lat="44.78618609038761" lon="9.61817446816864"><ele>393.0</ele><time>2026-05-02T16:14:07.999Z</time></trkpt><trkpt lat="44.786180354975016" lon="9.61834161591843"><ele>393.0</ele><time>2026-05-02T16:14:08.999Z</time></trkpt><trkpt lat="44.78616451865055" lon="9.618488296645289"><ele>393.0</ele><time>2026-05-02T16:14:09.999Z</time></trkpt><trkpt lat="44.786163472353614" lon="9.61866390903305"><ele>393.0</ele><time>2026-05-02T16:14:10.999Z</time></trkpt><trkpt lat="44.78616854819703" lon="9.618826439515392"><ele>393.0</ele><time>2026-05-02T16:14:11.999Z</time></trkpt><trkpt lat="44.78617031457265" lon="9.619000175163304"><ele>394.25</ele><time>2026-05-02T16:14:12.999Z</time></trkpt><trkpt lat="44.786175750149035" lon="9.619183755098577"><ele>395.5</ele><time>2026-05-02T16:14:13.999Z</time></trkpt><trkpt lat="44.78617094992691" lon="9.619360224646814"><ele>396.75</ele><time>2026-05-02T16:14:14.999Z</time></trkpt><trkpt lat="44.786150068492574" lon="9.619538498521973"><ele>398.0</ele><time>2026-05-02T16:14:15.999Z</time></trkpt><trkpt lat="44.786101282914466" lon="9.619719719284541"><ele>396.5</ele><time>2026-05-02T16:14:16.999Z</time></trkpt><trkpt lat="44.786020688321706" lon="9.619895093123938"><ele>395.0</ele><time>2026-05-02T16:14:17.999Z</time></trkpt><trkpt lat="44.785928528630244" lon="9.620066465785952"><ele>393.5</ele><time>2026-05-02T16:14:18.999Z</time></trkpt><trkpt lat="44.785825748250545" lon="9.620189950372078"><ele>392.0</ele><time>2026-05-02T16:14:19.999Z</time></trkpt><trkpt lat="44.78572780764715" lon="9.620291731401727"><ele>393.40000000000003</ele><time>2026-05-02T16:14:20.999Z</time></trkpt><trkpt lat="44.78565139928526" lon="9.620396526544626"><ele>394.8</ele><time>2026-05-02T16:14:21.999Z</time></trkpt><trkpt lat="44.78561870996247" lon="9.620529249438421"><ele>396.2</ele><time>2026-05-02T16:14:22.999Z</time></trkpt><trkpt lat="44.785632854773326" lon="9.620651697662467"><ele>397.6</ele><time>2026-05-02T16:14:23.999Z</time></trkpt><trkpt lat="44.78569521312192" lon="9.620756707900217"><ele>399.0</ele><time>2026-05-02T16:14:24.999Z</time></trkpt><trkpt lat="44.785788212489884" lon="9.620806973147522"><ele>399.0</ele><time>2026-05-02T16:14:25.999Z</time></trkpt><trkpt lat="44.78589449645202" lon="9.62078706911821"><ele>399.0</ele><time>2026-05-02T16:14:26.999Z</time></trkpt><trkpt lat="44.78601082358896" lon="9.620703051109468"><ele>399.0</ele><time>2026-05-02T16:14:27.999Z</time></trkpt><trkpt lat="44.78613329151789" lon="9.620567335588861"><ele>399.0</ele><time>2026-05-02T16:14:28.999Z</time></trkpt><trkpt lat="44.786251641327276" lon="9.62044160221492"><ele>400.2</ele><time>2026-05-02T16:14:29.999Z</time></trkpt><trkpt lat="44.78637285180165" lon="9.620342069236154"><ele>401.4</ele><time>2026-05-02T16:14:30.999Z</time></trkpt><trkpt lat="44.786480663367264" lon="9.62025672387599"><ele>402.6</ele><time>2026-05-02T16:14:31.999Z</time></trkpt><trkpt lat="44.78655890237704" lon="9.620200179320284"><ele>403.8</ele><time>2026-05-02T16:14:32.999Z</time></trkpt><trkpt lat="44.78663338473253" lon="9.620188526765562"><ele>405.0</ele><time>2026-05-02T16:14:34.999Z</time></trkpt><trkpt lat="44.78666384097587" lon="9.620304990744536"><ele>405.8333333333333</ele><time>2026-05-02T16:15:03.998Z</time></trkpt><trkpt lat="44.78667465491003" lon="9.620399403624358"><ele>406.66666666666663</ele><time>2026-05-02T16:15:04.998Z</time></trkpt><trkpt lat="44.78670472314489" lon="9.620494254709314"><ele>407.5</ele><time>2026-05-02T16:15:05.998Z</time></trkpt><trkpt lat="44.78674823116308" lon="9.620606000718888"><ele>408.3333333333333</ele><time>2026-05-02T16:15:06.998Z</time></trkpt><trkpt lat="44.786803181134616" lon="9.6207340842937"><ele>409.16666666666663</ele><time>2026-05-02T16:15:07.998Z</time></trkpt><trkpt lat="44.786849955534535" lon="9.620844938206375"><ele>410.0</ele><time>2026-05-02T16:15:08.998Z</time></trkpt><trkpt lat="44.78688152710961" lon="9.620951952283125"><ele>412.6</ele><time>2026-05-02T16:15:09.998Z</time></trkpt><trkpt lat="44.786897139881624" lon="9.621086246110515"><ele>415.2</ele><time>2026-05-02T16:15:10.998Z</time></trkpt><trkpt lat="44.7868985093806" lon="9.62122906907731"><ele>417.79999999999995</ele><time>2026-05-02T16:15:11.998Z</time></trkpt><trkpt lat="44.7869041056124" lon="9.621379935055648"><ele>420.4</ele><time>2026-05-02T16:15:12.998Z</time></trkpt><trkpt lat="44.78691250412047" lon="9.621519064053752"><ele>423.0</ele><time>2026-05-02T16:15:13.998Z</time></trkpt><trkpt lat="44.78693069107902" lon="9.621661367205707"><ele>423.79999999999995</ele><time>2026-05-02T16:15:14.998Z</time></trkpt><trkpt lat="44.78694135865416" lon="9.621804124702175"><ele>424.6</ele><time>2026-05-02T16:15:15.998Z</time></trkpt><trkpt lat="44.78694895863707" lon="9.621945905224276"><ele>425.40000000000003</ele><time>2026-05-02T16:15:16.998Z</time></trkpt><trkpt lat="44.78696095382172" lon="9.622061436908801"><ele>426.20000000000005</ele><time>2026-05-02T16:15:17.998Z</time></trkpt><trkpt lat="44.78695565211265" lon="9.622238640928302"><ele>427.0</ele><time>2026-05-02T16:15:19.998Z</time></trkpt><trkpt lat="44.7869377548826" lon="9.622357021230973"><ele>427.33333333333337</ele><time>2026-05-02T16:15:20.998Z</time></trkpt><trkpt lat="44.78689105908468" lon="9.622468217359502"><ele>427.6666666666667</ele><time>2026-05-02T16:15:21.998Z</time></trkpt><trkpt lat="44.786848684796134" lon="9.622583545475223"><ele>428.0</ele><time>2026-05-02T16:15:22.998Z</time></trkpt><trkpt lat="44.78681024156317" lon="9.6226842557672"><ele>428.33333333333337</ele><time>2026-05-02T16:15:23.998Z</time></trkpt><trkpt lat="44.786780940285645" lon="9.622782143970262"><ele>428.6666666666667</ele><time>2026-05-02T16:15:24.998Z</time></trkpt><trkpt lat="44.786765734125495" lon="9.622898371648539"><ele>429.0</ele><time>2026-05-02T16:15:25.998Z</time></trkpt><trkpt lat="44.78676194828926" lon="9.623021939385147"><ele>427.6666666666667</ele><time>2026-05-02T16:15:26.998Z</time></trkpt><trkpt lat="44.78676270908557" lon="9.623127266790178"><ele>426.33333333333337</ele><time>2026-05-02T16:15:27.998Z</time></trkpt><trkpt lat="44.78676245047018" lon="9.623227315815992"><ele>425.0</ele><time>2026-05-02T16:15:28.998Z</time></trkpt><trkpt lat="44.78675212512036" lon="9.623389375004754"><ele>423.6666666666667</ele><time>2026-05-02T16:15:30.998Z</time></trkpt><trkpt lat="44.78674592986669" lon="9.62348498743179"><ele>422.33333333333337</ele><time>2026-05-02T16:15:31.998Z</time></trkpt><trkpt lat="44.786714454253215" lon="9.62364085305885"><ele>421.0</ele><time>2026-05-02T16:15:34Z</time></trkpt><trkpt lat="44.78668163974206" lon="9.623791933890855"><ele>421.00000000000006</ele><time>2026-05-02T16:15:36Z</time></trkpt><trkpt lat="44.786663519852915" lon="9.623883152284431"><ele>421.0</ele><time>2026-05-02T16:15:37Z</time></trkpt><trkpt lat="44.78663254710326" lon="9.624042040989595"><ele>421.0</ele><time>2026-05-02T16:15:39Z</time></trkpt><trkpt lat="44.78661233020212" lon="9.624140300604493"><ele>421.0</ele><time>2026-05-02T16:15:40Z</time></trkpt><trkpt lat="44.78659684049113" lon="9.62422879618159"><ele>421.00000000000006</ele><time>2026-05-02T16:15:41Z</time></trkpt><trkpt lat="44.78658060700151" lon="9.624317018935518"><ele>421.0</ele><time>2026-05-02T16:15:42Z</time></trkpt><trkpt lat="44.78659456196859" lon="9.624454542577222"><ele>421.8</ele><time>2026-05-02T16:15:44Z</time></trkpt><trkpt lat="44.78661027238109" lon="9.624625260323057"><ele>422.6</ele><time>2026-05-02T16:15:46Z</time></trkpt><trkpt lat="44.786606557445594" lon="9.624752188230257"><ele>423.4</ele><time>2026-05-02T16:15:48Z</time></trkpt><trkpt lat="44.78652594773424" lon="9.624837895337711"><ele>424.2</ele><time>2026-05-02T16:15:51Z</time></trkpt><trkpt lat="44.78643483606728" lon="9.62478672440622"><ele>425.0</ele><time>2026-05-02T16:15:54Z</time></trkpt><trkpt lat="44.786356385164304" lon="9.624741278257979"><ele>424.99999999999994</ele><time>2026-05-02T16:15:56Z</time></trkpt><trkpt lat="44.786287510218585" lon="9.624719960218664"><ele>425.0</ele><time>2026-05-02T16:15:58Z</time></trkpt><trkpt lat="44.78622278635678" lon="9.624826298450259"><ele>425.0</ele><time>2026-05-02T16:16:17.999Z</time></trkpt><trkpt lat="44.78615235011374" lon="9.624859950096958"><ele>425.0</ele><time>2026-05-02T16:16:18.999Z</time></trkpt><trkpt lat="44.78606040362115" lon="9.624971540108112"><ele>424.99999999999994</ele><time>2026-05-02T16:16:20.999Z</time></trkpt><trkpt lat="44.786019207955256" lon="9.625052765140659"><ele>425.0</ele><time>2026-05-02T16:16:21.999Z</time></trkpt><trkpt lat="44.78596194866045" lon="9.625110649146809"><ele>424.0</ele><time>2026-05-02T16:16:22.999Z</time></trkpt><trkpt lat="44.785918050595406" lon="9.625189663645413"><ele>423.0</ele><time>2026-05-02T16:16:25.999Z</time></trkpt><trkpt lat="44.78596170030056" lon="9.625281632974733"><ele>422.0</ele><time>2026-05-02T16:16:27.999Z</time></trkpt><trkpt lat="44.78603803916232" lon="9.625370945915996"><ele>421.0</ele><time>2026-05-02T16:16:29.999Z</time></trkpt><trkpt lat="44.786074510392815" lon="9.625469482378177"><ele>420.0</ele><time>2026-05-02T16:16:32.999Z</time></trkpt><trkpt lat="44.78604683577713" lon="9.625643972213004"><ele>421.6666666666667</ele><time>2026-05-02T16:16:34.999Z</time></trkpt><trkpt lat="44.786078538905656" lon="9.625742727206749"><ele>423.33333333333337</ele><time>2026-05-02T16:16:36.999Z</time></trkpt><trkpt lat="44.78605998304427" lon="9.625869530725527"><ele>425.0</ele><time>2026-05-02T16:16:38.999Z</time></trkpt><trkpt lat="44.786029645767094" lon="9.625948740067127"><ele>426.6666666666667</ele><time>2026-05-02T16:16:39.999Z</time></trkpt><trkpt lat="44.785919380459426" lon="9.626053541571862"><ele>428.33333333333337</ele><time>2026-05-02T16:16:41.999Z</time></trkpt><trkpt lat="44.785841384115216" lon="9.626088903407798"><ele>430.0</ele><time>2026-05-02T16:16:42.999Z</time></trkpt><trkpt lat="44.78577038295813" lon="9.626128781193147"><ele>433.50000000000006</ele><time>2026-05-02T16:16:43.999Z</time></trkpt><trkpt lat="44.78571552814381" lon="9.626191699904878"><ele>437.0</ele><time>2026-05-02T16:16:44.999Z</time></trkpt><trkpt lat="44.78567250878498" lon="9.626362230355305"><ele>440.5</ele><time>2026-05-02T16:16:46.999Z</time></trkpt><trkpt lat="44.785656100789446" lon="9.626467705456207"><ele>444.0</ele><time>2026-05-02T16:16:47.999Z</time></trkpt><trkpt lat="44.78570296265988" lon="9.626570395488294"><ele>447.50000000000006</ele><time>2026-05-02T16:16:49.999Z</time></trkpt><trkpt lat="44.785763472318266" lon="9.62662221943814"><ele>451.0</ele><time>2026-05-02T16:16:50.999Z</time></trkpt><trkpt lat="44.785822660048034" lon="9.626710886667208"><ele>451.0</ele><time>2026-05-02T16:16:52.999Z</time></trkpt><trkpt lat="44.78580238458449" lon="9.626832874538323"><ele>451.0</ele><time>2026-05-02T16:17:18.998Z</time></trkpt><trkpt lat="44.78579255436719" lon="9.626960658679875"><ele>451.0</ele><time>2026-05-02T16:17:20.998Z</time></trkpt><trkpt lat="44.78573841234228" lon="9.627031718289956"><ele>451.0</ele><time>2026-05-02T16:17:22.998Z</time></trkpt><trkpt lat="44.78570711350373" lon="9.62716512821231"><ele>451.0</ele><time>2026-05-02T16:17:25.998Z</time></trkpt><trkpt lat="44.78566358346947" lon="9.627287114380392"><ele>453.1666666666667</ele><time>2026-05-02T16:17:27.998Z</time></trkpt><trkpt lat="44.7856347325341" lon="9.627375594890355"><ele>455.33333333333337</ele><time>2026-05-02T16:17:28.998Z</time></trkpt><trkpt lat="44.78559021551221" lon="9.627470180523503"><ele>457.5</ele><time>2026-05-02T16:17:29.998Z</time></trkpt><trkpt lat="44.785531364479894" lon="9.627563780962113"><ele>459.66666666666663</ele><time>2026-05-02T16:17:30.998Z</time></trkpt><trkpt lat="44.78547915631261" lon="9.62764390711197"><ele>461.8333333333333</ele><time>2026-05-02T16:17:31.998Z</time></trkpt><trkpt lat="44.78544301420457" lon="9.627717742866556"><ele>464.0</ele><time>2026-05-02T16:17:32.998Z</time></trkpt><trkpt lat="44.78538437742409" lon="9.627787513749519"><ele>466.2</ele><time>2026-05-02T16:17:33.998Z</time></trkpt><trkpt lat="44.78531239307262" lon="9.627905807392873"><ele>468.4</ele><time>2026-05-02T16:17:35.998Z</time></trkpt><trkpt lat="44.785261602591824" lon="9.628058829594064"><ele>470.6</ele><time>2026-05-02T16:17:37.998Z</time></trkpt><trkpt lat="44.78524586067829" lon="9.628148490192412"><ele>472.8</ele><time>2026-05-02T16:17:39Z</time></trkpt><trkpt lat="44.785237723085146" lon="9.628324220646508"><ele>475.0</ele><time>2026-05-02T16:17:41Z</time></trkpt><trkpt lat="44.78517580391233" lon="9.628506405145425"><ele>476.00000000000006</ele><time>2026-05-02T16:17:43Z</time></trkpt><trkpt lat="44.785131602955346" lon="9.628597539380072"><ele>477.0</ele><time>2026-05-02T16:17:44Z</time></trkpt><trkpt lat="44.785072445827794" lon="9.62868501166671"><ele>478.0</ele><time>2026-05-02T16:17:45Z</time></trkpt><trkpt lat="44.78502749603095" lon="9.62878137090363"><ele>479.0</ele><time>2026-05-02T16:17:47Z</time></trkpt><trkpt lat="44.78492571767195" lon="9.628842577967955"><ele>480.00000000000006</ele><time>2026-05-02T16:21:38.998Z</time></trkpt><trkpt lat="44.78495558597396" lon="9.628955501340709"><ele>481.0</ele><time>2026-05-02T16:24:11Z</time></trkpt><trkpt lat="44.784957338537495" lon="9.629063390624022"><ele>483.8</ele><time>2026-05-02T16:24:14Z</time></trkpt><trkpt lat="44.78500609663279" lon="9.629194854696273"><ele>486.6</ele><time>2026-05-02T16:24:16Z</time></trkpt><trkpt lat="44.78505794073242" lon="9.629333046622012"><ele>489.4</ele><time>2026-05-02T16:24:18Z</time></trkpt><trkpt lat="44.785105840861775" lon="9.629482029597726"><ele>492.2</ele><time>2026-05-02T16:24:20Z</time></trkpt><trkpt lat="44.78511727894921" lon="9.629571330116752"><ele>495.0</ele><time>2026-05-02T16:24:21Z</time></trkpt><trkpt lat="44.785112238737184" lon="9.629741549770085"><ele>495.2</ele><time>2026-05-02T16:24:23Z</time></trkpt><trkpt lat="44.78511989014202" lon="9.629832334523426"><ele>495.4</ele><time>2026-05-02T16:24:24Z</time></trkpt><trkpt lat="44.78520609082413" lon="9.629972791220013"><ele>495.6</ele><time>2026-05-02T16:24:26Z</time></trkpt><trkpt lat="44.7852964300281" lon="9.63006777091273"><ele>495.8</ele><time>2026-05-02T16:24:28Z</time></trkpt><trkpt lat="44.785336465357986" lon="9.630210522699592"><ele>496.0</ele><time>2026-05-02T16:24:30Z</time></trkpt><trkpt lat="44.78535835304143" lon="9.630301120852407"><ele>497.6666666666667</ele><time>2026-05-02T16:24:31Z</time></trkpt><trkpt lat="44.785374296830604" lon="9.63039883535912"><ele>499.33333333333337</ele><time>2026-05-02T16:24:32Z</time></trkpt><trkpt lat="44.78539079273571" lon="9.63050347416745"><ele>501.0</ele><time>2026-05-02T16:24:33Z</time></trkpt><trkpt lat="44.785413686966926" lon="9.630625951184042"><ele>502.66666666666663</ele><time>2026-05-02T16:24:34Z</time></trkpt><trkpt lat="44.785455913953136" lon="9.63073180259075"><ele>504.3333333333333</ele><time>2026-05-02T16:24:34.999Z</time></trkpt><trkpt lat="44.78550166781692" lon="9.630810587665131"><ele>506.0</ele><time>2026-05-02T16:24:35.999Z</time></trkpt><trkpt lat="44.78554736328343" lon="9.630876753561603"><ele>506.0</ele><time>2026-05-02T16:24:36.999Z</time></trkpt><trkpt lat="44.78561658828129" lon="9.630976662423228"><ele>506.0</ele><time>2026-05-02T16:24:38.999Z</time></trkpt><trkpt lat="44.78568127266223" lon="9.631115263852914"><ele>506.0</ele><time>2026-05-02T16:24:40.999Z</time></trkpt><trkpt lat="44.78577120056737" lon="9.631257858555006"><ele>506.0</ele><time>2026-05-02T16:24:42.999Z</time></trkpt><trkpt lat="44.7858294197369" lon="9.631350670208151"><ele>506.0</ele><time>2026-05-02T16:24:44.999Z</time></trkpt><trkpt lat="44.785806532643264" lon="9.631461230368489"><ele>507.6</ele><time>2026-05-02T16:24:48.999Z</time></trkpt><trkpt lat="44.785773920088744" lon="9.63156552214279"><ele>509.20000000000005</ele><time>2026-05-02T16:24:52.999Z</time></trkpt><trkpt lat="44.785739681225394" lon="9.631644473532571"><ele>510.79999999999995</ele><time>2026-05-02T16:24:54.999Z</time></trkpt><trkpt lat="44.785684336435814" lon="9.631737294263864"><ele>512.4</ele><time>2026-05-02T16:24:57.999Z</time></trkpt><trkpt lat="44.78551313819024" lon="9.631904406482892"><ele>514.0</ele><time>2026-05-02T16:24:59.999Z</time></trkpt><trkpt lat="44.78541007211507" lon="9.631947425765981"><ele>515.4</ele><time>2026-05-02T16:25:01.999Z</time></trkpt><trkpt lat="44.785314623585485" lon="9.632060206019768"><ele>516.8</ele><time>2026-05-02T16:26:50.999Z</time></trkpt><trkpt lat="44.785226905340814" lon="9.632102880782872"><ele>518.2</ele><time>2026-05-02T16:26:52.999Z</time></trkpt><trkpt lat="44.785162913028046" lon="9.632100864988555"><ele>519.6</ele><time>2026-05-02T16:26:53.999Z</time></trkpt><trkpt lat="44.78506354974389" lon="9.632136522870981"><ele>521.0</ele><time>2026-05-02T16:26:55.999Z</time></trkpt><trkpt lat="44.78499198288458" lon="9.632119009423615"><ele>523.6666666666666</ele><time>2026-05-02T16:26:56.999Z</time></trkpt><trkpt lat="44.78494031835238" lon="9.632172036828408"><ele>526.3333333333333</ele><time>2026-05-02T16:26:58.999Z</time></trkpt><trkpt lat="44.7848370668782" lon="9.632329731938464"><ele>529.0</ele><time>2026-05-02T16:27:00.999Z</time></trkpt><trkpt lat="44.78480008872672" lon="9.632404662425925"><ele>531.6666666666666</ele><time>2026-05-02T16:27:01.999Z</time></trkpt><trkpt lat="44.784795153647316" lon="9.632499687341383"><ele>534.3333333333334</ele><time>2026-05-02T16:27:03.999Z</time></trkpt><trkpt lat="44.78481630132559" lon="9.632583538823107"><ele>537.0</ele><time>2026-05-02T16:27:04.999Z</time></trkpt><trkpt lat="44.78480193335182" lon="9.632754603258507"><ele>538.6</ele><time>2026-05-02T16:27:06.999Z</time></trkpt><trkpt lat="44.78477018412769" lon="9.6329275169113"><ele>540.2</ele><time>2026-05-02T16:27:08.999Z</time></trkpt><trkpt lat="44.784739201273794" lon="9.633056929915325"><ele>541.8</ele><time>2026-05-02T16:27:09.999Z</time></trkpt><trkpt lat="44.78472825219945" lon="9.633147685857404"><ele>543.4</ele><time>2026-05-02T16:27:10.999Z</time></trkpt><trkpt lat="44.78479581962872" lon="9.633323574826582"><ele>545.0</ele><time>2026-05-02T16:27:12.999Z</time></trkpt><trkpt lat="44.78484947128127" lon="9.63338845742613"><ele>545.0</ele><time>2026-05-02T16:27:14.999Z</time></trkpt><trkpt lat="44.78478038772641" lon="9.633435563880989"><ele>545.0</ele><time>2026-05-02T16:27:39.998Z</time></trkpt><trkpt lat="44.78472169483371" lon="9.63349659566449"><ele>545.0</ele><time>2026-05-02T16:27:42.998Z</time></trkpt><trkpt lat="44.78469198373998" lon="9.63358245362749"><ele>545.0</ele><time>2026-05-02T16:27:44.998Z</time></trkpt><trkpt lat="44.78467978717217" lon="9.63370530035174"><ele>545.0</ele><time>2026-05-02T16:27:47.998Z</time></trkpt><trkpt lat="44.78460767867493" lon="9.633847702538718"><ele>545.0</ele><time>2026-05-02T16:27:49.998Z</time></trkpt><trkpt lat="44.784604220754005" lon="9.633974352565183"><ele>546.3333333333333</ele><time>2026-05-02T16:27:52.998Z</time></trkpt><trkpt lat="44.784536540174614" lon="9.634086992524743"><ele>547.6666666666666</ele><time>2026-05-02T16:27:54.998Z</time></trkpt><trkpt lat="44.78451938750439" lon="9.634173630784794"><ele>549.0</ele><time>2026-05-02T16:27:56.998Z</time></trkpt><trkpt lat="44.78448172071483" lon="9.634318809367086"><ele>550.3333333333334</ele><time>2026-05-02T16:27:59.998Z</time></trkpt><trkpt lat="44.78444074138644" lon="9.634394918017962"><ele>551.6666666666667</ele><time>2026-05-02T16:28:02.998Z</time></trkpt><trkpt lat="44.784425055388084" lon="9.634535019739195"><ele>553.0</ele><time>2026-05-02T16:30:25Z</time></trkpt><trkpt lat="44.78445553655836" lon="9.634614321207414"><ele>555.8333333333334</ele><time>2026-05-02T16:32:37Z</time></trkpt><trkpt lat="44.7844888390241" lon="9.634724894681206"><ele>558.6666666666667</ele><time>2026-05-02T16:32:38Z</time></trkpt><trkpt lat="44.78448444574547" lon="9.63484188120367"><ele>561.5</ele><time>2026-05-02T16:32:40Z</time></trkpt><trkpt lat="44.784533389715726" lon="9.634929800664173"><ele>564.3333333333334</ele><time>2026-05-02T16:32:42Z</time></trkpt><trkpt lat="44.78457082995549" lon="9.635035197175572"><ele>567.1666666666666</ele><time>2026-05-02T16:32:43Z</time></trkpt><trkpt lat="44.78462116193" lon="9.635147123883497"><ele>570.0</ele><time>2026-05-02T16:32:45Z</time></trkpt><trkpt lat="44.784657022952736" lon="9.635260336131315"><ele>572.6666666666666</ele><time>2026-05-02T16:32:47Z</time></trkpt><trkpt lat="44.78467191249533" lon="9.635386628010517"><ele>575.3333333333334</ele><time>2026-05-02T16:32:49Z</time></trkpt><trkpt lat="44.784687073147126" lon="9.635493890904144"><ele>578.0</ele><time>2026-05-02T16:32:51Z</time></trkpt><trkpt lat="44.784706787147385" lon="9.635597187707033"><ele>580.6666666666667</ele><time>2026-05-02T16:32:55Z</time></trkpt><trkpt lat="44.784669213021964" lon="9.63573140057691"><ele>583.3333333333334</ele><time>2026-05-02T16:32:57Z</time></trkpt><trkpt lat="44.784657294563324" lon="9.635828568069288"><ele>586.0</ele><time>2026-05-02T16:32:59Z</time></trkpt><trkpt lat="44.784633961591915" lon="9.635914179065914"><ele>586.0</ele><time>2026-05-02T16:32:59.999Z</time></trkpt><trkpt lat="44.784618748856715" lon="9.636105530717932"><ele>586.0</ele><time>2026-05-02T16:33:01.999Z</time></trkpt><trkpt lat="44.784604010959626" lon="9.636202926187813"><ele>586.0</ele><time>2026-05-02T16:33:02.999Z</time></trkpt><trkpt lat="44.784597837575504" lon="9.636297170819459"><ele>586.0</ele><time>2026-05-02T16:33:03.999Z</time></trkpt><trkpt lat="44.784595636124685" lon="9.636416237400127"><ele>586.0</ele><time>2026-05-02T16:33:04.999Z</time></trkpt><trkpt lat="44.784567062382635" lon="9.63659376315568"><ele>588.1666666666667</ele><time>2026-05-02T16:33:06.999Z</time></trkpt><trkpt lat="44.784530040342084" lon="9.636680115518796"><ele>590.3333333333334</ele><time>2026-05-02T16:33:07.999Z</time></trkpt><trkpt lat="44.78452522065893" lon="9.63688039874287"><ele>592.5</ele><time>2026-05-02T16:33:09.999Z</time></trkpt><trkpt lat="44.78452807515766" lon="9.636982379240038"><ele>594.6666666666666</ele><time>2026-05-02T16:33:10.999Z</time></trkpt><trkpt lat="44.78452957482717" lon="9.637098039742284"><ele>596.8333333333333</ele><time>2026-05-02T16:33:12.999Z</time></trkpt><trkpt lat="44.78453357021713" lon="9.637199166843285"><ele>599.0</ele><time>2026-05-02T16:33:16.999Z</time></trkpt><trkpt lat="44.78451725322474" lon="9.637307262143"><ele>600.0</ele><time>2026-05-02T16:33:24.999Z</time></trkpt><trkpt lat="44.78451091304656" lon="9.637426480801718"><ele>601.0</ele><time>2026-05-02T16:33:26.999Z</time></trkpt><trkpt lat="44.78446710403137" lon="9.637563772246258"><ele>602.0</ele><time>2026-05-02T16:33:28.999Z</time></trkpt><trkpt lat="44.78440689327761" lon="9.637694500213142"><ele>603.0</ele><time>2026-05-02T16:33:30.999Z</time></trkpt><trkpt lat="44.784378268417704" lon="9.6377853450875"><ele>604.0</ele><time>2026-05-02T16:33:31.999Z</time></trkpt><trkpt lat="44.78434015205879" lon="9.63792067483687"><ele>607.1666666666667</ele><time>2026-05-02T16:33:33.999Z</time></trkpt><trkpt lat="44.78429845360825" lon="9.637999773101223"><ele>610.3333333333334</ele><time>2026-05-02T16:33:34.999Z</time></trkpt><trkpt lat="44.784273274279755" lon="9.638083335015802"><ele>613.5</ele><time>2026-05-02T16:33:35.999Z</time></trkpt><trkpt lat="44.78422725782639" lon="9.638182850178525"><ele>616.6666666666666</ele><time>2026-05-02T16:33:36.999Z</time></trkpt><trkpt lat="44.784176999475235" lon="9.638351049295714"><ele>619.8333333333333</ele><time>2026-05-02T16:33:38.999Z</time></trkpt><trkpt lat="44.7841472781631" lon="9.638439944695808"><ele>623.0</ele><time>2026-05-02T16:33:39.999Z</time></trkpt><trkpt lat="44.78413903079288" lon="9.638547172344888"><ele>624.0</ele><time>2026-05-02T16:33:40.999Z</time></trkpt><trkpt lat="44.784142141825235" lon="9.638642455529657"><ele>625.0</ele><time>2026-05-02T16:33:41.999Z</time></trkpt><trkpt lat="44.7841499628202" lon="9.638764189058053"><ele>626.0</ele><time>2026-05-02T16:33:42.999Z</time></trkpt><trkpt lat="44.78415401025893" lon="9.638887270014909"><ele>627.0</ele><time>2026-05-02T16:33:44.999Z</time></trkpt><trkpt lat="44.78421035886597" lon="9.638959223260429"><ele>628.0</ele><time>2026-05-02T16:33:46.999Z</time></trkpt><trkpt lat="44.78424259279839" lon="9.639069086218784"><ele>629.0</ele><time>2026-05-02T16:33:47.999Z</time></trkpt><trkpt lat="44.784220042841135" lon="9.639224360079371"><ele>629.0</ele><time>2026-05-02T16:33:49.998Z</time></trkpt><trkpt lat="44.784111185155204" lon="9.639335066341824"><ele>629.0</ele><time>2026-05-02T16:33:51.998Z</time></trkpt><trkpt lat="44.784038314963766" lon="9.63936137054005"><ele>629.0</ele><time>2026-05-02T16:33:52.998Z</time></trkpt><trkpt lat="44.783949425154816" lon="9.63935014681144"><ele>629.0</ele><time>2026-05-02T16:33:53.998Z</time></trkpt><trkpt lat="44.7838678921786" lon="9.639343567072999"><ele>629.0</ele><time>2026-05-02T16:33:54.998Z</time></trkpt><trkpt lat="44.78380550657532" lon="9.639307384273328"><ele>629.0</ele><time>2026-05-02T16:33:55.998Z</time></trkpt><trkpt lat="44.783697489779456" lon="9.639190634864715"><ele>629.0</ele><time>2026-05-02T16:33:57.998Z</time></trkpt><trkpt lat="44.7836245306624" lon="9.639122175710584"><ele>629.0</ele><time>2026-05-02T16:33:58.998Z</time></trkpt><trkpt lat="44.78352559930816" lon="9.63906168712306"><ele>629.0</ele><time>2026-05-02T16:34:00.998Z</time></trkpt><trkpt lat="44.78343296672794" lon="9.6389975891918"><ele>629.0</ele><time>2026-05-02T16:34:02.998Z</time></trkpt><trkpt lat="44.783367744193264" lon="9.638963743457932"><ele>629.0</ele><time>2026-05-02T16:34:05.998Z</time></trkpt><trkpt lat="44.78332669690737" lon="9.63903874325409"><ele>629.0</ele><time>2026-05-02T16:34:08.998Z</time></trkpt><trkpt lat="44.78326084448671" lon="9.639097842235744"><ele>630.8333333333333</ele><time>2026-05-02T16:35:00Z</time></trkpt><trkpt lat="44.78322232239659" lon="9.639181805603478"><ele>632.6666666666666</ele><time>2026-05-02T16:35:02Z</time></trkpt><trkpt lat="44.783165991304294" lon="9.639335576586957"><ele>634.5</ele><time>2026-05-02T16:35:03.999Z</time></trkpt><trkpt lat="44.78312630888907" lon="9.639420982639068"><ele>636.3333333333334</ele><time>2026-05-02T16:35:04.999Z</time></trkpt><trkpt lat="44.78308053053984" lon="9.639506408665852"><ele>638.1666666666667</ele><time>2026-05-02T16:35:05.999Z</time></trkpt><trkpt lat="44.783041194521765" lon="9.63958370564355"><ele>640.0</ele><time>2026-05-02T16:35:06.999Z</time></trkpt><trkpt lat="44.78300530732008" lon="9.63967286380658"><ele>642.0</ele><time>2026-05-02T16:35:07.999Z</time></trkpt><trkpt lat="44.78295426898315" lon="9.639767995044737"><ele>644.0</ele><time>2026-05-02T16:35:08.999Z</time></trkpt><trkpt lat="44.782902752717135" lon="9.639862239689062"><ele>646.0</ele><time>2026-05-02T16:35:09.999Z</time></trkpt><trkpt lat="44.782844737203455" lon="9.639943801566018"><ele>648.0</ele><time>2026-05-02T16:35:10.999Z</time></trkpt><trkpt lat="44.78278971389099" lon="9.640079420360609"><ele>650.0</ele><time>2026-05-02T16:35:12.999Z</time></trkpt><trkpt lat="44.782745858584526" lon="9.640237374283553"><ele>651.5</ele><time>2026-05-02T16:35:14.999Z</time></trkpt><trkpt lat="44.78270631591474" lon="9.640341539823911"><ele>653.0</ele><time>2026-05-02T16:35:15.999Z</time></trkpt><trkpt lat="44.7826526890129" lon="9.640400268817118"><ele>654.5</ele><time>2026-05-02T16:35:16.999Z</time></trkpt><trkpt lat="44.782597315411415" lon="9.640478605255183"><ele>656.0</ele><time>2026-05-02T16:35:18.999Z</time></trkpt><trkpt lat="44.78256417771257" lon="9.640554858401051"><ele>657.5</ele><time>2026-05-02T16:35:19.999Z</time></trkpt><trkpt lat="44.78257329938873" lon="9.640738878136665"><ele>659.0</ele><time>2026-05-02T16:35:21.999Z</time></trkpt><trkpt lat="44.782613190545476" lon="9.640836264482218"><ele>659.0</ele><time>2026-05-02T16:35:22.999Z</time></trkpt><trkpt lat="44.78267227640671" lon="9.640958699457382"><ele>659.0</ele><time>2026-05-02T16:35:23.999Z</time></trkpt><trkpt lat="44.7827393550384" lon="9.641109491587972"><ele>659.0</ele><time>2026-05-02T16:35:24.999Z</time></trkpt><trkpt lat="44.782794529575014" lon="9.641238600436266"><ele>659.0</ele><time>2026-05-02T16:35:25.999Z</time></trkpt><trkpt lat="44.78284775862089" lon="9.641361289487552"><ele>659.0</ele><time>2026-05-02T16:35:26.999Z</time></trkpt><trkpt lat="44.78290623941" lon="9.6414938289157"><ele>661.0</ele><time>2026-05-02T16:35:27.999Z</time></trkpt><trkpt lat="44.78296281528602" lon="9.641633107645351"><ele>663.0</ele><time>2026-05-02T16:35:28.999Z</time></trkpt><trkpt lat="44.78301511788207" lon="9.641748334464154"><ele>665.0</ele><time>2026-05-02T16:35:29.999Z</time></trkpt><trkpt lat="44.78306928453551" lon="9.641867483274817"><ele>667.0</ele><time>2026-05-02T16:35:30.999Z</time></trkpt><trkpt lat="44.78312439670146" lon="9.641986200995163"><ele>669.0</ele><time>2026-05-02T16:35:31.999Z</time></trkpt><trkpt lat="44.783170527817" lon="9.642099462683483"><ele>670.1666666666666</ele><time>2026-05-02T16:35:32.999Z</time></trkpt><trkpt lat="44.78321517725525" lon="9.642191760792057"><ele>671.3333333333334</ele><time>2026-05-02T16:35:33.999Z</time></trkpt><trkpt lat="44.783252308471766" lon="9.64226790748919"><ele>672.5</ele><time>2026-05-02T16:35:34.999Z</time></trkpt><trkpt lat="44.783284884205486" lon="9.642346316058163"><ele>673.6666666666667</ele><time>2026-05-02T16:35:35.999Z</time></trkpt><trkpt lat="44.78334380279758" lon="9.642495832638494"><ele>674.8333333333334</ele><time>2026-05-02T16:35:37.999Z</time></trkpt><trkpt lat="44.78339670202675" lon="9.642613548928436"><ele>676.0</ele><time>2026-05-02T16:35:39.999Z</time></trkpt><trkpt lat="44.783441079082294" lon="9.64270075636574"><ele>676.0</ele><time>2026-05-02T16:35:40.999Z</time></trkpt><trkpt lat="44.78349003037968" lon="9.642789069201159"><ele>676.0</ele><time>2026-05-02T16:35:41.999Z</time></trkpt><trkpt lat="44.783540971353546" lon="9.642883663917415"><ele>676.0</ele><time>2026-05-02T16:35:42.999Z</time></trkpt><trkpt lat="44.78359258750719" lon="9.642987343045311"><ele>676.0</ele><time>2026-05-02T16:35:43.999Z</time></trkpt><trkpt lat="44.78364883647499" lon="9.643095450899304"><ele>676.0</ele><time>2026-05-02T16:35:44.999Z</time></trkpt><trkpt lat="44.78371347220469" lon="9.643219263012837"><ele>676.5999999999999</ele><time>2026-05-02T16:35:45.999Z</time></trkpt><trkpt lat="44.78376920617393" lon="9.643326047670906"><ele>677.2</ele><time>2026-05-02T16:35:46.999Z</time></trkpt><trkpt lat="44.78382058435002" lon="9.643427330221543"><ele>677.8</ele><time>2026-05-02T16:35:47.999Z</time></trkpt><trkpt lat="44.78386897623601" lon="9.643488531286922"><ele>678.4000000000001</ele><time>2026-05-02T16:35:48.999Z</time></trkpt><trkpt lat="44.78396259555353" lon="9.643612384680463"><ele>679.0</ele><time>2026-05-02T16:35:50.999Z</time></trkpt><trkpt lat="44.78404673400054" lon="9.643725301889113"><ele>679.75</ele><time>2026-05-02T16:35:51.999Z</time></trkpt><trkpt lat="44.7841389744508" lon="9.643847525254124"><ele>680.5</ele><time>2026-05-02T16:35:52.998Z</time></trkpt><trkpt lat="44.78423070049316" lon="9.643962679188318"><ele>681.25</ele><time>2026-05-02T16:35:53.998Z</time></trkpt><trkpt lat="44.78431578494112" lon="9.644060804557283"><ele>682.0</ele><time>2026-05-02T16:35:54.998Z</time></trkpt><trkpt lat="44.78440696093522" lon="9.644142143843478"><ele>682.0</ele><time>2026-05-02T16:35:55.998Z</time></trkpt><trkpt lat="44.78449564084042" lon="9.644220188222432"><ele>682.0</ele><time>2026-05-02T16:35:56.998Z</time></trkpt><trkpt lat="44.78456910499524" lon="9.644277453451148"><ele>682.0</ele><time>2026-05-02T16:35:57.998Z</time></trkpt><trkpt lat="44.78463157352351" lon="9.6443651027159"><ele>682.0</ele><time>2026-05-02T16:35:58.998Z</time></trkpt><trkpt lat="44.78468741937581" lon="9.644454399557024"><ele>682.0</ele><time>2026-05-02T16:35:59.998Z</time></trkpt><trkpt lat="44.784758410094405" lon="9.64455820313816"><ele>683.0</ele><time>2026-05-02T16:36:00.998Z</time></trkpt><trkpt lat="44.784837212880575" lon="9.644677021811836"><ele>684.0</ele><time>2026-05-02T16:36:01.998Z</time></trkpt><trkpt lat="44.78492516903717" lon="9.644793847434316"><ele>685.0</ele><time>2026-05-02T16:36:02.998Z</time></trkpt><trkpt lat="44.78499125518878" lon="9.644916288093903"><ele>686.0</ele><time>2026-05-02T16:36:03.998Z</time></trkpt><trkpt lat="44.78504101701287" lon="9.645023376025836"><ele>687.0</ele><time>2026-05-02T16:36:04.998Z</time></trkpt><trkpt lat="44.78507071396118" lon="9.645118455654256"><ele>687.0</ele><time>2026-05-02T16:36:05.998Z</time></trkpt><trkpt lat="44.78508475264068" lon="9.645222285416619"><ele>687.0</ele><time>2026-05-02T16:36:06.998Z</time></trkpt><trkpt lat="44.78509673238668" lon="9.645321109826668"><ele>687.0</ele><time>2026-05-02T16:36:07.998Z</time></trkpt><trkpt lat="44.78510678186647" lon="9.64542130433223"><ele>687.0</ele><time>2026-05-02T16:36:08.998Z</time></trkpt><trkpt lat="44.78511635097065" lon="9.6455996772312"><ele>687.0</ele><time>2026-05-02T16:36:10.998Z</time></trkpt><trkpt lat="44.785140597085075" lon="9.645719171984503"><ele>687.0</ele><time>2026-05-02T16:36:11.998Z</time></trkpt><trkpt lat="44.78517985632763" lon="9.645851876984576"><ele>685.5</ele><time>2026-05-02T16:36:12.998Z</time></trkpt><trkpt lat="44.785235189633404" lon="9.645993291400131"><ele>684.0</ele><time>2026-05-02T16:36:13.998Z</time></trkpt><trkpt lat="44.78531603683915" lon="9.646113919338596"><ele>682.5</ele><time>2026-05-02T16:36:14.998Z</time></trkpt><trkpt lat="44.785411239289346" lon="9.646207763445023"><ele>681.0</ele><time>2026-05-02T16:36:15.998Z</time></trkpt><trkpt lat="44.78550939330141" lon="9.646276894006668"><ele>681.0</ele><time>2026-05-02T16:36:16.998Z</time></trkpt><trkpt lat="44.78560787955989" lon="9.646336974559613"><ele>681.0</ele><time>2026-05-02T16:36:17.998Z</time></trkpt><trkpt lat="44.785704965065676" lon="9.646387860894059"><ele>681.0</ele><time>2026-05-02T16:36:18.998Z</time></trkpt><trkpt lat="44.785799127350586" lon="9.64643553114661"><ele>681.0</ele><time>2026-05-02T16:36:19.998Z</time></trkpt><trkpt lat="44.7858886371867" lon="9.646471024122736"><ele>681.0</ele><time>2026-05-02T16:36:20.998Z</time></trkpt><trkpt lat="44.785977918367124" lon="9.646500824668239"><ele>681.8333333333334</ele><time>2026-05-02T16:36:21.998Z</time></trkpt><trkpt lat="44.78606265793876" lon="9.64653119496039"><ele>682.6666666666666</ele><time>2026-05-02T16:36:22.998Z</time></trkpt><trkpt lat="44.78614665104982" lon="9.64656004955049"><ele>683.5</ele><time>2026-05-02T16:36:23.998Z</time></trkpt><trkpt lat="44.78622578895369" lon="9.64658983952767"><ele>684.3333333333333</ele><time>2026-05-02T16:36:24.998Z</time></trkpt><trkpt lat="44.78629995228384" lon="9.646615255862942"><ele>685.1666666666666</ele><time>2026-05-02T16:36:25.998Z</time></trkpt><trkpt lat="44.78637054585984" lon="9.646638259073987"><ele>686.0</ele><time>2026-05-02T16:36:26.998Z</time></trkpt><trkpt lat="44.786445875506494" lon="9.64666723424518"><ele>686.0</ele><time>2026-05-02T16:36:28.998Z</time></trkpt><trkpt lat="44.786527918464486" lon="9.646699519432556"><ele>686.0</ele><time>2026-05-02T16:36:31.998Z</time></trkpt><trkpt lat="44.78660790373571" lon="9.646805878136501"><ele>686.0</ele><time>2026-05-02T16:36:54Z</time></trkpt><trkpt lat="44.786736047042325" lon="9.646885959511433"><ele>686.0</ele><time>2026-05-02T16:36:56Z</time></trkpt><trkpt lat="44.78682319900153" lon="9.646890979606923"><ele>686.0</ele><time>2026-05-02T16:36:57Z</time></trkpt><trkpt lat="44.7869245414517" lon="9.646889500441292"><ele>686.25</ele><time>2026-05-02T16:36:58Z</time></trkpt><trkpt lat="44.78703042759129" lon="9.646887800504446"><ele>686.5</ele><time>2026-05-02T16:36:59Z</time></trkpt><trkpt lat="44.78715008362641" lon="9.646896002676732"><ele>686.75</ele><time>2026-05-02T16:37:00Z</time></trkpt><trkpt lat="44.78726239873121" lon="9.646914744939037"><ele>687.0</ele><time>2026-05-02T16:37:01Z</time></trkpt><trkpt lat="44.78737191293809" lon="9.646960012191137"><ele>687.0</ele><time>2026-05-02T16:37:02Z</time></trkpt><trkpt lat="44.787466570284614" lon="9.64701880711945"><ele>687.0</ele><time>2026-05-02T16:37:03Z</time></trkpt><trkpt lat="44.78756012362068" lon="9.647081457609888"><ele>687.0</ele><time>2026-05-02T16:37:04Z</time></trkpt><trkpt lat="44.78766270670981" lon="9.6471452051869"><ele>687.0</ele><time>2026-05-02T16:37:05Z</time></trkpt><trkpt lat="44.78776845009811" lon="9.647211192078508"><ele>687.0</ele><time>2026-05-02T16:37:06Z</time></trkpt><trkpt lat="44.78787600293858" lon="9.647288254382206"><ele>689.0</ele><time>2026-05-02T16:37:07Z</time></trkpt><trkpt lat="44.7879830718629" lon="9.647364124893382"><ele>691.0</ele><time>2026-05-02T16:37:08Z</time></trkpt><trkpt lat="44.78808966450792" lon="9.647437179855597"><ele>693.0</ele><time>2026-05-02T16:37:09Z</time></trkpt><trkpt lat="44.78818983794994" lon="9.647500598101479"><ele>695.0</ele><time>2026-05-02T16:37:09.999Z</time></trkpt><trkpt lat="44.78828726639181" lon="9.647548295415733"><ele>695.0</ele><time>2026-05-02T16:37:10.999Z</time></trkpt><trkpt lat="44.788391643480615" lon="9.647595222855532"><ele>695.0</ele><time>2026-05-02T16:37:11.999Z</time></trkpt><trkpt lat="44.78849644246721" lon="9.647653796163945"><ele>695.0</ele><time>2026-05-02T16:37:12.999Z</time></trkpt><trkpt lat="44.78859164102573" lon="9.647733566938216"><ele>695.0</ele><time>2026-05-02T16:37:13.999Z</time></trkpt><trkpt lat="44.78867373168388" lon="9.647826357355491"><ele>695.0</ele><time>2026-05-02T16:37:14.999Z</time></trkpt><trkpt lat="44.78874879867852" lon="9.647949068530368"><ele>700.25</ele><time>2026-05-02T16:37:15.999Z</time></trkpt><trkpt lat="44.78881943424508" lon="9.648085954099013"><ele>705.5</ele><time>2026-05-02T16:37:16.999Z</time></trkpt><trkpt lat="44.788894168612174" lon="9.648221595604486"><ele>710.75</ele><time>2026-05-02T16:37:17.999Z</time></trkpt><trkpt lat="44.788973921790216" lon="9.648350659033662"><ele>716.0</ele><time>2026-05-02T16:37:18.999Z</time></trkpt><trkpt lat="44.789052572476855" lon="9.648472472812376"><ele>716.0</ele><time>2026-05-02T16:37:19.999Z</time></trkpt><trkpt lat="44.78912831216656" lon="9.648591694552419"><ele>716.0</ele><time>2026-05-02T16:37:20.999Z</time></trkpt><trkpt lat="44.78919789463654" lon="9.648717485013332"><ele>716.0</ele><time>2026-05-02T16:37:21.999Z</time></trkpt><trkpt lat="44.78926129966062" lon="9.648859465336203"><ele>716.0</ele><time>2026-05-02T16:37:22.999Z</time></trkpt><trkpt lat="44.78931723464828" lon="9.649002190577109"><ele>718.4</ele><time>2026-05-02T16:37:23.999Z</time></trkpt><trkpt lat="44.789361611626326" lon="9.649125693254938"><ele>720.8</ele><time>2026-05-02T16:37:24.999Z</time></trkpt><trkpt lat="44.789411492132906" lon="9.649216636833975"><ele>723.1999999999999</ele><time>2026-05-02T16:37:25.999Z</time></trkpt><trkpt lat="44.78947605390799" lon="9.649280455584169"><ele>725.5999999999999</ele><time>2026-05-02T16:37:26.999Z</time></trkpt><trkpt lat="44.78956131250102" lon="9.649327978528277"><ele>728.0</ele><time>2026-05-02T16:37:27.999Z</time></trkpt><trkpt lat="44.78966596898001" lon="9.649358228373599"><ele>728.0</ele><time>2026-05-02T16:37:28.999Z</time></trkpt><trkpt lat="44.789786519576154" lon="9.649407664445993"><ele>728.0</ele><time>2026-05-02T16:37:29.999Z</time></trkpt><trkpt lat="44.78988901805011" lon="9.649454894987601"><ele>728.0</ele><time>2026-05-02T16:37:30.999Z</time></trkpt><trkpt lat="44.78997051856767" lon="9.649489441107095"><ele>728.0</ele><time>2026-05-02T16:37:31.999Z</time></trkpt><trkpt lat="44.7900426407629" lon="9.649502274194013"><ele>728.0</ele><time>2026-05-02T16:37:32.999Z</time></trkpt><trkpt lat="44.79014123924235" lon="9.649499736975326"><ele>725.5</ele><time>2026-05-02T16:37:33.999Z</time></trkpt><trkpt lat="44.790254914438755" lon="9.649476561871284"><ele>723.0</ele><time>2026-05-02T16:37:34.999Z</time></trkpt><trkpt lat="44.790385647486666" lon="9.649458992316399"><ele>720.5</ele><time>2026-05-02T16:37:35.999Z</time></trkpt><trkpt lat="44.79050987172902" lon="9.649441420205767"><ele>718.0</ele><time>2026-05-02T16:37:36.999Z</time></trkpt><trkpt lat="44.79060820567391" lon="9.649431083680215"><ele>721.0</ele><time>2026-05-02T16:37:37.999Z</time></trkpt><trkpt lat="44.79070854463918" lon="9.649420512971913"><ele>724.0</ele><time>2026-05-02T16:37:38.999Z</time></trkpt><trkpt lat="44.79081265145037" lon="9.649404441345618"><ele>727.0</ele><time>2026-05-02T16:37:39.999Z</time></trkpt><trkpt lat="44.79091686595842" lon="9.649404658025386"><ele>730.0</ele><time>2026-05-02T16:37:40.999Z</time></trkpt><trkpt lat="44.79101521065744" lon="9.64942584754278"><ele>733.0</ele><time>2026-05-02T16:37:41.999Z</time></trkpt><trkpt lat="44.791089005466155" lon="9.649467851263479"><ele>733.0</ele><time>2026-05-02T16:37:42.999Z</time></trkpt><trkpt lat="44.79115695807566" lon="9.649540016943078"><ele>733.0</ele><time>2026-05-02T16:37:43.999Z</time></trkpt><trkpt lat="44.791210538210066" lon="9.649648021958042"><ele>733.0</ele><time>2026-05-02T16:37:44.999Z</time></trkpt><trkpt lat="44.79125031392573" lon="9.649775834129118"><ele>733.0</ele><time>2026-05-02T16:37:45.999Z</time></trkpt><trkpt lat="44.79129673897693" lon="9.649910920248216"><ele>733.0</ele><time>2026-05-02T16:37:46.999Z</time></trkpt><trkpt lat="44.791353247270806" lon="9.650031819319164"><ele>733.0</ele><time>2026-05-02T16:37:47.999Z</time></trkpt><trkpt lat="44.79142511995381" lon="9.650120162807134"><ele>733.0</ele><time>2026-05-02T16:37:48.999Z</time></trkpt><trkpt lat="44.791523857935275" lon="9.65022298768714"><ele>733.0</ele><time>2026-05-02T16:37:49.999Z</time></trkpt><trkpt lat="44.7916272125571" lon="9.65032690915379"><ele>733.0</ele><time>2026-05-02T16:37:50.999Z</time></trkpt><trkpt lat="44.79172015623207" lon="9.650442095718766"><ele>731.5999999999999</ele><time>2026-05-02T16:37:51.999Z</time></trkpt><trkpt lat="44.79179473665523" lon="9.650526346270572"><ele>730.1999999999999</ele><time>2026-05-02T16:37:52.999Z</time></trkpt><trkpt lat="44.79188293862535" lon="9.650591475119095"><ele>728.8</ele><time>2026-05-02T16:37:53.999Z</time></trkpt><trkpt lat="44.79198677278027" lon="9.650638861473215"><ele>727.4</ele><time>2026-05-02T16:37:54.999Z</time></trkpt><trkpt lat="44.79209616821901" lon="9.650696088512625"><ele>726.0</ele><time>2026-05-02T16:37:55.999Z</time></trkpt><trkpt lat="44.79221056471878" lon="9.650772046949342"><ele>726.0</ele><time>2026-05-02T16:37:56.999Z</time></trkpt><trkpt lat="44.79232337159357" lon="9.650858951374794"><ele>726.0</ele><time>2026-05-02T16:37:57.999Z</time></trkpt><trkpt lat="44.792433173166906" lon="9.650933861377444"><ele>726.0</ele><time>2026-05-02T16:37:58.998Z</time></trkpt><trkpt lat="44.79253611628394" lon="9.651021466811908"><ele>726.0</ele><time>2026-05-02T16:37:59.998Z</time></trkpt><trkpt lat="44.79262915235545" lon="9.651105430021866"><ele>724.25</ele><time>2026-05-02T16:38:00.998Z</time></trkpt><trkpt lat="44.79272012748105" lon="9.651203242922895"><ele>722.5</ele><time>2026-05-02T16:38:01.998Z</time></trkpt><trkpt lat="44.79281061418196" lon="9.651306140890513"><ele>720.75</ele><time>2026-05-02T16:38:02.998Z</time></trkpt><trkpt lat="44.79290208676661" lon="9.651405373911324"><ele>719.0</ele><time>2026-05-02T16:38:03.998Z</time></trkpt><trkpt lat="44.79301085395921" lon="9.651480112429237"><ele>719.0</ele><time>2026-05-02T16:38:04.998Z</time></trkpt><trkpt lat="44.79313263296567" lon="9.65154206510157"><ele>719.0</ele><time>2026-05-02T16:38:05.998Z</time></trkpt><trkpt lat="44.793270318522815" lon="9.651622032681477"><ele>719.0</ele><time>2026-05-02T16:38:06.998Z</time></trkpt><trkpt lat="44.79340501748287" lon="9.651732298993984"><ele>719.0</ele><time>2026-05-02T16:38:07.998Z</time></trkpt><trkpt lat="44.79352166233967" lon="9.651867563032331"><ele>718.0</ele><time>2026-05-02T16:38:08.998Z</time></trkpt><trkpt lat="44.79361594581034" lon="9.651995527987538"><ele>717.0</ele><time>2026-05-02T16:38:09.998Z</time></trkpt><trkpt lat="44.79370238022193" lon="9.652103359673992"><ele>716.0</ele><time>2026-05-02T16:38:10.998Z</time></trkpt><trkpt lat="44.79379541499536" lon="9.652178455836397"><ele>715.0</ele><time>2026-05-02T16:38:11.998Z</time></trkpt><trkpt lat="44.79388046356764" lon="9.652249295852682"><ele>715.0</ele><time>2026-05-02T16:38:12.998Z</time></trkpt><trkpt lat="44.793948343024375" lon="9.65231150195891"><ele>715.0</ele><time>2026-05-02T16:38:13.998Z</time></trkpt><trkpt lat="44.794013641680095" lon="9.65236288228219"><ele>715.0</ele><time>2026-05-02T16:38:14.998Z</time></trkpt><trkpt lat="44.794078048311256" lon="9.652389492999351"><ele>715.0</ele><time>2026-05-02T16:38:15.998Z</time></trkpt><trkpt lat="44.79414375143668" lon="9.652392189320521"><ele>715.0</ele><time>2026-05-02T16:38:16.998Z</time></trkpt><trkpt lat="44.794216944164056" lon="9.65237232407064"><ele>715.0</ele><time>2026-05-02T16:38:17.998Z</time></trkpt><trkpt lat="44.79429283372328" lon="9.652335807557447"><ele>715.0</ele><time>2026-05-02T16:38:18.998Z</time></trkpt><trkpt lat="44.79436405332567" lon="9.652299824333973"><ele>715.1666666666667</ele><time>2026-05-02T16:38:19.998Z</time></trkpt><trkpt lat="44.794439921987625" lon="9.652280286638858"><ele>715.3333333333334</ele><time>2026-05-02T16:38:20.998Z</time></trkpt><trkpt lat="44.79451103074282" lon="9.652277609118473"><ele>715.5</ele><time>2026-05-02T16:38:21.998Z</time></trkpt><trkpt lat="44.79458007483576" lon="9.652280113028839"><ele>715.6666666666666</ele><time>2026-05-02T16:38:22.998Z</time></trkpt><trkpt lat="44.79464928157293" lon="9.652283219723067"><ele>715.8333333333333</ele><time>2026-05-02T16:38:23.998Z</time></trkpt><trkpt lat="44.79473190862123" lon="9.652302350545508"><ele>716.0</ele><time>2026-05-02T16:38:24.998Z</time></trkpt><trkpt lat="44.79483651443752" lon="9.65233853430162"><ele>716.0</ele><time>2026-05-02T16:38:25.998Z</time></trkpt><trkpt lat="44.79496119307117" lon="9.652394554947106"><ele>716.0</ele><time>2026-05-02T16:38:26.998Z</time></trkpt><trkpt lat="44.795099058204094" lon="9.65245404483487"><ele>716.0</ele><time>2026-05-02T16:38:27.998Z</time></trkpt><trkpt lat="44.795242358406576" lon="9.652494902903046"><ele>716.0</ele><time>2026-05-02T16:38:28.998Z</time></trkpt><trkpt lat="44.79540411403169" lon="9.652518852820728"><ele>717.6666666666666</ele><time>2026-05-02T16:38:29.998Z</time></trkpt><trkpt lat="44.79558402658533" lon="9.652566407840892"><ele>719.3333333333334</ele><time>2026-05-02T16:38:30.998Z</time></trkpt><trkpt lat="44.79574789043803" lon="9.652642830799468"><ele>721.0</ele><time>2026-05-02T16:38:31.998Z</time></trkpt><trkpt lat="44.79588835824965" lon="9.652706768949349"><ele>721.0</ele><time>2026-05-02T16:38:32.998Z</time></trkpt><trkpt lat="44.79604876689546" lon="9.652750814981232"><ele>721.0</ele><time>2026-05-02T16:38:33.998Z</time></trkpt><trkpt lat="44.79621942570812" lon="9.652787252372669"><ele>721.0</ele><time>2026-05-02T16:38:34.998Z</time></trkpt><trkpt lat="44.79635342169075" lon="9.652817713585103"><ele>723.0</ele><time>2026-05-02T16:38:35.998Z</time></trkpt><trkpt lat="44.79647030201839" lon="9.652864182067475"><ele>725.0</ele><time>2026-05-02T16:38:36.998Z</time></trkpt><trkpt lat="44.79655518585939" lon="9.652913822535652"><ele>727.0</ele><time>2026-05-02T16:38:37.998Z</time></trkpt><trkpt lat="44.796619854835996" lon="9.652974685177178"><ele>729.0</ele><time>2026-05-02T16:38:39Z</time></trkpt><trkpt lat="44.79667399222982" lon="9.653075914511039"><ele>731.0</ele><time>2026-05-02T16:38:40Z</time></trkpt><trkpt lat="44.796732347039175" lon="9.653224905249902"><ele>731.0</ele><time>2026-05-02T16:38:41Z</time></trkpt><trkpt lat="44.79678831088985" lon="9.65336625815914"><ele>731.0</ele><time>2026-05-02T16:38:42Z</time></trkpt><trkpt lat="44.7968555451483" lon="9.653481843320195"><ele>731.0</ele><time>2026-05-02T16:38:43Z</time></trkpt><trkpt lat="44.79694690272986" lon="9.653569741671012"><ele>731.0</ele><time>2026-05-02T16:38:44Z</time></trkpt><trkpt lat="44.797051341739035" lon="9.653600641678661"><ele>731.0</ele><time>2026-05-02T16:38:45Z</time></trkpt><trkpt lat="44.797180017936796" lon="9.653611526272574"><ele>731.5999999999999</ele><time>2026-05-02T16:38:46Z</time></trkpt><trkpt lat="44.797287595753794" lon="9.65362820622796"><ele>732.2</ele><time>2026-05-02T16:38:47Z</time></trkpt><trkpt lat="44.79737820059604" lon="9.653677012804607"><ele>732.8</ele><time>2026-05-02T16:38:48Z</time></trkpt><trkpt lat="44.79745725143701" lon="9.65376239740136"><ele>733.4000000000001</ele><time>2026-05-02T16:38:49Z</time></trkpt><trkpt lat="44.79753401510143" lon="9.65387251307586"><ele>734.0</ele><time>2026-05-02T16:38:50Z</time></trkpt><trkpt lat="44.79761021163897" lon="9.654002986670323"><ele>733.25</ele><time>2026-05-02T16:38:51Z</time></trkpt><trkpt lat="44.79769352123871" lon="9.654159013513576"><ele>732.5</ele><time>2026-05-02T16:38:52Z</time></trkpt><trkpt lat="44.79778544104095" lon="9.654290881328382"><ele>731.75</ele><time>2026-05-02T16:38:53Z</time></trkpt><trkpt lat="44.79789785768583" lon="9.654373032164433"><ele>731.0</ele><time>2026-05-02T16:38:54Z</time></trkpt><trkpt lat="44.798028611495546" lon="9.654462805687372"><ele>731.0</ele><time>2026-05-02T16:38:55Z</time></trkpt><trkpt lat="44.79815477156914" lon="9.654558644735033"><ele>731.0</ele><time>2026-05-02T16:38:56Z</time></trkpt><trkpt lat="44.79826314749196" lon="9.654629479122413"><ele>731.0</ele><time>2026-05-02T16:38:57Z</time></trkpt><trkpt lat="44.798363395599914" lon="9.654703765971124"><ele>731.0</ele><time>2026-05-02T16:38:58Z</time></trkpt><trkpt lat="44.798471977293964" lon="9.654775052834365"><ele>733.0</ele><time>2026-05-02T16:38:59Z</time></trkpt><trkpt lat="44.7985782094901" lon="9.65486972117093"><ele>735.0</ele><time>2026-05-02T16:39:00Z</time></trkpt><trkpt lat="44.79868240824348" lon="9.6549841004055"><ele>737.0</ele><time>2026-05-02T16:39:01Z</time></trkpt><trkpt lat="44.79878177616509" lon="9.655117524376653"><ele>739.0</ele><time>2026-05-02T16:39:02Z</time></trkpt><trkpt lat="44.79886339854836" lon="9.655250389261836"><ele>737.75</ele><time>2026-05-02T16:39:03Z</time></trkpt><trkpt lat="44.79895260079227" lon="9.655372669570685"><ele>736.5</ele><time>2026-05-02T16:39:04Z</time></trkpt><trkpt lat="44.799056842832485" lon="9.655520321744774"><ele>735.25</ele><time>2026-05-02T16:39:05Z</time></trkpt><trkpt lat="44.7991466943686" lon="9.655669582037653"><ele>734.0</ele><time>2026-05-02T16:39:06Z</time></trkpt><trkpt lat="44.799218216053106" lon="9.655818890167547"><ele>734.0</ele><time>2026-05-02T16:39:07Z</time></trkpt><trkpt lat="44.79929110740331" lon="9.655954744953103"><ele>734.0</ele><time>2026-05-02T16:39:08Z</time></trkpt><trkpt lat="44.7993679389159" lon="9.656087867703782"><ele>734.0</ele><time>2026-05-02T16:39:09Z</time></trkpt><trkpt lat="44.79946056511247" lon="9.656227837915896"><ele>734.0</ele><time>2026-05-02T16:39:10Z</time></trkpt><trkpt lat="44.799555570168785" lon="9.656350196045933"><ele>732.6</ele><time>2026-05-02T16:39:11Z</time></trkpt><trkpt lat="44.799653077963825" lon="9.656457843387619"><ele>731.2</ele><time>2026-05-02T16:39:12Z</time></trkpt><trkpt lat="44.79973960622795" lon="9.656559306385898"><ele>729.8000000000001</ele><time>2026-05-02T16:39:13Z</time></trkpt><trkpt lat="44.79980156743006" lon="9.656636196705461"><ele>728.4000000000001</ele><time>2026-05-02T16:39:14Z</time></trkpt><trkpt lat="44.79984921486448" lon="9.65671791280726"><ele>727.0</ele><time>2026-05-02T16:39:15Z</time></trkpt><trkpt lat="44.79996187363663" lon="9.656798749792472"><ele>727.0</ele><time>2026-05-02T16:39:16.999Z</time></trkpt><trkpt lat="44.80002999358028" lon="9.656784818064695"><ele>727.0</ele><time>2026-05-02T16:39:17.999Z</time></trkpt><trkpt lat="44.800112486788386" lon="9.656647759655062"><ele>727.0</ele><time>2026-05-02T16:39:19.999Z</time></trkpt><trkpt lat="44.800143205213" lon="9.656520837216288"><ele>727.0</ele><time>2026-05-02T16:39:20.999Z</time></trkpt><trkpt lat="44.8001423295726" lon="9.656398094989331"><ele>727.0</ele><time>2026-05-02T16:39:21.999Z</time></trkpt><trkpt lat="44.80014496167765" lon="9.656295722036994"><ele>725.8</ele><time>2026-05-02T16:39:22.999Z</time></trkpt><trkpt lat="44.800179701239784" lon="9.65620343779103"><ele>724.6</ele><time>2026-05-02T16:39:23.999Z</time></trkpt><trkpt lat="44.80023441781775" lon="9.656128768271781"><ele>723.4</ele><time>2026-05-02T16:39:24.999Z</time></trkpt><trkpt lat="44.80032911119383" lon="9.65607538389652"><ele>722.1999999999999</ele><time>2026-05-02T16:39:25.999Z</time></trkpt><trkpt lat="44.800446281254544" lon="9.656033094293429"><ele>721.0</ele><time>2026-05-02T16:39:26.999Z</time></trkpt><trkpt lat="44.80056029760459" lon="9.656025254098001"><ele>721.0</ele><time>2026-05-02T16:39:27.999Z</time></trkpt><trkpt lat="44.800664958523335" lon="9.656030937879718"><ele>721.0</ele><time>2026-05-02T16:39:28.999Z</time></trkpt><trkpt lat="44.80075824502725" lon="9.656053611557468"><ele>721.0</ele><time>2026-05-02T16:39:29.999Z</time></trkpt><trkpt lat="44.80086764850484" lon="9.65610100156069"><ele>721.0</ele><time>2026-05-02T16:39:30.999Z</time></trkpt><trkpt lat="44.80098605059264" lon="9.656190001489561"><ele>721.0</ele><time>2026-05-02T16:39:31.999Z</time></trkpt><trkpt lat="44.8011189506119" lon="9.656260092229532"><ele>718.5</ele><time>2026-05-02T16:39:32.999Z</time></trkpt><trkpt lat="44.80125266371853" lon="9.656311223787108"><ele>716.0</ele><time>2026-05-02T16:39:33.999Z</time></trkpt><trkpt lat="44.801362819557404" lon="9.656348527374927"><ele>713.5</ele><time>2026-05-02T16:39:34.999Z</time></trkpt><trkpt lat="44.80146816553293" lon="9.656387418649969"><ele>711.0</ele><time>2026-05-02T16:39:35.999Z</time></trkpt><trkpt lat="44.801560261243935" lon="9.656461511832921"><ele>711.0</ele><time>2026-05-02T16:39:36.999Z</time></trkpt><trkpt lat="44.80163337620641" lon="9.656561218988067"><ele>711.0</ele><time>2026-05-02T16:39:37.999Z</time></trkpt><trkpt lat="44.801702058289294" lon="9.65666377167897"><ele>711.0</ele><time>2026-05-02T16:39:38.999Z</time></trkpt><trkpt lat="44.801766051838335" lon="9.656759951648205"><ele>711.0</ele><time>2026-05-02T16:39:39.999Z</time></trkpt><trkpt lat="44.80182729274357" lon="9.656850081195529"><ele>711.0</ele><time>2026-05-02T16:39:40.999Z</time></trkpt><trkpt lat="44.80189942286332" lon="9.656911046666975"><ele>710.8</ele><time>2026-05-02T16:39:41.999Z</time></trkpt><trkpt lat="44.801984768668056" lon="9.656941919192574"><ele>710.5999999999999</ele><time>2026-05-02T16:39:42.999Z</time></trkpt><trkpt lat="44.80209110335074" lon="9.656962134289127"><ele>710.4</ele><time>2026-05-02T16:39:43.999Z</time></trkpt><trkpt lat="44.80221565069948" lon="9.656961332547574"><ele>710.2</ele><time>2026-05-02T16:39:44.999Z</time></trkpt><trkpt lat="44.80234139945531" lon="9.656938363208242"><ele>710.0</ele><time>2026-05-02T16:39:45.999Z</time></trkpt><trkpt lat="44.802426658798574" lon="9.65691515327098"><ele>710.0</ele><time>2026-05-02T16:39:46.999Z</time></trkpt><trkpt lat="44.80250862444208" lon="9.656930873028111"><ele>710.0</ele><time>2026-05-02T16:39:47.999Z</time></trkpt><trkpt lat="44.80259091420652" lon="9.657006987254992"><ele>710.0</ele><time>2026-05-02T16:39:48.999Z</time></trkpt><trkpt lat="44.802680435245136" lon="9.657118589333804"><ele>710.0</ele><time>2026-05-02T16:39:49.999Z</time></trkpt><trkpt lat="44.802773455980585" lon="9.657220935341499"><ele>710.0</ele><time>2026-05-02T16:39:50.999Z</time></trkpt><trkpt lat="44.80286676267101" lon="9.657293570212113"><ele>707.4</ele><time>2026-05-02T16:39:51.999Z</time></trkpt><trkpt lat="44.80295452216073" lon="9.657355173528707"><ele>704.8</ele><time>2026-05-02T16:39:52.999Z</time></trkpt><trkpt lat="44.803022104286434" lon="9.657415924508953"><ele>702.2</ele><time>2026-05-02T16:39:53.999Z</time></trkpt><trkpt lat="44.80307518930834" lon="9.657504962845197"><ele>699.6</ele><time>2026-05-02T16:39:54.999Z</time></trkpt><trkpt lat="44.80310215321301" lon="9.657640619214389"><ele>697.0</ele><time>2026-05-02T16:39:55.999Z</time></trkpt><trkpt lat="44.80312787030634" lon="9.657788906836016"><ele>694.0</ele><time>2026-05-02T16:39:56.999Z</time></trkpt><trkpt lat="44.80317116211541" lon="9.657949510312916"><ele>691.0</ele><time>2026-05-02T16:39:57.999Z</time></trkpt><trkpt lat="44.803243157479635" lon="9.658089625952364"><ele>688.0</ele><time>2026-05-02T16:39:58.999Z</time></trkpt><trkpt lat="44.80333072677361" lon="9.658205514377077"><ele>685.0</ele><time>2026-05-02T16:39:59.999Z</time></trkpt><trkpt lat="44.80344147317314" lon="9.65834710842858"><ele>682.0</ele><time>2026-05-02T16:40:00.999Z</time></trkpt><trkpt lat="44.80354360272426" lon="9.658509646393103"><ele>679.0</ele><time>2026-05-02T16:40:01.999Z</time></trkpt><trkpt lat="44.80362017200899" lon="9.658672594639535"><ele>676.0</ele><time>2026-05-02T16:40:02.999Z</time></trkpt><trkpt lat="44.80367163143414" lon="9.658841530281794"><ele>673.0</ele><time>2026-05-02T16:40:03.999Z</time></trkpt><trkpt lat="44.80369447665592" lon="9.659014628090828"><ele>673.0</ele><time>2026-05-02T16:40:04.999Z</time></trkpt><trkpt lat="44.80371031625847" lon="9.659178998806963"><ele>673.0</ele><time>2026-05-02T16:40:05.999Z</time></trkpt><trkpt lat="44.80373846595667" lon="9.659335852768432"><ele>673.0</ele><time>2026-05-02T16:40:06.998Z</time></trkpt><trkpt lat="44.803773377223145" lon="9.659479844728885"><ele>673.0</ele><time>2026-05-02T16:40:07.998Z</time></trkpt><trkpt lat="44.803817548478285" lon="9.65960206706183"><ele>673.0</ele><time>2026-05-02T16:40:08.998Z</time></trkpt><trkpt lat="44.80386978488793" lon="9.659729455940726"><ele>673.2</ele><time>2026-05-02T16:40:09.998Z</time></trkpt><trkpt lat="44.80393198494761" lon="9.659853401943975"><ele>673.4</ele><time>2026-05-02T16:40:10.998Z</time></trkpt><trkpt lat="44.803991932728835" lon="9.659953416442814"><ele>673.6</ele><time>2026-05-02T16:40:11.998Z</time></trkpt><trkpt lat="44.804058860636246" lon="9.660071698372015"><ele>673.8000000000001</ele><time>2026-05-02T16:40:12.998Z</time></trkpt><trkpt lat="44.80411545532844" lon="9.660173316934365"><ele>674.0</ele><time>2026-05-02T16:40:13.998Z</time></trkpt><trkpt lat="44.80417588828489" lon="9.660253084253917"><ele>672.6666666666666</ele><time>2026-05-02T16:40:14.998Z</time></trkpt><trkpt lat="44.80424433347705" lon="9.66030903777541"><ele>671.3333333333333</ele><time>2026-05-02T16:40:15.998Z</time></trkpt><trkpt lat="44.80432893512788" lon="9.660358631445135"><ele>670.0</ele><time>2026-05-02T16:40:16.998Z</time></trkpt><trkpt lat="44.804419472650416" lon="9.660405641961944"><ele>668.6666666666666</ele><time>2026-05-02T16:40:17.998Z</time></trkpt><trkpt lat="44.8044983993146" lon="9.660443492666245"><ele>667.3333333333334</ele><time>2026-05-02T16:40:18.998Z</time></trkpt><trkpt lat="44.80459379178193" lon="9.660470800550963"><ele>666.0</ele><time>2026-05-02T16:40:20.998Z</time></trkpt><trkpt lat="44.80466217797855" lon="9.660456160240576"><ele>665.4285714285714</ele><time>2026-05-02T16:40:22.998Z</time></trkpt><trkpt lat="44.80468896773259" lon="9.66036952404043"><ele>664.8571428571428</ele><time>2026-05-02T16:40:26.998Z</time></trkpt><trkpt lat="44.804722015753825" lon="9.660251892666077"><ele>664.2857142857142</ele><time>2026-05-02T16:41:24.999Z</time></trkpt><trkpt lat="44.804724088128694" lon="9.660144751967056"><ele>663.7142857142858</ele><time>2026-05-02T16:41:25.999Z</time></trkpt><trkpt lat="44.804724477672266" lon="9.660045930347088"><ele>663.1428571428571</ele><time>2026-05-02T16:41:26.999Z</time></trkpt><trkpt lat="44.80472636785422" lon="9.659955794640032"><ele>662.5714285714286</ele><time>2026-05-02T16:41:27.999Z</time></trkpt><trkpt lat="44.804729581780116" lon="9.659848958063309"><ele>662.0</ele><time>2026-05-02T16:41:28.999Z</time></trkpt><trkpt lat="44.804727196109084" lon="9.659752331387253"><ele>660.6666666666666</ele><time>2026-05-02T16:41:29.999Z</time></trkpt><trkpt lat="44.80468223953306" lon="9.659574899497953"><ele>659.3333333333333</ele><time>2026-05-02T16:41:31.999Z</time></trkpt><trkpt lat="44.804650748947225" lon="9.659460853942791"><ele>658.0</ele><time>2026-05-02T16:41:32.999Z</time></trkpt><trkpt lat="44.804624402452404" lon="9.659369608770794"><ele>656.6666666666666</ele><time>2026-05-02T16:41:33.999Z</time></trkpt><trkpt lat="44.8045932405441" lon="9.659286428752878"><ele>655.3333333333334</ele><time>2026-05-02T16:41:34.999Z</time></trkpt><trkpt lat="44.804554142968" lon="9.659196734902107"><ele>654.0</ele><time>2026-05-02T16:41:35.999Z</time></trkpt><trkpt lat="44.80450225691692" lon="9.659033346973338"><ele>653.2</ele><time>2026-05-02T16:41:37.999Z</time></trkpt><trkpt lat="44.804514184569236" lon="9.658861252999117"><ele>652.4000000000001</ele><time>2026-05-02T16:41:39.999Z</time></trkpt><trkpt lat="44.80456764226092" lon="9.658776280589848"><ele>651.6</ele><time>2026-05-02T16:41:40.999Z</time></trkpt><trkpt lat="44.80465357925092" lon="9.658700133646274"><ele>650.8</ele><time>2026-05-02T16:41:41.999Z</time></trkpt><trkpt lat="44.80477435546957" lon="9.658629672731747"><ele>650.0</ele><time>2026-05-02T16:41:42.999Z</time></trkpt><trkpt lat="44.80492226952528" lon="9.658551855993611"><ele>652.0</ele><time>2026-05-02T16:41:43.999Z</time></trkpt><trkpt lat="44.80505010717297" lon="9.658508661704056"><ele>654.0</ele><time>2026-05-02T16:41:44.999Z</time></trkpt><trkpt lat="44.80514162750861" lon="9.658467075877846"><ele>656.0</ele><time>2026-05-02T16:41:45.999Z</time></trkpt><trkpt lat="44.80521872299214" lon="9.65841796710664"><ele>658.0</ele><time>2026-05-02T16:41:46.999Z</time></trkpt><trkpt lat="44.80529055538294" lon="9.658371344225198"><ele>660.0</ele><time>2026-05-02T16:41:47.999Z</time></trkpt><trkpt lat="44.80539916521425" lon="9.658376835859375"><ele>660.0</ele><time>2026-05-02T16:41:48.999Z</time></trkpt><trkpt lat="44.80552162228896" lon="9.658416054789862"><ele>660.0</ele><time>2026-05-02T16:41:49.999Z</time></trkpt><trkpt lat="44.805633622720386" lon="9.658431033326105"><ele>660.0</ele><time>2026-05-02T16:41:50.999Z</time></trkpt><trkpt lat="44.805760909283734" lon="9.658419169016636"><ele>660.0</ele><time>2026-05-02T16:41:51.999Z</time></trkpt><trkpt lat="44.805871442949424" lon="9.658410693294295"><ele>660.0</ele><time>2026-05-02T16:41:52.999Z</time></trkpt><trkpt lat="44.80596564058413" lon="9.658456046709913"><ele>660.0</ele><time>2026-05-02T16:41:53.999Z</time></trkpt><trkpt lat="44.806083703778924" lon="9.6585201809857"><ele>660.0</ele><time>2026-05-02T16:41:54.999Z</time></trkpt><trkpt lat="44.80618453768122" lon="9.658587578539994"><ele>660.0</ele><time>2026-05-02T16:41:55.999Z</time></trkpt><trkpt lat="44.80627151010644" lon="9.658607809061248"><ele>660.0</ele><time>2026-05-02T16:41:56.999Z</time></trkpt><trkpt lat="44.80639451896878" lon="9.658610565311546"><ele>660.0</ele><time>2026-05-02T16:41:57.999Z</time></trkpt><trkpt lat="44.80650418036251" lon="9.658618876552433"><ele>660.0</ele><time>2026-05-02T16:41:58.999Z</time></trkpt><trkpt lat="44.80661276336499" lon="9.658626090809761"><ele>660.0</ele><time>2026-05-02T16:41:59.999Z</time></trkpt><trkpt lat="44.80670344196427" lon="9.658622334688918"><ele>660.0</ele><time>2026-05-02T16:42:00.999Z</time></trkpt><trkpt lat="44.80678424690332" lon="9.658581900950812"><ele>660.0</ele><time>2026-05-02T16:42:01.999Z</time></trkpt><trkpt lat="44.80687503897815" lon="9.658521015014253"><ele>656.8</ele><time>2026-05-02T16:42:02.999Z</time></trkpt><trkpt lat="44.80696432706909" lon="9.65841804512965"><ele>653.6</ele><time>2026-05-02T16:42:03.999Z</time></trkpt><trkpt lat="44.80707448764217" lon="9.658331701420009"><ele>650.4000000000001</ele><time>2026-05-02T16:42:04.999Z</time></trkpt><trkpt lat="44.80718578406786" lon="9.65827531678602"><ele>647.2</ele><time>2026-05-02T16:42:05.999Z</time></trkpt><trkpt lat="44.807267177412776" lon="9.658249090915275"><ele>644.0</ele><time>2026-05-02T16:42:06.999Z</time></trkpt><trkpt lat="44.80733565040303" lon="9.658214792024875"><ele>644.0</ele><time>2026-05-02T16:42:07.999Z</time></trkpt><trkpt lat="44.807401870982666" lon="9.658072606877386"><ele>644.0</ele><time>2026-05-02T16:42:09.999Z</time></trkpt><trkpt lat="44.807357190208435" lon="9.657871201618857"><ele>644.0</ele><time>2026-05-02T16:42:11.998Z</time></trkpt><trkpt lat="44.807297419980905" lon="9.657754996580966"><ele>644.0</ele><time>2026-05-02T16:42:12.998Z</time></trkpt><trkpt lat="44.807246639789454" lon="9.657658151104263"><ele>644.8000000000001</ele><time>2026-05-02T16:42:13.998Z</time></trkpt><trkpt lat="44.807229806134266" lon="9.657555760761461"><ele>645.6</ele><time>2026-05-02T16:42:14.998Z</time></trkpt><trkpt lat="44.80726013268187" lon="9.657452788980116"><ele>646.4</ele><time>2026-05-02T16:42:15.998Z</time></trkpt><trkpt lat="44.80733268684453" lon="9.657356232540488"><ele>647.2</ele><time>2026-05-02T16:42:16.998Z</time></trkpt><trkpt lat="44.807447197472804" lon="9.657255058407577"><ele>648.0</ele><time>2026-05-02T16:42:17.998Z</time></trkpt><trkpt lat="44.80753262862012" lon="9.657122717164839"><ele>648.0</ele><time>2026-05-02T16:42:18.998Z</time></trkpt><trkpt lat="44.80757423820785" lon="9.656962683050422"><ele>648.0</ele><time>2026-05-02T16:42:19.998Z</time></trkpt><trkpt lat="44.80760750262555" lon="9.656809617278531"><ele>648.0</ele><time>2026-05-02T16:42:20.998Z</time></trkpt><trkpt lat="44.807660087800784" lon="9.656671698040006"><ele>648.0</ele><time>2026-05-02T16:42:21.998Z</time></trkpt><trkpt lat="44.80771811166386" lon="9.656559996388722"><ele>648.0</ele><time>2026-05-02T16:42:22.998Z</time></trkpt><trkpt lat="44.80777730897257" lon="9.656462394809722"><ele>641.4</ele><time>2026-05-02T16:42:23.998Z</time></trkpt><trkpt lat="44.807823606169364" lon="9.656372164350838"><ele>634.8</ele><time>2026-05-02T16:42:24.998Z</time></trkpt><trkpt lat="44.807868499058124" lon="9.656287921678468"><ele>628.2</ele><time>2026-05-02T16:42:25.998Z</time></trkpt><trkpt lat="44.80788129784785" lon="9.65619744263612"><ele>621.6</ele><time>2026-05-02T16:42:26.998Z</time></trkpt><trkpt lat="44.80783575725304" lon="9.656007590948168"><ele>615.0</ele><time>2026-05-02T16:42:28.998Z</time></trkpt><trkpt lat="44.807787054912815" lon="9.655882790721675"><ele>614.8333333333334</ele><time>2026-05-02T16:42:29.998Z</time></trkpt><trkpt lat="44.807729944444894" lon="9.655779711090707"><ele>614.6666666666666</ele><time>2026-05-02T16:42:30.998Z</time></trkpt><trkpt lat="44.807672713925676" lon="9.655694668607046"><ele>614.5</ele><time>2026-05-02T16:42:31.998Z</time></trkpt><trkpt lat="44.80765452145379" lon="9.655537005688364"><ele>614.3333333333333</ele><time>2026-05-02T16:42:33.998Z</time></trkpt><trkpt lat="44.80769288190156" lon="9.655455108842407"><ele>614.1666666666666</ele><time>2026-05-02T16:42:34.998Z</time></trkpt><trkpt lat="44.80775226198764" lon="9.655367163629709"><ele>614.0</ele><time>2026-05-02T16:42:35.998Z</time></trkpt><trkpt lat="44.807822984187574" lon="9.655274339883414"><ele>613.6666666666666</ele><time>2026-05-02T16:42:36.998Z</time></trkpt><trkpt lat="44.80787888529805" lon="9.655175076369733"><ele>613.3333333333333</ele><time>2026-05-02T16:42:37.998Z</time></trkpt><trkpt lat="44.80790462146659" lon="9.655057075257078"><ele>613.0</ele><time>2026-05-02T16:42:38.998Z</time></trkpt><trkpt lat="44.807908735945716" lon="9.654933843251312"><ele>612.6666666666666</ele><time>2026-05-02T16:42:39.998Z</time></trkpt><trkpt lat="44.80791192885044" lon="9.65481749155601"><ele>612.3333333333334</ele><time>2026-05-02T16:42:40.998Z</time></trkpt><trkpt lat="44.80792693238274" lon="9.654712149938492"><ele>612.0</ele><time>2026-05-02T16:42:41.998Z</time></trkpt><trkpt lat="44.80794389780119" lon="9.654609157280028"><ele>612.0</ele><time>2026-05-02T16:42:42.998Z</time></trkpt><trkpt lat="44.80795770806104" lon="9.654517554836788"><ele>612.0</ele><time>2026-05-02T16:42:43.998Z</time></trkpt><trkpt lat="44.80797478677806" lon="9.654430774445052"><ele>612.0</ele><time>2026-05-02T16:42:44.998Z</time></trkpt><trkpt lat="44.80799983683732" lon="9.654340341534281"><ele>612.0</ele><time>2026-05-02T16:42:45.998Z</time></trkpt><trkpt lat="44.8080380425736" lon="9.654258806014978"><ele>612.0</ele><time>2026-05-02T16:42:46.998Z</time></trkpt><trkpt lat="44.8080810968932" lon="9.654182597707072"><ele>612.0</ele><time>2026-05-02T16:42:47.998Z</time></trkpt><trkpt lat="44.80812094153821" lon="9.654103907213726"><ele>612.0</ele><time>2026-05-02T16:42:48.998Z</time></trkpt><trkpt lat="44.808153180260874" lon="9.654018814698738"><ele>612.6</ele><time>2026-05-02T16:42:49.998Z</time></trkpt><trkpt lat="44.80818197016717" lon="9.653934240875072"><ele>613.2</ele><time>2026-05-02T16:42:51Z</time></trkpt><trkpt lat="44.80823754180531" lon="9.653789538470308"><ele>613.8</ele><time>2026-05-02T16:42:53Z</time></trkpt><trkpt lat="44.80830061228259" lon="9.653680427621257"><ele>614.4</ele><time>2026-05-02T16:42:55Z</time></trkpt><trkpt lat="44.80838432456642" lon="9.653600823838621"><ele>615.0</ele><time>2026-05-02T16:42:57Z</time></trkpt><trkpt lat="44.80848048293613" lon="9.653571682961545"><ele>612.5</ele><time>2026-05-02T16:42:59Z</time></trkpt><trkpt lat="44.808568992655715" lon="9.653629866835864"><ele>610.0</ele><time>2026-05-02T16:43:01Z</time></trkpt><trkpt lat="44.8086139563532" lon="9.65378619277018"><ele>607.5</ele><time>2026-05-02T16:43:03Z</time></trkpt><trkpt lat="44.80862397225254" lon="9.65388548437462"><ele>605.0</ele><time>2026-05-02T16:43:04Z</time></trkpt><trkpt lat="44.80864013706004" lon="9.653987529191872"><ele>602.5</ele><time>2026-05-02T16:43:05Z</time></trkpt><trkpt lat="44.80866894766599" lon="9.65408756329638"><ele>600.0</ele><time>2026-05-02T16:43:06Z</time></trkpt><trkpt lat="44.80871046056775" lon="9.654168499226568"><ele>600.0</ele><time>2026-05-02T16:43:07Z</time></trkpt><trkpt lat="44.80876593855783" lon="9.654247275816212"><ele>600.0</ele><time>2026-05-02T16:43:08Z</time></trkpt><trkpt lat="44.80882768522301" lon="9.654320073303474"><ele>600.0</ele><time>2026-05-02T16:43:09Z</time></trkpt><trkpt lat="44.808895204973226" lon="9.65437669324635"><ele>600.0</ele><time>2026-05-02T16:43:10Z</time></trkpt><trkpt lat="44.80896599355744" lon="9.654425362650734"><ele>600.0</ele><time>2026-05-02T16:43:11Z</time></trkpt><trkpt lat="44.80903734565661" lon="9.654471990409675"><ele>600.0</ele><time>2026-05-02T16:43:12Z</time></trkpt><trkpt lat="44.80910510044923" lon="9.654515976052906"><ele>599.6666666666666</ele><time>2026-05-02T16:43:13Z</time></trkpt><trkpt lat="44.80916448433992" lon="9.654568370699172"><ele>599.3333333333334</ele><time>2026-05-02T16:43:14Z</time></trkpt><trkpt lat="44.809225420938645" lon="9.65463754072305"><ele>599.0</ele><time>2026-05-02T16:43:15Z</time></trkpt><trkpt lat="44.80928629474746" lon="9.654723822465986"><ele>598.6666666666667</ele><time>2026-05-02T16:43:16Z</time></trkpt><trkpt lat="44.8093548948994" lon="9.65481611055672"><ele>598.3333333333334</ele><time>2026-05-02T16:43:17Z</time></trkpt><trkpt lat="44.809422004402464" lon="9.65491055702853"><ele>598.0</ele><time>2026-05-02T16:43:18Z</time></trkpt><trkpt lat="44.809482997007734" lon="9.654991249034843"><ele>595.8</ele><time>2026-05-02T16:43:19Z</time></trkpt><trkpt lat="44.80954047103918" lon="9.655043700315355"><ele>593.5999999999999</ele><time>2026-05-02T16:43:20Z</time></trkpt><trkpt lat="44.80965586094713" lon="9.655055537381266"><ele>591.4000000000001</ele><time>2026-05-02T16:43:22Z</time></trkpt><trkpt lat="44.809764056718706" lon="9.654964191682394"><ele>589.2</ele><time>2026-05-02T16:43:24Z</time></trkpt><trkpt lat="44.80981250410444" lon="9.65488714350402"><ele>587.0</ele><time>2026-05-02T16:43:25Z</time></trkpt><trkpt lat="44.80985319729498" lon="9.654795077755757"><ele>587.0</ele><time>2026-05-02T16:43:26Z</time></trkpt><trkpt lat="44.80990121389014" lon="9.654708931968276"><ele>587.0</ele><time>2026-05-02T16:43:27Z</time></trkpt><trkpt lat="44.809963359366805" lon="9.65463877978317"><ele>587.0</ele><time>2026-05-02T16:43:27.999Z</time></trkpt><trkpt lat="44.81003267179792" lon="9.654578889726555"><ele>587.0</ele><time>2026-05-02T16:43:28.999Z</time></trkpt><trkpt lat="44.81011728106613" lon="9.654532852108284"><ele>587.0</ele><time>2026-05-02T16:43:29.999Z</time></trkpt><trkpt lat="44.810207299102906" lon="9.65449862805517"><ele>587.0</ele><time>2026-05-02T16:43:30.999Z</time></trkpt><trkpt lat="44.81030374310222" lon="9.654480300024414"><ele>584.8000000000001</ele><time>2026-05-02T16:43:31.999Z</time></trkpt><trkpt lat="44.810402440203724" lon="9.654467135307481"><ele>582.6</ele><time>2026-05-02T16:43:32.999Z</time></trkpt><trkpt lat="44.81050149527267" lon="9.654463701424937"><ele>580.4000000000001</ele><time>2026-05-02T16:43:33.999Z</time></trkpt><trkpt lat="44.81060062512083" lon="9.654474936398918"><ele>578.2</ele><time>2026-05-02T16:43:34.999Z</time></trkpt><trkpt lat="44.81068688974486" lon="9.65450738052788"><ele>576.0</ele><time>2026-05-02T16:43:35.999Z</time></trkpt><trkpt lat="44.81075688467638" lon="9.65454951113988"><ele>576.0000000000001</ele><time>2026-05-02T16:43:36.999Z</time></trkpt><trkpt lat="44.8108186982439" lon="9.654599573151906"><ele>576.0</ele><time>2026-05-02T16:43:37.999Z</time></trkpt><trkpt lat="44.81088800617098" lon="9.65463492756411"><ele>576.0</ele><time>2026-05-02T16:43:38.999Z</time></trkpt><trkpt lat="44.81096202868498" lon="9.654650399268398"><ele>576.0</ele><time>2026-05-02T16:43:39.999Z</time></trkpt><trkpt lat="44.811034059508" lon="9.65466240587541"><ele>576.0</ele><time>2026-05-02T16:43:40.999Z</time></trkpt><trkpt lat="44.811100601175184" lon="9.654689224235971"><ele>576.0000000000001</ele><time>2026-05-02T16:43:41.999Z</time></trkpt><trkpt lat="44.811166717" lon="9.654717793004183"><ele>576.0</ele><time>2026-05-02T16:43:42.999Z</time></trkpt><trkpt lat="44.81123627827526" lon="9.654744362108614"><ele>575.8333333333334</ele><time>2026-05-02T16:43:43.999Z</time></trkpt><trkpt lat="44.81130547481661" lon="9.654761612272148"><ele>575.6666666666666</ele><time>2026-05-02T16:43:44.999Z</time></trkpt><trkpt lat="44.81140843009645" lon="9.654762542473524"><ele>575.5</ele><time>2026-05-02T16:43:46.999Z</time></trkpt><trkpt lat="44.81149823324057" lon="9.654754743912333"><ele>575.3333333333333</ele><time>2026-05-02T16:43:49.999Z</time></trkpt><trkpt lat="44.81156445093091" lon="9.654754068288199"><ele>575.1666666666666</ele><time>2026-05-02T16:43:52.999Z</time></trkpt><trkpt lat="44.81163410266652" lon="9.654742890131617"><ele>575.0</ele><time>2026-05-02T16:43:56.999Z</time></trkpt><trkpt lat="44.81170387033173" lon="9.65473336404927"><ele>575.0</ele><time>2026-05-02T16:43:59.999Z</time></trkpt><trkpt lat="44.81176854228334" lon="9.654704980380975"><ele>575.0</ele><time>2026-05-02T16:44:02.999Z</time></trkpt><trkpt lat="44.81182926919945" lon="9.65467249763943"><ele>575.0</ele><time>2026-05-02T16:44:05.999Z</time></trkpt><trkpt lat="44.81190564155017" lon="9.654622191963346"><ele>575.0</ele><time>2026-05-02T16:44:07.999Z</time></trkpt><trkpt lat="44.81197978803235" lon="9.654565915527709"><ele>575.0</ele><time>2026-05-02T16:44:08.999Z</time></trkpt><trkpt lat="44.812069055723505" lon="9.654509693429313"><ele>575.0</ele><time>2026-05-02T16:44:09.999Z</time></trkpt><trkpt lat="44.81216877041564" lon="9.654455679594081"><ele>575.8333333333333</ele><time>2026-05-02T16:44:10.999Z</time></trkpt><trkpt lat="44.81225244947672" lon="9.654421528525441"><ele>576.6666666666666</ele><time>2026-05-02T16:44:11.999Z</time></trkpt><trkpt lat="44.81233259945359" lon="9.654405674744282"><ele>577.5</ele><time>2026-05-02T16:44:12.999Z</time></trkpt><trkpt lat="44.812404667774146" lon="9.65442376074161"><ele>578.3333333333334</ele><time>2026-05-02T16:44:13.999Z</time></trkpt><trkpt lat="44.81246796851928" lon="9.654482690363189"><ele>579.1666666666667</ele><time>2026-05-02T16:44:14.999Z</time></trkpt><trkpt lat="44.81251854288718" lon="9.654580650672083"><ele>580.0</ele><time>2026-05-02T16:44:15.999Z</time></trkpt><trkpt lat="44.81255782665137" lon="9.654702367159626"><ele>580.2</ele><time>2026-05-02T16:44:16.998Z</time></trkpt><trkpt lat="44.81259948291097" lon="9.654789703109097"><ele>580.4</ele><time>2026-05-02T16:44:17.998Z</time></trkpt><trkpt lat="44.81271583981208" lon="9.65476564871076"><ele>580.6</ele><time>2026-05-02T16:44:19.998Z</time></trkpt><trkpt lat="44.81278983494434" lon="9.654686680948789"><ele>580.8</ele><time>2026-05-02T16:44:20.998Z</time></trkpt><trkpt lat="44.81287235709795" lon="9.654576278506003"><ele>581.0</ele><time>2026-05-02T16:44:21.998Z</time></trkpt><trkpt lat="44.81297759639013" lon="9.654459336141386"><ele>581.4</ele><time>2026-05-02T16:44:22.998Z</time></trkpt><trkpt lat="44.813069057693404" lon="9.654406673177702"><ele>581.8</ele><time>2026-05-02T16:44:23.998Z</time></trkpt><trkpt lat="44.813156102724854" lon="9.654398139005583"><ele>582.1999999999999</ele><time>2026-05-02T16:44:24.998Z</time></trkpt><trkpt lat="44.81325653664116" lon="9.654413392321038"><ele>582.6</ele><time>2026-05-02T16:44:25.998Z</time></trkpt><trkpt lat="44.813359719370105" lon="9.65445210173642"><ele>583.0</ele><time>2026-05-02T16:44:26.998Z</time></trkpt><trkpt lat="44.8134327236059" lon="9.654507986795023"><ele>581.6</ele><time>2026-05-02T16:44:27.998Z</time></trkpt><trkpt lat="44.81347382187913" lon="9.654591794119533"><ele>580.1999999999999</ele><time>2026-05-02T16:44:28.998Z</time></trkpt><trkpt lat="44.81348548400909" lon="9.654710159668852"><ele>578.8</ele><time>2026-05-02T16:44:29.998Z</time></trkpt><trkpt lat="44.81348161511168" lon="9.6548623538554"><ele>577.4</ele><time>2026-05-02T16:44:30.998Z</time></trkpt><trkpt lat="44.813489110178665" lon="9.655056537814472"><ele>576.0</ele><time>2026-05-02T16:44:31.998Z</time></trkpt><trkpt lat="44.81350607848118" lon="9.655248178696729"><ele>578.8</ele><time>2026-05-02T16:44:32.998Z</time></trkpt><trkpt lat="44.81352597490952" lon="9.65542886130314"><ele>581.6</ele><time>2026-05-02T16:44:33.998Z</time></trkpt><trkpt lat="44.81354938266839" lon="9.655585580131776"><ele>584.4</ele><time>2026-05-02T16:44:34.998Z</time></trkpt><trkpt lat="44.813584380821545" lon="9.65571330410529"><ele>587.2</ele><time>2026-05-02T16:44:35.998Z</time></trkpt><trkpt lat="44.813646647687015" lon="9.655832733281777"><ele>590.0</ele><time>2026-05-02T16:44:36.998Z</time></trkpt><trkpt lat="44.813734127161744" lon="9.655947419127845"><ele>590.0</ele><time>2026-05-02T16:44:37.998Z</time></trkpt><trkpt lat="44.813823051650736" lon="9.656079981059374"><ele>590.0</ele><time>2026-05-02T16:44:38.998Z</time></trkpt><trkpt lat="44.813882547963644" lon="9.656219445581812"><ele>590.0</ele><time>2026-05-02T16:44:39.998Z</time></trkpt><trkpt lat="44.813925516378035" lon="9.656373986302047"><ele>590.0</ele><time>2026-05-02T16:44:40.998Z</time></trkpt><trkpt lat="44.81396377641997" lon="9.656535037184604"><ele>590.4</ele><time>2026-05-02T16:44:41.998Z</time></trkpt><trkpt lat="44.81400386801673" lon="9.6566878823803"><ele>590.8</ele><time>2026-05-02T16:44:42.998Z</time></trkpt><trkpt lat="44.81404192077332" lon="9.65682714367518"><ele>591.2</ele><time>2026-05-02T16:44:43.998Z</time></trkpt><trkpt lat="44.814076312258834" lon="9.65696606475903"><ele>591.6</ele><time>2026-05-02T16:44:44.998Z</time></trkpt><trkpt lat="44.81411303051397" lon="9.657100926585052"><ele>592.0</ele><time>2026-05-02T16:44:45.998Z</time></trkpt><trkpt lat="44.81415402525001" lon="9.657238237804616"><ele>589.4</ele><time>2026-05-02T16:44:46.998Z</time></trkpt><trkpt lat="44.81420659015918" lon="9.65737055680138"><ele>586.8000000000001</ele><time>2026-05-02T16:44:47.998Z</time></trkpt><trkpt lat="44.81427738528973" lon="9.657486907011878"><ele>584.2</ele><time>2026-05-02T16:44:48.998Z</time></trkpt><trkpt lat="44.81436116313934" lon="9.657557028660275"><ele>581.6</ele><time>2026-05-02T16:44:49.998Z</time></trkpt><trkpt lat="44.81443570066452" lon="9.657590000729531"><ele>579.0</ele><time>2026-05-02T16:44:50.998Z</time></trkpt><trkpt lat="44.81451318276475" lon="9.65764538599774"><ele>578.1666666666666</ele><time>2026-05-02T16:44:52.998Z</time></trkpt><trkpt lat="44.81456543169904" lon="9.657725549561277"><ele>577.3333333333334</ele><time>2026-05-02T16:44:53.998Z</time></trkpt><trkpt lat="44.814630880477" lon="9.65779726227799"><ele>576.5</ele><time>2026-05-02T16:44:54.998Z</time></trkpt><trkpt lat="44.8147071783159" lon="9.657896118507614"><ele>575.6666666666667</ele><time>2026-05-02T16:44:55.998Z</time></trkpt><trkpt lat="44.814774759065095" lon="9.657972407507822"><ele>574.8333333333334</ele><time>2026-05-02T16:44:57Z</time></trkpt><trkpt lat="44.81484464207495" lon="9.658042392414465"><ele>574.0</ele><time>2026-05-02T16:44:58Z</time></trkpt><trkpt lat="44.81491263433069" lon="9.658124025001602"><ele>573.5</ele><time>2026-05-02T16:44:59Z</time></trkpt><trkpt lat="44.81498097624923" lon="9.658205736635228"><ele>573.0</ele><time>2026-05-02T16:45:00Z</time></trkpt><trkpt lat="44.815067474559" lon="9.658255730204615"><ele>572.5</ele><time>2026-05-02T16:45:02Z</time></trkpt><trkpt lat="44.81513789919186" lon="9.658201940921112"><ele>572.0</ele><time>2026-05-02T16:45:05Z</time></trkpt><trkpt lat="44.81513719117808" lon="9.658112281887021"><ele>571.5</ele><time>2026-05-02T16:45:10Z</time></trkpt><trkpt lat="44.815144725798476" lon="9.658012561995147"><ele>571.0</ele><time>2026-05-02T16:45:15Z</time></trkpt><trkpt lat="44.815179440154935" lon="9.657916117476226"><ele>571.0</ele><time>2026-05-02T16:45:20Z</time></trkpt><trkpt lat="44.815221685417235" lon="9.657830876553465"><ele>571.0</ele><time>2026-05-02T16:45:23Z</time></trkpt><trkpt lat="44.815281116885714" lon="9.657762021245341"><ele>571.0</ele><time>2026-05-02T16:45:25Z</time></trkpt><trkpt lat="44.815372620735594" lon="9.65768268394937"><ele>571.0</ele><time>2026-05-02T16:45:27Z</time></trkpt><trkpt lat="44.81543995800303" lon="9.657638719651235"><ele>571.0</ele><time>2026-05-02T16:45:28Z</time></trkpt><trkpt lat="44.81551053497339" lon="9.657613964576791"><ele>571.0</ele><time>2026-05-02T16:45:29Z</time></trkpt><trkpt lat="44.81557765919554" lon="9.657594851398164"><ele>569.1666666666667</ele><time>2026-05-02T16:45:30Z</time></trkpt><trkpt lat="44.81565660221515" lon="9.657563521821244"><ele>567.3333333333334</ele><time>2026-05-02T16:45:31Z</time></trkpt><trkpt lat="44.815737644024644" lon="9.657523161405797"><ele>565.5</ele><time>2026-05-02T16:45:32Z</time></trkpt><trkpt lat="44.81582058273965" lon="9.65747882130924"><ele>563.6666666666666</ele><time>2026-05-02T16:45:33Z</time></trkpt><trkpt lat="44.815902483951135" lon="9.657422598645402"><ele>561.8333333333333</ele><time>2026-05-02T16:45:34Z</time></trkpt><trkpt lat="44.815978027684075" lon="9.657358866900868"><ele>560.0</ele><time>2026-05-02T16:45:34.999Z</time></trkpt><trkpt lat="44.816039535074346" lon="9.657289575226716"><ele>558.5</ele><time>2026-05-02T16:45:35.999Z</time></trkpt><trkpt lat="44.81608491329097" lon="9.657211042278023"><ele>557.0</ele><time>2026-05-02T16:45:36.999Z</time></trkpt><trkpt lat="44.81610201322225" lon="9.657112718293936"><ele>555.5</ele><time>2026-05-02T16:45:37.999Z</time></trkpt><trkpt lat="44.81610778972904" lon="9.657000579827475"><ele>554.0</ele><time>2026-05-02T16:45:38.999Z</time></trkpt><trkpt lat="44.81609316521699" lon="9.656890423962434"><ele>552.5</ele><time>2026-05-02T16:45:39.999Z</time></trkpt><trkpt lat="44.816087062167526" lon="9.656765288279026"><ele>551.0</ele><time>2026-05-02T16:45:40.999Z</time></trkpt><trkpt lat="44.816104212568234" lon="9.65663854342297"><ele>549.0</ele><time>2026-05-02T16:45:41.999Z</time></trkpt><trkpt lat="44.816147372011" lon="9.656522179705933"><ele>547.0</ele><time>2026-05-02T16:45:42.999Z</time></trkpt><trkpt lat="44.81619212317445" lon="9.65641584256775"><ele>545.0</ele><time>2026-05-02T16:45:43.999Z</time></trkpt><trkpt lat="44.8162177916324" lon="9.656311868154477"><ele>543.0</ele><time>2026-05-02T16:45:44.999Z</time></trkpt><trkpt lat="44.81621957807103" lon="9.656215474648723"><ele>541.0</ele><time>2026-05-02T16:45:45.999Z</time></trkpt><trkpt lat="44.81621109380579" lon="9.656068416893726"><ele>539.0</ele><time>2026-05-02T16:45:47.999Z</time></trkpt><trkpt lat="44.816218371250635" lon="9.655955004361392"><ele>537.6</ele><time>2026-05-02T16:45:49.999Z</time></trkpt><trkpt lat="44.81624226661249" lon="9.655824076954074"><ele>536.2</ele><time>2026-05-02T16:45:52.999Z</time></trkpt><trkpt lat="44.81625014994422" lon="9.655707427602566"><ele>534.8000000000001</ele><time>2026-05-02T16:45:56.999Z</time></trkpt><trkpt lat="44.81620976352355" lon="9.65556751892573"><ele>533.4</ele><time>2026-05-02T16:45:58.999Z</time></trkpt><trkpt lat="44.81619572760846" lon="9.655452170239503"><ele>532.0</ele><time>2026-05-02T16:45:59.999Z</time></trkpt><trkpt lat="44.81619347183047" lon="9.655328918934542"><ele>531.6</ele><time>2026-05-02T16:46:00.999Z</time></trkpt><trkpt lat="44.816232230297885" lon="9.655212265079438"><ele>531.2</ele><time>2026-05-02T16:46:01.999Z</time></trkpt><trkpt lat="44.816320163581906" lon="9.655125647030887"><ele>530.8</ele><time>2026-05-02T16:46:02.999Z</time></trkpt><trkpt lat="44.81642928144713" lon="9.655075754766415"><ele>530.4</ele><time>2026-05-02T16:46:03.999Z</time></trkpt><trkpt lat="44.81651228876832" lon="9.654983186272545"><ele>530.0</ele><time>2026-05-02T16:46:04.999Z</time></trkpt><trkpt lat="44.81657403520819" lon="9.654830837357833"><ele>530.0</ele><time>2026-05-02T16:46:05.999Z</time></trkpt><trkpt lat="44.81662341269774" lon="9.654660779240068"><ele>530.0</ele><time>2026-05-02T16:46:06.999Z</time></trkpt><trkpt lat="44.8166487642041" lon="9.654496536413488"><ele>530.0</ele><time>2026-05-02T16:46:07.999Z</time></trkpt><trkpt lat="44.81666339293589" lon="9.65434614658097"><ele>530.0</ele><time>2026-05-02T16:46:08.999Z</time></trkpt><trkpt lat="44.816650487356256" lon="9.654203181559378"><ele>529.6</ele><time>2026-05-02T16:46:09.999Z</time></trkpt><trkpt lat="44.81660989853795" lon="9.654074309124866"><ele>529.2</ele><time>2026-05-02T16:46:10.999Z</time></trkpt><trkpt lat="44.816539970080925" lon="9.653957290802417"><ele>528.8</ele><time>2026-05-02T16:46:11.999Z</time></trkpt><trkpt lat="44.81646751092596" lon="9.653861624810634"><ele>528.4</ele><time>2026-05-02T16:46:12.999Z</time></trkpt><trkpt lat="44.816398205857936" lon="9.653741496328836"><ele>528.0</ele><time>2026-05-02T16:46:14.999Z</time></trkpt><trkpt lat="44.8163716253364" lon="9.653646457362841"><ele>526.8</ele><time>2026-05-02T16:46:16.999Z</time></trkpt><trkpt lat="44.816432838720786" lon="9.653521616788819"><ele>525.5999999999999</ele><time>2026-05-02T16:46:18.999Z</time></trkpt><trkpt lat="44.81651013974396" lon="9.65346632859095"><ele>524.4000000000001</ele><time>2026-05-02T16:46:19.999Z</time></trkpt><trkpt lat="44.81660726229974" lon="9.653417630023922"><ele>523.2</ele><time>2026-05-02T16:46:20.999Z</time></trkpt><trkpt lat="44.816717215929074" lon="9.653343371250976"><ele>522.0</ele><time>2026-05-02T16:46:21.999Z</time></trkpt><trkpt lat="44.81682520464904" lon="9.653287491230317"><ele>521.4</ele><time>2026-05-02T16:46:22.999Z</time></trkpt><trkpt lat="44.81692208478987" lon="9.653238935237281"><ele>520.8000000000001</ele><time>2026-05-02T16:46:23.998Z</time></trkpt><trkpt lat="44.81701051809241" lon="9.6531779368523"><ele>520.2</ele><time>2026-05-02T16:46:24.998Z</time></trkpt><trkpt lat="44.81709337356047" lon="9.65310704036016"><ele>519.6</ele><time>2026-05-02T16:46:25.998Z</time></trkpt><trkpt lat="44.81718204601423" lon="9.653039367740774"><ele>519.0</ele><time>2026-05-02T16:46:26.998Z</time></trkpt><trkpt lat="44.8172848645914" lon="9.652980367119545"><ele>519.0</ele><time>2026-05-02T16:46:27.998Z</time></trkpt><trkpt lat="44.81739277069623" lon="9.652927536806875"><ele>519.0</ele><time>2026-05-02T16:46:28.998Z</time></trkpt><trkpt lat="44.817497225151584" lon="9.652883258707089"><ele>519.0</ele><time>2026-05-02T16:46:29.998Z</time></trkpt><trkpt lat="44.81759641270826" lon="9.652843666312767"><ele>519.0</ele><time>2026-05-02T16:46:30.998Z</time></trkpt><trkpt lat="44.81770008883897" lon="9.652811811122591"><ele>519.0</ele><time>2026-05-02T16:46:31.998Z</time></trkpt><trkpt lat="44.81780365156353" lon="9.6527878418681"><ele>517.6</ele><time>2026-05-02T16:46:32.998Z</time></trkpt><trkpt lat="44.81790796495543" lon="9.652773497616801"><ele>516.2</ele><time>2026-05-02T16:46:33.998Z</time></trkpt><trkpt lat="44.81800578584279" lon="9.652751650115754"><ele>514.8000000000001</ele><time>2026-05-02T16:46:34.998Z</time></trkpt><trkpt lat="44.81809624612214" lon="9.652709108113838"><ele>513.4</ele><time>2026-05-02T16:46:35.998Z</time></trkpt><trkpt lat="44.81817486220325" lon="9.652636915174602"><ele>512.0</ele><time>2026-05-02T16:46:36.998Z</time></trkpt><trkpt lat="44.81824576320459" lon="9.652543157193932"><ele>511.99999999999994</ele><time>2026-05-02T16:46:37.998Z</time></trkpt><trkpt lat="44.81832800047229" lon="9.652453361050108"><ele>512.0</ele><time>2026-05-02T16:46:38.998Z</time></trkpt><trkpt lat="44.818421331596575" lon="9.6523967363393"><ele>512.0</ele><time>2026-05-02T16:46:39.998Z</time></trkpt><trkpt lat="44.81850457646247" lon="9.652359780079507"><ele>512.0</ele><time>2026-05-02T16:46:40.998Z</time></trkpt><trkpt lat="44.81857629700553" lon="9.652322634328923"><ele>511.99999999999994</ele><time>2026-05-02T16:46:41.998Z</time></trkpt><trkpt lat="44.81862686890073" lon="9.65225362337571"><ele>512.0</ele><time>2026-05-02T16:46:42.998Z</time></trkpt><trkpt lat="44.818664537842416" lon="9.652157057300355"><ele>511.49999999999994</ele><time>2026-05-02T16:46:43.998Z</time></trkpt><trkpt lat="44.81869489768379" lon="9.652046143601067"><ele>511.0</ele><time>2026-05-02T16:46:44.998Z</time></trkpt><trkpt lat="44.81874384252153" lon="9.65194066312496"><ele>510.5</ele><time>2026-05-02T16:46:45.998Z</time></trkpt><trkpt lat="44.81881471386476" lon="9.65185608759991"><ele>510.0</ele><time>2026-05-02T16:46:46.998Z</time></trkpt><trkpt lat="44.81889726235034" lon="9.651813032910363"><ele>509.49999999999994</ele><time>2026-05-02T16:46:47.998Z</time></trkpt><trkpt lat="44.81898211161932" lon="9.65180558431472"><ele>509.0</ele><time>2026-05-02T16:46:48.998Z</time></trkpt><trkpt lat="44.819067045463" lon="9.651837339590845"><ele>508.99999999999994</ele><time>2026-05-02T16:46:49.998Z</time></trkpt><trkpt lat="44.81914313244749" lon="9.651892697442392"><ele>509.0</ele><time>2026-05-02T16:46:50.998Z</time></trkpt><trkpt lat="44.819202694013185" lon="9.651971589787602"><ele>509.0</ele><time>2026-05-02T16:46:51.998Z</time></trkpt><trkpt lat="44.81925164242747" lon="9.652058721220248"><ele>509.0</ele><time>2026-05-02T16:46:52.998Z</time></trkpt><trkpt lat="44.819302104569225" lon="9.652156339918"><ele>508.99999999999994</ele><time>2026-05-02T16:46:53.998Z</time></trkpt><trkpt lat="44.81936608978359" lon="9.652280667293562"><ele>509.0</ele><time>2026-05-02T16:46:54.998Z</time></trkpt><trkpt lat="44.81943470836522" lon="9.65238603704053"><ele>505.4</ele><time>2026-05-02T16:46:55.998Z</time></trkpt><trkpt lat="44.819502475584024" lon="9.652476478890469"><ele>501.79999999999995</ele><time>2026-05-02T16:46:56.998Z</time></trkpt><trkpt lat="44.819554135989826" lon="9.652558700129688"><ele>498.20000000000005</ele><time>2026-05-02T16:46:57.998Z</time></trkpt><trkpt lat="44.819642176433725" lon="9.652649337342266"><ele>494.6</ele><time>2026-05-02T16:46:59.998Z</time></trkpt><trkpt lat="44.819735362331514" lon="9.652600634545095"><ele>491.0</ele><time>2026-05-02T16:47:01.998Z</time></trkpt><trkpt lat="44.819780918754816" lon="9.652455728346846"><ele>491.0</ele><time>2026-05-02T16:47:04Z</time></trkpt><trkpt lat="44.8197566063189" lon="9.652357637947302"><ele>491.0</ele><time>2026-05-02T16:47:05Z</time></trkpt><trkpt lat="44.8197209840093" lon="9.652249220558629"><ele>491.0</ele><time>2026-05-02T16:47:06Z</time></trkpt><trkpt lat="44.81967469201693" lon="9.652100537609117"><ele>491.0</ele><time>2026-05-02T16:47:07Z</time></trkpt><trkpt lat="44.819635716777235" lon="9.651938097352346"><ele>491.0</ele><time>2026-05-02T16:47:08Z</time></trkpt><trkpt lat="44.8196219933999" lon="9.651796549505566"><ele>489.8333333333333</ele><time>2026-05-02T16:47:09Z</time></trkpt><trkpt lat="44.81961114794693" lon="9.651666373807542"><ele>488.66666666666663</ele><time>2026-05-02T16:47:10Z</time></trkpt><trkpt lat="44.81960371149707" lon="9.651577836036376"><ele>487.5</ele><time>2026-05-02T16:47:11Z</time></trkpt><trkpt lat="44.81967425106952" lon="9.651434477529339"><ele>486.33333333333337</ele><time>2026-05-02T16:47:13Z</time></trkpt><trkpt lat="44.81974299349746" lon="9.651384891862524"><ele>485.1666666666667</ele><time>2026-05-02T16:47:14Z</time></trkpt><trkpt lat="44.819820045386564" lon="9.65136194826775"><ele>484.0</ele><time>2026-05-02T16:47:15Z</time></trkpt><trkpt lat="44.819901811259335" lon="9.651393076464673"><ele>484.0</ele><time>2026-05-02T16:47:16Z</time></trkpt><trkpt lat="44.81997139028264" lon="9.651471620947035"><ele>484.0</ele><time>2026-05-02T16:47:17Z</time></trkpt><trkpt lat="44.820041749092404" lon="9.651583884366786"><ele>484.0</ele><time>2026-05-02T16:47:18Z</time></trkpt><trkpt lat="44.82011753205662" lon="9.651729366098445"><ele>484.0</ele><time>2026-05-02T16:47:19Z</time></trkpt><trkpt lat="44.82020655575844" lon="9.651893386917745"><ele>481.75</ele><time>2026-05-02T16:47:20Z</time></trkpt><trkpt lat="44.82028547966378" lon="9.65204624845474"><ele>479.5</ele><time>2026-05-02T16:47:21Z</time></trkpt><trkpt lat="44.820352442218635" lon="9.652192737102487"><ele>477.25</ele><time>2026-05-02T16:47:22Z</time></trkpt><trkpt lat="44.82042150468254" lon="9.652326573753335"><ele>475.0</ele><time>2026-05-02T16:47:23Z</time></trkpt><trkpt lat="44.82050064537078" lon="9.652450752301169"><ele>475.0</ele><time>2026-05-02T16:47:24Z</time></trkpt><trkpt lat="44.82056801203222" lon="9.652572235017866"><ele>475.0</ele><time>2026-05-02T16:47:25Z</time></trkpt><trkpt lat="44.82064223677461" lon="9.652690875010965"><ele>475.0</ele><time>2026-05-02T16:47:26Z</time></trkpt><trkpt lat="44.82071479658373" lon="9.65280866512966"><ele>475.0</ele><time>2026-05-02T16:47:27Z</time></trkpt><trkpt lat="44.82076640596354" lon="9.652917150023352"><ele>475.0</ele><time>2026-05-02T16:47:28Z</time></trkpt><trkpt lat="44.82081180262771" lon="9.65299958686604"><ele>475.00000000000006</ele><time>2026-05-02T16:47:29Z</time></trkpt><trkpt lat="44.82090729379647" lon="9.653074474485976"><ele>475.0</ele><time>2026-05-02T16:47:31Z</time></trkpt><trkpt lat="44.820975338804416" lon="9.653040377942508"><ele>475.0</ele><time>2026-05-02T16:47:32Z</time></trkpt><trkpt lat="44.82103830608279" lon="9.652985084558201"><ele>475.0</ele><time>2026-05-02T16:47:33Z</time></trkpt><trkpt lat="44.82110171711463" lon="9.652895782641734"><ele>475.00000000000006</ele><time>2026-05-02T16:47:34Z</time></trkpt><trkpt lat="44.82118567689089" lon="9.652814881509446"><ele>475.0</ele><time>2026-05-02T16:47:35Z</time></trkpt><trkpt lat="44.82126822753497" lon="9.652732146822704"><ele>472.25</ele><time>2026-05-02T16:47:36Z</time></trkpt><trkpt lat="44.821326499975896" lon="9.652621239197941"><ele>469.5</ele><time>2026-05-02T16:47:37Z</time></trkpt><trkpt lat="44.82136591226502" lon="9.652485706712334"><ele>466.75</ele><time>2026-05-02T16:47:38Z</time></trkpt><trkpt lat="44.821402600487495" lon="9.65230533949963"><ele>464.0</ele><time>2026-05-02T16:47:39Z</time></trkpt><trkpt lat="44.82146048965649" lon="9.652100843229897"><ele>464.5</ele><time>2026-05-02T16:47:40Z</time></trkpt><trkpt lat="44.821522323957545" lon="9.651916787638841"><ele>465.0</ele><time>2026-05-02T16:47:41Z</time></trkpt><trkpt lat="44.82158571056164" lon="9.65175261038496"><ele>465.5</ele><time>2026-05-02T16:47:42Z</time></trkpt><trkpt lat="44.821653287459974" lon="9.651600060516547"><ele>466.0</ele><time>2026-05-02T16:47:43Z</time></trkpt><trkpt lat="44.82171599536707" lon="9.651452339675787"><ele>466.0</ele><time>2026-05-02T16:47:43.999Z</time></trkpt><trkpt lat="44.82177471423189" lon="9.651333538288759"><ele>466.0</ele><time>2026-05-02T16:47:44.999Z</time></trkpt><trkpt lat="44.821829327575486" lon="9.651251721827304"><ele>466.0</ele><time>2026-05-02T16:47:45.999Z</time></trkpt><trkpt lat="44.82190595852764" lon="9.651197218066018"><ele>466.0</ele><time>2026-05-02T16:47:46.999Z</time></trkpt><trkpt lat="44.822007925662454" lon="9.651166253103426"><ele>466.0</ele><time>2026-05-02T16:47:47.999Z</time></trkpt><trkpt lat="44.82213137670553" lon="9.651139916714643"><ele>463.5</ele><time>2026-05-02T16:47:48.999Z</time></trkpt><trkpt lat="44.82226417212298" lon="9.651105226475874"><ele>461.0</ele><time>2026-05-02T16:47:49.999Z</time></trkpt><trkpt lat="44.82240997541746" lon="9.651057115614195"><ele>458.5</ele><time>2026-05-02T16:47:50.999Z</time></trkpt><trkpt lat="44.82256248747588" lon="9.65100104106291"><ele>456.0</ele><time>2026-05-02T16:47:51.999Z</time></trkpt><trkpt lat="44.82269938918579" lon="9.650961604908959"><ele>456.0</ele><time>2026-05-02T16:47:52.999Z</time></trkpt><trkpt lat="44.82282977070173" lon="9.650934314263994"><ele>456.0</ele><time>2026-05-02T16:47:53.999Z</time></trkpt><trkpt lat="44.82295832979023" lon="9.65090471044799"><ele>456.0</ele><time>2026-05-02T16:47:54.999Z</time></trkpt><trkpt lat="44.82306973897139" lon="9.650873364855611"><ele>456.0</ele><time>2026-05-02T16:47:55.999Z</time></trkpt><trkpt lat="44.82318029201619" lon="9.650854602543767"><ele>456.0</ele><time>2026-05-02T16:47:56.999Z</time></trkpt><trkpt lat="44.82330122284498" lon="9.650837010818782"><ele>456.0</ele><time>2026-05-02T16:47:57.999Z</time></trkpt><trkpt lat="44.82342916964826" lon="9.650804257330385"><ele>456.0</ele><time>2026-05-02T16:47:58.999Z</time></trkpt><trkpt lat="44.82356312794099" lon="9.650756863411395"><ele>456.0</ele><time>2026-05-02T16:47:59.999Z</time></trkpt><trkpt lat="44.82370000135303" lon="9.650698270494523"><ele>456.25</ele><time>2026-05-02T16:48:00.999Z</time></trkpt><trkpt lat="44.82383201087613" lon="9.650629941178506"><ele>456.5</ele><time>2026-05-02T16:48:01.999Z</time></trkpt><trkpt lat="44.82395960828052" lon="9.650552840483893"><ele>456.75</ele><time>2026-05-02T16:48:02.999Z</time></trkpt><trkpt lat="44.824075691206026" lon="9.650469097664828"><ele>457.0</ele><time>2026-05-02T16:48:03.999Z</time></trkpt><trkpt lat="44.82419024221105" lon="9.650383547853101"><ele>457.0</ele><time>2026-05-02T16:48:04.999Z</time></trkpt><trkpt lat="44.82431166566381" lon="9.650319049335705"><ele>457.0</ele><time>2026-05-02T16:48:05.999Z</time></trkpt><trkpt lat="44.82443599945309" lon="9.65027531039597"><ele>457.0</ele><time>2026-05-02T16:48:06.999Z</time></trkpt><trkpt lat="44.824562872892685" lon="9.650250096590584"><ele>457.0</ele><time>2026-05-02T16:48:07.999Z</time></trkpt><trkpt lat="44.824686318699015" lon="9.650244406475016"><ele>456.6</ele><time>2026-05-02T16:48:08.999Z</time></trkpt><trkpt lat="44.82480191152993" lon="9.65025709626101"><ele>456.20000000000005</ele><time>2026-05-02T16:48:09.999Z</time></trkpt><trkpt lat="44.824906023833485" lon="9.650251674790855"><ele>455.8</ele><time>2026-05-02T16:48:10.999Z</time></trkpt><trkpt lat="44.82501336766263" lon="9.650216111952012"><ele>455.4</ele><time>2026-05-02T16:48:11.999Z</time></trkpt><trkpt lat="44.8251158722928" lon="9.650164919701965"><ele>455.0</ele><time>2026-05-02T16:48:12.999Z</time></trkpt><trkpt lat="44.825216754618005" lon="9.650112087329687"><ele>455.0</ele><time>2026-05-02T16:48:13.999Z</time></trkpt><trkpt lat="44.82532188971811" lon="9.650047468262528"><ele>455.0</ele><time>2026-05-02T16:48:14.999Z</time></trkpt><trkpt lat="44.82541902606605" lon="9.649969693239663"><ele>455.0</ele><time>2026-05-02T16:48:15.999Z</time></trkpt><trkpt lat="44.82551232617452" lon="9.649890942769483"><ele>455.0</ele><time>2026-05-02T16:48:16.999Z</time></trkpt><trkpt lat="44.825607016719076" lon="9.649833757984531"><ele>455.0</ele><time>2026-05-02T16:48:17.999Z</time></trkpt><trkpt lat="44.825709674934" lon="9.64980854309155"><ele>455.0</ele><time>2026-05-02T16:48:18.999Z</time></trkpt><trkpt lat="44.825825069149765" lon="9.649826785896055"><ele>455.0</ele><time>2026-05-02T16:48:19.999Z</time></trkpt><trkpt lat="44.825944633923385" lon="9.649861470710219"><ele>455.0</ele><time>2026-05-02T16:48:20.999Z</time></trkpt><trkpt lat="44.82605421991605" lon="9.649893938682892"><ele>455.0</ele><time>2026-05-02T16:48:21.999Z</time></trkpt><trkpt lat="44.82615749905455" lon="9.649898289925332"><ele>454.25</ele><time>2026-05-02T16:48:22.999Z</time></trkpt><trkpt lat="44.826263778544096" lon="9.649865406729196"><ele>453.5</ele><time>2026-05-02T16:48:23.999Z</time></trkpt><trkpt lat="44.826382255379016" lon="9.64981988385064"><ele>452.75</ele><time>2026-05-02T16:48:24.999Z</time></trkpt><trkpt lat="44.82650246096421" lon="9.649769598831961"><ele>452.0</ele><time>2026-05-02T16:48:25.999Z</time></trkpt><trkpt lat="44.82662441293386" lon="9.649726746699214"><ele>452.0</ele><time>2026-05-02T16:48:26.999Z</time></trkpt><trkpt lat="44.82673857552183" lon="9.64969831189951"><ele>452.0</ele><time>2026-05-02T16:48:27.999Z</time></trkpt><trkpt lat="44.82684613493477" lon="9.649660646365035"><ele>452.0</ele><time>2026-05-02T16:48:28.999Z</time></trkpt><trkpt lat="44.8269449725591" lon="9.649585682089311"><ele>452.0</ele><time>2026-05-02T16:48:29.999Z</time></trkpt><trkpt lat="44.827044048794725" lon="9.649485937183709"><ele>453.0</ele><time>2026-05-02T16:48:30.999Z</time></trkpt><trkpt lat="44.82714424365137" lon="9.64938654594301"><ele>454.0</ele><time>2026-05-02T16:48:31.999Z</time></trkpt><trkpt lat="44.82724942828065" lon="9.64929714179875"><ele>455.0</ele><time>2026-05-02T16:48:32.999Z</time></trkpt><trkpt lat="44.8273536745184" lon="9.649226487773268"><ele>456.0</ele><time>2026-05-02T16:48:33.998Z</time></trkpt><trkpt lat="44.82745344009208" lon="9.649174771640858"><ele>456.0</ele><time>2026-05-02T16:48:34.998Z</time></trkpt><trkpt lat="44.82754603464722" lon="9.649135208618704"><ele>456.0</ele><time>2026-05-02T16:48:35.998Z</time></trkpt><trkpt lat="44.82764162605939" lon="9.649105623140793"><ele>456.0</ele><time>2026-05-02T16:48:36.998Z</time></trkpt><trkpt lat="44.82773978663429" lon="9.649089363248628"><ele>456.0</ele><time>2026-05-02T16:48:37.998Z</time></trkpt><trkpt lat="44.827840632310846" lon="9.649082376732249"><ele>456.0</ele><time>2026-05-02T16:48:38.998Z</time></trkpt><trkpt lat="44.82793163416943" lon="9.649077482374723"><ele>457.6666666666667</ele><time>2026-05-02T16:48:39.998Z</time></trkpt><trkpt lat="44.828008945340756" lon="9.649058901763532"><ele>459.33333333333337</ele><time>2026-05-02T16:48:40.998Z</time></trkpt><trkpt lat="44.828086811704544" lon="9.64902102369146"><ele>461.0</ele><time>2026-05-02T16:48:41.998Z</time></trkpt><trkpt lat="44.82815294952346" lon="9.648951737912174"><ele>462.6666666666667</ele><time>2026-05-02T16:48:42.998Z</time></trkpt><trkpt lat="44.828210382151816" lon="9.648855721526312"><ele>464.33333333333337</ele><time>2026-05-02T16:48:43.998Z</time></trkpt><trkpt lat="44.82827709012565" lon="9.648777565190509"><ele>466.0</ele><time>2026-05-02T16:48:44.998Z</time></trkpt><trkpt lat="44.82835442004559" lon="9.648721159648364"><ele>466.00000000000006</ele><time>2026-05-02T16:48:45.998Z</time></trkpt><trkpt lat="44.82844207785574" lon="9.648689898703765"><ele>466.0</ele><time>2026-05-02T16:48:46.998Z</time></trkpt><trkpt lat="44.8285209614099" lon="9.648683494075957"><ele>466.0</ele><time>2026-05-02T16:48:47.998Z</time></trkpt><trkpt lat="44.82859597275222" lon="9.648698475279774"><ele>466.0</ele><time>2026-05-02T16:48:48.998Z</time></trkpt><trkpt lat="44.82867124095778" lon="9.648698820279504"><ele>466.00000000000006</ele><time>2026-05-02T16:48:49.998Z</time></trkpt><trkpt lat="44.82872882468556" lon="9.648656164023768"><ele>466.0</ele><time>2026-05-02T16:48:50.998Z</time></trkpt><trkpt lat="44.82878251154496" lon="9.648584782431596"><ele>468.33333333333337</ele><time>2026-05-02T16:48:51.998Z</time></trkpt><trkpt lat="44.82884591137513" lon="9.648507345419434"><ele>470.6666666666667</ele><time>2026-05-02T16:48:52.998Z</time></trkpt><trkpt lat="44.828906711649005" lon="9.648456334962344"><ele>473.0</ele><time>2026-05-02T16:48:53.998Z</time></trkpt><trkpt lat="44.8289861908943" lon="9.64840485392906"><ele>475.33333333333337</ele><time>2026-05-02T16:48:55.998Z</time></trkpt><trkpt lat="44.829075316337786" lon="9.648334631652933"><ele>477.6666666666667</ele><time>2026-05-02T16:48:57.998Z</time></trkpt><trkpt lat="44.82916227836856" lon="9.648252074091584"><ele>480.0</ele><time>2026-05-02T16:48:59.998Z</time></trkpt><trkpt lat="44.82924346518923" lon="9.648179140100199"><ele>479.6666666666667</ele><time>2026-05-02T16:49:01.998Z</time></trkpt><trkpt lat="44.82932477721181" lon="9.6481040836361"><ele>479.33333333333337</ele><time>2026-05-02T16:49:03.998Z</time></trkpt><trkpt lat="44.82940435670708" lon="9.648036687757015"><ele>479.0</ele><time>2026-05-02T16:49:05.998Z</time></trkpt><trkpt lat="44.82948741772414" lon="9.647980731721894"><ele>478.6666666666667</ele><time>2026-05-02T16:49:07.998Z</time></trkpt><trkpt lat="44.829555406580354" lon="9.647931820065862"><ele>478.33333333333337</ele><time>2026-05-02T16:49:10Z</time></trkpt><trkpt lat="44.82961911252324" lon="9.647883127955174"><ele>478.0</ele><time>2026-05-02T16:49:12Z</time></trkpt><trkpt lat="44.82967836068181" lon="9.64784343569715"><ele>478.0</ele><time>2026-05-02T16:49:14Z</time></trkpt><trkpt lat="44.82974697709288" lon="9.647798717046557"><ele>477.99999999999994</ele><time>2026-05-02T16:49:17Z</time></trkpt><trkpt lat="44.82982443967291" lon="9.64774234569249"><ele>477.99999999999994</ele><time>2026-05-02T16:49:20Z</time></trkpt><trkpt lat="44.82991828585419" lon="9.647651224129667"><ele>478.0</ele><time>2026-05-02T16:49:23Z</time></trkpt><trkpt lat="44.830020186136444" lon="9.647584576712921"><ele>478.0</ele><time>2026-05-02T16:49:25Z</time></trkpt><trkpt lat="44.83013917549831" lon="9.647510332421833"><ele>479.2</ele><time>2026-05-02T16:49:27Z</time></trkpt><trkpt lat="44.830217142366976" lon="9.647475863867676"><ele>480.4</ele><time>2026-05-02T16:49:28Z</time></trkpt><trkpt lat="44.83029595474879" lon="9.647428607929724"><ele>481.59999999999997</ele><time>2026-05-02T16:49:29Z</time></trkpt><trkpt lat="44.83038371344555" lon="9.64735540379359"><ele>482.79999999999995</ele><time>2026-05-02T16:49:30Z</time></trkpt><trkpt lat="44.83048081464537" lon="9.64725610055206"><ele>484.0</ele><time>2026-05-02T16:49:31Z</time></trkpt><trkpt lat="44.83057743924487" lon="9.64715282668395"><ele>484.0</ele><time>2026-05-02T16:49:32Z</time></trkpt><trkpt lat="44.830682077750275" lon="9.647043211873081"><ele>484.0</ele><time>2026-05-02T16:49:33Z</time></trkpt><trkpt lat="44.83078911988506" lon="9.64694033427307"><ele>484.0</ele><time>2026-05-02T16:49:34Z</time></trkpt><trkpt lat="44.83090696832253" lon="9.646836272155873"><ele>484.0</ele><time>2026-05-02T16:49:35Z</time></trkpt><trkpt lat="44.83103328893982" lon="9.646717216893483"><ele>486.33333333333337</ele><time>2026-05-02T16:49:36Z</time></trkpt><trkpt lat="44.83117518355301" lon="9.646587560600283"><ele>488.66666666666663</ele><time>2026-05-02T16:49:37Z</time></trkpt><trkpt lat="44.831318937953775" lon="9.646476903791498"><ele>491.0</ele><time>2026-05-02T16:49:38Z</time></trkpt><trkpt lat="44.831450102345485" lon="9.646397322372392"><ele>491.0</ele><time>2026-05-02T16:49:39Z</time></trkpt><trkpt lat="44.831593757222194" lon="9.646328771514389"><ele>491.0</ele><time>2026-05-02T16:49:40Z</time></trkpt><trkpt lat="44.831755757876174" lon="9.646263318838367"><ele>491.0</ele><time>2026-05-02T16:49:41Z</time></trkpt><trkpt lat="44.83191890292889" lon="9.646210488154491"><ele>493.0</ele><time>2026-05-02T16:49:42Z</time></trkpt><trkpt lat="44.832083500544265" lon="9.646161123577341"><ele>495.0</ele><time>2026-05-02T16:49:43Z</time></trkpt><trkpt lat="44.832271187249994" lon="9.646112797425095"><ele>497.0</ele><time>2026-05-02T16:49:44Z</time></trkpt><trkpt lat="44.8324641333608" lon="9.646091659077364"><ele>498.0</ele><time>2026-05-02T16:49:45Z</time></trkpt><trkpt lat="44.832637201680775" lon="9.646085992296209"><ele>499.0</ele><time>2026-05-02T16:49:46Z</time></trkpt><trkpt lat="44.83278620392546" lon="9.64606769363831"><ele>500.0</ele><time>2026-05-02T16:49:46.999Z</time></trkpt><trkpt lat="44.832921432003104" lon="9.646031219735182"><ele>502.0</ele><time>2026-05-02T16:49:47.999Z</time></trkpt><trkpt lat="44.83306274937013" lon="9.64597392545913"><ele>504.0</ele><time>2026-05-02T16:49:48.999Z</time></trkpt><trkpt lat="44.833194341792186" lon="9.645896686365651"><ele>506.0</ele><time>2026-05-02T16:49:49.999Z</time></trkpt><trkpt lat="44.8333228028379" lon="9.645789793364427"><ele>508.0</ele><time>2026-05-02T16:49:50.999Z</time></trkpt><trkpt lat="44.83346199802314" lon="9.645658126061608"><ele>511.6666666666667</ele><time>2026-05-02T16:49:51.999Z</time></trkpt><trkpt lat="44.8336111841516" lon="9.645502207787048"><ele>515.3333333333334</ele><time>2026-05-02T16:49:52.999Z</time></trkpt><trkpt lat="44.83374823802987" lon="9.645367066611504"><ele>519.0</ele><time>2026-05-02T16:49:53.999Z</time></trkpt><trkpt lat="44.833861510430566" lon="9.645259336098746"><ele>519.25</ele><time>2026-05-02T16:49:54.999Z</time></trkpt><trkpt lat="44.833978943623755" lon="9.645159499723404"><ele>519.5</ele><time>2026-05-02T16:49:55.999Z</time></trkpt><trkpt lat="44.834107906970935" lon="9.645080776186914"><ele>519.75</ele><time>2026-05-02T16:49:56.999Z</time></trkpt><trkpt lat="44.83424484895018" lon="9.645005782474687"><ele>520.0</ele><time>2026-05-02T16:49:57.999Z</time></trkpt><trkpt lat="44.834377760998066" lon="9.644930512001878"><ele>523.25</ele><time>2026-05-02T16:49:58.999Z</time></trkpt><trkpt lat="44.83449769725088" lon="9.64485811096233"><ele>526.5</ele><time>2026-05-02T16:49:59.999Z</time></trkpt><trkpt lat="44.834600317013944" lon="9.644778418167967"><ele>529.75</ele><time>2026-05-02T16:50:00.999Z</time></trkpt><trkpt lat="44.834683557907134" lon="9.644668122627333"><ele>533.0</ele><time>2026-05-02T16:50:01.999Z</time></trkpt><trkpt lat="44.83474582543222" lon="9.644525031500962"><ele>532.5</ele><time>2026-05-02T16:50:02.999Z</time></trkpt><trkpt lat="44.83480653718046" lon="9.64435910753466"><ele>532.0</ele><time>2026-05-02T16:50:03.999Z</time></trkpt><trkpt lat="44.83488215913845" lon="9.644183932703125"><ele>531.5</ele><time>2026-05-02T16:50:04.999Z</time></trkpt><trkpt lat="44.834978582357834" lon="9.644009599043548"><ele>531.0</ele><time>2026-05-02T16:50:05.999Z</time></trkpt><trkpt lat="44.83507128901445" lon="9.64385020618104"><ele>532.5</ele><time>2026-05-02T16:50:06.999Z</time></trkpt><trkpt lat="44.83513769101091" lon="9.643724349249464"><ele>534.0</ele><time>2026-05-02T16:50:07.999Z</time></trkpt><trkpt lat="44.83517151423479" lon="9.643643905274406"><ele>535.5</ele><time>2026-05-02T16:50:08.999Z</time></trkpt><trkpt lat="44.83519448563904" lon="9.643556772487559"><ele>537.0</ele><time>2026-05-02T16:50:10.999Z</time></trkpt><trkpt lat="44.835229053724966" lon="9.643458817469677"><ele>538.5</ele><time>2026-05-02T16:50:12.999Z</time></trkpt><trkpt lat="44.83528210182265" lon="9.6433239181338"><ele>540.0</ele><time>2026-05-02T16:50:14.999Z</time></trkpt><trkpt lat="44.83535913525586" lon="9.643175001340222"><ele>540.0</ele><time>2026-05-02T16:50:16.999Z</time></trkpt><trkpt lat="44.835412114021516" lon="9.64310197439687"><ele>540.0</ele><time>2026-05-02T16:50:17.999Z</time></trkpt><trkpt lat="44.83546761601636" lon="9.643026403133213"><ele>540.0</ele><time>2026-05-02T16:50:18.999Z</time></trkpt><trkpt lat="44.83551215523736" lon="9.642959996791829"><ele>540.0</ele><time>2026-05-02T16:50:19.999Z</time></trkpt><trkpt lat="44.835577284241616" lon="9.642915285166822"><ele>540.0</ele><time>2026-05-02T16:50:21.999Z</time></trkpt><trkpt lat="44.83563490027142" lon="9.642994997916613"><ele>540.0</ele><time>2026-05-02T16:50:23.999Z</time></trkpt><trkpt lat="44.83564409104244" lon="9.643094249659143"><ele>540.0</ele><time>2026-05-02T16:50:49.998Z</time></trkpt><trkpt lat="44.83568701445983" lon="9.64321459366306"><ele>540.0</ele><time>2026-05-02T16:50:51.998Z</time></trkpt><trkpt lat="44.835710546098525" lon="9.643322238189896"><ele>540.0</ele><time>2026-05-02T16:50:52.998Z</time></trkpt><trkpt lat="44.83573153080655" lon="9.64345253342075"><ele>540.0</ele><time>2026-05-02T16:50:53.998Z</time></trkpt><trkpt lat="44.835749910946696" lon="9.643595180889935"><ele>540.0</ele><time>2026-05-02T16:50:54.998Z</time></trkpt><trkpt lat="44.835771296748725" lon="9.643801799814238"><ele>540.0</ele><time>2026-05-02T16:50:55.998Z</time></trkpt><trkpt lat="44.83578403107" lon="9.644005271924001"><ele>540.5</ele><time>2026-05-02T16:50:56.998Z</time></trkpt><trkpt lat="44.8358175369152" lon="9.644187951602685"><ele>541.0</ele><time>2026-05-02T16:50:57.998Z</time></trkpt><trkpt lat="44.83585772342747" lon="9.644366498563514"><ele>541.5</ele><time>2026-05-02T16:50:58.998Z</time></trkpt><trkpt lat="44.83589535993272" lon="9.64453996086718"><ele>542.0</ele><time>2026-05-02T16:50:59.998Z</time></trkpt><trkpt lat="44.835931761575594" lon="9.644723521345863"><ele>542.2</ele><time>2026-05-02T16:51:00.998Z</time></trkpt><trkpt lat="44.83595940702887" lon="9.644898293951542"><ele>542.4000000000001</ele><time>2026-05-02T16:51:01.998Z</time></trkpt><trkpt lat="44.83597959108351" lon="9.645048923990721"><ele>542.5999999999999</ele><time>2026-05-02T16:51:02.998Z</time></trkpt><trkpt lat="44.835998733637595" lon="9.645196579086257"><ele>542.8</ele><time>2026-05-02T16:51:03.998Z</time></trkpt><trkpt lat="44.83601573293117" lon="9.645333549826445"><ele>543.0</ele><time>2026-05-02T16:51:04.998Z</time></trkpt><trkpt lat="44.83603734488348" lon="9.64546872685765"><ele>541.8</ele><time>2026-05-02T16:51:05.998Z</time></trkpt><trkpt lat="44.836061986911865" lon="9.645603270726953"><ele>540.5999999999999</ele><time>2026-05-02T16:51:06.998Z</time></trkpt><trkpt lat="44.83608595391016" lon="9.645742823248508"><ele>539.4000000000001</ele><time>2026-05-02T16:51:07.998Z</time></trkpt><trkpt lat="44.836107952154016" lon="9.645885973671412"><ele>538.2</ele><time>2026-05-02T16:51:08.998Z</time></trkpt><trkpt lat="44.83612286821696" lon="9.646034268515438"><ele>537.0</ele><time>2026-05-02T16:51:09.998Z</time></trkpt><trkpt lat="44.83612659318045" lon="9.646194326037252"><ele>537.0</ele><time>2026-05-02T16:51:10.998Z</time></trkpt><trkpt lat="44.83613170177761" lon="9.646370417070425"><ele>537.0</ele><time>2026-05-02T16:51:11.998Z</time></trkpt><trkpt lat="44.83614024203669" lon="9.646560834871773"><ele>537.0</ele><time>2026-05-02T16:51:12.998Z</time></trkpt><trkpt lat="44.83615369920352" lon="9.646764661264777"><ele>537.0</ele><time>2026-05-02T16:51:13.998Z</time></trkpt><trkpt lat="44.83617271141277" lon="9.64697696362373"><ele>537.0</ele><time>2026-05-02T16:51:15Z</time></trkpt><trkpt lat="44.83620012579488" lon="9.647200947537804"><ele>537.0</ele><time>2026-05-02T16:51:16Z</time></trkpt><trkpt lat="44.836223325182274" lon="9.647427435196034"><ele>537.0</ele><time>2026-05-02T16:51:17Z</time></trkpt><trkpt lat="44.83623968091077" lon="9.647661178630825"><ele>539.0</ele><time>2026-05-02T16:51:18Z</time></trkpt><trkpt lat="44.83624938835883" lon="9.647898163419203"><ele>541.0</ele><time>2026-05-02T16:51:19Z</time></trkpt><trkpt lat="44.83624799300362" lon="9.648146893530235"><ele>543.0</ele><time>2026-05-02T16:51:20Z</time></trkpt><trkpt lat="44.83623018990864" lon="9.648376658796344"><ele>543.0</ele><time>2026-05-02T16:51:21Z</time></trkpt><trkpt lat="44.83620391472969" lon="9.648587876368593"><ele>543.0</ele><time>2026-05-02T16:51:22Z</time></trkpt><trkpt lat="44.83618676005227" lon="9.648804729498107"><ele>543.0</ele><time>2026-05-02T16:51:23Z</time></trkpt><trkpt lat="44.8361787583613" lon="9.649005372556422"><ele>543.0</ele><time>2026-05-02T16:51:24Z</time></trkpt><trkpt lat="44.836190715358924" lon="9.649194379573755"><ele>543.25</ele><time>2026-05-02T16:51:25Z</time></trkpt><trkpt lat="44.8362272571673" lon="9.649377047922638"><ele>543.5</ele><time>2026-05-02T16:51:26Z</time></trkpt><trkpt lat="44.83630165719303" lon="9.649551939637846"><ele>543.75</ele><time>2026-05-02T16:51:27Z</time></trkpt><trkpt lat="44.83640114006967" lon="9.649723593377033"><ele>544.0</ele><time>2026-05-02T16:51:28Z</time></trkpt><trkpt lat="44.83649277728454" lon="9.64990223416305"><ele>544.0</ele><time>2026-05-02T16:51:29Z</time></trkpt><trkpt lat="44.83657299313355" lon="9.65008087634902"><ele>544.0</ele><time>2026-05-02T16:51:30Z</time></trkpt><trkpt lat="44.836646617030326" lon="9.650259444727588"><ele>544.0</ele><time>2026-05-02T16:51:31Z</time></trkpt><trkpt lat="44.836699596801985" lon="9.650411532425004"><ele>544.0</ele><time>2026-05-02T16:51:32Z</time></trkpt><trkpt lat="44.83675129686649" lon="9.650524355399236"><ele>539.4</ele><time>2026-05-02T16:51:33Z</time></trkpt><trkpt lat="44.836819208465045" lon="9.650600358024146"><ele>534.8</ele><time>2026-05-02T16:51:34Z</time></trkpt><trkpt lat="44.836905530342285" lon="9.650640786940546"><ele>530.2</ele><time>2026-05-02T16:51:35Z</time></trkpt><trkpt lat="44.837014252502684" lon="9.65061910457324"><ele>525.6</ele><time>2026-05-02T16:51:36Z</time></trkpt><trkpt lat="44.837132217022074" lon="9.65056796620604"><ele>521.0</ele><time>2026-05-02T16:51:37Z</time></trkpt><trkpt lat="44.837232763716905" lon="9.650525621901279"><ele>521.0</ele><time>2026-05-02T16:51:38Z</time></trkpt><trkpt lat="44.83730161466269" lon="9.650518121030345"><ele>521.0</ele><time>2026-05-02T16:51:39Z</time></trkpt><trkpt lat="44.83737306193229" lon="9.65060937391247"><ele>521.0</ele><time>2026-05-02T16:51:41Z</time></trkpt><trkpt lat="44.83736115836586" lon="9.650700346778564"><ele>521.0</ele><time>2026-05-02T16:51:42Z</time></trkpt><trkpt lat="44.837299543374705" lon="9.650767869747012"><ele>521.0</ele><time>2026-05-02T16:51:43Z</time></trkpt><trkpt lat="44.8372023459865" lon="9.650789279510079"><ele>521.0</ele><time>2026-05-02T16:51:44Z</time></trkpt><trkpt lat="44.837096644949156" lon="9.65081140766217"><ele>521.0</ele><time>2026-05-02T16:51:45Z</time></trkpt><trkpt lat="44.83699847959335" lon="9.650886158755707"><ele>521.0</ele><time>2026-05-02T16:51:46Z</time></trkpt><trkpt lat="44.836906035761295" lon="9.651018117783368"><ele>521.0</ele><time>2026-05-02T16:51:47Z</time></trkpt><trkpt lat="44.83683639304391" lon="9.65116506079558"><ele>521.0</ele><time>2026-05-02T16:51:48Z</time></trkpt><trkpt lat="44.836759676105615" lon="9.65131181692629"><ele>517.6666666666666</ele><time>2026-05-02T16:51:49Z</time></trkpt><trkpt lat="44.83670880763263" lon="9.651481572780025"><ele>514.3333333333334</ele><time>2026-05-02T16:51:50Z</time></trkpt><trkpt lat="44.836695664326" lon="9.65170673440606"><ele>511.0</ele><time>2026-05-02T16:51:51Z</time></trkpt><trkpt lat="44.836703225439905" lon="9.651972255782582"><ele>510.5</ele><time>2026-05-02T16:51:52Z</time></trkpt><trkpt lat="44.83672084561409" lon="9.652205818797514"><ele>510.0</ele><time>2026-05-02T16:51:53Z</time></trkpt><trkpt lat="44.8367364847537" lon="9.652407886977393"><ele>509.5</ele><time>2026-05-02T16:51:53.999Z</time></trkpt><trkpt lat="44.836740583429965" lon="9.652568127648284"><ele>509.0</ele><time>2026-05-02T16:51:54.999Z</time></trkpt><trkpt lat="44.836739812624835" lon="9.652697720172489"><ele>509.16666666666663</ele><time>2026-05-02T16:51:55.999Z</time></trkpt><trkpt lat="44.8367385069927" lon="9.652817191464568"><ele>509.3333333333333</ele><time>2026-05-02T16:51:56.999Z</time></trkpt><trkpt lat="44.83674200209371" lon="9.652936684158561"><ele>509.5</ele><time>2026-05-02T16:51:57.999Z</time></trkpt><trkpt lat="44.83674928076336" lon="9.653052986272911"><ele>509.66666666666663</ele><time>2026-05-02T16:51:58.999Z</time></trkpt><trkpt lat="44.83676865019158" lon="9.65317069486751"><ele>509.8333333333333</ele><time>2026-05-02T16:51:59.999Z</time></trkpt><trkpt lat="44.83681221859455" lon="9.653293289787594"><ele>510.0</ele><time>2026-05-02T16:52:00.999Z</time></trkpt><trkpt lat="44.83688705733051" lon="9.653401162972205"><ele>510.0</ele><time>2026-05-02T16:52:01.999Z</time></trkpt><trkpt lat="44.83697567256975" lon="9.65351371990941"><ele>510.0</ele><time>2026-05-02T16:52:02.999Z</time></trkpt><trkpt lat="44.837081801539604" lon="9.653633426949263"><ele>510.0</ele><time>2026-05-02T16:52:03.999Z</time></trkpt><trkpt lat="44.83717484388768" lon="9.653735788307186"><ele>510.0</ele><time>2026-05-02T16:52:04.999Z</time></trkpt><trkpt lat="44.83726477367499" lon="9.653840069906057"><ele>512.5</ele><time>2026-05-02T16:52:05.999Z</time></trkpt><trkpt lat="44.837356506365936" lon="9.653948144903108"><ele>515.0</ele><time>2026-05-02T16:52:06.999Z</time></trkpt><trkpt lat="44.83744947012519" lon="9.654060785936492"><ele>517.5</ele><time>2026-05-02T16:52:07.999Z</time></trkpt><trkpt lat="44.837537569888795" lon="9.654187047638475"><ele>520.0</ele><time>2026-05-02T16:52:08.999Z</time></trkpt><trkpt lat="44.83761735713" lon="9.654326077301539"><ele>517.75</ele><time>2026-05-02T16:52:09.999Z</time></trkpt><trkpt lat="44.837685924739674" lon="9.654469557065855"><ele>515.5</ele><time>2026-05-02T16:52:10.999Z</time></trkpt><trkpt lat="44.8377400054045" lon="9.65460469283157"><ele>513.25</ele><time>2026-05-02T16:52:11.999Z</time></trkpt><trkpt lat="44.83778225645613" lon="9.65475248202926"><ele>511.0</ele><time>2026-05-02T16:52:12.999Z</time></trkpt><trkpt lat="44.83781280357538" lon="9.654912869488818"><ele>511.0</ele><time>2026-05-02T16:52:13.999Z</time></trkpt><trkpt lat="44.83784221707405" lon="9.655081988149288"><ele>511.0</ele><time>2026-05-02T16:52:14.999Z</time></trkpt><trkpt lat="44.837880856943535" lon="9.655245163379856"><ele>511.0</ele><time>2026-05-02T16:52:15.999Z</time></trkpt><trkpt lat="44.83793698697833" lon="9.655411336966553"><ele>511.0</ele><time>2026-05-02T16:52:16.999Z</time></trkpt><trkpt lat="44.83798880913695" lon="9.655576002187088"><ele>510.75</ele><time>2026-05-02T16:52:17.999Z</time></trkpt><trkpt lat="44.838037660719934" lon="9.655764960934743"><ele>510.5</ele><time>2026-05-02T16:52:18.999Z</time></trkpt><trkpt lat="44.83807793900944" lon="9.655971353828544"><ele>510.25</ele><time>2026-05-02T16:52:19.999Z</time></trkpt><trkpt lat="44.83811568201491" lon="9.656177789215283"><ele>510.0</ele><time>2026-05-02T16:52:20.999Z</time></trkpt><trkpt lat="44.83814769897989" lon="9.656374696807722"><ele>509.5</ele><time>2026-05-02T16:52:21.999Z</time></trkpt><trkpt lat="44.83817091750688" lon="9.656543337808882"><ele>509.0</ele><time>2026-05-02T16:52:22.999Z</time></trkpt><trkpt lat="44.83820062744561" lon="9.656692079553935"><ele>508.5</ele><time>2026-05-02T16:52:23.999Z</time></trkpt><trkpt lat="44.83825930483042" lon="9.656830437284293"><ele>508.0</ele><time>2026-05-02T16:52:24.999Z</time></trkpt><trkpt lat="44.838346290480125" lon="9.656944534261065"><ele>508.75</ele><time>2026-05-02T16:52:25.999Z</time></trkpt><trkpt lat="44.83843145851132" lon="9.65705146616643"><ele>509.5</ele><time>2026-05-02T16:52:26.999Z</time></trkpt><trkpt lat="44.83851105875932" lon="9.657171758727259"><ele>510.25</ele><time>2026-05-02T16:52:27.999Z</time></trkpt><trkpt lat="44.838595084831844" lon="9.657302527421137"><ele>511.0</ele><time>2026-05-02T16:52:28.999Z</time></trkpt><trkpt lat="44.83868607156349" lon="9.657442736883379"><ele>508.25</ele><time>2026-05-02T16:52:29.999Z</time></trkpt><trkpt lat="44.838781589105295" lon="9.657569562763971"><ele>505.5</ele><time>2026-05-02T16:52:30.999Z</time></trkpt><trkpt lat="44.83888249898636" lon="9.657687125406948"><ele>502.75</ele><time>2026-05-02T16:52:31.999Z</time></trkpt><trkpt lat="44.83898187739796" lon="9.65779539562516"><ele>500.0</ele><time>2026-05-02T16:52:32.999Z</time></trkpt><trkpt lat="44.83906950514502" lon="9.65788802021331"><ele>500.0</ele><time>2026-05-02T16:52:33.999Z</time></trkpt><trkpt lat="44.839154467655256" lon="9.657981435368722"><ele>500.0</ele><time>2026-05-02T16:52:34.999Z</time></trkpt><trkpt lat="44.8392435285797" lon="9.658076893431119"><ele>500.0</ele><time>2026-05-02T16:52:35.999Z</time></trkpt><trkpt lat="44.83933030195429" lon="9.658172515806971"><ele>500.0</ele><time>2026-05-02T16:52:36.999Z</time></trkpt><trkpt lat="44.83941506060832" lon="9.658271149136448"><ele>500.0</ele><time>2026-05-02T16:52:37.999Z</time></trkpt><trkpt lat="44.8394981161254" lon="9.658364130074048"><ele>498.4</ele><time>2026-05-02T16:52:38.999Z</time></trkpt><trkpt lat="44.839586841440315" lon="9.658435238956692"><ele>496.8</ele><time>2026-05-02T16:52:39.999Z</time></trkpt><trkpt lat="44.83968260839903" lon="9.658483345702134"><ele>495.20000000000005</ele><time>2026-05-02T16:52:40.999Z</time></trkpt><trkpt lat="44.83978315803156" lon="9.658499301134515"><ele>493.6</ele><time>2026-05-02T16:52:41.999Z</time></trkpt><trkpt lat="44.83988795335061" lon="9.658500547799528"><ele>492.0</ele><time>2026-05-02T16:52:42.998Z</time></trkpt><trkpt lat="44.83998486283646" lon="9.658507546806222"><ele>492.0</ele><time>2026-05-02T16:52:43.998Z</time></trkpt><trkpt lat="44.84008312797922" lon="9.6585333054189"><ele>492.00000000000006</ele><time>2026-05-02T16:52:44.998Z</time></trkpt><trkpt lat="44.840192314491745" lon="9.658571900097789"><ele>492.00000000000006</ele><time>2026-05-02T16:52:45.998Z</time></trkpt><trkpt lat="44.84029900697309" lon="9.658617054498299"><ele>492.0</ele><time>2026-05-02T16:52:46.998Z</time></trkpt><trkpt lat="44.84040007252344" lon="9.65864807241212"><ele>492.0</ele><time>2026-05-02T16:52:47.998Z</time></trkpt><trkpt lat="44.84050436801167" lon="9.658656728560223"><ele>490.0</ele><time>2026-05-02T16:52:48.998Z</time></trkpt><trkpt lat="44.840609197836095" lon="9.658647730891055"><ele>488.00000000000006</ele><time>2026-05-02T16:52:49.998Z</time></trkpt><trkpt lat="44.840711524272926" lon="9.658637954982623"><ele>486.00000000000006</ele><time>2026-05-02T16:52:50.998Z</time></trkpt><trkpt lat="44.840816449379965" lon="9.658638362911159"><ele>484.0</ele><time>2026-05-02T16:52:51.998Z</time></trkpt><trkpt lat="44.84091852429629" lon="9.658652213718051"><ele>482.0</ele><time>2026-05-02T16:52:52.998Z</time></trkpt><trkpt lat="44.84101870420689" lon="9.658683375117885"><ele>481.6</ele><time>2026-05-02T16:52:53.998Z</time></trkpt><trkpt lat="44.84111858010902" lon="9.658714833712047"><ele>481.20000000000005</ele><time>2026-05-02T16:52:54.998Z</time></trkpt><trkpt lat="44.84122348692702" lon="9.658737677925021"><ele>480.8</ele><time>2026-05-02T16:52:55.998Z</time></trkpt><trkpt lat="44.84134007398837" lon="9.65875790404035"><ele>480.4</ele><time>2026-05-02T16:52:56.998Z</time></trkpt><trkpt lat="44.84145624901804" lon="9.658779178943853"><ele>480.0</ele><time>2026-05-02T16:52:57.998Z</time></trkpt><trkpt lat="44.8415722839915" lon="9.658808074595028"><ele>480.0</ele><time>2026-05-02T16:52:58.998Z</time></trkpt><trkpt lat="44.841686390286796" lon="9.658839659687313"><ele>480.0</ele><time>2026-05-02T16:52:59.998Z</time></trkpt><trkpt lat="44.841795818097324" lon="9.658872187008011"><ele>480.0</ele><time>2026-05-02T16:53:00.998Z</time></trkpt><trkpt lat="44.84190037661765" lon="9.658907224418558"><ele>480.0</ele><time>2026-05-02T16:53:01.998Z</time></trkpt><trkpt lat="44.842012564634985" lon="9.658944363687526"><ele>477.25</ele><time>2026-05-02T16:53:02.998Z</time></trkpt><trkpt lat="44.84212378787564" lon="9.658981582355674"><ele>474.5</ele><time>2026-05-02T16:53:03.998Z</time></trkpt><trkpt lat="44.84223571989934" lon="9.65902264033548"><ele>471.75</ele><time>2026-05-02T16:53:04.998Z</time></trkpt><trkpt lat="44.84234981593716" lon="9.659071305858754"><ele>469.0</ele><time>2026-05-02T16:53:05.998Z</time></trkpt><trkpt lat="44.842461677645886" lon="9.659122159001246"><ele>469.0</ele><time>2026-05-02T16:53:06.998Z</time></trkpt><trkpt lat="44.84257250923465" lon="9.659174706695918"><ele>469.0</ele><time>2026-05-02T16:53:07.998Z</time></trkpt><trkpt lat="44.842685836508245" lon="9.659231364612848"><ele>469.0</ele><time>2026-05-02T16:53:08.998Z</time></trkpt><trkpt lat="44.842802201218014" lon="9.6592907020903"><ele>469.0</ele><time>2026-05-02T16:53:09.998Z</time></trkpt><trkpt lat="44.8429215977562" lon="9.659347131019446"><ele>466.0</ele><time>2026-05-02T16:53:10.998Z</time></trkpt><trkpt lat="44.84304399409979" lon="9.659406353493102"><ele>463.0</ele><time>2026-05-02T16:53:11.998Z</time></trkpt><trkpt lat="44.8431708527458" lon="9.659460626466881"><ele>460.0</ele><time>2026-05-02T16:53:12.998Z</time></trkpt><trkpt lat="44.84330144996099" lon="9.659508814793776"><ele>457.0</ele><time>2026-05-02T16:53:13.998Z</time></trkpt><trkpt lat="44.8434308580573" lon="9.659555932145066"><ele>455.75</ele><time>2026-05-02T16:53:14.998Z</time></trkpt><trkpt lat="44.84355303577197" lon="9.659608299418775"><ele>454.5</ele><time>2026-05-02T16:53:15.998Z</time></trkpt><trkpt lat="44.84366860927506" lon="9.659666245858089"><ele>453.25</ele><time>2026-05-02T16:53:16.998Z</time></trkpt><trkpt lat="44.843782925597104" lon="9.659726565291479"><ele>452.0</ele><time>2026-05-02T16:53:17.998Z</time></trkpt><trkpt lat="44.84389611586303" lon="9.659787645625531"><ele>452.0</ele><time>2026-05-02T16:53:18.998Z</time></trkpt><trkpt lat="44.844015608665465" lon="9.659842677845699"><ele>452.0</ele><time>2026-05-02T16:53:19.998Z</time></trkpt><trkpt lat="44.84414394225304" lon="9.659893377792333"><ele>452.0</ele><time>2026-05-02T16:53:21Z</time></trkpt><trkpt lat="44.844273190926266" lon="9.65993650438743"><ele>452.0</ele><time>2026-05-02T16:53:22Z</time></trkpt><trkpt lat="44.84440083538885" lon="9.659971082547763"><ele>453.0</ele><time>2026-05-02T16:53:23Z</time></trkpt><trkpt lat="44.84452799321049" lon="9.66001079154526"><ele>454.0</ele><time>2026-05-02T16:53:24Z</time></trkpt><trkpt lat="44.84465456943238" lon="9.660075047650313"><ele>455.0</ele><time>2026-05-02T16:53:25Z</time></trkpt><trkpt lat="44.844782434862154" lon="9.660161654135132"><ele>456.0</ele><time>2026-05-02T16:53:26Z</time></trkpt><trkpt lat="44.84490635738476" lon="9.660263781018"><ele>456.5</ele><time>2026-05-02T16:53:27Z</time></trkpt><trkpt lat="44.845023048332244" lon="9.660377221169515"><ele>457.0</ele><time>2026-05-02T16:53:28Z</time></trkpt><trkpt lat="44.84514238345138" lon="9.660491635359545"><ele>457.5</ele><time>2026-05-02T16:53:29Z</time></trkpt><trkpt lat="44.845259922141125" lon="9.660603684894484"><ele>458.0</ele><time>2026-05-02T16:53:30Z</time></trkpt><trkpt lat="44.84537940546248" lon="9.660721417572354"><ele>457.75</ele><time>2026-05-02T16:53:31Z</time></trkpt><trkpt lat="44.8454956524138" lon="9.660843900590466"><ele>457.5</ele><time>2026-05-02T16:53:32Z</time></trkpt><trkpt lat="44.84560465287498" lon="9.660970665313652"><ele>457.25</ele><time>2026-05-02T16:53:33Z</time></trkpt><trkpt lat="44.84570469603264" lon="9.661091448728756"><ele>457.0</ele><time>2026-05-02T16:53:34Z</time></trkpt><trkpt lat="44.84579541236958" lon="9.66122974929479"><ele>457.0</ele><time>2026-05-02T16:53:35Z</time></trkpt><trkpt lat="44.8458810832281" lon="9.661372572558529"><ele>457.0</ele><time>2026-05-02T16:53:36Z</time></trkpt><trkpt lat="44.845967364191814" lon="9.661526175655663"><ele>457.0</ele><time>2026-05-02T16:53:37Z</time></trkpt><trkpt lat="44.84604955071297" lon="9.661684226425534"><ele>457.0</ele><time>2026-05-02T16:53:38Z</time></trkpt><trkpt lat="44.846133114409916" lon="9.661833886399789"><ele>455.75</ele><time>2026-05-02T16:53:39Z</time></trkpt><trkpt lat="44.846217665463044" lon="9.661976415487601"><ele>454.5</ele><time>2026-05-02T16:53:40Z</time></trkpt><trkpt lat="44.84630783717584" lon="9.662105090219764"><ele>453.25</ele><time>2026-05-02T16:53:41Z</time></trkpt><trkpt lat="44.84640136125024" lon="9.662221850461627"><ele>452.0</ele><time>2026-05-02T16:53:42Z</time></trkpt><trkpt lat="44.84650001386584" lon="9.662314599371316"><ele>452.0</ele><time>2026-05-02T16:53:43Z</time></trkpt><trkpt lat="44.846610720912366" lon="9.662371226780483"><ele>452.0</ele><time>2026-05-02T16:53:44Z</time></trkpt><trkpt lat="44.84672517404098" lon="9.662363332849283"><ele>452.0</ele><time>2026-05-02T16:53:45Z</time></trkpt><trkpt lat="44.84683617422082" lon="9.662322389217556"><ele>452.0</ele><time>2026-05-02T16:53:46Z</time></trkpt><trkpt lat="44.846945924930225" lon="9.662298511541842"><ele>450.8</ele><time>2026-05-02T16:53:47Z</time></trkpt><trkpt lat="44.84704717460516" lon="9.66231716582724"><ele>449.6</ele><time>2026-05-02T16:53:48Z</time></trkpt><trkpt lat="44.84714908633607" lon="9.662356289844345"><ele>448.40000000000003</ele><time>2026-05-02T16:53:49Z</time></trkpt><trkpt lat="44.84724923757079" lon="9.662413397603775"><ele>447.20000000000005</ele><time>2026-05-02T16:53:50Z</time></trkpt><trkpt lat="44.847350508819126" lon="9.662484259692256"><ele>446.0</ele><time>2026-05-02T16:53:51Z</time></trkpt><trkpt lat="44.84745280983362" lon="9.662547993609886"><ele>446.0</ele><time>2026-05-02T16:53:52Z</time></trkpt><trkpt lat="44.847558807355846" lon="9.662595379588085"><ele>446.0</ele><time>2026-05-02T16:53:53Z</time></trkpt><trkpt lat="44.84766715815126" lon="9.662633905545476"><ele>446.0</ele><time>2026-05-02T16:53:54Z</time></trkpt><trkpt lat="44.847773473789836" lon="9.66267005287183"><ele>446.0</ele><time>2026-05-02T16:53:55Z</time></trkpt><trkpt lat="44.84787546118806" lon="9.662709788796196"><ele>446.0</ele><time>2026-05-02T16:53:56Z</time></trkpt><trkpt lat="44.84797557997725" lon="9.662751243630527"><ele>443.8</ele><time>2026-05-02T16:53:57Z</time></trkpt><trkpt lat="44.848072912723964" lon="9.662789041261181"><ele>441.6</ele><time>2026-05-02T16:53:58Z</time></trkpt><trkpt lat="44.84817412555999" lon="9.662822322049267"><ele>439.4</ele><time>2026-05-02T16:53:59Z</time></trkpt><trkpt lat="44.84827631240878" lon="9.662851790994774"><ele>437.2</ele><time>2026-05-02T16:53:59.999Z</time></trkpt><trkpt lat="44.84838520412122" lon="9.662888017530832"><ele>435.0</ele><time>2026-05-02T16:54:00.999Z</time></trkpt><trkpt lat="44.848492107986864" lon="9.662921054580572"><ele>434.8</ele><time>2026-05-02T16:54:01.999Z</time></trkpt><trkpt lat="44.848601092908645" lon="9.662933615780862"><ele>434.6</ele><time>2026-05-02T16:54:02.999Z</time></trkpt><trkpt lat="44.84870654104361" lon="9.662922194199632"><ele>434.4</ele><time>2026-05-02T16:54:03.999Z</time></trkpt><trkpt lat="44.848806122536644" lon="9.662881114578045"><ele>434.2</ele><time>2026-05-02T16:54:04.999Z</time></trkpt><trkpt lat="44.84890148782547" lon="9.662822899655676"><ele>434.0</ele><time>2026-05-02T16:54:05.999Z</time></trkpt><trkpt lat="44.84899556011698" lon="9.662765719276234"><ele>434.0</ele><time>2026-05-02T16:54:06.999Z</time></trkpt><trkpt lat="44.84909143906698" lon="9.662727407353007"><ele>434.0</ele><time>2026-05-02T16:54:07.999Z</time></trkpt><trkpt lat="44.84919187266133" lon="9.662718549462912"><ele>434.0</ele><time>2026-05-02T16:54:08.999Z</time></trkpt><trkpt lat="44.849291637049795" lon="9.662740223431166"><ele>434.0</ele><time>2026-05-02T16:54:09.999Z</time></trkpt><trkpt lat="44.84938259320589" lon="9.66278630959433"><ele>434.0</ele><time>2026-05-02T16:54:10.999Z</time></trkpt><trkpt lat="44.849481252303825" lon="9.66284449593715"><ele>432.2</ele><time>2026-05-02T16:54:11.999Z</time></trkpt><trkpt lat="44.849582312841484" lon="9.662912587434311"><ele>430.4</ele><time>2026-05-02T16:54:12.999Z</time></trkpt><trkpt lat="44.84968405437485" lon="9.66296912277331"><ele>428.6</ele><time>2026-05-02T16:54:13.999Z</time></trkpt><trkpt lat="44.849788869679536" lon="9.663013537835331"><ele>426.8</ele><time>2026-05-02T16:54:14.999Z</time></trkpt><trkpt lat="44.84989357599837" lon="9.663046590904306"><ele>425.0</ele><time>2026-05-02T16:54:15.999Z</time></trkpt><trkpt lat="44.849997337868636" lon="9.663074079405952"><ele>425.0</ele><time>2026-05-02T16:54:16.999Z</time></trkpt><trkpt lat="44.85009935078534" lon="9.663093129808358"><ele>425.0</ele><time>2026-05-02T16:54:17.999Z</time></trkpt><trkpt lat="44.850201926744624" lon="9.663104883102632"><ele>425.0</ele><time>2026-05-02T16:54:18.999Z</time></trkpt><trkpt lat="44.850302543819765" lon="9.66310888128881"><ele>425.0</ele><time>2026-05-02T16:54:19.999Z</time></trkpt><trkpt lat="44.8504076232055" lon="9.663104373622184"><ele>425.0</ele><time>2026-05-02T16:54:20.999Z</time></trkpt><trkpt lat="44.85050823797756" lon="9.663091201552572"><ele>424.6</ele><time>2026-05-02T16:54:21.999Z</time></trkpt><trkpt lat="44.85060293695897" lon="9.663073702414891"><ele>424.2</ele><time>2026-05-02T16:54:22.999Z</time></trkpt><trkpt lat="44.85069343718602" lon="9.663056178961156"><ele>423.79999999999995</ele><time>2026-05-02T16:54:23.999Z</time></trkpt><trkpt lat="44.85078402453966" lon="9.663031122674452"><ele>423.4</ele><time>2026-05-02T16:54:24.999Z</time></trkpt><trkpt lat="44.85087430404201" lon="9.662979492627086"><ele>423.0</ele><time>2026-05-02T16:54:25.999Z</time></trkpt><trkpt lat="44.85095829699055" lon="9.662912041518636"><ele>423.0</ele><time>2026-05-02T16:54:26.999Z</time></trkpt><trkpt lat="44.85103091732002" lon="9.66282201677017"><ele>423.0</ele><time>2026-05-02T16:54:27.999Z</time></trkpt><trkpt lat="44.85108511803246" lon="9.662723324345984"><ele>423.0</ele><time>2026-05-02T16:54:28.999Z</time></trkpt><trkpt lat="44.851119615795476" lon="9.662632654450796"><ele>423.0</ele><time>2026-05-02T16:54:29.999Z</time></trkpt><trkpt lat="44.85115235199982" lon="9.66255120828985"><ele>423.0</ele><time>2026-05-02T16:54:30.999Z</time></trkpt><trkpt lat="44.851192998340544" lon="9.662413565487185"><ele>423.0</ele><time>2026-05-02T16:54:32.999Z</time></trkpt><trkpt lat="44.851236253258264" lon="9.662272916353666"><ele>421.79999999999995</ele><time>2026-05-02T16:54:34.999Z</time></trkpt><trkpt lat="44.851294431609006" lon="9.662158884217002"><ele>420.6</ele><time>2026-05-02T16:54:36.999Z</time></trkpt><trkpt lat="44.851388508313256" lon="9.662102125376409"><ele>419.4</ele><time>2026-05-02T16:54:38.999Z</time></trkpt><trkpt lat="44.851513505152404" lon="9.662112047447724"><ele>418.20000000000005</ele><time>2026-05-02T16:54:40.999Z</time></trkpt><trkpt lat="44.85159086739422" lon="9.662132543198847"><ele>417.0</ele><time>2026-05-02T16:54:41.999Z</time></trkpt><trkpt lat="44.85167584426249" lon="9.662163719175272"><ele>417.0</ele><time>2026-05-02T16:54:42.999Z</time></trkpt><trkpt lat="44.851759568333584" lon="9.662196307960198"><ele>417.0</ele><time>2026-05-02T16:54:43.999Z</time></trkpt><trkpt lat="44.85184476107478" lon="9.662237552483278"><ele>417.0</ele><time>2026-05-02T16:54:44.999Z</time></trkpt><trkpt lat="44.851930355827236" lon="9.662267111957146"><ele>417.0</ele><time>2026-05-02T16:54:45.999Z</time></trkpt><trkpt lat="44.852021307592274" lon="9.662281950033927"><ele>417.0</ele><time>2026-05-02T16:54:46.999Z</time></trkpt><trkpt lat="44.85210812084499" lon="9.662298946919103"><ele>417.0</ele><time>2026-05-02T16:54:47.998Z</time></trkpt><trkpt lat="44.852194258121486" lon="9.66231806572968"><ele>415.8333333333333</ele><time>2026-05-02T16:54:48.998Z</time></trkpt><trkpt lat="44.85228003097665" lon="9.662335819442802"><ele>414.66666666666663</ele><time>2026-05-02T16:54:49.998Z</time></trkpt><trkpt lat="44.85236513839988" lon="9.662347233780036"><ele>413.5</ele><time>2026-05-02T16:54:50.998Z</time></trkpt><trkpt lat="44.852448919781075" lon="9.66234754288041"><ele>412.3333333333333</ele><time>2026-05-02T16:54:51.998Z</time></trkpt><trkpt lat="44.85253381733476" lon="9.662336245478059"><ele>411.16666666666663</ele><time>2026-05-02T16:54:52.998Z</time></trkpt><trkpt lat="44.85262210033535" lon="9.662322226154643"><ele>410.0</ele><time>2026-05-02T16:54:53.998Z</time></trkpt><trkpt lat="44.85271542081846" lon="9.662300097578983"><ele>408.4</ele><time>2026-05-02T16:54:54.998Z</time></trkpt><trkpt lat="44.852811914097224" lon="9.662272670815078"><ele>406.8</ele><time>2026-05-02T16:54:55.998Z</time></trkpt><trkpt lat="44.85290645930851" lon="9.662237258827776"><ele>405.20000000000005</ele><time>2026-05-02T16:54:56.998Z</time></trkpt><trkpt lat="44.85300040178032" lon="9.662197031986826"><ele>403.6</ele><time>2026-05-02T16:54:57.998Z</time></trkpt><trkpt lat="44.85309220427163" lon="9.662168893272966"><ele>402.0</ele><time>2026-05-02T16:54:58.998Z</time></trkpt><trkpt lat="44.853181042045286" lon="9.662148958163172"><ele>402.0</ele><time>2026-05-02T16:54:59.998Z</time></trkpt><trkpt lat="44.85327344314717" lon="9.662145589121423"><ele>402.0</ele><time>2026-05-02T16:55:00.998Z</time></trkpt><trkpt lat="44.85335654539114" lon="9.662177018870477"><ele>402.0</ele><time>2026-05-02T16:55:01.998Z</time></trkpt><trkpt lat="44.85343641935629" lon="9.662211002933335"><ele>402.0</ele><time>2026-05-02T16:55:02.998Z</time></trkpt><trkpt lat="44.85351603800654" lon="9.662242206449642"><ele>402.0</ele><time>2026-05-02T16:55:03.998Z</time></trkpt><trkpt lat="44.8535940728662" lon="9.662269269538577"><ele>402.0</ele><time>2026-05-02T16:55:04.998Z</time></trkpt><trkpt lat="44.85366932443066" lon="9.662295933204183"><ele>401.0</ele><time>2026-05-02T16:55:05.998Z</time></trkpt><trkpt lat="44.85374611020888" lon="9.66231724980297"><ele>400.0</ele><time>2026-05-02T16:55:06.998Z</time></trkpt><trkpt lat="44.853826020812406" lon="9.662323637583802"><ele>399.0</ele><time>2026-05-02T16:55:07.998Z</time></trkpt><trkpt lat="44.853907638431785" lon="9.662315944722737"><ele>398.0</ele><time>2026-05-02T16:55:08.998Z</time></trkpt><trkpt lat="44.85399097643041" lon="9.662303429439575"><ele>397.0</ele><time>2026-05-02T16:55:09.998Z</time></trkpt><trkpt lat="44.854076892868704" lon="9.66229287297083"><ele>396.0</ele><time>2026-05-02T16:55:10.998Z</time></trkpt><trkpt lat="44.85416202517281" lon="9.662296335608024"><ele>396.0</ele><time>2026-05-02T16:55:11.998Z</time></trkpt><trkpt lat="44.85424792678221" lon="9.662325617685918"><ele>396.0</ele><time>2026-05-02T16:55:12.998Z</time></trkpt><trkpt lat="44.85432547180335" lon="9.662384645604183"><ele>396.0</ele><time>2026-05-02T16:55:13.998Z</time></trkpt><trkpt lat="44.854386403033445" lon="9.662457719134023"><ele>396.0</ele><time>2026-05-02T16:55:14.998Z</time></trkpt><trkpt lat="44.854442928300216" lon="9.662536960720299"><ele>396.0</ele><time>2026-05-02T16:55:15.998Z</time></trkpt><trkpt lat="44.854504678986615" lon="9.662607309625395"><ele>396.0</ele><time>2026-05-02T16:55:16.998Z</time></trkpt><trkpt lat="44.854574109621986" lon="9.662644148688466"><ele>394.2857142857143</ele><time>2026-05-02T16:55:17.998Z</time></trkpt><trkpt lat="44.85464616553204" lon="9.662648480993104"><ele>392.57142857142856</ele><time>2026-05-02T16:55:18.998Z</time></trkpt><trkpt lat="44.85470985077747" lon="9.662589763067205"><ele>390.85714285714283</ele><time>2026-05-02T16:55:19.998Z</time></trkpt><trkpt lat="44.854755897214346" lon="9.662503507078707"><ele>389.1428571428571</ele><time>2026-05-02T16:55:20.998Z</time></trkpt><trkpt lat="44.85477797967187" lon="9.662404657798328"><ele>387.42857142857144</ele><time>2026-05-02T16:55:21.998Z</time></trkpt><trkpt lat="44.85479695028334" lon="9.66231126503596"><ele>385.71428571428567</ele><time>2026-05-02T16:55:22.998Z</time></trkpt><trkpt lat="44.854834642845915" lon="9.66222961304816"><ele>384.0</ele><time>2026-05-02T16:55:23.998Z</time></trkpt><trkpt lat="44.85489221492416" lon="9.66216368076729"><ele>384.0</ele><time>2026-05-02T16:55:24.998Z</time></trkpt><trkpt lat="44.85496303733342" lon="9.662118642294399"><ele>384.0</ele><time>2026-05-02T16:55:25.998Z</time></trkpt><trkpt lat="44.85505216371488" lon="9.662082023413992"><ele>384.0</ele><time>2026-05-02T16:55:27Z</time></trkpt><trkpt lat="44.855161744158785" lon="9.662051871529904"><ele>384.0</ele><time>2026-05-02T16:55:28Z</time></trkpt><trkpt lat="44.855278402308926" lon="9.662030248490053"><ele>384.0</ele><time>2026-05-02T16:55:29Z</time></trkpt><trkpt lat="44.85539718789015" lon="9.662009588857666"><ele>383.2</ele><time>2026-05-02T16:55:30Z</time></trkpt><trkpt lat="44.855512263282705" lon="9.661990715536826"><ele>382.4</ele><time>2026-05-02T16:55:31Z</time></trkpt><trkpt lat="44.85561341931729" lon="9.661971696866837"><ele>381.6</ele><time>2026-05-02T16:55:32Z</time></trkpt><trkpt lat="44.85569632575487" lon="9.661957388873038"><ele>380.8</ele><time>2026-05-02T16:55:33Z</time></trkpt><trkpt lat="44.8557753246663" lon="9.661942610808683"><ele>380.0</ele><time>2026-05-02T16:55:34Z</time></trkpt><trkpt lat="44.85585587384162" lon="9.661930439755247"><ele>380.0</ele><time>2026-05-02T16:55:35Z</time></trkpt><trkpt lat="44.8559273714056" lon="9.661919574625466"><ele>380.0</ele><time>2026-05-02T16:55:36Z</time></trkpt><trkpt lat="44.85604865930617" lon="9.66189630558586"><ele>380.0</ele><time>2026-05-02T16:55:38Z</time></trkpt><trkpt lat="44.856141331790226" lon="9.661883610061743"><ele>380.0</ele><time>2026-05-02T16:55:40Z</time></trkpt><trkpt lat="44.85620637876743" lon="9.661875060605691"><ele>380.0</ele><time>2026-05-02T16:55:42Z</time></trkpt><trkpt lat="44.85628437166148" lon="9.66188245645212"><ele>380.0</ele><time>2026-05-02T16:55:46Z</time></trkpt><trkpt lat="44.856411862737254" lon="9.661849019296314"><ele>378.8</ele><time>2026-05-02T16:55:48Z</time></trkpt><trkpt lat="44.85650337285323" lon="9.661816742699703"><ele>377.6</ele><time>2026-05-02T16:55:49Z</time></trkpt><trkpt lat="44.85660590911283" lon="9.66179483198346"><ele>376.4</ele><time>2026-05-02T16:55:50Z</time></trkpt><trkpt lat="44.85670488593048" lon="9.661789707134107"><ele>375.2</ele><time>2026-05-02T16:55:51Z</time></trkpt><trkpt lat="44.85681335990231" lon="9.661796358229815"><ele>374.0</ele><time>2026-05-02T16:55:52Z</time></trkpt><trkpt lat="44.85692634183145" lon="9.661794949352094"><ele>374.0</ele><time>2026-05-02T16:55:53Z</time></trkpt><trkpt lat="44.857034486961304" lon="9.661783843201757"><ele>374.0</ele><time>2026-05-02T16:55:54Z</time></trkpt><trkpt lat="44.857145368976724" lon="9.66175730825898"><ele>374.0</ele><time>2026-05-02T16:55:55Z</time></trkpt><trkpt lat="44.85725501853862" lon="9.661709008607783"><ele>374.0</ele><time>2026-05-02T16:55:56Z</time></trkpt><trkpt lat="44.85736764021229" lon="9.661645042054852"><ele>374.0</ele><time>2026-05-02T16:55:57Z</time></trkpt><trkpt lat="44.857478064404745" lon="9.661572408867919"><ele>374.0</ele><time>2026-05-02T16:55:58Z</time></trkpt><trkpt lat="44.85758972133793" lon="9.661497644281248"><ele>374.0</ele><time>2026-05-02T16:55:59Z</time></trkpt><trkpt lat="44.85769798749912" lon="9.661416912308683"><ele>374.0</ele><time>2026-05-02T16:56:00Z</time></trkpt><trkpt lat="44.857799377903" lon="9.661332666001746"><ele>377.0</ele><time>2026-05-02T16:56:01Z</time></trkpt><trkpt lat="44.857890200707565" lon="9.661258327507415"><ele>380.0</ele><time>2026-05-02T16:56:02Z</time></trkpt><trkpt lat="44.857977430816035" lon="9.661207269136115"><ele>383.0</ele><time>2026-05-02T16:56:03Z</time></trkpt><trkpt lat="44.85806498405855" lon="9.661196624692222"><ele>386.0</ele><time>2026-05-02T16:56:04Z</time></trkpt><trkpt lat="44.85814814746276" lon="9.661228072156643"><ele>389.0</ele><time>2026-05-02T16:56:05Z</time></trkpt><trkpt lat="44.85823185171339" lon="9.661309547692815"><ele>388.99999999999994</ele><time>2026-05-02T16:56:06Z</time></trkpt><trkpt lat="44.858311878317274" lon="9.661379225542008"><ele>389.0</ele><time>2026-05-02T16:56:06.999Z</time></trkpt><trkpt lat="44.85838763817815" lon="9.661415354096812"><ele>389.0</ele><time>2026-05-02T16:56:07.999Z</time></trkpt><trkpt lat="44.85845494019606" lon="9.661415534243066"><ele>389.0</ele><time>2026-05-02T16:56:08.999Z</time></trkpt><trkpt lat="44.858530827905625" lon="9.661379608710927"><ele>388.99999999999994</ele><time>2026-05-02T16:56:09.999Z</time></trkpt><trkpt lat="44.85861508371049" lon="9.66131588294352"><ele>389.0</ele><time>2026-05-02T16:56:10.999Z</time></trkpt><trkpt lat="44.85870782832228" lon="9.66126589649998"><ele>388.6</ele><time>2026-05-02T16:56:11.999Z</time></trkpt><trkpt lat="44.85880005561452" lon="9.661231311979458"><ele>388.2</ele><time>2026-05-02T16:56:12.999Z</time></trkpt><trkpt lat="44.85889088937619" lon="9.661192931973286"><ele>387.8</ele><time>2026-05-02T16:56:13.999Z</time></trkpt><trkpt lat="44.8589897137012" lon="9.661151745394333"><ele>387.40000000000003</ele><time>2026-05-02T16:56:14.999Z</time></trkpt><trkpt lat="44.859086908129754" lon="9.66108463412476"><ele>387.0</ele><time>2026-05-02T16:56:15.999Z</time></trkpt><trkpt lat="44.85917725909534" lon="9.661001677415866"><ele>387.0</ele><time>2026-05-02T16:56:16.999Z</time></trkpt><trkpt lat="44.85926150752441" lon="9.66090278419732"><ele>387.0</ele><time>2026-05-02T16:56:17.999Z</time></trkpt><trkpt lat="44.85933834476559" lon="9.660796153562453"><ele>387.0</ele><time>2026-05-02T16:56:18.999Z</time></trkpt><trkpt lat="44.85942205533934" lon="9.66070388463845"><ele>387.0</ele><time>2026-05-02T16:56:19.999Z</time></trkpt><trkpt lat="44.859506100617466" lon="9.660621175038898"><ele>387.0</ele><time>2026-05-02T16:56:20.999Z</time></trkpt><trkpt lat="44.859588345675654" lon="9.660546487591382"><ele>388.20000000000005</ele><time>2026-05-02T16:56:21.999Z</time></trkpt><trkpt lat="44.85967606457612" lon="9.660475869764555"><ele>389.4</ele><time>2026-05-02T16:56:22.999Z</time></trkpt><trkpt lat="44.85976328654627" lon="9.660401467573038"><ele>390.6</ele><time>2026-05-02T16:56:23.999Z</time></trkpt><trkpt lat="44.85985764864458" lon="9.660324845899021"><ele>391.79999999999995</ele><time>2026-05-02T16:56:24.999Z</time></trkpt><trkpt lat="44.85993390059264" lon="9.660218979894506"><ele>393.0</ele><time>2026-05-02T16:56:25.999Z</time></trkpt><trkpt lat="44.859998260639394" lon="9.660107815877398"><ele>390.79999999999995</ele><time>2026-05-02T16:56:26.999Z</time></trkpt><trkpt lat="44.860065647531364" lon="9.660006698349777"><ele>388.6</ele><time>2026-05-02T16:56:27.999Z</time></trkpt><trkpt lat="44.86012900671618" lon="9.659916903813572"><ele>386.4</ele><time>2026-05-02T16:56:28.999Z</time></trkpt><trkpt lat="44.860220188435655" lon="9.659836475380141"><ele>384.20000000000005</ele><time>2026-05-02T16:56:29.999Z</time></trkpt><trkpt lat="44.86032366813528" lon="9.659768792540769"><ele>382.0</ele><time>2026-05-02T16:56:30.999Z</time></trkpt><trkpt lat="44.860425799188704" lon="9.659713898742655"><ele>382.0</ele><time>2026-05-02T16:56:31.999Z</time></trkpt><trkpt lat="44.860519955403866" lon="9.659662743746626"><ele>382.0</ele><time>2026-05-02T16:56:32.999Z</time></trkpt><trkpt lat="44.860607486841126" lon="9.6595956168528"><ele>382.0</ele><time>2026-05-02T16:56:33.999Z</time></trkpt><trkpt lat="44.860694899710545" lon="9.659534124498263"><ele>382.0</ele><time>2026-05-02T16:56:34.999Z</time></trkpt><trkpt lat="44.860786182800595" lon="9.659492116545023"><ele>382.0</ele><time>2026-05-02T16:56:35.999Z</time></trkpt><trkpt lat="44.86088602620889" lon="9.65944595519827"><ele>381.6</ele><time>2026-05-02T16:56:36.999Z</time></trkpt><trkpt lat="44.86098698478646" lon="9.659397708529003"><ele>381.20000000000005</ele><time>2026-05-02T16:56:37.999Z</time></trkpt><trkpt lat="44.86108061112937" lon="9.659359458013014"><ele>380.8</ele><time>2026-05-02T16:56:38.999Z</time></trkpt><trkpt lat="44.861169304767124" lon="9.659333376585616"><ele>380.4</ele><time>2026-05-02T16:56:39.999Z</time></trkpt><trkpt lat="44.86125485420836" lon="9.65931634940999"><ele>380.0</ele><time>2026-05-02T16:56:40.999Z</time></trkpt><trkpt lat="44.86133975760278" lon="9.659324710366999"><ele>380.0</ele><time>2026-05-02T16:56:41.999Z</time></trkpt><trkpt lat="44.86143630541844" lon="9.659344156682982"><ele>380.0</ele><time>2026-05-02T16:56:42.999Z</time></trkpt><trkpt lat="44.86153775117739" lon="9.659382665549593"><ele>380.0</ele><time>2026-05-02T16:56:43.999Z</time></trkpt><trkpt lat="44.861637735159135" lon="9.659424546906497"><ele>380.0</ele><time>2026-05-02T16:56:44.999Z</time></trkpt><trkpt lat="44.86174001695575" lon="9.659459742234322"><ele>380.0</ele><time>2026-05-02T16:56:45.999Z</time></trkpt><trkpt lat="44.861838412600086" lon="9.659489166314179"><ele>379.1666666666667</ele><time>2026-05-02T16:56:46.999Z</time></trkpt><trkpt lat="44.861924971865115" lon="9.659513187209448"><ele>378.33333333333337</ele><time>2026-05-02T16:56:47.999Z</time></trkpt><trkpt lat="44.86201127955971" lon="9.659542724693877"><ele>377.5</ele><time>2026-05-02T16:56:48.999Z</time></trkpt><trkpt lat="44.862096223084876" lon="9.659574690639394"><ele>376.6666666666667</ele><time>2026-05-02T16:56:49.999Z</time></trkpt><trkpt lat="44.86217771890065" lon="9.65961422764789"><ele>375.8333333333333</ele><time>2026-05-02T16:56:50.999Z</time></trkpt><trkpt lat="44.86225259511498" lon="9.659651670423932"><ele>375.0</ele><time>2026-05-02T16:56:51.999Z</time></trkpt><trkpt lat="44.862318527143486" lon="9.659681586722408"><ele>375.0</ele><time>2026-05-02T16:56:52.999Z</time></trkpt><trkpt lat="44.86238637609314" lon="9.659714621847893"><ele>375.0</ele><time>2026-05-02T16:56:53.999Z</time></trkpt><trkpt lat="44.86245287280885" lon="9.65974440591606"><ele>375.0</ele><time>2026-05-02T16:56:54.999Z</time></trkpt><trkpt lat="44.86252227715828" lon="9.659777907598992"><ele>375.0</ele><time>2026-05-02T16:56:55.998Z</time></trkpt><trkpt lat="44.86258597270489" lon="9.659807968284479"><ele>375.0</ele><time>2026-05-02T16:56:56.998Z</time></trkpt><trkpt lat="44.8626488520916" lon="9.659837551658898"><ele>375.0</ele><time>2026-05-02T16:56:57.998Z</time></trkpt><trkpt lat="44.86271193483363" lon="9.659871386700427"><ele>375.0</ele><time>2026-05-02T16:56:58.998Z</time></trkpt><trkpt lat="44.862773054596495" lon="9.65990028868916"><ele>375.1666666666667</ele><time>2026-05-02T16:56:59.998Z</time></trkpt><trkpt lat="44.86283653047809" lon="9.659933420766862"><ele>375.3333333333333</ele><time>2026-05-02T16:57:00.998Z</time></trkpt><trkpt lat="44.862901007310874" lon="9.659965457452817"><ele>375.5</ele><time>2026-05-02T16:57:01.998Z</time></trkpt><trkpt lat="44.86296461416079" lon="9.660000646512803"><ele>375.66666666666663</ele><time>2026-05-02T16:57:02.998Z</time></trkpt><trkpt lat="44.8630253308393" lon="9.660033147624326"><ele>375.8333333333333</ele><time>2026-05-02T16:57:03.998Z</time></trkpt><trkpt lat="44.86312981681681" lon="9.660088630504141"><ele>376.0</ele><time>2026-05-02T16:57:05.998Z</time></trkpt><trkpt lat="44.86322223701871" lon="9.660139301543824"><ele>376.0</ele><time>2026-05-02T16:57:07.998Z</time></trkpt><trkpt lat="44.86328924559092" lon="9.660160546082883"><ele>376.0</ele><time>2026-05-02T16:57:09.998Z</time></trkpt><trkpt lat="44.86335496582804" lon="9.66009377980146"><ele>376.0</ele><time>2026-05-02T16:57:11.998Z</time></trkpt><trkpt lat="44.863393044331666" lon="9.660012915717964"><ele>376.0</ele><time>2026-05-02T16:57:13.998Z</time></trkpt><trkpt lat="44.86348783167589" lon="9.660074984917253"><ele>376.0</ele><time>2026-05-02T16:57:16.998Z</time></trkpt><trkpt lat="44.863569504593976" lon="9.660195299187631"><ele>376.0</ele><time>2026-05-02T16:57:18.998Z</time></trkpt><trkpt lat="44.86365384769884" lon="9.660226947054959"><ele>373.0</ele><time>2026-05-02T16:57:20.998Z</time></trkpt><trkpt lat="44.863737083928086" lon="9.660132056989296"><ele>373.0</ele><time>2026-05-02T16:57:22.998Z</time></trkpt><trkpt lat="44.86378100289039" lon="9.660062472325805"><ele>373.0</ele><time>2026-05-02T16:57:24.998Z</time></trkpt><trkpt lat="44.863841238944225" lon="9.660088587807508"><ele>373.0</ele><time>2026-05-02T16:58:41.999Z</time></trkpt></trkseg></trk></gpx>